<?xml version="1.0" encoding="UTF-8" standalone="no" ?>
<gpx xmlns="http://www.topografix.com/GPX/1/1" xmlns:xsi="http://www.w3.org/2001/XMLSchema-instance" xsi:schemaLocation="http://www.topografix.com/GPX/1/1 http://www.topografix.com/GPX/1/1/gpx.xsd" version="1.1" creator="VisuGPX - https://www.visugpx.com">
  <metadata>
    <name>Vosges - Pyrénées 75. Du refuge de la Gineste à Labastide-Rouairoux</name>
    <desc><![CDATA[Trace AlpineQuest 22/05/2026 06:55:08]]></desc>
  </metadata>
  <trk>
    <name><![CDATA[visugpx_uent60rTDG_1]]></name>
    <extensions>
      <line xmlns="http://www.topografix.com/GPX/gpx_style/0/2">
        <color>0000FF</color>
        <opacity>1</opacity>
        <width>4</width>
      </line>
    </extensions>
    <trkseg>
      <trkpt lat="43.56444" lon="2.79545">
        <ele>972.8</ele>
        <time>2026-05-22T04:55:14Z</time>
      </trkpt>
      <trkpt lat="43.56444" lon="2.79545">
        <ele>972.8</ele>
        <time>2026-05-22T04:55:19Z</time>
      </trkpt>
      <trkpt lat="43.56444" lon="2.79545">
        <ele>972.8</ele>
        <time>2026-05-22T04:55:24Z</time>
      </trkpt>
      <trkpt lat="43.56444" lon="2.79545">
        <ele>972.8</ele>
        <time>2026-05-22T04:55:29Z</time>
      </trkpt>
      <trkpt lat="43.56444" lon="2.79545">
        <ele>972.8</ele>
        <time>2026-05-22T04:55:34Z</time>
      </trkpt>
      <trkpt lat="43.56444" lon="2.79545">
        <ele>972.8</ele>
        <time>2026-05-22T04:55:39Z</time>
      </trkpt>
      <trkpt lat="43.56435" lon="2.79545">
        <ele>972.4</ele>
        <time>2026-05-22T04:55:44Z</time>
      </trkpt>
      <trkpt lat="43.56432" lon="2.79547">
        <ele>972.1</ele>
        <time>2026-05-22T04:55:49Z</time>
      </trkpt>
      <trkpt lat="43.5643" lon="2.79548">
        <ele>972</ele>
        <time>2026-05-22T04:55:54Z</time>
      </trkpt>
      <trkpt lat="43.56428" lon="2.79549">
        <ele>971.8</ele>
        <time>2026-05-22T04:55:59Z</time>
      </trkpt>
      <trkpt lat="43.56424" lon="2.79549">
        <ele>971.6</ele>
        <time>2026-05-22T04:56:04Z</time>
      </trkpt>
      <trkpt lat="43.56423" lon="2.79548">
        <ele>971.6</ele>
        <time>2026-05-22T04:56:09Z</time>
      </trkpt>
      <trkpt lat="43.56417" lon="2.79545">
        <ele>971.4</ele>
        <time>2026-05-22T04:56:14Z</time>
      </trkpt>
      <trkpt lat="43.56413" lon="2.79544">
        <ele>971.2</ele>
        <time>2026-05-22T04:56:19Z</time>
      </trkpt>
      <trkpt lat="43.56408" lon="2.79538">
        <ele>971.1</ele>
        <time>2026-05-22T04:56:24Z</time>
      </trkpt>
      <trkpt lat="43.56406" lon="2.79534">
        <ele>971.2</ele>
        <time>2026-05-22T04:56:29Z</time>
      </trkpt>
      <trkpt lat="43.56406" lon="2.79534">
        <ele>971.2</ele>
        <time>2026-05-22T04:56:34Z</time>
      </trkpt>
      <trkpt lat="43.56406" lon="2.79534">
        <ele>971.2</ele>
        <time>2026-05-22T04:56:39Z</time>
      </trkpt>
      <trkpt lat="43.56406" lon="2.79534">
        <ele>971.2</ele>
        <time>2026-05-22T04:56:44Z</time>
      </trkpt>
      <trkpt lat="43.56406" lon="2.79534">
        <ele>971.2</ele>
        <time>2026-05-22T04:56:49Z</time>
      </trkpt>
      <trkpt lat="43.56406" lon="2.79534">
        <ele>971.2</ele>
        <time>2026-05-22T04:56:54Z</time>
      </trkpt>
      <trkpt lat="43.56406" lon="2.79534">
        <ele>971.2</ele>
        <time>2026-05-22T04:56:59Z</time>
      </trkpt>
      <trkpt lat="43.56406" lon="2.79534">
        <ele>971.2</ele>
        <time>2026-05-22T04:57:04Z</time>
      </trkpt>
      <trkpt lat="43.56406" lon="2.79534">
        <ele>971.2</ele>
        <time>2026-05-22T04:57:09Z</time>
      </trkpt>
      <trkpt lat="43.56399" lon="2.79534">
        <ele>970.8</ele>
        <time>2026-05-22T04:57:14Z</time>
      </trkpt>
      <trkpt lat="43.56395" lon="2.79532">
        <ele>970.7</ele>
        <time>2026-05-22T04:57:19Z</time>
      </trkpt>
      <trkpt lat="43.5639" lon="2.79529">
        <ele>970.6</ele>
        <time>2026-05-22T04:57:24Z</time>
      </trkpt>
      <trkpt lat="43.56383" lon="2.79529">
        <ele>970.2</ele>
        <time>2026-05-22T04:57:29Z</time>
      </trkpt>
      <trkpt lat="43.56381" lon="2.79539">
        <ele>969.5</ele>
        <time>2026-05-22T04:57:34Z</time>
      </trkpt>
      <trkpt lat="43.56383" lon="2.79549">
        <ele>969.1</ele>
        <time>2026-05-22T04:57:39Z</time>
      </trkpt>
      <trkpt lat="43.56383" lon="2.79556">
        <ele>968.7</ele>
        <time>2026-05-22T04:57:44Z</time>
      </trkpt>
      <trkpt lat="43.56383" lon="2.79561">
        <ele>968.4</ele>
        <time>2026-05-22T04:57:49Z</time>
      </trkpt>
      <trkpt lat="43.56381" lon="2.79566">
        <ele>968</ele>
        <time>2026-05-22T04:57:54Z</time>
      </trkpt>
      <trkpt lat="43.56378" lon="2.79571">
        <ele>967.5</ele>
        <time>2026-05-22T04:57:59Z</time>
      </trkpt>
      <trkpt lat="43.56374" lon="2.79575">
        <ele>966.9</ele>
        <time>2026-05-22T04:58:04Z</time>
      </trkpt>
      <trkpt lat="43.56369" lon="2.7958">
        <ele>966.2</ele>
        <time>2026-05-22T04:58:09Z</time>
      </trkpt>
      <trkpt lat="43.56365" lon="2.79581">
        <ele>965.8</ele>
        <time>2026-05-22T04:58:14Z</time>
      </trkpt>
      <trkpt lat="43.56361" lon="2.79578">
        <ele>965.7</ele>
        <time>2026-05-22T04:58:19Z</time>
      </trkpt>
      <trkpt lat="43.56357" lon="2.79573">
        <ele>965.7</ele>
        <time>2026-05-22T04:58:24Z</time>
      </trkpt>
      <trkpt lat="43.56352" lon="2.79567">
        <ele>965.8</ele>
        <time>2026-05-22T04:58:29Z</time>
      </trkpt>
      <trkpt lat="43.56351" lon="2.79566">
        <ele>965.8</ele>
        <time>2026-05-22T04:58:34Z</time>
      </trkpt>
      <trkpt lat="43.56351" lon="2.79565">
        <ele>965.8</ele>
        <time>2026-05-22T04:58:39Z</time>
      </trkpt>
      <trkpt lat="43.56351" lon="2.79565">
        <ele>965.8</ele>
        <time>2026-05-22T04:58:44Z</time>
      </trkpt>
      <trkpt lat="43.56351" lon="2.79565">
        <ele>965.8</ele>
        <time>2026-05-22T04:58:49Z</time>
      </trkpt>
      <trkpt lat="43.56351" lon="2.79565">
        <ele>965.8</ele>
        <time>2026-05-22T04:58:54Z</time>
      </trkpt>
      <trkpt lat="43.56351" lon="2.79565">
        <ele>965.8</ele>
        <time>2026-05-22T04:58:59Z</time>
      </trkpt>
      <trkpt lat="43.56352" lon="2.7956">
        <ele>966.3</ele>
        <time>2026-05-22T04:59:04Z</time>
      </trkpt>
      <trkpt lat="43.56347" lon="2.79553">
        <ele>966.5</ele>
        <time>2026-05-22T04:59:09Z</time>
      </trkpt>
      <trkpt lat="43.56344" lon="2.79543">
        <ele>967</ele>
        <time>2026-05-22T04:59:14Z</time>
      </trkpt>
      <trkpt lat="43.56339" lon="2.79535">
        <ele>967.4</ele>
        <time>2026-05-22T04:59:19Z</time>
      </trkpt>
      <trkpt lat="43.56338" lon="2.79526">
        <ele>968.1</ele>
        <time>2026-05-22T04:59:24Z</time>
      </trkpt>
      <trkpt lat="43.56337" lon="2.7952">
        <ele>968.5</ele>
        <time>2026-05-22T04:59:29Z</time>
      </trkpt>
      <trkpt lat="43.56338" lon="2.79508">
        <ele>969.5</ele>
        <time>2026-05-22T04:59:34Z</time>
      </trkpt>
      <trkpt lat="43.56337" lon="2.795">
        <ele>970.1</ele>
        <time>2026-05-22T04:59:39Z</time>
      </trkpt>
      <trkpt lat="43.56334" lon="2.79493">
        <ele>970.2</ele>
        <time>2026-05-22T04:59:44Z</time>
      </trkpt>
      <trkpt lat="43.56331" lon="2.79485">
        <ele>970.4</ele>
        <time>2026-05-22T04:59:49Z</time>
      </trkpt>
      <trkpt lat="43.56329" lon="2.79477">
        <ele>970.6</ele>
        <time>2026-05-22T04:59:54Z</time>
      </trkpt>
      <trkpt lat="43.56324" lon="2.79471">
        <ele>970.8</ele>
        <time>2026-05-22T04:59:59Z</time>
      </trkpt>
      <trkpt lat="43.56317" lon="2.79467">
        <ele>970.9</ele>
        <time>2026-05-22T05:00:04Z</time>
      </trkpt>
      <trkpt lat="43.5631" lon="2.7947">
        <ele>970.9</ele>
        <time>2026-05-22T05:00:09Z</time>
      </trkpt>
      <trkpt lat="43.56302" lon="2.79471">
        <ele>970.9</ele>
        <time>2026-05-22T05:00:14Z</time>
      </trkpt>
      <trkpt lat="43.56295" lon="2.79472">
        <ele>971</ele>
        <time>2026-05-22T05:00:19Z</time>
      </trkpt>
      <trkpt lat="43.56287" lon="2.79471">
        <ele>971</ele>
        <time>2026-05-22T05:00:24Z</time>
      </trkpt>
      <trkpt lat="43.56279" lon="2.79469">
        <ele>971.1</ele>
        <time>2026-05-22T05:00:29Z</time>
      </trkpt>
      <trkpt lat="43.56272" lon="2.79471">
        <ele>971.1</ele>
        <time>2026-05-22T05:00:34Z</time>
      </trkpt>
      <trkpt lat="43.56267" lon="2.79475">
        <ele>971.2</ele>
        <time>2026-05-22T05:00:39Z</time>
      </trkpt>
      <trkpt lat="43.5626" lon="2.79479">
        <ele>971.4</ele>
        <time>2026-05-22T05:00:44Z</time>
      </trkpt>
      <trkpt lat="43.56254" lon="2.79484">
        <ele>971.6</ele>
        <time>2026-05-22T05:00:49Z</time>
      </trkpt>
      <trkpt lat="43.56249" lon="2.79491">
        <ele>971.7</ele>
        <time>2026-05-22T05:00:54Z</time>
      </trkpt>
      <trkpt lat="43.56245" lon="2.79498">
        <ele>971.4</ele>
        <time>2026-05-22T05:00:59Z</time>
      </trkpt>
      <trkpt lat="43.56242" lon="2.79506">
        <ele>971</ele>
        <time>2026-05-22T05:01:04Z</time>
      </trkpt>
      <trkpt lat="43.56238" lon="2.79515">
        <ele>970.4</ele>
        <time>2026-05-22T05:01:09Z</time>
      </trkpt>
      <trkpt lat="43.56235" lon="2.79523">
        <ele>969.9</ele>
        <time>2026-05-22T05:01:14Z</time>
      </trkpt>
      <trkpt lat="43.56231" lon="2.79531">
        <ele>969.4</ele>
        <time>2026-05-22T05:01:19Z</time>
      </trkpt>
      <trkpt lat="43.56227" lon="2.79538">
        <ele>968.9</ele>
        <time>2026-05-22T05:01:24Z</time>
      </trkpt>
      <trkpt lat="43.56222" lon="2.79546">
        <ele>968.2</ele>
        <time>2026-05-22T05:01:29Z</time>
      </trkpt>
      <trkpt lat="43.56215" lon="2.79551">
        <ele>967.5</ele>
        <time>2026-05-22T05:01:34Z</time>
      </trkpt>
      <trkpt lat="43.56209" lon="2.79552">
        <ele>966.9</ele>
        <time>2026-05-22T05:01:39Z</time>
      </trkpt>
      <trkpt lat="43.56205" lon="2.79552">
        <ele>966.6</ele>
        <time>2026-05-22T05:01:44Z</time>
      </trkpt>
      <trkpt lat="43.56201" lon="2.79556">
        <ele>966.2</ele>
        <time>2026-05-22T05:01:49Z</time>
      </trkpt>
      <trkpt lat="43.56197" lon="2.79562">
        <ele>965.7</ele>
        <time>2026-05-22T05:01:54Z</time>
      </trkpt>
      <trkpt lat="43.56193" lon="2.79563">
        <ele>965.4</ele>
        <time>2026-05-22T05:01:59Z</time>
      </trkpt>
      <trkpt lat="43.56188" lon="2.79566">
        <ele>964.9</ele>
        <time>2026-05-22T05:02:04Z</time>
      </trkpt>
      <trkpt lat="43.56183" lon="2.79571">
        <ele>964.4</ele>
        <time>2026-05-22T05:02:09Z</time>
      </trkpt>
      <trkpt lat="43.56176" lon="2.79574">
        <ele>963.8</ele>
        <time>2026-05-22T05:02:14Z</time>
      </trkpt>
      <trkpt lat="43.56171" lon="2.79575">
        <ele>963.4</ele>
        <time>2026-05-22T05:02:19Z</time>
      </trkpt>
      <trkpt lat="43.56168" lon="2.79573">
        <ele>963.1</ele>
        <time>2026-05-22T05:02:24Z</time>
      </trkpt>
      <trkpt lat="43.56165" lon="2.7957">
        <ele>963</ele>
        <time>2026-05-22T05:02:29Z</time>
      </trkpt>
      <trkpt lat="43.5616" lon="2.7957">
        <ele>963</ele>
        <time>2026-05-22T05:02:34Z</time>
      </trkpt>
      <trkpt lat="43.56157" lon="2.79572">
        <ele>963</ele>
        <time>2026-05-22T05:02:39Z</time>
      </trkpt>
      <trkpt lat="43.56155" lon="2.79576">
        <ele>963</ele>
        <time>2026-05-22T05:02:44Z</time>
      </trkpt>
      <trkpt lat="43.56155" lon="2.79578">
        <ele>963</ele>
        <time>2026-05-22T05:02:49Z</time>
      </trkpt>
      <trkpt lat="43.56155" lon="2.79578">
        <ele>963</ele>
        <time>2026-05-22T05:02:54Z</time>
      </trkpt>
      <trkpt lat="43.56155" lon="2.79578">
        <ele>963</ele>
        <time>2026-05-22T05:02:59Z</time>
      </trkpt>
      <trkpt lat="43.56155" lon="2.79578">
        <ele>963</ele>
        <time>2026-05-22T05:03:04Z</time>
      </trkpt>
      <trkpt lat="43.56155" lon="2.79578">
        <ele>963</ele>
        <time>2026-05-22T05:03:09Z</time>
      </trkpt>
      <trkpt lat="43.56155" lon="2.79578">
        <ele>963</ele>
        <time>2026-05-22T05:03:14Z</time>
      </trkpt>
      <trkpt lat="43.56155" lon="2.79578">
        <ele>963</ele>
        <time>2026-05-22T05:03:19Z</time>
      </trkpt>
      <trkpt lat="43.56155" lon="2.79578">
        <ele>963</ele>
        <time>2026-05-22T05:03:24Z</time>
      </trkpt>
      <trkpt lat="43.56155" lon="2.79578">
        <ele>963</ele>
        <time>2026-05-22T05:03:29Z</time>
      </trkpt>
      <trkpt lat="43.56155" lon="2.79578">
        <ele>963</ele>
        <time>2026-05-22T05:03:34Z</time>
      </trkpt>
      <trkpt lat="43.56155" lon="2.79578">
        <ele>963</ele>
        <time>2026-05-22T05:03:39Z</time>
      </trkpt>
      <trkpt lat="43.56155" lon="2.79578">
        <ele>963</ele>
        <time>2026-05-22T05:03:44Z</time>
      </trkpt>
      <trkpt lat="43.56155" lon="2.79578">
        <ele>963</ele>
        <time>2026-05-22T05:03:49Z</time>
      </trkpt>
      <trkpt lat="43.56155" lon="2.79578">
        <ele>963</ele>
        <time>2026-05-22T05:03:54Z</time>
      </trkpt>
      <trkpt lat="43.56155" lon="2.79578">
        <ele>963</ele>
        <time>2026-05-22T05:03:59Z</time>
      </trkpt>
      <trkpt lat="43.56155" lon="2.79578">
        <ele>963</ele>
        <time>2026-05-22T05:04:04Z</time>
      </trkpt>
      <trkpt lat="43.56155" lon="2.79578">
        <ele>963</ele>
        <time>2026-05-22T05:04:09Z</time>
      </trkpt>
      <trkpt lat="43.56157" lon="2.79573">
        <ele>963</ele>
        <time>2026-05-22T05:04:14Z</time>
      </trkpt>
      <trkpt lat="43.56155" lon="2.79566">
        <ele>963</ele>
        <time>2026-05-22T05:04:19Z</time>
      </trkpt>
      <trkpt lat="43.56148" lon="2.79561">
        <ele>963</ele>
        <time>2026-05-22T05:04:24Z</time>
      </trkpt>
      <trkpt lat="43.56145" lon="2.79553">
        <ele>963</ele>
        <time>2026-05-22T05:04:29Z</time>
      </trkpt>
      <trkpt lat="43.56143" lon="2.79546">
        <ele>963</ele>
        <time>2026-05-22T05:04:34Z</time>
      </trkpt>
      <trkpt lat="43.56143" lon="2.79537">
        <ele>963</ele>
        <time>2026-05-22T05:04:39Z</time>
      </trkpt>
      <trkpt lat="43.56145" lon="2.79528">
        <ele>963</ele>
        <time>2026-05-22T05:04:44Z</time>
      </trkpt>
      <trkpt lat="43.56146" lon="2.79518">
        <ele>963</ele>
        <time>2026-05-22T05:04:49Z</time>
      </trkpt>
      <trkpt lat="43.56147" lon="2.79512">
        <ele>963</ele>
        <time>2026-05-22T05:04:54Z</time>
      </trkpt>
      <trkpt lat="43.56148" lon="2.79507">
        <ele>963</ele>
        <time>2026-05-22T05:04:59Z</time>
      </trkpt>
      <trkpt lat="43.56149" lon="2.79502">
        <ele>963</ele>
        <time>2026-05-22T05:05:04Z</time>
      </trkpt>
      <trkpt lat="43.5615" lon="2.79501">
        <ele>963</ele>
        <time>2026-05-22T05:05:09Z</time>
      </trkpt>
      <trkpt lat="43.56149" lon="2.795">
        <ele>963</ele>
        <time>2026-05-22T05:05:14Z</time>
      </trkpt>
      <trkpt lat="43.56149" lon="2.795">
        <ele>963</ele>
        <time>2026-05-22T05:05:19Z</time>
      </trkpt>
      <trkpt lat="43.56149" lon="2.795">
        <ele>963</ele>
        <time>2026-05-22T05:05:24Z</time>
      </trkpt>
      <trkpt lat="43.5615" lon="2.79494">
        <ele>963.9</ele>
        <time>2026-05-22T05:05:29Z</time>
      </trkpt>
      <trkpt lat="43.5615" lon="2.7949">
        <ele>964.4</ele>
        <time>2026-05-22T05:05:34Z</time>
      </trkpt>
      <trkpt lat="43.5615" lon="2.7949">
        <ele>964.4</ele>
        <time>2026-05-22T05:05:39Z</time>
      </trkpt>
      <trkpt lat="43.5615" lon="2.7949">
        <ele>964.4</ele>
        <time>2026-05-22T05:05:44Z</time>
      </trkpt>
      <trkpt lat="43.5615" lon="2.7949">
        <ele>964.4</ele>
        <time>2026-05-22T05:05:49Z</time>
      </trkpt>
      <trkpt lat="43.56151" lon="2.79483">
        <ele>965.4</ele>
        <time>2026-05-22T05:05:54Z</time>
      </trkpt>
      <trkpt lat="43.5615" lon="2.79478">
        <ele>966.2</ele>
        <time>2026-05-22T05:05:59Z</time>
      </trkpt>
      <trkpt lat="43.56149" lon="2.79478">
        <ele>966.2</ele>
        <time>2026-05-22T05:06:04Z</time>
      </trkpt>
      <trkpt lat="43.56149" lon="2.79478">
        <ele>966.2</ele>
        <time>2026-05-22T05:06:09Z</time>
      </trkpt>
      <trkpt lat="43.56149" lon="2.79478">
        <ele>966.2</ele>
        <time>2026-05-22T05:06:14Z</time>
      </trkpt>
      <trkpt lat="43.56149" lon="2.79478">
        <ele>966.2</ele>
        <time>2026-05-22T05:06:19Z</time>
      </trkpt>
      <trkpt lat="43.56149" lon="2.79478">
        <ele>966.2</ele>
        <time>2026-05-22T05:06:24Z</time>
      </trkpt>
      <trkpt lat="43.56149" lon="2.79478">
        <ele>966.2</ele>
        <time>2026-05-22T05:06:29Z</time>
      </trkpt>
      <trkpt lat="43.56149" lon="2.79478">
        <ele>966.2</ele>
        <time>2026-05-22T05:06:34Z</time>
      </trkpt>
      <trkpt lat="43.56149" lon="2.79478">
        <ele>966.2</ele>
        <time>2026-05-22T05:06:39Z</time>
      </trkpt>
      <trkpt lat="43.56152" lon="2.79469">
        <ele>967.4</ele>
        <time>2026-05-22T05:06:44Z</time>
      </trkpt>
      <trkpt lat="43.56155" lon="2.79462">
        <ele>968.3</ele>
        <time>2026-05-22T05:06:49Z</time>
      </trkpt>
      <trkpt lat="43.56158" lon="2.79453">
        <ele>969.5</ele>
        <time>2026-05-22T05:06:54Z</time>
      </trkpt>
      <trkpt lat="43.56159" lon="2.79446">
        <ele>970.4</ele>
        <time>2026-05-22T05:06:59Z</time>
      </trkpt>
      <trkpt lat="43.56159" lon="2.79436">
        <ele>971.8</ele>
        <time>2026-05-22T05:07:04Z</time>
      </trkpt>
      <trkpt lat="43.5616" lon="2.79426">
        <ele>973.1</ele>
        <time>2026-05-22T05:07:09Z</time>
      </trkpt>
      <trkpt lat="43.5616" lon="2.79417">
        <ele>974.4</ele>
        <time>2026-05-22T05:07:14Z</time>
      </trkpt>
      <trkpt lat="43.5616" lon="2.79405">
        <ele>975.5</ele>
        <time>2026-05-22T05:07:19Z</time>
      </trkpt>
      <trkpt lat="43.5616" lon="2.79395">
        <ele>976.5</ele>
        <time>2026-05-22T05:07:24Z</time>
      </trkpt>
      <trkpt lat="43.5616" lon="2.79385">
        <ele>977.5</ele>
        <time>2026-05-22T05:07:29Z</time>
      </trkpt>
      <trkpt lat="43.5616" lon="2.79376">
        <ele>978.3</ele>
        <time>2026-05-22T05:07:34Z</time>
      </trkpt>
      <trkpt lat="43.56159" lon="2.79368">
        <ele>979.2</ele>
        <time>2026-05-22T05:07:39Z</time>
      </trkpt>
      <trkpt lat="43.5616" lon="2.7936">
        <ele>979.9</ele>
        <time>2026-05-22T05:07:44Z</time>
      </trkpt>
      <trkpt lat="43.56158" lon="2.79352">
        <ele>980.8</ele>
        <time>2026-05-22T05:07:49Z</time>
      </trkpt>
      <trkpt lat="43.56151" lon="2.79342">
        <ele>982.3</ele>
        <time>2026-05-22T05:07:54Z</time>
      </trkpt>
      <trkpt lat="43.56146" lon="2.79336">
        <ele>983.2</ele>
        <time>2026-05-22T05:07:59Z</time>
      </trkpt>
      <trkpt lat="43.5614" lon="2.79332">
        <ele>984</ele>
        <time>2026-05-22T05:08:04Z</time>
      </trkpt>
      <trkpt lat="43.56134" lon="2.7933">
        <ele>984.6</ele>
        <time>2026-05-22T05:08:09Z</time>
      </trkpt>
      <trkpt lat="43.56127" lon="2.7933">
        <ele>985.1</ele>
        <time>2026-05-22T05:08:14Z</time>
      </trkpt>
      <trkpt lat="43.56121" lon="2.7933">
        <ele>985.5</ele>
        <time>2026-05-22T05:08:19Z</time>
      </trkpt>
      <trkpt lat="43.56115" lon="2.79328">
        <ele>986</ele>
        <time>2026-05-22T05:08:24Z</time>
      </trkpt>
      <trkpt lat="43.56109" lon="2.79331">
        <ele>986.3</ele>
        <time>2026-05-22T05:08:29Z</time>
      </trkpt>
      <trkpt lat="43.56105" lon="2.79333">
        <ele>986.5</ele>
        <time>2026-05-22T05:08:34Z</time>
      </trkpt>
      <trkpt lat="43.561" lon="2.79339">
        <ele>986.2</ele>
        <time>2026-05-22T05:08:39Z</time>
      </trkpt>
      <trkpt lat="43.56097" lon="2.79343">
        <ele>986</ele>
        <time>2026-05-22T05:08:44Z</time>
      </trkpt>
      <trkpt lat="43.56094" lon="2.79349">
        <ele>985.6</ele>
        <time>2026-05-22T05:08:49Z</time>
      </trkpt>
      <trkpt lat="43.56092" lon="2.79356">
        <ele>985</ele>
        <time>2026-05-22T05:08:54Z</time>
      </trkpt>
      <trkpt lat="43.56091" lon="2.79367">
        <ele>983.8</ele>
        <time>2026-05-22T05:08:59Z</time>
      </trkpt>
      <trkpt lat="43.56089" lon="2.79378">
        <ele>982.8</ele>
        <time>2026-05-22T05:09:04Z</time>
      </trkpt>
      <trkpt lat="43.56088" lon="2.79387">
        <ele>981.9</ele>
        <time>2026-05-22T05:09:09Z</time>
      </trkpt>
      <trkpt lat="43.56084" lon="2.79395">
        <ele>981.3</ele>
        <time>2026-05-22T05:09:14Z</time>
      </trkpt>
      <trkpt lat="43.56078" lon="2.79402">
        <ele>980.9</ele>
        <time>2026-05-22T05:09:19Z</time>
      </trkpt>
      <trkpt lat="43.56074" lon="2.79408">
        <ele>980.6</ele>
        <time>2026-05-22T05:09:24Z</time>
      </trkpt>
      <trkpt lat="43.56067" lon="2.79414">
        <ele>980.5</ele>
        <time>2026-05-22T05:09:29Z</time>
      </trkpt>
      <trkpt lat="43.56062" lon="2.79418">
        <ele>980.3</ele>
        <time>2026-05-22T05:09:34Z</time>
      </trkpt>
      <trkpt lat="43.56057" lon="2.79423">
        <ele>979.9</ele>
        <time>2026-05-22T05:09:39Z</time>
      </trkpt>
      <trkpt lat="43.56051" lon="2.79429">
        <ele>979.5</ele>
        <time>2026-05-22T05:09:44Z</time>
      </trkpt>
      <trkpt lat="43.56045" lon="2.79437">
        <ele>978.9</ele>
        <time>2026-05-22T05:09:49Z</time>
      </trkpt>
      <trkpt lat="43.56039" lon="2.79442">
        <ele>978.8</ele>
        <time>2026-05-22T05:09:54Z</time>
      </trkpt>
      <trkpt lat="43.56035" lon="2.79446">
        <ele>978.7</ele>
        <time>2026-05-22T05:09:59Z</time>
      </trkpt>
      <trkpt lat="43.56029" lon="2.79452">
        <ele>978.6</ele>
        <time>2026-05-22T05:10:04Z</time>
      </trkpt>
      <trkpt lat="43.56026" lon="2.79458">
        <ele>978.3</ele>
        <time>2026-05-22T05:10:09Z</time>
      </trkpt>
      <trkpt lat="43.56022" lon="2.79459">
        <ele>978.7</ele>
        <time>2026-05-22T05:10:14Z</time>
      </trkpt>
      <trkpt lat="43.56016" lon="2.79463">
        <ele>979</ele>
        <time>2026-05-22T05:10:19Z</time>
      </trkpt>
      <trkpt lat="43.56012" lon="2.79467">
        <ele>979.1</ele>
        <time>2026-05-22T05:10:24Z</time>
      </trkpt>
      <trkpt lat="43.56011" lon="2.79468">
        <ele>979.2</ele>
        <time>2026-05-22T05:10:29Z</time>
      </trkpt>
      <trkpt lat="43.56011" lon="2.79468">
        <ele>979.2</ele>
        <time>2026-05-22T05:10:34Z</time>
      </trkpt>
      <trkpt lat="43.56011" lon="2.79468">
        <ele>979.2</ele>
        <time>2026-05-22T05:10:39Z</time>
      </trkpt>
      <trkpt lat="43.56011" lon="2.79468">
        <ele>979.2</ele>
        <time>2026-05-22T05:10:44Z</time>
      </trkpt>
      <trkpt lat="43.56011" lon="2.79468">
        <ele>979.2</ele>
        <time>2026-05-22T05:10:49Z</time>
      </trkpt>
      <trkpt lat="43.56011" lon="2.79468">
        <ele>979.2</ele>
        <time>2026-05-22T05:10:54Z</time>
      </trkpt>
      <trkpt lat="43.56011" lon="2.79468">
        <ele>979.2</ele>
        <time>2026-05-22T05:10:59Z</time>
      </trkpt>
      <trkpt lat="43.56011" lon="2.79468">
        <ele>979.2</ele>
        <time>2026-05-22T05:11:04Z</time>
      </trkpt>
      <trkpt lat="43.56011" lon="2.79468">
        <ele>979.2</ele>
        <time>2026-05-22T05:11:09Z</time>
      </trkpt>
      <trkpt lat="43.56011" lon="2.79468">
        <ele>979.2</ele>
        <time>2026-05-22T05:11:14Z</time>
      </trkpt>
      <trkpt lat="43.56011" lon="2.79468">
        <ele>979.2</ele>
        <time>2026-05-22T05:11:19Z</time>
      </trkpt>
      <trkpt lat="43.56011" lon="2.79468">
        <ele>979.2</ele>
        <time>2026-05-22T05:11:24Z</time>
      </trkpt>
      <trkpt lat="43.56011" lon="2.79468">
        <ele>979.2</ele>
        <time>2026-05-22T05:11:29Z</time>
      </trkpt>
      <trkpt lat="43.56011" lon="2.79468">
        <ele>979.2</ele>
        <time>2026-05-22T05:11:34Z</time>
      </trkpt>
      <trkpt lat="43.56011" lon="2.79468">
        <ele>979.2</ele>
        <time>2026-05-22T05:11:39Z</time>
      </trkpt>
      <trkpt lat="43.56011" lon="2.79468">
        <ele>979.2</ele>
        <time>2026-05-22T05:11:44Z</time>
      </trkpt>
      <trkpt lat="43.56011" lon="2.79468">
        <ele>979.2</ele>
        <time>2026-05-22T05:11:49Z</time>
      </trkpt>
      <trkpt lat="43.56011" lon="2.79468">
        <ele>979.2</ele>
        <time>2026-05-22T05:11:54Z</time>
      </trkpt>
      <trkpt lat="43.56011" lon="2.79468">
        <ele>979.2</ele>
        <time>2026-05-22T05:11:59Z</time>
      </trkpt>
      <trkpt lat="43.56011" lon="2.79468">
        <ele>979.2</ele>
        <time>2026-05-22T05:12:04Z</time>
      </trkpt>
      <trkpt lat="43.56011" lon="2.79468">
        <ele>979.2</ele>
        <time>2026-05-22T05:12:09Z</time>
      </trkpt>
      <trkpt lat="43.56011" lon="2.79468">
        <ele>979.2</ele>
        <time>2026-05-22T05:12:14Z</time>
      </trkpt>
      <trkpt lat="43.56011" lon="2.79468">
        <ele>979.2</ele>
        <time>2026-05-22T05:12:19Z</time>
      </trkpt>
      <trkpt lat="43.56011" lon="2.79468">
        <ele>979.2</ele>
        <time>2026-05-22T05:12:24Z</time>
      </trkpt>
      <trkpt lat="43.56011" lon="2.79468">
        <ele>979.2</ele>
        <time>2026-05-22T05:12:29Z</time>
      </trkpt>
      <trkpt lat="43.56011" lon="2.79468">
        <ele>979.2</ele>
        <time>2026-05-22T05:12:34Z</time>
      </trkpt>
      <trkpt lat="43.56011" lon="2.79468">
        <ele>979.2</ele>
        <time>2026-05-22T05:12:39Z</time>
      </trkpt>
      <trkpt lat="43.56011" lon="2.79468">
        <ele>979.2</ele>
        <time>2026-05-22T05:12:44Z</time>
      </trkpt>
      <trkpt lat="43.56008" lon="2.79474">
        <ele>979</ele>
        <time>2026-05-22T05:12:49Z</time>
      </trkpt>
      <trkpt lat="43.56005" lon="2.79477">
        <ele>979.2</ele>
        <time>2026-05-22T05:12:54Z</time>
      </trkpt>
      <trkpt lat="43.56" lon="2.79482">
        <ele>979.5</ele>
        <time>2026-05-22T05:12:59Z</time>
      </trkpt>
      <trkpt lat="43.55994" lon="2.79488">
        <ele>979</ele>
        <time>2026-05-22T05:13:04Z</time>
      </trkpt>
      <trkpt lat="43.55989" lon="2.79494">
        <ele>978.5</ele>
        <time>2026-05-22T05:13:09Z</time>
      </trkpt>
      <trkpt lat="43.55982" lon="2.79499">
        <ele>978.1</ele>
        <time>2026-05-22T05:13:14Z</time>
      </trkpt>
      <trkpt lat="43.55977" lon="2.79502">
        <ele>977.6</ele>
        <time>2026-05-22T05:13:19Z</time>
      </trkpt>
      <trkpt lat="43.55971" lon="2.79508">
        <ele>976.6</ele>
        <time>2026-05-22T05:13:24Z</time>
      </trkpt>
      <trkpt lat="43.55966" lon="2.79514">
        <ele>975.5</ele>
        <time>2026-05-22T05:13:29Z</time>
      </trkpt>
      <trkpt lat="43.55962" lon="2.79519">
        <ele>974.6</ele>
        <time>2026-05-22T05:13:34Z</time>
      </trkpt>
      <trkpt lat="43.55955" lon="2.7952">
        <ele>974.4</ele>
        <time>2026-05-22T05:13:39Z</time>
      </trkpt>
      <trkpt lat="43.55949" lon="2.79521">
        <ele>974.2</ele>
        <time>2026-05-22T05:13:44Z</time>
      </trkpt>
      <trkpt lat="43.55944" lon="2.79524">
        <ele>973.7</ele>
        <time>2026-05-22T05:13:49Z</time>
      </trkpt>
      <trkpt lat="43.55938" lon="2.7953">
        <ele>972.6</ele>
        <time>2026-05-22T05:13:54Z</time>
      </trkpt>
      <trkpt lat="43.55934" lon="2.79532">
        <ele>972.2</ele>
        <time>2026-05-22T05:13:59Z</time>
      </trkpt>
      <trkpt lat="43.55927" lon="2.79533">
        <ele>972.1</ele>
        <time>2026-05-22T05:14:04Z</time>
      </trkpt>
      <trkpt lat="43.55921" lon="2.79532">
        <ele>972.2</ele>
        <time>2026-05-22T05:14:09Z</time>
      </trkpt>
      <trkpt lat="43.55914" lon="2.7953">
        <ele>972.3</ele>
        <time>2026-05-22T05:14:14Z</time>
      </trkpt>
      <trkpt lat="43.55907" lon="2.7953">
        <ele>971.5</ele>
        <time>2026-05-22T05:14:19Z</time>
      </trkpt>
      <trkpt lat="43.55901" lon="2.79531">
        <ele>970.6</ele>
        <time>2026-05-22T05:14:24Z</time>
      </trkpt>
      <trkpt lat="43.55895" lon="2.79527">
        <ele>970.5</ele>
        <time>2026-05-22T05:14:29Z</time>
      </trkpt>
      <trkpt lat="43.55888" lon="2.79524">
        <ele>970</ele>
        <time>2026-05-22T05:14:34Z</time>
      </trkpt>
      <trkpt lat="43.55882" lon="2.79523">
        <ele>969.3</ele>
        <time>2026-05-22T05:14:39Z</time>
      </trkpt>
      <trkpt lat="43.55876" lon="2.79522">
        <ele>968.7</ele>
        <time>2026-05-22T05:14:44Z</time>
      </trkpt>
      <trkpt lat="43.55871" lon="2.79522">
        <ele>968</ele>
        <time>2026-05-22T05:14:49Z</time>
      </trkpt>
      <trkpt lat="43.55864" lon="2.79521">
        <ele>967.1</ele>
        <time>2026-05-22T05:14:54Z</time>
      </trkpt>
      <trkpt lat="43.55858" lon="2.79522">
        <ele>966.3</ele>
        <time>2026-05-22T05:14:59Z</time>
      </trkpt>
      <trkpt lat="43.55852" lon="2.79521">
        <ele>965.5</ele>
        <time>2026-05-22T05:15:04Z</time>
      </trkpt>
      <trkpt lat="43.55844" lon="2.79522">
        <ele>964.4</ele>
        <time>2026-05-22T05:15:09Z</time>
      </trkpt>
      <trkpt lat="43.55838" lon="2.79522">
        <ele>963.6</ele>
        <time>2026-05-22T05:15:14Z</time>
      </trkpt>
      <trkpt lat="43.55831" lon="2.7952">
        <ele>963</ele>
        <time>2026-05-22T05:15:19Z</time>
      </trkpt>
      <trkpt lat="43.55824" lon="2.79518">
        <ele>963</ele>
        <time>2026-05-22T05:15:24Z</time>
      </trkpt>
      <trkpt lat="43.55818" lon="2.79516">
        <ele>963</ele>
        <time>2026-05-22T05:15:29Z</time>
      </trkpt>
      <trkpt lat="43.55812" lon="2.79516">
        <ele>963</ele>
        <time>2026-05-22T05:15:34Z</time>
      </trkpt>
      <trkpt lat="43.55807" lon="2.79514">
        <ele>963</ele>
        <time>2026-05-22T05:15:39Z</time>
      </trkpt>
      <trkpt lat="43.55802" lon="2.7951">
        <ele>963</ele>
        <time>2026-05-22T05:15:44Z</time>
      </trkpt>
      <trkpt lat="43.55798" lon="2.79507">
        <ele>963</ele>
        <time>2026-05-22T05:15:49Z</time>
      </trkpt>
      <trkpt lat="43.55795" lon="2.79501">
        <ele>963</ele>
        <time>2026-05-22T05:15:54Z</time>
      </trkpt>
      <trkpt lat="43.55792" lon="2.79495">
        <ele>963</ele>
        <time>2026-05-22T05:15:59Z</time>
      </trkpt>
      <trkpt lat="43.5579" lon="2.79489">
        <ele>963</ele>
        <time>2026-05-22T05:16:04Z</time>
      </trkpt>
      <trkpt lat="43.55789" lon="2.79482">
        <ele>963</ele>
        <time>2026-05-22T05:16:09Z</time>
      </trkpt>
      <trkpt lat="43.5579" lon="2.79475">
        <ele>963</ele>
        <time>2026-05-22T05:16:14Z</time>
      </trkpt>
      <trkpt lat="43.55789" lon="2.79467">
        <ele>963</ele>
        <time>2026-05-22T05:16:19Z</time>
      </trkpt>
      <trkpt lat="43.55789" lon="2.79459">
        <ele>963</ele>
        <time>2026-05-22T05:16:24Z</time>
      </trkpt>
      <trkpt lat="43.55789" lon="2.79452">
        <ele>963</ele>
        <time>2026-05-22T05:16:29Z</time>
      </trkpt>
      <trkpt lat="43.55789" lon="2.79444">
        <ele>963</ele>
        <time>2026-05-22T05:16:34Z</time>
      </trkpt>
      <trkpt lat="43.55791" lon="2.79437">
        <ele>963</ele>
        <time>2026-05-22T05:16:39Z</time>
      </trkpt>
      <trkpt lat="43.55792" lon="2.79429">
        <ele>963</ele>
        <time>2026-05-22T05:16:44Z</time>
      </trkpt>
      <trkpt lat="43.55793" lon="2.79419">
        <ele>963</ele>
        <time>2026-05-22T05:16:49Z</time>
      </trkpt>
      <trkpt lat="43.55794" lon="2.79411">
        <ele>963.3</ele>
        <time>2026-05-22T05:16:54Z</time>
      </trkpt>
      <trkpt lat="43.55795" lon="2.79403">
        <ele>963.7</ele>
        <time>2026-05-22T05:16:59Z</time>
      </trkpt>
      <trkpt lat="43.55797" lon="2.79396">
        <ele>964.1</ele>
        <time>2026-05-22T05:17:04Z</time>
      </trkpt>
      <trkpt lat="43.55798" lon="2.7939">
        <ele>964.5</ele>
        <time>2026-05-22T05:17:09Z</time>
      </trkpt>
      <trkpt lat="43.55798" lon="2.79383">
        <ele>964.9</ele>
        <time>2026-05-22T05:17:14Z</time>
      </trkpt>
      <trkpt lat="43.55799" lon="2.79373">
        <ele>965.5</ele>
        <time>2026-05-22T05:17:19Z</time>
      </trkpt>
      <trkpt lat="43.55798" lon="2.79366">
        <ele>965.8</ele>
        <time>2026-05-22T05:17:24Z</time>
      </trkpt>
      <trkpt lat="43.55801" lon="2.79362">
        <ele>966.2</ele>
        <time>2026-05-22T05:17:29Z</time>
      </trkpt>
      <trkpt lat="43.55799" lon="2.79358">
        <ele>966.3</ele>
        <time>2026-05-22T05:17:34Z</time>
      </trkpt>
      <trkpt lat="43.55799" lon="2.79346">
        <ele>967</ele>
        <time>2026-05-22T05:17:39Z</time>
      </trkpt>
      <trkpt lat="43.55801" lon="2.79338">
        <ele>967.6</ele>
        <time>2026-05-22T05:17:44Z</time>
      </trkpt>
      <trkpt lat="43.55802" lon="2.79332">
        <ele>968</ele>
        <time>2026-05-22T05:17:49Z</time>
      </trkpt>
      <trkpt lat="43.55801" lon="2.79323">
        <ele>968</ele>
        <time>2026-05-22T05:17:54Z</time>
      </trkpt>
      <trkpt lat="43.55804" lon="2.79314">
        <ele>968.5</ele>
        <time>2026-05-22T05:17:59Z</time>
      </trkpt>
      <trkpt lat="43.55802" lon="2.79308">
        <ele>968.4</ele>
        <time>2026-05-22T05:18:04Z</time>
      </trkpt>
      <trkpt lat="43.55808" lon="2.79302">
        <ele>969.1</ele>
        <time>2026-05-22T05:18:09Z</time>
      </trkpt>
      <trkpt lat="43.5581" lon="2.79296">
        <ele>969.4</ele>
        <time>2026-05-22T05:18:14Z</time>
      </trkpt>
      <trkpt lat="43.55813" lon="2.7929">
        <ele>969.8</ele>
        <time>2026-05-22T05:18:19Z</time>
      </trkpt>
      <trkpt lat="43.55813" lon="2.79281">
        <ele>970</ele>
        <time>2026-05-22T05:18:24Z</time>
      </trkpt>
      <trkpt lat="43.55812" lon="2.79278">
        <ele>969.9</ele>
        <time>2026-05-22T05:18:29Z</time>
      </trkpt>
      <trkpt lat="43.55814" lon="2.79274">
        <ele>970.2</ele>
        <time>2026-05-22T05:18:34Z</time>
      </trkpt>
      <trkpt lat="43.55813" lon="2.7927">
        <ele>970.2</ele>
        <time>2026-05-22T05:18:39Z</time>
      </trkpt>
      <trkpt lat="43.55809" lon="2.79267">
        <ele>969.8</ele>
        <time>2026-05-22T05:18:44Z</time>
      </trkpt>
      <trkpt lat="43.55802" lon="2.79264">
        <ele>969</ele>
        <time>2026-05-22T05:18:49Z</time>
      </trkpt>
      <trkpt lat="43.55796" lon="2.79263">
        <ele>968.3</ele>
        <time>2026-05-22T05:18:54Z</time>
      </trkpt>
      <trkpt lat="43.5579" lon="2.79262">
        <ele>967.7</ele>
        <time>2026-05-22T05:18:59Z</time>
      </trkpt>
      <trkpt lat="43.55782" lon="2.79261">
        <ele>966.7</ele>
        <time>2026-05-22T05:19:04Z</time>
      </trkpt>
      <trkpt lat="43.55775" lon="2.79262">
        <ele>965.9</ele>
        <time>2026-05-22T05:19:09Z</time>
      </trkpt>
      <trkpt lat="43.55769" lon="2.79263">
        <ele>965.2</ele>
        <time>2026-05-22T05:19:14Z</time>
      </trkpt>
      <trkpt lat="43.55763" lon="2.79265">
        <ele>964.5</ele>
        <time>2026-05-22T05:19:19Z</time>
      </trkpt>
      <trkpt lat="43.55756" lon="2.79267">
        <ele>963.7</ele>
        <time>2026-05-22T05:19:24Z</time>
      </trkpt>
      <trkpt lat="43.55749" lon="2.79269">
        <ele>963</ele>
        <time>2026-05-22T05:19:29Z</time>
      </trkpt>
      <trkpt lat="43.55746" lon="2.79269">
        <ele>963</ele>
        <time>2026-05-22T05:19:34Z</time>
      </trkpt>
      <trkpt lat="43.55741" lon="2.7927">
        <ele>963</ele>
        <time>2026-05-22T05:19:39Z</time>
      </trkpt>
      <trkpt lat="43.55732" lon="2.7927">
        <ele>963</ele>
        <time>2026-05-22T05:19:44Z</time>
      </trkpt>
      <trkpt lat="43.55726" lon="2.79268">
        <ele>963</ele>
        <time>2026-05-22T05:19:49Z</time>
      </trkpt>
      <trkpt lat="43.5572" lon="2.79264">
        <ele>963</ele>
        <time>2026-05-22T05:19:54Z</time>
      </trkpt>
      <trkpt lat="43.55714" lon="2.79261">
        <ele>963</ele>
        <time>2026-05-22T05:19:59Z</time>
      </trkpt>
      <trkpt lat="43.55709" lon="2.79257">
        <ele>963</ele>
        <time>2026-05-22T05:20:04Z</time>
      </trkpt>
      <trkpt lat="43.55704" lon="2.79252">
        <ele>963</ele>
        <time>2026-05-22T05:20:09Z</time>
      </trkpt>
      <trkpt lat="43.55699" lon="2.79245">
        <ele>963.3</ele>
        <time>2026-05-22T05:20:14Z</time>
      </trkpt>
      <trkpt lat="43.55693" lon="2.79236">
        <ele>963.6</ele>
        <time>2026-05-22T05:20:19Z</time>
      </trkpt>
      <trkpt lat="43.55688" lon="2.79228">
        <ele>963.7</ele>
        <time>2026-05-22T05:20:24Z</time>
      </trkpt>
      <trkpt lat="43.55686" lon="2.79219">
        <ele>963.9</ele>
        <time>2026-05-22T05:20:29Z</time>
      </trkpt>
      <trkpt lat="43.55681" lon="2.79211">
        <ele>963.9</ele>
        <time>2026-05-22T05:20:34Z</time>
      </trkpt>
      <trkpt lat="43.55675" lon="2.79201">
        <ele>963.6</ele>
        <time>2026-05-22T05:20:39Z</time>
      </trkpt>
      <trkpt lat="43.55673" lon="2.79191">
        <ele>963.6</ele>
        <time>2026-05-22T05:20:44Z</time>
      </trkpt>
      <trkpt lat="43.5567" lon="2.79183">
        <ele>963.4</ele>
        <time>2026-05-22T05:20:49Z</time>
      </trkpt>
      <trkpt lat="43.55666" lon="2.79176">
        <ele>963</ele>
        <time>2026-05-22T05:20:54Z</time>
      </trkpt>
      <trkpt lat="43.5566" lon="2.79169">
        <ele>963</ele>
        <time>2026-05-22T05:20:59Z</time>
      </trkpt>
      <trkpt lat="43.55655" lon="2.79163">
        <ele>963.2</ele>
        <time>2026-05-22T05:21:04Z</time>
      </trkpt>
      <trkpt lat="43.55648" lon="2.79155">
        <ele>963.4</ele>
        <time>2026-05-22T05:21:09Z</time>
      </trkpt>
      <trkpt lat="43.55644" lon="2.79149">
        <ele>963.6</ele>
        <time>2026-05-22T05:21:14Z</time>
      </trkpt>
      <trkpt lat="43.55642" lon="2.7914">
        <ele>963.9</ele>
        <time>2026-05-22T05:21:19Z</time>
      </trkpt>
      <trkpt lat="43.5564" lon="2.79131">
        <ele>964.2</ele>
        <time>2026-05-22T05:21:24Z</time>
      </trkpt>
      <trkpt lat="43.55638" lon="2.79121">
        <ele>964.4</ele>
        <time>2026-05-22T05:21:29Z</time>
      </trkpt>
      <trkpt lat="43.55638" lon="2.79111">
        <ele>964.8</ele>
        <time>2026-05-22T05:21:34Z</time>
      </trkpt>
      <trkpt lat="43.55638" lon="2.79103">
        <ele>965</ele>
        <time>2026-05-22T05:21:39Z</time>
      </trkpt>
      <trkpt lat="43.55638" lon="2.79094">
        <ele>965.3</ele>
        <time>2026-05-22T05:21:44Z</time>
      </trkpt>
      <trkpt lat="43.55637" lon="2.79084">
        <ele>965.6</ele>
        <time>2026-05-22T05:21:49Z</time>
      </trkpt>
      <trkpt lat="43.55634" lon="2.79073">
        <ele>966.1</ele>
        <time>2026-05-22T05:21:54Z</time>
      </trkpt>
      <trkpt lat="43.55632" lon="2.79063">
        <ele>966.7</ele>
        <time>2026-05-22T05:21:59Z</time>
      </trkpt>
      <trkpt lat="43.55633" lon="2.79055">
        <ele>967.3</ele>
        <time>2026-05-22T05:22:04Z</time>
      </trkpt>
      <trkpt lat="43.55632" lon="2.79047">
        <ele>967.8</ele>
        <time>2026-05-22T05:22:09Z</time>
      </trkpt>
      <trkpt lat="43.55631" lon="2.79037">
        <ele>968.5</ele>
        <time>2026-05-22T05:22:14Z</time>
      </trkpt>
      <trkpt lat="43.55629" lon="2.79027">
        <ele>969.1</ele>
        <time>2026-05-22T05:22:19Z</time>
      </trkpt>
      <trkpt lat="43.55629" lon="2.79017">
        <ele>969.8</ele>
        <time>2026-05-22T05:22:24Z</time>
      </trkpt>
      <trkpt lat="43.55629" lon="2.79006">
        <ele>970.6</ele>
        <time>2026-05-22T05:22:29Z</time>
      </trkpt>
      <trkpt lat="43.5563" lon="2.78997">
        <ele>971.3</ele>
        <time>2026-05-22T05:22:34Z</time>
      </trkpt>
      <trkpt lat="43.55628" lon="2.78989">
        <ele>972.2</ele>
        <time>2026-05-22T05:22:39Z</time>
      </trkpt>
      <trkpt lat="43.55628" lon="2.78979">
        <ele>973.3</ele>
        <time>2026-05-22T05:22:44Z</time>
      </trkpt>
      <trkpt lat="43.55625" lon="2.78969">
        <ele>974.3</ele>
        <time>2026-05-22T05:22:49Z</time>
      </trkpt>
      <trkpt lat="43.55623" lon="2.78962">
        <ele>975.1</ele>
        <time>2026-05-22T05:22:54Z</time>
      </trkpt>
      <trkpt lat="43.5562" lon="2.78953">
        <ele>976</ele>
        <time>2026-05-22T05:22:59Z</time>
      </trkpt>
      <trkpt lat="43.55617" lon="2.78946">
        <ele>976.7</ele>
        <time>2026-05-22T05:23:04Z</time>
      </trkpt>
      <trkpt lat="43.55615" lon="2.78945">
        <ele>976.8</ele>
        <time>2026-05-22T05:23:09Z</time>
      </trkpt>
      <trkpt lat="43.55611" lon="2.78945">
        <ele>976.7</ele>
        <time>2026-05-22T05:23:14Z</time>
      </trkpt>
      <trkpt lat="43.55605" lon="2.78948">
        <ele>976.3</ele>
        <time>2026-05-22T05:23:19Z</time>
      </trkpt>
      <trkpt lat="43.55597" lon="2.78951">
        <ele>975.9</ele>
        <time>2026-05-22T05:23:24Z</time>
      </trkpt>
      <trkpt lat="43.5559" lon="2.78953">
        <ele>975.6</ele>
        <time>2026-05-22T05:23:29Z</time>
      </trkpt>
      <trkpt lat="43.55584" lon="2.78954">
        <ele>975.4</ele>
        <time>2026-05-22T05:23:34Z</time>
      </trkpt>
      <trkpt lat="43.55579" lon="2.7896">
        <ele>974.8</ele>
        <time>2026-05-22T05:23:39Z</time>
      </trkpt>
      <trkpt lat="43.55573" lon="2.78964">
        <ele>974.5</ele>
        <time>2026-05-22T05:23:44Z</time>
      </trkpt>
      <trkpt lat="43.5557" lon="2.78968">
        <ele>974.1</ele>
        <time>2026-05-22T05:23:49Z</time>
      </trkpt>
      <trkpt lat="43.55567" lon="2.7897">
        <ele>974</ele>
        <time>2026-05-22T05:23:54Z</time>
      </trkpt>
      <trkpt lat="43.55563" lon="2.78975">
        <ele>973.6</ele>
        <time>2026-05-22T05:23:59Z</time>
      </trkpt>
      <trkpt lat="43.55557" lon="2.78982">
        <ele>973.1</ele>
        <time>2026-05-22T05:24:04Z</time>
      </trkpt>
      <trkpt lat="43.55552" lon="2.78986">
        <ele>972.8</ele>
        <time>2026-05-22T05:24:09Z</time>
      </trkpt>
      <trkpt lat="43.55548" lon="2.78991">
        <ele>972.5</ele>
        <time>2026-05-22T05:24:14Z</time>
      </trkpt>
      <trkpt lat="43.55542" lon="2.78998">
        <ele>972.1</ele>
        <time>2026-05-22T05:24:19Z</time>
      </trkpt>
      <trkpt lat="43.55539" lon="2.79001">
        <ele>972</ele>
        <time>2026-05-22T05:24:24Z</time>
      </trkpt>
      <trkpt lat="43.55539" lon="2.79003">
        <ele>971.9</ele>
        <time>2026-05-22T05:24:29Z</time>
      </trkpt>
      <trkpt lat="43.55534" lon="2.79007">
        <ele>971.8</ele>
        <time>2026-05-22T05:24:34Z</time>
      </trkpt>
      <trkpt lat="43.55525" lon="2.79008">
        <ele>972</ele>
        <time>2026-05-22T05:24:39Z</time>
      </trkpt>
      <trkpt lat="43.55519" lon="2.79004">
        <ele>972.3</ele>
        <time>2026-05-22T05:24:44Z</time>
      </trkpt>
      <trkpt lat="43.55514" lon="2.78998">
        <ele>972.8</ele>
        <time>2026-05-22T05:24:49Z</time>
      </trkpt>
      <trkpt lat="43.55508" lon="2.78993">
        <ele>973.2</ele>
        <time>2026-05-22T05:24:54Z</time>
      </trkpt>
      <trkpt lat="43.55502" lon="2.78988">
        <ele>973.5</ele>
        <time>2026-05-22T05:24:59Z</time>
      </trkpt>
      <trkpt lat="43.55496" lon="2.78984">
        <ele>974</ele>
        <time>2026-05-22T05:25:04Z</time>
      </trkpt>
      <trkpt lat="43.55489" lon="2.7898">
        <ele>974.7</ele>
        <time>2026-05-22T05:25:09Z</time>
      </trkpt>
      <trkpt lat="43.55482" lon="2.7898">
        <ele>975.2</ele>
        <time>2026-05-22T05:25:14Z</time>
      </trkpt>
      <trkpt lat="43.55476" lon="2.7898">
        <ele>975.7</ele>
        <time>2026-05-22T05:25:19Z</time>
      </trkpt>
      <trkpt lat="43.55471" lon="2.7898">
        <ele>976</ele>
        <time>2026-05-22T05:25:24Z</time>
      </trkpt>
      <trkpt lat="43.55463" lon="2.78986">
        <ele>976.2</ele>
        <time>2026-05-22T05:25:29Z</time>
      </trkpt>
      <trkpt lat="43.55457" lon="2.78995">
        <ele>975.9</ele>
        <time>2026-05-22T05:25:34Z</time>
      </trkpt>
      <trkpt lat="43.55453" lon="2.79003">
        <ele>975.7</ele>
        <time>2026-05-22T05:25:39Z</time>
      </trkpt>
      <trkpt lat="43.55452" lon="2.79011">
        <ele>975.5</ele>
        <time>2026-05-22T05:25:44Z</time>
      </trkpt>
      <trkpt lat="43.55449" lon="2.79021">
        <ele>975.3</ele>
        <time>2026-05-22T05:25:49Z</time>
      </trkpt>
      <trkpt lat="43.55446" lon="2.79023">
        <ele>975.4</ele>
        <time>2026-05-22T05:25:54Z</time>
      </trkpt>
      <trkpt lat="43.55446" lon="2.79023">
        <ele>975.4</ele>
        <time>2026-05-22T05:25:59Z</time>
      </trkpt>
      <trkpt lat="43.55443" lon="2.79023">
        <ele>975.6</ele>
        <time>2026-05-22T05:26:04Z</time>
      </trkpt>
      <trkpt lat="43.55439" lon="2.79026">
        <ele>975.7</ele>
        <time>2026-05-22T05:26:09Z</time>
      </trkpt>
      <trkpt lat="43.55434" lon="2.79025">
        <ele>976.1</ele>
        <time>2026-05-22T05:26:14Z</time>
      </trkpt>
      <trkpt lat="43.55429" lon="2.79022">
        <ele>976.5</ele>
        <time>2026-05-22T05:26:19Z</time>
      </trkpt>
      <trkpt lat="43.55425" lon="2.79019">
        <ele>976.8</ele>
        <time>2026-05-22T05:26:24Z</time>
      </trkpt>
      <trkpt lat="43.55421" lon="2.79017">
        <ele>977.1</ele>
        <time>2026-05-22T05:26:29Z</time>
      </trkpt>
      <trkpt lat="43.55415" lon="2.79013">
        <ele>977.7</ele>
        <time>2026-05-22T05:26:34Z</time>
      </trkpt>
      <trkpt lat="43.5541" lon="2.79009">
        <ele>978.4</ele>
        <time>2026-05-22T05:26:39Z</time>
      </trkpt>
      <trkpt lat="43.55408" lon="2.79002">
        <ele>978.9</ele>
        <time>2026-05-22T05:26:44Z</time>
      </trkpt>
      <trkpt lat="43.55405" lon="2.78997">
        <ele>979.6</ele>
        <time>2026-05-22T05:26:49Z</time>
      </trkpt>
      <trkpt lat="43.55405" lon="2.78996">
        <ele>979.7</ele>
        <time>2026-05-22T05:26:54Z</time>
      </trkpt>
      <trkpt lat="43.55402" lon="2.78996">
        <ele>980</ele>
        <time>2026-05-22T05:26:59Z</time>
      </trkpt>
      <trkpt lat="43.55396" lon="2.78993">
        <ele>981</ele>
        <time>2026-05-22T05:27:04Z</time>
      </trkpt>
      <trkpt lat="43.55393" lon="2.78992">
        <ele>981.4</ele>
        <time>2026-05-22T05:27:09Z</time>
      </trkpt>
      <trkpt lat="43.5539" lon="2.78992">
        <ele>981.8</ele>
        <time>2026-05-22T05:27:14Z</time>
      </trkpt>
      <trkpt lat="43.55387" lon="2.7899">
        <ele>982.3</ele>
        <time>2026-05-22T05:27:19Z</time>
      </trkpt>
      <trkpt lat="43.55385" lon="2.78989">
        <ele>982.7</ele>
        <time>2026-05-22T05:27:24Z</time>
      </trkpt>
      <trkpt lat="43.55385" lon="2.78989">
        <ele>982.7</ele>
        <time>2026-05-22T05:27:29Z</time>
      </trkpt>
      <trkpt lat="43.55385" lon="2.78989">
        <ele>982.7</ele>
        <time>2026-05-22T05:27:34Z</time>
      </trkpt>
      <trkpt lat="43.55385" lon="2.78989">
        <ele>982.7</ele>
        <time>2026-05-22T05:27:39Z</time>
      </trkpt>
      <trkpt lat="43.55385" lon="2.78989">
        <ele>982.7</ele>
        <time>2026-05-22T05:27:44Z</time>
      </trkpt>
      <trkpt lat="43.55385" lon="2.78989">
        <ele>982.7</ele>
        <time>2026-05-22T05:27:49Z</time>
      </trkpt>
      <trkpt lat="43.55376" lon="2.78986">
        <ele>984.1</ele>
        <time>2026-05-22T05:27:54Z</time>
      </trkpt>
      <trkpt lat="43.55372" lon="2.78983">
        <ele>984.9</ele>
        <time>2026-05-22T05:27:59Z</time>
      </trkpt>
      <trkpt lat="43.55365" lon="2.78975">
        <ele>986.7</ele>
        <time>2026-05-22T05:28:04Z</time>
      </trkpt>
      <trkpt lat="43.55361" lon="2.78978">
        <ele>986.8</ele>
        <time>2026-05-22T05:28:09Z</time>
      </trkpt>
      <trkpt lat="43.55355" lon="2.78977">
        <ele>987.7</ele>
        <time>2026-05-22T05:28:14Z</time>
      </trkpt>
      <trkpt lat="43.55349" lon="2.78975">
        <ele>988.7</ele>
        <time>2026-05-22T05:28:19Z</time>
      </trkpt>
      <trkpt lat="43.55345" lon="2.78971">
        <ele>989.7</ele>
        <time>2026-05-22T05:28:24Z</time>
      </trkpt>
      <trkpt lat="43.5534" lon="2.78965">
        <ele>991.2</ele>
        <time>2026-05-22T05:28:29Z</time>
      </trkpt>
      <trkpt lat="43.55332" lon="2.78961">
        <ele>992.6</ele>
        <time>2026-05-22T05:28:34Z</time>
      </trkpt>
      <trkpt lat="43.55327" lon="2.78962">
        <ele>992.6</ele>
        <time>2026-05-22T05:28:39Z</time>
      </trkpt>
      <trkpt lat="43.55323" lon="2.78963">
        <ele>992.6</ele>
        <time>2026-05-22T05:28:44Z</time>
      </trkpt>
      <trkpt lat="43.55318" lon="2.78965">
        <ele>992.4</ele>
        <time>2026-05-22T05:28:49Z</time>
      </trkpt>
      <trkpt lat="43.55314" lon="2.78967">
        <ele>992.3</ele>
        <time>2026-05-22T05:28:54Z</time>
      </trkpt>
      <trkpt lat="43.55309" lon="2.78966">
        <ele>992.5</ele>
        <time>2026-05-22T05:28:59Z</time>
      </trkpt>
      <trkpt lat="43.55305" lon="2.78964">
        <ele>992.9</ele>
        <time>2026-05-22T05:29:04Z</time>
      </trkpt>
      <trkpt lat="43.55301" lon="2.78963">
        <ele>993.1</ele>
        <time>2026-05-22T05:29:09Z</time>
      </trkpt>
      <trkpt lat="43.55298" lon="2.7896">
        <ele>993.5</ele>
        <time>2026-05-22T05:29:14Z</time>
      </trkpt>
      <trkpt lat="43.55296" lon="2.78958">
        <ele>993.7</ele>
        <time>2026-05-22T05:29:19Z</time>
      </trkpt>
      <trkpt lat="43.55295" lon="2.78954">
        <ele>994.1</ele>
        <time>2026-05-22T05:29:24Z</time>
      </trkpt>
      <trkpt lat="43.55289" lon="2.78954">
        <ele>994.2</ele>
        <time>2026-05-22T05:29:29Z</time>
      </trkpt>
      <trkpt lat="43.55286" lon="2.78955">
        <ele>994.2</ele>
        <time>2026-05-22T05:29:34Z</time>
      </trkpt>
      <trkpt lat="43.55282" lon="2.78956">
        <ele>994.1</ele>
        <time>2026-05-22T05:29:39Z</time>
      </trkpt>
      <trkpt lat="43.55279" lon="2.78958">
        <ele>994</ele>
        <time>2026-05-22T05:29:44Z</time>
      </trkpt>
      <trkpt lat="43.55275" lon="2.78958">
        <ele>994.1</ele>
        <time>2026-05-22T05:29:49Z</time>
      </trkpt>
      <trkpt lat="43.55271" lon="2.78958">
        <ele>994.1</ele>
        <time>2026-05-22T05:29:54Z</time>
      </trkpt>
      <trkpt lat="43.5527" lon="2.7896">
        <ele>994</ele>
        <time>2026-05-22T05:29:59Z</time>
      </trkpt>
      <trkpt lat="43.5527" lon="2.7896">
        <ele>994</ele>
        <time>2026-05-22T05:30:04Z</time>
      </trkpt>
      <trkpt lat="43.55269" lon="2.78968">
        <ele>993.4</ele>
        <time>2026-05-22T05:30:09Z</time>
      </trkpt>
      <trkpt lat="43.55266" lon="2.78976">
        <ele>992.9</ele>
        <time>2026-05-22T05:30:14Z</time>
      </trkpt>
      <trkpt lat="43.55263" lon="2.78985">
        <ele>992.3</ele>
        <time>2026-05-22T05:30:19Z</time>
      </trkpt>
      <trkpt lat="43.5526" lon="2.78994">
        <ele>991.8</ele>
        <time>2026-05-22T05:30:24Z</time>
      </trkpt>
      <trkpt lat="43.55255" lon="2.79003">
        <ele>991.4</ele>
        <time>2026-05-22T05:30:29Z</time>
      </trkpt>
      <trkpt lat="43.55251" lon="2.79013">
        <ele>990.4</ele>
        <time>2026-05-22T05:30:34Z</time>
      </trkpt>
      <trkpt lat="43.55249" lon="2.79022">
        <ele>989.1</ele>
        <time>2026-05-22T05:30:39Z</time>
      </trkpt>
      <trkpt lat="43.55246" lon="2.7903">
        <ele>987.3</ele>
        <time>2026-05-22T05:30:44Z</time>
      </trkpt>
      <trkpt lat="43.55243" lon="2.7904">
        <ele>985.3</ele>
        <time>2026-05-22T05:30:49Z</time>
      </trkpt>
      <trkpt lat="43.5524" lon="2.79048">
        <ele>983.5</ele>
        <time>2026-05-22T05:30:54Z</time>
      </trkpt>
      <trkpt lat="43.55238" lon="2.79057">
        <ele>981.9</ele>
        <time>2026-05-22T05:30:59Z</time>
      </trkpt>
      <trkpt lat="43.55236" lon="2.79064">
        <ele>980.5</ele>
        <time>2026-05-22T05:31:04Z</time>
      </trkpt>
      <trkpt lat="43.55235" lon="2.79065">
        <ele>980.2</ele>
        <time>2026-05-22T05:31:09Z</time>
      </trkpt>
      <trkpt lat="43.55235" lon="2.79066">
        <ele>980</ele>
        <time>2026-05-22T05:31:14Z</time>
      </trkpt>
      <trkpt lat="43.55233" lon="2.79073">
        <ele>978.7</ele>
        <time>2026-05-22T05:31:19Z</time>
      </trkpt>
      <trkpt lat="43.5523" lon="2.79082">
        <ele>976.9</ele>
        <time>2026-05-22T05:31:24Z</time>
      </trkpt>
      <trkpt lat="43.55228" lon="2.79091">
        <ele>975.8</ele>
        <time>2026-05-22T05:31:29Z</time>
      </trkpt>
      <trkpt lat="43.55224" lon="2.791">
        <ele>974.2</ele>
        <time>2026-05-22T05:31:34Z</time>
      </trkpt>
      <trkpt lat="43.55221" lon="2.7911">
        <ele>972.9</ele>
        <time>2026-05-22T05:31:39Z</time>
      </trkpt>
      <trkpt lat="43.55219" lon="2.79119">
        <ele>971.8</ele>
        <time>2026-05-22T05:31:44Z</time>
      </trkpt>
      <trkpt lat="43.55216" lon="2.79129">
        <ele>970.5</ele>
        <time>2026-05-22T05:31:49Z</time>
      </trkpt>
      <trkpt lat="43.55213" lon="2.79137">
        <ele>969.3</ele>
        <time>2026-05-22T05:31:54Z</time>
      </trkpt>
      <trkpt lat="43.5521" lon="2.79144">
        <ele>968.1</ele>
        <time>2026-05-22T05:31:59Z</time>
      </trkpt>
      <trkpt lat="43.55211" lon="2.79149">
        <ele>968.1</ele>
        <time>2026-05-22T05:32:04Z</time>
      </trkpt>
      <trkpt lat="43.55209" lon="2.79154">
        <ele>967.4</ele>
        <time>2026-05-22T05:32:09Z</time>
      </trkpt>
      <trkpt lat="43.55209" lon="2.79154">
        <ele>967.4</ele>
        <time>2026-05-22T05:32:14Z</time>
      </trkpt>
      <trkpt lat="43.55209" lon="2.79154">
        <ele>967.4</ele>
        <time>2026-05-22T05:32:19Z</time>
      </trkpt>
      <trkpt lat="43.55209" lon="2.79154">
        <ele>967.4</ele>
        <time>2026-05-22T05:32:24Z</time>
      </trkpt>
      <trkpt lat="43.55209" lon="2.79154">
        <ele>967.4</ele>
        <time>2026-05-22T05:32:29Z</time>
      </trkpt>
      <trkpt lat="43.55209" lon="2.79154">
        <ele>967.4</ele>
        <time>2026-05-22T05:32:34Z</time>
      </trkpt>
      <trkpt lat="43.55209" lon="2.79154">
        <ele>967.4</ele>
        <time>2026-05-22T05:32:39Z</time>
      </trkpt>
      <trkpt lat="43.55209" lon="2.79154">
        <ele>967.4</ele>
        <time>2026-05-22T05:32:44Z</time>
      </trkpt>
      <trkpt lat="43.55209" lon="2.79154">
        <ele>967.4</ele>
        <time>2026-05-22T05:32:49Z</time>
      </trkpt>
      <trkpt lat="43.55209" lon="2.79157">
        <ele>967.2</ele>
        <time>2026-05-22T05:32:54Z</time>
      </trkpt>
      <trkpt lat="43.55206" lon="2.79159">
        <ele>966.3</ele>
        <time>2026-05-22T05:32:59Z</time>
      </trkpt>
      <trkpt lat="43.55201" lon="2.79165">
        <ele>964.7</ele>
        <time>2026-05-22T05:33:04Z</time>
      </trkpt>
      <trkpt lat="43.552" lon="2.79174">
        <ele>963.6</ele>
        <time>2026-05-22T05:33:09Z</time>
      </trkpt>
      <trkpt lat="43.55197" lon="2.79182">
        <ele>962</ele>
        <time>2026-05-22T05:33:14Z</time>
      </trkpt>
      <trkpt lat="43.55195" lon="2.7919">
        <ele>960.5</ele>
        <time>2026-05-22T05:33:19Z</time>
      </trkpt>
      <trkpt lat="43.55192" lon="2.79198">
        <ele>958.8</ele>
        <time>2026-05-22T05:33:24Z</time>
      </trkpt>
      <trkpt lat="43.55189" lon="2.79206">
        <ele>956.9</ele>
        <time>2026-05-22T05:33:29Z</time>
      </trkpt>
      <trkpt lat="43.55187" lon="2.79215">
        <ele>955.1</ele>
        <time>2026-05-22T05:33:34Z</time>
      </trkpt>
      <trkpt lat="43.55187" lon="2.79223">
        <ele>954.2</ele>
        <time>2026-05-22T05:33:39Z</time>
      </trkpt>
      <trkpt lat="43.55191" lon="2.79231">
        <ele>954.6</ele>
        <time>2026-05-22T05:33:44Z</time>
      </trkpt>
      <trkpt lat="43.55195" lon="2.79238">
        <ele>955.2</ele>
        <time>2026-05-22T05:33:49Z</time>
      </trkpt>
      <trkpt lat="43.55193" lon="2.79238">
        <ele>954.5</ele>
        <time>2026-05-22T05:33:54Z</time>
      </trkpt>
      <trkpt lat="43.55188" lon="2.79233">
        <ele>953.3</ele>
        <time>2026-05-22T05:33:59Z</time>
      </trkpt>
      <trkpt lat="43.55182" lon="2.79233">
        <ele>951.1</ele>
        <time>2026-05-22T05:34:04Z</time>
      </trkpt>
      <trkpt lat="43.55178" lon="2.79239">
        <ele>948.9</ele>
        <time>2026-05-22T05:34:09Z</time>
      </trkpt>
      <trkpt lat="43.55175" lon="2.79246">
        <ele>946.8</ele>
        <time>2026-05-22T05:34:14Z</time>
      </trkpt>
      <trkpt lat="43.55173" lon="2.79254">
        <ele>944.2</ele>
        <time>2026-05-22T05:34:19Z</time>
      </trkpt>
      <trkpt lat="43.55171" lon="2.79261">
        <ele>941.3</ele>
        <time>2026-05-22T05:34:24Z</time>
      </trkpt>
      <trkpt lat="43.55169" lon="2.79265">
        <ele>939.3</ele>
        <time>2026-05-22T05:34:29Z</time>
      </trkpt>
      <trkpt lat="43.55169" lon="2.79268">
        <ele>938.3</ele>
        <time>2026-05-22T05:34:34Z</time>
      </trkpt>
      <trkpt lat="43.55169" lon="2.79268">
        <ele>938.3</ele>
        <time>2026-05-22T05:34:39Z</time>
      </trkpt>
      <trkpt lat="43.55169" lon="2.79268">
        <ele>938.3</ele>
        <time>2026-05-22T05:34:44Z</time>
      </trkpt>
      <trkpt lat="43.55169" lon="2.79268">
        <ele>938.3</ele>
        <time>2026-05-22T05:34:49Z</time>
      </trkpt>
      <trkpt lat="43.55169" lon="2.79268">
        <ele>938.3</ele>
        <time>2026-05-22T05:34:54Z</time>
      </trkpt>
      <trkpt lat="43.55169" lon="2.79268">
        <ele>938.3</ele>
        <time>2026-05-22T05:34:59Z</time>
      </trkpt>
      <trkpt lat="43.55169" lon="2.79268">
        <ele>938.3</ele>
        <time>2026-05-22T05:35:04Z</time>
      </trkpt>
      <trkpt lat="43.55169" lon="2.79268">
        <ele>938.3</ele>
        <time>2026-05-22T05:35:09Z</time>
      </trkpt>
      <trkpt lat="43.55169" lon="2.79268">
        <ele>938.3</ele>
        <time>2026-05-22T05:35:14Z</time>
      </trkpt>
      <trkpt lat="43.55169" lon="2.79268">
        <ele>938.3</ele>
        <time>2026-05-22T05:35:19Z</time>
      </trkpt>
      <trkpt lat="43.55169" lon="2.79268">
        <ele>938.3</ele>
        <time>2026-05-22T05:35:24Z</time>
      </trkpt>
      <trkpt lat="43.55169" lon="2.79268">
        <ele>938.3</ele>
        <time>2026-05-22T05:35:29Z</time>
      </trkpt>
      <trkpt lat="43.55169" lon="2.79268">
        <ele>938.3</ele>
        <time>2026-05-22T05:35:34Z</time>
      </trkpt>
      <trkpt lat="43.55167" lon="2.79273">
        <ele>936</ele>
        <time>2026-05-22T05:35:39Z</time>
      </trkpt>
      <trkpt lat="43.55166" lon="2.79277">
        <ele>934.1</ele>
        <time>2026-05-22T05:35:44Z</time>
      </trkpt>
      <trkpt lat="43.55166" lon="2.79283">
        <ele>932.2</ele>
        <time>2026-05-22T05:35:49Z</time>
      </trkpt>
      <trkpt lat="43.55166" lon="2.79286">
        <ele>931.2</ele>
        <time>2026-05-22T05:35:54Z</time>
      </trkpt>
      <trkpt lat="43.55165" lon="2.79292">
        <ele>928.6</ele>
        <time>2026-05-22T05:35:59Z</time>
      </trkpt>
      <trkpt lat="43.55163" lon="2.793">
        <ele>924.5</ele>
        <time>2026-05-22T05:36:04Z</time>
      </trkpt>
      <trkpt lat="43.55163" lon="2.79306">
        <ele>922.6</ele>
        <time>2026-05-22T05:36:09Z</time>
      </trkpt>
      <trkpt lat="43.55163" lon="2.79311">
        <ele>921.1</ele>
        <time>2026-05-22T05:36:14Z</time>
      </trkpt>
      <trkpt lat="43.55162" lon="2.79316">
        <ele>918.7</ele>
        <time>2026-05-22T05:36:19Z</time>
      </trkpt>
      <trkpt lat="43.55161" lon="2.7932">
        <ele>916.6</ele>
        <time>2026-05-22T05:36:24Z</time>
      </trkpt>
      <trkpt lat="43.5516" lon="2.79324">
        <ele>914.6</ele>
        <time>2026-05-22T05:36:29Z</time>
      </trkpt>
      <trkpt lat="43.55159" lon="2.79328">
        <ele>912.5</ele>
        <time>2026-05-22T05:36:34Z</time>
      </trkpt>
      <trkpt lat="43.55157" lon="2.79332">
        <ele>909.6</ele>
        <time>2026-05-22T05:36:39Z</time>
      </trkpt>
      <trkpt lat="43.55156" lon="2.79333">
        <ele>908.5</ele>
        <time>2026-05-22T05:36:44Z</time>
      </trkpt>
      <trkpt lat="43.55157" lon="2.79333">
        <ele>909.3</ele>
        <time>2026-05-22T05:36:49Z</time>
      </trkpt>
      <trkpt lat="43.55158" lon="2.79333">
        <ele>910.1</ele>
        <time>2026-05-22T05:36:54Z</time>
      </trkpt>
      <trkpt lat="43.55158" lon="2.79333">
        <ele>910.1</ele>
        <time>2026-05-22T05:36:59Z</time>
      </trkpt>
      <trkpt lat="43.55158" lon="2.79333">
        <ele>910.1</ele>
        <time>2026-05-22T05:37:04Z</time>
      </trkpt>
      <trkpt lat="43.55158" lon="2.79333">
        <ele>910.1</ele>
        <time>2026-05-22T05:37:09Z</time>
      </trkpt>
      <trkpt lat="43.5516" lon="2.79341">
        <ele>910.1</ele>
        <time>2026-05-22T05:37:14Z</time>
      </trkpt>
      <trkpt lat="43.5516" lon="2.79341">
        <ele>910.1</ele>
        <time>2026-05-22T05:37:19Z</time>
      </trkpt>
      <trkpt lat="43.5516" lon="2.79341">
        <ele>910.1</ele>
        <time>2026-05-22T05:37:24Z</time>
      </trkpt>
      <trkpt lat="43.5516" lon="2.79341">
        <ele>910.1</ele>
        <time>2026-05-22T05:37:29Z</time>
      </trkpt>
      <trkpt lat="43.5516" lon="2.79341">
        <ele>910.1</ele>
        <time>2026-05-22T05:37:34Z</time>
      </trkpt>
      <trkpt lat="43.5516" lon="2.79341">
        <ele>910.1</ele>
        <time>2026-05-22T05:37:39Z</time>
      </trkpt>
      <trkpt lat="43.5516" lon="2.79341">
        <ele>910.1</ele>
        <time>2026-05-22T05:37:44Z</time>
      </trkpt>
      <trkpt lat="43.5516" lon="2.79341">
        <ele>910.1</ele>
        <time>2026-05-22T05:37:49Z</time>
      </trkpt>
      <trkpt lat="43.5516" lon="2.79341">
        <ele>910.1</ele>
        <time>2026-05-22T05:37:54Z</time>
      </trkpt>
      <trkpt lat="43.55158" lon="2.79356">
        <ele>905.4</ele>
        <time>2026-05-22T05:37:59Z</time>
      </trkpt>
      <trkpt lat="43.55158" lon="2.79356">
        <ele>905.4</ele>
        <time>2026-05-22T05:38:04Z</time>
      </trkpt>
      <trkpt lat="43.55158" lon="2.79356">
        <ele>905.4</ele>
        <time>2026-05-22T05:38:09Z</time>
      </trkpt>
      <trkpt lat="43.5516" lon="2.79364">
        <ele>905.4</ele>
        <time>2026-05-22T05:38:14Z</time>
      </trkpt>
      <trkpt lat="43.5516" lon="2.79364">
        <ele>905.4</ele>
        <time>2026-05-22T05:38:19Z</time>
      </trkpt>
      <trkpt lat="43.5516" lon="2.79364">
        <ele>905.4</ele>
        <time>2026-05-22T05:38:24Z</time>
      </trkpt>
      <trkpt lat="43.5516" lon="2.79364">
        <ele>905.4</ele>
        <time>2026-05-22T05:38:29Z</time>
      </trkpt>
      <trkpt lat="43.5516" lon="2.79364">
        <ele>905.4</ele>
        <time>2026-05-22T05:38:34Z</time>
      </trkpt>
      <trkpt lat="43.5516" lon="2.79364">
        <ele>905.4</ele>
        <time>2026-05-22T05:38:39Z</time>
      </trkpt>
      <trkpt lat="43.5516" lon="2.79364">
        <ele>905.4</ele>
        <time>2026-05-22T05:38:44Z</time>
      </trkpt>
      <trkpt lat="43.5516" lon="2.79364">
        <ele>905.4</ele>
        <time>2026-05-22T05:38:49Z</time>
      </trkpt>
      <trkpt lat="43.55159" lon="2.79375">
        <ele>902.3</ele>
        <time>2026-05-22T05:38:54Z</time>
      </trkpt>
      <trkpt lat="43.55159" lon="2.79375">
        <ele>902.3</ele>
        <time>2026-05-22T05:38:59Z</time>
      </trkpt>
      <trkpt lat="43.55159" lon="2.79375">
        <ele>902.3</ele>
        <time>2026-05-22T05:39:04Z</time>
      </trkpt>
      <trkpt lat="43.55159" lon="2.79375">
        <ele>902.3</ele>
        <time>2026-05-22T05:39:09Z</time>
      </trkpt>
      <trkpt lat="43.55152" lon="2.79377">
        <ele>896.2</ele>
        <time>2026-05-22T05:39:14Z</time>
      </trkpt>
      <trkpt lat="43.55152" lon="2.79377">
        <ele>896.2</ele>
        <time>2026-05-22T05:39:19Z</time>
      </trkpt>
      <trkpt lat="43.55152" lon="2.79377">
        <ele>896.2</ele>
        <time>2026-05-22T05:39:24Z</time>
      </trkpt>
      <trkpt lat="43.55152" lon="2.79377">
        <ele>896.2</ele>
        <time>2026-05-22T05:39:29Z</time>
      </trkpt>
      <trkpt lat="43.55152" lon="2.79377">
        <ele>896.2</ele>
        <time>2026-05-22T05:39:34Z</time>
      </trkpt>
      <trkpt lat="43.55152" lon="2.79377">
        <ele>896.2</ele>
        <time>2026-05-22T05:39:39Z</time>
      </trkpt>
      <trkpt lat="43.55152" lon="2.79377">
        <ele>896.2</ele>
        <time>2026-05-22T05:39:44Z</time>
      </trkpt>
      <trkpt lat="43.55152" lon="2.79377">
        <ele>896.2</ele>
        <time>2026-05-22T05:39:49Z</time>
      </trkpt>
      <trkpt lat="43.55152" lon="2.79377">
        <ele>896.2</ele>
        <time>2026-05-22T05:39:54Z</time>
      </trkpt>
      <trkpt lat="43.55152" lon="2.79377">
        <ele>896.2</ele>
        <time>2026-05-22T05:39:59Z</time>
      </trkpt>
      <trkpt lat="43.55152" lon="2.79377">
        <ele>896.2</ele>
        <time>2026-05-22T05:40:04Z</time>
      </trkpt>
      <trkpt lat="43.55152" lon="2.79377">
        <ele>896.2</ele>
        <time>2026-05-22T05:40:09Z</time>
      </trkpt>
      <trkpt lat="43.55152" lon="2.79377">
        <ele>896.2</ele>
        <time>2026-05-22T05:40:14Z</time>
      </trkpt>
      <trkpt lat="43.55152" lon="2.79377">
        <ele>896.2</ele>
        <time>2026-05-22T05:40:19Z</time>
      </trkpt>
      <trkpt lat="43.55152" lon="2.79377">
        <ele>896.2</ele>
        <time>2026-05-22T05:40:24Z</time>
      </trkpt>
      <trkpt lat="43.55152" lon="2.79377">
        <ele>896.2</ele>
        <time>2026-05-22T05:40:29Z</time>
      </trkpt>
      <trkpt lat="43.55152" lon="2.79377">
        <ele>896.2</ele>
        <time>2026-05-22T05:40:34Z</time>
      </trkpt>
      <trkpt lat="43.55152" lon="2.79377">
        <ele>896.2</ele>
        <time>2026-05-22T05:40:39Z</time>
      </trkpt>
      <trkpt lat="43.55152" lon="2.79377">
        <ele>896.2</ele>
        <time>2026-05-22T05:40:44Z</time>
      </trkpt>
      <trkpt lat="43.55152" lon="2.79377">
        <ele>896.2</ele>
        <time>2026-05-22T05:40:49Z</time>
      </trkpt>
      <trkpt lat="43.55152" lon="2.79377">
        <ele>896.2</ele>
        <time>2026-05-22T05:40:54Z</time>
      </trkpt>
      <trkpt lat="43.55152" lon="2.79377">
        <ele>896.2</ele>
        <time>2026-05-22T05:40:59Z</time>
      </trkpt>
      <trkpt lat="43.55152" lon="2.79377">
        <ele>896.2</ele>
        <time>2026-05-22T05:41:04Z</time>
      </trkpt>
      <trkpt lat="43.55152" lon="2.79377">
        <ele>896.2</ele>
        <time>2026-05-22T05:41:09Z</time>
      </trkpt>
      <trkpt lat="43.55152" lon="2.79377">
        <ele>896.2</ele>
        <time>2026-05-22T05:41:14Z</time>
      </trkpt>
      <trkpt lat="43.55152" lon="2.79377">
        <ele>896.2</ele>
        <time>2026-05-22T05:41:19Z</time>
      </trkpt>
      <trkpt lat="43.55152" lon="2.79377">
        <ele>896.2</ele>
        <time>2026-05-22T05:41:24Z</time>
      </trkpt>
      <trkpt lat="43.55152" lon="2.79377">
        <ele>896.2</ele>
        <time>2026-05-22T05:41:29Z</time>
      </trkpt>
      <trkpt lat="43.55152" lon="2.79377">
        <ele>896.2</ele>
        <time>2026-05-22T05:41:34Z</time>
      </trkpt>
      <trkpt lat="43.55152" lon="2.79377">
        <ele>896.2</ele>
        <time>2026-05-22T05:41:39Z</time>
      </trkpt>
      <trkpt lat="43.55152" lon="2.79377">
        <ele>896.2</ele>
        <time>2026-05-22T05:41:44Z</time>
      </trkpt>
      <trkpt lat="43.55152" lon="2.79377">
        <ele>896.2</ele>
        <time>2026-05-22T05:41:49Z</time>
      </trkpt>
      <trkpt lat="43.55152" lon="2.79377">
        <ele>896.2</ele>
        <time>2026-05-22T05:41:54Z</time>
      </trkpt>
      <trkpt lat="43.55152" lon="2.79377">
        <ele>896.2</ele>
        <time>2026-05-22T05:41:59Z</time>
      </trkpt>
      <trkpt lat="43.55152" lon="2.79377">
        <ele>896.2</ele>
        <time>2026-05-22T05:42:04Z</time>
      </trkpt>
      <trkpt lat="43.55152" lon="2.79377">
        <ele>896.2</ele>
        <time>2026-05-22T05:42:09Z</time>
      </trkpt>
      <trkpt lat="43.55152" lon="2.79377">
        <ele>896.2</ele>
        <time>2026-05-22T05:42:14Z</time>
      </trkpt>
      <trkpt lat="43.55152" lon="2.79377">
        <ele>896.2</ele>
        <time>2026-05-22T05:42:19Z</time>
      </trkpt>
      <trkpt lat="43.55152" lon="2.79377">
        <ele>896.2</ele>
        <time>2026-05-22T05:42:24Z</time>
      </trkpt>
      <trkpt lat="43.55152" lon="2.79377">
        <ele>896.2</ele>
        <time>2026-05-22T05:42:29Z</time>
      </trkpt>
      <trkpt lat="43.55152" lon="2.79377">
        <ele>896.2</ele>
        <time>2026-05-22T05:42:34Z</time>
      </trkpt>
      <trkpt lat="43.55152" lon="2.79377">
        <ele>896.2</ele>
        <time>2026-05-22T05:42:39Z</time>
      </trkpt>
      <trkpt lat="43.55152" lon="2.79377">
        <ele>896.2</ele>
        <time>2026-05-22T05:42:44Z</time>
      </trkpt>
      <trkpt lat="43.55152" lon="2.79377">
        <ele>896.2</ele>
        <time>2026-05-22T05:42:49Z</time>
      </trkpt>
      <trkpt lat="43.55152" lon="2.79377">
        <ele>896.2</ele>
        <time>2026-05-22T05:42:54Z</time>
      </trkpt>
      <trkpt lat="43.55152" lon="2.79377">
        <ele>896.2</ele>
        <time>2026-05-22T05:42:59Z</time>
      </trkpt>
      <trkpt lat="43.55152" lon="2.79377">
        <ele>896.2</ele>
        <time>2026-05-22T05:43:04Z</time>
      </trkpt>
      <trkpt lat="43.55152" lon="2.79377">
        <ele>896.2</ele>
        <time>2026-05-22T05:43:09Z</time>
      </trkpt>
      <trkpt lat="43.55152" lon="2.79377">
        <ele>896.2</ele>
        <time>2026-05-22T05:43:14Z</time>
      </trkpt>
      <trkpt lat="43.55152" lon="2.79377">
        <ele>896.2</ele>
        <time>2026-05-22T05:43:19Z</time>
      </trkpt>
      <trkpt lat="43.55152" lon="2.79377">
        <ele>896.2</ele>
        <time>2026-05-22T05:43:24Z</time>
      </trkpt>
      <trkpt lat="43.55152" lon="2.79377">
        <ele>896.2</ele>
        <time>2026-05-22T05:43:29Z</time>
      </trkpt>
      <trkpt lat="43.55152" lon="2.79377">
        <ele>896.2</ele>
        <time>2026-05-22T05:43:34Z</time>
      </trkpt>
      <trkpt lat="43.55152" lon="2.79377">
        <ele>896.2</ele>
        <time>2026-05-22T05:43:39Z</time>
      </trkpt>
      <trkpt lat="43.55152" lon="2.79377">
        <ele>896.2</ele>
        <time>2026-05-22T05:43:44Z</time>
      </trkpt>
      <trkpt lat="43.55152" lon="2.79377">
        <ele>896.2</ele>
        <time>2026-05-22T05:43:49Z</time>
      </trkpt>
      <trkpt lat="43.55152" lon="2.79377">
        <ele>896.2</ele>
        <time>2026-05-22T05:43:54Z</time>
      </trkpt>
      <trkpt lat="43.55152" lon="2.79377">
        <ele>896.2</ele>
        <time>2026-05-22T05:43:59Z</time>
      </trkpt>
      <trkpt lat="43.55158" lon="2.79374">
        <ele>901.7</ele>
        <time>2026-05-22T05:44:04Z</time>
      </trkpt>
      <trkpt lat="43.55159" lon="2.79372">
        <ele>902.9</ele>
        <time>2026-05-22T05:44:09Z</time>
      </trkpt>
      <trkpt lat="43.5516" lon="2.79368">
        <ele>904.5</ele>
        <time>2026-05-22T05:44:14Z</time>
      </trkpt>
      <trkpt lat="43.55159" lon="2.79367">
        <ele>903.9</ele>
        <time>2026-05-22T05:44:19Z</time>
      </trkpt>
      <trkpt lat="43.55159" lon="2.79367">
        <ele>903.9</ele>
        <time>2026-05-22T05:44:24Z</time>
      </trkpt>
      <trkpt lat="43.55159" lon="2.79367">
        <ele>903.9</ele>
        <time>2026-05-22T05:44:29Z</time>
      </trkpt>
      <trkpt lat="43.55159" lon="2.79367">
        <ele>903.9</ele>
        <time>2026-05-22T05:44:34Z</time>
      </trkpt>
      <trkpt lat="43.55159" lon="2.79367">
        <ele>903.9</ele>
        <time>2026-05-22T05:44:39Z</time>
      </trkpt>
      <trkpt lat="43.55159" lon="2.79367">
        <ele>903.9</ele>
        <time>2026-05-22T05:44:44Z</time>
      </trkpt>
      <trkpt lat="43.55158" lon="2.79354">
        <ele>905.8</ele>
        <time>2026-05-22T05:44:49Z</time>
      </trkpt>
      <trkpt lat="43.55158" lon="2.79353">
        <ele>906</ele>
        <time>2026-05-22T05:44:54Z</time>
      </trkpt>
      <trkpt lat="43.55158" lon="2.79353">
        <ele>906</ele>
        <time>2026-05-22T05:44:59Z</time>
      </trkpt>
      <trkpt lat="43.55154" lon="2.79353">
        <ele>902.8</ele>
        <time>2026-05-22T05:45:04Z</time>
      </trkpt>
      <trkpt lat="43.55154" lon="2.79353">
        <ele>902.8</ele>
        <time>2026-05-22T05:45:09Z</time>
      </trkpt>
      <trkpt lat="43.55154" lon="2.79353">
        <ele>902.8</ele>
        <time>2026-05-22T05:45:14Z</time>
      </trkpt>
      <trkpt lat="43.55154" lon="2.79353">
        <ele>902.8</ele>
        <time>2026-05-22T05:45:19Z</time>
      </trkpt>
      <trkpt lat="43.55154" lon="2.79353">
        <ele>902.8</ele>
        <time>2026-05-22T05:45:24Z</time>
      </trkpt>
      <trkpt lat="43.55154" lon="2.79353">
        <ele>902.8</ele>
        <time>2026-05-22T05:45:29Z</time>
      </trkpt>
      <trkpt lat="43.55154" lon="2.79353">
        <ele>902.8</ele>
        <time>2026-05-22T05:45:34Z</time>
      </trkpt>
      <trkpt lat="43.55154" lon="2.79353">
        <ele>902.8</ele>
        <time>2026-05-22T05:45:39Z</time>
      </trkpt>
      <trkpt lat="43.55154" lon="2.79353">
        <ele>902.8</ele>
        <time>2026-05-22T05:45:44Z</time>
      </trkpt>
      <trkpt lat="43.55154" lon="2.79353">
        <ele>902.8</ele>
        <time>2026-05-22T05:45:49Z</time>
      </trkpt>
      <trkpt lat="43.55154" lon="2.79353">
        <ele>902.8</ele>
        <time>2026-05-22T05:45:54Z</time>
      </trkpt>
      <trkpt lat="43.55154" lon="2.79353">
        <ele>902.8</ele>
        <time>2026-05-22T05:45:59Z</time>
      </trkpt>
      <trkpt lat="43.55154" lon="2.79353">
        <ele>902.8</ele>
        <time>2026-05-22T05:46:04Z</time>
      </trkpt>
      <trkpt lat="43.55154" lon="2.79353">
        <ele>902.8</ele>
        <time>2026-05-22T05:46:09Z</time>
      </trkpt>
      <trkpt lat="43.55154" lon="2.79353">
        <ele>902.8</ele>
        <time>2026-05-22T05:46:14Z</time>
      </trkpt>
      <trkpt lat="43.55154" lon="2.79353">
        <ele>902.8</ele>
        <time>2026-05-22T05:46:19Z</time>
      </trkpt>
      <trkpt lat="43.55154" lon="2.79353">
        <ele>902.8</ele>
        <time>2026-05-22T05:46:24Z</time>
      </trkpt>
      <trkpt lat="43.55154" lon="2.79353">
        <ele>902.8</ele>
        <time>2026-05-22T05:46:29Z</time>
      </trkpt>
      <trkpt lat="43.55159" lon="2.7934">
        <ele>909.5</ele>
        <time>2026-05-22T05:46:34Z</time>
      </trkpt>
      <trkpt lat="43.55159" lon="2.7934">
        <ele>909.5</ele>
        <time>2026-05-22T05:46:39Z</time>
      </trkpt>
      <trkpt lat="43.55158" lon="2.79333">
        <ele>910.1</ele>
        <time>2026-05-22T05:46:44Z</time>
      </trkpt>
      <trkpt lat="43.55159" lon="2.79329">
        <ele>912.2</ele>
        <time>2026-05-22T05:46:49Z</time>
      </trkpt>
      <trkpt lat="43.5516" lon="2.79325">
        <ele>914.3</ele>
        <time>2026-05-22T05:46:54Z</time>
      </trkpt>
      <trkpt lat="43.55161" lon="2.79322">
        <ele>916</ele>
        <time>2026-05-22T05:46:59Z</time>
      </trkpt>
      <trkpt lat="43.55162" lon="2.79317">
        <ele>918.4</ele>
        <time>2026-05-22T05:47:04Z</time>
      </trkpt>
      <trkpt lat="43.55163" lon="2.79311">
        <ele>921.1</ele>
        <time>2026-05-22T05:47:09Z</time>
      </trkpt>
      <trkpt lat="43.55163" lon="2.79306">
        <ele>922.6</ele>
        <time>2026-05-22T05:47:14Z</time>
      </trkpt>
      <trkpt lat="43.55161" lon="2.793">
        <ele>922.9</ele>
        <time>2026-05-22T05:47:19Z</time>
      </trkpt>
      <trkpt lat="43.55162" lon="2.79295">
        <ele>925.3</ele>
        <time>2026-05-22T05:47:24Z</time>
      </trkpt>
      <trkpt lat="43.55164" lon="2.79291">
        <ele>928.1</ele>
        <time>2026-05-22T05:47:29Z</time>
      </trkpt>
      <trkpt lat="43.55165" lon="2.79287">
        <ele>930.1</ele>
        <time>2026-05-22T05:47:34Z</time>
      </trkpt>
      <trkpt lat="43.55165" lon="2.79282">
        <ele>931.7</ele>
        <time>2026-05-22T05:47:39Z</time>
      </trkpt>
      <trkpt lat="43.55163" lon="2.79277">
        <ele>931.7</ele>
        <time>2026-05-22T05:47:44Z</time>
      </trkpt>
      <trkpt lat="43.55164" lon="2.79273">
        <ele>933.7</ele>
        <time>2026-05-22T05:47:49Z</time>
      </trkpt>
      <trkpt lat="43.55164" lon="2.7927">
        <ele>934.7</ele>
        <time>2026-05-22T05:47:54Z</time>
      </trkpt>
      <trkpt lat="43.55166" lon="2.79267">
        <ele>937.2</ele>
        <time>2026-05-22T05:47:59Z</time>
      </trkpt>
      <trkpt lat="43.55169" lon="2.79266">
        <ele>939</ele>
        <time>2026-05-22T05:48:04Z</time>
      </trkpt>
      <trkpt lat="43.55169" lon="2.79266">
        <ele>939</ele>
        <time>2026-05-22T05:48:09Z</time>
      </trkpt>
      <trkpt lat="43.55169" lon="2.79266">
        <ele>939</ele>
        <time>2026-05-22T05:48:14Z</time>
      </trkpt>
      <trkpt lat="43.55169" lon="2.79266">
        <ele>939</ele>
        <time>2026-05-22T05:48:19Z</time>
      </trkpt>
      <trkpt lat="43.55169" lon="2.79266">
        <ele>939</ele>
        <time>2026-05-22T05:48:24Z</time>
      </trkpt>
      <trkpt lat="43.55169" lon="2.79266">
        <ele>939</ele>
        <time>2026-05-22T05:48:29Z</time>
      </trkpt>
      <trkpt lat="43.55169" lon="2.79266">
        <ele>939</ele>
        <time>2026-05-22T05:48:34Z</time>
      </trkpt>
      <trkpt lat="43.55169" lon="2.79266">
        <ele>939</ele>
        <time>2026-05-22T05:48:39Z</time>
      </trkpt>
      <trkpt lat="43.55169" lon="2.79266">
        <ele>939</ele>
        <time>2026-05-22T05:48:44Z</time>
      </trkpt>
      <trkpt lat="43.55169" lon="2.79266">
        <ele>939</ele>
        <time>2026-05-22T05:48:49Z</time>
      </trkpt>
      <trkpt lat="43.55169" lon="2.79266">
        <ele>939</ele>
        <time>2026-05-22T05:48:54Z</time>
      </trkpt>
      <trkpt lat="43.55169" lon="2.79266">
        <ele>939</ele>
        <time>2026-05-22T05:48:59Z</time>
      </trkpt>
      <trkpt lat="43.55169" lon="2.79266">
        <ele>939</ele>
        <time>2026-05-22T05:49:04Z</time>
      </trkpt>
      <trkpt lat="43.55169" lon="2.79266">
        <ele>939</ele>
        <time>2026-05-22T05:49:09Z</time>
      </trkpt>
      <trkpt lat="43.55169" lon="2.79266">
        <ele>939</ele>
        <time>2026-05-22T05:49:14Z</time>
      </trkpt>
      <trkpt lat="43.55166" lon="2.7926">
        <ele>939.4</ele>
        <time>2026-05-22T05:49:19Z</time>
      </trkpt>
      <trkpt lat="43.55167" lon="2.79255">
        <ele>941.6</ele>
        <time>2026-05-22T05:49:24Z</time>
      </trkpt>
      <trkpt lat="43.5517" lon="2.7925">
        <ele>944.3</ele>
        <time>2026-05-22T05:49:29Z</time>
      </trkpt>
      <trkpt lat="43.55173" lon="2.79243">
        <ele>946.5</ele>
        <time>2026-05-22T05:49:34Z</time>
      </trkpt>
      <trkpt lat="43.55175" lon="2.79236">
        <ele>948.2</ele>
        <time>2026-05-22T05:49:39Z</time>
      </trkpt>
      <trkpt lat="43.55175" lon="2.79229">
        <ele>949.2</ele>
        <time>2026-05-22T05:49:44Z</time>
      </trkpt>
      <trkpt lat="43.55172" lon="2.79226">
        <ele>948.6</ele>
        <time>2026-05-22T05:49:49Z</time>
      </trkpt>
      <trkpt lat="43.55172" lon="2.79226">
        <ele>948.6</ele>
        <time>2026-05-22T05:49:54Z</time>
      </trkpt>
      <trkpt lat="43.5517" lon="2.79225">
        <ele>948</ele>
        <time>2026-05-22T05:49:59Z</time>
      </trkpt>
      <trkpt lat="43.5517" lon="2.79224">
        <ele>948.2</ele>
        <time>2026-05-22T05:50:04Z</time>
      </trkpt>
      <trkpt lat="43.5517" lon="2.79224">
        <ele>948.2</ele>
        <time>2026-05-22T05:50:09Z</time>
      </trkpt>
      <trkpt lat="43.55168" lon="2.79222">
        <ele>947.8</ele>
        <time>2026-05-22T05:50:14Z</time>
      </trkpt>
      <trkpt lat="43.55166" lon="2.79222">
        <ele>946.9</ele>
        <time>2026-05-22T05:50:19Z</time>
      </trkpt>
      <trkpt lat="43.55162" lon="2.79221">
        <ele>944.1</ele>
        <time>2026-05-22T05:50:24Z</time>
      </trkpt>
      <trkpt lat="43.55158" lon="2.79217">
        <ele>941.7</ele>
        <time>2026-05-22T05:50:29Z</time>
      </trkpt>
      <trkpt lat="43.55155" lon="2.79217">
        <ele>939.5</ele>
        <time>2026-05-22T05:50:34Z</time>
      </trkpt>
      <trkpt lat="43.55149" lon="2.79216">
        <ele>935.3</ele>
        <time>2026-05-22T05:50:39Z</time>
      </trkpt>
      <trkpt lat="43.55146" lon="2.79211">
        <ele>933.9</ele>
        <time>2026-05-22T05:50:44Z</time>
      </trkpt>
      <trkpt lat="43.55145" lon="2.79208">
        <ele>933.7</ele>
        <time>2026-05-22T05:50:49Z</time>
      </trkpt>
      <trkpt lat="43.55142" lon="2.79202">
        <ele>932.6</ele>
        <time>2026-05-22T05:50:54Z</time>
      </trkpt>
      <trkpt lat="43.55142" lon="2.79194">
        <ele>934</ele>
        <time>2026-05-22T05:50:59Z</time>
      </trkpt>
      <trkpt lat="43.55143" lon="2.79186">
        <ele>936.1</ele>
        <time>2026-05-22T05:51:04Z</time>
      </trkpt>
      <trkpt lat="43.55144" lon="2.79176">
        <ele>938.6</ele>
        <time>2026-05-22T05:51:09Z</time>
      </trkpt>
      <trkpt lat="43.55144" lon="2.79166">
        <ele>940.3</ele>
        <time>2026-05-22T05:51:14Z</time>
      </trkpt>
      <trkpt lat="43.55145" lon="2.79159">
        <ele>941.4</ele>
        <time>2026-05-22T05:51:19Z</time>
      </trkpt>
      <trkpt lat="43.55146" lon="2.79153">
        <ele>942.4</ele>
        <time>2026-05-22T05:51:24Z</time>
      </trkpt>
      <trkpt lat="43.55147" lon="2.79148">
        <ele>943.4</ele>
        <time>2026-05-22T05:51:29Z</time>
      </trkpt>
      <trkpt lat="43.5515" lon="2.79143">
        <ele>945.7</ele>
        <time>2026-05-22T05:51:34Z</time>
      </trkpt>
      <trkpt lat="43.55153" lon="2.79136">
        <ele>948.1</ele>
        <time>2026-05-22T05:51:39Z</time>
      </trkpt>
      <trkpt lat="43.55153" lon="2.7913">
        <ele>948.5</ele>
        <time>2026-05-22T05:51:44Z</time>
      </trkpt>
      <trkpt lat="43.55154" lon="2.79123">
        <ele>949.5</ele>
        <time>2026-05-22T05:51:49Z</time>
      </trkpt>
      <trkpt lat="43.55151" lon="2.7912">
        <ele>947.7</ele>
        <time>2026-05-22T05:51:54Z</time>
      </trkpt>
      <trkpt lat="43.55148" lon="2.79114">
        <ele>946</ele>
        <time>2026-05-22T05:51:59Z</time>
      </trkpt>
      <trkpt lat="43.55145" lon="2.79107">
        <ele>944.3</ele>
        <time>2026-05-22T05:52:04Z</time>
      </trkpt>
      <trkpt lat="43.55142" lon="2.79102">
        <ele>942.6</ele>
        <time>2026-05-22T05:52:09Z</time>
      </trkpt>
      <trkpt lat="43.5514" lon="2.79096">
        <ele>941.6</ele>
        <time>2026-05-22T05:52:14Z</time>
      </trkpt>
      <trkpt lat="43.55135" lon="2.79089">
        <ele>938.8</ele>
        <time>2026-05-22T05:52:19Z</time>
      </trkpt>
      <trkpt lat="43.55131" lon="2.79082">
        <ele>936.6</ele>
        <time>2026-05-22T05:52:24Z</time>
      </trkpt>
      <trkpt lat="43.55128" lon="2.79077">
        <ele>935.1</ele>
        <time>2026-05-22T05:52:29Z</time>
      </trkpt>
      <trkpt lat="43.55127" lon="2.79072">
        <ele>935</ele>
        <time>2026-05-22T05:52:34Z</time>
      </trkpt>
      <trkpt lat="43.55124" lon="2.79067">
        <ele>933.5</ele>
        <time>2026-05-22T05:52:39Z</time>
      </trkpt>
      <trkpt lat="43.55122" lon="2.79062">
        <ele>932.7</ele>
        <time>2026-05-22T05:52:44Z</time>
      </trkpt>
      <trkpt lat="43.55121" lon="2.79057">
        <ele>932.6</ele>
        <time>2026-05-22T05:52:49Z</time>
      </trkpt>
      <trkpt lat="43.55119" lon="2.79052">
        <ele>931.8</ele>
        <time>2026-05-22T05:52:54Z</time>
      </trkpt>
      <trkpt lat="43.55117" lon="2.79046">
        <ele>931.1</ele>
        <time>2026-05-22T05:52:59Z</time>
      </trkpt>
      <trkpt lat="43.55117" lon="2.79039">
        <ele>931.8</ele>
        <time>2026-05-22T05:53:04Z</time>
      </trkpt>
      <trkpt lat="43.55117" lon="2.79033">
        <ele>932.4</ele>
        <time>2026-05-22T05:53:09Z</time>
      </trkpt>
      <trkpt lat="43.55118" lon="2.79028">
        <ele>933.6</ele>
        <time>2026-05-22T05:53:14Z</time>
      </trkpt>
      <trkpt lat="43.55118" lon="2.79022">
        <ele>934.2</ele>
        <time>2026-05-22T05:53:19Z</time>
      </trkpt>
      <trkpt lat="43.55119" lon="2.79018">
        <ele>935.3</ele>
        <time>2026-05-22T05:53:24Z</time>
      </trkpt>
      <trkpt lat="43.5512" lon="2.79013">
        <ele>936.4</ele>
        <time>2026-05-22T05:53:29Z</time>
      </trkpt>
      <trkpt lat="43.55121" lon="2.79009">
        <ele>937.5</ele>
        <time>2026-05-22T05:53:34Z</time>
      </trkpt>
      <trkpt lat="43.5512" lon="2.79005">
        <ele>937.2</ele>
        <time>2026-05-22T05:53:39Z</time>
      </trkpt>
      <trkpt lat="43.55119" lon="2.78999">
        <ele>937.2</ele>
        <time>2026-05-22T05:53:44Z</time>
      </trkpt>
      <trkpt lat="43.55119" lon="2.78993">
        <ele>937.6</ele>
        <time>2026-05-22T05:53:49Z</time>
      </trkpt>
      <trkpt lat="43.5512" lon="2.78989">
        <ele>938.6</ele>
        <time>2026-05-22T05:53:54Z</time>
      </trkpt>
      <trkpt lat="43.55119" lon="2.78984">
        <ele>938.3</ele>
        <time>2026-05-22T05:53:59Z</time>
      </trkpt>
      <trkpt lat="43.55119" lon="2.7898">
        <ele>938.6</ele>
        <time>2026-05-22T05:54:04Z</time>
      </trkpt>
      <trkpt lat="43.5512" lon="2.78978">
        <ele>939.4</ele>
        <time>2026-05-22T05:54:09Z</time>
      </trkpt>
      <trkpt lat="43.55124" lon="2.78975">
        <ele>942</ele>
        <time>2026-05-22T05:54:14Z</time>
      </trkpt>
      <trkpt lat="43.55128" lon="2.7897">
        <ele>944.8</ele>
        <time>2026-05-22T05:54:19Z</time>
      </trkpt>
      <trkpt lat="43.55131" lon="2.78969">
        <ele>946.6</ele>
        <time>2026-05-22T05:54:24Z</time>
      </trkpt>
      <trkpt lat="43.55134" lon="2.78968">
        <ele>948.5</ele>
        <time>2026-05-22T05:54:29Z</time>
      </trkpt>
      <trkpt lat="43.55138" lon="2.78968">
        <ele>950.9</ele>
        <time>2026-05-22T05:54:34Z</time>
      </trkpt>
      <trkpt lat="43.55141" lon="2.78965">
        <ele>952.8</ele>
        <time>2026-05-22T05:54:39Z</time>
      </trkpt>
      <trkpt lat="43.55144" lon="2.78961">
        <ele>954.7</ele>
        <time>2026-05-22T05:54:44Z</time>
      </trkpt>
      <trkpt lat="43.55148" lon="2.7896">
        <ele>957.1</ele>
        <time>2026-05-22T05:54:49Z</time>
      </trkpt>
      <trkpt lat="43.55151" lon="2.78957">
        <ele>958.9</ele>
        <time>2026-05-22T05:54:54Z</time>
      </trkpt>
      <trkpt lat="43.55154" lon="2.78952">
        <ele>960.8</ele>
        <time>2026-05-22T05:54:59Z</time>
      </trkpt>
      <trkpt lat="43.55157" lon="2.78947">
        <ele>962.5</ele>
        <time>2026-05-22T05:55:04Z</time>
      </trkpt>
      <trkpt lat="43.55161" lon="2.78945">
        <ele>964.8</ele>
        <time>2026-05-22T05:55:09Z</time>
      </trkpt>
      <trkpt lat="43.55165" lon="2.78943">
        <ele>967.1</ele>
        <time>2026-05-22T05:55:14Z</time>
      </trkpt>
      <trkpt lat="43.55168" lon="2.78942">
        <ele>968.4</ele>
        <time>2026-05-22T05:55:19Z</time>
      </trkpt>
      <trkpt lat="43.55171" lon="2.78938">
        <ele>969.4</ele>
        <time>2026-05-22T05:55:24Z</time>
      </trkpt>
      <trkpt lat="43.55174" lon="2.78938">
        <ele>970.4</ele>
        <time>2026-05-22T05:55:29Z</time>
      </trkpt>
      <trkpt lat="43.55177" lon="2.78938">
        <ele>971.4</ele>
        <time>2026-05-22T05:55:34Z</time>
      </trkpt>
      <trkpt lat="43.55177" lon="2.78939">
        <ele>971.4</ele>
        <time>2026-05-22T05:55:39Z</time>
      </trkpt>
      <trkpt lat="43.55177" lon="2.78939">
        <ele>971.4</ele>
        <time>2026-05-22T05:55:44Z</time>
      </trkpt>
      <trkpt lat="43.55177" lon="2.78939">
        <ele>971.4</ele>
        <time>2026-05-22T05:55:49Z</time>
      </trkpt>
      <trkpt lat="43.55177" lon="2.78939">
        <ele>971.4</ele>
        <time>2026-05-22T05:55:54Z</time>
      </trkpt>
      <trkpt lat="43.55177" lon="2.78939">
        <ele>971.4</ele>
        <time>2026-05-22T05:55:59Z</time>
      </trkpt>
      <trkpt lat="43.55177" lon="2.78939">
        <ele>971.4</ele>
        <time>2026-05-22T05:56:04Z</time>
      </trkpt>
      <trkpt lat="43.55177" lon="2.78939">
        <ele>971.4</ele>
        <time>2026-05-22T05:56:09Z</time>
      </trkpt>
      <trkpt lat="43.55177" lon="2.78939">
        <ele>971.4</ele>
        <time>2026-05-22T05:56:14Z</time>
      </trkpt>
      <trkpt lat="43.55177" lon="2.78939">
        <ele>971.4</ele>
        <time>2026-05-22T05:56:19Z</time>
      </trkpt>
      <trkpt lat="43.55177" lon="2.78939">
        <ele>971.4</ele>
        <time>2026-05-22T05:56:24Z</time>
      </trkpt>
      <trkpt lat="43.55177" lon="2.78939">
        <ele>971.4</ele>
        <time>2026-05-22T05:56:29Z</time>
      </trkpt>
      <trkpt lat="43.55177" lon="2.78939">
        <ele>971.4</ele>
        <time>2026-05-22T05:56:34Z</time>
      </trkpt>
      <trkpt lat="43.55177" lon="2.78939">
        <ele>971.4</ele>
        <time>2026-05-22T05:56:39Z</time>
      </trkpt>
      <trkpt lat="43.55177" lon="2.78939">
        <ele>971.4</ele>
        <time>2026-05-22T05:56:44Z</time>
      </trkpt>
      <trkpt lat="43.55177" lon="2.78939">
        <ele>971.4</ele>
        <time>2026-05-22T05:56:49Z</time>
      </trkpt>
      <trkpt lat="43.55177" lon="2.78939">
        <ele>971.4</ele>
        <time>2026-05-22T05:56:54Z</time>
      </trkpt>
      <trkpt lat="43.55177" lon="2.78939">
        <ele>971.4</ele>
        <time>2026-05-22T05:56:59Z</time>
      </trkpt>
      <trkpt lat="43.55177" lon="2.78939">
        <ele>971.4</ele>
        <time>2026-05-22T05:57:04Z</time>
      </trkpt>
      <trkpt lat="43.55177" lon="2.78939">
        <ele>971.4</ele>
        <time>2026-05-22T05:57:09Z</time>
      </trkpt>
      <trkpt lat="43.55177" lon="2.78939">
        <ele>971.4</ele>
        <time>2026-05-22T05:57:14Z</time>
      </trkpt>
      <trkpt lat="43.55177" lon="2.78939">
        <ele>971.4</ele>
        <time>2026-05-22T05:57:19Z</time>
      </trkpt>
      <trkpt lat="43.55177" lon="2.78939">
        <ele>971.4</ele>
        <time>2026-05-22T05:57:24Z</time>
      </trkpt>
      <trkpt lat="43.55177" lon="2.78939">
        <ele>971.4</ele>
        <time>2026-05-22T05:57:29Z</time>
      </trkpt>
      <trkpt lat="43.55177" lon="2.78939">
        <ele>971.4</ele>
        <time>2026-05-22T05:57:34Z</time>
      </trkpt>
      <trkpt lat="43.55177" lon="2.78939">
        <ele>971.4</ele>
        <time>2026-05-22T05:57:39Z</time>
      </trkpt>
      <trkpt lat="43.55177" lon="2.78939">
        <ele>971.4</ele>
        <time>2026-05-22T05:57:44Z</time>
      </trkpt>
      <trkpt lat="43.55177" lon="2.78939">
        <ele>971.4</ele>
        <time>2026-05-22T05:57:49Z</time>
      </trkpt>
      <trkpt lat="43.55177" lon="2.78939">
        <ele>971.4</ele>
        <time>2026-05-22T05:57:54Z</time>
      </trkpt>
      <trkpt lat="43.55177" lon="2.78939">
        <ele>971.4</ele>
        <time>2026-05-22T05:57:59Z</time>
      </trkpt>
      <trkpt lat="43.55177" lon="2.78939">
        <ele>971.4</ele>
        <time>2026-05-22T05:58:04Z</time>
      </trkpt>
      <trkpt lat="43.55177" lon="2.78939">
        <ele>971.4</ele>
        <time>2026-05-22T05:58:09Z</time>
      </trkpt>
      <trkpt lat="43.55177" lon="2.78939">
        <ele>971.4</ele>
        <time>2026-05-22T05:58:14Z</time>
      </trkpt>
      <trkpt lat="43.55177" lon="2.78939">
        <ele>971.4</ele>
        <time>2026-05-22T05:58:19Z</time>
      </trkpt>
      <trkpt lat="43.55177" lon="2.78939">
        <ele>971.4</ele>
        <time>2026-05-22T05:58:24Z</time>
      </trkpt>
      <trkpt lat="43.55177" lon="2.78939">
        <ele>971.4</ele>
        <time>2026-05-22T05:58:29Z</time>
      </trkpt>
      <trkpt lat="43.55177" lon="2.78939">
        <ele>971.4</ele>
        <time>2026-05-22T05:58:34Z</time>
      </trkpt>
      <trkpt lat="43.55177" lon="2.78939">
        <ele>971.4</ele>
        <time>2026-05-22T05:58:39Z</time>
      </trkpt>
      <trkpt lat="43.55177" lon="2.78939">
        <ele>971.4</ele>
        <time>2026-05-22T05:58:44Z</time>
      </trkpt>
      <trkpt lat="43.55177" lon="2.78939">
        <ele>971.4</ele>
        <time>2026-05-22T05:58:49Z</time>
      </trkpt>
      <trkpt lat="43.55177" lon="2.78939">
        <ele>971.4</ele>
        <time>2026-05-22T05:58:54Z</time>
      </trkpt>
      <trkpt lat="43.55177" lon="2.78939">
        <ele>971.4</ele>
        <time>2026-05-22T05:58:59Z</time>
      </trkpt>
      <trkpt lat="43.55177" lon="2.78939">
        <ele>971.4</ele>
        <time>2026-05-22T05:59:04Z</time>
      </trkpt>
      <trkpt lat="43.55177" lon="2.78939">
        <ele>971.4</ele>
        <time>2026-05-22T05:59:09Z</time>
      </trkpt>
      <trkpt lat="43.55177" lon="2.78939">
        <ele>971.4</ele>
        <time>2026-05-22T05:59:14Z</time>
      </trkpt>
      <trkpt lat="43.55186" lon="2.78946">
        <ele>974.3</ele>
        <time>2026-05-22T05:59:19Z</time>
      </trkpt>
      <trkpt lat="43.55187" lon="2.78953">
        <ele>974.5</ele>
        <time>2026-05-22T05:59:24Z</time>
      </trkpt>
      <trkpt lat="43.55188" lon="2.78955">
        <ele>974.8</ele>
        <time>2026-05-22T05:59:29Z</time>
      </trkpt>
      <trkpt lat="43.55192" lon="2.78955">
        <ele>976.1</ele>
        <time>2026-05-22T05:59:34Z</time>
      </trkpt>
      <trkpt lat="43.55194" lon="2.78955">
        <ele>976.8</ele>
        <time>2026-05-22T05:59:39Z</time>
      </trkpt>
      <trkpt lat="43.55194" lon="2.78956">
        <ele>976.7</ele>
        <time>2026-05-22T05:59:44Z</time>
      </trkpt>
      <trkpt lat="43.5519" lon="2.78957">
        <ele>975.4</ele>
        <time>2026-05-22T05:59:49Z</time>
      </trkpt>
      <trkpt lat="43.55187" lon="2.78954">
        <ele>974.5</ele>
        <time>2026-05-22T05:59:54Z</time>
      </trkpt>
      <trkpt lat="43.55186" lon="2.78949">
        <ele>974.3</ele>
        <time>2026-05-22T05:59:59Z</time>
      </trkpt>
      <trkpt lat="43.55182" lon="2.78944">
        <ele>973</ele>
        <time>2026-05-22T06:00:04Z</time>
      </trkpt>
      <trkpt lat="43.55176" lon="2.78939">
        <ele>971.1</ele>
        <time>2026-05-22T06:00:09Z</time>
      </trkpt>
      <trkpt lat="43.55174" lon="2.78939">
        <ele>970.4</ele>
        <time>2026-05-22T06:00:14Z</time>
      </trkpt>
      <trkpt lat="43.55174" lon="2.78939">
        <ele>970.4</ele>
        <time>2026-05-22T06:00:19Z</time>
      </trkpt>
      <trkpt lat="43.55174" lon="2.78939">
        <ele>970.4</ele>
        <time>2026-05-22T06:00:24Z</time>
      </trkpt>
      <trkpt lat="43.55174" lon="2.78939">
        <ele>970.4</ele>
        <time>2026-05-22T06:00:29Z</time>
      </trkpt>
      <trkpt lat="43.55174" lon="2.78939">
        <ele>970.4</ele>
        <time>2026-05-22T06:00:34Z</time>
      </trkpt>
      <trkpt lat="43.55174" lon="2.78939">
        <ele>970.4</ele>
        <time>2026-05-22T06:00:39Z</time>
      </trkpt>
      <trkpt lat="43.55174" lon="2.78939">
        <ele>970.4</ele>
        <time>2026-05-22T06:00:44Z</time>
      </trkpt>
      <trkpt lat="43.55174" lon="2.78939">
        <ele>970.4</ele>
        <time>2026-05-22T06:00:49Z</time>
      </trkpt>
      <trkpt lat="43.55174" lon="2.78939">
        <ele>970.4</ele>
        <time>2026-05-22T06:00:54Z</time>
      </trkpt>
      <trkpt lat="43.55174" lon="2.78939">
        <ele>970.4</ele>
        <time>2026-05-22T06:00:59Z</time>
      </trkpt>
      <trkpt lat="43.55174" lon="2.78939">
        <ele>970.4</ele>
        <time>2026-05-22T06:01:04Z</time>
      </trkpt>
      <trkpt lat="43.55174" lon="2.78939">
        <ele>970.4</ele>
        <time>2026-05-22T06:01:09Z</time>
      </trkpt>
      <trkpt lat="43.55174" lon="2.78939">
        <ele>970.4</ele>
        <time>2026-05-22T06:01:14Z</time>
      </trkpt>
      <trkpt lat="43.55174" lon="2.78939">
        <ele>970.4</ele>
        <time>2026-05-22T06:01:19Z</time>
      </trkpt>
      <trkpt lat="43.55174" lon="2.78939">
        <ele>970.4</ele>
        <time>2026-05-22T06:01:24Z</time>
      </trkpt>
      <trkpt lat="43.55174" lon="2.78939">
        <ele>970.4</ele>
        <time>2026-05-22T06:01:29Z</time>
      </trkpt>
      <trkpt lat="43.55174" lon="2.78939">
        <ele>970.4</ele>
        <time>2026-05-22T06:01:34Z</time>
      </trkpt>
      <trkpt lat="43.55174" lon="2.78939">
        <ele>970.4</ele>
        <time>2026-05-22T06:01:39Z</time>
      </trkpt>
      <trkpt lat="43.55174" lon="2.78939">
        <ele>970.4</ele>
        <time>2026-05-22T06:01:44Z</time>
      </trkpt>
      <trkpt lat="43.55174" lon="2.78939">
        <ele>970.4</ele>
        <time>2026-05-22T06:01:49Z</time>
      </trkpt>
      <trkpt lat="43.55174" lon="2.78939">
        <ele>970.4</ele>
        <time>2026-05-22T06:01:54Z</time>
      </trkpt>
      <trkpt lat="43.55174" lon="2.78939">
        <ele>970.4</ele>
        <time>2026-05-22T06:01:59Z</time>
      </trkpt>
      <trkpt lat="43.55174" lon="2.78939">
        <ele>970.4</ele>
        <time>2026-05-22T06:02:04Z</time>
      </trkpt>
      <trkpt lat="43.55174" lon="2.78939">
        <ele>970.4</ele>
        <time>2026-05-22T06:02:09Z</time>
      </trkpt>
      <trkpt lat="43.55174" lon="2.78939">
        <ele>970.4</ele>
        <time>2026-05-22T06:02:14Z</time>
      </trkpt>
      <trkpt lat="43.55174" lon="2.78939">
        <ele>970.4</ele>
        <time>2026-05-22T06:02:19Z</time>
      </trkpt>
      <trkpt lat="43.55174" lon="2.78939">
        <ele>970.4</ele>
        <time>2026-05-22T06:02:24Z</time>
      </trkpt>
      <trkpt lat="43.55174" lon="2.78939">
        <ele>970.4</ele>
        <time>2026-05-22T06:02:29Z</time>
      </trkpt>
      <trkpt lat="43.55172" lon="2.78935">
        <ele>969.8</ele>
        <time>2026-05-22T06:02:34Z</time>
      </trkpt>
      <trkpt lat="43.55172" lon="2.78935">
        <ele>969.8</ele>
        <time>2026-05-22T06:02:39Z</time>
      </trkpt>
      <trkpt lat="43.55172" lon="2.78935">
        <ele>969.8</ele>
        <time>2026-05-22T06:02:44Z</time>
      </trkpt>
      <trkpt lat="43.55172" lon="2.78935">
        <ele>969.8</ele>
        <time>2026-05-22T06:02:49Z</time>
      </trkpt>
      <trkpt lat="43.55172" lon="2.78935">
        <ele>969.8</ele>
        <time>2026-05-22T06:02:54Z</time>
      </trkpt>
      <trkpt lat="43.55172" lon="2.78935">
        <ele>969.8</ele>
        <time>2026-05-22T06:02:59Z</time>
      </trkpt>
      <trkpt lat="43.55172" lon="2.78935">
        <ele>969.8</ele>
        <time>2026-05-22T06:03:04Z</time>
      </trkpt>
      <trkpt lat="43.55172" lon="2.78935">
        <ele>969.8</ele>
        <time>2026-05-22T06:03:09Z</time>
      </trkpt>
      <trkpt lat="43.55172" lon="2.78935">
        <ele>969.8</ele>
        <time>2026-05-22T06:03:14Z</time>
      </trkpt>
      <trkpt lat="43.55172" lon="2.78935">
        <ele>969.8</ele>
        <time>2026-05-22T06:03:19Z</time>
      </trkpt>
      <trkpt lat="43.55172" lon="2.78935">
        <ele>969.8</ele>
        <time>2026-05-22T06:03:24Z</time>
      </trkpt>
      <trkpt lat="43.55172" lon="2.78935">
        <ele>969.8</ele>
        <time>2026-05-22T06:03:29Z</time>
      </trkpt>
      <trkpt lat="43.55172" lon="2.78935">
        <ele>969.8</ele>
        <time>2026-05-22T06:03:34Z</time>
      </trkpt>
      <trkpt lat="43.55172" lon="2.78935">
        <ele>969.8</ele>
        <time>2026-05-22T06:03:39Z</time>
      </trkpt>
      <trkpt lat="43.55172" lon="2.78935">
        <ele>969.8</ele>
        <time>2026-05-22T06:03:44Z</time>
      </trkpt>
      <trkpt lat="43.55172" lon="2.78935">
        <ele>969.8</ele>
        <time>2026-05-22T06:03:49Z</time>
      </trkpt>
      <trkpt lat="43.55172" lon="2.78935">
        <ele>969.8</ele>
        <time>2026-05-22T06:03:54Z</time>
      </trkpt>
      <trkpt lat="43.55172" lon="2.78935">
        <ele>969.8</ele>
        <time>2026-05-22T06:03:59Z</time>
      </trkpt>
      <trkpt lat="43.55172" lon="2.78935">
        <ele>969.8</ele>
        <time>2026-05-22T06:04:04Z</time>
      </trkpt>
      <trkpt lat="43.55172" lon="2.78935">
        <ele>969.8</ele>
        <time>2026-05-22T06:04:09Z</time>
      </trkpt>
      <trkpt lat="43.55172" lon="2.78935">
        <ele>969.8</ele>
        <time>2026-05-22T06:04:14Z</time>
      </trkpt>
      <trkpt lat="43.55172" lon="2.78935">
        <ele>969.8</ele>
        <time>2026-05-22T06:04:19Z</time>
      </trkpt>
      <trkpt lat="43.55172" lon="2.78935">
        <ele>969.8</ele>
        <time>2026-05-22T06:04:24Z</time>
      </trkpt>
      <trkpt lat="43.55172" lon="2.78935">
        <ele>969.8</ele>
        <time>2026-05-22T06:04:29Z</time>
      </trkpt>
      <trkpt lat="43.55172" lon="2.78935">
        <ele>969.8</ele>
        <time>2026-05-22T06:04:34Z</time>
      </trkpt>
      <trkpt lat="43.55172" lon="2.78935">
        <ele>969.8</ele>
        <time>2026-05-22T06:04:39Z</time>
      </trkpt>
      <trkpt lat="43.55172" lon="2.78935">
        <ele>969.8</ele>
        <time>2026-05-22T06:04:44Z</time>
      </trkpt>
      <trkpt lat="43.55172" lon="2.78935">
        <ele>969.8</ele>
        <time>2026-05-22T06:04:49Z</time>
      </trkpt>
      <trkpt lat="43.55172" lon="2.78935">
        <ele>969.8</ele>
        <time>2026-05-22T06:04:54Z</time>
      </trkpt>
      <trkpt lat="43.55172" lon="2.78935">
        <ele>969.8</ele>
        <time>2026-05-22T06:04:59Z</time>
      </trkpt>
      <trkpt lat="43.55172" lon="2.78935">
        <ele>969.8</ele>
        <time>2026-05-22T06:05:04Z</time>
      </trkpt>
      <trkpt lat="43.55172" lon="2.78935">
        <ele>969.8</ele>
        <time>2026-05-22T06:05:09Z</time>
      </trkpt>
      <trkpt lat="43.55172" lon="2.78935">
        <ele>969.8</ele>
        <time>2026-05-22T06:05:14Z</time>
      </trkpt>
      <trkpt lat="43.55172" lon="2.78935">
        <ele>969.8</ele>
        <time>2026-05-22T06:05:19Z</time>
      </trkpt>
      <trkpt lat="43.55172" lon="2.78935">
        <ele>969.8</ele>
        <time>2026-05-22T06:05:24Z</time>
      </trkpt>
      <trkpt lat="43.55172" lon="2.78935">
        <ele>969.8</ele>
        <time>2026-05-22T06:05:29Z</time>
      </trkpt>
      <trkpt lat="43.55172" lon="2.78935">
        <ele>969.8</ele>
        <time>2026-05-22T06:05:34Z</time>
      </trkpt>
      <trkpt lat="43.55172" lon="2.78935">
        <ele>969.8</ele>
        <time>2026-05-22T06:05:39Z</time>
      </trkpt>
      <trkpt lat="43.55172" lon="2.78935">
        <ele>969.8</ele>
        <time>2026-05-22T06:05:44Z</time>
      </trkpt>
      <trkpt lat="43.55172" lon="2.78935">
        <ele>969.8</ele>
        <time>2026-05-22T06:05:49Z</time>
      </trkpt>
      <trkpt lat="43.55172" lon="2.78935">
        <ele>969.8</ele>
        <time>2026-05-22T06:05:54Z</time>
      </trkpt>
      <trkpt lat="43.55172" lon="2.78935">
        <ele>969.8</ele>
        <time>2026-05-22T06:05:59Z</time>
      </trkpt>
      <trkpt lat="43.55172" lon="2.78935">
        <ele>969.8</ele>
        <time>2026-05-22T06:06:04Z</time>
      </trkpt>
      <trkpt lat="43.55172" lon="2.78935">
        <ele>969.8</ele>
        <time>2026-05-22T06:06:09Z</time>
      </trkpt>
      <trkpt lat="43.55172" lon="2.78935">
        <ele>969.8</ele>
        <time>2026-05-22T06:06:14Z</time>
      </trkpt>
      <trkpt lat="43.55172" lon="2.78935">
        <ele>969.8</ele>
        <time>2026-05-22T06:06:19Z</time>
      </trkpt>
      <trkpt lat="43.55172" lon="2.78935">
        <ele>969.8</ele>
        <time>2026-05-22T06:06:24Z</time>
      </trkpt>
      <trkpt lat="43.55172" lon="2.78935">
        <ele>969.8</ele>
        <time>2026-05-22T06:06:29Z</time>
      </trkpt>
      <trkpt lat="43.55172" lon="2.78935">
        <ele>969.8</ele>
        <time>2026-05-22T06:06:34Z</time>
      </trkpt>
      <trkpt lat="43.55172" lon="2.78935">
        <ele>969.8</ele>
        <time>2026-05-22T06:06:39Z</time>
      </trkpt>
      <trkpt lat="43.55172" lon="2.78935">
        <ele>969.8</ele>
        <time>2026-05-22T06:06:44Z</time>
      </trkpt>
      <trkpt lat="43.55172" lon="2.78935">
        <ele>969.8</ele>
        <time>2026-05-22T06:06:49Z</time>
      </trkpt>
      <trkpt lat="43.55172" lon="2.78935">
        <ele>969.8</ele>
        <time>2026-05-22T06:06:54Z</time>
      </trkpt>
      <trkpt lat="43.55172" lon="2.78935">
        <ele>969.8</ele>
        <time>2026-05-22T06:06:59Z</time>
      </trkpt>
      <trkpt lat="43.55172" lon="2.78935">
        <ele>969.8</ele>
        <time>2026-05-22T06:07:04Z</time>
      </trkpt>
      <trkpt lat="43.55172" lon="2.78935">
        <ele>969.8</ele>
        <time>2026-05-22T06:07:09Z</time>
      </trkpt>
      <trkpt lat="43.55172" lon="2.78935">
        <ele>969.8</ele>
        <time>2026-05-22T06:07:14Z</time>
      </trkpt>
      <trkpt lat="43.55172" lon="2.78935">
        <ele>969.8</ele>
        <time>2026-05-22T06:07:19Z</time>
      </trkpt>
      <trkpt lat="43.55172" lon="2.78935">
        <ele>969.8</ele>
        <time>2026-05-22T06:07:24Z</time>
      </trkpt>
      <trkpt lat="43.55172" lon="2.78935">
        <ele>969.8</ele>
        <time>2026-05-22T06:07:29Z</time>
      </trkpt>
      <trkpt lat="43.55172" lon="2.78935">
        <ele>969.8</ele>
        <time>2026-05-22T06:07:34Z</time>
      </trkpt>
      <trkpt lat="43.55172" lon="2.78935">
        <ele>969.8</ele>
        <time>2026-05-22T06:07:39Z</time>
      </trkpt>
      <trkpt lat="43.55172" lon="2.78935">
        <ele>969.8</ele>
        <time>2026-05-22T06:07:44Z</time>
      </trkpt>
      <trkpt lat="43.55172" lon="2.78935">
        <ele>969.8</ele>
        <time>2026-05-22T06:07:49Z</time>
      </trkpt>
      <trkpt lat="43.55172" lon="2.78935">
        <ele>969.8</ele>
        <time>2026-05-22T06:07:54Z</time>
      </trkpt>
      <trkpt lat="43.55172" lon="2.78935">
        <ele>969.8</ele>
        <time>2026-05-22T06:07:59Z</time>
      </trkpt>
      <trkpt lat="43.55172" lon="2.78935">
        <ele>969.8</ele>
        <time>2026-05-22T06:08:04Z</time>
      </trkpt>
      <trkpt lat="43.55172" lon="2.78935">
        <ele>969.8</ele>
        <time>2026-05-22T06:08:09Z</time>
      </trkpt>
      <trkpt lat="43.55172" lon="2.78935">
        <ele>969.8</ele>
        <time>2026-05-22T06:08:14Z</time>
      </trkpt>
      <trkpt lat="43.55172" lon="2.78935">
        <ele>969.8</ele>
        <time>2026-05-22T06:08:19Z</time>
      </trkpt>
      <trkpt lat="43.55172" lon="2.78935">
        <ele>969.8</ele>
        <time>2026-05-22T06:08:24Z</time>
      </trkpt>
      <trkpt lat="43.55172" lon="2.78935">
        <ele>969.8</ele>
        <time>2026-05-22T06:08:29Z</time>
      </trkpt>
      <trkpt lat="43.55172" lon="2.78935">
        <ele>969.8</ele>
        <time>2026-05-22T06:08:34Z</time>
      </trkpt>
      <trkpt lat="43.55172" lon="2.78935">
        <ele>969.8</ele>
        <time>2026-05-22T06:08:39Z</time>
      </trkpt>
      <trkpt lat="43.55172" lon="2.78935">
        <ele>969.8</ele>
        <time>2026-05-22T06:08:44Z</time>
      </trkpt>
      <trkpt lat="43.55172" lon="2.78935">
        <ele>969.8</ele>
        <time>2026-05-22T06:08:49Z</time>
      </trkpt>
      <trkpt lat="43.55172" lon="2.78935">
        <ele>969.8</ele>
        <time>2026-05-22T06:08:54Z</time>
      </trkpt>
      <trkpt lat="43.55172" lon="2.78935">
        <ele>969.8</ele>
        <time>2026-05-22T06:08:59Z</time>
      </trkpt>
      <trkpt lat="43.55172" lon="2.78935">
        <ele>969.8</ele>
        <time>2026-05-22T06:09:04Z</time>
      </trkpt>
      <trkpt lat="43.55172" lon="2.78935">
        <ele>969.8</ele>
        <time>2026-05-22T06:09:09Z</time>
      </trkpt>
      <trkpt lat="43.55172" lon="2.78935">
        <ele>969.8</ele>
        <time>2026-05-22T06:09:14Z</time>
      </trkpt>
      <trkpt lat="43.55172" lon="2.78935">
        <ele>969.8</ele>
        <time>2026-05-22T06:09:19Z</time>
      </trkpt>
      <trkpt lat="43.55172" lon="2.78935">
        <ele>969.8</ele>
        <time>2026-05-22T06:09:24Z</time>
      </trkpt>
      <trkpt lat="43.55172" lon="2.78935">
        <ele>969.8</ele>
        <time>2026-05-22T06:09:29Z</time>
      </trkpt>
      <trkpt lat="43.55172" lon="2.78935">
        <ele>969.8</ele>
        <time>2026-05-22T06:09:34Z</time>
      </trkpt>
      <trkpt lat="43.55172" lon="2.78935">
        <ele>969.8</ele>
        <time>2026-05-22T06:09:39Z</time>
      </trkpt>
      <trkpt lat="43.55172" lon="2.78935">
        <ele>969.8</ele>
        <time>2026-05-22T06:09:44Z</time>
      </trkpt>
      <trkpt lat="43.55172" lon="2.78935">
        <ele>969.8</ele>
        <time>2026-05-22T06:09:49Z</time>
      </trkpt>
      <trkpt lat="43.55172" lon="2.78935">
        <ele>969.8</ele>
        <time>2026-05-22T06:09:54Z</time>
      </trkpt>
      <trkpt lat="43.55172" lon="2.78935">
        <ele>969.8</ele>
        <time>2026-05-22T06:09:59Z</time>
      </trkpt>
      <trkpt lat="43.55172" lon="2.78935">
        <ele>969.8</ele>
        <time>2026-05-22T06:10:04Z</time>
      </trkpt>
      <trkpt lat="43.55172" lon="2.78935">
        <ele>969.8</ele>
        <time>2026-05-22T06:10:09Z</time>
      </trkpt>
      <trkpt lat="43.55172" lon="2.78935">
        <ele>969.8</ele>
        <time>2026-05-22T06:10:14Z</time>
      </trkpt>
      <trkpt lat="43.55172" lon="2.78935">
        <ele>969.8</ele>
        <time>2026-05-22T06:10:19Z</time>
      </trkpt>
      <trkpt lat="43.55172" lon="2.78935">
        <ele>969.8</ele>
        <time>2026-05-22T06:10:24Z</time>
      </trkpt>
      <trkpt lat="43.55172" lon="2.78935">
        <ele>969.8</ele>
        <time>2026-05-22T06:10:29Z</time>
      </trkpt>
      <trkpt lat="43.55172" lon="2.78935">
        <ele>969.8</ele>
        <time>2026-05-22T06:10:34Z</time>
      </trkpt>
      <trkpt lat="43.55172" lon="2.78935">
        <ele>969.8</ele>
        <time>2026-05-22T06:10:39Z</time>
      </trkpt>
      <trkpt lat="43.55172" lon="2.78935">
        <ele>969.8</ele>
        <time>2026-05-22T06:10:44Z</time>
      </trkpt>
      <trkpt lat="43.55172" lon="2.78935">
        <ele>969.8</ele>
        <time>2026-05-22T06:10:49Z</time>
      </trkpt>
      <trkpt lat="43.55172" lon="2.78935">
        <ele>969.8</ele>
        <time>2026-05-22T06:10:54Z</time>
      </trkpt>
      <trkpt lat="43.55172" lon="2.78935">
        <ele>969.8</ele>
        <time>2026-05-22T06:10:59Z</time>
      </trkpt>
      <trkpt lat="43.55172" lon="2.78935">
        <ele>969.8</ele>
        <time>2026-05-22T06:11:04Z</time>
      </trkpt>
      <trkpt lat="43.55172" lon="2.78935">
        <ele>969.8</ele>
        <time>2026-05-22T06:11:09Z</time>
      </trkpt>
      <trkpt lat="43.55172" lon="2.78935">
        <ele>969.8</ele>
        <time>2026-05-22T06:11:14Z</time>
      </trkpt>
      <trkpt lat="43.55172" lon="2.78935">
        <ele>969.8</ele>
        <time>2026-05-22T06:11:19Z</time>
      </trkpt>
      <trkpt lat="43.55172" lon="2.78935">
        <ele>969.8</ele>
        <time>2026-05-22T06:11:24Z</time>
      </trkpt>
      <trkpt lat="43.55172" lon="2.78935">
        <ele>969.8</ele>
        <time>2026-05-22T06:11:29Z</time>
      </trkpt>
      <trkpt lat="43.55172" lon="2.78935">
        <ele>969.8</ele>
        <time>2026-05-22T06:11:34Z</time>
      </trkpt>
      <trkpt lat="43.55172" lon="2.78935">
        <ele>969.8</ele>
        <time>2026-05-22T06:11:39Z</time>
      </trkpt>
      <trkpt lat="43.55172" lon="2.78935">
        <ele>969.8</ele>
        <time>2026-05-22T06:11:44Z</time>
      </trkpt>
      <trkpt lat="43.55172" lon="2.78935">
        <ele>969.8</ele>
        <time>2026-05-22T06:11:49Z</time>
      </trkpt>
      <trkpt lat="43.55172" lon="2.78935">
        <ele>969.8</ele>
        <time>2026-05-22T06:11:54Z</time>
      </trkpt>
      <trkpt lat="43.55172" lon="2.78935">
        <ele>969.8</ele>
        <time>2026-05-22T06:11:59Z</time>
      </trkpt>
      <trkpt lat="43.55172" lon="2.78935">
        <ele>969.8</ele>
        <time>2026-05-22T06:12:04Z</time>
      </trkpt>
      <trkpt lat="43.55172" lon="2.78935">
        <ele>969.8</ele>
        <time>2026-05-22T06:12:09Z</time>
      </trkpt>
      <trkpt lat="43.55172" lon="2.78935">
        <ele>969.8</ele>
        <time>2026-05-22T06:12:14Z</time>
      </trkpt>
      <trkpt lat="43.55172" lon="2.78935">
        <ele>969.8</ele>
        <time>2026-05-22T06:12:19Z</time>
      </trkpt>
      <trkpt lat="43.55172" lon="2.78935">
        <ele>969.8</ele>
        <time>2026-05-22T06:12:24Z</time>
      </trkpt>
      <trkpt lat="43.55172" lon="2.78935">
        <ele>969.8</ele>
        <time>2026-05-22T06:12:29Z</time>
      </trkpt>
      <trkpt lat="43.55172" lon="2.78935">
        <ele>969.8</ele>
        <time>2026-05-22T06:12:34Z</time>
      </trkpt>
      <trkpt lat="43.55172" lon="2.78935">
        <ele>969.8</ele>
        <time>2026-05-22T06:12:39Z</time>
      </trkpt>
      <trkpt lat="43.55172" lon="2.78935">
        <ele>969.8</ele>
        <time>2026-05-22T06:12:44Z</time>
      </trkpt>
      <trkpt lat="43.55172" lon="2.78935">
        <ele>969.8</ele>
        <time>2026-05-22T06:12:49Z</time>
      </trkpt>
      <trkpt lat="43.55172" lon="2.78935">
        <ele>969.8</ele>
        <time>2026-05-22T06:12:54Z</time>
      </trkpt>
      <trkpt lat="43.55172" lon="2.78935">
        <ele>969.8</ele>
        <time>2026-05-22T06:12:59Z</time>
      </trkpt>
      <trkpt lat="43.55172" lon="2.78935">
        <ele>969.8</ele>
        <time>2026-05-22T06:13:04Z</time>
      </trkpt>
      <trkpt lat="43.55172" lon="2.78935">
        <ele>969.8</ele>
        <time>2026-05-22T06:13:09Z</time>
      </trkpt>
      <trkpt lat="43.55172" lon="2.78935">
        <ele>969.8</ele>
        <time>2026-05-22T06:13:14Z</time>
      </trkpt>
      <trkpt lat="43.55172" lon="2.78935">
        <ele>969.8</ele>
        <time>2026-05-22T06:13:19Z</time>
      </trkpt>
      <trkpt lat="43.55172" lon="2.78935">
        <ele>969.8</ele>
        <time>2026-05-22T06:13:24Z</time>
      </trkpt>
      <trkpt lat="43.55172" lon="2.78935">
        <ele>969.8</ele>
        <time>2026-05-22T06:13:29Z</time>
      </trkpt>
      <trkpt lat="43.55172" lon="2.78935">
        <ele>969.8</ele>
        <time>2026-05-22T06:13:34Z</time>
      </trkpt>
      <trkpt lat="43.55172" lon="2.78935">
        <ele>969.8</ele>
        <time>2026-05-22T06:13:39Z</time>
      </trkpt>
      <trkpt lat="43.55172" lon="2.78935">
        <ele>969.8</ele>
        <time>2026-05-22T06:13:44Z</time>
      </trkpt>
      <trkpt lat="43.55172" lon="2.78935">
        <ele>969.8</ele>
        <time>2026-05-22T06:13:49Z</time>
      </trkpt>
      <trkpt lat="43.55172" lon="2.78935">
        <ele>969.8</ele>
        <time>2026-05-22T06:13:54Z</time>
      </trkpt>
      <trkpt lat="43.55172" lon="2.78935">
        <ele>969.8</ele>
        <time>2026-05-22T06:13:59Z</time>
      </trkpt>
      <trkpt lat="43.55172" lon="2.78935">
        <ele>969.8</ele>
        <time>2026-05-22T06:14:04Z</time>
      </trkpt>
      <trkpt lat="43.55172" lon="2.78935">
        <ele>969.8</ele>
        <time>2026-05-22T06:14:09Z</time>
      </trkpt>
      <trkpt lat="43.55172" lon="2.78935">
        <ele>969.8</ele>
        <time>2026-05-22T06:14:14Z</time>
      </trkpt>
      <trkpt lat="43.55172" lon="2.78935">
        <ele>969.8</ele>
        <time>2026-05-22T06:14:19Z</time>
      </trkpt>
      <trkpt lat="43.55172" lon="2.78935">
        <ele>969.8</ele>
        <time>2026-05-22T06:14:24Z</time>
      </trkpt>
      <trkpt lat="43.55172" lon="2.78935">
        <ele>969.8</ele>
        <time>2026-05-22T06:14:29Z</time>
      </trkpt>
      <trkpt lat="43.55172" lon="2.78935">
        <ele>969.8</ele>
        <time>2026-05-22T06:14:34Z</time>
      </trkpt>
      <trkpt lat="43.55172" lon="2.78935">
        <ele>969.8</ele>
        <time>2026-05-22T06:14:39Z</time>
      </trkpt>
      <trkpt lat="43.55172" lon="2.78935">
        <ele>969.8</ele>
        <time>2026-05-22T06:14:44Z</time>
      </trkpt>
      <trkpt lat="43.55172" lon="2.78935">
        <ele>969.8</ele>
        <time>2026-05-22T06:14:49Z</time>
      </trkpt>
      <trkpt lat="43.55172" lon="2.78935">
        <ele>969.8</ele>
        <time>2026-05-22T06:14:54Z</time>
      </trkpt>
      <trkpt lat="43.55172" lon="2.78935">
        <ele>969.8</ele>
        <time>2026-05-22T06:14:59Z</time>
      </trkpt>
      <trkpt lat="43.55172" lon="2.78935">
        <ele>969.8</ele>
        <time>2026-05-22T06:15:04Z</time>
      </trkpt>
      <trkpt lat="43.55172" lon="2.78935">
        <ele>969.8</ele>
        <time>2026-05-22T06:15:09Z</time>
      </trkpt>
      <trkpt lat="43.55172" lon="2.78935">
        <ele>969.8</ele>
        <time>2026-05-22T06:15:14Z</time>
      </trkpt>
      <trkpt lat="43.55172" lon="2.78935">
        <ele>969.8</ele>
        <time>2026-05-22T06:15:19Z</time>
      </trkpt>
      <trkpt lat="43.55172" lon="2.78935">
        <ele>969.8</ele>
        <time>2026-05-22T06:15:24Z</time>
      </trkpt>
      <trkpt lat="43.55172" lon="2.78935">
        <ele>969.8</ele>
        <time>2026-05-22T06:15:29Z</time>
      </trkpt>
      <trkpt lat="43.55172" lon="2.78935">
        <ele>969.8</ele>
        <time>2026-05-22T06:15:34Z</time>
      </trkpt>
      <trkpt lat="43.55172" lon="2.78935">
        <ele>969.8</ele>
        <time>2026-05-22T06:15:39Z</time>
      </trkpt>
      <trkpt lat="43.55172" lon="2.78935">
        <ele>969.8</ele>
        <time>2026-05-22T06:15:44Z</time>
      </trkpt>
      <trkpt lat="43.55172" lon="2.78935">
        <ele>969.8</ele>
        <time>2026-05-22T06:15:49Z</time>
      </trkpt>
      <trkpt lat="43.55172" lon="2.78935">
        <ele>969.8</ele>
        <time>2026-05-22T06:15:54Z</time>
      </trkpt>
      <trkpt lat="43.55172" lon="2.78935">
        <ele>969.8</ele>
        <time>2026-05-22T06:15:59Z</time>
      </trkpt>
      <trkpt lat="43.55172" lon="2.78935">
        <ele>969.8</ele>
        <time>2026-05-22T06:16:04Z</time>
      </trkpt>
      <trkpt lat="43.55172" lon="2.78935">
        <ele>969.8</ele>
        <time>2026-05-22T06:16:09Z</time>
      </trkpt>
      <trkpt lat="43.55172" lon="2.78935">
        <ele>969.8</ele>
        <time>2026-05-22T06:16:14Z</time>
      </trkpt>
      <trkpt lat="43.55172" lon="2.78935">
        <ele>969.8</ele>
        <time>2026-05-22T06:16:19Z</time>
      </trkpt>
      <trkpt lat="43.55172" lon="2.78935">
        <ele>969.8</ele>
        <time>2026-05-22T06:16:24Z</time>
      </trkpt>
      <trkpt lat="43.55172" lon="2.78935">
        <ele>969.8</ele>
        <time>2026-05-22T06:16:29Z</time>
      </trkpt>
      <trkpt lat="43.55172" lon="2.78935">
        <ele>969.8</ele>
        <time>2026-05-22T06:16:34Z</time>
      </trkpt>
      <trkpt lat="43.55172" lon="2.78935">
        <ele>969.8</ele>
        <time>2026-05-22T06:16:39Z</time>
      </trkpt>
      <trkpt lat="43.55172" lon="2.78935">
        <ele>969.8</ele>
        <time>2026-05-22T06:16:44Z</time>
      </trkpt>
      <trkpt lat="43.55172" lon="2.78935">
        <ele>969.8</ele>
        <time>2026-05-22T06:16:49Z</time>
      </trkpt>
      <trkpt lat="43.55172" lon="2.78935">
        <ele>969.8</ele>
        <time>2026-05-22T06:16:54Z</time>
      </trkpt>
      <trkpt lat="43.55172" lon="2.78935">
        <ele>969.8</ele>
        <time>2026-05-22T06:16:59Z</time>
      </trkpt>
      <trkpt lat="43.55172" lon="2.78935">
        <ele>969.8</ele>
        <time>2026-05-22T06:17:04Z</time>
      </trkpt>
      <trkpt lat="43.55172" lon="2.78935">
        <ele>969.8</ele>
        <time>2026-05-22T06:17:09Z</time>
      </trkpt>
      <trkpt lat="43.55172" lon="2.78935">
        <ele>969.8</ele>
        <time>2026-05-22T06:17:14Z</time>
      </trkpt>
      <trkpt lat="43.55172" lon="2.78935">
        <ele>969.8</ele>
        <time>2026-05-22T06:17:19Z</time>
      </trkpt>
      <trkpt lat="43.55172" lon="2.78935">
        <ele>969.8</ele>
        <time>2026-05-22T06:17:24Z</time>
      </trkpt>
      <trkpt lat="43.55172" lon="2.78935">
        <ele>969.8</ele>
        <time>2026-05-22T06:17:29Z</time>
      </trkpt>
      <trkpt lat="43.55172" lon="2.78935">
        <ele>969.8</ele>
        <time>2026-05-22T06:17:34Z</time>
      </trkpt>
      <trkpt lat="43.55172" lon="2.78935">
        <ele>969.8</ele>
        <time>2026-05-22T06:17:39Z</time>
      </trkpt>
      <trkpt lat="43.55172" lon="2.78935">
        <ele>969.8</ele>
        <time>2026-05-22T06:17:44Z</time>
      </trkpt>
      <trkpt lat="43.55172" lon="2.78935">
        <ele>969.8</ele>
        <time>2026-05-22T06:17:49Z</time>
      </trkpt>
      <trkpt lat="43.55172" lon="2.78935">
        <ele>969.8</ele>
        <time>2026-05-22T06:17:54Z</time>
      </trkpt>
      <trkpt lat="43.55172" lon="2.78935">
        <ele>969.8</ele>
        <time>2026-05-22T06:17:59Z</time>
      </trkpt>
      <trkpt lat="43.55172" lon="2.78935">
        <ele>969.8</ele>
        <time>2026-05-22T06:18:04Z</time>
      </trkpt>
      <trkpt lat="43.55172" lon="2.78935">
        <ele>969.8</ele>
        <time>2026-05-22T06:18:09Z</time>
      </trkpt>
      <trkpt lat="43.55172" lon="2.78935">
        <ele>969.8</ele>
        <time>2026-05-22T06:18:14Z</time>
      </trkpt>
      <trkpt lat="43.55172" lon="2.78935">
        <ele>969.8</ele>
        <time>2026-05-22T06:18:19Z</time>
      </trkpt>
      <trkpt lat="43.55172" lon="2.78935">
        <ele>969.8</ele>
        <time>2026-05-22T06:18:24Z</time>
      </trkpt>
      <trkpt lat="43.55172" lon="2.78935">
        <ele>969.8</ele>
        <time>2026-05-22T06:18:29Z</time>
      </trkpt>
      <trkpt lat="43.55172" lon="2.78935">
        <ele>969.8</ele>
        <time>2026-05-22T06:18:34Z</time>
      </trkpt>
      <trkpt lat="43.55172" lon="2.78935">
        <ele>969.8</ele>
        <time>2026-05-22T06:18:39Z</time>
      </trkpt>
      <trkpt lat="43.55172" lon="2.78935">
        <ele>969.8</ele>
        <time>2026-05-22T06:18:44Z</time>
      </trkpt>
      <trkpt lat="43.55172" lon="2.78935">
        <ele>969.8</ele>
        <time>2026-05-22T06:18:49Z</time>
      </trkpt>
      <trkpt lat="43.55172" lon="2.78935">
        <ele>969.8</ele>
        <time>2026-05-22T06:18:54Z</time>
      </trkpt>
      <trkpt lat="43.55172" lon="2.78935">
        <ele>969.8</ele>
        <time>2026-05-22T06:18:59Z</time>
      </trkpt>
      <trkpt lat="43.55172" lon="2.78935">
        <ele>969.8</ele>
        <time>2026-05-22T06:19:04Z</time>
      </trkpt>
      <trkpt lat="43.55172" lon="2.78935">
        <ele>969.8</ele>
        <time>2026-05-22T06:19:09Z</time>
      </trkpt>
      <trkpt lat="43.55172" lon="2.78935">
        <ele>969.8</ele>
        <time>2026-05-22T06:19:14Z</time>
      </trkpt>
      <trkpt lat="43.55172" lon="2.78935">
        <ele>969.8</ele>
        <time>2026-05-22T06:19:19Z</time>
      </trkpt>
      <trkpt lat="43.55172" lon="2.78935">
        <ele>969.8</ele>
        <time>2026-05-22T06:19:24Z</time>
      </trkpt>
      <trkpt lat="43.55172" lon="2.78935">
        <ele>969.8</ele>
        <time>2026-05-22T06:19:29Z</time>
      </trkpt>
      <trkpt lat="43.55172" lon="2.78935">
        <ele>969.8</ele>
        <time>2026-05-22T06:19:34Z</time>
      </trkpt>
      <trkpt lat="43.55172" lon="2.78935">
        <ele>969.8</ele>
        <time>2026-05-22T06:19:39Z</time>
      </trkpt>
      <trkpt lat="43.55172" lon="2.78935">
        <ele>969.8</ele>
        <time>2026-05-22T06:19:44Z</time>
      </trkpt>
      <trkpt lat="43.55172" lon="2.78935">
        <ele>969.8</ele>
        <time>2026-05-22T06:19:49Z</time>
      </trkpt>
      <trkpt lat="43.55172" lon="2.78935">
        <ele>969.8</ele>
        <time>2026-05-22T06:19:54Z</time>
      </trkpt>
      <trkpt lat="43.55172" lon="2.78935">
        <ele>969.8</ele>
        <time>2026-05-22T06:19:59Z</time>
      </trkpt>
      <trkpt lat="43.55172" lon="2.78935">
        <ele>969.8</ele>
        <time>2026-05-22T06:20:04Z</time>
      </trkpt>
      <trkpt lat="43.55172" lon="2.78935">
        <ele>969.8</ele>
        <time>2026-05-22T06:20:09Z</time>
      </trkpt>
      <trkpt lat="43.55172" lon="2.78935">
        <ele>969.8</ele>
        <time>2026-05-22T06:20:14Z</time>
      </trkpt>
      <trkpt lat="43.55172" lon="2.78935">
        <ele>969.8</ele>
        <time>2026-05-22T06:20:19Z</time>
      </trkpt>
      <trkpt lat="43.55172" lon="2.78935">
        <ele>969.8</ele>
        <time>2026-05-22T06:20:24Z</time>
      </trkpt>
      <trkpt lat="43.55172" lon="2.78935">
        <ele>969.8</ele>
        <time>2026-05-22T06:20:29Z</time>
      </trkpt>
      <trkpt lat="43.55172" lon="2.78935">
        <ele>969.8</ele>
        <time>2026-05-22T06:20:34Z</time>
      </trkpt>
      <trkpt lat="43.55172" lon="2.78935">
        <ele>969.8</ele>
        <time>2026-05-22T06:20:39Z</time>
      </trkpt>
      <trkpt lat="43.55172" lon="2.78935">
        <ele>969.8</ele>
        <time>2026-05-22T06:20:44Z</time>
      </trkpt>
      <trkpt lat="43.55172" lon="2.78935">
        <ele>969.8</ele>
        <time>2026-05-22T06:20:49Z</time>
      </trkpt>
      <trkpt lat="43.55172" lon="2.78935">
        <ele>969.8</ele>
        <time>2026-05-22T06:20:54Z</time>
      </trkpt>
      <trkpt lat="43.55172" lon="2.78935">
        <ele>969.8</ele>
        <time>2026-05-22T06:20:59Z</time>
      </trkpt>
      <trkpt lat="43.55172" lon="2.78935">
        <ele>969.8</ele>
        <time>2026-05-22T06:21:04Z</time>
      </trkpt>
      <trkpt lat="43.55172" lon="2.78935">
        <ele>969.8</ele>
        <time>2026-05-22T06:21:09Z</time>
      </trkpt>
      <trkpt lat="43.55172" lon="2.78935">
        <ele>969.8</ele>
        <time>2026-05-22T06:21:14Z</time>
      </trkpt>
      <trkpt lat="43.55172" lon="2.78935">
        <ele>969.8</ele>
        <time>2026-05-22T06:21:19Z</time>
      </trkpt>
      <trkpt lat="43.55172" lon="2.78935">
        <ele>969.8</ele>
        <time>2026-05-22T06:21:24Z</time>
      </trkpt>
      <trkpt lat="43.55172" lon="2.78935">
        <ele>969.8</ele>
        <time>2026-05-22T06:21:29Z</time>
      </trkpt>
      <trkpt lat="43.55172" lon="2.78935">
        <ele>969.8</ele>
        <time>2026-05-22T06:21:34Z</time>
      </trkpt>
      <trkpt lat="43.55172" lon="2.78935">
        <ele>969.8</ele>
        <time>2026-05-22T06:21:39Z</time>
      </trkpt>
      <trkpt lat="43.55172" lon="2.78935">
        <ele>969.8</ele>
        <time>2026-05-22T06:21:44Z</time>
      </trkpt>
      <trkpt lat="43.55172" lon="2.78935">
        <ele>969.8</ele>
        <time>2026-05-22T06:21:49Z</time>
      </trkpt>
      <trkpt lat="43.55172" lon="2.78935">
        <ele>969.8</ele>
        <time>2026-05-22T06:21:54Z</time>
      </trkpt>
      <trkpt lat="43.55172" lon="2.78935">
        <ele>969.8</ele>
        <time>2026-05-22T06:21:59Z</time>
      </trkpt>
      <trkpt lat="43.55172" lon="2.78935">
        <ele>969.8</ele>
        <time>2026-05-22T06:22:04Z</time>
      </trkpt>
      <trkpt lat="43.55172" lon="2.78935">
        <ele>969.8</ele>
        <time>2026-05-22T06:22:09Z</time>
      </trkpt>
      <trkpt lat="43.55172" lon="2.78935">
        <ele>969.8</ele>
        <time>2026-05-22T06:22:14Z</time>
      </trkpt>
      <trkpt lat="43.55172" lon="2.78935">
        <ele>969.8</ele>
        <time>2026-05-22T06:22:19Z</time>
      </trkpt>
      <trkpt lat="43.55172" lon="2.78935">
        <ele>969.8</ele>
        <time>2026-05-22T06:22:24Z</time>
      </trkpt>
      <trkpt lat="43.55172" lon="2.78935">
        <ele>969.8</ele>
        <time>2026-05-22T06:22:29Z</time>
      </trkpt>
      <trkpt lat="43.55172" lon="2.78935">
        <ele>969.8</ele>
        <time>2026-05-22T06:22:34Z</time>
      </trkpt>
      <trkpt lat="43.55172" lon="2.78935">
        <ele>969.8</ele>
        <time>2026-05-22T06:22:39Z</time>
      </trkpt>
      <trkpt lat="43.55172" lon="2.78935">
        <ele>969.8</ele>
        <time>2026-05-22T06:22:44Z</time>
      </trkpt>
      <trkpt lat="43.55172" lon="2.78935">
        <ele>969.8</ele>
        <time>2026-05-22T06:22:49Z</time>
      </trkpt>
      <trkpt lat="43.55172" lon="2.78935">
        <ele>969.8</ele>
        <time>2026-05-22T06:22:54Z</time>
      </trkpt>
      <trkpt lat="43.55172" lon="2.78935">
        <ele>969.8</ele>
        <time>2026-05-22T06:22:59Z</time>
      </trkpt>
      <trkpt lat="43.55172" lon="2.78935">
        <ele>969.8</ele>
        <time>2026-05-22T06:23:04Z</time>
      </trkpt>
      <trkpt lat="43.55172" lon="2.78935">
        <ele>969.8</ele>
        <time>2026-05-22T06:23:09Z</time>
      </trkpt>
      <trkpt lat="43.55172" lon="2.78935">
        <ele>969.8</ele>
        <time>2026-05-22T06:23:14Z</time>
      </trkpt>
      <trkpt lat="43.55172" lon="2.78935">
        <ele>969.8</ele>
        <time>2026-05-22T06:23:19Z</time>
      </trkpt>
      <trkpt lat="43.55172" lon="2.78935">
        <ele>969.8</ele>
        <time>2026-05-22T06:23:24Z</time>
      </trkpt>
      <trkpt lat="43.55172" lon="2.78935">
        <ele>969.8</ele>
        <time>2026-05-22T06:23:29Z</time>
      </trkpt>
      <trkpt lat="43.55172" lon="2.78935">
        <ele>969.8</ele>
        <time>2026-05-22T06:23:34Z</time>
      </trkpt>
      <trkpt lat="43.55172" lon="2.78935">
        <ele>969.8</ele>
        <time>2026-05-22T06:23:39Z</time>
      </trkpt>
      <trkpt lat="43.55172" lon="2.78935">
        <ele>969.8</ele>
        <time>2026-05-22T06:23:44Z</time>
      </trkpt>
      <trkpt lat="43.55172" lon="2.78935">
        <ele>969.8</ele>
        <time>2026-05-22T06:23:49Z</time>
      </trkpt>
      <trkpt lat="43.55172" lon="2.78935">
        <ele>969.8</ele>
        <time>2026-05-22T06:23:54Z</time>
      </trkpt>
      <trkpt lat="43.55172" lon="2.78935">
        <ele>969.8</ele>
        <time>2026-05-22T06:23:59Z</time>
      </trkpt>
      <trkpt lat="43.55172" lon="2.78935">
        <ele>969.8</ele>
        <time>2026-05-22T06:24:04Z</time>
      </trkpt>
      <trkpt lat="43.55172" lon="2.78935">
        <ele>969.8</ele>
        <time>2026-05-22T06:24:09Z</time>
      </trkpt>
      <trkpt lat="43.55172" lon="2.78935">
        <ele>969.8</ele>
        <time>2026-05-22T06:24:14Z</time>
      </trkpt>
      <trkpt lat="43.55172" lon="2.78935">
        <ele>969.8</ele>
        <time>2026-05-22T06:24:19Z</time>
      </trkpt>
      <trkpt lat="43.55172" lon="2.78935">
        <ele>969.8</ele>
        <time>2026-05-22T06:24:24Z</time>
      </trkpt>
      <trkpt lat="43.55172" lon="2.78935">
        <ele>969.8</ele>
        <time>2026-05-22T06:24:29Z</time>
      </trkpt>
      <trkpt lat="43.55172" lon="2.78935">
        <ele>969.8</ele>
        <time>2026-05-22T06:24:34Z</time>
      </trkpt>
      <trkpt lat="43.55172" lon="2.78935">
        <ele>969.8</ele>
        <time>2026-05-22T06:24:39Z</time>
      </trkpt>
      <trkpt lat="43.55172" lon="2.78935">
        <ele>969.8</ele>
        <time>2026-05-22T06:24:44Z</time>
      </trkpt>
      <trkpt lat="43.55172" lon="2.78935">
        <ele>969.8</ele>
        <time>2026-05-22T06:24:49Z</time>
      </trkpt>
      <trkpt lat="43.55172" lon="2.78935">
        <ele>969.8</ele>
        <time>2026-05-22T06:24:54Z</time>
      </trkpt>
      <trkpt lat="43.55172" lon="2.78935">
        <ele>969.8</ele>
        <time>2026-05-22T06:24:59Z</time>
      </trkpt>
      <trkpt lat="43.55172" lon="2.78935">
        <ele>969.8</ele>
        <time>2026-05-22T06:25:04Z</time>
      </trkpt>
      <trkpt lat="43.55172" lon="2.78935">
        <ele>969.8</ele>
        <time>2026-05-22T06:25:09Z</time>
      </trkpt>
      <trkpt lat="43.55172" lon="2.78935">
        <ele>969.8</ele>
        <time>2026-05-22T06:25:14Z</time>
      </trkpt>
      <trkpt lat="43.55172" lon="2.78935">
        <ele>969.8</ele>
        <time>2026-05-22T06:25:19Z</time>
      </trkpt>
      <trkpt lat="43.55172" lon="2.78935">
        <ele>969.8</ele>
        <time>2026-05-22T06:25:24Z</time>
      </trkpt>
      <trkpt lat="43.55172" lon="2.78935">
        <ele>969.8</ele>
        <time>2026-05-22T06:25:29Z</time>
      </trkpt>
      <trkpt lat="43.55172" lon="2.78935">
        <ele>969.8</ele>
        <time>2026-05-22T06:25:34Z</time>
      </trkpt>
      <trkpt lat="43.55172" lon="2.78935">
        <ele>969.8</ele>
        <time>2026-05-22T06:25:39Z</time>
      </trkpt>
      <trkpt lat="43.55172" lon="2.78935">
        <ele>969.8</ele>
        <time>2026-05-22T06:25:44Z</time>
      </trkpt>
      <trkpt lat="43.55172" lon="2.78935">
        <ele>969.8</ele>
        <time>2026-05-22T06:25:49Z</time>
      </trkpt>
      <trkpt lat="43.55172" lon="2.78935">
        <ele>969.8</ele>
        <time>2026-05-22T06:25:54Z</time>
      </trkpt>
      <trkpt lat="43.55172" lon="2.78935">
        <ele>969.8</ele>
        <time>2026-05-22T06:25:59Z</time>
      </trkpt>
      <trkpt lat="43.55172" lon="2.78935">
        <ele>969.8</ele>
        <time>2026-05-22T06:26:04Z</time>
      </trkpt>
      <trkpt lat="43.55172" lon="2.78935">
        <ele>969.8</ele>
        <time>2026-05-22T06:26:09Z</time>
      </trkpt>
      <trkpt lat="43.55172" lon="2.78935">
        <ele>969.8</ele>
        <time>2026-05-22T06:26:14Z</time>
      </trkpt>
      <trkpt lat="43.55172" lon="2.78935">
        <ele>969.8</ele>
        <time>2026-05-22T06:26:19Z</time>
      </trkpt>
      <trkpt lat="43.55172" lon="2.78935">
        <ele>969.8</ele>
        <time>2026-05-22T06:26:24Z</time>
      </trkpt>
      <trkpt lat="43.55172" lon="2.78935">
        <ele>969.8</ele>
        <time>2026-05-22T06:26:29Z</time>
      </trkpt>
      <trkpt lat="43.55172" lon="2.78935">
        <ele>969.8</ele>
        <time>2026-05-22T06:26:34Z</time>
      </trkpt>
      <trkpt lat="43.55172" lon="2.78935">
        <ele>969.8</ele>
        <time>2026-05-22T06:26:39Z</time>
      </trkpt>
      <trkpt lat="43.55172" lon="2.78935">
        <ele>969.8</ele>
        <time>2026-05-22T06:26:44Z</time>
      </trkpt>
      <trkpt lat="43.55172" lon="2.78935">
        <ele>969.8</ele>
        <time>2026-05-22T06:26:49Z</time>
      </trkpt>
      <trkpt lat="43.55172" lon="2.78935">
        <ele>969.8</ele>
        <time>2026-05-22T06:26:54Z</time>
      </trkpt>
      <trkpt lat="43.55172" lon="2.78935">
        <ele>969.8</ele>
        <time>2026-05-22T06:26:59Z</time>
      </trkpt>
      <trkpt lat="43.55172" lon="2.78935">
        <ele>969.8</ele>
        <time>2026-05-22T06:27:04Z</time>
      </trkpt>
      <trkpt lat="43.55172" lon="2.78935">
        <ele>969.8</ele>
        <time>2026-05-22T06:27:09Z</time>
      </trkpt>
      <trkpt lat="43.55172" lon="2.78935">
        <ele>969.8</ele>
        <time>2026-05-22T06:27:14Z</time>
      </trkpt>
      <trkpt lat="43.55172" lon="2.78935">
        <ele>969.8</ele>
        <time>2026-05-22T06:27:19Z</time>
      </trkpt>
      <trkpt lat="43.55172" lon="2.78935">
        <ele>969.8</ele>
        <time>2026-05-22T06:27:24Z</time>
      </trkpt>
      <trkpt lat="43.55172" lon="2.78935">
        <ele>969.8</ele>
        <time>2026-05-22T06:27:29Z</time>
      </trkpt>
      <trkpt lat="43.55172" lon="2.78935">
        <ele>969.8</ele>
        <time>2026-05-22T06:27:34Z</time>
      </trkpt>
      <trkpt lat="43.55172" lon="2.78935">
        <ele>969.8</ele>
        <time>2026-05-22T06:27:39Z</time>
      </trkpt>
      <trkpt lat="43.55172" lon="2.78935">
        <ele>969.8</ele>
        <time>2026-05-22T06:27:44Z</time>
      </trkpt>
      <trkpt lat="43.55172" lon="2.78935">
        <ele>969.8</ele>
        <time>2026-05-22T06:27:49Z</time>
      </trkpt>
      <trkpt lat="43.55172" lon="2.78935">
        <ele>969.8</ele>
        <time>2026-05-22T06:27:54Z</time>
      </trkpt>
      <trkpt lat="43.55172" lon="2.78935">
        <ele>969.8</ele>
        <time>2026-05-22T06:27:59Z</time>
      </trkpt>
      <trkpt lat="43.55172" lon="2.78935">
        <ele>969.8</ele>
        <time>2026-05-22T06:28:04Z</time>
      </trkpt>
      <trkpt lat="43.55172" lon="2.78935">
        <ele>969.8</ele>
        <time>2026-05-22T06:28:09Z</time>
      </trkpt>
      <trkpt lat="43.55172" lon="2.78935">
        <ele>969.8</ele>
        <time>2026-05-22T06:28:14Z</time>
      </trkpt>
      <trkpt lat="43.55172" lon="2.78935">
        <ele>969.8</ele>
        <time>2026-05-22T06:28:19Z</time>
      </trkpt>
      <trkpt lat="43.55172" lon="2.78935">
        <ele>969.8</ele>
        <time>2026-05-22T06:28:24Z</time>
      </trkpt>
      <trkpt lat="43.55172" lon="2.78935">
        <ele>969.8</ele>
        <time>2026-05-22T06:28:29Z</time>
      </trkpt>
      <trkpt lat="43.55172" lon="2.78935">
        <ele>969.8</ele>
        <time>2026-05-22T06:28:34Z</time>
      </trkpt>
      <trkpt lat="43.55172" lon="2.78935">
        <ele>969.8</ele>
        <time>2026-05-22T06:28:39Z</time>
      </trkpt>
      <trkpt lat="43.55172" lon="2.78935">
        <ele>969.8</ele>
        <time>2026-05-22T06:28:44Z</time>
      </trkpt>
      <trkpt lat="43.55172" lon="2.78935">
        <ele>969.8</ele>
        <time>2026-05-22T06:28:49Z</time>
      </trkpt>
      <trkpt lat="43.55172" lon="2.78935">
        <ele>969.8</ele>
        <time>2026-05-22T06:28:54Z</time>
      </trkpt>
      <trkpt lat="43.55172" lon="2.78935">
        <ele>969.8</ele>
        <time>2026-05-22T06:28:59Z</time>
      </trkpt>
      <trkpt lat="43.55172" lon="2.78935">
        <ele>969.8</ele>
        <time>2026-05-22T06:29:04Z</time>
      </trkpt>
      <trkpt lat="43.55172" lon="2.78935">
        <ele>969.8</ele>
        <time>2026-05-22T06:29:09Z</time>
      </trkpt>
      <trkpt lat="43.55172" lon="2.78935">
        <ele>969.8</ele>
        <time>2026-05-22T06:29:14Z</time>
      </trkpt>
      <trkpt lat="43.55172" lon="2.78935">
        <ele>969.8</ele>
        <time>2026-05-22T06:29:19Z</time>
      </trkpt>
      <trkpt lat="43.55172" lon="2.78935">
        <ele>969.8</ele>
        <time>2026-05-22T06:29:24Z</time>
      </trkpt>
      <trkpt lat="43.55172" lon="2.78935">
        <ele>969.8</ele>
        <time>2026-05-22T06:29:29Z</time>
      </trkpt>
      <trkpt lat="43.55172" lon="2.78935">
        <ele>969.8</ele>
        <time>2026-05-22T06:29:34Z</time>
      </trkpt>
      <trkpt lat="43.55172" lon="2.78935">
        <ele>969.8</ele>
        <time>2026-05-22T06:29:39Z</time>
      </trkpt>
      <trkpt lat="43.55172" lon="2.78935">
        <ele>969.8</ele>
        <time>2026-05-22T06:29:44Z</time>
      </trkpt>
      <trkpt lat="43.55172" lon="2.78935">
        <ele>969.8</ele>
        <time>2026-05-22T06:29:49Z</time>
      </trkpt>
      <trkpt lat="43.55172" lon="2.78935">
        <ele>969.8</ele>
        <time>2026-05-22T06:29:54Z</time>
      </trkpt>
      <trkpt lat="43.55172" lon="2.78935">
        <ele>969.8</ele>
        <time>2026-05-22T06:29:59Z</time>
      </trkpt>
      <trkpt lat="43.55172" lon="2.78935">
        <ele>969.8</ele>
        <time>2026-05-22T06:30:04Z</time>
      </trkpt>
      <trkpt lat="43.55172" lon="2.78935">
        <ele>969.8</ele>
        <time>2026-05-22T06:30:09Z</time>
      </trkpt>
      <trkpt lat="43.55172" lon="2.78935">
        <ele>969.8</ele>
        <time>2026-05-22T06:30:14Z</time>
      </trkpt>
      <trkpt lat="43.55172" lon="2.78935">
        <ele>969.8</ele>
        <time>2026-05-22T06:30:19Z</time>
      </trkpt>
      <trkpt lat="43.55172" lon="2.78935">
        <ele>969.8</ele>
        <time>2026-05-22T06:30:24Z</time>
      </trkpt>
      <trkpt lat="43.55172" lon="2.78935">
        <ele>969.8</ele>
        <time>2026-05-22T06:30:29Z</time>
      </trkpt>
      <trkpt lat="43.55172" lon="2.78935">
        <ele>969.8</ele>
        <time>2026-05-22T06:30:34Z</time>
      </trkpt>
      <trkpt lat="43.55172" lon="2.78935">
        <ele>969.8</ele>
        <time>2026-05-22T06:30:39Z</time>
      </trkpt>
      <trkpt lat="43.55172" lon="2.78935">
        <ele>969.8</ele>
        <time>2026-05-22T06:30:44Z</time>
      </trkpt>
      <trkpt lat="43.55172" lon="2.78935">
        <ele>969.8</ele>
        <time>2026-05-22T06:30:49Z</time>
      </trkpt>
      <trkpt lat="43.55172" lon="2.78935">
        <ele>969.8</ele>
        <time>2026-05-22T06:30:54Z</time>
      </trkpt>
      <trkpt lat="43.55172" lon="2.78935">
        <ele>969.8</ele>
        <time>2026-05-22T06:30:59Z</time>
      </trkpt>
      <trkpt lat="43.55172" lon="2.78935">
        <ele>969.8</ele>
        <time>2026-05-22T06:31:04Z</time>
      </trkpt>
      <trkpt lat="43.55172" lon="2.78935">
        <ele>969.8</ele>
        <time>2026-05-22T06:31:09Z</time>
      </trkpt>
      <trkpt lat="43.55172" lon="2.78935">
        <ele>969.8</ele>
        <time>2026-05-22T06:31:14Z</time>
      </trkpt>
      <trkpt lat="43.55172" lon="2.78935">
        <ele>969.8</ele>
        <time>2026-05-22T06:31:19Z</time>
      </trkpt>
      <trkpt lat="43.55172" lon="2.78935">
        <ele>969.8</ele>
        <time>2026-05-22T06:31:24Z</time>
      </trkpt>
      <trkpt lat="43.55172" lon="2.78935">
        <ele>969.8</ele>
        <time>2026-05-22T06:31:29Z</time>
      </trkpt>
      <trkpt lat="43.55172" lon="2.78935">
        <ele>969.8</ele>
        <time>2026-05-22T06:31:34Z</time>
      </trkpt>
      <trkpt lat="43.55172" lon="2.78935">
        <ele>969.8</ele>
        <time>2026-05-22T06:31:39Z</time>
      </trkpt>
      <trkpt lat="43.55172" lon="2.78935">
        <ele>969.8</ele>
        <time>2026-05-22T06:31:44Z</time>
      </trkpt>
      <trkpt lat="43.55172" lon="2.78935">
        <ele>969.8</ele>
        <time>2026-05-22T06:31:49Z</time>
      </trkpt>
      <trkpt lat="43.55172" lon="2.78935">
        <ele>969.8</ele>
        <time>2026-05-22T06:31:54Z</time>
      </trkpt>
      <trkpt lat="43.55172" lon="2.78935">
        <ele>969.8</ele>
        <time>2026-05-22T06:31:59Z</time>
      </trkpt>
      <trkpt lat="43.55172" lon="2.78935">
        <ele>969.8</ele>
        <time>2026-05-22T06:32:04Z</time>
      </trkpt>
      <trkpt lat="43.55172" lon="2.78935">
        <ele>969.8</ele>
        <time>2026-05-22T06:32:09Z</time>
      </trkpt>
      <trkpt lat="43.55172" lon="2.78935">
        <ele>969.8</ele>
        <time>2026-05-22T06:32:14Z</time>
      </trkpt>
      <trkpt lat="43.55172" lon="2.78935">
        <ele>969.8</ele>
        <time>2026-05-22T06:32:19Z</time>
      </trkpt>
      <trkpt lat="43.55172" lon="2.78935">
        <ele>969.8</ele>
        <time>2026-05-22T06:32:24Z</time>
      </trkpt>
      <trkpt lat="43.55172" lon="2.78935">
        <ele>969.8</ele>
        <time>2026-05-22T06:32:29Z</time>
      </trkpt>
      <trkpt lat="43.55172" lon="2.78935">
        <ele>969.8</ele>
        <time>2026-05-22T06:32:34Z</time>
      </trkpt>
      <trkpt lat="43.55172" lon="2.78935">
        <ele>969.8</ele>
        <time>2026-05-22T06:32:39Z</time>
      </trkpt>
      <trkpt lat="43.55172" lon="2.78935">
        <ele>969.8</ele>
        <time>2026-05-22T06:32:44Z</time>
      </trkpt>
      <trkpt lat="43.55172" lon="2.78935">
        <ele>969.8</ele>
        <time>2026-05-22T06:32:49Z</time>
      </trkpt>
      <trkpt lat="43.55172" lon="2.78935">
        <ele>969.8</ele>
        <time>2026-05-22T06:32:54Z</time>
      </trkpt>
      <trkpt lat="43.55172" lon="2.78935">
        <ele>969.8</ele>
        <time>2026-05-22T06:32:59Z</time>
      </trkpt>
      <trkpt lat="43.55172" lon="2.78935">
        <ele>969.8</ele>
        <time>2026-05-22T06:33:04Z</time>
      </trkpt>
      <trkpt lat="43.55172" lon="2.78935">
        <ele>969.8</ele>
        <time>2026-05-22T06:33:09Z</time>
      </trkpt>
      <trkpt lat="43.55172" lon="2.78935">
        <ele>969.8</ele>
        <time>2026-05-22T06:33:14Z</time>
      </trkpt>
      <trkpt lat="43.55172" lon="2.78935">
        <ele>969.8</ele>
        <time>2026-05-22T06:33:19Z</time>
      </trkpt>
      <trkpt lat="43.55172" lon="2.78935">
        <ele>969.8</ele>
        <time>2026-05-22T06:33:24Z</time>
      </trkpt>
      <trkpt lat="43.55172" lon="2.78935">
        <ele>969.8</ele>
        <time>2026-05-22T06:33:29Z</time>
      </trkpt>
      <trkpt lat="43.55172" lon="2.78935">
        <ele>969.8</ele>
        <time>2026-05-22T06:33:34Z</time>
      </trkpt>
      <trkpt lat="43.55172" lon="2.78935">
        <ele>969.8</ele>
        <time>2026-05-22T06:33:39Z</time>
      </trkpt>
      <trkpt lat="43.55172" lon="2.78935">
        <ele>969.8</ele>
        <time>2026-05-22T06:33:44Z</time>
      </trkpt>
      <trkpt lat="43.55172" lon="2.78935">
        <ele>969.8</ele>
        <time>2026-05-22T06:33:49Z</time>
      </trkpt>
      <trkpt lat="43.55172" lon="2.78935">
        <ele>969.8</ele>
        <time>2026-05-22T06:33:54Z</time>
      </trkpt>
      <trkpt lat="43.55172" lon="2.78935">
        <ele>969.8</ele>
        <time>2026-05-22T06:33:59Z</time>
      </trkpt>
      <trkpt lat="43.55172" lon="2.78935">
        <ele>969.8</ele>
        <time>2026-05-22T06:34:04Z</time>
      </trkpt>
      <trkpt lat="43.55172" lon="2.78935">
        <ele>969.8</ele>
        <time>2026-05-22T06:34:09Z</time>
      </trkpt>
      <trkpt lat="43.55172" lon="2.78935">
        <ele>969.8</ele>
        <time>2026-05-22T06:34:14Z</time>
      </trkpt>
      <trkpt lat="43.55172" lon="2.78935">
        <ele>969.8</ele>
        <time>2026-05-22T06:34:19Z</time>
      </trkpt>
      <trkpt lat="43.55172" lon="2.78935">
        <ele>969.8</ele>
        <time>2026-05-22T06:34:24Z</time>
      </trkpt>
      <trkpt lat="43.55172" lon="2.78935">
        <ele>969.8</ele>
        <time>2026-05-22T06:34:29Z</time>
      </trkpt>
      <trkpt lat="43.55172" lon="2.78935">
        <ele>969.8</ele>
        <time>2026-05-22T06:34:34Z</time>
      </trkpt>
      <trkpt lat="43.55172" lon="2.78935">
        <ele>969.8</ele>
        <time>2026-05-22T06:34:39Z</time>
      </trkpt>
      <trkpt lat="43.55172" lon="2.78935">
        <ele>969.8</ele>
        <time>2026-05-22T06:34:44Z</time>
      </trkpt>
      <trkpt lat="43.55172" lon="2.78935">
        <ele>969.8</ele>
        <time>2026-05-22T06:34:49Z</time>
      </trkpt>
      <trkpt lat="43.55172" lon="2.78935">
        <ele>969.8</ele>
        <time>2026-05-22T06:34:54Z</time>
      </trkpt>
      <trkpt lat="43.55172" lon="2.78935">
        <ele>969.8</ele>
        <time>2026-05-22T06:34:59Z</time>
      </trkpt>
      <trkpt lat="43.55172" lon="2.78935">
        <ele>969.8</ele>
        <time>2026-05-22T06:35:04Z</time>
      </trkpt>
      <trkpt lat="43.55172" lon="2.78935">
        <ele>969.8</ele>
        <time>2026-05-22T06:35:09Z</time>
      </trkpt>
      <trkpt lat="43.55172" lon="2.78935">
        <ele>969.8</ele>
        <time>2026-05-22T06:35:14Z</time>
      </trkpt>
      <trkpt lat="43.55172" lon="2.78935">
        <ele>969.8</ele>
        <time>2026-05-22T06:35:19Z</time>
      </trkpt>
      <trkpt lat="43.55172" lon="2.78935">
        <ele>969.8</ele>
        <time>2026-05-22T06:35:24Z</time>
      </trkpt>
      <trkpt lat="43.55172" lon="2.78935">
        <ele>969.8</ele>
        <time>2026-05-22T06:35:29Z</time>
      </trkpt>
      <trkpt lat="43.55172" lon="2.78935">
        <ele>969.8</ele>
        <time>2026-05-22T06:35:34Z</time>
      </trkpt>
      <trkpt lat="43.55172" lon="2.78935">
        <ele>969.8</ele>
        <time>2026-05-22T06:35:39Z</time>
      </trkpt>
      <trkpt lat="43.55172" lon="2.78935">
        <ele>969.8</ele>
        <time>2026-05-22T06:35:44Z</time>
      </trkpt>
      <trkpt lat="43.55172" lon="2.78935">
        <ele>969.8</ele>
        <time>2026-05-22T06:35:49Z</time>
      </trkpt>
      <trkpt lat="43.55172" lon="2.78935">
        <ele>969.8</ele>
        <time>2026-05-22T06:35:54Z</time>
      </trkpt>
      <trkpt lat="43.55172" lon="2.78935">
        <ele>969.8</ele>
        <time>2026-05-22T06:35:59Z</time>
      </trkpt>
      <trkpt lat="43.55172" lon="2.78935">
        <ele>969.8</ele>
        <time>2026-05-22T06:36:04Z</time>
      </trkpt>
      <trkpt lat="43.55172" lon="2.78935">
        <ele>969.8</ele>
        <time>2026-05-22T06:36:09Z</time>
      </trkpt>
      <trkpt lat="43.55172" lon="2.78935">
        <ele>969.8</ele>
        <time>2026-05-22T06:36:14Z</time>
      </trkpt>
      <trkpt lat="43.55172" lon="2.78935">
        <ele>969.8</ele>
        <time>2026-05-22T06:36:19Z</time>
      </trkpt>
      <trkpt lat="43.55172" lon="2.78935">
        <ele>969.8</ele>
        <time>2026-05-22T06:36:24Z</time>
      </trkpt>
      <trkpt lat="43.55172" lon="2.78935">
        <ele>969.8</ele>
        <time>2026-05-22T06:36:29Z</time>
      </trkpt>
      <trkpt lat="43.55172" lon="2.78935">
        <ele>969.8</ele>
        <time>2026-05-22T06:36:34Z</time>
      </trkpt>
      <trkpt lat="43.55172" lon="2.78935">
        <ele>969.8</ele>
        <time>2026-05-22T06:36:39Z</time>
      </trkpt>
      <trkpt lat="43.55172" lon="2.78935">
        <ele>969.8</ele>
        <time>2026-05-22T06:36:44Z</time>
      </trkpt>
      <trkpt lat="43.55172" lon="2.78935">
        <ele>969.8</ele>
        <time>2026-05-22T06:36:49Z</time>
      </trkpt>
      <trkpt lat="43.55172" lon="2.78935">
        <ele>969.8</ele>
        <time>2026-05-22T06:36:54Z</time>
      </trkpt>
      <trkpt lat="43.55172" lon="2.78935">
        <ele>969.8</ele>
        <time>2026-05-22T06:36:59Z</time>
      </trkpt>
      <trkpt lat="43.55172" lon="2.78935">
        <ele>969.8</ele>
        <time>2026-05-22T06:37:04Z</time>
      </trkpt>
      <trkpt lat="43.55172" lon="2.78935">
        <ele>969.8</ele>
        <time>2026-05-22T06:37:09Z</time>
      </trkpt>
      <trkpt lat="43.55172" lon="2.78935">
        <ele>969.8</ele>
        <time>2026-05-22T06:37:14Z</time>
      </trkpt>
      <trkpt lat="43.55172" lon="2.78935">
        <ele>969.8</ele>
        <time>2026-05-22T06:37:19Z</time>
      </trkpt>
      <trkpt lat="43.55172" lon="2.78935">
        <ele>969.8</ele>
        <time>2026-05-22T06:37:24Z</time>
      </trkpt>
      <trkpt lat="43.55172" lon="2.78935">
        <ele>969.8</ele>
        <time>2026-05-22T06:37:29Z</time>
      </trkpt>
      <trkpt lat="43.55172" lon="2.78935">
        <ele>969.8</ele>
        <time>2026-05-22T06:37:34Z</time>
      </trkpt>
      <trkpt lat="43.55172" lon="2.78935">
        <ele>969.8</ele>
        <time>2026-05-22T06:37:39Z</time>
      </trkpt>
      <trkpt lat="43.55172" lon="2.78935">
        <ele>969.8</ele>
        <time>2026-05-22T06:37:44Z</time>
      </trkpt>
      <trkpt lat="43.55172" lon="2.78935">
        <ele>969.8</ele>
        <time>2026-05-22T06:37:49Z</time>
      </trkpt>
      <trkpt lat="43.55172" lon="2.78935">
        <ele>969.8</ele>
        <time>2026-05-22T06:37:54Z</time>
      </trkpt>
      <trkpt lat="43.55172" lon="2.78935">
        <ele>969.8</ele>
        <time>2026-05-22T06:37:59Z</time>
      </trkpt>
      <trkpt lat="43.55172" lon="2.78935">
        <ele>969.8</ele>
        <time>2026-05-22T06:38:04Z</time>
      </trkpt>
      <trkpt lat="43.55172" lon="2.78935">
        <ele>969.8</ele>
        <time>2026-05-22T06:38:09Z</time>
      </trkpt>
      <trkpt lat="43.55172" lon="2.78935">
        <ele>969.8</ele>
        <time>2026-05-22T06:38:14Z</time>
      </trkpt>
      <trkpt lat="43.55172" lon="2.78935">
        <ele>969.8</ele>
        <time>2026-05-22T06:38:19Z</time>
      </trkpt>
      <trkpt lat="43.55172" lon="2.78935">
        <ele>969.8</ele>
        <time>2026-05-22T06:38:24Z</time>
      </trkpt>
      <trkpt lat="43.55172" lon="2.78935">
        <ele>969.8</ele>
        <time>2026-05-22T06:38:29Z</time>
      </trkpt>
      <trkpt lat="43.55172" lon="2.78935">
        <ele>969.8</ele>
        <time>2026-05-22T06:38:34Z</time>
      </trkpt>
      <trkpt lat="43.55172" lon="2.78935">
        <ele>969.8</ele>
        <time>2026-05-22T06:38:39Z</time>
      </trkpt>
      <trkpt lat="43.55172" lon="2.78935">
        <ele>969.8</ele>
        <time>2026-05-22T06:38:44Z</time>
      </trkpt>
      <trkpt lat="43.55172" lon="2.78935">
        <ele>969.8</ele>
        <time>2026-05-22T06:38:49Z</time>
      </trkpt>
      <trkpt lat="43.55172" lon="2.78935">
        <ele>969.8</ele>
        <time>2026-05-22T06:38:54Z</time>
      </trkpt>
      <trkpt lat="43.55172" lon="2.78935">
        <ele>969.8</ele>
        <time>2026-05-22T06:38:59Z</time>
      </trkpt>
      <trkpt lat="43.55172" lon="2.78935">
        <ele>969.8</ele>
        <time>2026-05-22T06:39:04Z</time>
      </trkpt>
      <trkpt lat="43.55172" lon="2.78935">
        <ele>969.8</ele>
        <time>2026-05-22T06:39:09Z</time>
      </trkpt>
      <trkpt lat="43.55172" lon="2.78935">
        <ele>969.8</ele>
        <time>2026-05-22T06:39:14Z</time>
      </trkpt>
      <trkpt lat="43.55172" lon="2.78935">
        <ele>969.8</ele>
        <time>2026-05-22T06:39:19Z</time>
      </trkpt>
      <trkpt lat="43.55172" lon="2.78935">
        <ele>969.8</ele>
        <time>2026-05-22T06:39:24Z</time>
      </trkpt>
      <trkpt lat="43.55172" lon="2.78935">
        <ele>969.8</ele>
        <time>2026-05-22T06:39:29Z</time>
      </trkpt>
      <trkpt lat="43.55172" lon="2.78935">
        <ele>969.8</ele>
        <time>2026-05-22T06:39:34Z</time>
      </trkpt>
      <trkpt lat="43.55172" lon="2.78935">
        <ele>969.8</ele>
        <time>2026-05-22T06:39:39Z</time>
      </trkpt>
      <trkpt lat="43.55172" lon="2.78935">
        <ele>969.8</ele>
        <time>2026-05-22T06:39:44Z</time>
      </trkpt>
      <trkpt lat="43.55172" lon="2.78935">
        <ele>969.8</ele>
        <time>2026-05-22T06:39:49Z</time>
      </trkpt>
      <trkpt lat="43.55172" lon="2.78935">
        <ele>969.8</ele>
        <time>2026-05-22T06:39:54Z</time>
      </trkpt>
      <trkpt lat="43.55172" lon="2.78935">
        <ele>969.8</ele>
        <time>2026-05-22T06:39:59Z</time>
      </trkpt>
      <trkpt lat="43.55172" lon="2.78935">
        <ele>969.8</ele>
        <time>2026-05-22T06:40:04Z</time>
      </trkpt>
      <trkpt lat="43.55172" lon="2.78935">
        <ele>969.8</ele>
        <time>2026-05-22T06:40:09Z</time>
      </trkpt>
      <trkpt lat="43.55172" lon="2.78935">
        <ele>969.8</ele>
        <time>2026-05-22T06:40:14Z</time>
      </trkpt>
      <trkpt lat="43.55172" lon="2.78935">
        <ele>969.8</ele>
        <time>2026-05-22T06:40:19Z</time>
      </trkpt>
      <trkpt lat="43.55172" lon="2.78935">
        <ele>969.8</ele>
        <time>2026-05-22T06:40:24Z</time>
      </trkpt>
      <trkpt lat="43.55172" lon="2.78935">
        <ele>969.8</ele>
        <time>2026-05-22T06:40:29Z</time>
      </trkpt>
      <trkpt lat="43.55172" lon="2.78934">
        <ele>969.8</ele>
        <time>2026-05-22T06:40:34Z</time>
      </trkpt>
      <trkpt lat="43.55177" lon="2.78927">
        <ele>971.5</ele>
        <time>2026-05-22T06:40:39Z</time>
      </trkpt>
      <trkpt lat="43.55183" lon="2.7892">
        <ele>973.6</ele>
        <time>2026-05-22T06:40:44Z</time>
      </trkpt>
      <trkpt lat="43.55185" lon="2.78914">
        <ele>974.5</ele>
        <time>2026-05-22T06:40:49Z</time>
      </trkpt>
      <trkpt lat="43.55185" lon="2.78907">
        <ele>975</ele>
        <time>2026-05-22T06:40:54Z</time>
      </trkpt>
      <trkpt lat="43.55187" lon="2.78896">
        <ele>976.3</ele>
        <time>2026-05-22T06:40:59Z</time>
      </trkpt>
      <trkpt lat="43.55184" lon="2.78887">
        <ele>975.9</ele>
        <time>2026-05-22T06:41:04Z</time>
      </trkpt>
      <trkpt lat="43.55178" lon="2.78878">
        <ele>974.6</ele>
        <time>2026-05-22T06:41:09Z</time>
      </trkpt>
      <trkpt lat="43.55177" lon="2.78871">
        <ele>974.8</ele>
        <time>2026-05-22T06:41:14Z</time>
      </trkpt>
      <trkpt lat="43.55172" lon="2.78864">
        <ele>973.9</ele>
        <time>2026-05-22T06:41:19Z</time>
      </trkpt>
      <trkpt lat="43.55169" lon="2.78857">
        <ele>973.6</ele>
        <time>2026-05-22T06:41:24Z</time>
      </trkpt>
      <trkpt lat="43.55168" lon="2.78852">
        <ele>973.8</ele>
        <time>2026-05-22T06:41:29Z</time>
      </trkpt>
      <trkpt lat="43.55165" lon="2.78846">
        <ele>973.4</ele>
        <time>2026-05-22T06:41:34Z</time>
      </trkpt>
      <trkpt lat="43.5516" lon="2.7884">
        <ele>972.5</ele>
        <time>2026-05-22T06:41:39Z</time>
      </trkpt>
      <trkpt lat="43.55158" lon="2.78834">
        <ele>972.5</ele>
        <time>2026-05-22T06:41:44Z</time>
      </trkpt>
      <trkpt lat="43.55154" lon="2.7883">
        <ele>972.1</ele>
        <time>2026-05-22T06:41:49Z</time>
      </trkpt>
      <trkpt lat="43.55152" lon="2.78823">
        <ele>972.7</ele>
        <time>2026-05-22T06:41:54Z</time>
      </trkpt>
      <trkpt lat="43.55149" lon="2.78816">
        <ele>973.2</ele>
        <time>2026-05-22T06:41:59Z</time>
      </trkpt>
      <trkpt lat="43.55145" lon="2.78809">
        <ele>973.7</ele>
        <time>2026-05-22T06:42:04Z</time>
      </trkpt>
      <trkpt lat="43.55143" lon="2.78799">
        <ele>975.2</ele>
        <time>2026-05-22T06:42:09Z</time>
      </trkpt>
      <trkpt lat="43.5514" lon="2.78791">
        <ele>976.3</ele>
        <time>2026-05-22T06:42:14Z</time>
      </trkpt>
      <trkpt lat="43.55136" lon="2.78783">
        <ele>977.4</ele>
        <time>2026-05-22T06:42:19Z</time>
      </trkpt>
      <trkpt lat="43.55132" lon="2.78774">
        <ele>978.9</ele>
        <time>2026-05-22T06:42:24Z</time>
      </trkpt>
      <trkpt lat="43.55128" lon="2.78768">
        <ele>979.9</ele>
        <time>2026-05-22T06:42:29Z</time>
      </trkpt>
      <trkpt lat="43.55124" lon="2.7876">
        <ele>981.5</ele>
        <time>2026-05-22T06:42:34Z</time>
      </trkpt>
      <trkpt lat="43.55121" lon="2.78753">
        <ele>983</ele>
        <time>2026-05-22T06:42:39Z</time>
      </trkpt>
      <trkpt lat="43.55117" lon="2.78745">
        <ele>984.3</ele>
        <time>2026-05-22T06:42:44Z</time>
      </trkpt>
      <trkpt lat="43.55111" lon="2.78736">
        <ele>985.5</ele>
        <time>2026-05-22T06:42:49Z</time>
      </trkpt>
      <trkpt lat="43.55108" lon="2.78728">
        <ele>986.6</ele>
        <time>2026-05-22T06:42:54Z</time>
      </trkpt>
      <trkpt lat="43.55105" lon="2.78721">
        <ele>987.7</ele>
        <time>2026-05-22T06:42:59Z</time>
      </trkpt>
      <trkpt lat="43.55101" lon="2.78716">
        <ele>988.5</ele>
        <time>2026-05-22T06:43:04Z</time>
      </trkpt>
      <trkpt lat="43.55099" lon="2.7871">
        <ele>989.5</ele>
        <time>2026-05-22T06:43:09Z</time>
      </trkpt>
      <trkpt lat="43.55097" lon="2.78701">
        <ele>991.1</ele>
        <time>2026-05-22T06:43:14Z</time>
      </trkpt>
      <trkpt lat="43.55093" lon="2.78694">
        <ele>992.4</ele>
        <time>2026-05-22T06:43:19Z</time>
      </trkpt>
      <trkpt lat="43.5509" lon="2.78688">
        <ele>993.6</ele>
        <time>2026-05-22T06:43:24Z</time>
      </trkpt>
      <trkpt lat="43.55088" lon="2.78684">
        <ele>994.5</ele>
        <time>2026-05-22T06:43:29Z</time>
      </trkpt>
      <trkpt lat="43.55086" lon="2.7868">
        <ele>995.3</ele>
        <time>2026-05-22T06:43:34Z</time>
      </trkpt>
      <trkpt lat="43.55084" lon="2.78674">
        <ele>996.6</ele>
        <time>2026-05-22T06:43:39Z</time>
      </trkpt>
      <trkpt lat="43.55081" lon="2.78668">
        <ele>997.7</ele>
        <time>2026-05-22T06:43:44Z</time>
      </trkpt>
      <trkpt lat="43.55077" lon="2.78663">
        <ele>998.2</ele>
        <time>2026-05-22T06:43:49Z</time>
      </trkpt>
      <trkpt lat="43.55073" lon="2.78655">
        <ele>999</ele>
        <time>2026-05-22T06:43:54Z</time>
      </trkpt>
      <trkpt lat="43.5507" lon="2.78649">
        <ele>999.5</ele>
        <time>2026-05-22T06:43:59Z</time>
      </trkpt>
      <trkpt lat="43.55067" lon="2.78644">
        <ele>999.9</ele>
        <time>2026-05-22T06:44:04Z</time>
      </trkpt>
      <trkpt lat="43.55064" lon="2.78639">
        <ele>1000.3</ele>
        <time>2026-05-22T06:44:09Z</time>
      </trkpt>
      <trkpt lat="43.55063" lon="2.78634">
        <ele>1000.8</ele>
        <time>2026-05-22T06:44:14Z</time>
      </trkpt>
      <trkpt lat="43.55061" lon="2.78628">
        <ele>1001.3</ele>
        <time>2026-05-22T06:44:19Z</time>
      </trkpt>
      <trkpt lat="43.55058" lon="2.78623">
        <ele>1001.6</ele>
        <time>2026-05-22T06:44:24Z</time>
      </trkpt>
      <trkpt lat="43.55054" lon="2.78623">
        <ele>1001.5</ele>
        <time>2026-05-22T06:44:29Z</time>
      </trkpt>
      <trkpt lat="43.55053" lon="2.78623">
        <ele>1001.4</ele>
        <time>2026-05-22T06:44:34Z</time>
      </trkpt>
      <trkpt lat="43.55053" lon="2.78623">
        <ele>1001.4</ele>
        <time>2026-05-22T06:44:39Z</time>
      </trkpt>
      <trkpt lat="43.55049" lon="2.78618">
        <ele>1001.7</ele>
        <time>2026-05-22T06:44:44Z</time>
      </trkpt>
      <trkpt lat="43.55047" lon="2.78612">
        <ele>1002.2</ele>
        <time>2026-05-22T06:44:49Z</time>
      </trkpt>
      <trkpt lat="43.55047" lon="2.78606">
        <ele>1002.7</ele>
        <time>2026-05-22T06:44:54Z</time>
      </trkpt>
      <trkpt lat="43.55046" lon="2.786">
        <ele>1003.2</ele>
        <time>2026-05-22T06:44:59Z</time>
      </trkpt>
      <trkpt lat="43.55045" lon="2.78596">
        <ele>1003.5</ele>
        <time>2026-05-22T06:45:04Z</time>
      </trkpt>
      <trkpt lat="43.55042" lon="2.78591">
        <ele>1003.8</ele>
        <time>2026-05-22T06:45:09Z</time>
      </trkpt>
      <trkpt lat="43.55039" lon="2.78585">
        <ele>1004.2</ele>
        <time>2026-05-22T06:45:14Z</time>
      </trkpt>
      <trkpt lat="43.55037" lon="2.7858">
        <ele>1004.3</ele>
        <time>2026-05-22T06:45:19Z</time>
      </trkpt>
      <trkpt lat="43.55036" lon="2.78574">
        <ele>1004.4</ele>
        <time>2026-05-22T06:45:24Z</time>
      </trkpt>
      <trkpt lat="43.55033" lon="2.7857">
        <ele>1004.3</ele>
        <time>2026-05-22T06:45:29Z</time>
      </trkpt>
      <trkpt lat="43.5503" lon="2.78566">
        <ele>1004.2</ele>
        <time>2026-05-22T06:45:34Z</time>
      </trkpt>
      <trkpt lat="43.55028" lon="2.78561">
        <ele>1004.2</ele>
        <time>2026-05-22T06:45:39Z</time>
      </trkpt>
      <trkpt lat="43.55026" lon="2.78556">
        <ele>1004.2</ele>
        <time>2026-05-22T06:45:44Z</time>
      </trkpt>
      <trkpt lat="43.55023" lon="2.78551">
        <ele>1004.2</ele>
        <time>2026-05-22T06:45:49Z</time>
      </trkpt>
      <trkpt lat="43.5502" lon="2.78547">
        <ele>1004.1</ele>
        <time>2026-05-22T06:45:54Z</time>
      </trkpt>
      <trkpt lat="43.55018" lon="2.78541">
        <ele>1004.1</ele>
        <time>2026-05-22T06:45:59Z</time>
      </trkpt>
      <trkpt lat="43.55017" lon="2.78537">
        <ele>1004.1</ele>
        <time>2026-05-22T06:46:04Z</time>
      </trkpt>
      <trkpt lat="43.55015" lon="2.78532">
        <ele>1004.1</ele>
        <time>2026-05-22T06:46:09Z</time>
      </trkpt>
      <trkpt lat="43.55013" lon="2.78527">
        <ele>1004.1</ele>
        <time>2026-05-22T06:46:14Z</time>
      </trkpt>
      <trkpt lat="43.55012" lon="2.78521">
        <ele>1004.2</ele>
        <time>2026-05-22T06:46:19Z</time>
      </trkpt>
      <trkpt lat="43.55008" lon="2.78516">
        <ele>1004.1</ele>
        <time>2026-05-22T06:46:24Z</time>
      </trkpt>
      <trkpt lat="43.55006" lon="2.78509">
        <ele>1004.1</ele>
        <time>2026-05-22T06:46:29Z</time>
      </trkpt>
      <trkpt lat="43.55002" lon="2.78503">
        <ele>1004</ele>
        <time>2026-05-22T06:46:34Z</time>
      </trkpt>
      <trkpt lat="43.54998" lon="2.78498">
        <ele>1003.4</ele>
        <time>2026-05-22T06:46:39Z</time>
      </trkpt>
      <trkpt lat="43.54992" lon="2.78494">
        <ele>1001.9</ele>
        <time>2026-05-22T06:46:44Z</time>
      </trkpt>
      <trkpt lat="43.54987" lon="2.7849">
        <ele>1000.6</ele>
        <time>2026-05-22T06:46:49Z</time>
      </trkpt>
      <trkpt lat="43.54982" lon="2.78485">
        <ele>999.2</ele>
        <time>2026-05-22T06:46:54Z</time>
      </trkpt>
      <trkpt lat="43.54977" lon="2.78481">
        <ele>997.9</ele>
        <time>2026-05-22T06:46:59Z</time>
      </trkpt>
      <trkpt lat="43.54971" lon="2.78476">
        <ele>996.3</ele>
        <time>2026-05-22T06:47:04Z</time>
      </trkpt>
      <trkpt lat="43.54967" lon="2.78473">
        <ele>995.3</ele>
        <time>2026-05-22T06:47:09Z</time>
      </trkpt>
      <trkpt lat="43.54964" lon="2.78472">
        <ele>994.5</ele>
        <time>2026-05-22T06:47:14Z</time>
      </trkpt>
      <trkpt lat="43.54961" lon="2.78475">
        <ele>994.1</ele>
        <time>2026-05-22T06:47:19Z</time>
      </trkpt>
      <trkpt lat="43.54956" lon="2.78477">
        <ele>993.1</ele>
        <time>2026-05-22T06:47:24Z</time>
      </trkpt>
      <trkpt lat="43.54951" lon="2.78482">
        <ele>992.3</ele>
        <time>2026-05-22T06:47:29Z</time>
      </trkpt>
      <trkpt lat="43.54947" lon="2.78487">
        <ele>991.8</ele>
        <time>2026-05-22T06:47:34Z</time>
      </trkpt>
      <trkpt lat="43.54945" lon="2.78494">
        <ele>991.8</ele>
        <time>2026-05-22T06:47:39Z</time>
      </trkpt>
      <trkpt lat="43.54942" lon="2.78502">
        <ele>991.5</ele>
        <time>2026-05-22T06:47:44Z</time>
      </trkpt>
      <trkpt lat="43.54941" lon="2.7851">
        <ele>991.2</ele>
        <time>2026-05-22T06:47:49Z</time>
      </trkpt>
      <trkpt lat="43.54941" lon="2.78518">
        <ele>991.1</ele>
        <time>2026-05-22T06:47:54Z</time>
      </trkpt>
      <trkpt lat="43.54939" lon="2.78527">
        <ele>990.7</ele>
        <time>2026-05-22T06:47:59Z</time>
      </trkpt>
      <trkpt lat="43.54932" lon="2.78536">
        <ele>989.2</ele>
        <time>2026-05-22T06:48:04Z</time>
      </trkpt>
      <trkpt lat="43.54929" lon="2.78543">
        <ele>988.5</ele>
        <time>2026-05-22T06:48:09Z</time>
      </trkpt>
      <trkpt lat="43.54927" lon="2.7855">
        <ele>988.1</ele>
        <time>2026-05-22T06:48:14Z</time>
      </trkpt>
      <trkpt lat="43.54925" lon="2.78557">
        <ele>987.7</ele>
        <time>2026-05-22T06:48:19Z</time>
      </trkpt>
      <trkpt lat="43.54922" lon="2.78564">
        <ele>987.1</ele>
        <time>2026-05-22T06:48:24Z</time>
      </trkpt>
      <trkpt lat="43.54919" lon="2.78571">
        <ele>986.5</ele>
        <time>2026-05-22T06:48:29Z</time>
      </trkpt>
      <trkpt lat="43.54915" lon="2.78578">
        <ele>985.5</ele>
        <time>2026-05-22T06:48:34Z</time>
      </trkpt>
      <trkpt lat="43.54912" lon="2.78584">
        <ele>984.6</ele>
        <time>2026-05-22T06:48:39Z</time>
      </trkpt>
      <trkpt lat="43.54908" lon="2.78587">
        <ele>983.2</ele>
        <time>2026-05-22T06:48:44Z</time>
      </trkpt>
      <trkpt lat="43.54905" lon="2.78592">
        <ele>981.9</ele>
        <time>2026-05-22T06:48:49Z</time>
      </trkpt>
      <trkpt lat="43.54903" lon="2.78597">
        <ele>980.8</ele>
        <time>2026-05-22T06:48:54Z</time>
      </trkpt>
      <trkpt lat="43.54901" lon="2.78605">
        <ele>979.3</ele>
        <time>2026-05-22T06:48:59Z</time>
      </trkpt>
      <trkpt lat="43.54898" lon="2.78611">
        <ele>977.7</ele>
        <time>2026-05-22T06:49:04Z</time>
      </trkpt>
      <trkpt lat="43.54894" lon="2.78615">
        <ele>976.1</ele>
        <time>2026-05-22T06:49:09Z</time>
      </trkpt>
      <trkpt lat="43.54891" lon="2.78619">
        <ele>974.7</ele>
        <time>2026-05-22T06:49:14Z</time>
      </trkpt>
      <trkpt lat="43.54886" lon="2.7862">
        <ele>973</ele>
        <time>2026-05-22T06:49:19Z</time>
      </trkpt>
      <trkpt lat="43.54881" lon="2.78621">
        <ele>971.4</ele>
        <time>2026-05-22T06:49:24Z</time>
      </trkpt>
      <trkpt lat="43.54878" lon="2.78623">
        <ele>970.2</ele>
        <time>2026-05-22T06:49:29Z</time>
      </trkpt>
      <trkpt lat="43.54873" lon="2.78626">
        <ele>968.2</ele>
        <time>2026-05-22T06:49:34Z</time>
      </trkpt>
      <trkpt lat="43.54869" lon="2.78627">
        <ele>966.9</ele>
        <time>2026-05-22T06:49:39Z</time>
      </trkpt>
      <trkpt lat="43.54867" lon="2.7863">
        <ele>965.8</ele>
        <time>2026-05-22T06:49:44Z</time>
      </trkpt>
      <trkpt lat="43.54866" lon="2.7863">
        <ele>965.5</ele>
        <time>2026-05-22T06:49:49Z</time>
      </trkpt>
      <trkpt lat="43.54865" lon="2.7863">
        <ele>965.2</ele>
        <time>2026-05-22T06:49:54Z</time>
      </trkpt>
      <trkpt lat="43.54865" lon="2.7863">
        <ele>965.2</ele>
        <time>2026-05-22T06:49:59Z</time>
      </trkpt>
      <trkpt lat="43.54865" lon="2.7863">
        <ele>965.2</ele>
        <time>2026-05-22T06:50:04Z</time>
      </trkpt>
      <trkpt lat="43.54865" lon="2.7863">
        <ele>965.2</ele>
        <time>2026-05-22T06:50:09Z</time>
      </trkpt>
      <trkpt lat="43.54865" lon="2.7863">
        <ele>965.2</ele>
        <time>2026-05-22T06:50:14Z</time>
      </trkpt>
      <trkpt lat="43.54865" lon="2.7863">
        <ele>965.2</ele>
        <time>2026-05-22T06:50:19Z</time>
      </trkpt>
      <trkpt lat="43.54865" lon="2.7863">
        <ele>965.2</ele>
        <time>2026-05-22T06:50:24Z</time>
      </trkpt>
      <trkpt lat="43.54869" lon="2.78626">
        <ele>967</ele>
        <time>2026-05-22T06:50:29Z</time>
      </trkpt>
      <trkpt lat="43.54872" lon="2.78619">
        <ele>968.9</ele>
        <time>2026-05-22T06:50:34Z</time>
      </trkpt>
      <trkpt lat="43.5487" lon="2.78614">
        <ele>968.9</ele>
        <time>2026-05-22T06:50:39Z</time>
      </trkpt>
      <trkpt lat="43.54868" lon="2.78613">
        <ele>968.5</ele>
        <time>2026-05-22T06:50:44Z</time>
      </trkpt>
      <trkpt lat="43.54868" lon="2.78613">
        <ele>968.5</ele>
        <time>2026-05-22T06:50:49Z</time>
      </trkpt>
      <trkpt lat="43.54868" lon="2.78613">
        <ele>968.5</ele>
        <time>2026-05-22T06:50:54Z</time>
      </trkpt>
      <trkpt lat="43.54868" lon="2.78613">
        <ele>968.5</ele>
        <time>2026-05-22T06:50:59Z</time>
      </trkpt>
      <trkpt lat="43.54867" lon="2.7861">
        <ele>968.6</ele>
        <time>2026-05-22T06:51:04Z</time>
      </trkpt>
      <trkpt lat="43.54865" lon="2.78607">
        <ele>968.4</ele>
        <time>2026-05-22T06:51:09Z</time>
      </trkpt>
      <trkpt lat="43.54864" lon="2.78604">
        <ele>968.5</ele>
        <time>2026-05-22T06:51:14Z</time>
      </trkpt>
      <trkpt lat="43.54861" lon="2.78602">
        <ele>967.9</ele>
        <time>2026-05-22T06:51:19Z</time>
      </trkpt>
      <trkpt lat="43.54857" lon="2.78602">
        <ele>966.8</ele>
        <time>2026-05-22T06:51:24Z</time>
      </trkpt>
      <trkpt lat="43.54853" lon="2.786">
        <ele>965.9</ele>
        <time>2026-05-22T06:51:29Z</time>
      </trkpt>
      <trkpt lat="43.5485" lon="2.78604">
        <ele>964.4</ele>
        <time>2026-05-22T06:51:34Z</time>
      </trkpt>
      <trkpt lat="43.54849" lon="2.78611">
        <ele>963.1</ele>
        <time>2026-05-22T06:51:39Z</time>
      </trkpt>
      <trkpt lat="43.54847" lon="2.78615">
        <ele>961.8</ele>
        <time>2026-05-22T06:51:44Z</time>
      </trkpt>
      <trkpt lat="43.54843" lon="2.78619">
        <ele>960</ele>
        <time>2026-05-22T06:51:49Z</time>
      </trkpt>
      <trkpt lat="43.54839" lon="2.78625">
        <ele>957.8</ele>
        <time>2026-05-22T06:51:54Z</time>
      </trkpt>
      <trkpt lat="43.54836" lon="2.7863">
        <ele>956</ele>
        <time>2026-05-22T06:51:59Z</time>
      </trkpt>
      <trkpt lat="43.54833" lon="2.78632">
        <ele>954.8</ele>
        <time>2026-05-22T06:52:04Z</time>
      </trkpt>
      <trkpt lat="43.5483" lon="2.78632">
        <ele>954.2</ele>
        <time>2026-05-22T06:52:09Z</time>
      </trkpt>
      <trkpt lat="43.54827" lon="2.78631">
        <ele>953.8</ele>
        <time>2026-05-22T06:52:14Z</time>
      </trkpt>
      <trkpt lat="43.54821" lon="2.7863">
        <ele>952.8</ele>
        <time>2026-05-22T06:52:19Z</time>
      </trkpt>
      <trkpt lat="43.54816" lon="2.78628">
        <ele>952.2</ele>
        <time>2026-05-22T06:52:24Z</time>
      </trkpt>
      <trkpt lat="43.54811" lon="2.78627">
        <ele>951.4</ele>
        <time>2026-05-22T06:52:29Z</time>
      </trkpt>
      <trkpt lat="43.54807" lon="2.78627">
        <ele>950.6</ele>
        <time>2026-05-22T06:52:34Z</time>
      </trkpt>
      <trkpt lat="43.54805" lon="2.78629">
        <ele>949.9</ele>
        <time>2026-05-22T06:52:39Z</time>
      </trkpt>
      <trkpt lat="43.54801" lon="2.78631">
        <ele>948.7</ele>
        <time>2026-05-22T06:52:44Z</time>
      </trkpt>
      <trkpt lat="43.54798" lon="2.78628">
        <ele>948.7</ele>
        <time>2026-05-22T06:52:49Z</time>
      </trkpt>
      <trkpt lat="43.54793" lon="2.78624">
        <ele>948.4</ele>
        <time>2026-05-22T06:52:54Z</time>
      </trkpt>
      <trkpt lat="43.54789" lon="2.78621">
        <ele>948.2</ele>
        <time>2026-05-22T06:52:59Z</time>
      </trkpt>
      <trkpt lat="43.54785" lon="2.78617">
        <ele>948.2</ele>
        <time>2026-05-22T06:53:04Z</time>
      </trkpt>
      <trkpt lat="43.5478" lon="2.78614">
        <ele>947.8</ele>
        <time>2026-05-22T06:53:09Z</time>
      </trkpt>
      <trkpt lat="43.54777" lon="2.78607">
        <ele>948.5</ele>
        <time>2026-05-22T06:53:14Z</time>
      </trkpt>
      <trkpt lat="43.54777" lon="2.78601">
        <ele>949.6</ele>
        <time>2026-05-22T06:53:19Z</time>
      </trkpt>
      <trkpt lat="43.54774" lon="2.78598">
        <ele>949.6</ele>
        <time>2026-05-22T06:53:24Z</time>
      </trkpt>
      <trkpt lat="43.54772" lon="2.78599">
        <ele>949.1</ele>
        <time>2026-05-22T06:53:29Z</time>
      </trkpt>
      <trkpt lat="43.54771" lon="2.78599">
        <ele>948.9</ele>
        <time>2026-05-22T06:53:34Z</time>
      </trkpt>
      <trkpt lat="43.54771" lon="2.78599">
        <ele>948.9</ele>
        <time>2026-05-22T06:53:39Z</time>
      </trkpt>
      <trkpt lat="43.54771" lon="2.78599">
        <ele>948.9</ele>
        <time>2026-05-22T06:53:44Z</time>
      </trkpt>
      <trkpt lat="43.54771" lon="2.78599">
        <ele>948.9</ele>
        <time>2026-05-22T06:53:49Z</time>
      </trkpt>
      <trkpt lat="43.54771" lon="2.78599">
        <ele>948.9</ele>
        <time>2026-05-22T06:53:54Z</time>
      </trkpt>
      <trkpt lat="43.54771" lon="2.78599">
        <ele>948.9</ele>
        <time>2026-05-22T06:53:59Z</time>
      </trkpt>
      <trkpt lat="43.54771" lon="2.78599">
        <ele>948.9</ele>
        <time>2026-05-22T06:54:04Z</time>
      </trkpt>
      <trkpt lat="43.54771" lon="2.78599">
        <ele>948.9</ele>
        <time>2026-05-22T06:54:09Z</time>
      </trkpt>
      <trkpt lat="43.54771" lon="2.78599">
        <ele>948.9</ele>
        <time>2026-05-22T06:54:14Z</time>
      </trkpt>
      <trkpt lat="43.54771" lon="2.78599">
        <ele>948.9</ele>
        <time>2026-05-22T06:54:19Z</time>
      </trkpt>
      <trkpt lat="43.54771" lon="2.78599">
        <ele>948.9</ele>
        <time>2026-05-22T06:54:24Z</time>
      </trkpt>
      <trkpt lat="43.54771" lon="2.78599">
        <ele>948.9</ele>
        <time>2026-05-22T06:54:29Z</time>
      </trkpt>
      <trkpt lat="43.54771" lon="2.78599">
        <ele>948.9</ele>
        <time>2026-05-22T06:54:34Z</time>
      </trkpt>
      <trkpt lat="43.54771" lon="2.78599">
        <ele>948.9</ele>
        <time>2026-05-22T06:54:39Z</time>
      </trkpt>
      <trkpt lat="43.54771" lon="2.78599">
        <ele>948.9</ele>
        <time>2026-05-22T06:54:44Z</time>
      </trkpt>
      <trkpt lat="43.54771" lon="2.78599">
        <ele>948.9</ele>
        <time>2026-05-22T06:54:49Z</time>
      </trkpt>
      <trkpt lat="43.54771" lon="2.78599">
        <ele>948.9</ele>
        <time>2026-05-22T06:54:54Z</time>
      </trkpt>
      <trkpt lat="43.54771" lon="2.78599">
        <ele>948.9</ele>
        <time>2026-05-22T06:54:59Z</time>
      </trkpt>
      <trkpt lat="43.54771" lon="2.78599">
        <ele>948.9</ele>
        <time>2026-05-22T06:55:04Z</time>
      </trkpt>
      <trkpt lat="43.54771" lon="2.78599">
        <ele>948.9</ele>
        <time>2026-05-22T06:55:09Z</time>
      </trkpt>
      <trkpt lat="43.54771" lon="2.78599">
        <ele>948.9</ele>
        <time>2026-05-22T06:55:14Z</time>
      </trkpt>
      <trkpt lat="43.54771" lon="2.78599">
        <ele>948.9</ele>
        <time>2026-05-22T06:55:19Z</time>
      </trkpt>
      <trkpt lat="43.54771" lon="2.78599">
        <ele>948.9</ele>
        <time>2026-05-22T06:55:24Z</time>
      </trkpt>
      <trkpt lat="43.54771" lon="2.78599">
        <ele>948.9</ele>
        <time>2026-05-22T06:55:29Z</time>
      </trkpt>
      <trkpt lat="43.54771" lon="2.78599">
        <ele>948.9</ele>
        <time>2026-05-22T06:55:34Z</time>
      </trkpt>
      <trkpt lat="43.54771" lon="2.78599">
        <ele>948.9</ele>
        <time>2026-05-22T06:55:39Z</time>
      </trkpt>
      <trkpt lat="43.54771" lon="2.78599">
        <ele>948.9</ele>
        <time>2026-05-22T06:55:44Z</time>
      </trkpt>
      <trkpt lat="43.54771" lon="2.78599">
        <ele>948.9</ele>
        <time>2026-05-22T06:55:49Z</time>
      </trkpt>
      <trkpt lat="43.54771" lon="2.78599">
        <ele>948.9</ele>
        <time>2026-05-22T06:55:54Z</time>
      </trkpt>
      <trkpt lat="43.54771" lon="2.78599">
        <ele>948.9</ele>
        <time>2026-05-22T06:55:59Z</time>
      </trkpt>
      <trkpt lat="43.54771" lon="2.78599">
        <ele>948.9</ele>
        <time>2026-05-22T06:56:04Z</time>
      </trkpt>
      <trkpt lat="43.54771" lon="2.78599">
        <ele>948.9</ele>
        <time>2026-05-22T06:56:09Z</time>
      </trkpt>
      <trkpt lat="43.54771" lon="2.78599">
        <ele>948.9</ele>
        <time>2026-05-22T06:56:14Z</time>
      </trkpt>
      <trkpt lat="43.54771" lon="2.78599">
        <ele>948.9</ele>
        <time>2026-05-22T06:56:19Z</time>
      </trkpt>
      <trkpt lat="43.54771" lon="2.78599">
        <ele>948.9</ele>
        <time>2026-05-22T06:56:24Z</time>
      </trkpt>
      <trkpt lat="43.54771" lon="2.78599">
        <ele>948.9</ele>
        <time>2026-05-22T06:56:29Z</time>
      </trkpt>
      <trkpt lat="43.54771" lon="2.78599">
        <ele>948.9</ele>
        <time>2026-05-22T06:56:34Z</time>
      </trkpt>
      <trkpt lat="43.54771" lon="2.78599">
        <ele>948.9</ele>
        <time>2026-05-22T06:56:39Z</time>
      </trkpt>
      <trkpt lat="43.54771" lon="2.78599">
        <ele>948.9</ele>
        <time>2026-05-22T06:56:44Z</time>
      </trkpt>
      <trkpt lat="43.54771" lon="2.78599">
        <ele>948.9</ele>
        <time>2026-05-22T06:56:49Z</time>
      </trkpt>
      <trkpt lat="43.54768" lon="2.78588">
        <ele>950.4</ele>
        <time>2026-05-22T06:56:54Z</time>
      </trkpt>
      <trkpt lat="43.54765" lon="2.78589">
        <ele>949.6</ele>
        <time>2026-05-22T06:56:59Z</time>
      </trkpt>
      <trkpt lat="43.54763" lon="2.78589">
        <ele>949.3</ele>
        <time>2026-05-22T06:57:04Z</time>
      </trkpt>
      <trkpt lat="43.5476" lon="2.78592">
        <ele>948.2</ele>
        <time>2026-05-22T06:57:09Z</time>
      </trkpt>
      <trkpt lat="43.54756" lon="2.78596">
        <ele>946.7</ele>
        <time>2026-05-22T06:57:14Z</time>
      </trkpt>
      <trkpt lat="43.54754" lon="2.78593">
        <ele>946.9</ele>
        <time>2026-05-22T06:57:19Z</time>
      </trkpt>
      <trkpt lat="43.54754" lon="2.78592">
        <ele>947.1</ele>
        <time>2026-05-22T06:57:24Z</time>
      </trkpt>
      <trkpt lat="43.54754" lon="2.78592">
        <ele>947.1</ele>
        <time>2026-05-22T06:57:29Z</time>
      </trkpt>
      <trkpt lat="43.54754" lon="2.78592">
        <ele>947.1</ele>
        <time>2026-05-22T06:57:34Z</time>
      </trkpt>
      <trkpt lat="43.54754" lon="2.78592">
        <ele>947.1</ele>
        <time>2026-05-22T06:57:39Z</time>
      </trkpt>
      <trkpt lat="43.54754" lon="2.78592">
        <ele>947.1</ele>
        <time>2026-05-22T06:57:44Z</time>
      </trkpt>
      <trkpt lat="43.54754" lon="2.78592">
        <ele>947.1</ele>
        <time>2026-05-22T06:57:49Z</time>
      </trkpt>
      <trkpt lat="43.54754" lon="2.78592">
        <ele>947.1</ele>
        <time>2026-05-22T06:57:54Z</time>
      </trkpt>
      <trkpt lat="43.54754" lon="2.78592">
        <ele>947.1</ele>
        <time>2026-05-22T06:57:59Z</time>
      </trkpt>
      <trkpt lat="43.54754" lon="2.78592">
        <ele>947.1</ele>
        <time>2026-05-22T06:58:04Z</time>
      </trkpt>
      <trkpt lat="43.54754" lon="2.78592">
        <ele>947.1</ele>
        <time>2026-05-22T06:58:09Z</time>
      </trkpt>
      <trkpt lat="43.54754" lon="2.78592">
        <ele>947.1</ele>
        <time>2026-05-22T06:58:14Z</time>
      </trkpt>
      <trkpt lat="43.54754" lon="2.78592">
        <ele>947.1</ele>
        <time>2026-05-22T06:58:19Z</time>
      </trkpt>
      <trkpt lat="43.54754" lon="2.78592">
        <ele>947.1</ele>
        <time>2026-05-22T06:58:24Z</time>
      </trkpt>
      <trkpt lat="43.54749" lon="2.78588">
        <ele>947.1</ele>
        <time>2026-05-22T06:58:29Z</time>
      </trkpt>
      <trkpt lat="43.54747" lon="2.78582">
        <ele>947.9</ele>
        <time>2026-05-22T06:58:34Z</time>
      </trkpt>
      <trkpt lat="43.54743" lon="2.78578">
        <ele>947.9</ele>
        <time>2026-05-22T06:58:39Z</time>
      </trkpt>
      <trkpt lat="43.54741" lon="2.78575">
        <ele>947.9</ele>
        <time>2026-05-22T06:58:44Z</time>
      </trkpt>
      <trkpt lat="43.5474" lon="2.78574">
        <ele>947.9</ele>
        <time>2026-05-22T06:58:49Z</time>
      </trkpt>
      <trkpt lat="43.54737" lon="2.78575">
        <ele>947.8</ele>
        <time>2026-05-22T06:58:54Z</time>
      </trkpt>
      <trkpt lat="43.54734" lon="2.78573">
        <ele>947.7</ele>
        <time>2026-05-22T06:58:59Z</time>
      </trkpt>
      <trkpt lat="43.54731" lon="2.78576">
        <ele>947.5</ele>
        <time>2026-05-22T06:59:04Z</time>
      </trkpt>
      <trkpt lat="43.54729" lon="2.78577">
        <ele>947.4</ele>
        <time>2026-05-22T06:59:09Z</time>
      </trkpt>
      <trkpt lat="43.54728" lon="2.78579">
        <ele>947.3</ele>
        <time>2026-05-22T06:59:14Z</time>
      </trkpt>
      <trkpt lat="43.54725" lon="2.78579">
        <ele>947.2</ele>
        <time>2026-05-22T06:59:19Z</time>
      </trkpt>
      <trkpt lat="43.54722" lon="2.78579">
        <ele>947.1</ele>
        <time>2026-05-22T06:59:24Z</time>
      </trkpt>
      <trkpt lat="43.54721" lon="2.78575">
        <ele>947.2</ele>
        <time>2026-05-22T06:59:29Z</time>
      </trkpt>
      <trkpt lat="43.5472" lon="2.7857">
        <ele>947.2</ele>
        <time>2026-05-22T06:59:34Z</time>
      </trkpt>
      <trkpt lat="43.54719" lon="2.78566">
        <ele>947.3</ele>
        <time>2026-05-22T06:59:39Z</time>
      </trkpt>
      <trkpt lat="43.54717" lon="2.78562">
        <ele>947.3</ele>
        <time>2026-05-22T06:59:44Z</time>
      </trkpt>
      <trkpt lat="43.54716" lon="2.78558">
        <ele>947.3</ele>
        <time>2026-05-22T06:59:49Z</time>
      </trkpt>
      <trkpt lat="43.54714" lon="2.78554">
        <ele>947.3</ele>
        <time>2026-05-22T06:59:54Z</time>
      </trkpt>
      <trkpt lat="43.5471" lon="2.78551">
        <ele>947.2</ele>
        <time>2026-05-22T06:59:59Z</time>
      </trkpt>
      <trkpt lat="43.54705" lon="2.78553">
        <ele>946.9</ele>
        <time>2026-05-22T07:00:04Z</time>
      </trkpt>
      <trkpt lat="43.547" lon="2.78556">
        <ele>946.6</ele>
        <time>2026-05-22T07:00:09Z</time>
      </trkpt>
      <trkpt lat="43.54693" lon="2.78559">
        <ele>946.2</ele>
        <time>2026-05-22T07:00:14Z</time>
      </trkpt>
      <trkpt lat="43.54687" lon="2.78558">
        <ele>946</ele>
        <time>2026-05-22T07:00:19Z</time>
      </trkpt>
      <trkpt lat="43.54681" lon="2.78558">
        <ele>945.7</ele>
        <time>2026-05-22T07:00:24Z</time>
      </trkpt>
      <trkpt lat="43.54676" lon="2.78559">
        <ele>945.4</ele>
        <time>2026-05-22T07:00:29Z</time>
      </trkpt>
      <trkpt lat="43.54671" lon="2.78565">
        <ele>945.2</ele>
        <time>2026-05-22T07:00:34Z</time>
      </trkpt>
      <trkpt lat="43.54668" lon="2.78571">
        <ele>945.1</ele>
        <time>2026-05-22T07:00:39Z</time>
      </trkpt>
      <trkpt lat="43.54665" lon="2.78577">
        <ele>944.9</ele>
        <time>2026-05-22T07:00:44Z</time>
      </trkpt>
      <trkpt lat="43.54662" lon="2.78582">
        <ele>944.8</ele>
        <time>2026-05-22T07:00:49Z</time>
      </trkpt>
      <trkpt lat="43.54656" lon="2.78583">
        <ele>944.6</ele>
        <time>2026-05-22T07:00:54Z</time>
      </trkpt>
      <trkpt lat="43.54651" lon="2.78581">
        <ele>944.4</ele>
        <time>2026-05-22T07:00:59Z</time>
      </trkpt>
      <trkpt lat="43.54647" lon="2.78586">
        <ele>944.3</ele>
        <time>2026-05-22T07:01:04Z</time>
      </trkpt>
      <trkpt lat="43.54643" lon="2.78592">
        <ele>944.3</ele>
        <time>2026-05-22T07:01:09Z</time>
      </trkpt>
      <trkpt lat="43.5464" lon="2.78597">
        <ele>944.3</ele>
        <time>2026-05-22T07:01:14Z</time>
      </trkpt>
      <trkpt lat="43.54637" lon="2.78602">
        <ele>944.3</ele>
        <time>2026-05-22T07:01:19Z</time>
      </trkpt>
      <trkpt lat="43.54635" lon="2.78612">
        <ele>944.5</ele>
        <time>2026-05-22T07:01:24Z</time>
      </trkpt>
      <trkpt lat="43.54629" lon="2.78618">
        <ele>944.4</ele>
        <time>2026-05-22T07:01:29Z</time>
      </trkpt>
      <trkpt lat="43.54626" lon="2.7862">
        <ele>944.4</ele>
        <time>2026-05-22T07:01:34Z</time>
      </trkpt>
      <trkpt lat="43.54622" lon="2.78622">
        <ele>944.4</ele>
        <time>2026-05-22T07:01:39Z</time>
      </trkpt>
      <trkpt lat="43.54619" lon="2.78624">
        <ele>944.3</ele>
        <time>2026-05-22T07:01:44Z</time>
      </trkpt>
      <trkpt lat="43.54616" lon="2.78626">
        <ele>944.3</ele>
        <time>2026-05-22T07:01:49Z</time>
      </trkpt>
      <trkpt lat="43.54612" lon="2.78628">
        <ele>944.3</ele>
        <time>2026-05-22T07:01:54Z</time>
      </trkpt>
      <trkpt lat="43.54609" lon="2.78631">
        <ele>944.3</ele>
        <time>2026-05-22T07:01:59Z</time>
      </trkpt>
      <trkpt lat="43.54604" lon="2.78635">
        <ele>944.3</ele>
        <time>2026-05-22T07:02:04Z</time>
      </trkpt>
      <trkpt lat="43.546" lon="2.78641">
        <ele>944.4</ele>
        <time>2026-05-22T07:02:09Z</time>
      </trkpt>
      <trkpt lat="43.54597" lon="2.7865">
        <ele>944.6</ele>
        <time>2026-05-22T07:02:14Z</time>
      </trkpt>
      <trkpt lat="43.54593" lon="2.78659">
        <ele>944.9</ele>
        <time>2026-05-22T07:02:19Z</time>
      </trkpt>
      <trkpt lat="43.54592" lon="2.78666">
        <ele>945.1</ele>
        <time>2026-05-22T07:02:24Z</time>
      </trkpt>
      <trkpt lat="43.54588" lon="2.78672">
        <ele>944.3</ele>
        <time>2026-05-22T07:02:29Z</time>
      </trkpt>
      <trkpt lat="43.54586" lon="2.78677">
        <ele>943.6</ele>
        <time>2026-05-22T07:02:34Z</time>
      </trkpt>
      <trkpt lat="43.54585" lon="2.78682">
        <ele>942.9</ele>
        <time>2026-05-22T07:02:39Z</time>
      </trkpt>
      <trkpt lat="43.54582" lon="2.78687">
        <ele>942.1</ele>
        <time>2026-05-22T07:02:44Z</time>
      </trkpt>
      <trkpt lat="43.54579" lon="2.78693">
        <ele>940.9</ele>
        <time>2026-05-22T07:02:49Z</time>
      </trkpt>
      <trkpt lat="43.54577" lon="2.787">
        <ele>939.7</ele>
        <time>2026-05-22T07:02:54Z</time>
      </trkpt>
      <trkpt lat="43.54577" lon="2.78707">
        <ele>938.9</ele>
        <time>2026-05-22T07:02:59Z</time>
      </trkpt>
      <trkpt lat="43.54578" lon="2.78712">
        <ele>938.4</ele>
        <time>2026-05-22T07:03:04Z</time>
      </trkpt>
      <trkpt lat="43.54579" lon="2.78719">
        <ele>937.6</ele>
        <time>2026-05-22T07:03:09Z</time>
      </trkpt>
      <trkpt lat="43.54581" lon="2.78724">
        <ele>937.2</ele>
        <time>2026-05-22T07:03:14Z</time>
      </trkpt>
      <trkpt lat="43.54584" lon="2.78726">
        <ele>937.1</ele>
        <time>2026-05-22T07:03:19Z</time>
      </trkpt>
      <trkpt lat="43.54584" lon="2.78727">
        <ele>936.9</ele>
        <time>2026-05-22T07:03:24Z</time>
      </trkpt>
      <trkpt lat="43.54584" lon="2.78727">
        <ele>936.9</ele>
        <time>2026-05-22T07:03:29Z</time>
      </trkpt>
      <trkpt lat="43.54584" lon="2.78727">
        <ele>936.9</ele>
        <time>2026-05-22T07:03:34Z</time>
      </trkpt>
      <trkpt lat="43.54584" lon="2.78727">
        <ele>936.9</ele>
        <time>2026-05-22T07:03:39Z</time>
      </trkpt>
      <trkpt lat="43.54584" lon="2.78727">
        <ele>936.9</ele>
        <time>2026-05-22T07:03:44Z</time>
      </trkpt>
      <trkpt lat="43.54584" lon="2.78727">
        <ele>936.9</ele>
        <time>2026-05-22T07:03:49Z</time>
      </trkpt>
      <trkpt lat="43.54584" lon="2.78727">
        <ele>936.9</ele>
        <time>2026-05-22T07:03:54Z</time>
      </trkpt>
      <trkpt lat="43.54584" lon="2.78727">
        <ele>936.9</ele>
        <time>2026-05-22T07:03:59Z</time>
      </trkpt>
      <trkpt lat="43.54584" lon="2.78727">
        <ele>936.9</ele>
        <time>2026-05-22T07:04:04Z</time>
      </trkpt>
      <trkpt lat="43.54584" lon="2.78727">
        <ele>936.9</ele>
        <time>2026-05-22T07:04:09Z</time>
      </trkpt>
      <trkpt lat="43.54584" lon="2.78727">
        <ele>936.9</ele>
        <time>2026-05-22T07:04:14Z</time>
      </trkpt>
      <trkpt lat="43.54584" lon="2.78727">
        <ele>936.9</ele>
        <time>2026-05-22T07:04:19Z</time>
      </trkpt>
      <trkpt lat="43.54584" lon="2.78727">
        <ele>936.9</ele>
        <time>2026-05-22T07:04:24Z</time>
      </trkpt>
      <trkpt lat="43.54584" lon="2.78727">
        <ele>936.9</ele>
        <time>2026-05-22T07:04:29Z</time>
      </trkpt>
      <trkpt lat="43.54584" lon="2.78727">
        <ele>936.9</ele>
        <time>2026-05-22T07:04:34Z</time>
      </trkpt>
      <trkpt lat="43.54584" lon="2.78727">
        <ele>936.9</ele>
        <time>2026-05-22T07:04:39Z</time>
      </trkpt>
      <trkpt lat="43.54584" lon="2.78727">
        <ele>936.9</ele>
        <time>2026-05-22T07:04:44Z</time>
      </trkpt>
      <trkpt lat="43.54584" lon="2.78727">
        <ele>936.9</ele>
        <time>2026-05-22T07:04:49Z</time>
      </trkpt>
      <trkpt lat="43.54584" lon="2.78727">
        <ele>936.9</ele>
        <time>2026-05-22T07:04:54Z</time>
      </trkpt>
      <trkpt lat="43.54584" lon="2.78727">
        <ele>936.9</ele>
        <time>2026-05-22T07:04:59Z</time>
      </trkpt>
      <trkpt lat="43.54584" lon="2.78727">
        <ele>936.9</ele>
        <time>2026-05-22T07:05:04Z</time>
      </trkpt>
      <trkpt lat="43.54584" lon="2.78727">
        <ele>936.9</ele>
        <time>2026-05-22T07:05:09Z</time>
      </trkpt>
      <trkpt lat="43.54584" lon="2.78727">
        <ele>936.9</ele>
        <time>2026-05-22T07:05:14Z</time>
      </trkpt>
      <trkpt lat="43.54584" lon="2.78727">
        <ele>936.9</ele>
        <time>2026-05-22T07:05:19Z</time>
      </trkpt>
      <trkpt lat="43.54584" lon="2.78727">
        <ele>936.9</ele>
        <time>2026-05-22T07:05:24Z</time>
      </trkpt>
      <trkpt lat="43.54584" lon="2.78727">
        <ele>936.9</ele>
        <time>2026-05-22T07:05:29Z</time>
      </trkpt>
      <trkpt lat="43.54584" lon="2.78727">
        <ele>936.9</ele>
        <time>2026-05-22T07:05:34Z</time>
      </trkpt>
      <trkpt lat="43.54584" lon="2.78727">
        <ele>936.9</ele>
        <time>2026-05-22T07:05:39Z</time>
      </trkpt>
      <trkpt lat="43.54584" lon="2.78727">
        <ele>936.9</ele>
        <time>2026-05-22T07:05:44Z</time>
      </trkpt>
      <trkpt lat="43.54584" lon="2.78727">
        <ele>936.9</ele>
        <time>2026-05-22T07:05:49Z</time>
      </trkpt>
      <trkpt lat="43.54584" lon="2.78727">
        <ele>936.9</ele>
        <time>2026-05-22T07:05:54Z</time>
      </trkpt>
      <trkpt lat="43.54584" lon="2.78727">
        <ele>936.9</ele>
        <time>2026-05-22T07:05:59Z</time>
      </trkpt>
      <trkpt lat="43.54584" lon="2.78727">
        <ele>936.9</ele>
        <time>2026-05-22T07:06:04Z</time>
      </trkpt>
      <trkpt lat="43.54584" lon="2.78727">
        <ele>936.9</ele>
        <time>2026-05-22T07:06:09Z</time>
      </trkpt>
      <trkpt lat="43.54584" lon="2.78727">
        <ele>936.9</ele>
        <time>2026-05-22T07:06:14Z</time>
      </trkpt>
      <trkpt lat="43.54584" lon="2.78727">
        <ele>936.9</ele>
        <time>2026-05-22T07:06:19Z</time>
      </trkpt>
      <trkpt lat="43.54584" lon="2.78727">
        <ele>936.9</ele>
        <time>2026-05-22T07:06:24Z</time>
      </trkpt>
      <trkpt lat="43.54584" lon="2.78727">
        <ele>936.9</ele>
        <time>2026-05-22T07:06:29Z</time>
      </trkpt>
      <trkpt lat="43.54584" lon="2.78727">
        <ele>936.9</ele>
        <time>2026-05-22T07:06:34Z</time>
      </trkpt>
      <trkpt lat="43.54582" lon="2.78725">
        <ele>937.2</ele>
        <time>2026-05-22T07:06:39Z</time>
      </trkpt>
      <trkpt lat="43.54579" lon="2.78719">
        <ele>937.6</ele>
        <time>2026-05-22T07:06:44Z</time>
      </trkpt>
      <trkpt lat="43.54578" lon="2.78714">
        <ele>938.1</ele>
        <time>2026-05-22T07:06:49Z</time>
      </trkpt>
      <trkpt lat="43.54574" lon="2.78709">
        <ele>938.2</ele>
        <time>2026-05-22T07:06:54Z</time>
      </trkpt>
      <trkpt lat="43.54569" lon="2.78704">
        <ele>938.2</ele>
        <time>2026-05-22T07:06:59Z</time>
      </trkpt>
      <trkpt lat="43.54565" lon="2.78703">
        <ele>937.8</ele>
        <time>2026-05-22T07:07:04Z</time>
      </trkpt>
      <trkpt lat="43.54559" lon="2.78705">
        <ele>936.8</ele>
        <time>2026-05-22T07:07:09Z</time>
      </trkpt>
      <trkpt lat="43.54556" lon="2.78706">
        <ele>936.3</ele>
        <time>2026-05-22T07:07:14Z</time>
      </trkpt>
      <trkpt lat="43.54556" lon="2.78705">
        <ele>936.4</ele>
        <time>2026-05-22T07:07:19Z</time>
      </trkpt>
      <trkpt lat="43.54555" lon="2.78704">
        <ele>936.4</ele>
        <time>2026-05-22T07:07:24Z</time>
      </trkpt>
      <trkpt lat="43.54555" lon="2.78704">
        <ele>936.4</ele>
        <time>2026-05-22T07:07:29Z</time>
      </trkpt>
      <trkpt lat="43.54549" lon="2.78707">
        <ele>935.3</ele>
        <time>2026-05-22T07:07:34Z</time>
      </trkpt>
      <trkpt lat="43.54545" lon="2.78709">
        <ele>934.6</ele>
        <time>2026-05-22T07:07:39Z</time>
      </trkpt>
      <trkpt lat="43.5454" lon="2.78711">
        <ele>933.8</ele>
        <time>2026-05-22T07:07:44Z</time>
      </trkpt>
      <trkpt lat="43.54532" lon="2.78712">
        <ele>932.7</ele>
        <time>2026-05-22T07:07:49Z</time>
      </trkpt>
      <trkpt lat="43.54525" lon="2.78713">
        <ele>931.8</ele>
        <time>2026-05-22T07:07:54Z</time>
      </trkpt>
      <trkpt lat="43.54519" lon="2.78714">
        <ele>931</ele>
        <time>2026-05-22T07:07:59Z</time>
      </trkpt>
      <trkpt lat="43.54513" lon="2.78715">
        <ele>930.2</ele>
        <time>2026-05-22T07:08:04Z</time>
      </trkpt>
      <trkpt lat="43.54509" lon="2.78718">
        <ele>929.6</ele>
        <time>2026-05-22T07:08:09Z</time>
      </trkpt>
      <trkpt lat="43.54505" lon="2.78722">
        <ele>928.9</ele>
        <time>2026-05-22T07:08:14Z</time>
      </trkpt>
      <trkpt lat="43.54501" lon="2.78725">
        <ele>928.3</ele>
        <time>2026-05-22T07:08:19Z</time>
      </trkpt>
      <trkpt lat="43.54497" lon="2.78727">
        <ele>927.2</ele>
        <time>2026-05-22T07:08:24Z</time>
      </trkpt>
      <trkpt lat="43.54493" lon="2.7873">
        <ele>925.7</ele>
        <time>2026-05-22T07:08:29Z</time>
      </trkpt>
      <trkpt lat="43.54487" lon="2.78734">
        <ele>923.6</ele>
        <time>2026-05-22T07:08:34Z</time>
      </trkpt>
      <trkpt lat="43.5448" lon="2.78737">
        <ele>921.1</ele>
        <time>2026-05-22T07:08:39Z</time>
      </trkpt>
      <trkpt lat="43.54474" lon="2.78737">
        <ele>919.1</ele>
        <time>2026-05-22T07:08:44Z</time>
      </trkpt>
      <trkpt lat="43.54468" lon="2.78734">
        <ele>917.4</ele>
        <time>2026-05-22T07:08:49Z</time>
      </trkpt>
      <trkpt lat="43.54463" lon="2.78732">
        <ele>916</ele>
        <time>2026-05-22T07:08:54Z</time>
      </trkpt>
      <trkpt lat="43.54459" lon="2.78727">
        <ele>915.3</ele>
        <time>2026-05-22T07:08:59Z</time>
      </trkpt>
      <trkpt lat="43.54456" lon="2.78723">
        <ele>914.9</ele>
        <time>2026-05-22T07:09:04Z</time>
      </trkpt>
      <trkpt lat="43.54453" lon="2.78716">
        <ele>914.8</ele>
        <time>2026-05-22T07:09:09Z</time>
      </trkpt>
      <trkpt lat="43.54451" lon="2.78709">
        <ele>915.1</ele>
        <time>2026-05-22T07:09:14Z</time>
      </trkpt>
      <trkpt lat="43.54449" lon="2.78704">
        <ele>915.2</ele>
        <time>2026-05-22T07:09:19Z</time>
      </trkpt>
      <trkpt lat="43.54448" lon="2.78696">
        <ele>915.9</ele>
        <time>2026-05-22T07:09:24Z</time>
      </trkpt>
      <trkpt lat="43.54449" lon="2.78688">
        <ele>917.2</ele>
        <time>2026-05-22T07:09:29Z</time>
      </trkpt>
      <trkpt lat="43.54448" lon="2.78682">
        <ele>917.8</ele>
        <time>2026-05-22T07:09:34Z</time>
      </trkpt>
      <trkpt lat="43.54446" lon="2.78675">
        <ele>918.2</ele>
        <time>2026-05-22T07:09:39Z</time>
      </trkpt>
      <trkpt lat="43.54444" lon="2.78666">
        <ele>919</ele>
        <time>2026-05-22T07:09:44Z</time>
      </trkpt>
      <trkpt lat="43.54443" lon="2.78657">
        <ele>919.7</ele>
        <time>2026-05-22T07:09:49Z</time>
      </trkpt>
      <trkpt lat="43.54443" lon="2.78648">
        <ele>920.6</ele>
        <time>2026-05-22T07:09:54Z</time>
      </trkpt>
      <trkpt lat="43.54444" lon="2.7864">
        <ele>921.6</ele>
        <time>2026-05-22T07:09:59Z</time>
      </trkpt>
      <trkpt lat="43.54445" lon="2.78633">
        <ele>922.5</ele>
        <time>2026-05-22T07:10:04Z</time>
      </trkpt>
      <trkpt lat="43.54443" lon="2.78631">
        <ele>922.3</ele>
        <time>2026-05-22T07:10:09Z</time>
      </trkpt>
      <trkpt lat="43.54442" lon="2.78628">
        <ele>922.4</ele>
        <time>2026-05-22T07:10:14Z</time>
      </trkpt>
      <trkpt lat="43.54441" lon="2.78626">
        <ele>922.5</ele>
        <time>2026-05-22T07:10:19Z</time>
      </trkpt>
      <trkpt lat="43.54439" lon="2.78623">
        <ele>922.5</ele>
        <time>2026-05-22T07:10:24Z</time>
      </trkpt>
      <trkpt lat="43.54439" lon="2.78623">
        <ele>922.5</ele>
        <time>2026-05-22T07:10:29Z</time>
      </trkpt>
      <trkpt lat="43.54439" lon="2.78623">
        <ele>922.5</ele>
        <time>2026-05-22T07:10:34Z</time>
      </trkpt>
      <trkpt lat="43.54436" lon="2.7862">
        <ele>922.3</ele>
        <time>2026-05-22T07:10:39Z</time>
      </trkpt>
      <trkpt lat="43.54431" lon="2.78618">
        <ele>921.7</ele>
        <time>2026-05-22T07:10:44Z</time>
      </trkpt>
      <trkpt lat="43.54428" lon="2.78615">
        <ele>921.6</ele>
        <time>2026-05-22T07:10:49Z</time>
      </trkpt>
      <trkpt lat="43.54426" lon="2.7861">
        <ele>921.9</ele>
        <time>2026-05-22T07:10:54Z</time>
      </trkpt>
      <trkpt lat="43.54424" lon="2.78605">
        <ele>922.2</ele>
        <time>2026-05-22T07:10:59Z</time>
      </trkpt>
      <trkpt lat="43.54422" lon="2.78596">
        <ele>923</ele>
        <time>2026-05-22T07:11:04Z</time>
      </trkpt>
      <trkpt lat="43.54419" lon="2.78588">
        <ele>923.7</ele>
        <time>2026-05-22T07:11:09Z</time>
      </trkpt>
      <trkpt lat="43.54418" lon="2.78579">
        <ele>924.5</ele>
        <time>2026-05-22T07:11:14Z</time>
      </trkpt>
      <trkpt lat="43.54415" lon="2.7857">
        <ele>924.7</ele>
        <time>2026-05-22T07:11:19Z</time>
      </trkpt>
      <trkpt lat="43.54412" lon="2.78558">
        <ele>925</ele>
        <time>2026-05-22T07:11:24Z</time>
      </trkpt>
      <trkpt lat="43.54409" lon="2.78546">
        <ele>925.3</ele>
        <time>2026-05-22T07:11:29Z</time>
      </trkpt>
      <trkpt lat="43.54406" lon="2.78543">
        <ele>924.9</ele>
        <time>2026-05-22T07:11:34Z</time>
      </trkpt>
      <trkpt lat="43.54399" lon="2.78537">
        <ele>924</ele>
        <time>2026-05-22T07:11:39Z</time>
      </trkpt>
      <trkpt lat="43.54392" lon="2.78535">
        <ele>922.7</ele>
        <time>2026-05-22T07:11:44Z</time>
      </trkpt>
      <trkpt lat="43.54385" lon="2.78534">
        <ele>921.3</ele>
        <time>2026-05-22T07:11:49Z</time>
      </trkpt>
      <trkpt lat="43.54379" lon="2.78531">
        <ele>920.4</ele>
        <time>2026-05-22T07:11:54Z</time>
      </trkpt>
      <trkpt lat="43.54374" lon="2.78529">
        <ele>919.6</ele>
        <time>2026-05-22T07:11:59Z</time>
      </trkpt>
      <trkpt lat="43.54368" lon="2.78526">
        <ele>918.8</ele>
        <time>2026-05-22T07:12:04Z</time>
      </trkpt>
      <trkpt lat="43.54363" lon="2.78522">
        <ele>918.4</ele>
        <time>2026-05-22T07:12:09Z</time>
      </trkpt>
      <trkpt lat="43.54358" lon="2.78515">
        <ele>918.6</ele>
        <time>2026-05-22T07:12:14Z</time>
      </trkpt>
      <trkpt lat="43.54355" lon="2.78509">
        <ele>919.1</ele>
        <time>2026-05-22T07:12:19Z</time>
      </trkpt>
      <trkpt lat="43.54353" lon="2.78508">
        <ele>918.9</ele>
        <time>2026-05-22T07:12:24Z</time>
      </trkpt>
      <trkpt lat="43.54353" lon="2.78508">
        <ele>918.9</ele>
        <time>2026-05-22T07:12:29Z</time>
      </trkpt>
      <trkpt lat="43.54353" lon="2.78508">
        <ele>918.9</ele>
        <time>2026-05-22T07:12:34Z</time>
      </trkpt>
      <trkpt lat="43.54353" lon="2.78508">
        <ele>918.9</ele>
        <time>2026-05-22T07:12:39Z</time>
      </trkpt>
      <trkpt lat="43.54353" lon="2.78508">
        <ele>918.9</ele>
        <time>2026-05-22T07:12:44Z</time>
      </trkpt>
      <trkpt lat="43.54348" lon="2.78503">
        <ele>918.9</ele>
        <time>2026-05-22T07:12:49Z</time>
      </trkpt>
      <trkpt lat="43.54346" lon="2.78493">
        <ele>920.7</ele>
        <time>2026-05-22T07:12:54Z</time>
      </trkpt>
      <trkpt lat="43.54344" lon="2.78482">
        <ele>922.8</ele>
        <time>2026-05-22T07:12:59Z</time>
      </trkpt>
      <trkpt lat="43.54343" lon="2.78472">
        <ele>924.9</ele>
        <time>2026-05-22T07:13:04Z</time>
      </trkpt>
      <trkpt lat="43.54341" lon="2.78464">
        <ele>926.5</ele>
        <time>2026-05-22T07:13:09Z</time>
      </trkpt>
      <trkpt lat="43.54339" lon="2.78457">
        <ele>927.9</ele>
        <time>2026-05-22T07:13:14Z</time>
      </trkpt>
      <trkpt lat="43.54334" lon="2.78451">
        <ele>928.8</ele>
        <time>2026-05-22T07:13:19Z</time>
      </trkpt>
      <trkpt lat="43.54328" lon="2.78443">
        <ele>929.6</ele>
        <time>2026-05-22T07:13:24Z</time>
      </trkpt>
      <trkpt lat="43.54323" lon="2.78437">
        <ele>930.2</ele>
        <time>2026-05-22T07:13:29Z</time>
      </trkpt>
      <trkpt lat="43.54318" lon="2.78432">
        <ele>930.7</ele>
        <time>2026-05-22T07:13:34Z</time>
      </trkpt>
      <trkpt lat="43.54312" lon="2.78425">
        <ele>931.7</ele>
        <time>2026-05-22T07:13:39Z</time>
      </trkpt>
      <trkpt lat="43.54306" lon="2.78421">
        <ele>932</ele>
        <time>2026-05-22T07:13:44Z</time>
      </trkpt>
      <trkpt lat="43.54296" lon="2.7842">
        <ele>930.9</ele>
        <time>2026-05-22T07:13:49Z</time>
      </trkpt>
      <trkpt lat="43.54288" lon="2.78417">
        <ele>930.9</ele>
        <time>2026-05-22T07:13:54Z</time>
      </trkpt>
      <trkpt lat="43.54282" lon="2.78416">
        <ele>930.4</ele>
        <time>2026-05-22T07:13:59Z</time>
      </trkpt>
      <trkpt lat="43.54274" lon="2.78413">
        <ele>930.1</ele>
        <time>2026-05-22T07:14:04Z</time>
      </trkpt>
      <trkpt lat="43.54266" lon="2.78411">
        <ele>929.7</ele>
        <time>2026-05-22T07:14:09Z</time>
      </trkpt>
      <trkpt lat="43.54258" lon="2.78413">
        <ele>928.1</ele>
        <time>2026-05-22T07:14:14Z</time>
      </trkpt>
      <trkpt lat="43.54251" lon="2.78414">
        <ele>927</ele>
        <time>2026-05-22T07:14:19Z</time>
      </trkpt>
      <trkpt lat="43.54243" lon="2.78415">
        <ele>925.4</ele>
        <time>2026-05-22T07:14:24Z</time>
      </trkpt>
      <trkpt lat="43.54234" lon="2.78415">
        <ele>923.8</ele>
        <time>2026-05-22T07:14:29Z</time>
      </trkpt>
      <trkpt lat="43.54228" lon="2.78414">
        <ele>923.2</ele>
        <time>2026-05-22T07:14:34Z</time>
      </trkpt>
      <trkpt lat="43.54222" lon="2.78413">
        <ele>922.5</ele>
        <time>2026-05-22T07:14:39Z</time>
      </trkpt>
      <trkpt lat="43.54216" lon="2.78411">
        <ele>922.2</ele>
        <time>2026-05-22T07:14:44Z</time>
      </trkpt>
      <trkpt lat="43.54209" lon="2.78408">
        <ele>922</ele>
        <time>2026-05-22T07:14:49Z</time>
      </trkpt>
      <trkpt lat="43.54203" lon="2.78405">
        <ele>922.1</ele>
        <time>2026-05-22T07:14:54Z</time>
      </trkpt>
      <trkpt lat="43.54198" lon="2.78401">
        <ele>922.6</ele>
        <time>2026-05-22T07:14:59Z</time>
      </trkpt>
      <trkpt lat="43.54192" lon="2.78397">
        <ele>923</ele>
        <time>2026-05-22T07:15:04Z</time>
      </trkpt>
      <trkpt lat="43.54186" lon="2.78393">
        <ele>923.5</ele>
        <time>2026-05-22T07:15:09Z</time>
      </trkpt>
      <trkpt lat="43.54178" lon="2.78389">
        <ele>923.7</ele>
        <time>2026-05-22T07:15:14Z</time>
      </trkpt>
      <trkpt lat="43.54172" lon="2.78386">
        <ele>923.8</ele>
        <time>2026-05-22T07:15:19Z</time>
      </trkpt>
      <trkpt lat="43.54166" lon="2.78382">
        <ele>924.3</ele>
        <time>2026-05-22T07:15:24Z</time>
      </trkpt>
      <trkpt lat="43.54159" lon="2.78378">
        <ele>924.3</ele>
        <time>2026-05-22T07:15:29Z</time>
      </trkpt>
      <trkpt lat="43.54152" lon="2.78374">
        <ele>924.4</ele>
        <time>2026-05-22T07:15:34Z</time>
      </trkpt>
      <trkpt lat="43.54145" lon="2.7837">
        <ele>924.5</ele>
        <time>2026-05-22T07:15:39Z</time>
      </trkpt>
      <trkpt lat="43.5414" lon="2.78368">
        <ele>924.2</ele>
        <time>2026-05-22T07:15:44Z</time>
      </trkpt>
      <trkpt lat="43.54133" lon="2.78364">
        <ele>924.4</ele>
        <time>2026-05-22T07:15:49Z</time>
      </trkpt>
      <trkpt lat="43.54128" lon="2.78361">
        <ele>924.6</ele>
        <time>2026-05-22T07:15:54Z</time>
      </trkpt>
      <trkpt lat="43.54122" lon="2.78358">
        <ele>924.7</ele>
        <time>2026-05-22T07:15:59Z</time>
      </trkpt>
      <trkpt lat="43.54116" lon="2.78355">
        <ele>924.7</ele>
        <time>2026-05-22T07:16:04Z</time>
      </trkpt>
      <trkpt lat="43.5411" lon="2.78352">
        <ele>924.8</ele>
        <time>2026-05-22T07:16:09Z</time>
      </trkpt>
      <trkpt lat="43.54105" lon="2.78348">
        <ele>925.6</ele>
        <time>2026-05-22T07:16:14Z</time>
      </trkpt>
      <trkpt lat="43.54099" lon="2.78342">
        <ele>927</ele>
        <time>2026-05-22T07:16:19Z</time>
      </trkpt>
      <trkpt lat="43.54092" lon="2.78338">
        <ele>927.5</ele>
        <time>2026-05-22T07:16:24Z</time>
      </trkpt>
      <trkpt lat="43.54086" lon="2.78332">
        <ele>928.9</ele>
        <time>2026-05-22T07:16:29Z</time>
      </trkpt>
      <trkpt lat="43.54078" lon="2.78328">
        <ele>928.5</ele>
        <time>2026-05-22T07:16:34Z</time>
      </trkpt>
      <trkpt lat="43.54072" lon="2.78323">
        <ele>928.6</ele>
        <time>2026-05-22T07:16:39Z</time>
      </trkpt>
      <trkpt lat="43.54065" lon="2.78319">
        <ele>927.9</ele>
        <time>2026-05-22T07:16:44Z</time>
      </trkpt>
      <trkpt lat="43.5406" lon="2.78313">
        <ele>928.5</ele>
        <time>2026-05-22T07:16:49Z</time>
      </trkpt>
      <trkpt lat="43.54053" lon="2.78306">
        <ele>928.6</ele>
        <time>2026-05-22T07:16:54Z</time>
      </trkpt>
      <trkpt lat="43.54048" lon="2.78302">
        <ele>928.4</ele>
        <time>2026-05-22T07:16:59Z</time>
      </trkpt>
      <trkpt lat="43.54042" lon="2.78298">
        <ele>927.7</ele>
        <time>2026-05-22T07:17:04Z</time>
      </trkpt>
      <trkpt lat="43.54036" lon="2.78293">
        <ele>927.3</ele>
        <time>2026-05-22T07:17:09Z</time>
      </trkpt>
      <trkpt lat="43.54029" lon="2.78291">
        <ele>925.6</ele>
        <time>2026-05-22T07:17:14Z</time>
      </trkpt>
      <trkpt lat="43.54024" lon="2.78288">
        <ele>924.8</ele>
        <time>2026-05-22T07:17:19Z</time>
      </trkpt>
      <trkpt lat="43.54019" lon="2.78281">
        <ele>925</ele>
        <time>2026-05-22T07:17:24Z</time>
      </trkpt>
      <trkpt lat="43.54014" lon="2.78279">
        <ele>923.8</ele>
        <time>2026-05-22T07:17:29Z</time>
      </trkpt>
      <trkpt lat="43.54007" lon="2.78278">
        <ele>921.7</ele>
        <time>2026-05-22T07:17:34Z</time>
      </trkpt>
      <trkpt lat="43.54" lon="2.78274">
        <ele>920.2</ele>
        <time>2026-05-22T07:17:39Z</time>
      </trkpt>
      <trkpt lat="43.53992" lon="2.78274">
        <ele>915.9</ele>
        <time>2026-05-22T07:17:44Z</time>
      </trkpt>
      <trkpt lat="43.53986" lon="2.78275">
        <ele>912.4</ele>
        <time>2026-05-22T07:17:49Z</time>
      </trkpt>
      <trkpt lat="43.53978" lon="2.78275">
        <ele>908.1</ele>
        <time>2026-05-22T07:17:54Z</time>
      </trkpt>
      <trkpt lat="43.53971" lon="2.78275">
        <ele>904.3</ele>
        <time>2026-05-22T07:17:59Z</time>
      </trkpt>
      <trkpt lat="43.53965" lon="2.78276">
        <ele>900.8</ele>
        <time>2026-05-22T07:18:04Z</time>
      </trkpt>
      <trkpt lat="43.53957" lon="2.78272">
        <ele>897.4</ele>
        <time>2026-05-22T07:18:09Z</time>
      </trkpt>
      <trkpt lat="43.53949" lon="2.78268">
        <ele>893.9</ele>
        <time>2026-05-22T07:18:14Z</time>
      </trkpt>
      <trkpt lat="43.53948" lon="2.78261">
        <ele>894.9</ele>
        <time>2026-05-22T07:18:19Z</time>
      </trkpt>
      <trkpt lat="43.5395" lon="2.78254">
        <ele>897.5</ele>
        <time>2026-05-22T07:18:24Z</time>
      </trkpt>
      <trkpt lat="43.53948" lon="2.78245">
        <ele>898.6</ele>
        <time>2026-05-22T07:18:29Z</time>
      </trkpt>
      <trkpt lat="43.53951" lon="2.78236">
        <ele>902.4</ele>
        <time>2026-05-22T07:18:34Z</time>
      </trkpt>
      <trkpt lat="43.53952" lon="2.78229">
        <ele>904.7</ele>
        <time>2026-05-22T07:18:39Z</time>
      </trkpt>
      <trkpt lat="43.53953" lon="2.78221">
        <ele>907.2</ele>
        <time>2026-05-22T07:18:44Z</time>
      </trkpt>
      <trkpt lat="43.53953" lon="2.78213">
        <ele>909.2</ele>
        <time>2026-05-22T07:18:49Z</time>
      </trkpt>
      <trkpt lat="43.53952" lon="2.78204">
        <ele>910.9</ele>
        <time>2026-05-22T07:18:54Z</time>
      </trkpt>
      <trkpt lat="43.53952" lon="2.78196">
        <ele>912.9</ele>
        <time>2026-05-22T07:18:59Z</time>
      </trkpt>
      <trkpt lat="43.53953" lon="2.78189">
        <ele>915.1</ele>
        <time>2026-05-22T07:19:04Z</time>
      </trkpt>
      <trkpt lat="43.53951" lon="2.78175">
        <ele>917.6</ele>
        <time>2026-05-22T07:19:09Z</time>
      </trkpt>
      <trkpt lat="43.53948" lon="2.78166">
        <ele>918.5</ele>
        <time>2026-05-22T07:19:14Z</time>
      </trkpt>
      <trkpt lat="43.53946" lon="2.78156">
        <ele>921.3</ele>
        <time>2026-05-22T07:19:19Z</time>
      </trkpt>
      <trkpt lat="43.53942" lon="2.78147">
        <ele>923</ele>
        <time>2026-05-22T07:19:24Z</time>
      </trkpt>
      <trkpt lat="43.53939" lon="2.78137">
        <ele>925.5</ele>
        <time>2026-05-22T07:19:29Z</time>
      </trkpt>
      <trkpt lat="43.53935" lon="2.78128">
        <ele>927.4</ele>
        <time>2026-05-22T07:19:34Z</time>
      </trkpt>
      <trkpt lat="43.53932" lon="2.78121">
        <ele>929</ele>
        <time>2026-05-22T07:19:39Z</time>
      </trkpt>
      <trkpt lat="43.53928" lon="2.78116">
        <ele>929.5</ele>
        <time>2026-05-22T07:19:44Z</time>
      </trkpt>
      <trkpt lat="43.53926" lon="2.7811">
        <ele>931.1</ele>
        <time>2026-05-22T07:19:49Z</time>
      </trkpt>
      <trkpt lat="43.53924" lon="2.78102">
        <ele>933.7</ele>
        <time>2026-05-22T07:19:54Z</time>
      </trkpt>
      <trkpt lat="43.5392" lon="2.78095">
        <ele>935.2</ele>
        <time>2026-05-22T07:19:59Z</time>
      </trkpt>
      <trkpt lat="43.53917" lon="2.78089">
        <ele>936.7</ele>
        <time>2026-05-22T07:20:04Z</time>
      </trkpt>
      <trkpt lat="43.53914" lon="2.78085">
        <ele>937.7</ele>
        <time>2026-05-22T07:20:09Z</time>
      </trkpt>
      <trkpt lat="43.5391" lon="2.78077">
        <ele>940.3</ele>
        <time>2026-05-22T07:20:14Z</time>
      </trkpt>
      <trkpt lat="43.53907" lon="2.7807">
        <ele>942.7</ele>
        <time>2026-05-22T07:20:19Z</time>
      </trkpt>
      <trkpt lat="43.53905" lon="2.78062">
        <ele>945.7</ele>
        <time>2026-05-22T07:20:24Z</time>
      </trkpt>
      <trkpt lat="43.53902" lon="2.78058">
        <ele>946.8</ele>
        <time>2026-05-22T07:20:29Z</time>
      </trkpt>
      <trkpt lat="43.53898" lon="2.78052">
        <ele>948.5</ele>
        <time>2026-05-22T07:20:34Z</time>
      </trkpt>
      <trkpt lat="43.53896" lon="2.78046">
        <ele>950.6</ele>
        <time>2026-05-22T07:20:39Z</time>
      </trkpt>
      <trkpt lat="43.5389" lon="2.78041">
        <ele>951.4</ele>
        <time>2026-05-22T07:20:44Z</time>
      </trkpt>
      <trkpt lat="43.53885" lon="2.78035">
        <ele>952.8</ele>
        <time>2026-05-22T07:20:49Z</time>
      </trkpt>
      <trkpt lat="43.53879" lon="2.78029">
        <ele>953.9</ele>
        <time>2026-05-22T07:20:54Z</time>
      </trkpt>
      <trkpt lat="43.53872" lon="2.78027">
        <ele>953.1</ele>
        <time>2026-05-22T07:20:59Z</time>
      </trkpt>
      <trkpt lat="43.53866" lon="2.78027">
        <ele>951.6</ele>
        <time>2026-05-22T07:21:04Z</time>
      </trkpt>
      <trkpt lat="43.53861" lon="2.78028">
        <ele>950</ele>
        <time>2026-05-22T07:21:09Z</time>
      </trkpt>
      <trkpt lat="43.53855" lon="2.78028">
        <ele>948.5</ele>
        <time>2026-05-22T07:21:14Z</time>
      </trkpt>
      <trkpt lat="43.53849" lon="2.78028">
        <ele>947.1</ele>
        <time>2026-05-22T07:21:19Z</time>
      </trkpt>
      <trkpt lat="43.53845" lon="2.78028">
        <ele>946.1</ele>
        <time>2026-05-22T07:21:24Z</time>
      </trkpt>
      <trkpt lat="43.53841" lon="2.78027">
        <ele>945.5</ele>
        <time>2026-05-22T07:21:29Z</time>
      </trkpt>
      <trkpt lat="43.53835" lon="2.78026">
        <ele>944.5</ele>
        <time>2026-05-22T07:21:34Z</time>
      </trkpt>
      <trkpt lat="43.53829" lon="2.78026">
        <ele>943.1</ele>
        <time>2026-05-22T07:21:39Z</time>
      </trkpt>
      <trkpt lat="43.53822" lon="2.78025">
        <ele>941.9</ele>
        <time>2026-05-22T07:21:44Z</time>
      </trkpt>
      <trkpt lat="43.53817" lon="2.78025">
        <ele>940.8</ele>
        <time>2026-05-22T07:21:49Z</time>
      </trkpt>
      <trkpt lat="43.53812" lon="2.78025">
        <ele>939.7</ele>
        <time>2026-05-22T07:21:54Z</time>
      </trkpt>
      <trkpt lat="43.53807" lon="2.78023">
        <ele>939.3</ele>
        <time>2026-05-22T07:21:59Z</time>
      </trkpt>
      <trkpt lat="43.53803" lon="2.78017">
        <ele>940.7</ele>
        <time>2026-05-22T07:22:04Z</time>
      </trkpt>
      <trkpt lat="43.53799" lon="2.78012">
        <ele>941.7</ele>
        <time>2026-05-22T07:22:09Z</time>
      </trkpt>
      <trkpt lat="43.53795" lon="2.78005">
        <ele>943.4</ele>
        <time>2026-05-22T07:22:14Z</time>
      </trkpt>
      <trkpt lat="43.5379" lon="2.78">
        <ele>944.1</ele>
        <time>2026-05-22T07:22:19Z</time>
      </trkpt>
      <trkpt lat="43.53787" lon="2.77994">
        <ele>944.7</ele>
        <time>2026-05-22T07:22:24Z</time>
      </trkpt>
      <trkpt lat="43.53784" lon="2.77988">
        <ele>945.2</ele>
        <time>2026-05-22T07:22:29Z</time>
      </trkpt>
      <trkpt lat="43.5378" lon="2.77983">
        <ele>945.2</ele>
        <time>2026-05-22T07:22:34Z</time>
      </trkpt>
      <trkpt lat="43.53776" lon="2.77978">
        <ele>945.2</ele>
        <time>2026-05-22T07:22:39Z</time>
      </trkpt>
      <trkpt lat="43.53771" lon="2.77971">
        <ele>945.1</ele>
        <time>2026-05-22T07:22:44Z</time>
      </trkpt>
      <trkpt lat="43.53765" lon="2.77965">
        <ele>944.5</ele>
        <time>2026-05-22T07:22:49Z</time>
      </trkpt>
      <trkpt lat="43.5376" lon="2.77959">
        <ele>944.1</ele>
        <time>2026-05-22T07:22:54Z</time>
      </trkpt>
      <trkpt lat="43.53753" lon="2.77956">
        <ele>942.4</ele>
        <time>2026-05-22T07:22:59Z</time>
      </trkpt>
      <trkpt lat="43.53745" lon="2.77954">
        <ele>939.5</ele>
        <time>2026-05-22T07:23:04Z</time>
      </trkpt>
      <trkpt lat="43.5374" lon="2.77951">
        <ele>937.7</ele>
        <time>2026-05-22T07:23:09Z</time>
      </trkpt>
      <trkpt lat="43.53735" lon="2.77947">
        <ele>936.1</ele>
        <time>2026-05-22T07:23:14Z</time>
      </trkpt>
      <trkpt lat="43.53731" lon="2.77941">
        <ele>935.3</ele>
        <time>2026-05-22T07:23:19Z</time>
      </trkpt>
      <trkpt lat="43.53726" lon="2.77936">
        <ele>933.8</ele>
        <time>2026-05-22T07:23:24Z</time>
      </trkpt>
      <trkpt lat="43.53723" lon="2.7793">
        <ele>933.3</ele>
        <time>2026-05-22T07:23:29Z</time>
      </trkpt>
      <trkpt lat="43.53721" lon="2.77923">
        <ele>933.5</ele>
        <time>2026-05-22T07:23:34Z</time>
      </trkpt>
      <trkpt lat="43.5372" lon="2.77914">
        <ele>934</ele>
        <time>2026-05-22T07:23:39Z</time>
      </trkpt>
      <trkpt lat="43.53719" lon="2.77906">
        <ele>933.7</ele>
        <time>2026-05-22T07:23:44Z</time>
      </trkpt>
      <trkpt lat="43.53718" lon="2.77899">
        <ele>933.4</ele>
        <time>2026-05-22T07:23:49Z</time>
      </trkpt>
      <trkpt lat="43.53718" lon="2.77891">
        <ele>933.6</ele>
        <time>2026-05-22T07:23:54Z</time>
      </trkpt>
      <trkpt lat="43.53716" lon="2.77884">
        <ele>932.8</ele>
        <time>2026-05-22T07:23:59Z</time>
      </trkpt>
      <trkpt lat="43.53716" lon="2.77877">
        <ele>932.9</ele>
        <time>2026-05-22T07:24:04Z</time>
      </trkpt>
      <trkpt lat="43.53718" lon="2.77867">
        <ele>934.1</ele>
        <time>2026-05-22T07:24:09Z</time>
      </trkpt>
      <trkpt lat="43.53715" lon="2.77853">
        <ele>932.9</ele>
        <time>2026-05-22T07:24:14Z</time>
      </trkpt>
      <trkpt lat="43.53715" lon="2.77847">
        <ele>933.1</ele>
        <time>2026-05-22T07:24:19Z</time>
      </trkpt>
      <trkpt lat="43.53714" lon="2.77849">
        <ele>932.5</ele>
        <time>2026-05-22T07:24:24Z</time>
      </trkpt>
      <trkpt lat="43.53714" lon="2.77849">
        <ele>932.5</ele>
        <time>2026-05-22T07:24:29Z</time>
      </trkpt>
      <trkpt lat="43.53714" lon="2.77849">
        <ele>932.5</ele>
        <time>2026-05-22T07:24:34Z</time>
      </trkpt>
      <trkpt lat="43.53714" lon="2.77849">
        <ele>932.5</ele>
        <time>2026-05-22T07:24:39Z</time>
      </trkpt>
      <trkpt lat="43.53714" lon="2.77849">
        <ele>932.5</ele>
        <time>2026-05-22T07:24:44Z</time>
      </trkpt>
      <trkpt lat="43.53714" lon="2.77849">
        <ele>932.5</ele>
        <time>2026-05-22T07:24:49Z</time>
      </trkpt>
      <trkpt lat="43.53714" lon="2.77849">
        <ele>932.5</ele>
        <time>2026-05-22T07:24:54Z</time>
      </trkpt>
      <trkpt lat="43.53714" lon="2.77849">
        <ele>932.5</ele>
        <time>2026-05-22T07:24:59Z</time>
      </trkpt>
      <trkpt lat="43.53714" lon="2.77849">
        <ele>932.5</ele>
        <time>2026-05-22T07:25:04Z</time>
      </trkpt>
      <trkpt lat="43.53714" lon="2.77849">
        <ele>932.5</ele>
        <time>2026-05-22T07:25:09Z</time>
      </trkpt>
      <trkpt lat="43.53714" lon="2.77849">
        <ele>932.5</ele>
        <time>2026-05-22T07:25:14Z</time>
      </trkpt>
      <trkpt lat="43.53714" lon="2.77849">
        <ele>932.5</ele>
        <time>2026-05-22T07:25:19Z</time>
      </trkpt>
      <trkpt lat="43.53714" lon="2.77849">
        <ele>932.5</ele>
        <time>2026-05-22T07:25:24Z</time>
      </trkpt>
      <trkpt lat="43.53706" lon="2.77841">
        <ele>928.7</ele>
        <time>2026-05-22T07:25:29Z</time>
      </trkpt>
      <trkpt lat="43.53706" lon="2.77839">
        <ele>928.7</ele>
        <time>2026-05-22T07:25:34Z</time>
      </trkpt>
      <trkpt lat="43.53706" lon="2.77839">
        <ele>928.7</ele>
        <time>2026-05-22T07:25:39Z</time>
      </trkpt>
      <trkpt lat="43.53706" lon="2.77839">
        <ele>928.7</ele>
        <time>2026-05-22T07:25:44Z</time>
      </trkpt>
      <trkpt lat="43.53706" lon="2.77839">
        <ele>928.7</ele>
        <time>2026-05-22T07:25:49Z</time>
      </trkpt>
      <trkpt lat="43.53706" lon="2.77839">
        <ele>928.7</ele>
        <time>2026-05-22T07:25:54Z</time>
      </trkpt>
      <trkpt lat="43.53706" lon="2.77839">
        <ele>928.7</ele>
        <time>2026-05-22T07:25:59Z</time>
      </trkpt>
      <trkpt lat="43.53706" lon="2.77839">
        <ele>928.7</ele>
        <time>2026-05-22T07:26:04Z</time>
      </trkpt>
      <trkpt lat="43.53706" lon="2.77839">
        <ele>928.7</ele>
        <time>2026-05-22T07:26:09Z</time>
      </trkpt>
      <trkpt lat="43.53706" lon="2.77839">
        <ele>928.7</ele>
        <time>2026-05-22T07:26:14Z</time>
      </trkpt>
      <trkpt lat="43.53706" lon="2.77839">
        <ele>928.7</ele>
        <time>2026-05-22T07:26:19Z</time>
      </trkpt>
      <trkpt lat="43.53706" lon="2.77839">
        <ele>928.7</ele>
        <time>2026-05-22T07:26:24Z</time>
      </trkpt>
      <trkpt lat="43.53706" lon="2.77839">
        <ele>928.7</ele>
        <time>2026-05-22T07:26:29Z</time>
      </trkpt>
      <trkpt lat="43.53706" lon="2.77839">
        <ele>928.7</ele>
        <time>2026-05-22T07:26:34Z</time>
      </trkpt>
      <trkpt lat="43.53706" lon="2.77839">
        <ele>928.7</ele>
        <time>2026-05-22T07:26:39Z</time>
      </trkpt>
      <trkpt lat="43.53706" lon="2.77839">
        <ele>928.7</ele>
        <time>2026-05-22T07:26:44Z</time>
      </trkpt>
      <trkpt lat="43.53706" lon="2.77839">
        <ele>928.7</ele>
        <time>2026-05-22T07:26:49Z</time>
      </trkpt>
      <trkpt lat="43.53706" lon="2.77839">
        <ele>928.7</ele>
        <time>2026-05-22T07:26:54Z</time>
      </trkpt>
      <trkpt lat="43.53706" lon="2.77839">
        <ele>928.7</ele>
        <time>2026-05-22T07:26:59Z</time>
      </trkpt>
      <trkpt lat="43.53706" lon="2.77839">
        <ele>928.7</ele>
        <time>2026-05-22T07:27:04Z</time>
      </trkpt>
      <trkpt lat="43.53706" lon="2.77839">
        <ele>928.7</ele>
        <time>2026-05-22T07:27:09Z</time>
      </trkpt>
      <trkpt lat="43.53707" lon="2.77833">
        <ele>929.3</ele>
        <time>2026-05-22T07:27:14Z</time>
      </trkpt>
      <trkpt lat="43.53709" lon="2.77825">
        <ele>929.8</ele>
        <time>2026-05-22T07:27:19Z</time>
      </trkpt>
      <trkpt lat="43.5371" lon="2.77816">
        <ele>929.8</ele>
        <time>2026-05-22T07:27:24Z</time>
      </trkpt>
      <trkpt lat="43.53712" lon="2.77809">
        <ele>930.4</ele>
        <time>2026-05-22T07:27:29Z</time>
      </trkpt>
      <trkpt lat="43.53714" lon="2.778">
        <ele>930.9</ele>
        <time>2026-05-22T07:27:34Z</time>
      </trkpt>
      <trkpt lat="43.53714" lon="2.77792">
        <ele>930.4</ele>
        <time>2026-05-22T07:27:39Z</time>
      </trkpt>
      <trkpt lat="43.53712" lon="2.77782">
        <ele>928.8</ele>
        <time>2026-05-22T07:27:44Z</time>
      </trkpt>
      <trkpt lat="43.53713" lon="2.77778">
        <ele>929</ele>
        <time>2026-05-22T07:27:49Z</time>
      </trkpt>
      <trkpt lat="43.53714" lon="2.77778">
        <ele>929.5</ele>
        <time>2026-05-22T07:27:54Z</time>
      </trkpt>
      <trkpt lat="43.53714" lon="2.77778">
        <ele>929.5</ele>
        <time>2026-05-22T07:27:59Z</time>
      </trkpt>
      <trkpt lat="43.53715" lon="2.77769">
        <ele>929.5</ele>
        <time>2026-05-22T07:28:04Z</time>
      </trkpt>
      <trkpt lat="43.53715" lon="2.77761">
        <ele>929</ele>
        <time>2026-05-22T07:28:09Z</time>
      </trkpt>
      <trkpt lat="43.53716" lon="2.77751">
        <ele>928.9</ele>
        <time>2026-05-22T07:28:14Z</time>
      </trkpt>
      <trkpt lat="43.53718" lon="2.77747">
        <ele>929.7</ele>
        <time>2026-05-22T07:28:19Z</time>
      </trkpt>
      <trkpt lat="43.53718" lon="2.77731">
        <ele>928.6</ele>
        <time>2026-05-22T07:28:24Z</time>
      </trkpt>
      <trkpt lat="43.53717" lon="2.77715">
        <ele>926.9</ele>
        <time>2026-05-22T07:28:29Z</time>
      </trkpt>
      <trkpt lat="43.53717" lon="2.77702">
        <ele>926</ele>
        <time>2026-05-22T07:28:34Z</time>
      </trkpt>
      <trkpt lat="43.53719" lon="2.77692">
        <ele>926.4</ele>
        <time>2026-05-22T07:28:39Z</time>
      </trkpt>
      <trkpt lat="43.5372" lon="2.77684">
        <ele>926.3</ele>
        <time>2026-05-22T07:28:44Z</time>
      </trkpt>
      <trkpt lat="43.53721" lon="2.77676">
        <ele>926.3</ele>
        <time>2026-05-22T07:28:49Z</time>
      </trkpt>
      <trkpt lat="43.53724" lon="2.77668">
        <ele>927.4</ele>
        <time>2026-05-22T07:28:54Z</time>
      </trkpt>
      <trkpt lat="43.53725" lon="2.77658">
        <ele>927.3</ele>
        <time>2026-05-22T07:28:59Z</time>
      </trkpt>
      <trkpt lat="43.53726" lon="2.77647">
        <ele>927.2</ele>
        <time>2026-05-22T07:29:04Z</time>
      </trkpt>
      <trkpt lat="43.53727" lon="2.77638">
        <ele>927.3</ele>
        <time>2026-05-22T07:29:09Z</time>
      </trkpt>
      <trkpt lat="43.53727" lon="2.77627">
        <ele>926.7</ele>
        <time>2026-05-22T07:29:14Z</time>
      </trkpt>
      <trkpt lat="43.5373" lon="2.77618">
        <ele>927.8</ele>
        <time>2026-05-22T07:29:19Z</time>
      </trkpt>
      <trkpt lat="43.53732" lon="2.77608">
        <ele>928.4</ele>
        <time>2026-05-22T07:29:24Z</time>
      </trkpt>
      <trkpt lat="43.53734" lon="2.77601">
        <ele>929.1</ele>
        <time>2026-05-22T07:29:29Z</time>
      </trkpt>
      <trkpt lat="43.53734" lon="2.77593">
        <ele>928.7</ele>
        <time>2026-05-22T07:29:34Z</time>
      </trkpt>
      <trkpt lat="43.53735" lon="2.77583">
        <ele>928.7</ele>
        <time>2026-05-22T07:29:39Z</time>
      </trkpt>
      <trkpt lat="43.53738" lon="2.77571">
        <ele>930.2</ele>
        <time>2026-05-22T07:29:44Z</time>
      </trkpt>
      <trkpt lat="43.5374" lon="2.77561">
        <ele>931.1</ele>
        <time>2026-05-22T07:29:49Z</time>
      </trkpt>
      <trkpt lat="43.53741" lon="2.7755">
        <ele>931.5</ele>
        <time>2026-05-22T07:29:54Z</time>
      </trkpt>
      <trkpt lat="43.53742" lon="2.7754">
        <ele>931.9</ele>
        <time>2026-05-22T07:29:59Z</time>
      </trkpt>
      <trkpt lat="43.53744" lon="2.77531">
        <ele>932.9</ele>
        <time>2026-05-22T07:30:04Z</time>
      </trkpt>
      <trkpt lat="43.53746" lon="2.77522">
        <ele>934</ele>
        <time>2026-05-22T07:30:09Z</time>
      </trkpt>
      <trkpt lat="43.53746" lon="2.7751">
        <ele>933.8</ele>
        <time>2026-05-22T07:30:14Z</time>
      </trkpt>
      <trkpt lat="43.53749" lon="2.77499">
        <ele>935.4</ele>
        <time>2026-05-22T07:30:19Z</time>
      </trkpt>
      <trkpt lat="43.53751" lon="2.77487">
        <ele>936.5</ele>
        <time>2026-05-22T07:30:24Z</time>
      </trkpt>
      <trkpt lat="43.53752" lon="2.77472">
        <ele>937.1</ele>
        <time>2026-05-22T07:30:29Z</time>
      </trkpt>
      <trkpt lat="43.53753" lon="2.77463">
        <ele>937.6</ele>
        <time>2026-05-22T07:30:34Z</time>
      </trkpt>
      <trkpt lat="43.53753" lon="2.77453">
        <ele>937.7</ele>
        <time>2026-05-22T07:30:39Z</time>
      </trkpt>
      <trkpt lat="43.53754" lon="2.77442">
        <ele>938.1</ele>
        <time>2026-05-22T07:30:44Z</time>
      </trkpt>
      <trkpt lat="43.53756" lon="2.77435">
        <ele>938.9</ele>
        <time>2026-05-22T07:30:49Z</time>
      </trkpt>
      <trkpt lat="43.53757" lon="2.77425">
        <ele>939.4</ele>
        <time>2026-05-22T07:30:54Z</time>
      </trkpt>
      <trkpt lat="43.53756" lon="2.77412">
        <ele>939.9</ele>
        <time>2026-05-22T07:30:59Z</time>
      </trkpt>
      <trkpt lat="43.53754" lon="2.77402">
        <ele>940.9</ele>
        <time>2026-05-22T07:31:04Z</time>
      </trkpt>
      <trkpt lat="43.5375" lon="2.77391">
        <ele>941.6</ele>
        <time>2026-05-22T07:31:09Z</time>
      </trkpt>
      <trkpt lat="43.53748" lon="2.77382">
        <ele>942.3</ele>
        <time>2026-05-22T07:31:14Z</time>
      </trkpt>
      <trkpt lat="43.53749" lon="2.77374">
        <ele>944.2</ele>
        <time>2026-05-22T07:31:19Z</time>
      </trkpt>
      <trkpt lat="43.53748" lon="2.77367">
        <ele>945.1</ele>
        <time>2026-05-22T07:31:24Z</time>
      </trkpt>
      <trkpt lat="43.53749" lon="2.77358">
        <ele>947.1</ele>
        <time>2026-05-22T07:31:29Z</time>
      </trkpt>
      <trkpt lat="43.53752" lon="2.77348">
        <ele>949.8</ele>
        <time>2026-05-22T07:31:34Z</time>
      </trkpt>
      <trkpt lat="43.53754" lon="2.77334">
        <ele>952.7</ele>
        <time>2026-05-22T07:31:39Z</time>
      </trkpt>
      <trkpt lat="43.53756" lon="2.77325">
        <ele>954.9</ele>
        <time>2026-05-22T07:31:44Z</time>
      </trkpt>
      <trkpt lat="43.53756" lon="2.77314">
        <ele>957.1</ele>
        <time>2026-05-22T07:31:49Z</time>
      </trkpt>
      <trkpt lat="43.53758" lon="2.77306">
        <ele>959</ele>
        <time>2026-05-22T07:31:54Z</time>
      </trkpt>
      <trkpt lat="43.53763" lon="2.77306">
        <ele>959.8</ele>
        <time>2026-05-22T07:31:59Z</time>
      </trkpt>
      <trkpt lat="43.5377" lon="2.77305">
        <ele>961.2</ele>
        <time>2026-05-22T07:32:04Z</time>
      </trkpt>
      <trkpt lat="43.53777" lon="2.77301">
        <ele>963</ele>
        <time>2026-05-22T07:32:09Z</time>
      </trkpt>
      <trkpt lat="43.53784" lon="2.77298">
        <ele>964.6</ele>
        <time>2026-05-22T07:32:14Z</time>
      </trkpt>
      <trkpt lat="43.53791" lon="2.77294">
        <ele>966.3</ele>
        <time>2026-05-22T07:32:19Z</time>
      </trkpt>
      <trkpt lat="43.53798" lon="2.7729">
        <ele>967.9</ele>
        <time>2026-05-22T07:32:24Z</time>
      </trkpt>
      <trkpt lat="43.53803" lon="2.77287">
        <ele>969</ele>
        <time>2026-05-22T07:32:29Z</time>
      </trkpt>
      <trkpt lat="43.53811" lon="2.77283">
        <ele>970.6</ele>
        <time>2026-05-22T07:32:34Z</time>
      </trkpt>
      <trkpt lat="43.53821" lon="2.77279">
        <ele>972.3</ele>
        <time>2026-05-22T07:32:39Z</time>
      </trkpt>
      <trkpt lat="43.53827" lon="2.77276">
        <ele>973.3</ele>
        <time>2026-05-22T07:32:44Z</time>
      </trkpt>
      <trkpt lat="43.53834" lon="2.77272">
        <ele>974.4</ele>
        <time>2026-05-22T07:32:49Z</time>
      </trkpt>
      <trkpt lat="43.5384" lon="2.77267">
        <ele>974.6</ele>
        <time>2026-05-22T07:32:54Z</time>
      </trkpt>
      <trkpt lat="43.53845" lon="2.77265">
        <ele>974.6</ele>
        <time>2026-05-22T07:32:59Z</time>
      </trkpt>
      <trkpt lat="43.53851" lon="2.77262">
        <ele>974.6</ele>
        <time>2026-05-22T07:33:04Z</time>
      </trkpt>
      <trkpt lat="43.53859" lon="2.77257">
        <ele>974.7</ele>
        <time>2026-05-22T07:33:09Z</time>
      </trkpt>
      <trkpt lat="43.53867" lon="2.77253">
        <ele>974.6</ele>
        <time>2026-05-22T07:33:14Z</time>
      </trkpt>
      <trkpt lat="43.53874" lon="2.77249">
        <ele>974.6</ele>
        <time>2026-05-22T07:33:19Z</time>
      </trkpt>
      <trkpt lat="43.53882" lon="2.77245">
        <ele>974.6</ele>
        <time>2026-05-22T07:33:24Z</time>
      </trkpt>
      <trkpt lat="43.53889" lon="2.77241">
        <ele>974.5</ele>
        <time>2026-05-22T07:33:29Z</time>
      </trkpt>
      <trkpt lat="43.53896" lon="2.77238">
        <ele>974.4</ele>
        <time>2026-05-22T07:33:34Z</time>
      </trkpt>
      <trkpt lat="43.53903" lon="2.77235">
        <ele>974.3</ele>
        <time>2026-05-22T07:33:39Z</time>
      </trkpt>
      <trkpt lat="43.53909" lon="2.7723">
        <ele>974.3</ele>
        <time>2026-05-22T07:33:44Z</time>
      </trkpt>
      <trkpt lat="43.53917" lon="2.77225">
        <ele>974.2</ele>
        <time>2026-05-22T07:33:49Z</time>
      </trkpt>
      <trkpt lat="43.53924" lon="2.77221">
        <ele>973.7</ele>
        <time>2026-05-22T07:33:54Z</time>
      </trkpt>
      <trkpt lat="43.53931" lon="2.7722">
        <ele>973.2</ele>
        <time>2026-05-22T07:33:59Z</time>
      </trkpt>
      <trkpt lat="43.53938" lon="2.77216">
        <ele>972.7</ele>
        <time>2026-05-22T07:34:04Z</time>
      </trkpt>
      <trkpt lat="43.53945" lon="2.77211">
        <ele>972.3</ele>
        <time>2026-05-22T07:34:09Z</time>
      </trkpt>
      <trkpt lat="43.53953" lon="2.77206">
        <ele>971.8</ele>
        <time>2026-05-22T07:34:14Z</time>
      </trkpt>
      <trkpt lat="43.53957" lon="2.77203">
        <ele>971.6</ele>
        <time>2026-05-22T07:34:19Z</time>
      </trkpt>
      <trkpt lat="43.53961" lon="2.77196">
        <ele>971.5</ele>
        <time>2026-05-22T07:34:24Z</time>
      </trkpt>
      <trkpt lat="43.53961" lon="2.77188">
        <ele>971.9</ele>
        <time>2026-05-22T07:34:29Z</time>
      </trkpt>
      <trkpt lat="43.53961" lon="2.7718">
        <ele>972.2</ele>
        <time>2026-05-22T07:34:34Z</time>
      </trkpt>
      <trkpt lat="43.53962" lon="2.77173">
        <ele>972.4</ele>
        <time>2026-05-22T07:34:39Z</time>
      </trkpt>
      <trkpt lat="43.53963" lon="2.77166">
        <ele>972.5</ele>
        <time>2026-05-22T07:34:44Z</time>
      </trkpt>
      <trkpt lat="43.53965" lon="2.77159">
        <ele>972.1</ele>
        <time>2026-05-22T07:34:49Z</time>
      </trkpt>
      <trkpt lat="43.53966" lon="2.7715">
        <ele>971.7</ele>
        <time>2026-05-22T07:34:54Z</time>
      </trkpt>
      <trkpt lat="43.53968" lon="2.77141">
        <ele>971.3</ele>
        <time>2026-05-22T07:34:59Z</time>
      </trkpt>
      <trkpt lat="43.5397" lon="2.77132">
        <ele>970.8</ele>
        <time>2026-05-22T07:35:04Z</time>
      </trkpt>
      <trkpt lat="43.53972" lon="2.77123">
        <ele>970.3</ele>
        <time>2026-05-22T07:35:09Z</time>
      </trkpt>
      <trkpt lat="43.53973" lon="2.77112">
        <ele>969.8</ele>
        <time>2026-05-22T07:35:14Z</time>
      </trkpt>
      <trkpt lat="43.53974" lon="2.77101">
        <ele>969.4</ele>
        <time>2026-05-22T07:35:19Z</time>
      </trkpt>
      <trkpt lat="43.53974" lon="2.7709">
        <ele>969</ele>
        <time>2026-05-22T07:35:24Z</time>
      </trkpt>
      <trkpt lat="43.53974" lon="2.77081">
        <ele>968.8</ele>
        <time>2026-05-22T07:35:29Z</time>
      </trkpt>
      <trkpt lat="43.53975" lon="2.77071">
        <ele>968.5</ele>
        <time>2026-05-22T07:35:34Z</time>
      </trkpt>
      <trkpt lat="43.53977" lon="2.77061">
        <ele>968</ele>
        <time>2026-05-22T07:35:39Z</time>
      </trkpt>
      <trkpt lat="43.53978" lon="2.77051">
        <ele>967.7</ele>
        <time>2026-05-22T07:35:44Z</time>
      </trkpt>
      <trkpt lat="43.53977" lon="2.77042">
        <ele>967.7</ele>
        <time>2026-05-22T07:35:49Z</time>
      </trkpt>
      <trkpt lat="43.5398" lon="2.77034">
        <ele>967.1</ele>
        <time>2026-05-22T07:35:54Z</time>
      </trkpt>
      <trkpt lat="43.53982" lon="2.77024">
        <ele>966.6</ele>
        <time>2026-05-22T07:35:59Z</time>
      </trkpt>
      <trkpt lat="43.53984" lon="2.77016">
        <ele>966.1</ele>
        <time>2026-05-22T07:36:04Z</time>
      </trkpt>
      <trkpt lat="43.53987" lon="2.77009">
        <ele>965.4</ele>
        <time>2026-05-22T07:36:09Z</time>
      </trkpt>
      <trkpt lat="43.53988" lon="2.77">
        <ele>965</ele>
        <time>2026-05-22T07:36:14Z</time>
      </trkpt>
      <trkpt lat="43.53989" lon="2.76992">
        <ele>965.3</ele>
        <time>2026-05-22T07:36:19Z</time>
      </trkpt>
      <trkpt lat="43.53989" lon="2.76984">
        <ele>965.7</ele>
        <time>2026-05-22T07:36:24Z</time>
      </trkpt>
      <trkpt lat="43.5399" lon="2.76973">
        <ele>966.1</ele>
        <time>2026-05-22T07:36:29Z</time>
      </trkpt>
      <trkpt lat="43.53991" lon="2.76964">
        <ele>966.3</ele>
        <time>2026-05-22T07:36:34Z</time>
      </trkpt>
      <trkpt lat="43.53994" lon="2.76955">
        <ele>966.2</ele>
        <time>2026-05-22T07:36:39Z</time>
      </trkpt>
      <trkpt lat="43.53997" lon="2.76948">
        <ele>966</ele>
        <time>2026-05-22T07:36:44Z</time>
      </trkpt>
      <trkpt lat="43.53997" lon="2.76937">
        <ele>966.6</ele>
        <time>2026-05-22T07:36:49Z</time>
      </trkpt>
      <trkpt lat="43.53997" lon="2.76928">
        <ele>967</ele>
        <time>2026-05-22T07:36:54Z</time>
      </trkpt>
      <trkpt lat="43.53998" lon="2.76918">
        <ele>967.3</ele>
        <time>2026-05-22T07:36:59Z</time>
      </trkpt>
      <trkpt lat="43.53999" lon="2.76909">
        <ele>968</ele>
        <time>2026-05-22T07:37:04Z</time>
      </trkpt>
      <trkpt lat="43.54001" lon="2.76897">
        <ele>969</ele>
        <time>2026-05-22T07:37:09Z</time>
      </trkpt>
      <trkpt lat="43.54002" lon="2.76886">
        <ele>970.1</ele>
        <time>2026-05-22T07:37:14Z</time>
      </trkpt>
      <trkpt lat="43.54006" lon="2.76877">
        <ele>970.5</ele>
        <time>2026-05-22T07:37:19Z</time>
      </trkpt>
      <trkpt lat="43.54008" lon="2.76867">
        <ele>971.3</ele>
        <time>2026-05-22T07:37:24Z</time>
      </trkpt>
      <trkpt lat="43.54008" lon="2.76857">
        <ele>972.3</ele>
        <time>2026-05-22T07:37:29Z</time>
      </trkpt>
      <trkpt lat="43.54009" lon="2.76848">
        <ele>973.1</ele>
        <time>2026-05-22T07:37:34Z</time>
      </trkpt>
      <trkpt lat="43.54009" lon="2.7684">
        <ele>973.9</ele>
        <time>2026-05-22T07:37:39Z</time>
      </trkpt>
      <trkpt lat="43.54009" lon="2.76829">
        <ele>974.8</ele>
        <time>2026-05-22T07:37:44Z</time>
      </trkpt>
      <trkpt lat="43.54011" lon="2.76819">
        <ele>974.9</ele>
        <time>2026-05-22T07:37:49Z</time>
      </trkpt>
      <trkpt lat="43.54012" lon="2.76809">
        <ele>975.3</ele>
        <time>2026-05-22T07:37:54Z</time>
      </trkpt>
      <trkpt lat="43.54012" lon="2.76798">
        <ele>975.8</ele>
        <time>2026-05-22T07:37:59Z</time>
      </trkpt>
      <trkpt lat="43.54012" lon="2.76789">
        <ele>976.2</ele>
        <time>2026-05-22T07:38:04Z</time>
      </trkpt>
      <trkpt lat="43.54011" lon="2.76782">
        <ele>976.7</ele>
        <time>2026-05-22T07:38:09Z</time>
      </trkpt>
      <trkpt lat="43.54012" lon="2.76773">
        <ele>976.9</ele>
        <time>2026-05-22T07:38:14Z</time>
      </trkpt>
      <trkpt lat="43.54011" lon="2.76763">
        <ele>977.5</ele>
        <time>2026-05-22T07:38:19Z</time>
      </trkpt>
      <trkpt lat="43.54012" lon="2.76754">
        <ele>977.8</ele>
        <time>2026-05-22T07:38:24Z</time>
      </trkpt>
      <trkpt lat="43.54012" lon="2.76741">
        <ele>978</ele>
        <time>2026-05-22T07:38:29Z</time>
      </trkpt>
      <trkpt lat="43.54013" lon="2.76731">
        <ele>977.9</ele>
        <time>2026-05-22T07:38:34Z</time>
      </trkpt>
      <trkpt lat="43.54014" lon="2.76721">
        <ele>977.8</ele>
        <time>2026-05-22T07:38:39Z</time>
      </trkpt>
      <trkpt lat="43.54012" lon="2.76708">
        <ele>978.1</ele>
        <time>2026-05-22T07:38:44Z</time>
      </trkpt>
      <trkpt lat="43.54011" lon="2.76697">
        <ele>978.3</ele>
        <time>2026-05-22T07:38:49Z</time>
      </trkpt>
      <trkpt lat="43.5401" lon="2.76686">
        <ele>978.5</ele>
        <time>2026-05-22T07:38:54Z</time>
      </trkpt>
      <trkpt lat="43.54013" lon="2.76675">
        <ele>978.1</ele>
        <time>2026-05-22T07:38:59Z</time>
      </trkpt>
      <trkpt lat="43.54014" lon="2.76667">
        <ele>978</ele>
        <time>2026-05-22T07:39:04Z</time>
      </trkpt>
      <trkpt lat="43.54016" lon="2.76663">
        <ele>977.7</ele>
        <time>2026-05-22T07:39:09Z</time>
      </trkpt>
      <trkpt lat="43.54016" lon="2.76654">
        <ele>977.7</ele>
        <time>2026-05-22T07:39:14Z</time>
      </trkpt>
      <trkpt lat="43.54017" lon="2.76644">
        <ele>977.6</ele>
        <time>2026-05-22T07:39:19Z</time>
      </trkpt>
      <trkpt lat="43.5402" lon="2.76634">
        <ele>977.1</ele>
        <time>2026-05-22T07:39:24Z</time>
      </trkpt>
      <trkpt lat="43.5402" lon="2.76622">
        <ele>977.1</ele>
        <time>2026-05-22T07:39:29Z</time>
      </trkpt>
      <trkpt lat="43.54022" lon="2.76612">
        <ele>976.8</ele>
        <time>2026-05-22T07:39:34Z</time>
      </trkpt>
      <trkpt lat="43.54023" lon="2.76605">
        <ele>976.7</ele>
        <time>2026-05-22T07:39:39Z</time>
      </trkpt>
      <trkpt lat="43.54022" lon="2.76605">
        <ele>976.8</ele>
        <time>2026-05-22T07:39:44Z</time>
      </trkpt>
      <trkpt lat="43.54021" lon="2.76604">
        <ele>977</ele>
        <time>2026-05-22T07:39:49Z</time>
      </trkpt>
      <trkpt lat="43.54021" lon="2.76594">
        <ele>977</ele>
        <time>2026-05-22T07:39:54Z</time>
      </trkpt>
      <trkpt lat="43.54022" lon="2.76589">
        <ele>976.8</ele>
        <time>2026-05-22T07:39:59Z</time>
      </trkpt>
      <trkpt lat="43.54022" lon="2.76586">
        <ele>976.8</ele>
        <time>2026-05-22T07:40:04Z</time>
      </trkpt>
      <trkpt lat="43.54023" lon="2.7658">
        <ele>976.8</ele>
        <time>2026-05-22T07:40:09Z</time>
      </trkpt>
      <trkpt lat="43.54023" lon="2.76575">
        <ele>976.9</ele>
        <time>2026-05-22T07:40:14Z</time>
      </trkpt>
      <trkpt lat="43.54025" lon="2.76563">
        <ele>977</ele>
        <time>2026-05-22T07:40:19Z</time>
      </trkpt>
      <trkpt lat="43.54025" lon="2.76552">
        <ele>977.3</ele>
        <time>2026-05-22T07:40:24Z</time>
      </trkpt>
      <trkpt lat="43.54025" lon="2.76545">
        <ele>977.5</ele>
        <time>2026-05-22T07:40:29Z</time>
      </trkpt>
      <trkpt lat="43.54023" lon="2.76542">
        <ele>977.9</ele>
        <time>2026-05-22T07:40:34Z</time>
      </trkpt>
      <trkpt lat="43.54023" lon="2.76542">
        <ele>977.9</ele>
        <time>2026-05-22T07:40:39Z</time>
      </trkpt>
      <trkpt lat="43.54023" lon="2.76542">
        <ele>977.9</ele>
        <time>2026-05-22T07:40:44Z</time>
      </trkpt>
      <trkpt lat="43.54023" lon="2.76542">
        <ele>977.9</ele>
        <time>2026-05-22T07:40:49Z</time>
      </trkpt>
      <trkpt lat="43.54023" lon="2.76542">
        <ele>977.9</ele>
        <time>2026-05-22T07:40:54Z</time>
      </trkpt>
      <trkpt lat="43.54025" lon="2.76531">
        <ele>977.9</ele>
        <time>2026-05-22T07:40:59Z</time>
      </trkpt>
      <trkpt lat="43.54026" lon="2.76522">
        <ele>978</ele>
        <time>2026-05-22T07:41:04Z</time>
      </trkpt>
      <trkpt lat="43.54027" lon="2.76513">
        <ele>978.1</ele>
        <time>2026-05-22T07:41:09Z</time>
      </trkpt>
      <trkpt lat="43.54024" lon="2.76507">
        <ele>978.8</ele>
        <time>2026-05-22T07:41:14Z</time>
      </trkpt>
      <trkpt lat="43.54023" lon="2.76507">
        <ele>978.9</ele>
        <time>2026-05-22T07:41:19Z</time>
      </trkpt>
      <trkpt lat="43.54022" lon="2.76506">
        <ele>979.1</ele>
        <time>2026-05-22T07:41:24Z</time>
      </trkpt>
      <trkpt lat="43.54022" lon="2.76506">
        <ele>979.1</ele>
        <time>2026-05-22T07:41:29Z</time>
      </trkpt>
      <trkpt lat="43.54022" lon="2.76501">
        <ele>979.3</ele>
        <time>2026-05-22T07:41:34Z</time>
      </trkpt>
      <trkpt lat="43.54023" lon="2.76496">
        <ele>979.6</ele>
        <time>2026-05-22T07:41:39Z</time>
      </trkpt>
      <trkpt lat="43.54025" lon="2.76492">
        <ele>979.7</ele>
        <time>2026-05-22T07:41:44Z</time>
      </trkpt>
      <trkpt lat="43.54025" lon="2.76485">
        <ele>980.5</ele>
        <time>2026-05-22T07:41:49Z</time>
      </trkpt>
      <trkpt lat="43.54025" lon="2.76478">
        <ele>981.3</ele>
        <time>2026-05-22T07:41:54Z</time>
      </trkpt>
      <trkpt lat="43.54026" lon="2.7647">
        <ele>982</ele>
        <time>2026-05-22T07:41:59Z</time>
      </trkpt>
      <trkpt lat="43.54026" lon="2.76465">
        <ele>982.6</ele>
        <time>2026-05-22T07:42:04Z</time>
      </trkpt>
      <trkpt lat="43.54028" lon="2.76455">
        <ele>983.3</ele>
        <time>2026-05-22T07:42:09Z</time>
      </trkpt>
      <trkpt lat="43.5403" lon="2.76445">
        <ele>984</ele>
        <time>2026-05-22T07:42:14Z</time>
      </trkpt>
      <trkpt lat="43.54034" lon="2.76433">
        <ele>984.5</ele>
        <time>2026-05-22T07:42:19Z</time>
      </trkpt>
      <trkpt lat="43.54036" lon="2.76425">
        <ele>984.9</ele>
        <time>2026-05-22T07:42:24Z</time>
      </trkpt>
      <trkpt lat="43.54038" lon="2.76422">
        <ele>984.8</ele>
        <time>2026-05-22T07:42:29Z</time>
      </trkpt>
      <trkpt lat="43.54039" lon="2.76414">
        <ele>985.5</ele>
        <time>2026-05-22T07:42:34Z</time>
      </trkpt>
      <trkpt lat="43.54039" lon="2.76408">
        <ele>986.3</ele>
        <time>2026-05-22T07:42:39Z</time>
      </trkpt>
      <trkpt lat="43.5404" lon="2.76405">
        <ele>986.5</ele>
        <time>2026-05-22T07:42:44Z</time>
      </trkpt>
      <trkpt lat="43.5404" lon="2.76404">
        <ele>986.6</ele>
        <time>2026-05-22T07:42:49Z</time>
      </trkpt>
      <trkpt lat="43.5404" lon="2.76404">
        <ele>986.6</ele>
        <time>2026-05-22T07:42:54Z</time>
      </trkpt>
      <trkpt lat="43.5404" lon="2.76404">
        <ele>986.6</ele>
        <time>2026-05-22T07:42:59Z</time>
      </trkpt>
      <trkpt lat="43.5404" lon="2.76404">
        <ele>986.6</ele>
        <time>2026-05-22T07:43:04Z</time>
      </trkpt>
      <trkpt lat="43.54041" lon="2.76389">
        <ele>988.5</ele>
        <time>2026-05-22T07:43:09Z</time>
      </trkpt>
      <trkpt lat="43.54045" lon="2.76385">
        <ele>988.1</ele>
        <time>2026-05-22T07:43:14Z</time>
      </trkpt>
      <trkpt lat="43.54047" lon="2.7638">
        <ele>988.4</ele>
        <time>2026-05-22T07:43:19Z</time>
      </trkpt>
      <trkpt lat="43.54049" lon="2.76375">
        <ele>988.6</ele>
        <time>2026-05-22T07:43:24Z</time>
      </trkpt>
      <trkpt lat="43.54051" lon="2.76368">
        <ele>989.2</ele>
        <time>2026-05-22T07:43:29Z</time>
      </trkpt>
      <trkpt lat="43.54053" lon="2.76362">
        <ele>989.5</ele>
        <time>2026-05-22T07:43:34Z</time>
      </trkpt>
      <trkpt lat="43.54055" lon="2.76356">
        <ele>989.9</ele>
        <time>2026-05-22T07:43:39Z</time>
      </trkpt>
      <trkpt lat="43.54059" lon="2.76349">
        <ele>990.1</ele>
        <time>2026-05-22T07:43:44Z</time>
      </trkpt>
      <trkpt lat="43.5406" lon="2.76343">
        <ele>990.7</ele>
        <time>2026-05-22T07:43:49Z</time>
      </trkpt>
      <trkpt lat="43.54061" lon="2.76338">
        <ele>991.2</ele>
        <time>2026-05-22T07:43:54Z</time>
      </trkpt>
      <trkpt lat="43.54063" lon="2.76332">
        <ele>991.6</ele>
        <time>2026-05-22T07:43:59Z</time>
      </trkpt>
      <trkpt lat="43.54065" lon="2.76331">
        <ele>991.2</ele>
        <time>2026-05-22T07:44:04Z</time>
      </trkpt>
      <trkpt lat="43.54066" lon="2.7633">
        <ele>991.2</ele>
        <time>2026-05-22T07:44:09Z</time>
      </trkpt>
      <trkpt lat="43.54066" lon="2.7633">
        <ele>991.2</ele>
        <time>2026-05-22T07:44:14Z</time>
      </trkpt>
      <trkpt lat="43.54066" lon="2.7633">
        <ele>991.2</ele>
        <time>2026-05-22T07:44:19Z</time>
      </trkpt>
      <trkpt lat="43.54066" lon="2.7633">
        <ele>991.2</ele>
        <time>2026-05-22T07:44:24Z</time>
      </trkpt>
      <trkpt lat="43.54071" lon="2.76326">
        <ele>990.6</ele>
        <time>2026-05-22T07:44:29Z</time>
      </trkpt>
      <trkpt lat="43.54075" lon="2.76322">
        <ele>990.3</ele>
        <time>2026-05-22T07:44:34Z</time>
      </trkpt>
      <trkpt lat="43.54076" lon="2.76318">
        <ele>990.6</ele>
        <time>2026-05-22T07:44:39Z</time>
      </trkpt>
      <trkpt lat="43.54076" lon="2.76317">
        <ele>990.7</ele>
        <time>2026-05-22T07:44:44Z</time>
      </trkpt>
      <trkpt lat="43.54076" lon="2.76317">
        <ele>990.7</ele>
        <time>2026-05-22T07:44:49Z</time>
      </trkpt>
      <trkpt lat="43.54076" lon="2.76317">
        <ele>990.7</ele>
        <time>2026-05-22T07:44:54Z</time>
      </trkpt>
      <trkpt lat="43.54076" lon="2.76317">
        <ele>990.7</ele>
        <time>2026-05-22T07:44:59Z</time>
      </trkpt>
      <trkpt lat="43.54076" lon="2.76317">
        <ele>990.7</ele>
        <time>2026-05-22T07:45:04Z</time>
      </trkpt>
      <trkpt lat="43.54076" lon="2.76317">
        <ele>990.7</ele>
        <time>2026-05-22T07:45:09Z</time>
      </trkpt>
      <trkpt lat="43.54076" lon="2.76317">
        <ele>990.7</ele>
        <time>2026-05-22T07:45:14Z</time>
      </trkpt>
      <trkpt lat="43.54076" lon="2.76317">
        <ele>990.7</ele>
        <time>2026-05-22T07:45:19Z</time>
      </trkpt>
      <trkpt lat="43.54076" lon="2.76317">
        <ele>990.7</ele>
        <time>2026-05-22T07:45:24Z</time>
      </trkpt>
      <trkpt lat="43.54076" lon="2.76317">
        <ele>990.7</ele>
        <time>2026-05-22T07:45:29Z</time>
      </trkpt>
      <trkpt lat="43.54076" lon="2.76317">
        <ele>990.7</ele>
        <time>2026-05-22T07:45:34Z</time>
      </trkpt>
      <trkpt lat="43.54076" lon="2.76317">
        <ele>990.7</ele>
        <time>2026-05-22T07:45:39Z</time>
      </trkpt>
      <trkpt lat="43.54076" lon="2.76317">
        <ele>990.7</ele>
        <time>2026-05-22T07:45:44Z</time>
      </trkpt>
      <trkpt lat="43.54076" lon="2.76317">
        <ele>990.7</ele>
        <time>2026-05-22T07:45:49Z</time>
      </trkpt>
      <trkpt lat="43.54076" lon="2.76317">
        <ele>990.7</ele>
        <time>2026-05-22T07:45:54Z</time>
      </trkpt>
      <trkpt lat="43.54076" lon="2.76317">
        <ele>990.7</ele>
        <time>2026-05-22T07:45:59Z</time>
      </trkpt>
      <trkpt lat="43.54076" lon="2.76317">
        <ele>990.7</ele>
        <time>2026-05-22T07:46:04Z</time>
      </trkpt>
      <trkpt lat="43.54076" lon="2.76317">
        <ele>990.7</ele>
        <time>2026-05-22T07:46:09Z</time>
      </trkpt>
      <trkpt lat="43.54076" lon="2.76317">
        <ele>990.7</ele>
        <time>2026-05-22T07:46:14Z</time>
      </trkpt>
      <trkpt lat="43.54076" lon="2.76317">
        <ele>990.7</ele>
        <time>2026-05-22T07:46:19Z</time>
      </trkpt>
      <trkpt lat="43.54076" lon="2.76317">
        <ele>990.7</ele>
        <time>2026-05-22T07:46:24Z</time>
      </trkpt>
      <trkpt lat="43.54076" lon="2.76317">
        <ele>990.7</ele>
        <time>2026-05-22T07:46:29Z</time>
      </trkpt>
      <trkpt lat="43.54076" lon="2.76317">
        <ele>990.7</ele>
        <time>2026-05-22T07:46:34Z</time>
      </trkpt>
      <trkpt lat="43.54076" lon="2.76317">
        <ele>990.7</ele>
        <time>2026-05-22T07:46:39Z</time>
      </trkpt>
      <trkpt lat="43.54076" lon="2.76317">
        <ele>990.7</ele>
        <time>2026-05-22T07:46:44Z</time>
      </trkpt>
      <trkpt lat="43.54076" lon="2.76317">
        <ele>990.7</ele>
        <time>2026-05-22T07:46:49Z</time>
      </trkpt>
      <trkpt lat="43.54076" lon="2.76317">
        <ele>990.7</ele>
        <time>2026-05-22T07:46:54Z</time>
      </trkpt>
      <trkpt lat="43.54076" lon="2.76317">
        <ele>990.7</ele>
        <time>2026-05-22T07:46:59Z</time>
      </trkpt>
      <trkpt lat="43.54076" lon="2.76317">
        <ele>990.7</ele>
        <time>2026-05-22T07:47:04Z</time>
      </trkpt>
      <trkpt lat="43.54076" lon="2.76317">
        <ele>990.7</ele>
        <time>2026-05-22T07:47:09Z</time>
      </trkpt>
      <trkpt lat="43.54076" lon="2.76317">
        <ele>990.7</ele>
        <time>2026-05-22T07:47:14Z</time>
      </trkpt>
      <trkpt lat="43.54076" lon="2.76317">
        <ele>990.7</ele>
        <time>2026-05-22T07:47:19Z</time>
      </trkpt>
      <trkpt lat="43.54076" lon="2.76317">
        <ele>990.7</ele>
        <time>2026-05-22T07:47:24Z</time>
      </trkpt>
      <trkpt lat="43.54076" lon="2.76317">
        <ele>990.7</ele>
        <time>2026-05-22T07:47:29Z</time>
      </trkpt>
      <trkpt lat="43.54076" lon="2.76317">
        <ele>990.7</ele>
        <time>2026-05-22T07:47:34Z</time>
      </trkpt>
      <trkpt lat="43.54076" lon="2.76317">
        <ele>990.7</ele>
        <time>2026-05-22T07:47:39Z</time>
      </trkpt>
      <trkpt lat="43.54076" lon="2.76317">
        <ele>990.7</ele>
        <time>2026-05-22T07:47:44Z</time>
      </trkpt>
      <trkpt lat="43.54076" lon="2.76317">
        <ele>990.7</ele>
        <time>2026-05-22T07:47:49Z</time>
      </trkpt>
      <trkpt lat="43.54076" lon="2.76317">
        <ele>990.7</ele>
        <time>2026-05-22T07:47:54Z</time>
      </trkpt>
      <trkpt lat="43.54076" lon="2.76317">
        <ele>990.7</ele>
        <time>2026-05-22T07:47:59Z</time>
      </trkpt>
      <trkpt lat="43.54076" lon="2.76317">
        <ele>990.7</ele>
        <time>2026-05-22T07:48:04Z</time>
      </trkpt>
      <trkpt lat="43.54076" lon="2.76317">
        <ele>990.7</ele>
        <time>2026-05-22T07:48:09Z</time>
      </trkpt>
      <trkpt lat="43.54076" lon="2.76317">
        <ele>990.7</ele>
        <time>2026-05-22T07:48:14Z</time>
      </trkpt>
      <trkpt lat="43.54076" lon="2.76317">
        <ele>990.7</ele>
        <time>2026-05-22T07:48:19Z</time>
      </trkpt>
      <trkpt lat="43.54076" lon="2.76317">
        <ele>990.7</ele>
        <time>2026-05-22T07:48:24Z</time>
      </trkpt>
      <trkpt lat="43.54076" lon="2.76317">
        <ele>990.7</ele>
        <time>2026-05-22T07:48:29Z</time>
      </trkpt>
      <trkpt lat="43.54076" lon="2.76317">
        <ele>990.7</ele>
        <time>2026-05-22T07:48:34Z</time>
      </trkpt>
      <trkpt lat="43.54076" lon="2.76317">
        <ele>990.7</ele>
        <time>2026-05-22T07:48:39Z</time>
      </trkpt>
      <trkpt lat="43.54076" lon="2.76317">
        <ele>990.7</ele>
        <time>2026-05-22T07:48:44Z</time>
      </trkpt>
      <trkpt lat="43.54076" lon="2.76317">
        <ele>990.7</ele>
        <time>2026-05-22T07:48:49Z</time>
      </trkpt>
      <trkpt lat="43.54076" lon="2.76317">
        <ele>990.7</ele>
        <time>2026-05-22T07:48:54Z</time>
      </trkpt>
      <trkpt lat="43.54076" lon="2.76317">
        <ele>990.7</ele>
        <time>2026-05-22T07:48:59Z</time>
      </trkpt>
      <trkpt lat="43.54081" lon="2.76306">
        <ele>991.1</ele>
        <time>2026-05-22T07:49:04Z</time>
      </trkpt>
      <trkpt lat="43.54082" lon="2.76298">
        <ele>991.9</ele>
        <time>2026-05-22T07:49:09Z</time>
      </trkpt>
      <trkpt lat="43.54083" lon="2.76292">
        <ele>992.5</ele>
        <time>2026-05-22T07:49:14Z</time>
      </trkpt>
      <trkpt lat="43.54082" lon="2.76286">
        <ele>993.5</ele>
        <time>2026-05-22T07:49:19Z</time>
      </trkpt>
      <trkpt lat="43.54083" lon="2.7628">
        <ele>994.1</ele>
        <time>2026-05-22T07:49:24Z</time>
      </trkpt>
      <trkpt lat="43.54083" lon="2.76276">
        <ele>994.6</ele>
        <time>2026-05-22T07:49:29Z</time>
      </trkpt>
      <trkpt lat="43.54081" lon="2.76274">
        <ele>995.3</ele>
        <time>2026-05-22T07:49:34Z</time>
      </trkpt>
      <trkpt lat="43.54081" lon="2.76274">
        <ele>995.3</ele>
        <time>2026-05-22T07:49:39Z</time>
      </trkpt>
      <trkpt lat="43.54081" lon="2.76274">
        <ele>995.3</ele>
        <time>2026-05-22T07:49:44Z</time>
      </trkpt>
      <trkpt lat="43.54081" lon="2.76274">
        <ele>995.3</ele>
        <time>2026-05-22T07:49:49Z</time>
      </trkpt>
      <trkpt lat="43.54081" lon="2.76274">
        <ele>995.3</ele>
        <time>2026-05-22T07:49:54Z</time>
      </trkpt>
      <trkpt lat="43.54081" lon="2.76274">
        <ele>995.3</ele>
        <time>2026-05-22T07:49:59Z</time>
      </trkpt>
      <trkpt lat="43.54081" lon="2.76274">
        <ele>995.3</ele>
        <time>2026-05-22T07:50:04Z</time>
      </trkpt>
      <trkpt lat="43.54081" lon="2.76274">
        <ele>995.3</ele>
        <time>2026-05-22T07:50:09Z</time>
      </trkpt>
      <trkpt lat="43.54081" lon="2.76274">
        <ele>995.3</ele>
        <time>2026-05-22T07:50:14Z</time>
      </trkpt>
      <trkpt lat="43.54081" lon="2.76274">
        <ele>995.3</ele>
        <time>2026-05-22T07:50:19Z</time>
      </trkpt>
      <trkpt lat="43.54081" lon="2.76274">
        <ele>995.3</ele>
        <time>2026-05-22T07:50:24Z</time>
      </trkpt>
      <trkpt lat="43.54081" lon="2.76274">
        <ele>995.3</ele>
        <time>2026-05-22T07:50:29Z</time>
      </trkpt>
      <trkpt lat="43.54081" lon="2.76274">
        <ele>995.3</ele>
        <time>2026-05-22T07:50:34Z</time>
      </trkpt>
      <trkpt lat="43.54081" lon="2.76274">
        <ele>995.3</ele>
        <time>2026-05-22T07:50:39Z</time>
      </trkpt>
      <trkpt lat="43.54081" lon="2.76274">
        <ele>995.3</ele>
        <time>2026-05-22T07:50:44Z</time>
      </trkpt>
      <trkpt lat="43.54081" lon="2.76274">
        <ele>995.3</ele>
        <time>2026-05-22T07:50:49Z</time>
      </trkpt>
      <trkpt lat="43.54081" lon="2.76274">
        <ele>995.3</ele>
        <time>2026-05-22T07:50:54Z</time>
      </trkpt>
      <trkpt lat="43.54081" lon="2.76274">
        <ele>995.3</ele>
        <time>2026-05-22T07:50:59Z</time>
      </trkpt>
      <trkpt lat="43.54081" lon="2.76274">
        <ele>995.3</ele>
        <time>2026-05-22T07:51:04Z</time>
      </trkpt>
      <trkpt lat="43.54081" lon="2.76274">
        <ele>995.3</ele>
        <time>2026-05-22T07:51:09Z</time>
      </trkpt>
      <trkpt lat="43.54081" lon="2.76274">
        <ele>995.3</ele>
        <time>2026-05-22T07:51:14Z</time>
      </trkpt>
      <trkpt lat="43.54081" lon="2.76274">
        <ele>995.3</ele>
        <time>2026-05-22T07:51:19Z</time>
      </trkpt>
      <trkpt lat="43.54081" lon="2.76274">
        <ele>995.3</ele>
        <time>2026-05-22T07:51:24Z</time>
      </trkpt>
      <trkpt lat="43.54081" lon="2.76274">
        <ele>995.3</ele>
        <time>2026-05-22T07:51:29Z</time>
      </trkpt>
      <trkpt lat="43.54081" lon="2.76274">
        <ele>995.3</ele>
        <time>2026-05-22T07:51:34Z</time>
      </trkpt>
      <trkpt lat="43.54081" lon="2.76274">
        <ele>995.3</ele>
        <time>2026-05-22T07:51:39Z</time>
      </trkpt>
      <trkpt lat="43.54081" lon="2.76274">
        <ele>995.3</ele>
        <time>2026-05-22T07:51:44Z</time>
      </trkpt>
      <trkpt lat="43.54081" lon="2.76274">
        <ele>995.3</ele>
        <time>2026-05-22T07:51:49Z</time>
      </trkpt>
      <trkpt lat="43.54081" lon="2.76274">
        <ele>995.3</ele>
        <time>2026-05-22T07:51:54Z</time>
      </trkpt>
      <trkpt lat="43.54081" lon="2.76274">
        <ele>995.3</ele>
        <time>2026-05-22T07:51:59Z</time>
      </trkpt>
      <trkpt lat="43.54081" lon="2.76274">
        <ele>995.3</ele>
        <time>2026-05-22T07:52:04Z</time>
      </trkpt>
      <trkpt lat="43.54081" lon="2.76274">
        <ele>995.3</ele>
        <time>2026-05-22T07:52:09Z</time>
      </trkpt>
      <trkpt lat="43.54081" lon="2.76274">
        <ele>995.3</ele>
        <time>2026-05-22T07:52:14Z</time>
      </trkpt>
      <trkpt lat="43.54071" lon="2.7627">
        <ele>997.7</ele>
        <time>2026-05-22T07:52:19Z</time>
      </trkpt>
      <trkpt lat="43.54071" lon="2.7627">
        <ele>997.7</ele>
        <time>2026-05-22T07:52:24Z</time>
      </trkpt>
      <trkpt lat="43.54071" lon="2.7627">
        <ele>997.7</ele>
        <time>2026-05-22T07:52:29Z</time>
      </trkpt>
      <trkpt lat="43.54071" lon="2.7627">
        <ele>997.7</ele>
        <time>2026-05-22T07:52:34Z</time>
      </trkpt>
      <trkpt lat="43.54071" lon="2.7627">
        <ele>997.7</ele>
        <time>2026-05-22T07:52:39Z</time>
      </trkpt>
      <trkpt lat="43.54071" lon="2.7627">
        <ele>997.7</ele>
        <time>2026-05-22T07:52:44Z</time>
      </trkpt>
      <trkpt lat="43.54071" lon="2.7627">
        <ele>997.7</ele>
        <time>2026-05-22T07:52:49Z</time>
      </trkpt>
      <trkpt lat="43.54071" lon="2.7627">
        <ele>997.7</ele>
        <time>2026-05-22T07:52:54Z</time>
      </trkpt>
      <trkpt lat="43.54065" lon="2.76283">
        <ele>997.2</ele>
        <time>2026-05-22T07:52:59Z</time>
      </trkpt>
      <trkpt lat="43.54065" lon="2.76283">
        <ele>997.2</ele>
        <time>2026-05-22T07:53:04Z</time>
      </trkpt>
      <trkpt lat="43.54065" lon="2.76283">
        <ele>997.2</ele>
        <time>2026-05-22T07:53:09Z</time>
      </trkpt>
      <trkpt lat="43.54065" lon="2.76283">
        <ele>997.2</ele>
        <time>2026-05-22T07:53:14Z</time>
      </trkpt>
      <trkpt lat="43.54074" lon="2.76273">
        <ele>996.7</ele>
        <time>2026-05-22T07:53:19Z</time>
      </trkpt>
      <trkpt lat="43.54074" lon="2.76273">
        <ele>996.7</ele>
        <time>2026-05-22T07:53:24Z</time>
      </trkpt>
      <trkpt lat="43.54074" lon="2.76273">
        <ele>996.7</ele>
        <time>2026-05-22T07:53:29Z</time>
      </trkpt>
      <trkpt lat="43.54074" lon="2.76273">
        <ele>996.7</ele>
        <time>2026-05-22T07:53:34Z</time>
      </trkpt>
      <trkpt lat="43.54074" lon="2.76273">
        <ele>996.7</ele>
        <time>2026-05-22T07:53:39Z</time>
      </trkpt>
      <trkpt lat="43.54074" lon="2.76273">
        <ele>996.7</ele>
        <time>2026-05-22T07:53:44Z</time>
      </trkpt>
      <trkpt lat="43.54074" lon="2.76273">
        <ele>996.7</ele>
        <time>2026-05-22T07:53:49Z</time>
      </trkpt>
      <trkpt lat="43.54074" lon="2.76273">
        <ele>996.7</ele>
        <time>2026-05-22T07:53:54Z</time>
      </trkpt>
      <trkpt lat="43.54074" lon="2.76273">
        <ele>996.7</ele>
        <time>2026-05-22T07:53:59Z</time>
      </trkpt>
      <trkpt lat="43.54074" lon="2.76273">
        <ele>996.7</ele>
        <time>2026-05-22T07:54:04Z</time>
      </trkpt>
      <trkpt lat="43.5408" lon="2.76264">
        <ele>996.8</ele>
        <time>2026-05-22T07:54:09Z</time>
      </trkpt>
      <trkpt lat="43.54086" lon="2.76256">
        <ele>996.4</ele>
        <time>2026-05-22T07:54:14Z</time>
      </trkpt>
      <trkpt lat="43.54089" lon="2.7625">
        <ele>996.4</ele>
        <time>2026-05-22T07:54:19Z</time>
      </trkpt>
      <trkpt lat="43.54093" lon="2.76245">
        <ele>995.6</ele>
        <time>2026-05-22T07:54:24Z</time>
      </trkpt>
      <trkpt lat="43.54097" lon="2.76239">
        <ele>994.9</ele>
        <time>2026-05-22T07:54:29Z</time>
      </trkpt>
      <trkpt lat="43.54102" lon="2.76233">
        <ele>993.9</ele>
        <time>2026-05-22T07:54:34Z</time>
      </trkpt>
      <trkpt lat="43.54107" lon="2.76227">
        <ele>993</ele>
        <time>2026-05-22T07:54:39Z</time>
      </trkpt>
      <trkpt lat="43.54112" lon="2.76221">
        <ele>992.2</ele>
        <time>2026-05-22T07:54:44Z</time>
      </trkpt>
      <trkpt lat="43.54118" lon="2.76215">
        <ele>991.2</ele>
        <time>2026-05-22T07:54:49Z</time>
      </trkpt>
      <trkpt lat="43.54124" lon="2.76209">
        <ele>990.2</ele>
        <time>2026-05-22T07:54:54Z</time>
      </trkpt>
      <trkpt lat="43.5413" lon="2.76202">
        <ele>989.4</ele>
        <time>2026-05-22T07:54:59Z</time>
      </trkpt>
      <trkpt lat="43.54134" lon="2.76196">
        <ele>989</ele>
        <time>2026-05-22T07:55:04Z</time>
      </trkpt>
      <trkpt lat="43.54139" lon="2.76192">
        <ele>988.2</ele>
        <time>2026-05-22T07:55:09Z</time>
      </trkpt>
      <trkpt lat="43.54145" lon="2.76188">
        <ele>987.3</ele>
        <time>2026-05-22T07:55:14Z</time>
      </trkpt>
      <trkpt lat="43.5415" lon="2.76181">
        <ele>986.9</ele>
        <time>2026-05-22T07:55:19Z</time>
      </trkpt>
      <trkpt lat="43.54157" lon="2.76176">
        <ele>985.9</ele>
        <time>2026-05-22T07:55:24Z</time>
      </trkpt>
      <trkpt lat="43.54164" lon="2.76171">
        <ele>985</ele>
        <time>2026-05-22T07:55:29Z</time>
      </trkpt>
      <trkpt lat="43.54173" lon="2.76167">
        <ele>983.6</ele>
        <time>2026-05-22T07:55:34Z</time>
      </trkpt>
      <trkpt lat="43.54179" lon="2.76163">
        <ele>982.4</ele>
        <time>2026-05-22T07:55:39Z</time>
      </trkpt>
      <trkpt lat="43.54186" lon="2.7616">
        <ele>981</ele>
        <time>2026-05-22T07:55:44Z</time>
      </trkpt>
      <trkpt lat="43.54195" lon="2.76157">
        <ele>979.2</ele>
        <time>2026-05-22T07:55:49Z</time>
      </trkpt>
      <trkpt lat="43.542" lon="2.76153">
        <ele>978.3</ele>
        <time>2026-05-22T07:55:54Z</time>
      </trkpt>
      <trkpt lat="43.542" lon="2.76153">
        <ele>978.3</ele>
        <time>2026-05-22T07:55:59Z</time>
      </trkpt>
      <trkpt lat="43.542" lon="2.76153">
        <ele>978.3</ele>
        <time>2026-05-22T07:56:04Z</time>
      </trkpt>
      <trkpt lat="43.542" lon="2.76153">
        <ele>978.3</ele>
        <time>2026-05-22T07:56:09Z</time>
      </trkpt>
      <trkpt lat="43.542" lon="2.76153">
        <ele>978.3</ele>
        <time>2026-05-22T07:56:14Z</time>
      </trkpt>
      <trkpt lat="43.54199" lon="2.76148">
        <ele>978.6</ele>
        <time>2026-05-22T07:56:19Z</time>
      </trkpt>
      <trkpt lat="43.5421" lon="2.76146">
        <ele>976.4</ele>
        <time>2026-05-22T07:56:24Z</time>
      </trkpt>
      <trkpt lat="43.54219" lon="2.76139">
        <ele>974.8</ele>
        <time>2026-05-22T07:56:29Z</time>
      </trkpt>
      <trkpt lat="43.54225" lon="2.76131">
        <ele>973.9</ele>
        <time>2026-05-22T07:56:34Z</time>
      </trkpt>
      <trkpt lat="43.54229" lon="2.76124">
        <ele>973.3</ele>
        <time>2026-05-22T07:56:39Z</time>
      </trkpt>
      <trkpt lat="43.54233" lon="2.76118">
        <ele>972.8</ele>
        <time>2026-05-22T07:56:44Z</time>
      </trkpt>
      <trkpt lat="43.54235" lon="2.76113">
        <ele>972.6</ele>
        <time>2026-05-22T07:56:49Z</time>
      </trkpt>
      <trkpt lat="43.54235" lon="2.76113">
        <ele>972.6</ele>
        <time>2026-05-22T07:56:54Z</time>
      </trkpt>
      <trkpt lat="43.54235" lon="2.76113">
        <ele>972.6</ele>
        <time>2026-05-22T07:56:59Z</time>
      </trkpt>
      <trkpt lat="43.54235" lon="2.76113">
        <ele>972.6</ele>
        <time>2026-05-22T07:57:04Z</time>
      </trkpt>
      <trkpt lat="43.54235" lon="2.76113">
        <ele>972.6</ele>
        <time>2026-05-22T07:57:09Z</time>
      </trkpt>
      <trkpt lat="43.54235" lon="2.76113">
        <ele>972.6</ele>
        <time>2026-05-22T07:57:14Z</time>
      </trkpt>
      <trkpt lat="43.54235" lon="2.76113">
        <ele>972.6</ele>
        <time>2026-05-22T07:57:19Z</time>
      </trkpt>
      <trkpt lat="43.54235" lon="2.76113">
        <ele>972.6</ele>
        <time>2026-05-22T07:57:24Z</time>
      </trkpt>
      <trkpt lat="43.54233" lon="2.761">
        <ele>973.5</ele>
        <time>2026-05-22T07:57:29Z</time>
      </trkpt>
      <trkpt lat="43.54233" lon="2.761">
        <ele>973.5</ele>
        <time>2026-05-22T07:57:34Z</time>
      </trkpt>
      <trkpt lat="43.54233" lon="2.761">
        <ele>973.5</ele>
        <time>2026-05-22T07:57:39Z</time>
      </trkpt>
      <trkpt lat="43.54243" lon="2.76096">
        <ele>971.8</ele>
        <time>2026-05-22T07:57:44Z</time>
      </trkpt>
      <trkpt lat="43.54244" lon="2.76096">
        <ele>971.6</ele>
        <time>2026-05-22T07:57:49Z</time>
      </trkpt>
      <trkpt lat="43.54244" lon="2.76096">
        <ele>971.6</ele>
        <time>2026-05-22T07:57:54Z</time>
      </trkpt>
      <trkpt lat="43.54244" lon="2.76096">
        <ele>971.6</ele>
        <time>2026-05-22T07:57:59Z</time>
      </trkpt>
      <trkpt lat="43.54244" lon="2.76096">
        <ele>971.6</ele>
        <time>2026-05-22T07:58:04Z</time>
      </trkpt>
      <trkpt lat="43.54244" lon="2.76096">
        <ele>971.6</ele>
        <time>2026-05-22T07:58:09Z</time>
      </trkpt>
      <trkpt lat="43.54252" lon="2.76094">
        <ele>970.2</ele>
        <time>2026-05-22T07:58:14Z</time>
      </trkpt>
      <trkpt lat="43.54254" lon="2.7609">
        <ele>970</ele>
        <time>2026-05-22T07:58:19Z</time>
      </trkpt>
      <trkpt lat="43.54258" lon="2.76085">
        <ele>969.6</ele>
        <time>2026-05-22T07:58:24Z</time>
      </trkpt>
      <trkpt lat="43.54262" lon="2.76081">
        <ele>968.9</ele>
        <time>2026-05-22T07:58:29Z</time>
      </trkpt>
      <trkpt lat="43.54268" lon="2.76077">
        <ele>967.8</ele>
        <time>2026-05-22T07:58:34Z</time>
      </trkpt>
      <trkpt lat="43.54271" lon="2.76071">
        <ele>967.1</ele>
        <time>2026-05-22T07:58:39Z</time>
      </trkpt>
      <trkpt lat="43.54275" lon="2.76067">
        <ele>966.4</ele>
        <time>2026-05-22T07:58:44Z</time>
      </trkpt>
      <trkpt lat="43.5428" lon="2.76065">
        <ele>965.5</ele>
        <time>2026-05-22T07:58:49Z</time>
      </trkpt>
      <trkpt lat="43.54288" lon="2.76059">
        <ele>964.1</ele>
        <time>2026-05-22T07:58:54Z</time>
      </trkpt>
      <trkpt lat="43.54294" lon="2.76052">
        <ele>963.1</ele>
        <time>2026-05-22T07:58:59Z</time>
      </trkpt>
      <trkpt lat="43.54299" lon="2.76044">
        <ele>962.2</ele>
        <time>2026-05-22T07:59:04Z</time>
      </trkpt>
      <trkpt lat="43.54304" lon="2.76039">
        <ele>961.4</ele>
        <time>2026-05-22T07:59:09Z</time>
      </trkpt>
      <trkpt lat="43.54305" lon="2.76037">
        <ele>961.2</ele>
        <time>2026-05-22T07:59:14Z</time>
      </trkpt>
      <trkpt lat="43.54306" lon="2.76035">
        <ele>961</ele>
        <time>2026-05-22T07:59:19Z</time>
      </trkpt>
      <trkpt lat="43.54306" lon="2.76035">
        <ele>961</ele>
        <time>2026-05-22T07:59:24Z</time>
      </trkpt>
      <trkpt lat="43.54306" lon="2.76035">
        <ele>961</ele>
        <time>2026-05-22T07:59:29Z</time>
      </trkpt>
      <trkpt lat="43.54306" lon="2.76035">
        <ele>961</ele>
        <time>2026-05-22T07:59:34Z</time>
      </trkpt>
      <trkpt lat="43.54298" lon="2.76025">
        <ele>962</ele>
        <time>2026-05-22T07:59:39Z</time>
      </trkpt>
      <trkpt lat="43.54298" lon="2.76025">
        <ele>962</ele>
        <time>2026-05-22T07:59:44Z</time>
      </trkpt>
      <trkpt lat="43.54301" lon="2.76021">
        <ele>961.6</ele>
        <time>2026-05-22T07:59:49Z</time>
      </trkpt>
      <trkpt lat="43.54305" lon="2.7602">
        <ele>961</ele>
        <time>2026-05-22T07:59:54Z</time>
      </trkpt>
      <trkpt lat="43.5431" lon="2.76023">
        <ele>960.3</ele>
        <time>2026-05-22T07:59:59Z</time>
      </trkpt>
      <trkpt lat="43.54314" lon="2.76026">
        <ele>959.8</ele>
        <time>2026-05-22T08:00:04Z</time>
      </trkpt>
      <trkpt lat="43.54318" lon="2.76023">
        <ele>959.2</ele>
        <time>2026-05-22T08:00:09Z</time>
      </trkpt>
      <trkpt lat="43.54323" lon="2.76015">
        <ele>958.4</ele>
        <time>2026-05-22T08:00:14Z</time>
      </trkpt>
      <trkpt lat="43.54325" lon="2.76008">
        <ele>958.1</ele>
        <time>2026-05-22T08:00:19Z</time>
      </trkpt>
      <trkpt lat="43.54327" lon="2.76006">
        <ele>957.9</ele>
        <time>2026-05-22T08:00:24Z</time>
      </trkpt>
      <trkpt lat="43.54331" lon="2.76007">
        <ele>957.3</ele>
        <time>2026-05-22T08:00:29Z</time>
      </trkpt>
      <trkpt lat="43.54331" lon="2.76007">
        <ele>957.3</ele>
        <time>2026-05-22T08:00:34Z</time>
      </trkpt>
      <trkpt lat="43.54331" lon="2.76007">
        <ele>957.3</ele>
        <time>2026-05-22T08:00:39Z</time>
      </trkpt>
      <trkpt lat="43.54331" lon="2.76007">
        <ele>957.3</ele>
        <time>2026-05-22T08:00:44Z</time>
      </trkpt>
      <trkpt lat="43.54331" lon="2.76007">
        <ele>957.3</ele>
        <time>2026-05-22T08:00:49Z</time>
      </trkpt>
      <trkpt lat="43.5433" lon="2.75994">
        <ele>956.9</ele>
        <time>2026-05-22T08:00:54Z</time>
      </trkpt>
      <trkpt lat="43.54329" lon="2.75991">
        <ele>956.8</ele>
        <time>2026-05-22T08:00:59Z</time>
      </trkpt>
      <trkpt lat="43.54329" lon="2.75982">
        <ele>956</ele>
        <time>2026-05-22T08:01:04Z</time>
      </trkpt>
      <trkpt lat="43.54331" lon="2.75974">
        <ele>955.1</ele>
        <time>2026-05-22T08:01:09Z</time>
      </trkpt>
      <trkpt lat="43.54336" lon="2.75965">
        <ele>953.7</ele>
        <time>2026-05-22T08:01:14Z</time>
      </trkpt>
      <trkpt lat="43.54341" lon="2.75957">
        <ele>952.4</ele>
        <time>2026-05-22T08:01:19Z</time>
      </trkpt>
      <trkpt lat="43.54343" lon="2.7595">
        <ele>951.6</ele>
        <time>2026-05-22T08:01:24Z</time>
      </trkpt>
      <trkpt lat="43.54345" lon="2.75943">
        <ele>950.9</ele>
        <time>2026-05-22T08:01:29Z</time>
      </trkpt>
      <trkpt lat="43.54348" lon="2.75935">
        <ele>950</ele>
        <time>2026-05-22T08:01:34Z</time>
      </trkpt>
      <trkpt lat="43.54348" lon="2.75923">
        <ele>949.2</ele>
        <time>2026-05-22T08:01:39Z</time>
      </trkpt>
      <trkpt lat="43.54348" lon="2.75911">
        <ele>948.1</ele>
        <time>2026-05-22T08:01:44Z</time>
      </trkpt>
      <trkpt lat="43.54347" lon="2.75898">
        <ele>946.6</ele>
        <time>2026-05-22T08:01:49Z</time>
      </trkpt>
      <trkpt lat="43.54347" lon="2.75889">
        <ele>945.5</ele>
        <time>2026-05-22T08:01:54Z</time>
      </trkpt>
      <trkpt lat="43.54348" lon="2.7588">
        <ele>944.3</ele>
        <time>2026-05-22T08:01:59Z</time>
      </trkpt>
      <trkpt lat="43.54347" lon="2.7587">
        <ele>943.2</ele>
        <time>2026-05-22T08:02:04Z</time>
      </trkpt>
      <trkpt lat="43.54345" lon="2.75862">
        <ele>942.3</ele>
        <time>2026-05-22T08:02:09Z</time>
      </trkpt>
      <trkpt lat="43.54346" lon="2.75855">
        <ele>941.4</ele>
        <time>2026-05-22T08:02:14Z</time>
      </trkpt>
      <trkpt lat="43.54347" lon="2.75847">
        <ele>940.3</ele>
        <time>2026-05-22T08:02:19Z</time>
      </trkpt>
      <trkpt lat="43.54347" lon="2.75839">
        <ele>939.4</ele>
        <time>2026-05-22T08:02:24Z</time>
      </trkpt>
      <trkpt lat="43.54347" lon="2.75832">
        <ele>938.5</ele>
        <time>2026-05-22T08:02:29Z</time>
      </trkpt>
      <trkpt lat="43.54348" lon="2.75826">
        <ele>937.9</ele>
        <time>2026-05-22T08:02:34Z</time>
      </trkpt>
      <trkpt lat="43.54349" lon="2.75824">
        <ele>937.6</ele>
        <time>2026-05-22T08:02:39Z</time>
      </trkpt>
      <trkpt lat="43.54353" lon="2.75827">
        <ele>937.9</ele>
        <time>2026-05-22T08:02:44Z</time>
      </trkpt>
      <trkpt lat="43.54353" lon="2.75827">
        <ele>937.9</ele>
        <time>2026-05-22T08:02:49Z</time>
      </trkpt>
      <trkpt lat="43.54353" lon="2.75827">
        <ele>937.9</ele>
        <time>2026-05-22T08:02:54Z</time>
      </trkpt>
      <trkpt lat="43.54353" lon="2.75827">
        <ele>937.9</ele>
        <time>2026-05-22T08:02:59Z</time>
      </trkpt>
      <trkpt lat="43.54353" lon="2.75829">
        <ele>938.1</ele>
        <time>2026-05-22T08:03:04Z</time>
      </trkpt>
      <trkpt lat="43.54357" lon="2.75829">
        <ele>938</ele>
        <time>2026-05-22T08:03:09Z</time>
      </trkpt>
      <trkpt lat="43.54362" lon="2.75831">
        <ele>938.1</ele>
        <time>2026-05-22T08:03:14Z</time>
      </trkpt>
      <trkpt lat="43.54367" lon="2.75833">
        <ele>938.2</ele>
        <time>2026-05-22T08:03:19Z</time>
      </trkpt>
      <trkpt lat="43.54374" lon="2.75838">
        <ele>938.5</ele>
        <time>2026-05-22T08:03:24Z</time>
      </trkpt>
      <trkpt lat="43.54377" lon="2.75836">
        <ele>938.2</ele>
        <time>2026-05-22T08:03:29Z</time>
      </trkpt>
      <trkpt lat="43.54383" lon="2.75841">
        <ele>938.5</ele>
        <time>2026-05-22T08:03:34Z</time>
      </trkpt>
      <trkpt lat="43.54391" lon="2.75847">
        <ele>938.9</ele>
        <time>2026-05-22T08:03:39Z</time>
      </trkpt>
      <trkpt lat="43.54395" lon="2.75854">
        <ele>939.3</ele>
        <time>2026-05-22T08:03:44Z</time>
      </trkpt>
      <trkpt lat="43.54401" lon="2.75865">
        <ele>940</ele>
        <time>2026-05-22T08:03:49Z</time>
      </trkpt>
      <trkpt lat="43.54405" lon="2.75873">
        <ele>940.5</ele>
        <time>2026-05-22T08:03:54Z</time>
      </trkpt>
      <trkpt lat="43.54408" lon="2.75878">
        <ele>940.7</ele>
        <time>2026-05-22T08:03:59Z</time>
      </trkpt>
      <trkpt lat="43.54413" lon="2.75883">
        <ele>940.8</ele>
        <time>2026-05-22T08:04:04Z</time>
      </trkpt>
      <trkpt lat="43.54417" lon="2.75889">
        <ele>941</ele>
        <time>2026-05-22T08:04:09Z</time>
      </trkpt>
      <trkpt lat="43.54424" lon="2.75894">
        <ele>940.4</ele>
        <time>2026-05-22T08:04:14Z</time>
      </trkpt>
      <trkpt lat="43.54429" lon="2.75901">
        <ele>940.1</ele>
        <time>2026-05-22T08:04:19Z</time>
      </trkpt>
      <trkpt lat="43.54435" lon="2.75908">
        <ele>939.7</ele>
        <time>2026-05-22T08:04:24Z</time>
      </trkpt>
      <trkpt lat="43.54441" lon="2.75916">
        <ele>939.2</ele>
        <time>2026-05-22T08:04:29Z</time>
      </trkpt>
      <trkpt lat="43.54445" lon="2.75924">
        <ele>938.6</ele>
        <time>2026-05-22T08:04:34Z</time>
      </trkpt>
      <trkpt lat="43.54452" lon="2.75923">
        <ele>937.5</ele>
        <time>2026-05-22T08:04:39Z</time>
      </trkpt>
      <trkpt lat="43.54461" lon="2.75914">
        <ele>936</ele>
        <time>2026-05-22T08:04:44Z</time>
      </trkpt>
      <trkpt lat="43.54463" lon="2.75904">
        <ele>935.5</ele>
        <time>2026-05-22T08:04:49Z</time>
      </trkpt>
      <trkpt lat="43.54463" lon="2.75893">
        <ele>935.2</ele>
        <time>2026-05-22T08:04:54Z</time>
      </trkpt>
      <trkpt lat="43.54463" lon="2.75884">
        <ele>934.9</ele>
        <time>2026-05-22T08:04:59Z</time>
      </trkpt>
      <trkpt lat="43.54464" lon="2.75875">
        <ele>934.6</ele>
        <time>2026-05-22T08:05:04Z</time>
      </trkpt>
      <trkpt lat="43.54464" lon="2.75862">
        <ele>934.3</ele>
        <time>2026-05-22T08:05:09Z</time>
      </trkpt>
      <trkpt lat="43.54464" lon="2.75852">
        <ele>934</ele>
        <time>2026-05-22T08:05:14Z</time>
      </trkpt>
      <trkpt lat="43.54467" lon="2.75841">
        <ele>933.5</ele>
        <time>2026-05-22T08:05:19Z</time>
      </trkpt>
      <trkpt lat="43.5447" lon="2.75828">
        <ele>933</ele>
        <time>2026-05-22T08:05:24Z</time>
      </trkpt>
      <trkpt lat="43.54473" lon="2.75816">
        <ele>932.4</ele>
        <time>2026-05-22T08:05:29Z</time>
      </trkpt>
      <trkpt lat="43.54474" lon="2.75807">
        <ele>932</ele>
        <time>2026-05-22T08:05:34Z</time>
      </trkpt>
      <trkpt lat="43.54474" lon="2.75796">
        <ele>931.7</ele>
        <time>2026-05-22T08:05:39Z</time>
      </trkpt>
      <trkpt lat="43.54473" lon="2.75786">
        <ele>931.4</ele>
        <time>2026-05-22T08:05:44Z</time>
      </trkpt>
      <trkpt lat="43.54474" lon="2.75774">
        <ele>931</ele>
        <time>2026-05-22T08:05:49Z</time>
      </trkpt>
      <trkpt lat="43.54474" lon="2.75763">
        <ele>930.7</ele>
        <time>2026-05-22T08:05:54Z</time>
      </trkpt>
      <trkpt lat="43.54473" lon="2.75753">
        <ele>930.4</ele>
        <time>2026-05-22T08:05:59Z</time>
      </trkpt>
      <trkpt lat="43.54476" lon="2.75746">
        <ele>929.8</ele>
        <time>2026-05-22T08:06:04Z</time>
      </trkpt>
      <trkpt lat="43.54479" lon="2.75736">
        <ele>928.7</ele>
        <time>2026-05-22T08:06:09Z</time>
      </trkpt>
      <trkpt lat="43.54484" lon="2.75725">
        <ele>927.5</ele>
        <time>2026-05-22T08:06:14Z</time>
      </trkpt>
      <trkpt lat="43.54486" lon="2.75716">
        <ele>926.6</ele>
        <time>2026-05-22T08:06:19Z</time>
      </trkpt>
      <trkpt lat="43.5449" lon="2.75706">
        <ele>925.6</ele>
        <time>2026-05-22T08:06:24Z</time>
      </trkpt>
      <trkpt lat="43.54492" lon="2.75697">
        <ele>924.7</ele>
        <time>2026-05-22T08:06:29Z</time>
      </trkpt>
      <trkpt lat="43.54494" lon="2.75688">
        <ele>923.9</ele>
        <time>2026-05-22T08:06:34Z</time>
      </trkpt>
      <trkpt lat="43.54497" lon="2.75679">
        <ele>923.1</ele>
        <time>2026-05-22T08:06:39Z</time>
      </trkpt>
      <trkpt lat="43.54499" lon="2.75672">
        <ele>922.5</ele>
        <time>2026-05-22T08:06:44Z</time>
      </trkpt>
      <trkpt lat="43.54502" lon="2.75664">
        <ele>921.5</ele>
        <time>2026-05-22T08:06:49Z</time>
      </trkpt>
      <trkpt lat="43.545" lon="2.75654">
        <ele>920.8</ele>
        <time>2026-05-22T08:06:54Z</time>
      </trkpt>
      <trkpt lat="43.54502" lon="2.75644">
        <ele>919.6</ele>
        <time>2026-05-22T08:06:59Z</time>
      </trkpt>
      <trkpt lat="43.54503" lon="2.75635">
        <ele>918.7</ele>
        <time>2026-05-22T08:07:04Z</time>
      </trkpt>
      <trkpt lat="43.54501" lon="2.75622">
        <ele>917.6</ele>
        <time>2026-05-22T08:07:09Z</time>
      </trkpt>
      <trkpt lat="43.545" lon="2.75612">
        <ele>916.8</ele>
        <time>2026-05-22T08:07:14Z</time>
      </trkpt>
      <trkpt lat="43.54499" lon="2.75604">
        <ele>916</ele>
        <time>2026-05-22T08:07:19Z</time>
      </trkpt>
      <trkpt lat="43.54499" lon="2.75595">
        <ele>915.1</ele>
        <time>2026-05-22T08:07:24Z</time>
      </trkpt>
      <trkpt lat="43.54498" lon="2.75585">
        <ele>914.2</ele>
        <time>2026-05-22T08:07:29Z</time>
      </trkpt>
      <trkpt lat="43.54497" lon="2.75574">
        <ele>913.1</ele>
        <time>2026-05-22T08:07:34Z</time>
      </trkpt>
      <trkpt lat="43.54499" lon="2.75561">
        <ele>911.9</ele>
        <time>2026-05-22T08:07:39Z</time>
      </trkpt>
      <trkpt lat="43.54502" lon="2.75549">
        <ele>910.6</ele>
        <time>2026-05-22T08:07:44Z</time>
      </trkpt>
      <trkpt lat="43.54506" lon="2.75534">
        <ele>908.9</ele>
        <time>2026-05-22T08:07:49Z</time>
      </trkpt>
      <trkpt lat="43.54512" lon="2.75522">
        <ele>907.5</ele>
        <time>2026-05-22T08:07:54Z</time>
      </trkpt>
      <trkpt lat="43.54515" lon="2.75511">
        <ele>906.3</ele>
        <time>2026-05-22T08:07:59Z</time>
      </trkpt>
      <trkpt lat="43.54518" lon="2.75504">
        <ele>905.5</ele>
        <time>2026-05-22T08:08:04Z</time>
      </trkpt>
      <trkpt lat="43.5452" lon="2.75495">
        <ele>904.9</ele>
        <time>2026-05-22T08:08:09Z</time>
      </trkpt>
      <trkpt lat="43.54525" lon="2.75489">
        <ele>904.4</ele>
        <time>2026-05-22T08:08:14Z</time>
      </trkpt>
      <trkpt lat="43.54531" lon="2.75482">
        <ele>903.9</ele>
        <time>2026-05-22T08:08:19Z</time>
      </trkpt>
      <trkpt lat="43.54537" lon="2.75474">
        <ele>903.4</ele>
        <time>2026-05-22T08:08:24Z</time>
      </trkpt>
      <trkpt lat="43.54545" lon="2.75468">
        <ele>902.9</ele>
        <time>2026-05-22T08:08:29Z</time>
      </trkpt>
      <trkpt lat="43.54552" lon="2.75463">
        <ele>902.4</ele>
        <time>2026-05-22T08:08:34Z</time>
      </trkpt>
      <trkpt lat="43.54558" lon="2.7546">
        <ele>902.1</ele>
        <time>2026-05-22T08:08:39Z</time>
      </trkpt>
      <trkpt lat="43.54563" lon="2.75456">
        <ele>901.8</ele>
        <time>2026-05-22T08:08:44Z</time>
      </trkpt>
      <trkpt lat="43.54569" lon="2.7545">
        <ele>901.4</ele>
        <time>2026-05-22T08:08:49Z</time>
      </trkpt>
      <trkpt lat="43.54574" lon="2.75446">
        <ele>901.1</ele>
        <time>2026-05-22T08:08:54Z</time>
      </trkpt>
      <trkpt lat="43.54581" lon="2.75445">
        <ele>900.8</ele>
        <time>2026-05-22T08:08:59Z</time>
      </trkpt>
      <trkpt lat="43.54589" lon="2.75446">
        <ele>900.8</ele>
        <time>2026-05-22T08:09:04Z</time>
      </trkpt>
      <trkpt lat="43.54596" lon="2.75446">
        <ele>901</ele>
        <time>2026-05-22T08:09:09Z</time>
      </trkpt>
      <trkpt lat="43.54602" lon="2.75445">
        <ele>901.1</ele>
        <time>2026-05-22T08:09:14Z</time>
      </trkpt>
      <trkpt lat="43.54607" lon="2.75446">
        <ele>901.3</ele>
        <time>2026-05-22T08:09:19Z</time>
      </trkpt>
      <trkpt lat="43.54611" lon="2.75447">
        <ele>901.4</ele>
        <time>2026-05-22T08:09:24Z</time>
      </trkpt>
      <trkpt lat="43.54614" lon="2.75445">
        <ele>901.4</ele>
        <time>2026-05-22T08:09:29Z</time>
      </trkpt>
      <trkpt lat="43.54617" lon="2.75444">
        <ele>901.5</ele>
        <time>2026-05-22T08:09:34Z</time>
      </trkpt>
      <trkpt lat="43.54617" lon="2.75444">
        <ele>901.5</ele>
        <time>2026-05-22T08:09:39Z</time>
      </trkpt>
      <trkpt lat="43.54617" lon="2.75444">
        <ele>901.5</ele>
        <time>2026-05-22T08:09:44Z</time>
      </trkpt>
      <trkpt lat="43.54617" lon="2.75444">
        <ele>901.5</ele>
        <time>2026-05-22T08:09:49Z</time>
      </trkpt>
      <trkpt lat="43.54617" lon="2.75444">
        <ele>901.5</ele>
        <time>2026-05-22T08:09:54Z</time>
      </trkpt>
      <trkpt lat="43.54617" lon="2.75444">
        <ele>901.5</ele>
        <time>2026-05-22T08:09:59Z</time>
      </trkpt>
      <trkpt lat="43.54617" lon="2.75444">
        <ele>901.5</ele>
        <time>2026-05-22T08:10:04Z</time>
      </trkpt>
      <trkpt lat="43.54617" lon="2.75444">
        <ele>901.5</ele>
        <time>2026-05-22T08:10:09Z</time>
      </trkpt>
      <trkpt lat="43.54617" lon="2.75444">
        <ele>901.5</ele>
        <time>2026-05-22T08:10:14Z</time>
      </trkpt>
      <trkpt lat="43.54617" lon="2.75444">
        <ele>901.5</ele>
        <time>2026-05-22T08:10:19Z</time>
      </trkpt>
      <trkpt lat="43.54617" lon="2.75444">
        <ele>901.5</ele>
        <time>2026-05-22T08:10:24Z</time>
      </trkpt>
      <trkpt lat="43.54617" lon="2.75444">
        <ele>901.5</ele>
        <time>2026-05-22T08:10:29Z</time>
      </trkpt>
      <trkpt lat="43.54617" lon="2.75444">
        <ele>901.5</ele>
        <time>2026-05-22T08:10:34Z</time>
      </trkpt>
      <trkpt lat="43.54617" lon="2.75444">
        <ele>901.5</ele>
        <time>2026-05-22T08:10:39Z</time>
      </trkpt>
      <trkpt lat="43.54617" lon="2.75444">
        <ele>901.5</ele>
        <time>2026-05-22T08:10:44Z</time>
      </trkpt>
      <trkpt lat="43.54617" lon="2.75444">
        <ele>901.5</ele>
        <time>2026-05-22T08:10:49Z</time>
      </trkpt>
      <trkpt lat="43.54617" lon="2.75444">
        <ele>901.5</ele>
        <time>2026-05-22T08:10:54Z</time>
      </trkpt>
      <trkpt lat="43.54617" lon="2.75444">
        <ele>901.5</ele>
        <time>2026-05-22T08:10:59Z</time>
      </trkpt>
      <trkpt lat="43.54617" lon="2.75444">
        <ele>901.5</ele>
        <time>2026-05-22T08:11:04Z</time>
      </trkpt>
      <trkpt lat="43.54617" lon="2.75444">
        <ele>901.5</ele>
        <time>2026-05-22T08:11:09Z</time>
      </trkpt>
      <trkpt lat="43.54617" lon="2.75444">
        <ele>901.5</ele>
        <time>2026-05-22T08:11:14Z</time>
      </trkpt>
      <trkpt lat="43.54616" lon="2.75449">
        <ele>901.5</ele>
        <time>2026-05-22T08:11:19Z</time>
      </trkpt>
      <trkpt lat="43.54621" lon="2.75452">
        <ele>901.6</ele>
        <time>2026-05-22T08:11:24Z</time>
      </trkpt>
      <trkpt lat="43.54627" lon="2.75458">
        <ele>901.8</ele>
        <time>2026-05-22T08:11:29Z</time>
      </trkpt>
      <trkpt lat="43.54631" lon="2.75461">
        <ele>901.9</ele>
        <time>2026-05-22T08:11:34Z</time>
      </trkpt>
      <trkpt lat="43.54635" lon="2.75467">
        <ele>901.9</ele>
        <time>2026-05-22T08:11:39Z</time>
      </trkpt>
      <trkpt lat="43.54641" lon="2.75467">
        <ele>902</ele>
        <time>2026-05-22T08:11:44Z</time>
      </trkpt>
      <trkpt lat="43.54648" lon="2.75464">
        <ele>902.1</ele>
        <time>2026-05-22T08:11:49Z</time>
      </trkpt>
      <trkpt lat="43.54653" lon="2.75461">
        <ele>902.2</ele>
        <time>2026-05-22T08:11:54Z</time>
      </trkpt>
      <trkpt lat="43.54661" lon="2.75455">
        <ele>902.4</ele>
        <time>2026-05-22T08:11:59Z</time>
      </trkpt>
      <trkpt lat="43.54667" lon="2.75449">
        <ele>902.6</ele>
        <time>2026-05-22T08:12:04Z</time>
      </trkpt>
      <trkpt lat="43.5467" lon="2.75439">
        <ele>902.9</ele>
        <time>2026-05-22T08:12:09Z</time>
      </trkpt>
      <trkpt lat="43.54672" lon="2.7543">
        <ele>903.1</ele>
        <time>2026-05-22T08:12:14Z</time>
      </trkpt>
      <trkpt lat="43.54675" lon="2.75424">
        <ele>903.4</ele>
        <time>2026-05-22T08:12:19Z</time>
      </trkpt>
      <trkpt lat="43.54677" lon="2.75416">
        <ele>903.6</ele>
        <time>2026-05-22T08:12:24Z</time>
      </trkpt>
      <trkpt lat="43.54678" lon="2.75408">
        <ele>903.7</ele>
        <time>2026-05-22T08:12:29Z</time>
      </trkpt>
      <trkpt lat="43.54681" lon="2.75399">
        <ele>904</ele>
        <time>2026-05-22T08:12:34Z</time>
      </trkpt>
      <trkpt lat="43.54683" lon="2.75389">
        <ele>904.2</ele>
        <time>2026-05-22T08:12:39Z</time>
      </trkpt>
      <trkpt lat="43.54684" lon="2.7538">
        <ele>904.3</ele>
        <time>2026-05-22T08:12:44Z</time>
      </trkpt>
      <trkpt lat="43.54687" lon="2.75372">
        <ele>904.6</ele>
        <time>2026-05-22T08:12:49Z</time>
      </trkpt>
      <trkpt lat="43.5469" lon="2.75366">
        <ele>904.9</ele>
        <time>2026-05-22T08:12:54Z</time>
      </trkpt>
      <trkpt lat="43.54695" lon="2.75358">
        <ele>905.4</ele>
        <time>2026-05-22T08:12:59Z</time>
      </trkpt>
      <trkpt lat="43.547" lon="2.75351">
        <ele>905.9</ele>
        <time>2026-05-22T08:13:04Z</time>
      </trkpt>
      <trkpt lat="43.54704" lon="2.75344">
        <ele>906.4</ele>
        <time>2026-05-22T08:13:09Z</time>
      </trkpt>
      <trkpt lat="43.54708" lon="2.75338">
        <ele>906.9</ele>
        <time>2026-05-22T08:13:14Z</time>
      </trkpt>
      <trkpt lat="43.54714" lon="2.75335">
        <ele>907.5</ele>
        <time>2026-05-22T08:13:19Z</time>
      </trkpt>
      <trkpt lat="43.54721" lon="2.75335">
        <ele>908.2</ele>
        <time>2026-05-22T08:13:24Z</time>
      </trkpt>
      <trkpt lat="43.54729" lon="2.75334">
        <ele>909</ele>
        <time>2026-05-22T08:13:29Z</time>
      </trkpt>
      <trkpt lat="43.54736" lon="2.75334">
        <ele>909.6</ele>
        <time>2026-05-22T08:13:34Z</time>
      </trkpt>
      <trkpt lat="43.54741" lon="2.75332">
        <ele>910.1</ele>
        <time>2026-05-22T08:13:39Z</time>
      </trkpt>
      <trkpt lat="43.54745" lon="2.7533">
        <ele>910.4</ele>
        <time>2026-05-22T08:13:44Z</time>
      </trkpt>
      <trkpt lat="43.54749" lon="2.75328">
        <ele>910.8</ele>
        <time>2026-05-22T08:13:49Z</time>
      </trkpt>
      <trkpt lat="43.54749" lon="2.75325">
        <ele>910.7</ele>
        <time>2026-05-22T08:13:54Z</time>
      </trkpt>
      <trkpt lat="43.54754" lon="2.75322">
        <ele>910.9</ele>
        <time>2026-05-22T08:13:59Z</time>
      </trkpt>
      <trkpt lat="43.5476" lon="2.75319">
        <ele>911.2</ele>
        <time>2026-05-22T08:14:04Z</time>
      </trkpt>
      <trkpt lat="43.54767" lon="2.75314">
        <ele>911.6</ele>
        <time>2026-05-22T08:14:09Z</time>
      </trkpt>
      <trkpt lat="43.54772" lon="2.75309">
        <ele>911.9</ele>
        <time>2026-05-22T08:14:14Z</time>
      </trkpt>
      <trkpt lat="43.54776" lon="2.75301">
        <ele>912.2</ele>
        <time>2026-05-22T08:14:19Z</time>
      </trkpt>
      <trkpt lat="43.54778" lon="2.75293">
        <ele>912.5</ele>
        <time>2026-05-22T08:14:24Z</time>
      </trkpt>
      <trkpt lat="43.54783" lon="2.75287">
        <ele>913.1</ele>
        <time>2026-05-22T08:14:29Z</time>
      </trkpt>
      <trkpt lat="43.54786" lon="2.7528">
        <ele>913.5</ele>
        <time>2026-05-22T08:14:34Z</time>
      </trkpt>
      <trkpt lat="43.54794" lon="2.75273">
        <ele>914.6</ele>
        <time>2026-05-22T08:14:39Z</time>
      </trkpt>
      <trkpt lat="43.54798" lon="2.75272">
        <ele>915.1</ele>
        <time>2026-05-22T08:14:44Z</time>
      </trkpt>
      <trkpt lat="43.54804" lon="2.75268">
        <ele>915.9</ele>
        <time>2026-05-22T08:14:49Z</time>
      </trkpt>
      <trkpt lat="43.54811" lon="2.75266">
        <ele>916.9</ele>
        <time>2026-05-22T08:14:54Z</time>
      </trkpt>
      <trkpt lat="43.54815" lon="2.75262">
        <ele>917.6</ele>
        <time>2026-05-22T08:14:59Z</time>
      </trkpt>
      <trkpt lat="43.5482" lon="2.75258">
        <ele>918.5</ele>
        <time>2026-05-22T08:15:04Z</time>
      </trkpt>
      <trkpt lat="43.54825" lon="2.75253">
        <ele>919.6</ele>
        <time>2026-05-22T08:15:09Z</time>
      </trkpt>
      <trkpt lat="43.54829" lon="2.75249">
        <ele>920.3</ele>
        <time>2026-05-22T08:15:14Z</time>
      </trkpt>
      <trkpt lat="43.54834" lon="2.75245">
        <ele>920.8</ele>
        <time>2026-05-22T08:15:19Z</time>
      </trkpt>
      <trkpt lat="43.54839" lon="2.75242">
        <ele>921</ele>
        <time>2026-05-22T08:15:24Z</time>
      </trkpt>
      <trkpt lat="43.54844" lon="2.75238">
        <ele>921.1</ele>
        <time>2026-05-22T08:15:29Z</time>
      </trkpt>
      <trkpt lat="43.54849" lon="2.75234">
        <ele>921.3</ele>
        <time>2026-05-22T08:15:34Z</time>
      </trkpt>
      <trkpt lat="43.54856" lon="2.7523">
        <ele>921.7</ele>
        <time>2026-05-22T08:15:39Z</time>
      </trkpt>
      <trkpt lat="43.54861" lon="2.75225">
        <ele>922</ele>
        <time>2026-05-22T08:15:44Z</time>
      </trkpt>
      <trkpt lat="43.54869" lon="2.75223">
        <ele>922.6</ele>
        <time>2026-05-22T08:15:49Z</time>
      </trkpt>
      <trkpt lat="43.54874" lon="2.75221">
        <ele>922.9</ele>
        <time>2026-05-22T08:15:54Z</time>
      </trkpt>
      <trkpt lat="43.54881" lon="2.75219">
        <ele>923.5</ele>
        <time>2026-05-22T08:15:59Z</time>
      </trkpt>
      <trkpt lat="43.54888" lon="2.75218">
        <ele>924.1</ele>
        <time>2026-05-22T08:16:04Z</time>
      </trkpt>
      <trkpt lat="43.54896" lon="2.75217">
        <ele>924.7</ele>
        <time>2026-05-22T08:16:09Z</time>
      </trkpt>
      <trkpt lat="43.54904" lon="2.75215">
        <ele>925.5</ele>
        <time>2026-05-22T08:16:14Z</time>
      </trkpt>
      <trkpt lat="43.5491" lon="2.75216">
        <ele>925.9</ele>
        <time>2026-05-22T08:16:19Z</time>
      </trkpt>
      <trkpt lat="43.54915" lon="2.75214">
        <ele>926.5</ele>
        <time>2026-05-22T08:16:24Z</time>
      </trkpt>
      <trkpt lat="43.54915" lon="2.75213">
        <ele>926.5</ele>
        <time>2026-05-22T08:16:29Z</time>
      </trkpt>
      <trkpt lat="43.54916" lon="2.75212">
        <ele>926.7</ele>
        <time>2026-05-22T08:16:34Z</time>
      </trkpt>
      <trkpt lat="43.54912" lon="2.75214">
        <ele>926.2</ele>
        <time>2026-05-22T08:16:39Z</time>
      </trkpt>
      <trkpt lat="43.54906" lon="2.75216">
        <ele>925.6</ele>
        <time>2026-05-22T08:16:44Z</time>
      </trkpt>
      <trkpt lat="43.549" lon="2.75218">
        <ele>925</ele>
        <time>2026-05-22T08:16:49Z</time>
      </trkpt>
      <trkpt lat="43.54894" lon="2.75219">
        <ele>924.5</ele>
        <time>2026-05-22T08:16:54Z</time>
      </trkpt>
      <trkpt lat="43.54888" lon="2.7522">
        <ele>924</ele>
        <time>2026-05-22T08:16:59Z</time>
      </trkpt>
      <trkpt lat="43.54883" lon="2.75222">
        <ele>923.6</ele>
        <time>2026-05-22T08:17:04Z</time>
      </trkpt>
      <trkpt lat="43.54878" lon="2.75223">
        <ele>923.2</ele>
        <time>2026-05-22T08:17:09Z</time>
      </trkpt>
      <trkpt lat="43.54872" lon="2.75225">
        <ele>922.7</ele>
        <time>2026-05-22T08:17:14Z</time>
      </trkpt>
      <trkpt lat="43.54866" lon="2.75226">
        <ele>922.3</ele>
        <time>2026-05-22T08:17:19Z</time>
      </trkpt>
      <trkpt lat="43.54859" lon="2.75229">
        <ele>921.9</ele>
        <time>2026-05-22T08:17:24Z</time>
      </trkpt>
      <trkpt lat="43.54853" lon="2.75233">
        <ele>921.5</ele>
        <time>2026-05-22T08:17:29Z</time>
      </trkpt>
      <trkpt lat="43.54847" lon="2.75235">
        <ele>921.2</ele>
        <time>2026-05-22T08:17:34Z</time>
      </trkpt>
      <trkpt lat="43.54841" lon="2.75236">
        <ele>920.9</ele>
        <time>2026-05-22T08:17:39Z</time>
      </trkpt>
      <trkpt lat="43.54836" lon="2.75236">
        <ele>920.6</ele>
        <time>2026-05-22T08:17:44Z</time>
      </trkpt>
      <trkpt lat="43.54831" lon="2.75237">
        <ele>920.2</ele>
        <time>2026-05-22T08:17:49Z</time>
      </trkpt>
      <trkpt lat="43.5483" lon="2.75236">
        <ele>920</ele>
        <time>2026-05-22T08:17:54Z</time>
      </trkpt>
      <trkpt lat="43.5483" lon="2.75236">
        <ele>920</ele>
        <time>2026-05-22T08:17:59Z</time>
      </trkpt>
      <trkpt lat="43.54827" lon="2.7524">
        <ele>919.7</ele>
        <time>2026-05-22T08:18:04Z</time>
      </trkpt>
      <trkpt lat="43.54821" lon="2.75243">
        <ele>918.9</ele>
        <time>2026-05-22T08:18:09Z</time>
      </trkpt>
      <trkpt lat="43.54813" lon="2.75246">
        <ele>917.9</ele>
        <time>2026-05-22T08:18:14Z</time>
      </trkpt>
      <trkpt lat="43.54806" lon="2.75248">
        <ele>917</ele>
        <time>2026-05-22T08:18:19Z</time>
      </trkpt>
      <trkpt lat="43.548" lon="2.75247">
        <ele>916</ele>
        <time>2026-05-22T08:18:24Z</time>
      </trkpt>
      <trkpt lat="43.54793" lon="2.75248">
        <ele>915.1</ele>
        <time>2026-05-22T08:18:29Z</time>
      </trkpt>
      <trkpt lat="43.54784" lon="2.75246">
        <ele>913.7</ele>
        <time>2026-05-22T08:18:34Z</time>
      </trkpt>
      <trkpt lat="43.54779" lon="2.75243">
        <ele>912.8</ele>
        <time>2026-05-22T08:18:39Z</time>
      </trkpt>
      <trkpt lat="43.54775" lon="2.7524">
        <ele>912</ele>
        <time>2026-05-22T08:18:44Z</time>
      </trkpt>
      <trkpt lat="43.54771" lon="2.75239">
        <ele>911.3</ele>
        <time>2026-05-22T08:18:49Z</time>
      </trkpt>
      <trkpt lat="43.54765" lon="2.75229">
        <ele>909.8</ele>
        <time>2026-05-22T08:18:54Z</time>
      </trkpt>
      <trkpt lat="43.54761" lon="2.75222">
        <ele>908.7</ele>
        <time>2026-05-22T08:18:59Z</time>
      </trkpt>
      <trkpt lat="43.54759" lon="2.75215">
        <ele>907.9</ele>
        <time>2026-05-22T08:19:04Z</time>
      </trkpt>
      <trkpt lat="43.54758" lon="2.75209">
        <ele>907.3</ele>
        <time>2026-05-22T08:19:09Z</time>
      </trkpt>
      <trkpt lat="43.54757" lon="2.75202">
        <ele>906.7</ele>
        <time>2026-05-22T08:19:14Z</time>
      </trkpt>
      <trkpt lat="43.54756" lon="2.75195">
        <ele>906</ele>
        <time>2026-05-22T08:19:19Z</time>
      </trkpt>
      <trkpt lat="43.54755" lon="2.75187">
        <ele>905.3</ele>
        <time>2026-05-22T08:19:24Z</time>
      </trkpt>
      <trkpt lat="43.5475" lon="2.75178">
        <ele>903.8</ele>
        <time>2026-05-22T08:19:29Z</time>
      </trkpt>
      <trkpt lat="43.54748" lon="2.75167">
        <ele>902.8</ele>
        <time>2026-05-22T08:19:34Z</time>
      </trkpt>
      <trkpt lat="43.54747" lon="2.75156">
        <ele>902.4</ele>
        <time>2026-05-22T08:19:39Z</time>
      </trkpt>
      <trkpt lat="43.54747" lon="2.7515">
        <ele>902.3</ele>
        <time>2026-05-22T08:19:44Z</time>
      </trkpt>
      <trkpt lat="43.54748" lon="2.75143">
        <ele>902.2</ele>
        <time>2026-05-22T08:19:49Z</time>
      </trkpt>
      <trkpt lat="43.54747" lon="2.75135">
        <ele>901.9</ele>
        <time>2026-05-22T08:19:54Z</time>
      </trkpt>
      <trkpt lat="43.54747" lon="2.75127">
        <ele>901.7</ele>
        <time>2026-05-22T08:19:59Z</time>
      </trkpt>
      <trkpt lat="43.54746" lon="2.75119">
        <ele>901.5</ele>
        <time>2026-05-22T08:20:04Z</time>
      </trkpt>
      <trkpt lat="43.54747" lon="2.75111">
        <ele>901.4</ele>
        <time>2026-05-22T08:20:09Z</time>
      </trkpt>
      <trkpt lat="43.54746" lon="2.75103">
        <ele>901.1</ele>
        <time>2026-05-22T08:20:14Z</time>
      </trkpt>
      <trkpt lat="43.54747" lon="2.75096">
        <ele>901</ele>
        <time>2026-05-22T08:20:19Z</time>
      </trkpt>
      <trkpt lat="43.54746" lon="2.75088">
        <ele>900.7</ele>
        <time>2026-05-22T08:20:24Z</time>
      </trkpt>
      <trkpt lat="43.54746" lon="2.7508">
        <ele>900.6</ele>
        <time>2026-05-22T08:20:29Z</time>
      </trkpt>
      <trkpt lat="43.54745" lon="2.75071">
        <ele>900.4</ele>
        <time>2026-05-22T08:20:34Z</time>
      </trkpt>
      <trkpt lat="43.54743" lon="2.75062">
        <ele>900.1</ele>
        <time>2026-05-22T08:20:39Z</time>
      </trkpt>
      <trkpt lat="43.54742" lon="2.75051">
        <ele>899.8</ele>
        <time>2026-05-22T08:20:44Z</time>
      </trkpt>
      <trkpt lat="43.5474" lon="2.75042">
        <ele>899.5</ele>
        <time>2026-05-22T08:20:49Z</time>
      </trkpt>
      <trkpt lat="43.54738" lon="2.75033">
        <ele>899.2</ele>
        <time>2026-05-22T08:20:54Z</time>
      </trkpt>
      <trkpt lat="43.54737" lon="2.75023">
        <ele>899</ele>
        <time>2026-05-22T08:20:59Z</time>
      </trkpt>
      <trkpt lat="43.54735" lon="2.75014">
        <ele>898.7</ele>
        <time>2026-05-22T08:21:04Z</time>
      </trkpt>
      <trkpt lat="43.54732" lon="2.75005">
        <ele>898.3</ele>
        <time>2026-05-22T08:21:09Z</time>
      </trkpt>
      <trkpt lat="43.5473" lon="2.74995">
        <ele>898</ele>
        <time>2026-05-22T08:21:14Z</time>
      </trkpt>
      <trkpt lat="43.54728" lon="2.74986">
        <ele>897.7</ele>
        <time>2026-05-22T08:21:19Z</time>
      </trkpt>
      <trkpt lat="43.54725" lon="2.74977">
        <ele>897.3</ele>
        <time>2026-05-22T08:21:24Z</time>
      </trkpt>
      <trkpt lat="43.54724" lon="2.74967">
        <ele>897.1</ele>
        <time>2026-05-22T08:21:29Z</time>
      </trkpt>
      <trkpt lat="43.54721" lon="2.74957">
        <ele>896.7</ele>
        <time>2026-05-22T08:21:34Z</time>
      </trkpt>
      <trkpt lat="43.5472" lon="2.74947">
        <ele>896.5</ele>
        <time>2026-05-22T08:21:39Z</time>
      </trkpt>
      <trkpt lat="43.54718" lon="2.74936">
        <ele>896.2</ele>
        <time>2026-05-22T08:21:44Z</time>
      </trkpt>
      <trkpt lat="43.54717" lon="2.74927">
        <ele>896</ele>
        <time>2026-05-22T08:21:49Z</time>
      </trkpt>
      <trkpt lat="43.54717" lon="2.74916">
        <ele>895.8</ele>
        <time>2026-05-22T08:21:54Z</time>
      </trkpt>
      <trkpt lat="43.54717" lon="2.74906">
        <ele>896</ele>
        <time>2026-05-22T08:21:59Z</time>
      </trkpt>
      <trkpt lat="43.54717" lon="2.74896">
        <ele>896.2</ele>
        <time>2026-05-22T08:22:04Z</time>
      </trkpt>
      <trkpt lat="43.54716" lon="2.74886">
        <ele>896.3</ele>
        <time>2026-05-22T08:22:09Z</time>
      </trkpt>
      <trkpt lat="43.54716" lon="2.74876">
        <ele>896.4</ele>
        <time>2026-05-22T08:22:14Z</time>
      </trkpt>
      <trkpt lat="43.54715" lon="2.74864">
        <ele>896.5</ele>
        <time>2026-05-22T08:22:19Z</time>
      </trkpt>
      <trkpt lat="43.54714" lon="2.74855">
        <ele>896.6</ele>
        <time>2026-05-22T08:22:24Z</time>
      </trkpt>
      <trkpt lat="43.54712" lon="2.74845">
        <ele>896.6</ele>
        <time>2026-05-22T08:22:29Z</time>
      </trkpt>
      <trkpt lat="43.54708" lon="2.74833">
        <ele>896.5</ele>
        <time>2026-05-22T08:22:34Z</time>
      </trkpt>
      <trkpt lat="43.54705" lon="2.74825">
        <ele>896.2</ele>
        <time>2026-05-22T08:22:39Z</time>
      </trkpt>
      <trkpt lat="43.54703" lon="2.74814">
        <ele>896.1</ele>
        <time>2026-05-22T08:22:44Z</time>
      </trkpt>
      <trkpt lat="43.54699" lon="2.74802">
        <ele>895.7</ele>
        <time>2026-05-22T08:22:49Z</time>
      </trkpt>
      <trkpt lat="43.54695" lon="2.74793">
        <ele>895.4</ele>
        <time>2026-05-22T08:22:54Z</time>
      </trkpt>
      <trkpt lat="43.54692" lon="2.74784">
        <ele>895.1</ele>
        <time>2026-05-22T08:22:59Z</time>
      </trkpt>
      <trkpt lat="43.54688" lon="2.74776">
        <ele>894.8</ele>
        <time>2026-05-22T08:23:04Z</time>
      </trkpt>
      <trkpt lat="43.54685" lon="2.74767">
        <ele>894.5</ele>
        <time>2026-05-22T08:23:09Z</time>
      </trkpt>
      <trkpt lat="43.54684" lon="2.74765">
        <ele>894.5</ele>
        <time>2026-05-22T08:23:14Z</time>
      </trkpt>
      <trkpt lat="43.54684" lon="2.74765">
        <ele>894.5</ele>
        <time>2026-05-22T08:23:19Z</time>
      </trkpt>
      <trkpt lat="43.54684" lon="2.74765">
        <ele>894.5</ele>
        <time>2026-05-22T08:23:24Z</time>
      </trkpt>
      <trkpt lat="43.54684" lon="2.74765">
        <ele>894.5</ele>
        <time>2026-05-22T08:23:29Z</time>
      </trkpt>
      <trkpt lat="43.54684" lon="2.74765">
        <ele>894.5</ele>
        <time>2026-05-22T08:23:34Z</time>
      </trkpt>
      <trkpt lat="43.54684" lon="2.74765">
        <ele>894.5</ele>
        <time>2026-05-22T08:23:39Z</time>
      </trkpt>
      <trkpt lat="43.54684" lon="2.74765">
        <ele>894.5</ele>
        <time>2026-05-22T08:23:44Z</time>
      </trkpt>
      <trkpt lat="43.54681" lon="2.74757">
        <ele>894.2</ele>
        <time>2026-05-22T08:23:49Z</time>
      </trkpt>
      <trkpt lat="43.54678" lon="2.74748">
        <ele>893.9</ele>
        <time>2026-05-22T08:23:54Z</time>
      </trkpt>
      <trkpt lat="43.54675" lon="2.7474">
        <ele>893.6</ele>
        <time>2026-05-22T08:23:59Z</time>
      </trkpt>
      <trkpt lat="43.54672" lon="2.74729">
        <ele>893.2</ele>
        <time>2026-05-22T08:24:04Z</time>
      </trkpt>
      <trkpt lat="43.5467" lon="2.74719">
        <ele>892.9</ele>
        <time>2026-05-22T08:24:09Z</time>
      </trkpt>
      <trkpt lat="43.54668" lon="2.74711">
        <ele>892.6</ele>
        <time>2026-05-22T08:24:14Z</time>
      </trkpt>
      <trkpt lat="43.54666" lon="2.74701">
        <ele>892.4</ele>
        <time>2026-05-22T08:24:19Z</time>
      </trkpt>
      <trkpt lat="43.54664" lon="2.7469">
        <ele>892.2</ele>
        <time>2026-05-22T08:24:24Z</time>
      </trkpt>
      <trkpt lat="43.54663" lon="2.74679">
        <ele>892.1</ele>
        <time>2026-05-22T08:24:29Z</time>
      </trkpt>
      <trkpt lat="43.54662" lon="2.74668">
        <ele>891.9</ele>
        <time>2026-05-22T08:24:34Z</time>
      </trkpt>
      <trkpt lat="43.54661" lon="2.74656">
        <ele>891.9</ele>
        <time>2026-05-22T08:24:39Z</time>
      </trkpt>
      <trkpt lat="43.54662" lon="2.74646">
        <ele>891.9</ele>
        <time>2026-05-22T08:24:44Z</time>
      </trkpt>
      <trkpt lat="43.54665" lon="2.74635">
        <ele>892</ele>
        <time>2026-05-22T08:24:49Z</time>
      </trkpt>
      <trkpt lat="43.54669" lon="2.74626">
        <ele>892.1</ele>
        <time>2026-05-22T08:24:54Z</time>
      </trkpt>
      <trkpt lat="43.54674" lon="2.74618">
        <ele>892.4</ele>
        <time>2026-05-22T08:24:59Z</time>
      </trkpt>
      <trkpt lat="43.54676" lon="2.74609">
        <ele>892.4</ele>
        <time>2026-05-22T08:25:04Z</time>
      </trkpt>
      <trkpt lat="43.54677" lon="2.74603">
        <ele>892.5</ele>
        <time>2026-05-22T08:25:09Z</time>
      </trkpt>
      <trkpt lat="43.54674" lon="2.74596">
        <ele>892.3</ele>
        <time>2026-05-22T08:25:14Z</time>
      </trkpt>
      <trkpt lat="43.5467" lon="2.74589">
        <ele>892.1</ele>
        <time>2026-05-22T08:25:19Z</time>
      </trkpt>
      <trkpt lat="43.54665" lon="2.74582">
        <ele>892.1</ele>
        <time>2026-05-22T08:25:24Z</time>
      </trkpt>
      <trkpt lat="43.54661" lon="2.74576">
        <ele>892.6</ele>
        <time>2026-05-22T08:25:29Z</time>
      </trkpt>
      <trkpt lat="43.54657" lon="2.74569">
        <ele>893.2</ele>
        <time>2026-05-22T08:25:34Z</time>
      </trkpt>
      <trkpt lat="43.54653" lon="2.74563">
        <ele>893.6</ele>
        <time>2026-05-22T08:25:39Z</time>
      </trkpt>
      <trkpt lat="43.54647" lon="2.74555">
        <ele>894.1</ele>
        <time>2026-05-22T08:25:44Z</time>
      </trkpt>
      <trkpt lat="43.5464" lon="2.74549">
        <ele>894.3</ele>
        <time>2026-05-22T08:25:49Z</time>
      </trkpt>
      <trkpt lat="43.54635" lon="2.74546">
        <ele>894.4</ele>
        <time>2026-05-22T08:25:54Z</time>
      </trkpt>
      <trkpt lat="43.54629" lon="2.74545">
        <ele>894.2</ele>
        <time>2026-05-22T08:25:59Z</time>
      </trkpt>
      <trkpt lat="43.54622" lon="2.74545">
        <ele>893.9</ele>
        <time>2026-05-22T08:26:04Z</time>
      </trkpt>
      <trkpt lat="43.54615" lon="2.74545">
        <ele>893.6</ele>
        <time>2026-05-22T08:26:09Z</time>
      </trkpt>
      <trkpt lat="43.54609" lon="2.74544">
        <ele>893.5</ele>
        <time>2026-05-22T08:26:14Z</time>
      </trkpt>
      <trkpt lat="43.54603" lon="2.74543">
        <ele>893.3</ele>
        <time>2026-05-22T08:26:19Z</time>
      </trkpt>
      <trkpt lat="43.54596" lon="2.74545">
        <ele>892.9</ele>
        <time>2026-05-22T08:26:24Z</time>
      </trkpt>
      <trkpt lat="43.5459" lon="2.74546">
        <ele>892.6</ele>
        <time>2026-05-22T08:26:29Z</time>
      </trkpt>
      <trkpt lat="43.54584" lon="2.74547">
        <ele>892.3</ele>
        <time>2026-05-22T08:26:34Z</time>
      </trkpt>
      <trkpt lat="43.54578" lon="2.74545">
        <ele>892.7</ele>
        <time>2026-05-22T08:26:39Z</time>
      </trkpt>
      <trkpt lat="43.54571" lon="2.74542">
        <ele>893.2</ele>
        <time>2026-05-22T08:26:44Z</time>
      </trkpt>
      <trkpt lat="43.54566" lon="2.74539">
        <ele>893.5</ele>
        <time>2026-05-22T08:26:49Z</time>
      </trkpt>
      <trkpt lat="43.54561" lon="2.74532">
        <ele>894</ele>
        <time>2026-05-22T08:26:54Z</time>
      </trkpt>
      <trkpt lat="43.54556" lon="2.74523">
        <ele>894.4</ele>
        <time>2026-05-22T08:26:59Z</time>
      </trkpt>
      <trkpt lat="43.54553" lon="2.74515">
        <ele>894.7</ele>
        <time>2026-05-22T08:27:04Z</time>
      </trkpt>
      <trkpt lat="43.5455" lon="2.74505">
        <ele>895.1</ele>
        <time>2026-05-22T08:27:09Z</time>
      </trkpt>
      <trkpt lat="43.54548" lon="2.74495">
        <ele>895.3</ele>
        <time>2026-05-22T08:27:14Z</time>
      </trkpt>
      <trkpt lat="43.54545" lon="2.74484">
        <ele>895.5</ele>
        <time>2026-05-22T08:27:19Z</time>
      </trkpt>
      <trkpt lat="43.54544" lon="2.74475">
        <ele>895.6</ele>
        <time>2026-05-22T08:27:24Z</time>
      </trkpt>
      <trkpt lat="43.54543" lon="2.74466">
        <ele>895.7</ele>
        <time>2026-05-22T08:27:29Z</time>
      </trkpt>
      <trkpt lat="43.54541" lon="2.74456">
        <ele>895.8</ele>
        <time>2026-05-22T08:27:34Z</time>
      </trkpt>
      <trkpt lat="43.54538" lon="2.74447">
        <ele>895.9</ele>
        <time>2026-05-22T08:27:39Z</time>
      </trkpt>
      <trkpt lat="43.54536" lon="2.74437">
        <ele>896</ele>
        <time>2026-05-22T08:27:44Z</time>
      </trkpt>
      <trkpt lat="43.54533" lon="2.74428">
        <ele>896.2</ele>
        <time>2026-05-22T08:27:49Z</time>
      </trkpt>
      <trkpt lat="43.5453" lon="2.7442">
        <ele>896.3</ele>
        <time>2026-05-22T08:27:54Z</time>
      </trkpt>
      <trkpt lat="43.54526" lon="2.7441">
        <ele>896.4</ele>
        <time>2026-05-22T08:27:59Z</time>
      </trkpt>
      <trkpt lat="43.54522" lon="2.74401">
        <ele>896.5</ele>
        <time>2026-05-22T08:28:04Z</time>
      </trkpt>
      <trkpt lat="43.54517" lon="2.74394">
        <ele>896.6</ele>
        <time>2026-05-22T08:28:09Z</time>
      </trkpt>
      <trkpt lat="43.54513" lon="2.74387">
        <ele>896.7</ele>
        <time>2026-05-22T08:28:14Z</time>
      </trkpt>
      <trkpt lat="43.54506" lon="2.74389">
        <ele>896.9</ele>
        <time>2026-05-22T08:28:19Z</time>
      </trkpt>
      <trkpt lat="43.54498" lon="2.74396">
        <ele>897.4</ele>
        <time>2026-05-22T08:28:24Z</time>
      </trkpt>
      <trkpt lat="43.54493" lon="2.74403">
        <ele>898.5</ele>
        <time>2026-05-22T08:28:29Z</time>
      </trkpt>
      <trkpt lat="43.54488" lon="2.74412">
        <ele>899.5</ele>
        <time>2026-05-22T08:28:34Z</time>
      </trkpt>
      <trkpt lat="43.54486" lon="2.74418">
        <ele>899.9</ele>
        <time>2026-05-22T08:28:39Z</time>
      </trkpt>
      <trkpt lat="43.54482" lon="2.74425">
        <ele>900.6</ele>
        <time>2026-05-22T08:28:44Z</time>
      </trkpt>
      <trkpt lat="43.54476" lon="2.74432">
        <ele>901.8</ele>
        <time>2026-05-22T08:28:49Z</time>
      </trkpt>
      <trkpt lat="43.54473" lon="2.74429">
        <ele>902.4</ele>
        <time>2026-05-22T08:28:54Z</time>
      </trkpt>
      <trkpt lat="43.54472" lon="2.74426">
        <ele>902.6</ele>
        <time>2026-05-22T08:28:59Z</time>
      </trkpt>
      <trkpt lat="43.54471" lon="2.74423">
        <ele>902.9</ele>
        <time>2026-05-22T08:29:04Z</time>
      </trkpt>
      <trkpt lat="43.54471" lon="2.74422">
        <ele>902.9</ele>
        <time>2026-05-22T08:29:09Z</time>
      </trkpt>
      <trkpt lat="43.54471" lon="2.74422">
        <ele>902.9</ele>
        <time>2026-05-22T08:29:14Z</time>
      </trkpt>
      <trkpt lat="43.54471" lon="2.74422">
        <ele>902.9</ele>
        <time>2026-05-22T08:29:19Z</time>
      </trkpt>
      <trkpt lat="43.54471" lon="2.74422">
        <ele>902.9</ele>
        <time>2026-05-22T08:29:24Z</time>
      </trkpt>
      <trkpt lat="43.54471" lon="2.74422">
        <ele>902.9</ele>
        <time>2026-05-22T08:29:29Z</time>
      </trkpt>
      <trkpt lat="43.54471" lon="2.74422">
        <ele>902.9</ele>
        <time>2026-05-22T08:29:34Z</time>
      </trkpt>
      <trkpt lat="43.54471" lon="2.74422">
        <ele>902.9</ele>
        <time>2026-05-22T08:29:39Z</time>
      </trkpt>
      <trkpt lat="43.54471" lon="2.74422">
        <ele>902.9</ele>
        <time>2026-05-22T08:29:44Z</time>
      </trkpt>
      <trkpt lat="43.54469" lon="2.74424">
        <ele>903.3</ele>
        <time>2026-05-22T08:29:49Z</time>
      </trkpt>
      <trkpt lat="43.54466" lon="2.7443">
        <ele>903.8</ele>
        <time>2026-05-22T08:29:54Z</time>
      </trkpt>
      <trkpt lat="43.54465" lon="2.74435">
        <ele>904</ele>
        <time>2026-05-22T08:29:59Z</time>
      </trkpt>
      <trkpt lat="43.54463" lon="2.74438">
        <ele>904.3</ele>
        <time>2026-05-22T08:30:04Z</time>
      </trkpt>
      <trkpt lat="43.54459" lon="2.74442">
        <ele>905.1</ele>
        <time>2026-05-22T08:30:09Z</time>
      </trkpt>
      <trkpt lat="43.54455" lon="2.7445">
        <ele>905.7</ele>
        <time>2026-05-22T08:30:14Z</time>
      </trkpt>
      <trkpt lat="43.5445" lon="2.74459">
        <ele>906.6</ele>
        <time>2026-05-22T08:30:19Z</time>
      </trkpt>
      <trkpt lat="43.54446" lon="2.74467">
        <ele>907.2</ele>
        <time>2026-05-22T08:30:24Z</time>
      </trkpt>
      <trkpt lat="43.54441" lon="2.74472">
        <ele>908.1</ele>
        <time>2026-05-22T08:30:29Z</time>
      </trkpt>
      <trkpt lat="43.54437" lon="2.74479">
        <ele>908.7</ele>
        <time>2026-05-22T08:30:34Z</time>
      </trkpt>
      <trkpt lat="43.54433" lon="2.74485">
        <ele>909.3</ele>
        <time>2026-05-22T08:30:39Z</time>
      </trkpt>
      <trkpt lat="43.54429" lon="2.74491">
        <ele>910</ele>
        <time>2026-05-22T08:30:44Z</time>
      </trkpt>
      <trkpt lat="43.54424" lon="2.74499">
        <ele>910.7</ele>
        <time>2026-05-22T08:30:49Z</time>
      </trkpt>
      <trkpt lat="43.54419" lon="2.74506">
        <ele>911.4</ele>
        <time>2026-05-22T08:30:54Z</time>
      </trkpt>
      <trkpt lat="43.54416" lon="2.74514">
        <ele>911.8</ele>
        <time>2026-05-22T08:30:59Z</time>
      </trkpt>
      <trkpt lat="43.5441" lon="2.74524">
        <ele>912.7</ele>
        <time>2026-05-22T08:31:04Z</time>
      </trkpt>
      <trkpt lat="43.54406" lon="2.74532">
        <ele>913.3</ele>
        <time>2026-05-22T08:31:09Z</time>
      </trkpt>
      <trkpt lat="43.54402" lon="2.74541">
        <ele>913.8</ele>
        <time>2026-05-22T08:31:14Z</time>
      </trkpt>
      <trkpt lat="43.54397" lon="2.74543">
        <ele>914.7</ele>
        <time>2026-05-22T08:31:19Z</time>
      </trkpt>
      <trkpt lat="43.54394" lon="2.74537">
        <ele>915.5</ele>
        <time>2026-05-22T08:31:24Z</time>
      </trkpt>
      <trkpt lat="43.54393" lon="2.74528">
        <ele>916</ele>
        <time>2026-05-22T08:31:29Z</time>
      </trkpt>
      <trkpt lat="43.54394" lon="2.74517">
        <ele>916.1</ele>
        <time>2026-05-22T08:31:34Z</time>
      </trkpt>
      <trkpt lat="43.54393" lon="2.74507">
        <ele>916.6</ele>
        <time>2026-05-22T08:31:39Z</time>
      </trkpt>
      <trkpt lat="43.54393" lon="2.74498">
        <ele>916.9</ele>
        <time>2026-05-22T08:31:44Z</time>
      </trkpt>
      <trkpt lat="43.54394" lon="2.74488">
        <ele>917</ele>
        <time>2026-05-22T08:31:49Z</time>
      </trkpt>
      <trkpt lat="43.54394" lon="2.74478">
        <ele>917.2</ele>
        <time>2026-05-22T08:31:54Z</time>
      </trkpt>
      <trkpt lat="43.54395" lon="2.74467">
        <ele>917.3</ele>
        <time>2026-05-22T08:31:59Z</time>
      </trkpt>
      <trkpt lat="43.54393" lon="2.74456">
        <ele>918</ele>
        <time>2026-05-22T08:32:04Z</time>
      </trkpt>
      <trkpt lat="43.54392" lon="2.74445">
        <ele>918.5</ele>
        <time>2026-05-22T08:32:09Z</time>
      </trkpt>
      <trkpt lat="43.5439" lon="2.74435">
        <ele>919.2</ele>
        <time>2026-05-22T08:32:14Z</time>
      </trkpt>
      <trkpt lat="43.54389" lon="2.74424">
        <ele>919.8</ele>
        <time>2026-05-22T08:32:19Z</time>
      </trkpt>
      <trkpt lat="43.54388" lon="2.74414">
        <ele>920.3</ele>
        <time>2026-05-22T08:32:24Z</time>
      </trkpt>
      <trkpt lat="43.54392" lon="2.74412">
        <ele>919.5</ele>
        <time>2026-05-22T08:32:29Z</time>
      </trkpt>
      <trkpt lat="43.54391" lon="2.74404">
        <ele>920</ele>
        <time>2026-05-22T08:32:34Z</time>
      </trkpt>
      <trkpt lat="43.5439" lon="2.74395">
        <ele>920.5</ele>
        <time>2026-05-22T08:32:39Z</time>
      </trkpt>
      <trkpt lat="43.54389" lon="2.74386">
        <ele>921.1</ele>
        <time>2026-05-22T08:32:44Z</time>
      </trkpt>
      <trkpt lat="43.54389" lon="2.74378">
        <ele>921.4</ele>
        <time>2026-05-22T08:32:49Z</time>
      </trkpt>
      <trkpt lat="43.54388" lon="2.74372">
        <ele>921.8</ele>
        <time>2026-05-22T08:32:54Z</time>
      </trkpt>
      <trkpt lat="43.54391" lon="2.74361">
        <ele>921.5</ele>
        <time>2026-05-22T08:32:59Z</time>
      </trkpt>
      <trkpt lat="43.54391" lon="2.74351">
        <ele>921.8</ele>
        <time>2026-05-22T08:33:04Z</time>
      </trkpt>
      <trkpt lat="43.54391" lon="2.74343">
        <ele>922.1</ele>
        <time>2026-05-22T08:33:09Z</time>
      </trkpt>
      <trkpt lat="43.54391" lon="2.74336">
        <ele>922.4</ele>
        <time>2026-05-22T08:33:14Z</time>
      </trkpt>
      <trkpt lat="43.54391" lon="2.74328">
        <ele>922.2</ele>
        <time>2026-05-22T08:33:19Z</time>
      </trkpt>
      <trkpt lat="43.54394" lon="2.7432">
        <ele>921</ele>
        <time>2026-05-22T08:33:24Z</time>
      </trkpt>
      <trkpt lat="43.54393" lon="2.74312">
        <ele>920.8</ele>
        <time>2026-05-22T08:33:29Z</time>
      </trkpt>
      <trkpt lat="43.54394" lon="2.74301">
        <ele>919.9</ele>
        <time>2026-05-22T08:33:34Z</time>
      </trkpt>
      <trkpt lat="43.54396" lon="2.74286">
        <ele>918.5</ele>
        <time>2026-05-22T08:33:39Z</time>
      </trkpt>
      <trkpt lat="43.54395" lon="2.74275">
        <ele>918.1</ele>
        <time>2026-05-22T08:33:44Z</time>
      </trkpt>
      <trkpt lat="43.54394" lon="2.74264">
        <ele>917.8</ele>
        <time>2026-05-22T08:33:49Z</time>
      </trkpt>
      <trkpt lat="43.54392" lon="2.74253">
        <ele>917.7</ele>
        <time>2026-05-22T08:33:54Z</time>
      </trkpt>
      <trkpt lat="43.54392" lon="2.74244">
        <ele>917.2</ele>
        <time>2026-05-22T08:33:59Z</time>
      </trkpt>
      <trkpt lat="43.54392" lon="2.74235">
        <ele>916.8</ele>
        <time>2026-05-22T08:34:04Z</time>
      </trkpt>
      <trkpt lat="43.5439" lon="2.74226">
        <ele>916.9</ele>
        <time>2026-05-22T08:34:09Z</time>
      </trkpt>
      <trkpt lat="43.54387" lon="2.74216">
        <ele>917.2</ele>
        <time>2026-05-22T08:34:14Z</time>
      </trkpt>
      <trkpt lat="43.54383" lon="2.74205">
        <ele>917.6</ele>
        <time>2026-05-22T08:34:19Z</time>
      </trkpt>
      <trkpt lat="43.54381" lon="2.74194">
        <ele>917.5</ele>
        <time>2026-05-22T08:34:24Z</time>
      </trkpt>
      <trkpt lat="43.54378" lon="2.74186">
        <ele>917.8</ele>
        <time>2026-05-22T08:34:29Z</time>
      </trkpt>
      <trkpt lat="43.54377" lon="2.74176">
        <ele>917.5</ele>
        <time>2026-05-22T08:34:34Z</time>
      </trkpt>
      <trkpt lat="43.54375" lon="2.74168">
        <ele>917.6</ele>
        <time>2026-05-22T08:34:39Z</time>
      </trkpt>
      <trkpt lat="43.54372" lon="2.74158">
        <ele>917.6</ele>
        <time>2026-05-22T08:34:44Z</time>
      </trkpt>
      <trkpt lat="43.5437" lon="2.74149">
        <ele>917.5</ele>
        <time>2026-05-22T08:34:49Z</time>
      </trkpt>
      <trkpt lat="43.54368" lon="2.74136">
        <ele>917</ele>
        <time>2026-05-22T08:34:54Z</time>
      </trkpt>
      <trkpt lat="43.54367" lon="2.74126">
        <ele>916.6</ele>
        <time>2026-05-22T08:34:59Z</time>
      </trkpt>
      <trkpt lat="43.54366" lon="2.74116">
        <ele>916.1</ele>
        <time>2026-05-22T08:35:04Z</time>
      </trkpt>
      <trkpt lat="43.54364" lon="2.74107">
        <ele>916</ele>
        <time>2026-05-22T08:35:09Z</time>
      </trkpt>
      <trkpt lat="43.54363" lon="2.74095">
        <ele>915.4</ele>
        <time>2026-05-22T08:35:14Z</time>
      </trkpt>
      <trkpt lat="43.54364" lon="2.74083">
        <ele>914.4</ele>
        <time>2026-05-22T08:35:19Z</time>
      </trkpt>
      <trkpt lat="43.54363" lon="2.74072">
        <ele>914.3</ele>
        <time>2026-05-22T08:35:24Z</time>
      </trkpt>
      <trkpt lat="43.54363" lon="2.74057">
        <ele>913.8</ele>
        <time>2026-05-22T08:35:29Z</time>
      </trkpt>
      <trkpt lat="43.54363" lon="2.74048">
        <ele>913.6</ele>
        <time>2026-05-22T08:35:34Z</time>
      </trkpt>
      <trkpt lat="43.54365" lon="2.74039">
        <ele>912.9</ele>
        <time>2026-05-22T08:35:39Z</time>
      </trkpt>
      <trkpt lat="43.54367" lon="2.74028">
        <ele>912.1</ele>
        <time>2026-05-22T08:35:44Z</time>
      </trkpt>
      <trkpt lat="43.54368" lon="2.74017">
        <ele>911.6</ele>
        <time>2026-05-22T08:35:49Z</time>
      </trkpt>
      <trkpt lat="43.54369" lon="2.74006">
        <ele>911</ele>
        <time>2026-05-22T08:35:54Z</time>
      </trkpt>
      <trkpt lat="43.5437" lon="2.73996">
        <ele>910.5</ele>
        <time>2026-05-22T08:35:59Z</time>
      </trkpt>
      <trkpt lat="43.5437" lon="2.73985">
        <ele>910</ele>
        <time>2026-05-22T08:36:04Z</time>
      </trkpt>
      <trkpt lat="43.54371" lon="2.73974">
        <ele>909.3</ele>
        <time>2026-05-22T08:36:09Z</time>
      </trkpt>
      <trkpt lat="43.5437" lon="2.73962">
        <ele>909</ele>
        <time>2026-05-22T08:36:14Z</time>
      </trkpt>
      <trkpt lat="43.54369" lon="2.73951">
        <ele>908.8</ele>
        <time>2026-05-22T08:36:19Z</time>
      </trkpt>
      <trkpt lat="43.54369" lon="2.7394">
        <ele>908.3</ele>
        <time>2026-05-22T08:36:24Z</time>
      </trkpt>
      <trkpt lat="43.54371" lon="2.73929">
        <ele>907.4</ele>
        <time>2026-05-22T08:36:29Z</time>
      </trkpt>
      <trkpt lat="43.54371" lon="2.73917">
        <ele>906.9</ele>
        <time>2026-05-22T08:36:34Z</time>
      </trkpt>
      <trkpt lat="43.54372" lon="2.73908">
        <ele>906.2</ele>
        <time>2026-05-22T08:36:39Z</time>
      </trkpt>
      <trkpt lat="43.54371" lon="2.73898">
        <ele>905.8</ele>
        <time>2026-05-22T08:36:44Z</time>
      </trkpt>
      <trkpt lat="43.54368" lon="2.73888">
        <ele>905.9</ele>
        <time>2026-05-22T08:36:49Z</time>
      </trkpt>
      <trkpt lat="43.54364" lon="2.73882">
        <ele>906.4</ele>
        <time>2026-05-22T08:36:54Z</time>
      </trkpt>
      <trkpt lat="43.54358" lon="2.73876">
        <ele>907.4</ele>
        <time>2026-05-22T08:36:59Z</time>
      </trkpt>
      <trkpt lat="43.54353" lon="2.73873">
        <ele>908.3</ele>
        <time>2026-05-22T08:37:04Z</time>
      </trkpt>
      <trkpt lat="43.54349" lon="2.73872">
        <ele>909</ele>
        <time>2026-05-22T08:37:09Z</time>
      </trkpt>
      <trkpt lat="43.54344" lon="2.73868">
        <ele>909.9</ele>
        <time>2026-05-22T08:37:14Z</time>
      </trkpt>
      <trkpt lat="43.54336" lon="2.73864">
        <ele>911.3</ele>
        <time>2026-05-22T08:37:19Z</time>
      </trkpt>
      <trkpt lat="43.54328" lon="2.73858">
        <ele>912.9</ele>
        <time>2026-05-22T08:37:24Z</time>
      </trkpt>
      <trkpt lat="43.54323" lon="2.73853">
        <ele>913.9</ele>
        <time>2026-05-22T08:37:29Z</time>
      </trkpt>
      <trkpt lat="43.54317" lon="2.73849">
        <ele>915.3</ele>
        <time>2026-05-22T08:37:34Z</time>
      </trkpt>
      <trkpt lat="43.54313" lon="2.73842">
        <ele>915.9</ele>
        <time>2026-05-22T08:37:39Z</time>
      </trkpt>
      <trkpt lat="43.54307" lon="2.73837">
        <ele>917.2</ele>
        <time>2026-05-22T08:37:44Z</time>
      </trkpt>
      <trkpt lat="43.54301" lon="2.7383">
        <ele>918.3</ele>
        <time>2026-05-22T08:37:49Z</time>
      </trkpt>
      <trkpt lat="43.54296" lon="2.73825">
        <ele>919.2</ele>
        <time>2026-05-22T08:37:54Z</time>
      </trkpt>
      <trkpt lat="43.54292" lon="2.7382">
        <ele>919.8</ele>
        <time>2026-05-22T08:37:59Z</time>
      </trkpt>
      <trkpt lat="43.54286" lon="2.73814">
        <ele>920.8</ele>
        <time>2026-05-22T08:38:04Z</time>
      </trkpt>
      <trkpt lat="43.54281" lon="2.73809">
        <ele>921.7</ele>
        <time>2026-05-22T08:38:09Z</time>
      </trkpt>
      <trkpt lat="43.54277" lon="2.73805">
        <ele>922.4</ele>
        <time>2026-05-22T08:38:14Z</time>
      </trkpt>
      <trkpt lat="43.54273" lon="2.738">
        <ele>922.9</ele>
        <time>2026-05-22T08:38:19Z</time>
      </trkpt>
      <trkpt lat="43.54267" lon="2.73795">
        <ele>924</ele>
        <time>2026-05-22T08:38:24Z</time>
      </trkpt>
      <trkpt lat="43.54262" lon="2.7379">
        <ele>924.8</ele>
        <time>2026-05-22T08:38:29Z</time>
      </trkpt>
      <trkpt lat="43.5426" lon="2.73781">
        <ele>924.5</ele>
        <time>2026-05-22T08:38:34Z</time>
      </trkpt>
      <trkpt lat="43.5426" lon="2.73772">
        <ele>923.6</ele>
        <time>2026-05-22T08:38:39Z</time>
      </trkpt>
      <trkpt lat="43.54258" lon="2.73766">
        <ele>923.6</ele>
        <time>2026-05-22T08:38:44Z</time>
      </trkpt>
      <trkpt lat="43.54258" lon="2.73766">
        <ele>923.6</ele>
        <time>2026-05-22T08:38:49Z</time>
      </trkpt>
      <trkpt lat="43.54258" lon="2.73766">
        <ele>923.6</ele>
        <time>2026-05-22T08:38:54Z</time>
      </trkpt>
      <trkpt lat="43.54258" lon="2.73766">
        <ele>923.6</ele>
        <time>2026-05-22T08:38:59Z</time>
      </trkpt>
      <trkpt lat="43.54258" lon="2.73766">
        <ele>923.6</ele>
        <time>2026-05-22T08:39:04Z</time>
      </trkpt>
      <trkpt lat="43.54253" lon="2.73759">
        <ele>924.1</ele>
        <time>2026-05-22T08:39:09Z</time>
      </trkpt>
      <trkpt lat="43.54249" lon="2.73754">
        <ele>924.6</ele>
        <time>2026-05-22T08:39:14Z</time>
      </trkpt>
      <trkpt lat="43.54249" lon="2.73754">
        <ele>924.6</ele>
        <time>2026-05-22T08:39:19Z</time>
      </trkpt>
      <trkpt lat="43.54249" lon="2.73754">
        <ele>924.6</ele>
        <time>2026-05-22T08:39:24Z</time>
      </trkpt>
      <trkpt lat="43.54246" lon="2.73749">
        <ele>924.6</ele>
        <time>2026-05-22T08:39:29Z</time>
      </trkpt>
      <trkpt lat="43.54245" lon="2.73744">
        <ele>924.3</ele>
        <time>2026-05-22T08:39:34Z</time>
      </trkpt>
      <trkpt lat="43.54244" lon="2.73736">
        <ele>923.7</ele>
        <time>2026-05-22T08:39:39Z</time>
      </trkpt>
      <trkpt lat="43.54241" lon="2.7373">
        <ele>923.6</ele>
        <time>2026-05-22T08:39:44Z</time>
      </trkpt>
      <trkpt lat="43.54237" lon="2.73722">
        <ele>923.5</ele>
        <time>2026-05-22T08:39:49Z</time>
      </trkpt>
      <trkpt lat="43.54234" lon="2.73715">
        <ele>923.3</ele>
        <time>2026-05-22T08:39:54Z</time>
      </trkpt>
      <trkpt lat="43.54231" lon="2.7371">
        <ele>923.3</ele>
        <time>2026-05-22T08:39:59Z</time>
      </trkpt>
      <trkpt lat="43.54227" lon="2.73706">
        <ele>923.5</ele>
        <time>2026-05-22T08:40:04Z</time>
      </trkpt>
      <trkpt lat="43.54222" lon="2.73699">
        <ele>923.5</ele>
        <time>2026-05-22T08:40:09Z</time>
      </trkpt>
      <trkpt lat="43.54218" lon="2.73693">
        <ele>923.5</ele>
        <time>2026-05-22T08:40:14Z</time>
      </trkpt>
      <trkpt lat="43.54215" lon="2.73683">
        <ele>922.9</ele>
        <time>2026-05-22T08:40:19Z</time>
      </trkpt>
      <trkpt lat="43.5421" lon="2.73674">
        <ele>922.6</ele>
        <time>2026-05-22T08:40:24Z</time>
      </trkpt>
      <trkpt lat="43.54207" lon="2.73666">
        <ele>922.1</ele>
        <time>2026-05-22T08:40:29Z</time>
      </trkpt>
      <trkpt lat="43.54205" lon="2.73656">
        <ele>921.5</ele>
        <time>2026-05-22T08:40:34Z</time>
      </trkpt>
      <trkpt lat="43.54207" lon="2.73647">
        <ele>920.4</ele>
        <time>2026-05-22T08:40:39Z</time>
      </trkpt>
      <trkpt lat="43.54208" lon="2.73638">
        <ele>919.5</ele>
        <time>2026-05-22T08:40:44Z</time>
      </trkpt>
      <trkpt lat="43.54211" lon="2.73629">
        <ele>918.3</ele>
        <time>2026-05-22T08:40:49Z</time>
      </trkpt>
      <trkpt lat="43.54211" lon="2.7362">
        <ele>917.5</ele>
        <time>2026-05-22T08:40:54Z</time>
      </trkpt>
      <trkpt lat="43.54211" lon="2.73611">
        <ele>916.7</ele>
        <time>2026-05-22T08:40:59Z</time>
      </trkpt>
      <trkpt lat="43.5421" lon="2.73598">
        <ele>915.6</ele>
        <time>2026-05-22T08:41:04Z</time>
      </trkpt>
      <trkpt lat="43.54209" lon="2.73589">
        <ele>914.9</ele>
        <time>2026-05-22T08:41:09Z</time>
      </trkpt>
      <trkpt lat="43.54206" lon="2.73581">
        <ele>914.6</ele>
        <time>2026-05-22T08:41:14Z</time>
      </trkpt>
      <trkpt lat="43.54203" lon="2.73574">
        <ele>914.6</ele>
        <time>2026-05-22T08:41:19Z</time>
      </trkpt>
      <trkpt lat="43.54201" lon="2.73567">
        <ele>914.4</ele>
        <time>2026-05-22T08:41:24Z</time>
      </trkpt>
      <trkpt lat="43.54198" lon="2.7356">
        <ele>914.3</ele>
        <time>2026-05-22T08:41:29Z</time>
      </trkpt>
      <trkpt lat="43.54196" lon="2.73549">
        <ele>913.8</ele>
        <time>2026-05-22T08:41:34Z</time>
      </trkpt>
      <trkpt lat="43.54194" lon="2.73541">
        <ele>913.5</ele>
        <time>2026-05-22T08:41:39Z</time>
      </trkpt>
      <trkpt lat="43.5419" lon="2.73531">
        <ele>913.2</ele>
        <time>2026-05-22T08:41:44Z</time>
      </trkpt>
      <trkpt lat="43.54186" lon="2.73524">
        <ele>913.1</ele>
        <time>2026-05-22T08:41:49Z</time>
      </trkpt>
      <trkpt lat="43.54183" lon="2.73517">
        <ele>912.9</ele>
        <time>2026-05-22T08:41:54Z</time>
      </trkpt>
      <trkpt lat="43.54182" lon="2.73508">
        <ele>912.4</ele>
        <time>2026-05-22T08:41:59Z</time>
      </trkpt>
      <trkpt lat="43.54181" lon="2.73503">
        <ele>912.2</ele>
        <time>2026-05-22T08:42:04Z</time>
      </trkpt>
      <trkpt lat="43.54181" lon="2.73506">
        <ele>912.4</ele>
        <time>2026-05-22T08:42:09Z</time>
      </trkpt>
      <trkpt lat="43.5418" lon="2.73508">
        <ele>912.6</ele>
        <time>2026-05-22T08:42:14Z</time>
      </trkpt>
      <trkpt lat="43.5418" lon="2.73508">
        <ele>912.6</ele>
        <time>2026-05-22T08:42:19Z</time>
      </trkpt>
      <trkpt lat="43.5418" lon="2.73508">
        <ele>912.6</ele>
        <time>2026-05-22T08:42:24Z</time>
      </trkpt>
      <trkpt lat="43.5418" lon="2.73508">
        <ele>912.6</ele>
        <time>2026-05-22T08:42:29Z</time>
      </trkpt>
      <trkpt lat="43.5418" lon="2.73508">
        <ele>912.6</ele>
        <time>2026-05-22T08:42:34Z</time>
      </trkpt>
      <trkpt lat="43.5418" lon="2.73508">
        <ele>912.6</ele>
        <time>2026-05-22T08:42:39Z</time>
      </trkpt>
      <trkpt lat="43.54177" lon="2.73506">
        <ele>912.7</ele>
        <time>2026-05-22T08:42:44Z</time>
      </trkpt>
      <trkpt lat="43.54177" lon="2.73506">
        <ele>912.7</ele>
        <time>2026-05-22T08:42:49Z</time>
      </trkpt>
      <trkpt lat="43.54177" lon="2.73506">
        <ele>912.7</ele>
        <time>2026-05-22T08:42:54Z</time>
      </trkpt>
      <trkpt lat="43.54177" lon="2.73506">
        <ele>912.7</ele>
        <time>2026-05-22T08:42:59Z</time>
      </trkpt>
      <trkpt lat="43.54177" lon="2.73506">
        <ele>912.7</ele>
        <time>2026-05-22T08:43:04Z</time>
      </trkpt>
      <trkpt lat="43.54177" lon="2.73506">
        <ele>912.7</ele>
        <time>2026-05-22T08:43:09Z</time>
      </trkpt>
      <trkpt lat="43.54177" lon="2.73506">
        <ele>912.7</ele>
        <time>2026-05-22T08:43:14Z</time>
      </trkpt>
      <trkpt lat="43.54173" lon="2.73495">
        <ele>912.2</ele>
        <time>2026-05-22T08:43:19Z</time>
      </trkpt>
      <trkpt lat="43.54173" lon="2.73488">
        <ele>911.6</ele>
        <time>2026-05-22T08:43:24Z</time>
      </trkpt>
      <trkpt lat="43.54172" lon="2.7348">
        <ele>911.1</ele>
        <time>2026-05-22T08:43:29Z</time>
      </trkpt>
      <trkpt lat="43.54168" lon="2.73474">
        <ele>911</ele>
        <time>2026-05-22T08:43:34Z</time>
      </trkpt>
      <trkpt lat="43.54162" lon="2.73469">
        <ele>911.1</ele>
        <time>2026-05-22T08:43:39Z</time>
      </trkpt>
      <trkpt lat="43.54155" lon="2.73465">
        <ele>911.3</ele>
        <time>2026-05-22T08:43:44Z</time>
      </trkpt>
      <trkpt lat="43.54148" lon="2.73462">
        <ele>911.7</ele>
        <time>2026-05-22T08:43:49Z</time>
      </trkpt>
      <trkpt lat="43.54143" lon="2.7346">
        <ele>912.1</ele>
        <time>2026-05-22T08:43:54Z</time>
      </trkpt>
      <trkpt lat="43.54135" lon="2.73459">
        <ele>912.7</ele>
        <time>2026-05-22T08:43:59Z</time>
      </trkpt>
      <trkpt lat="43.54127" lon="2.7346">
        <ele>913.4</ele>
        <time>2026-05-22T08:44:04Z</time>
      </trkpt>
      <trkpt lat="43.54121" lon="2.7346">
        <ele>913.8</ele>
        <time>2026-05-22T08:44:09Z</time>
      </trkpt>
      <trkpt lat="43.54114" lon="2.73462">
        <ele>914.4</ele>
        <time>2026-05-22T08:44:14Z</time>
      </trkpt>
      <trkpt lat="43.54107" lon="2.73463">
        <ele>914.9</ele>
        <time>2026-05-22T08:44:19Z</time>
      </trkpt>
      <trkpt lat="43.54099" lon="2.73466">
        <ele>915.5</ele>
        <time>2026-05-22T08:44:24Z</time>
      </trkpt>
      <trkpt lat="43.54092" lon="2.73469">
        <ele>915.9</ele>
        <time>2026-05-22T08:44:29Z</time>
      </trkpt>
      <trkpt lat="43.54087" lon="2.73471">
        <ele>916.2</ele>
        <time>2026-05-22T08:44:34Z</time>
      </trkpt>
      <trkpt lat="43.54081" lon="2.73473">
        <ele>916.5</ele>
        <time>2026-05-22T08:44:39Z</time>
      </trkpt>
      <trkpt lat="43.54073" lon="2.73472">
        <ele>917.4</ele>
        <time>2026-05-22T08:44:44Z</time>
      </trkpt>
      <trkpt lat="43.54064" lon="2.73473">
        <ele>918.3</ele>
        <time>2026-05-22T08:44:49Z</time>
      </trkpt>
      <trkpt lat="43.54057" lon="2.73475">
        <ele>918.9</ele>
        <time>2026-05-22T08:44:54Z</time>
      </trkpt>
      <trkpt lat="43.54051" lon="2.73473">
        <ele>919.6</ele>
        <time>2026-05-22T08:44:59Z</time>
      </trkpt>
      <trkpt lat="43.54045" lon="2.73474">
        <ele>920.2</ele>
        <time>2026-05-22T08:45:04Z</time>
      </trkpt>
      <trkpt lat="43.54037" lon="2.73475">
        <ele>920.9</ele>
        <time>2026-05-22T08:45:09Z</time>
      </trkpt>
      <trkpt lat="43.54031" lon="2.73477">
        <ele>921.4</ele>
        <time>2026-05-22T08:45:14Z</time>
      </trkpt>
      <trkpt lat="43.54023" lon="2.73479">
        <ele>922</ele>
        <time>2026-05-22T08:45:19Z</time>
      </trkpt>
      <trkpt lat="43.54017" lon="2.73482">
        <ele>922.3</ele>
        <time>2026-05-22T08:45:24Z</time>
      </trkpt>
      <trkpt lat="43.5401" lon="2.73484">
        <ele>922.8</ele>
        <time>2026-05-22T08:45:29Z</time>
      </trkpt>
      <trkpt lat="43.54003" lon="2.73486">
        <ele>923.2</ele>
        <time>2026-05-22T08:45:34Z</time>
      </trkpt>
      <trkpt lat="43.53996" lon="2.7349">
        <ele>923.5</ele>
        <time>2026-05-22T08:45:39Z</time>
      </trkpt>
      <trkpt lat="43.53988" lon="2.73491">
        <ele>924.2</ele>
        <time>2026-05-22T08:45:44Z</time>
      </trkpt>
      <trkpt lat="43.53979" lon="2.7349">
        <ele>925.2</ele>
        <time>2026-05-22T08:45:49Z</time>
      </trkpt>
      <trkpt lat="43.53971" lon="2.73489">
        <ele>926.2</ele>
        <time>2026-05-22T08:45:54Z</time>
      </trkpt>
      <trkpt lat="43.53965" lon="2.73485">
        <ele>927.3</ele>
        <time>2026-05-22T08:45:59Z</time>
      </trkpt>
      <trkpt lat="43.53962" lon="2.73478">
        <ele>928.5</ele>
        <time>2026-05-22T08:46:04Z</time>
      </trkpt>
      <trkpt lat="43.53963" lon="2.73474">
        <ele>928.9</ele>
        <time>2026-05-22T08:46:09Z</time>
      </trkpt>
      <trkpt lat="43.53963" lon="2.73474">
        <ele>928.9</ele>
        <time>2026-05-22T08:46:14Z</time>
      </trkpt>
      <trkpt lat="43.53963" lon="2.73474">
        <ele>928.9</ele>
        <time>2026-05-22T08:46:19Z</time>
      </trkpt>
      <trkpt lat="43.53963" lon="2.73474">
        <ele>928.9</ele>
        <time>2026-05-22T08:46:24Z</time>
      </trkpt>
      <trkpt lat="43.53963" lon="2.73474">
        <ele>928.9</ele>
        <time>2026-05-22T08:46:29Z</time>
      </trkpt>
      <trkpt lat="43.53963" lon="2.73474">
        <ele>928.9</ele>
        <time>2026-05-22T08:46:34Z</time>
      </trkpt>
      <trkpt lat="43.53963" lon="2.73474">
        <ele>928.9</ele>
        <time>2026-05-22T08:46:39Z</time>
      </trkpt>
      <trkpt lat="43.53963" lon="2.73474">
        <ele>928.9</ele>
        <time>2026-05-22T08:46:44Z</time>
      </trkpt>
      <trkpt lat="43.53963" lon="2.73474">
        <ele>928.9</ele>
        <time>2026-05-22T08:46:49Z</time>
      </trkpt>
      <trkpt lat="43.53963" lon="2.73474">
        <ele>928.9</ele>
        <time>2026-05-22T08:46:54Z</time>
      </trkpt>
      <trkpt lat="43.53963" lon="2.73474">
        <ele>928.9</ele>
        <time>2026-05-22T08:46:59Z</time>
      </trkpt>
      <trkpt lat="43.53963" lon="2.73474">
        <ele>928.9</ele>
        <time>2026-05-22T08:47:04Z</time>
      </trkpt>
      <trkpt lat="43.53963" lon="2.73474">
        <ele>928.9</ele>
        <time>2026-05-22T08:47:09Z</time>
      </trkpt>
      <trkpt lat="43.53959" lon="2.73468">
        <ele>930.1</ele>
        <time>2026-05-22T08:47:14Z</time>
      </trkpt>
      <trkpt lat="43.53964" lon="2.73461">
        <ele>930.5</ele>
        <time>2026-05-22T08:47:19Z</time>
      </trkpt>
      <trkpt lat="43.5397" lon="2.73454">
        <ele>930.6</ele>
        <time>2026-05-22T08:47:24Z</time>
      </trkpt>
      <trkpt lat="43.53976" lon="2.7345">
        <ele>930.4</ele>
        <time>2026-05-22T08:47:29Z</time>
      </trkpt>
      <trkpt lat="43.53981" lon="2.73446">
        <ele>930.2</ele>
        <time>2026-05-22T08:47:34Z</time>
      </trkpt>
      <trkpt lat="43.53985" lon="2.7344">
        <ele>930.4</ele>
        <time>2026-05-22T08:47:39Z</time>
      </trkpt>
      <trkpt lat="43.5399" lon="2.73435">
        <ele>930.4</ele>
        <time>2026-05-22T08:47:44Z</time>
      </trkpt>
      <trkpt lat="43.53998" lon="2.73431">
        <ele>929.7</ele>
        <time>2026-05-22T08:47:49Z</time>
      </trkpt>
      <trkpt lat="43.54007" lon="2.73424">
        <ele>929.2</ele>
        <time>2026-05-22T08:47:54Z</time>
      </trkpt>
      <trkpt lat="43.54014" lon="2.73419">
        <ele>928.8</ele>
        <time>2026-05-22T08:47:59Z</time>
      </trkpt>
      <trkpt lat="43.54021" lon="2.73414">
        <ele>928.2</ele>
        <time>2026-05-22T08:48:04Z</time>
      </trkpt>
      <trkpt lat="43.54026" lon="2.73408">
        <ele>928</ele>
        <time>2026-05-22T08:48:09Z</time>
      </trkpt>
      <trkpt lat="43.54032" lon="2.734">
        <ele>927.8</ele>
        <time>2026-05-22T08:48:14Z</time>
      </trkpt>
      <trkpt lat="43.54036" lon="2.73395">
        <ele>927.6</ele>
        <time>2026-05-22T08:48:19Z</time>
      </trkpt>
      <trkpt lat="43.54041" lon="2.7339">
        <ele>927.3</ele>
        <time>2026-05-22T08:48:24Z</time>
      </trkpt>
      <trkpt lat="43.54046" lon="2.73384">
        <ele>927.1</ele>
        <time>2026-05-22T08:48:29Z</time>
      </trkpt>
      <trkpt lat="43.5405" lon="2.73377">
        <ele>927.1</ele>
        <time>2026-05-22T08:48:34Z</time>
      </trkpt>
      <trkpt lat="43.54056" lon="2.73369">
        <ele>926.9</ele>
        <time>2026-05-22T08:48:39Z</time>
      </trkpt>
      <trkpt lat="43.54061" lon="2.73363">
        <ele>926.7</ele>
        <time>2026-05-22T08:48:44Z</time>
      </trkpt>
      <trkpt lat="43.54067" lon="2.73354">
        <ele>926.6</ele>
        <time>2026-05-22T08:48:49Z</time>
      </trkpt>
      <trkpt lat="43.54072" lon="2.73343">
        <ele>926.8</ele>
        <time>2026-05-22T08:48:54Z</time>
      </trkpt>
      <trkpt lat="43.54076" lon="2.73332">
        <ele>927.1</ele>
        <time>2026-05-22T08:48:59Z</time>
      </trkpt>
      <trkpt lat="43.54078" lon="2.73324">
        <ele>927</ele>
        <time>2026-05-22T08:49:04Z</time>
      </trkpt>
      <trkpt lat="43.54077" lon="2.73315">
        <ele>927.4</ele>
        <time>2026-05-22T08:49:09Z</time>
      </trkpt>
      <trkpt lat="43.54078" lon="2.73305">
        <ele>927.5</ele>
        <time>2026-05-22T08:49:14Z</time>
      </trkpt>
      <trkpt lat="43.54079" lon="2.73295">
        <ele>927.6</ele>
        <time>2026-05-22T08:49:19Z</time>
      </trkpt>
      <trkpt lat="43.5408" lon="2.73286">
        <ele>927.7</ele>
        <time>2026-05-22T08:49:24Z</time>
      </trkpt>
      <trkpt lat="43.54077" lon="2.7328">
        <ele>928.3</ele>
        <time>2026-05-22T08:49:29Z</time>
      </trkpt>
      <trkpt lat="43.54077" lon="2.73279">
        <ele>928.4</ele>
        <time>2026-05-22T08:49:34Z</time>
      </trkpt>
      <trkpt lat="43.54077" lon="2.7328">
        <ele>928.3</ele>
        <time>2026-05-22T08:49:39Z</time>
      </trkpt>
      <trkpt lat="43.54077" lon="2.73284">
        <ele>928.2</ele>
        <time>2026-05-22T08:49:44Z</time>
      </trkpt>
      <trkpt lat="43.54075" lon="2.73288">
        <ele>928.5</ele>
        <time>2026-05-22T08:49:49Z</time>
      </trkpt>
      <trkpt lat="43.5407" lon="2.73294">
        <ele>929.1</ele>
        <time>2026-05-22T08:49:54Z</time>
      </trkpt>
      <trkpt lat="43.54065" lon="2.733">
        <ele>929.7</ele>
        <time>2026-05-22T08:49:59Z</time>
      </trkpt>
      <trkpt lat="43.54059" lon="2.73308">
        <ele>930.4</ele>
        <time>2026-05-22T08:50:04Z</time>
      </trkpt>
      <trkpt lat="43.54054" lon="2.73311">
        <ele>931</ele>
        <time>2026-05-22T08:50:09Z</time>
      </trkpt>
      <trkpt lat="43.5405" lon="2.73313">
        <ele>931.6</ele>
        <time>2026-05-22T08:50:14Z</time>
      </trkpt>
      <trkpt lat="43.54045" lon="2.73318">
        <ele>932.1</ele>
        <time>2026-05-22T08:50:19Z</time>
      </trkpt>
      <trkpt lat="43.54041" lon="2.73322">
        <ele>932.6</ele>
        <time>2026-05-22T08:50:24Z</time>
      </trkpt>
      <trkpt lat="43.54037" lon="2.73325">
        <ele>933</ele>
        <time>2026-05-22T08:50:29Z</time>
      </trkpt>
      <trkpt lat="43.54032" lon="2.73329">
        <ele>933.6</ele>
        <time>2026-05-22T08:50:34Z</time>
      </trkpt>
      <trkpt lat="43.54028" lon="2.73333">
        <ele>934</ele>
        <time>2026-05-22T08:50:39Z</time>
      </trkpt>
      <trkpt lat="43.54024" lon="2.73339">
        <ele>934.1</ele>
        <time>2026-05-22T08:50:44Z</time>
      </trkpt>
      <trkpt lat="43.54019" lon="2.73343">
        <ele>934.5</ele>
        <time>2026-05-22T08:50:49Z</time>
      </trkpt>
      <trkpt lat="43.54015" lon="2.73345">
        <ele>934.9</ele>
        <time>2026-05-22T08:50:54Z</time>
      </trkpt>
      <trkpt lat="43.5401" lon="2.73347">
        <ele>935.4</ele>
        <time>2026-05-22T08:50:59Z</time>
      </trkpt>
      <trkpt lat="43.54006" lon="2.7335">
        <ele>935.7</ele>
        <time>2026-05-22T08:51:04Z</time>
      </trkpt>
      <trkpt lat="43.54002" lon="2.73352">
        <ele>936.1</ele>
        <time>2026-05-22T08:51:09Z</time>
      </trkpt>
      <trkpt lat="43.53997" lon="2.73353">
        <ele>936.8</ele>
        <time>2026-05-22T08:51:14Z</time>
      </trkpt>
      <trkpt lat="43.53993" lon="2.73355">
        <ele>937.3</ele>
        <time>2026-05-22T08:51:19Z</time>
      </trkpt>
      <trkpt lat="43.53989" lon="2.73356">
        <ele>937.9</ele>
        <time>2026-05-22T08:51:24Z</time>
      </trkpt>
      <trkpt lat="43.53983" lon="2.73357">
        <ele>938.8</ele>
        <time>2026-05-22T08:51:29Z</time>
      </trkpt>
      <trkpt lat="43.53979" lon="2.7336">
        <ele>939.1</ele>
        <time>2026-05-22T08:51:34Z</time>
      </trkpt>
      <trkpt lat="43.53976" lon="2.73362">
        <ele>939.4</ele>
        <time>2026-05-22T08:51:39Z</time>
      </trkpt>
      <trkpt lat="43.53972" lon="2.73364">
        <ele>939.9</ele>
        <time>2026-05-22T08:51:44Z</time>
      </trkpt>
      <trkpt lat="43.53968" lon="2.73366">
        <ele>940.3</ele>
        <time>2026-05-22T08:51:49Z</time>
      </trkpt>
      <trkpt lat="43.53964" lon="2.73369">
        <ele>940.7</ele>
        <time>2026-05-22T08:51:54Z</time>
      </trkpt>
      <trkpt lat="43.53958" lon="2.7337">
        <ele>941.5</ele>
        <time>2026-05-22T08:51:59Z</time>
      </trkpt>
      <trkpt lat="43.53955" lon="2.73373">
        <ele>941.7</ele>
        <time>2026-05-22T08:52:04Z</time>
      </trkpt>
      <trkpt lat="43.53955" lon="2.73375">
        <ele>941.5</ele>
        <time>2026-05-22T08:52:09Z</time>
      </trkpt>
      <trkpt lat="43.53955" lon="2.73375">
        <ele>941.5</ele>
        <time>2026-05-22T08:52:14Z</time>
      </trkpt>
      <trkpt lat="43.53955" lon="2.73375">
        <ele>941.5</ele>
        <time>2026-05-22T08:52:19Z</time>
      </trkpt>
      <trkpt lat="43.53955" lon="2.73375">
        <ele>941.5</ele>
        <time>2026-05-22T08:52:24Z</time>
      </trkpt>
      <trkpt lat="43.53956" lon="2.73382">
        <ele>940.7</ele>
        <time>2026-05-22T08:52:29Z</time>
      </trkpt>
      <trkpt lat="43.53951" lon="2.73383">
        <ele>941.4</ele>
        <time>2026-05-22T08:52:34Z</time>
      </trkpt>
      <trkpt lat="43.53947" lon="2.73383">
        <ele>942</ele>
        <time>2026-05-22T08:52:39Z</time>
      </trkpt>
      <trkpt lat="43.53942" lon="2.73384">
        <ele>942.6</ele>
        <time>2026-05-22T08:52:44Z</time>
      </trkpt>
      <trkpt lat="43.53937" lon="2.73385">
        <ele>943.3</ele>
        <time>2026-05-22T08:52:49Z</time>
      </trkpt>
      <trkpt lat="43.53931" lon="2.73387">
        <ele>944</ele>
        <time>2026-05-22T08:52:54Z</time>
      </trkpt>
      <trkpt lat="43.53924" lon="2.73388">
        <ele>945</ele>
        <time>2026-05-22T08:52:59Z</time>
      </trkpt>
      <trkpt lat="43.53918" lon="2.73388">
        <ele>945.9</ele>
        <time>2026-05-22T08:53:04Z</time>
      </trkpt>
      <trkpt lat="43.53912" lon="2.73387">
        <ele>946.9</ele>
        <time>2026-05-22T08:53:09Z</time>
      </trkpt>
      <trkpt lat="43.53906" lon="2.73386">
        <ele>947.9</ele>
        <time>2026-05-22T08:53:14Z</time>
      </trkpt>
      <trkpt lat="43.539" lon="2.73384">
        <ele>949.1</ele>
        <time>2026-05-22T08:53:19Z</time>
      </trkpt>
      <trkpt lat="43.53897" lon="2.73383">
        <ele>949.7</ele>
        <time>2026-05-22T08:53:24Z</time>
      </trkpt>
      <trkpt lat="43.53895" lon="2.73382">
        <ele>950.1</ele>
        <time>2026-05-22T08:53:29Z</time>
      </trkpt>
      <trkpt lat="43.53887" lon="2.73378">
        <ele>951.8</ele>
        <time>2026-05-22T08:53:34Z</time>
      </trkpt>
      <trkpt lat="43.53881" lon="2.73378">
        <ele>952.7</ele>
        <time>2026-05-22T08:53:39Z</time>
      </trkpt>
      <trkpt lat="43.53876" lon="2.73381">
        <ele>953.1</ele>
        <time>2026-05-22T08:53:44Z</time>
      </trkpt>
      <trkpt lat="43.53872" lon="2.73384">
        <ele>953.4</ele>
        <time>2026-05-22T08:53:49Z</time>
      </trkpt>
      <trkpt lat="43.53867" lon="2.73389">
        <ele>953.5</ele>
        <time>2026-05-22T08:53:54Z</time>
      </trkpt>
      <trkpt lat="43.53862" lon="2.73393">
        <ele>953.8</ele>
        <time>2026-05-22T08:53:59Z</time>
      </trkpt>
      <trkpt lat="43.53855" lon="2.73396">
        <ele>954.5</ele>
        <time>2026-05-22T08:54:04Z</time>
      </trkpt>
      <trkpt lat="43.5385" lon="2.73399">
        <ele>954.8</ele>
        <time>2026-05-22T08:54:09Z</time>
      </trkpt>
      <trkpt lat="43.53847" lon="2.73402">
        <ele>954.9</ele>
        <time>2026-05-22T08:54:14Z</time>
      </trkpt>
      <trkpt lat="43.53843" lon="2.73405">
        <ele>955.1</ele>
        <time>2026-05-22T08:54:19Z</time>
      </trkpt>
      <trkpt lat="43.53837" lon="2.73408">
        <ele>955.6</ele>
        <time>2026-05-22T08:54:24Z</time>
      </trkpt>
      <trkpt lat="43.53831" lon="2.73411">
        <ele>955.9</ele>
        <time>2026-05-22T08:54:29Z</time>
      </trkpt>
      <trkpt lat="43.53828" lon="2.73415">
        <ele>955.5</ele>
        <time>2026-05-22T08:54:34Z</time>
      </trkpt>
      <trkpt lat="43.53823" lon="2.73418">
        <ele>955.4</ele>
        <time>2026-05-22T08:54:39Z</time>
      </trkpt>
      <trkpt lat="43.53819" lon="2.73419">
        <ele>955.5</ele>
        <time>2026-05-22T08:54:44Z</time>
      </trkpt>
      <trkpt lat="43.53813" lon="2.7342">
        <ele>955.7</ele>
        <time>2026-05-22T08:54:49Z</time>
      </trkpt>
      <trkpt lat="43.53806" lon="2.73422">
        <ele>955.9</ele>
        <time>2026-05-22T08:54:54Z</time>
      </trkpt>
      <trkpt lat="43.53802" lon="2.73424">
        <ele>955.9</ele>
        <time>2026-05-22T08:54:59Z</time>
      </trkpt>
      <trkpt lat="43.53797" lon="2.73427">
        <ele>955.7</ele>
        <time>2026-05-22T08:55:04Z</time>
      </trkpt>
      <trkpt lat="43.53793" lon="2.73431">
        <ele>955.4</ele>
        <time>2026-05-22T08:55:09Z</time>
      </trkpt>
      <trkpt lat="43.53792" lon="2.73432">
        <ele>955.4</ele>
        <time>2026-05-22T08:55:14Z</time>
      </trkpt>
      <trkpt lat="43.53792" lon="2.73432">
        <ele>955.4</ele>
        <time>2026-05-22T08:55:19Z</time>
      </trkpt>
      <trkpt lat="43.53792" lon="2.73432">
        <ele>955.4</ele>
        <time>2026-05-22T08:55:24Z</time>
      </trkpt>
      <trkpt lat="43.53792" lon="2.73432">
        <ele>955.4</ele>
        <time>2026-05-22T08:55:29Z</time>
      </trkpt>
      <trkpt lat="43.53792" lon="2.73432">
        <ele>955.4</ele>
        <time>2026-05-22T08:55:34Z</time>
      </trkpt>
      <trkpt lat="43.53788" lon="2.73443">
        <ele>954.1</ele>
        <time>2026-05-22T08:55:39Z</time>
      </trkpt>
      <trkpt lat="43.53784" lon="2.73445">
        <ele>954.1</ele>
        <time>2026-05-22T08:55:44Z</time>
      </trkpt>
      <trkpt lat="43.53778" lon="2.73448">
        <ele>954.1</ele>
        <time>2026-05-22T08:55:49Z</time>
      </trkpt>
      <trkpt lat="43.53772" lon="2.73449">
        <ele>954.3</ele>
        <time>2026-05-22T08:55:54Z</time>
      </trkpt>
      <trkpt lat="43.53767" lon="2.73448">
        <ele>954.8</ele>
        <time>2026-05-22T08:55:59Z</time>
      </trkpt>
      <trkpt lat="43.53763" lon="2.73447">
        <ele>955.2</ele>
        <time>2026-05-22T08:56:04Z</time>
      </trkpt>
      <trkpt lat="43.53757" lon="2.73447">
        <ele>955.5</ele>
        <time>2026-05-22T08:56:09Z</time>
      </trkpt>
      <trkpt lat="43.53753" lon="2.73446">
        <ele>955.9</ele>
        <time>2026-05-22T08:56:14Z</time>
      </trkpt>
      <trkpt lat="43.53749" lon="2.73441">
        <ele>956.8</ele>
        <time>2026-05-22T08:56:19Z</time>
      </trkpt>
      <trkpt lat="43.53745" lon="2.73436">
        <ele>957.4</ele>
        <time>2026-05-22T08:56:24Z</time>
      </trkpt>
      <trkpt lat="43.53741" lon="2.73431">
        <ele>958</ele>
        <time>2026-05-22T08:56:29Z</time>
      </trkpt>
      <trkpt lat="43.53739" lon="2.73425">
        <ele>958.7</ele>
        <time>2026-05-22T08:56:34Z</time>
      </trkpt>
      <trkpt lat="43.53734" lon="2.7342">
        <ele>959.2</ele>
        <time>2026-05-22T08:56:39Z</time>
      </trkpt>
      <trkpt lat="43.53731" lon="2.73418">
        <ele>959.4</ele>
        <time>2026-05-22T08:56:44Z</time>
      </trkpt>
      <trkpt lat="43.53726" lon="2.73412">
        <ele>960.1</ele>
        <time>2026-05-22T08:56:49Z</time>
      </trkpt>
      <trkpt lat="43.53723" lon="2.7341">
        <ele>960.4</ele>
        <time>2026-05-22T08:56:54Z</time>
      </trkpt>
      <trkpt lat="43.53721" lon="2.73407">
        <ele>960.8</ele>
        <time>2026-05-22T08:56:59Z</time>
      </trkpt>
      <trkpt lat="43.53716" lon="2.73407">
        <ele>960.6</ele>
        <time>2026-05-22T08:57:04Z</time>
      </trkpt>
      <trkpt lat="43.53711" lon="2.73406">
        <ele>960.7</ele>
        <time>2026-05-22T08:57:09Z</time>
      </trkpt>
      <trkpt lat="43.53706" lon="2.73405">
        <ele>960.7</ele>
        <time>2026-05-22T08:57:14Z</time>
      </trkpt>
      <trkpt lat="43.537" lon="2.73404">
        <ele>960.7</ele>
        <time>2026-05-22T08:57:19Z</time>
      </trkpt>
      <trkpt lat="43.53694" lon="2.73405">
        <ele>960.4</ele>
        <time>2026-05-22T08:57:24Z</time>
      </trkpt>
      <trkpt lat="43.5369" lon="2.73404">
        <ele>960.4</ele>
        <time>2026-05-22T08:57:29Z</time>
      </trkpt>
      <trkpt lat="43.53683" lon="2.73402">
        <ele>960.5</ele>
        <time>2026-05-22T08:57:34Z</time>
      </trkpt>
      <trkpt lat="43.53677" lon="2.73402">
        <ele>960.4</ele>
        <time>2026-05-22T08:57:39Z</time>
      </trkpt>
      <trkpt lat="43.53672" lon="2.73401">
        <ele>960.4</ele>
        <time>2026-05-22T08:57:44Z</time>
      </trkpt>
      <trkpt lat="43.53666" lon="2.734">
        <ele>960.5</ele>
        <time>2026-05-22T08:57:49Z</time>
      </trkpt>
      <trkpt lat="43.53658" lon="2.73402">
        <ele>961.6</ele>
        <time>2026-05-22T08:57:54Z</time>
      </trkpt>
      <trkpt lat="43.53654" lon="2.73401">
        <ele>962.4</ele>
        <time>2026-05-22T08:57:59Z</time>
      </trkpt>
      <trkpt lat="43.53648" lon="2.73398">
        <ele>963.8</ele>
        <time>2026-05-22T08:58:04Z</time>
      </trkpt>
      <trkpt lat="43.53645" lon="2.73397">
        <ele>964.5</ele>
        <time>2026-05-22T08:58:09Z</time>
      </trkpt>
      <trkpt lat="43.5364" lon="2.73394">
        <ele>965.7</ele>
        <time>2026-05-22T08:58:14Z</time>
      </trkpt>
      <trkpt lat="43.53634" lon="2.73391">
        <ele>967.1</ele>
        <time>2026-05-22T08:58:19Z</time>
      </trkpt>
      <trkpt lat="43.53628" lon="2.73383">
        <ele>969.1</ele>
        <time>2026-05-22T08:58:24Z</time>
      </trkpt>
      <trkpt lat="43.53625" lon="2.73379">
        <ele>970</ele>
        <time>2026-05-22T08:58:29Z</time>
      </trkpt>
      <trkpt lat="43.53621" lon="2.73371">
        <ele>971.6</ele>
        <time>2026-05-22T08:58:34Z</time>
      </trkpt>
      <trkpt lat="43.53614" lon="2.73361">
        <ele>973.8</ele>
        <time>2026-05-22T08:58:39Z</time>
      </trkpt>
      <trkpt lat="43.53609" lon="2.73358">
        <ele>974.9</ele>
        <time>2026-05-22T08:58:44Z</time>
      </trkpt>
      <trkpt lat="43.53602" lon="2.7335">
        <ele>976.8</ele>
        <time>2026-05-22T08:58:49Z</time>
      </trkpt>
      <trkpt lat="43.53596" lon="2.73341">
        <ele>978.5</ele>
        <time>2026-05-22T08:58:54Z</time>
      </trkpt>
      <trkpt lat="43.5359" lon="2.73338">
        <ele>979.7</ele>
        <time>2026-05-22T08:58:59Z</time>
      </trkpt>
      <trkpt lat="43.53586" lon="2.73336">
        <ele>980.4</ele>
        <time>2026-05-22T08:59:04Z</time>
      </trkpt>
      <trkpt lat="43.53583" lon="2.73331">
        <ele>981.1</ele>
        <time>2026-05-22T08:59:09Z</time>
      </trkpt>
      <trkpt lat="43.53581" lon="2.73328">
        <ele>981.5</ele>
        <time>2026-05-22T08:59:14Z</time>
      </trkpt>
      <trkpt lat="43.53578" lon="2.73324">
        <ele>982.1</ele>
        <time>2026-05-22T08:59:19Z</time>
      </trkpt>
      <trkpt lat="43.53576" lon="2.73319">
        <ele>982.5</ele>
        <time>2026-05-22T08:59:24Z</time>
      </trkpt>
      <trkpt lat="43.53574" lon="2.73316">
        <ele>982.9</ele>
        <time>2026-05-22T08:59:29Z</time>
      </trkpt>
      <trkpt lat="43.53571" lon="2.73313">
        <ele>983.5</ele>
        <time>2026-05-22T08:59:34Z</time>
      </trkpt>
      <trkpt lat="43.53571" lon="2.73313">
        <ele>983.5</ele>
        <time>2026-05-22T08:59:39Z</time>
      </trkpt>
      <trkpt lat="43.53564" lon="2.73308">
        <ele>984.8</ele>
        <time>2026-05-22T08:59:44Z</time>
      </trkpt>
      <trkpt lat="43.5356" lon="2.73306">
        <ele>985.5</ele>
        <time>2026-05-22T08:59:49Z</time>
      </trkpt>
      <trkpt lat="43.53557" lon="2.73301">
        <ele>986.1</ele>
        <time>2026-05-22T08:59:54Z</time>
      </trkpt>
      <trkpt lat="43.53555" lon="2.73298">
        <ele>986.6</ele>
        <time>2026-05-22T08:59:59Z</time>
      </trkpt>
      <trkpt lat="43.5355" lon="2.73296">
        <ele>987.5</ele>
        <time>2026-05-22T09:00:04Z</time>
      </trkpt>
      <trkpt lat="43.53545" lon="2.73293">
        <ele>988.4</ele>
        <time>2026-05-22T09:00:09Z</time>
      </trkpt>
      <trkpt lat="43.53542" lon="2.7329">
        <ele>989</ele>
        <time>2026-05-22T09:00:14Z</time>
      </trkpt>
      <trkpt lat="43.5354" lon="2.73286">
        <ele>989.5</ele>
        <time>2026-05-22T09:00:19Z</time>
      </trkpt>
      <trkpt lat="43.53538" lon="2.73281">
        <ele>990</ele>
        <time>2026-05-22T09:00:24Z</time>
      </trkpt>
      <trkpt lat="43.53535" lon="2.73276">
        <ele>990.7</ele>
        <time>2026-05-22T09:00:29Z</time>
      </trkpt>
      <trkpt lat="43.53531" lon="2.7327">
        <ele>991.6</ele>
        <time>2026-05-22T09:00:34Z</time>
      </trkpt>
      <trkpt lat="43.53528" lon="2.73264">
        <ele>992.4</ele>
        <time>2026-05-22T09:00:39Z</time>
      </trkpt>
      <trkpt lat="43.53524" lon="2.7326">
        <ele>993.3</ele>
        <time>2026-05-22T09:00:44Z</time>
      </trkpt>
      <trkpt lat="43.53519" lon="2.73258">
        <ele>994.2</ele>
        <time>2026-05-22T09:00:49Z</time>
      </trkpt>
      <trkpt lat="43.53515" lon="2.73254">
        <ele>995.1</ele>
        <time>2026-05-22T09:00:54Z</time>
      </trkpt>
      <trkpt lat="43.53511" lon="2.73252">
        <ele>995.9</ele>
        <time>2026-05-22T09:00:59Z</time>
      </trkpt>
      <trkpt lat="43.53506" lon="2.7325">
        <ele>996.9</ele>
        <time>2026-05-22T09:01:04Z</time>
      </trkpt>
      <trkpt lat="43.53502" lon="2.73251">
        <ele>997.6</ele>
        <time>2026-05-22T09:01:09Z</time>
      </trkpt>
      <trkpt lat="43.53496" lon="2.73253">
        <ele>998.5</ele>
        <time>2026-05-22T09:01:14Z</time>
      </trkpt>
      <trkpt lat="43.5349" lon="2.73252">
        <ele>999.5</ele>
        <time>2026-05-22T09:01:19Z</time>
      </trkpt>
      <trkpt lat="43.53484" lon="2.73249">
        <ele>1000.5</ele>
        <time>2026-05-22T09:01:24Z</time>
      </trkpt>
      <trkpt lat="43.5348" lon="2.73247">
        <ele>1001.1</ele>
        <time>2026-05-22T09:01:29Z</time>
      </trkpt>
      <trkpt lat="43.53476" lon="2.73247">
        <ele>1001.7</ele>
        <time>2026-05-22T09:01:34Z</time>
      </trkpt>
      <trkpt lat="43.53471" lon="2.73249">
        <ele>1002.5</ele>
        <time>2026-05-22T09:01:39Z</time>
      </trkpt>
      <trkpt lat="43.53467" lon="2.73252">
        <ele>1003</ele>
        <time>2026-05-22T09:01:44Z</time>
      </trkpt>
      <trkpt lat="43.53468" lon="2.73255">
        <ele>1002.7</ele>
        <time>2026-05-22T09:01:49Z</time>
      </trkpt>
      <trkpt lat="43.53468" lon="2.73255">
        <ele>1002.7</ele>
        <time>2026-05-22T09:01:54Z</time>
      </trkpt>
      <trkpt lat="43.53468" lon="2.73255">
        <ele>1002.7</ele>
        <time>2026-05-22T09:01:59Z</time>
      </trkpt>
      <trkpt lat="43.53458" lon="2.73257">
        <ele>1004.1</ele>
        <time>2026-05-22T09:02:04Z</time>
      </trkpt>
      <trkpt lat="43.53457" lon="2.73258">
        <ele>1004.2</ele>
        <time>2026-05-22T09:02:09Z</time>
      </trkpt>
      <trkpt lat="43.53457" lon="2.73258">
        <ele>1004.2</ele>
        <time>2026-05-22T09:02:14Z</time>
      </trkpt>
      <trkpt lat="43.53457" lon="2.73258">
        <ele>1004.2</ele>
        <time>2026-05-22T09:02:19Z</time>
      </trkpt>
      <trkpt lat="43.53457" lon="2.73258">
        <ele>1004.2</ele>
        <time>2026-05-22T09:02:24Z</time>
      </trkpt>
      <trkpt lat="43.53457" lon="2.73258">
        <ele>1004.2</ele>
        <time>2026-05-22T09:02:29Z</time>
      </trkpt>
      <trkpt lat="43.53457" lon="2.73258">
        <ele>1004.2</ele>
        <time>2026-05-22T09:02:34Z</time>
      </trkpt>
      <trkpt lat="43.53457" lon="2.73258">
        <ele>1004.2</ele>
        <time>2026-05-22T09:02:39Z</time>
      </trkpt>
      <trkpt lat="43.53457" lon="2.73258">
        <ele>1004.2</ele>
        <time>2026-05-22T09:02:44Z</time>
      </trkpt>
      <trkpt lat="43.53457" lon="2.73258">
        <ele>1004.2</ele>
        <time>2026-05-22T09:02:49Z</time>
      </trkpt>
      <trkpt lat="43.53457" lon="2.73258">
        <ele>1004.2</ele>
        <time>2026-05-22T09:02:54Z</time>
      </trkpt>
      <trkpt lat="43.53457" lon="2.73258">
        <ele>1004.2</ele>
        <time>2026-05-22T09:02:59Z</time>
      </trkpt>
      <trkpt lat="43.53457" lon="2.73258">
        <ele>1004.2</ele>
        <time>2026-05-22T09:03:04Z</time>
      </trkpt>
      <trkpt lat="43.5345" lon="2.73268">
        <ele>1004.7</ele>
        <time>2026-05-22T09:03:09Z</time>
      </trkpt>
      <trkpt lat="43.53449" lon="2.73269">
        <ele>1004.8</ele>
        <time>2026-05-22T09:03:14Z</time>
      </trkpt>
      <trkpt lat="43.53449" lon="2.73269">
        <ele>1004.8</ele>
        <time>2026-05-22T09:03:19Z</time>
      </trkpt>
      <trkpt lat="43.53449" lon="2.73269">
        <ele>1004.8</ele>
        <time>2026-05-22T09:03:24Z</time>
      </trkpt>
      <trkpt lat="43.53449" lon="2.73269">
        <ele>1004.8</ele>
        <time>2026-05-22T09:03:29Z</time>
      </trkpt>
      <trkpt lat="43.53447" lon="2.73267">
        <ele>1005.2</ele>
        <time>2026-05-22T09:03:34Z</time>
      </trkpt>
      <trkpt lat="43.53443" lon="2.73268">
        <ele>1005.7</ele>
        <time>2026-05-22T09:03:39Z</time>
      </trkpt>
      <trkpt lat="43.53439" lon="2.7327">
        <ele>1006.2</ele>
        <time>2026-05-22T09:03:44Z</time>
      </trkpt>
      <trkpt lat="43.53437" lon="2.73272">
        <ele>1006.4</ele>
        <time>2026-05-22T09:03:49Z</time>
      </trkpt>
      <trkpt lat="43.53433" lon="2.73275">
        <ele>1006.8</ele>
        <time>2026-05-22T09:03:54Z</time>
      </trkpt>
      <trkpt lat="43.53429" lon="2.73278">
        <ele>1007.2</ele>
        <time>2026-05-22T09:03:59Z</time>
      </trkpt>
      <trkpt lat="43.53425" lon="2.73279">
        <ele>1007.7</ele>
        <time>2026-05-22T09:04:04Z</time>
      </trkpt>
      <trkpt lat="43.53421" lon="2.7328">
        <ele>1008.2</ele>
        <time>2026-05-22T09:04:09Z</time>
      </trkpt>
      <trkpt lat="43.53418" lon="2.7328">
        <ele>1008.6</ele>
        <time>2026-05-22T09:04:14Z</time>
      </trkpt>
      <trkpt lat="43.53415" lon="2.73278">
        <ele>1009.2</ele>
        <time>2026-05-22T09:04:19Z</time>
      </trkpt>
      <trkpt lat="43.53412" lon="2.73277">
        <ele>1009.5</ele>
        <time>2026-05-22T09:04:24Z</time>
      </trkpt>
      <trkpt lat="43.53407" lon="2.73277">
        <ele>1010</ele>
        <time>2026-05-22T09:04:29Z</time>
      </trkpt>
      <trkpt lat="43.53403" lon="2.73277">
        <ele>1010.4</ele>
        <time>2026-05-22T09:04:34Z</time>
      </trkpt>
      <trkpt lat="43.53399" lon="2.7328">
        <ele>1010.6</ele>
        <time>2026-05-22T09:04:39Z</time>
      </trkpt>
      <trkpt lat="43.53396" lon="2.73284">
        <ele>1010.6</ele>
        <time>2026-05-22T09:04:44Z</time>
      </trkpt>
      <trkpt lat="43.53393" lon="2.73286">
        <ele>1010.8</ele>
        <time>2026-05-22T09:04:49Z</time>
      </trkpt>
      <trkpt lat="43.53387" lon="2.7329">
        <ele>1011.1</ele>
        <time>2026-05-22T09:04:54Z</time>
      </trkpt>
      <trkpt lat="43.53382" lon="2.73292">
        <ele>1011.5</ele>
        <time>2026-05-22T09:04:59Z</time>
      </trkpt>
      <trkpt lat="43.53377" lon="2.73294">
        <ele>1011.9</ele>
        <time>2026-05-22T09:05:04Z</time>
      </trkpt>
      <trkpt lat="43.53373" lon="2.73293">
        <ele>1012.4</ele>
        <time>2026-05-22T09:05:09Z</time>
      </trkpt>
      <trkpt lat="43.5337" lon="2.73291">
        <ele>1012.8</ele>
        <time>2026-05-22T09:05:14Z</time>
      </trkpt>
      <trkpt lat="43.53365" lon="2.7329">
        <ele>1013.4</ele>
        <time>2026-05-22T09:05:19Z</time>
      </trkpt>
      <trkpt lat="43.53359" lon="2.73291">
        <ele>1013.9</ele>
        <time>2026-05-22T09:05:24Z</time>
      </trkpt>
      <trkpt lat="43.53354" lon="2.7329">
        <ele>1014.5</ele>
        <time>2026-05-22T09:05:29Z</time>
      </trkpt>
      <trkpt lat="43.53349" lon="2.73288">
        <ele>1015.1</ele>
        <time>2026-05-22T09:05:34Z</time>
      </trkpt>
      <trkpt lat="43.53345" lon="2.73287">
        <ele>1015.6</ele>
        <time>2026-05-22T09:05:39Z</time>
      </trkpt>
      <trkpt lat="43.53339" lon="2.73286">
        <ele>1016.3</ele>
        <time>2026-05-22T09:05:44Z</time>
      </trkpt>
      <trkpt lat="43.53333" lon="2.73285">
        <ele>1016.9</ele>
        <time>2026-05-22T09:05:49Z</time>
      </trkpt>
      <trkpt lat="43.53328" lon="2.73285">
        <ele>1017.5</ele>
        <time>2026-05-22T09:05:54Z</time>
      </trkpt>
      <trkpt lat="43.53323" lon="2.73286">
        <ele>1018</ele>
        <time>2026-05-22T09:05:59Z</time>
      </trkpt>
      <trkpt lat="43.53317" lon="2.73289">
        <ele>1018.5</ele>
        <time>2026-05-22T09:06:04Z</time>
      </trkpt>
      <trkpt lat="43.53312" lon="2.7329">
        <ele>1019</ele>
        <time>2026-05-22T09:06:09Z</time>
      </trkpt>
      <trkpt lat="43.53308" lon="2.73289">
        <ele>1019.6</ele>
        <time>2026-05-22T09:06:14Z</time>
      </trkpt>
      <trkpt lat="43.53303" lon="2.73288">
        <ele>1020.2</ele>
        <time>2026-05-22T09:06:19Z</time>
      </trkpt>
      <trkpt lat="43.53299" lon="2.7329">
        <ele>1020.5</ele>
        <time>2026-05-22T09:06:24Z</time>
      </trkpt>
      <trkpt lat="43.53294" lon="2.73291">
        <ele>1021</ele>
        <time>2026-05-22T09:06:29Z</time>
      </trkpt>
      <trkpt lat="43.53289" lon="2.73291">
        <ele>1021.6</ele>
        <time>2026-05-22T09:06:34Z</time>
      </trkpt>
      <trkpt lat="43.53284" lon="2.73292">
        <ele>1022.1</ele>
        <time>2026-05-22T09:06:39Z</time>
      </trkpt>
      <trkpt lat="43.53279" lon="2.73296">
        <ele>1022.4</ele>
        <time>2026-05-22T09:06:44Z</time>
      </trkpt>
      <trkpt lat="43.53275" lon="2.733">
        <ele>1022.6</ele>
        <time>2026-05-22T09:06:49Z</time>
      </trkpt>
      <trkpt lat="43.53271" lon="2.73302">
        <ele>1022.9</ele>
        <time>2026-05-22T09:06:54Z</time>
      </trkpt>
      <trkpt lat="43.53266" lon="2.73304">
        <ele>1023.3</ele>
        <time>2026-05-22T09:06:59Z</time>
      </trkpt>
      <trkpt lat="43.53261" lon="2.73305">
        <ele>1023.8</ele>
        <time>2026-05-22T09:07:04Z</time>
      </trkpt>
      <trkpt lat="43.53257" lon="2.73305">
        <ele>1024.3</ele>
        <time>2026-05-22T09:07:09Z</time>
      </trkpt>
      <trkpt lat="43.53252" lon="2.73306">
        <ele>1024.7</ele>
        <time>2026-05-22T09:07:14Z</time>
      </trkpt>
      <trkpt lat="43.53246" lon="2.73308">
        <ele>1025.2</ele>
        <time>2026-05-22T09:07:19Z</time>
      </trkpt>
      <trkpt lat="43.53241" lon="2.7331">
        <ele>1025.5</ele>
        <time>2026-05-22T09:07:24Z</time>
      </trkpt>
      <trkpt lat="43.53236" lon="2.73315">
        <ele>1025.6</ele>
        <time>2026-05-22T09:07:29Z</time>
      </trkpt>
      <trkpt lat="43.53231" lon="2.73318">
        <ele>1025.9</ele>
        <time>2026-05-22T09:07:34Z</time>
      </trkpt>
      <trkpt lat="43.53226" lon="2.73319">
        <ele>1026.3</ele>
        <time>2026-05-22T09:07:39Z</time>
      </trkpt>
      <trkpt lat="43.53222" lon="2.7332">
        <ele>1026.6</ele>
        <time>2026-05-22T09:07:44Z</time>
      </trkpt>
      <trkpt lat="43.53217" lon="2.73319">
        <ele>1027.1</ele>
        <time>2026-05-22T09:07:49Z</time>
      </trkpt>
      <trkpt lat="43.53211" lon="2.73319">
        <ele>1027.7</ele>
        <time>2026-05-22T09:07:54Z</time>
      </trkpt>
      <trkpt lat="43.53206" lon="2.73317">
        <ele>1028.3</ele>
        <time>2026-05-22T09:07:59Z</time>
      </trkpt>
      <trkpt lat="43.53202" lon="2.73314">
        <ele>1028.9</ele>
        <time>2026-05-22T09:08:04Z</time>
      </trkpt>
      <trkpt lat="43.53197" lon="2.7331">
        <ele>1029.6</ele>
        <time>2026-05-22T09:08:09Z</time>
      </trkpt>
      <trkpt lat="43.53191" lon="2.73307">
        <ele>1030.3</ele>
        <time>2026-05-22T09:08:14Z</time>
      </trkpt>
      <trkpt lat="43.53185" lon="2.73303">
        <ele>1031.1</ele>
        <time>2026-05-22T09:08:19Z</time>
      </trkpt>
      <trkpt lat="43.5318" lon="2.733">
        <ele>1031.8</ele>
        <time>2026-05-22T09:08:24Z</time>
      </trkpt>
      <trkpt lat="43.53175" lon="2.73303">
        <ele>1032.1</ele>
        <time>2026-05-22T09:08:29Z</time>
      </trkpt>
      <trkpt lat="43.53173" lon="2.73304">
        <ele>1032.2</ele>
        <time>2026-05-22T09:08:34Z</time>
      </trkpt>
      <trkpt lat="43.5317" lon="2.73304">
        <ele>1032.5</ele>
        <time>2026-05-22T09:08:39Z</time>
      </trkpt>
      <trkpt lat="43.53169" lon="2.73305">
        <ele>1032.5</ele>
        <time>2026-05-22T09:08:44Z</time>
      </trkpt>
      <trkpt lat="43.53169" lon="2.73305">
        <ele>1032.5</ele>
        <time>2026-05-22T09:08:49Z</time>
      </trkpt>
      <trkpt lat="43.53169" lon="2.73305">
        <ele>1032.5</ele>
        <time>2026-05-22T09:08:54Z</time>
      </trkpt>
      <trkpt lat="43.53164" lon="2.73321">
        <ele>1031.8</ele>
        <time>2026-05-22T09:08:59Z</time>
      </trkpt>
      <trkpt lat="43.53164" lon="2.73321">
        <ele>1031.8</ele>
        <time>2026-05-22T09:09:04Z</time>
      </trkpt>
      <trkpt lat="43.53164" lon="2.73321">
        <ele>1031.8</ele>
        <time>2026-05-22T09:09:09Z</time>
      </trkpt>
      <trkpt lat="43.53164" lon="2.73321">
        <ele>1031.8</ele>
        <time>2026-05-22T09:09:14Z</time>
      </trkpt>
      <trkpt lat="43.53164" lon="2.73321">
        <ele>1031.8</ele>
        <time>2026-05-22T09:09:19Z</time>
      </trkpt>
      <trkpt lat="43.53164" lon="2.73321">
        <ele>1031.8</ele>
        <time>2026-05-22T09:09:24Z</time>
      </trkpt>
      <trkpt lat="43.53164" lon="2.73321">
        <ele>1031.8</ele>
        <time>2026-05-22T09:09:29Z</time>
      </trkpt>
      <trkpt lat="43.53164" lon="2.73321">
        <ele>1031.8</ele>
        <time>2026-05-22T09:09:34Z</time>
      </trkpt>
      <trkpt lat="43.53164" lon="2.73321">
        <ele>1031.8</ele>
        <time>2026-05-22T09:09:39Z</time>
      </trkpt>
      <trkpt lat="43.53164" lon="2.73321">
        <ele>1031.8</ele>
        <time>2026-05-22T09:09:44Z</time>
      </trkpt>
      <trkpt lat="43.53164" lon="2.73321">
        <ele>1031.8</ele>
        <time>2026-05-22T09:09:49Z</time>
      </trkpt>
      <trkpt lat="43.53164" lon="2.73321">
        <ele>1031.8</ele>
        <time>2026-05-22T09:09:54Z</time>
      </trkpt>
      <trkpt lat="43.53164" lon="2.73321">
        <ele>1031.8</ele>
        <time>2026-05-22T09:09:59Z</time>
      </trkpt>
      <trkpt lat="43.53164" lon="2.73321">
        <ele>1031.8</ele>
        <time>2026-05-22T09:10:04Z</time>
      </trkpt>
      <trkpt lat="43.53164" lon="2.73321">
        <ele>1031.8</ele>
        <time>2026-05-22T09:10:09Z</time>
      </trkpt>
      <trkpt lat="43.53164" lon="2.73321">
        <ele>1031.8</ele>
        <time>2026-05-22T09:10:14Z</time>
      </trkpt>
      <trkpt lat="43.53164" lon="2.73321">
        <ele>1031.8</ele>
        <time>2026-05-22T09:10:19Z</time>
      </trkpt>
      <trkpt lat="43.53164" lon="2.73321">
        <ele>1031.8</ele>
        <time>2026-05-22T09:10:24Z</time>
      </trkpt>
      <trkpt lat="43.53164" lon="2.73321">
        <ele>1031.8</ele>
        <time>2026-05-22T09:10:29Z</time>
      </trkpt>
      <trkpt lat="43.53164" lon="2.73321">
        <ele>1031.8</ele>
        <time>2026-05-22T09:10:34Z</time>
      </trkpt>
      <trkpt lat="43.53164" lon="2.73321">
        <ele>1031.8</ele>
        <time>2026-05-22T09:10:39Z</time>
      </trkpt>
      <trkpt lat="43.53158" lon="2.73328">
        <ele>1031.7</ele>
        <time>2026-05-22T09:10:44Z</time>
      </trkpt>
      <trkpt lat="43.53151" lon="2.73326">
        <ele>1032.1</ele>
        <time>2026-05-22T09:10:49Z</time>
      </trkpt>
      <trkpt lat="43.53142" lon="2.73325">
        <ele>1032.5</ele>
        <time>2026-05-22T09:10:54Z</time>
      </trkpt>
      <trkpt lat="43.53136" lon="2.73323">
        <ele>1032.8</ele>
        <time>2026-05-22T09:10:59Z</time>
      </trkpt>
      <trkpt lat="43.5313" lon="2.73323">
        <ele>1033.1</ele>
        <time>2026-05-22T09:11:04Z</time>
      </trkpt>
      <trkpt lat="43.53125" lon="2.73325">
        <ele>1033.2</ele>
        <time>2026-05-22T09:11:09Z</time>
      </trkpt>
      <trkpt lat="43.53119" lon="2.73327">
        <ele>1033.4</ele>
        <time>2026-05-22T09:11:14Z</time>
      </trkpt>
      <trkpt lat="43.53114" lon="2.73328">
        <ele>1033.6</ele>
        <time>2026-05-22T09:11:19Z</time>
      </trkpt>
      <trkpt lat="43.53109" lon="2.73331">
        <ele>1033.8</ele>
        <time>2026-05-22T09:11:24Z</time>
      </trkpt>
      <trkpt lat="43.53103" lon="2.73332">
        <ele>1034.1</ele>
        <time>2026-05-22T09:11:29Z</time>
      </trkpt>
      <trkpt lat="43.53096" lon="2.73334">
        <ele>1034.4</ele>
        <time>2026-05-22T09:11:34Z</time>
      </trkpt>
      <trkpt lat="43.53089" lon="2.73336">
        <ele>1034.7</ele>
        <time>2026-05-22T09:11:39Z</time>
      </trkpt>
      <trkpt lat="43.53082" lon="2.73338">
        <ele>1034.9</ele>
        <time>2026-05-22T09:11:44Z</time>
      </trkpt>
      <trkpt lat="43.53075" lon="2.73337">
        <ele>1034.8</ele>
        <time>2026-05-22T09:11:49Z</time>
      </trkpt>
      <trkpt lat="43.5307" lon="2.73338">
        <ele>1034.7</ele>
        <time>2026-05-22T09:11:54Z</time>
      </trkpt>
      <trkpt lat="43.53064" lon="2.73342">
        <ele>1034.6</ele>
        <time>2026-05-22T09:11:59Z</time>
      </trkpt>
      <trkpt lat="43.53059" lon="2.73345">
        <ele>1034.5</ele>
        <time>2026-05-22T09:12:04Z</time>
      </trkpt>
      <trkpt lat="43.53053" lon="2.73347">
        <ele>1034.4</ele>
        <time>2026-05-22T09:12:09Z</time>
      </trkpt>
      <trkpt lat="43.53045" lon="2.73352">
        <ele>1034.3</ele>
        <time>2026-05-22T09:12:14Z</time>
      </trkpt>
      <trkpt lat="43.5304" lon="2.73355">
        <ele>1034.2</ele>
        <time>2026-05-22T09:12:19Z</time>
      </trkpt>
      <trkpt lat="43.53034" lon="2.73357">
        <ele>1034.2</ele>
        <time>2026-05-22T09:12:24Z</time>
      </trkpt>
      <trkpt lat="43.53027" lon="2.73358">
        <ele>1034.1</ele>
        <time>2026-05-22T09:12:29Z</time>
      </trkpt>
      <trkpt lat="43.53021" lon="2.73358">
        <ele>1034.1</ele>
        <time>2026-05-22T09:12:34Z</time>
      </trkpt>
      <trkpt lat="43.53015" lon="2.73359">
        <ele>1034.1</ele>
        <time>2026-05-22T09:12:39Z</time>
      </trkpt>
      <trkpt lat="43.53009" lon="2.73362">
        <ele>1034</ele>
        <time>2026-05-22T09:12:44Z</time>
      </trkpt>
      <trkpt lat="43.53003" lon="2.73365">
        <ele>1034</ele>
        <time>2026-05-22T09:12:49Z</time>
      </trkpt>
      <trkpt lat="43.52998" lon="2.73368">
        <ele>1033.9</ele>
        <time>2026-05-22T09:12:54Z</time>
      </trkpt>
      <trkpt lat="43.52993" lon="2.73372">
        <ele>1033.8</ele>
        <time>2026-05-22T09:12:59Z</time>
      </trkpt>
      <trkpt lat="43.52986" lon="2.73376">
        <ele>1033.7</ele>
        <time>2026-05-22T09:13:04Z</time>
      </trkpt>
      <trkpt lat="43.52979" lon="2.73381">
        <ele>1033.5</ele>
        <time>2026-05-22T09:13:09Z</time>
      </trkpt>
      <trkpt lat="43.52972" lon="2.73386">
        <ele>1033.4</ele>
        <time>2026-05-22T09:13:14Z</time>
      </trkpt>
      <trkpt lat="43.52967" lon="2.7339">
        <ele>1033.4</ele>
        <time>2026-05-22T09:13:19Z</time>
      </trkpt>
      <trkpt lat="43.52962" lon="2.73394">
        <ele>1033.3</ele>
        <time>2026-05-22T09:13:24Z</time>
      </trkpt>
      <trkpt lat="43.52957" lon="2.73398">
        <ele>1033.3</ele>
        <time>2026-05-22T09:13:29Z</time>
      </trkpt>
      <trkpt lat="43.52951" lon="2.73405">
        <ele>1033.2</ele>
        <time>2026-05-22T09:13:34Z</time>
      </trkpt>
      <trkpt lat="43.52946" lon="2.73409">
        <ele>1033.2</ele>
        <time>2026-05-22T09:13:39Z</time>
      </trkpt>
      <trkpt lat="43.5294" lon="2.73413">
        <ele>1033.2</ele>
        <time>2026-05-22T09:13:44Z</time>
      </trkpt>
      <trkpt lat="43.52934" lon="2.73418">
        <ele>1033.2</ele>
        <time>2026-05-22T09:13:49Z</time>
      </trkpt>
      <trkpt lat="43.52929" lon="2.73424">
        <ele>1033.2</ele>
        <time>2026-05-22T09:13:54Z</time>
      </trkpt>
      <trkpt lat="43.52923" lon="2.73427">
        <ele>1033.1</ele>
        <time>2026-05-22T09:13:59Z</time>
      </trkpt>
      <trkpt lat="43.52917" lon="2.73433">
        <ele>1033</ele>
        <time>2026-05-22T09:14:04Z</time>
      </trkpt>
      <trkpt lat="43.52912" lon="2.73438">
        <ele>1033.1</ele>
        <time>2026-05-22T09:14:09Z</time>
      </trkpt>
      <trkpt lat="43.52904" lon="2.73444">
        <ele>1033.2</ele>
        <time>2026-05-22T09:14:14Z</time>
      </trkpt>
      <trkpt lat="43.52897" lon="2.73451">
        <ele>1033.3</ele>
        <time>2026-05-22T09:14:19Z</time>
      </trkpt>
      <trkpt lat="43.52893" lon="2.73453">
        <ele>1033.4</ele>
        <time>2026-05-22T09:14:24Z</time>
      </trkpt>
      <trkpt lat="43.52889" lon="2.73457">
        <ele>1033.5</ele>
        <time>2026-05-22T09:14:29Z</time>
      </trkpt>
      <trkpt lat="43.52887" lon="2.73458">
        <ele>1033.5</ele>
        <time>2026-05-22T09:14:34Z</time>
      </trkpt>
      <trkpt lat="43.52887" lon="2.73458">
        <ele>1033.5</ele>
        <time>2026-05-22T09:14:39Z</time>
      </trkpt>
      <trkpt lat="43.52887" lon="2.73458">
        <ele>1033.5</ele>
        <time>2026-05-22T09:14:44Z</time>
      </trkpt>
      <trkpt lat="43.52881" lon="2.73464">
        <ele>1033.7</ele>
        <time>2026-05-22T09:14:49Z</time>
      </trkpt>
      <trkpt lat="43.52877" lon="2.73467">
        <ele>1033.8</ele>
        <time>2026-05-22T09:14:54Z</time>
      </trkpt>
      <trkpt lat="43.52872" lon="2.7347">
        <ele>1033.9</ele>
        <time>2026-05-22T09:14:59Z</time>
      </trkpt>
      <trkpt lat="43.52867" lon="2.73473">
        <ele>1034</ele>
        <time>2026-05-22T09:15:04Z</time>
      </trkpt>
      <trkpt lat="43.52862" lon="2.73476">
        <ele>1034.1</ele>
        <time>2026-05-22T09:15:09Z</time>
      </trkpt>
      <trkpt lat="43.52857" lon="2.73481">
        <ele>1034.3</ele>
        <time>2026-05-22T09:15:14Z</time>
      </trkpt>
      <trkpt lat="43.52851" lon="2.73486">
        <ele>1034.4</ele>
        <time>2026-05-22T09:15:19Z</time>
      </trkpt>
      <trkpt lat="43.52846" lon="2.73491">
        <ele>1034.6</ele>
        <time>2026-05-22T09:15:24Z</time>
      </trkpt>
      <trkpt lat="43.52841" lon="2.73495">
        <ele>1034.8</ele>
        <time>2026-05-22T09:15:29Z</time>
      </trkpt>
      <trkpt lat="43.52836" lon="2.73498">
        <ele>1034.9</ele>
        <time>2026-05-22T09:15:34Z</time>
      </trkpt>
      <trkpt lat="43.5283" lon="2.73502">
        <ele>1034.8</ele>
        <time>2026-05-22T09:15:39Z</time>
      </trkpt>
      <trkpt lat="43.52825" lon="2.73508">
        <ele>1034.4</ele>
        <time>2026-05-22T09:15:44Z</time>
      </trkpt>
      <trkpt lat="43.5282" lon="2.73511">
        <ele>1034.1</ele>
        <time>2026-05-22T09:15:49Z</time>
      </trkpt>
      <trkpt lat="43.52816" lon="2.73514">
        <ele>1033.9</ele>
        <time>2026-05-22T09:15:54Z</time>
      </trkpt>
      <trkpt lat="43.52813" lon="2.73517">
        <ele>1033.7</ele>
        <time>2026-05-22T09:15:59Z</time>
      </trkpt>
      <trkpt lat="43.52808" lon="2.73521">
        <ele>1033.4</ele>
        <time>2026-05-22T09:16:04Z</time>
      </trkpt>
      <trkpt lat="43.52801" lon="2.73527">
        <ele>1032.9</ele>
        <time>2026-05-22T09:16:09Z</time>
      </trkpt>
      <trkpt lat="43.52795" lon="2.73534">
        <ele>1032.5</ele>
        <time>2026-05-22T09:16:14Z</time>
      </trkpt>
      <trkpt lat="43.5279" lon="2.73539">
        <ele>1032.2</ele>
        <time>2026-05-22T09:16:19Z</time>
      </trkpt>
      <trkpt lat="43.52784" lon="2.73545">
        <ele>1031.9</ele>
        <time>2026-05-22T09:16:24Z</time>
      </trkpt>
      <trkpt lat="43.52778" lon="2.7355">
        <ele>1031.5</ele>
        <time>2026-05-22T09:16:29Z</time>
      </trkpt>
      <trkpt lat="43.52772" lon="2.73554">
        <ele>1031.2</ele>
        <time>2026-05-22T09:16:34Z</time>
      </trkpt>
      <trkpt lat="43.52767" lon="2.73559">
        <ele>1031</ele>
        <time>2026-05-22T09:16:39Z</time>
      </trkpt>
      <trkpt lat="43.5276" lon="2.73563">
        <ele>1030.6</ele>
        <time>2026-05-22T09:16:44Z</time>
      </trkpt>
      <trkpt lat="43.52755" lon="2.73567">
        <ele>1030.4</ele>
        <time>2026-05-22T09:16:49Z</time>
      </trkpt>
      <trkpt lat="43.5275" lon="2.73571">
        <ele>1030.1</ele>
        <time>2026-05-22T09:16:54Z</time>
      </trkpt>
      <trkpt lat="43.52745" lon="2.73575">
        <ele>1029.8</ele>
        <time>2026-05-22T09:16:59Z</time>
      </trkpt>
      <trkpt lat="43.52739" lon="2.73579">
        <ele>1029.4</ele>
        <time>2026-05-22T09:17:04Z</time>
      </trkpt>
      <trkpt lat="43.52733" lon="2.73583">
        <ele>1029</ele>
        <time>2026-05-22T09:17:09Z</time>
      </trkpt>
      <trkpt lat="43.52726" lon="2.73587">
        <ele>1028.4</ele>
        <time>2026-05-22T09:17:14Z</time>
      </trkpt>
      <trkpt lat="43.52718" lon="2.73592">
        <ele>1027.7</ele>
        <time>2026-05-22T09:17:19Z</time>
      </trkpt>
      <trkpt lat="43.5271" lon="2.73595">
        <ele>1027.1</ele>
        <time>2026-05-22T09:17:24Z</time>
      </trkpt>
      <trkpt lat="43.52709" lon="2.73595">
        <ele>1027.1</ele>
        <time>2026-05-22T09:17:29Z</time>
      </trkpt>
      <trkpt lat="43.52704" lon="2.7359">
        <ele>1027</ele>
        <time>2026-05-22T09:17:34Z</time>
      </trkpt>
      <trkpt lat="43.52699" lon="2.73583">
        <ele>1026.9</ele>
        <time>2026-05-22T09:17:39Z</time>
      </trkpt>
      <trkpt lat="43.52694" lon="2.73578">
        <ele>1026.7</ele>
        <time>2026-05-22T09:17:44Z</time>
      </trkpt>
      <trkpt lat="43.52688" lon="2.73572">
        <ele>1026.3</ele>
        <time>2026-05-22T09:17:49Z</time>
      </trkpt>
      <trkpt lat="43.52682" lon="2.73568">
        <ele>1026</ele>
        <time>2026-05-22T09:17:54Z</time>
      </trkpt>
      <trkpt lat="43.52679" lon="2.73561">
        <ele>1025.8</ele>
        <time>2026-05-22T09:17:59Z</time>
      </trkpt>
      <trkpt lat="43.52674" lon="2.73556">
        <ele>1025.5</ele>
        <time>2026-05-22T09:18:04Z</time>
      </trkpt>
      <trkpt lat="43.52668" lon="2.73548">
        <ele>1025.1</ele>
        <time>2026-05-22T09:18:09Z</time>
      </trkpt>
      <trkpt lat="43.52663" lon="2.73543">
        <ele>1024.6</ele>
        <time>2026-05-22T09:18:14Z</time>
      </trkpt>
      <trkpt lat="43.52658" lon="2.73539">
        <ele>1024.2</ele>
        <time>2026-05-22T09:18:19Z</time>
      </trkpt>
      <trkpt lat="43.52654" lon="2.73533">
        <ele>1023.8</ele>
        <time>2026-05-22T09:18:24Z</time>
      </trkpt>
      <trkpt lat="43.52648" lon="2.73528">
        <ele>1023.2</ele>
        <time>2026-05-22T09:18:29Z</time>
      </trkpt>
      <trkpt lat="43.52643" lon="2.73523">
        <ele>1022.7</ele>
        <time>2026-05-22T09:18:34Z</time>
      </trkpt>
      <trkpt lat="43.52637" lon="2.73517">
        <ele>1022.2</ele>
        <time>2026-05-22T09:18:39Z</time>
      </trkpt>
      <trkpt lat="43.52632" lon="2.73513">
        <ele>1021.7</ele>
        <time>2026-05-22T09:18:44Z</time>
      </trkpt>
      <trkpt lat="43.52628" lon="2.73508">
        <ele>1021.3</ele>
        <time>2026-05-22T09:18:49Z</time>
      </trkpt>
      <trkpt lat="43.52624" lon="2.73502">
        <ele>1020.9</ele>
        <time>2026-05-22T09:18:54Z</time>
      </trkpt>
      <trkpt lat="43.52617" lon="2.73494">
        <ele>1020.3</ele>
        <time>2026-05-22T09:18:59Z</time>
      </trkpt>
      <trkpt lat="43.52607" lon="2.73486">
        <ele>1019.5</ele>
        <time>2026-05-22T09:19:04Z</time>
      </trkpt>
      <trkpt lat="43.52602" lon="2.73478">
        <ele>1019.2</ele>
        <time>2026-05-22T09:19:09Z</time>
      </trkpt>
      <trkpt lat="43.52596" lon="2.73471">
        <ele>1018.8</ele>
        <time>2026-05-22T09:19:14Z</time>
      </trkpt>
      <trkpt lat="43.52594" lon="2.73466">
        <ele>1018.7</ele>
        <time>2026-05-22T09:19:19Z</time>
      </trkpt>
      <trkpt lat="43.52589" lon="2.73461">
        <ele>1018.4</ele>
        <time>2026-05-22T09:19:24Z</time>
      </trkpt>
      <trkpt lat="43.52584" lon="2.7345">
        <ele>1018.3</ele>
        <time>2026-05-22T09:19:29Z</time>
      </trkpt>
      <trkpt lat="43.52577" lon="2.73442">
        <ele>1015.9</ele>
        <time>2026-05-22T09:19:34Z</time>
      </trkpt>
      <trkpt lat="43.52575" lon="2.73438">
        <ele>1015.2</ele>
        <time>2026-05-22T09:19:39Z</time>
      </trkpt>
      <trkpt lat="43.52576" lon="2.73427">
        <ele>1015.8</ele>
        <time>2026-05-22T09:19:44Z</time>
      </trkpt>
      <trkpt lat="43.52579" lon="2.73419">
        <ele>1017.2</ele>
        <time>2026-05-22T09:19:49Z</time>
      </trkpt>
      <trkpt lat="43.52582" lon="2.73413">
        <ele>1018.6</ele>
        <time>2026-05-22T09:19:54Z</time>
      </trkpt>
      <trkpt lat="43.52585" lon="2.73407">
        <ele>1019.5</ele>
        <time>2026-05-22T09:19:59Z</time>
      </trkpt>
      <trkpt lat="43.52587" lon="2.73402">
        <ele>1019.8</ele>
        <time>2026-05-22T09:20:04Z</time>
      </trkpt>
      <trkpt lat="43.52589" lon="2.73396">
        <ele>1020.2</ele>
        <time>2026-05-22T09:20:09Z</time>
      </trkpt>
      <trkpt lat="43.52591" lon="2.73391">
        <ele>1020.5</ele>
        <time>2026-05-22T09:20:14Z</time>
      </trkpt>
      <trkpt lat="43.52594" lon="2.73385">
        <ele>1021</ele>
        <time>2026-05-22T09:20:19Z</time>
      </trkpt>
      <trkpt lat="43.52596" lon="2.73381">
        <ele>1021.3</ele>
        <time>2026-05-22T09:20:24Z</time>
      </trkpt>
      <trkpt lat="43.52599" lon="2.73376">
        <ele>1021.7</ele>
        <time>2026-05-22T09:20:29Z</time>
      </trkpt>
      <trkpt lat="43.52604" lon="2.7337">
        <ele>1022.3</ele>
        <time>2026-05-22T09:20:34Z</time>
      </trkpt>
      <trkpt lat="43.52609" lon="2.73362">
        <ele>1023</ele>
        <time>2026-05-22T09:20:39Z</time>
      </trkpt>
      <trkpt lat="43.52614" lon="2.73355">
        <ele>1023.7</ele>
        <time>2026-05-22T09:20:44Z</time>
      </trkpt>
      <trkpt lat="43.52619" lon="2.73349">
        <ele>1024.4</ele>
        <time>2026-05-22T09:20:49Z</time>
      </trkpt>
      <trkpt lat="43.52623" lon="2.7334">
        <ele>1025.1</ele>
        <time>2026-05-22T09:20:54Z</time>
      </trkpt>
      <trkpt lat="43.52627" lon="2.73333">
        <ele>1025.7</ele>
        <time>2026-05-22T09:20:59Z</time>
      </trkpt>
      <trkpt lat="43.52632" lon="2.73326">
        <ele>1026.5</ele>
        <time>2026-05-22T09:21:04Z</time>
      </trkpt>
      <trkpt lat="43.52635" lon="2.73321">
        <ele>1027.1</ele>
        <time>2026-05-22T09:21:09Z</time>
      </trkpt>
      <trkpt lat="43.52642" lon="2.7331">
        <ele>1028.4</ele>
        <time>2026-05-22T09:21:14Z</time>
      </trkpt>
      <trkpt lat="43.52646" lon="2.73302">
        <ele>1029.2</ele>
        <time>2026-05-22T09:21:19Z</time>
      </trkpt>
      <trkpt lat="43.5265" lon="2.73293">
        <ele>1030.2</ele>
        <time>2026-05-22T09:21:24Z</time>
      </trkpt>
      <trkpt lat="43.52653" lon="2.73286">
        <ele>1031</ele>
        <time>2026-05-22T09:21:29Z</time>
      </trkpt>
      <trkpt lat="43.52657" lon="2.73279">
        <ele>1031.9</ele>
        <time>2026-05-22T09:21:34Z</time>
      </trkpt>
      <trkpt lat="43.52661" lon="2.73273">
        <ele>1032.7</ele>
        <time>2026-05-22T09:21:39Z</time>
      </trkpt>
      <trkpt lat="43.52662" lon="2.73265">
        <ele>1033.4</ele>
        <time>2026-05-22T09:21:44Z</time>
      </trkpt>
      <trkpt lat="43.52663" lon="2.73254">
        <ele>1034.3</ele>
        <time>2026-05-22T09:21:49Z</time>
      </trkpt>
      <trkpt lat="43.52662" lon="2.73245">
        <ele>1034.5</ele>
        <time>2026-05-22T09:21:54Z</time>
      </trkpt>
      <trkpt lat="43.5266" lon="2.73235">
        <ele>1034.5</ele>
        <time>2026-05-22T09:21:59Z</time>
      </trkpt>
      <trkpt lat="43.52659" lon="2.73227">
        <ele>1034.5</ele>
        <time>2026-05-22T09:22:04Z</time>
      </trkpt>
      <trkpt lat="43.52658" lon="2.73219">
        <ele>1034.5</ele>
        <time>2026-05-22T09:22:09Z</time>
      </trkpt>
      <trkpt lat="43.52657" lon="2.73212">
        <ele>1034.5</ele>
        <time>2026-05-22T09:22:14Z</time>
      </trkpt>
      <trkpt lat="43.52655" lon="2.73205">
        <ele>1034.3</ele>
        <time>2026-05-22T09:22:19Z</time>
      </trkpt>
      <trkpt lat="43.52654" lon="2.73197">
        <ele>1034.3</ele>
        <time>2026-05-22T09:22:24Z</time>
      </trkpt>
      <trkpt lat="43.52654" lon="2.7319">
        <ele>1034.4</ele>
        <time>2026-05-22T09:22:29Z</time>
      </trkpt>
      <trkpt lat="43.52652" lon="2.73184">
        <ele>1034.1</ele>
        <time>2026-05-22T09:22:34Z</time>
      </trkpt>
      <trkpt lat="43.52652" lon="2.73177">
        <ele>1034.2</ele>
        <time>2026-05-22T09:22:39Z</time>
      </trkpt>
      <trkpt lat="43.52652" lon="2.7317">
        <ele>1034.3</ele>
        <time>2026-05-22T09:22:44Z</time>
      </trkpt>
      <trkpt lat="43.52652" lon="2.7316">
        <ele>1034.3</ele>
        <time>2026-05-22T09:22:49Z</time>
      </trkpt>
      <trkpt lat="43.52651" lon="2.73151">
        <ele>1034.1</ele>
        <time>2026-05-22T09:22:54Z</time>
      </trkpt>
      <trkpt lat="43.5265" lon="2.7314">
        <ele>1033.9</ele>
        <time>2026-05-22T09:22:59Z</time>
      </trkpt>
      <trkpt lat="43.52651" lon="2.73131">
        <ele>1034</ele>
        <time>2026-05-22T09:23:04Z</time>
      </trkpt>
      <trkpt lat="43.52649" lon="2.73123">
        <ele>1033.6</ele>
        <time>2026-05-22T09:23:09Z</time>
      </trkpt>
      <trkpt lat="43.52649" lon="2.73115">
        <ele>1033.6</ele>
        <time>2026-05-22T09:23:14Z</time>
      </trkpt>
      <trkpt lat="43.5265" lon="2.73105">
        <ele>1033.7</ele>
        <time>2026-05-22T09:23:19Z</time>
      </trkpt>
      <trkpt lat="43.52649" lon="2.73095">
        <ele>1033.5</ele>
        <time>2026-05-22T09:23:24Z</time>
      </trkpt>
      <trkpt lat="43.5265" lon="2.73084">
        <ele>1033.6</ele>
        <time>2026-05-22T09:23:29Z</time>
      </trkpt>
      <trkpt lat="43.52649" lon="2.73074">
        <ele>1032.7</ele>
        <time>2026-05-22T09:23:34Z</time>
      </trkpt>
      <trkpt lat="43.52649" lon="2.73064">
        <ele>1032</ele>
        <time>2026-05-22T09:23:39Z</time>
      </trkpt>
      <trkpt lat="43.52648" lon="2.73054">
        <ele>1031</ele>
        <time>2026-05-22T09:23:44Z</time>
      </trkpt>
      <trkpt lat="43.52645" lon="2.73043">
        <ele>1029.7</ele>
        <time>2026-05-22T09:23:49Z</time>
      </trkpt>
      <trkpt lat="43.52645" lon="2.73033">
        <ele>1029</ele>
        <time>2026-05-22T09:23:54Z</time>
      </trkpt>
      <trkpt lat="43.52645" lon="2.73022">
        <ele>1028.2</ele>
        <time>2026-05-22T09:23:59Z</time>
      </trkpt>
      <trkpt lat="43.52643" lon="2.73012">
        <ele>1027.2</ele>
        <time>2026-05-22T09:24:04Z</time>
      </trkpt>
      <trkpt lat="43.52642" lon="2.73001">
        <ele>1026.2</ele>
        <time>2026-05-22T09:24:09Z</time>
      </trkpt>
      <trkpt lat="43.52643" lon="2.72992">
        <ele>1025.9</ele>
        <time>2026-05-22T09:24:14Z</time>
      </trkpt>
      <trkpt lat="43.52643" lon="2.72983">
        <ele>1025.5</ele>
        <time>2026-05-22T09:24:19Z</time>
      </trkpt>
      <trkpt lat="43.52642" lon="2.72973">
        <ele>1024.9</ele>
        <time>2026-05-22T09:24:24Z</time>
      </trkpt>
      <trkpt lat="43.5264" lon="2.72964">
        <ele>1024.2</ele>
        <time>2026-05-22T09:24:29Z</time>
      </trkpt>
      <trkpt lat="43.52639" lon="2.72955">
        <ele>1023.7</ele>
        <time>2026-05-22T09:24:34Z</time>
      </trkpt>
      <trkpt lat="43.52638" lon="2.72945">
        <ele>1023.1</ele>
        <time>2026-05-22T09:24:39Z</time>
      </trkpt>
      <trkpt lat="43.52638" lon="2.72935">
        <ele>1022.7</ele>
        <time>2026-05-22T09:24:44Z</time>
      </trkpt>
      <trkpt lat="43.52637" lon="2.72926">
        <ele>1022.2</ele>
        <time>2026-05-22T09:24:49Z</time>
      </trkpt>
      <trkpt lat="43.52638" lon="2.72917">
        <ele>1021.9</ele>
        <time>2026-05-22T09:24:54Z</time>
      </trkpt>
      <trkpt lat="43.52637" lon="2.72908">
        <ele>1021.8</ele>
        <time>2026-05-22T09:24:59Z</time>
      </trkpt>
      <trkpt lat="43.52634" lon="2.72898">
        <ele>1021.6</ele>
        <time>2026-05-22T09:25:04Z</time>
      </trkpt>
      <trkpt lat="43.52633" lon="2.72887">
        <ele>1021.5</ele>
        <time>2026-05-22T09:25:09Z</time>
      </trkpt>
      <trkpt lat="43.52633" lon="2.72877">
        <ele>1021.6</ele>
        <time>2026-05-22T09:25:14Z</time>
      </trkpt>
      <trkpt lat="43.52631" lon="2.72868">
        <ele>1021.4</ele>
        <time>2026-05-22T09:25:19Z</time>
      </trkpt>
      <trkpt lat="43.5263" lon="2.72857">
        <ele>1021.4</ele>
        <time>2026-05-22T09:25:24Z</time>
      </trkpt>
      <trkpt lat="43.52627" lon="2.72848">
        <ele>1021.1</ele>
        <time>2026-05-22T09:25:29Z</time>
      </trkpt>
      <trkpt lat="43.52626" lon="2.72835">
        <ele>1021.1</ele>
        <time>2026-05-22T09:25:34Z</time>
      </trkpt>
      <trkpt lat="43.52624" lon="2.72823">
        <ele>1020.8</ele>
        <time>2026-05-22T09:25:39Z</time>
      </trkpt>
      <trkpt lat="43.52622" lon="2.72814">
        <ele>1020.5</ele>
        <time>2026-05-22T09:25:44Z</time>
      </trkpt>
      <trkpt lat="43.52623" lon="2.72805">
        <ele>1020.5</ele>
        <time>2026-05-22T09:25:49Z</time>
      </trkpt>
      <trkpt lat="43.52623" lon="2.72794">
        <ele>1020.4</ele>
        <time>2026-05-22T09:25:54Z</time>
      </trkpt>
      <trkpt lat="43.52623" lon="2.72785">
        <ele>1020.3</ele>
        <time>2026-05-22T09:25:59Z</time>
      </trkpt>
      <trkpt lat="43.52622" lon="2.72776">
        <ele>1020.1</ele>
        <time>2026-05-22T09:26:04Z</time>
      </trkpt>
      <trkpt lat="43.5262" lon="2.72769">
        <ele>1019.9</ele>
        <time>2026-05-22T09:26:09Z</time>
      </trkpt>
      <trkpt lat="43.52622" lon="2.72758">
        <ele>1019.9</ele>
        <time>2026-05-22T09:26:14Z</time>
      </trkpt>
      <trkpt lat="43.52622" lon="2.72746">
        <ele>1019.6</ele>
        <time>2026-05-22T09:26:19Z</time>
      </trkpt>
      <trkpt lat="43.52622" lon="2.72737">
        <ele>1019.1</ele>
        <time>2026-05-22T09:26:24Z</time>
      </trkpt>
      <trkpt lat="43.52621" lon="2.72727">
        <ele>1018.4</ele>
        <time>2026-05-22T09:26:29Z</time>
      </trkpt>
      <trkpt lat="43.52621" lon="2.72716">
        <ele>1017.7</ele>
        <time>2026-05-22T09:26:34Z</time>
      </trkpt>
      <trkpt lat="43.5262" lon="2.72708">
        <ele>1017.2</ele>
        <time>2026-05-22T09:26:39Z</time>
      </trkpt>
      <trkpt lat="43.52622" lon="2.72698">
        <ele>1016.7</ele>
        <time>2026-05-22T09:26:44Z</time>
      </trkpt>
      <trkpt lat="43.52622" lon="2.72685">
        <ele>1015.9</ele>
        <time>2026-05-22T09:26:49Z</time>
      </trkpt>
      <trkpt lat="43.5262" lon="2.72674">
        <ele>1015.1</ele>
        <time>2026-05-22T09:26:54Z</time>
      </trkpt>
      <trkpt lat="43.5262" lon="2.72665">
        <ele>1014.6</ele>
        <time>2026-05-22T09:26:59Z</time>
      </trkpt>
      <trkpt lat="43.5262" lon="2.72656">
        <ele>1014.1</ele>
        <time>2026-05-22T09:27:04Z</time>
      </trkpt>
      <trkpt lat="43.52621" lon="2.72649">
        <ele>1013.9</ele>
        <time>2026-05-22T09:27:09Z</time>
      </trkpt>
      <trkpt lat="43.52621" lon="2.7264">
        <ele>1013.4</ele>
        <time>2026-05-22T09:27:14Z</time>
      </trkpt>
      <trkpt lat="43.52622" lon="2.72632">
        <ele>1013.1</ele>
        <time>2026-05-22T09:27:19Z</time>
      </trkpt>
      <trkpt lat="43.52621" lon="2.72618">
        <ele>1012.4</ele>
        <time>2026-05-22T09:27:24Z</time>
      </trkpt>
      <trkpt lat="43.5262" lon="2.72607">
        <ele>1011.8</ele>
        <time>2026-05-22T09:27:29Z</time>
      </trkpt>
      <trkpt lat="43.52619" lon="2.726">
        <ele>1011.4</ele>
        <time>2026-05-22T09:27:34Z</time>
      </trkpt>
      <trkpt lat="43.52617" lon="2.72592">
        <ele>1010.8</ele>
        <time>2026-05-22T09:27:39Z</time>
      </trkpt>
      <trkpt lat="43.52615" lon="2.72583">
        <ele>1010.3</ele>
        <time>2026-05-22T09:27:44Z</time>
      </trkpt>
      <trkpt lat="43.52615" lon="2.72569">
        <ele>1010.5</ele>
        <time>2026-05-22T09:27:49Z</time>
      </trkpt>
      <trkpt lat="43.52613" lon="2.72554">
        <ele>1010.5</ele>
        <time>2026-05-22T09:27:54Z</time>
      </trkpt>
      <trkpt lat="43.52611" lon="2.72553">
        <ele>1010.4</ele>
        <time>2026-05-22T09:27:59Z</time>
      </trkpt>
      <trkpt lat="43.52611" lon="2.72553">
        <ele>1010.4</ele>
        <time>2026-05-22T09:28:04Z</time>
      </trkpt>
      <trkpt lat="43.52611" lon="2.72553">
        <ele>1010.4</ele>
        <time>2026-05-22T09:28:09Z</time>
      </trkpt>
      <trkpt lat="43.52611" lon="2.72553">
        <ele>1010.4</ele>
        <time>2026-05-22T09:28:14Z</time>
      </trkpt>
      <trkpt lat="43.52609" lon="2.72551">
        <ele>1010.2</ele>
        <time>2026-05-22T09:28:19Z</time>
      </trkpt>
      <trkpt lat="43.52607" lon="2.72547">
        <ele>1010.1</ele>
        <time>2026-05-22T09:28:24Z</time>
      </trkpt>
      <trkpt lat="43.52606" lon="2.72542">
        <ele>1010.1</ele>
        <time>2026-05-22T09:28:29Z</time>
      </trkpt>
      <trkpt lat="43.52603" lon="2.72534">
        <ele>1010</ele>
        <time>2026-05-22T09:28:34Z</time>
      </trkpt>
      <trkpt lat="43.52603" lon="2.72529">
        <ele>1010.1</ele>
        <time>2026-05-22T09:28:39Z</time>
      </trkpt>
      <trkpt lat="43.52602" lon="2.72522">
        <ele>1010.1</ele>
        <time>2026-05-22T09:28:44Z</time>
      </trkpt>
      <trkpt lat="43.52599" lon="2.72516">
        <ele>1009.9</ele>
        <time>2026-05-22T09:28:49Z</time>
      </trkpt>
      <trkpt lat="43.52599" lon="2.72505">
        <ele>1010.1</ele>
        <time>2026-05-22T09:28:54Z</time>
      </trkpt>
      <trkpt lat="43.52597" lon="2.72496">
        <ele>1010.5</ele>
        <time>2026-05-22T09:28:59Z</time>
      </trkpt>
      <trkpt lat="43.52596" lon="2.72489">
        <ele>1011.2</ele>
        <time>2026-05-22T09:29:04Z</time>
      </trkpt>
      <trkpt lat="43.52595" lon="2.72484">
        <ele>1011.7</ele>
        <time>2026-05-22T09:29:09Z</time>
      </trkpt>
      <trkpt lat="43.52597" lon="2.72474">
        <ele>1013.1</ele>
        <time>2026-05-22T09:29:14Z</time>
      </trkpt>
      <trkpt lat="43.52596" lon="2.72464">
        <ele>1014.2</ele>
        <time>2026-05-22T09:29:19Z</time>
      </trkpt>
      <trkpt lat="43.52593" lon="2.72457">
        <ele>1014.8</ele>
        <time>2026-05-22T09:29:24Z</time>
      </trkpt>
      <trkpt lat="43.52592" lon="2.72449">
        <ele>1015.7</ele>
        <time>2026-05-22T09:29:29Z</time>
      </trkpt>
      <trkpt lat="43.52591" lon="2.72442">
        <ele>1016.4</ele>
        <time>2026-05-22T09:29:34Z</time>
      </trkpt>
      <trkpt lat="43.52591" lon="2.72436">
        <ele>1017.2</ele>
        <time>2026-05-22T09:29:39Z</time>
      </trkpt>
      <trkpt lat="43.52591" lon="2.72434">
        <ele>1017.4</ele>
        <time>2026-05-22T09:29:44Z</time>
      </trkpt>
      <trkpt lat="43.52591" lon="2.72434">
        <ele>1017.4</ele>
        <time>2026-05-22T09:29:49Z</time>
      </trkpt>
      <trkpt lat="43.52593" lon="2.72424">
        <ele>1018.7</ele>
        <time>2026-05-22T09:29:54Z</time>
      </trkpt>
      <trkpt lat="43.52592" lon="2.72419">
        <ele>1019.2</ele>
        <time>2026-05-22T09:29:59Z</time>
      </trkpt>
      <trkpt lat="43.52592" lon="2.72413">
        <ele>1019.7</ele>
        <time>2026-05-22T09:30:04Z</time>
      </trkpt>
      <trkpt lat="43.5259" lon="2.72411">
        <ele>1019.7</ele>
        <time>2026-05-22T09:30:09Z</time>
      </trkpt>
      <trkpt lat="43.52588" lon="2.72406">
        <ele>1019.9</ele>
        <time>2026-05-22T09:30:14Z</time>
      </trkpt>
      <trkpt lat="43.52588" lon="2.72406">
        <ele>1019.9</ele>
        <time>2026-05-22T09:30:19Z</time>
      </trkpt>
      <trkpt lat="43.52588" lon="2.72406">
        <ele>1019.9</ele>
        <time>2026-05-22T09:30:24Z</time>
      </trkpt>
      <trkpt lat="43.52588" lon="2.72406">
        <ele>1019.9</ele>
        <time>2026-05-22T09:30:29Z</time>
      </trkpt>
      <trkpt lat="43.52588" lon="2.72406">
        <ele>1019.9</ele>
        <time>2026-05-22T09:30:34Z</time>
      </trkpt>
      <trkpt lat="43.52583" lon="2.72393">
        <ele>1020.4</ele>
        <time>2026-05-22T09:30:39Z</time>
      </trkpt>
      <trkpt lat="43.52583" lon="2.72393">
        <ele>1020.4</ele>
        <time>2026-05-22T09:30:44Z</time>
      </trkpt>
      <trkpt lat="43.52583" lon="2.72393">
        <ele>1020.4</ele>
        <time>2026-05-22T09:30:49Z</time>
      </trkpt>
      <trkpt lat="43.52583" lon="2.72393">
        <ele>1020.4</ele>
        <time>2026-05-22T09:30:54Z</time>
      </trkpt>
      <trkpt lat="43.52579" lon="2.72379">
        <ele>1021</ele>
        <time>2026-05-22T09:30:59Z</time>
      </trkpt>
      <trkpt lat="43.52576" lon="2.72377">
        <ele>1020.9</ele>
        <time>2026-05-22T09:31:04Z</time>
      </trkpt>
      <trkpt lat="43.52573" lon="2.72374">
        <ele>1020.9</ele>
        <time>2026-05-22T09:31:09Z</time>
      </trkpt>
      <trkpt lat="43.5257" lon="2.72371">
        <ele>1020.9</ele>
        <time>2026-05-22T09:31:14Z</time>
      </trkpt>
      <trkpt lat="43.52568" lon="2.72365">
        <ele>1021.2</ele>
        <time>2026-05-22T09:31:19Z</time>
      </trkpt>
      <trkpt lat="43.52568" lon="2.72359">
        <ele>1021.5</ele>
        <time>2026-05-22T09:31:24Z</time>
      </trkpt>
      <trkpt lat="43.52569" lon="2.72353">
        <ele>1022</ele>
        <time>2026-05-22T09:31:29Z</time>
      </trkpt>
      <trkpt lat="43.5257" lon="2.72347">
        <ele>1022.4</ele>
        <time>2026-05-22T09:31:34Z</time>
      </trkpt>
      <trkpt lat="43.5257" lon="2.72344">
        <ele>1022.6</ele>
        <time>2026-05-22T09:31:39Z</time>
      </trkpt>
      <trkpt lat="43.52568" lon="2.72349">
        <ele>1022.1</ele>
        <time>2026-05-22T09:31:44Z</time>
      </trkpt>
      <trkpt lat="43.52568" lon="2.72349">
        <ele>1022.1</ele>
        <time>2026-05-22T09:31:49Z</time>
      </trkpt>
      <trkpt lat="43.52565" lon="2.72354">
        <ele>1021.7</ele>
        <time>2026-05-22T09:31:54Z</time>
      </trkpt>
      <trkpt lat="43.52566" lon="2.72362">
        <ele>1021.2</ele>
        <time>2026-05-22T09:31:59Z</time>
      </trkpt>
      <trkpt lat="43.52567" lon="2.72369">
        <ele>1020.9</ele>
        <time>2026-05-22T09:32:04Z</time>
      </trkpt>
      <trkpt lat="43.52564" lon="2.72374">
        <ele>1020.4</ele>
        <time>2026-05-22T09:32:09Z</time>
      </trkpt>
      <trkpt lat="43.52559" lon="2.72376">
        <ele>1020</ele>
        <time>2026-05-22T09:32:14Z</time>
      </trkpt>
      <trkpt lat="43.52553" lon="2.72378">
        <ele>1019.5</ele>
        <time>2026-05-22T09:32:19Z</time>
      </trkpt>
      <trkpt lat="43.52545" lon="2.72379">
        <ele>1019</ele>
        <time>2026-05-22T09:32:24Z</time>
      </trkpt>
      <trkpt lat="43.52539" lon="2.72383">
        <ele>1018.4</ele>
        <time>2026-05-22T09:32:29Z</time>
      </trkpt>
      <trkpt lat="43.52533" lon="2.72385">
        <ele>1017.9</ele>
        <time>2026-05-22T09:32:34Z</time>
      </trkpt>
      <trkpt lat="43.52526" lon="2.72388">
        <ele>1017.3</ele>
        <time>2026-05-22T09:32:39Z</time>
      </trkpt>
      <trkpt lat="43.52518" lon="2.72388">
        <ele>1016.8</ele>
        <time>2026-05-22T09:32:44Z</time>
      </trkpt>
      <trkpt lat="43.52513" lon="2.72388">
        <ele>1016.5</ele>
        <time>2026-05-22T09:32:49Z</time>
      </trkpt>
      <trkpt lat="43.52507" lon="2.72388">
        <ele>1016.1</ele>
        <time>2026-05-22T09:32:54Z</time>
      </trkpt>
      <trkpt lat="43.52501" lon="2.72385">
        <ele>1016</ele>
        <time>2026-05-22T09:32:59Z</time>
      </trkpt>
      <trkpt lat="43.52496" lon="2.72383">
        <ele>1015.6</ele>
        <time>2026-05-22T09:33:04Z</time>
      </trkpt>
      <trkpt lat="43.5249" lon="2.72381">
        <ele>1015.2</ele>
        <time>2026-05-22T09:33:09Z</time>
      </trkpt>
      <trkpt lat="43.52484" lon="2.72376">
        <ele>1015</ele>
        <time>2026-05-22T09:33:14Z</time>
      </trkpt>
      <trkpt lat="43.52478" lon="2.7237">
        <ele>1014.9</ele>
        <time>2026-05-22T09:33:19Z</time>
      </trkpt>
      <trkpt lat="43.52473" lon="2.72364">
        <ele>1014.9</ele>
        <time>2026-05-22T09:33:24Z</time>
      </trkpt>
      <trkpt lat="43.52469" lon="2.72357">
        <ele>1015</ele>
        <time>2026-05-22T09:33:29Z</time>
      </trkpt>
      <trkpt lat="43.52467" lon="2.72347">
        <ele>1015.6</ele>
        <time>2026-05-22T09:33:34Z</time>
      </trkpt>
      <trkpt lat="43.52462" lon="2.72341">
        <ele>1015.7</ele>
        <time>2026-05-22T09:33:39Z</time>
      </trkpt>
      <trkpt lat="43.52458" lon="2.72335">
        <ele>1015.8</ele>
        <time>2026-05-22T09:33:44Z</time>
      </trkpt>
      <trkpt lat="43.52453" lon="2.72328">
        <ele>1015.7</ele>
        <time>2026-05-22T09:33:49Z</time>
      </trkpt>
      <trkpt lat="43.52446" lon="2.72323">
        <ele>1015.3</ele>
        <time>2026-05-22T09:33:54Z</time>
      </trkpt>
      <trkpt lat="43.52441" lon="2.72318">
        <ele>1015</ele>
        <time>2026-05-22T09:33:59Z</time>
      </trkpt>
      <trkpt lat="43.52437" lon="2.72311">
        <ele>1014.9</ele>
        <time>2026-05-22T09:34:04Z</time>
      </trkpt>
      <trkpt lat="43.52433" lon="2.72304">
        <ele>1014.7</ele>
        <time>2026-05-22T09:34:09Z</time>
      </trkpt>
      <trkpt lat="43.52429" lon="2.72298">
        <ele>1014.6</ele>
        <time>2026-05-22T09:34:14Z</time>
      </trkpt>
      <trkpt lat="43.52422" lon="2.72292">
        <ele>1014.3</ele>
        <time>2026-05-22T09:34:19Z</time>
      </trkpt>
      <trkpt lat="43.52416" lon="2.72287">
        <ele>1014.1</ele>
        <time>2026-05-22T09:34:24Z</time>
      </trkpt>
      <trkpt lat="43.52409" lon="2.72285">
        <ele>1013.6</ele>
        <time>2026-05-22T09:34:29Z</time>
      </trkpt>
      <trkpt lat="43.524" lon="2.72288">
        <ele>1012.8</ele>
        <time>2026-05-22T09:34:34Z</time>
      </trkpt>
      <trkpt lat="43.52392" lon="2.7229">
        <ele>1012.1</ele>
        <time>2026-05-22T09:34:39Z</time>
      </trkpt>
      <trkpt lat="43.52386" lon="2.72291">
        <ele>1011.6</ele>
        <time>2026-05-22T09:34:44Z</time>
      </trkpt>
      <trkpt lat="43.52379" lon="2.72295">
        <ele>1011</ele>
        <time>2026-05-22T09:34:49Z</time>
      </trkpt>
      <trkpt lat="43.52373" lon="2.72294">
        <ele>1010.5</ele>
        <time>2026-05-22T09:34:54Z</time>
      </trkpt>
      <trkpt lat="43.52367" lon="2.72295">
        <ele>1010</ele>
        <time>2026-05-22T09:34:59Z</time>
      </trkpt>
      <trkpt lat="43.52361" lon="2.72295">
        <ele>1009.6</ele>
        <time>2026-05-22T09:35:04Z</time>
      </trkpt>
      <trkpt lat="43.52355" lon="2.72295">
        <ele>1009.1</ele>
        <time>2026-05-22T09:35:09Z</time>
      </trkpt>
      <trkpt lat="43.52344" lon="2.72295">
        <ele>1008.2</ele>
        <time>2026-05-22T09:35:14Z</time>
      </trkpt>
      <trkpt lat="43.52336" lon="2.72296">
        <ele>1007.6</ele>
        <time>2026-05-22T09:35:19Z</time>
      </trkpt>
      <trkpt lat="43.52329" lon="2.72297">
        <ele>1007.1</ele>
        <time>2026-05-22T09:35:24Z</time>
      </trkpt>
      <trkpt lat="43.52324" lon="2.72298">
        <ele>1006.8</ele>
        <time>2026-05-22T09:35:29Z</time>
      </trkpt>
      <trkpt lat="43.52318" lon="2.72296">
        <ele>1006.5</ele>
        <time>2026-05-22T09:35:34Z</time>
      </trkpt>
      <trkpt lat="43.52313" lon="2.72294">
        <ele>1006.3</ele>
        <time>2026-05-22T09:35:39Z</time>
      </trkpt>
      <trkpt lat="43.52308" lon="2.72294">
        <ele>1006</ele>
        <time>2026-05-22T09:35:44Z</time>
      </trkpt>
      <trkpt lat="43.52304" lon="2.72293">
        <ele>1005.9</ele>
        <time>2026-05-22T09:35:49Z</time>
      </trkpt>
      <trkpt lat="43.52299" lon="2.72294">
        <ele>1005.6</ele>
        <time>2026-05-22T09:35:54Z</time>
      </trkpt>
      <trkpt lat="43.52294" lon="2.72294">
        <ele>1005.3</ele>
        <time>2026-05-22T09:35:59Z</time>
      </trkpt>
      <trkpt lat="43.52287" lon="2.72294">
        <ele>1004.9</ele>
        <time>2026-05-22T09:36:04Z</time>
      </trkpt>
      <trkpt lat="43.52282" lon="2.72296">
        <ele>1004.5</ele>
        <time>2026-05-22T09:36:09Z</time>
      </trkpt>
      <trkpt lat="43.52276" lon="2.723">
        <ele>1004</ele>
        <time>2026-05-22T09:36:14Z</time>
      </trkpt>
      <trkpt lat="43.5227" lon="2.72303">
        <ele>1003.6</ele>
        <time>2026-05-22T09:36:19Z</time>
      </trkpt>
      <trkpt lat="43.52265" lon="2.72305">
        <ele>1003.2</ele>
        <time>2026-05-22T09:36:24Z</time>
      </trkpt>
      <trkpt lat="43.5226" lon="2.72306">
        <ele>1002.9</ele>
        <time>2026-05-22T09:36:29Z</time>
      </trkpt>
      <trkpt lat="43.52254" lon="2.72308">
        <ele>1002.4</ele>
        <time>2026-05-22T09:36:34Z</time>
      </trkpt>
      <trkpt lat="43.52248" lon="2.72311">
        <ele>1002</ele>
        <time>2026-05-22T09:36:39Z</time>
      </trkpt>
      <trkpt lat="43.52247" lon="2.72311">
        <ele>1001.9</ele>
        <time>2026-05-22T09:36:44Z</time>
      </trkpt>
      <trkpt lat="43.52249" lon="2.7231">
        <ele>1002.1</ele>
        <time>2026-05-22T09:36:49Z</time>
      </trkpt>
      <trkpt lat="43.52253" lon="2.72309">
        <ele>1002.3</ele>
        <time>2026-05-22T09:36:54Z</time>
      </trkpt>
      <trkpt lat="43.52258" lon="2.72308">
        <ele>1002.7</ele>
        <time>2026-05-22T09:36:59Z</time>
      </trkpt>
      <trkpt lat="43.52262" lon="2.72307">
        <ele>1002.9</ele>
        <time>2026-05-22T09:37:04Z</time>
      </trkpt>
      <trkpt lat="43.52264" lon="2.72305">
        <ele>1003.1</ele>
        <time>2026-05-22T09:37:09Z</time>
      </trkpt>
      <trkpt lat="43.52268" lon="2.72302">
        <ele>1003.5</ele>
        <time>2026-05-22T09:37:14Z</time>
      </trkpt>
      <trkpt lat="43.52271" lon="2.723">
        <ele>1003.8</ele>
        <time>2026-05-22T09:37:19Z</time>
      </trkpt>
      <trkpt lat="43.52274" lon="2.72299">
        <ele>1004</ele>
        <time>2026-05-22T09:37:24Z</time>
      </trkpt>
      <trkpt lat="43.52279" lon="2.72297">
        <ele>1004.3</ele>
        <time>2026-05-22T09:37:29Z</time>
      </trkpt>
      <trkpt lat="43.52281" lon="2.72295">
        <ele>1004.5</ele>
        <time>2026-05-22T09:37:34Z</time>
      </trkpt>
      <trkpt lat="43.52282" lon="2.72294">
        <ele>1004.6</ele>
        <time>2026-05-22T09:37:39Z</time>
      </trkpt>
      <trkpt lat="43.52282" lon="2.72293">
        <ele>1004.7</ele>
        <time>2026-05-22T09:37:44Z</time>
      </trkpt>
      <trkpt lat="43.52282" lon="2.72293">
        <ele>1004.7</ele>
        <time>2026-05-22T09:37:49Z</time>
      </trkpt>
      <trkpt lat="43.52282" lon="2.72293">
        <ele>1004.7</ele>
        <time>2026-05-22T09:37:54Z</time>
      </trkpt>
      <trkpt lat="43.52279" lon="2.72288">
        <ele>1004.7</ele>
        <time>2026-05-22T09:37:59Z</time>
      </trkpt>
      <trkpt lat="43.52279" lon="2.72285">
        <ele>1004.9</ele>
        <time>2026-05-22T09:38:04Z</time>
      </trkpt>
      <trkpt lat="43.5228" lon="2.72279">
        <ele>1005.2</ele>
        <time>2026-05-22T09:38:09Z</time>
      </trkpt>
      <trkpt lat="43.52277" lon="2.72275">
        <ele>1005.2</ele>
        <time>2026-05-22T09:38:14Z</time>
      </trkpt>
      <trkpt lat="43.52273" lon="2.72272">
        <ele>1005.1</ele>
        <time>2026-05-22T09:38:19Z</time>
      </trkpt>
      <trkpt lat="43.5227" lon="2.72266">
        <ele>1005.2</ele>
        <time>2026-05-22T09:38:24Z</time>
      </trkpt>
      <trkpt lat="43.5227" lon="2.7226">
        <ele>1005.5</ele>
        <time>2026-05-22T09:38:29Z</time>
      </trkpt>
      <trkpt lat="43.52269" lon="2.72253">
        <ele>1005.8</ele>
        <time>2026-05-22T09:38:34Z</time>
      </trkpt>
      <trkpt lat="43.52268" lon="2.72246">
        <ele>1005.7</ele>
        <time>2026-05-22T09:38:39Z</time>
      </trkpt>
      <trkpt lat="43.52267" lon="2.72243">
        <ele>1005.6</ele>
        <time>2026-05-22T09:38:44Z</time>
      </trkpt>
      <trkpt lat="43.52267" lon="2.72243">
        <ele>1005.6</ele>
        <time>2026-05-22T09:38:49Z</time>
      </trkpt>
      <trkpt lat="43.52267" lon="2.72243">
        <ele>1005.6</ele>
        <time>2026-05-22T09:38:54Z</time>
      </trkpt>
      <trkpt lat="43.52267" lon="2.72243">
        <ele>1005.6</ele>
        <time>2026-05-22T09:38:59Z</time>
      </trkpt>
      <trkpt lat="43.52267" lon="2.72243">
        <ele>1005.6</ele>
        <time>2026-05-22T09:39:04Z</time>
      </trkpt>
      <trkpt lat="43.52267" lon="2.72243">
        <ele>1005.6</ele>
        <time>2026-05-22T09:39:09Z</time>
      </trkpt>
      <trkpt lat="43.52267" lon="2.72243">
        <ele>1005.6</ele>
        <time>2026-05-22T09:39:14Z</time>
      </trkpt>
      <trkpt lat="43.52267" lon="2.72243">
        <ele>1005.6</ele>
        <time>2026-05-22T09:39:19Z</time>
      </trkpt>
      <trkpt lat="43.52267" lon="2.72243">
        <ele>1005.6</ele>
        <time>2026-05-22T09:39:24Z</time>
      </trkpt>
      <trkpt lat="43.52267" lon="2.72243">
        <ele>1005.6</ele>
        <time>2026-05-22T09:39:29Z</time>
      </trkpt>
      <trkpt lat="43.52268" lon="2.72233">
        <ele>1005.3</ele>
        <time>2026-05-22T09:39:34Z</time>
      </trkpt>
      <trkpt lat="43.52267" lon="2.72224">
        <ele>1004.9</ele>
        <time>2026-05-22T09:39:39Z</time>
      </trkpt>
      <trkpt lat="43.52265" lon="2.72217">
        <ele>1004.5</ele>
        <time>2026-05-22T09:39:44Z</time>
      </trkpt>
      <trkpt lat="43.52264" lon="2.72211">
        <ele>1004.3</ele>
        <time>2026-05-22T09:39:49Z</time>
      </trkpt>
      <trkpt lat="43.52263" lon="2.72206">
        <ele>1004</ele>
        <time>2026-05-22T09:39:54Z</time>
      </trkpt>
      <trkpt lat="43.52262" lon="2.722">
        <ele>1003.8</ele>
        <time>2026-05-22T09:39:59Z</time>
      </trkpt>
      <trkpt lat="43.52261" lon="2.72194">
        <ele>1003.5</ele>
        <time>2026-05-22T09:40:04Z</time>
      </trkpt>
      <trkpt lat="43.52259" lon="2.72188">
        <ele>1003.2</ele>
        <time>2026-05-22T09:40:09Z</time>
      </trkpt>
      <trkpt lat="43.52259" lon="2.72181">
        <ele>1002.9</ele>
        <time>2026-05-22T09:40:14Z</time>
      </trkpt>
      <trkpt lat="43.52259" lon="2.72174">
        <ele>1002.7</ele>
        <time>2026-05-22T09:40:19Z</time>
      </trkpt>
      <trkpt lat="43.52259" lon="2.72166">
        <ele>1002.4</ele>
        <time>2026-05-22T09:40:24Z</time>
      </trkpt>
      <trkpt lat="43.52257" lon="2.7216">
        <ele>1001.9</ele>
        <time>2026-05-22T09:40:29Z</time>
      </trkpt>
      <trkpt lat="43.52255" lon="2.72153">
        <ele>1001.3</ele>
        <time>2026-05-22T09:40:34Z</time>
      </trkpt>
      <trkpt lat="43.52254" lon="2.72148">
        <ele>1000.8</ele>
        <time>2026-05-22T09:40:39Z</time>
      </trkpt>
      <trkpt lat="43.52253" lon="2.72142">
        <ele>1000.4</ele>
        <time>2026-05-22T09:40:44Z</time>
      </trkpt>
      <trkpt lat="43.52254" lon="2.72139">
        <ele>1000.2</ele>
        <time>2026-05-22T09:40:49Z</time>
      </trkpt>
      <trkpt lat="43.52251" lon="2.72131">
        <ele>999.5</ele>
        <time>2026-05-22T09:40:54Z</time>
      </trkpt>
      <trkpt lat="43.5225" lon="2.72126">
        <ele>999.1</ele>
        <time>2026-05-22T09:40:59Z</time>
      </trkpt>
      <trkpt lat="43.5225" lon="2.72125">
        <ele>999</ele>
        <time>2026-05-22T09:41:04Z</time>
      </trkpt>
      <trkpt lat="43.52252" lon="2.72116">
        <ele>998.4</ele>
        <time>2026-05-22T09:41:09Z</time>
      </trkpt>
      <trkpt lat="43.52252" lon="2.72116">
        <ele>998.4</ele>
        <time>2026-05-22T09:41:14Z</time>
      </trkpt>
      <trkpt lat="43.52252" lon="2.72116">
        <ele>998.4</ele>
        <time>2026-05-22T09:41:19Z</time>
      </trkpt>
      <trkpt lat="43.52247" lon="2.72103">
        <ele>997.4</ele>
        <time>2026-05-22T09:41:24Z</time>
      </trkpt>
      <trkpt lat="43.52247" lon="2.72102">
        <ele>997.3</ele>
        <time>2026-05-22T09:41:29Z</time>
      </trkpt>
      <trkpt lat="43.52247" lon="2.72102">
        <ele>997.3</ele>
        <time>2026-05-22T09:41:34Z</time>
      </trkpt>
      <trkpt lat="43.52247" lon="2.72102">
        <ele>997.3</ele>
        <time>2026-05-22T09:41:39Z</time>
      </trkpt>
      <trkpt lat="43.52243" lon="2.72091">
        <ele>996.5</ele>
        <time>2026-05-22T09:41:44Z</time>
      </trkpt>
      <trkpt lat="43.52243" lon="2.72087">
        <ele>996.2</ele>
        <time>2026-05-22T09:41:49Z</time>
      </trkpt>
      <trkpt lat="43.5224" lon="2.72078">
        <ele>995.5</ele>
        <time>2026-05-22T09:41:54Z</time>
      </trkpt>
      <trkpt lat="43.5224" lon="2.72071">
        <ele>995</ele>
        <time>2026-05-22T09:41:59Z</time>
      </trkpt>
      <trkpt lat="43.52241" lon="2.7206">
        <ele>994.3</ele>
        <time>2026-05-22T09:42:04Z</time>
      </trkpt>
      <trkpt lat="43.5224" lon="2.72052">
        <ele>993.7</ele>
        <time>2026-05-22T09:42:09Z</time>
      </trkpt>
      <trkpt lat="43.52239" lon="2.72044">
        <ele>993.2</ele>
        <time>2026-05-22T09:42:14Z</time>
      </trkpt>
      <trkpt lat="43.5224" lon="2.72037">
        <ele>992.7</ele>
        <time>2026-05-22T09:42:19Z</time>
      </trkpt>
      <trkpt lat="43.52238" lon="2.7203">
        <ele>992.2</ele>
        <time>2026-05-22T09:42:24Z</time>
      </trkpt>
      <trkpt lat="43.52238" lon="2.72021">
        <ele>991.6</ele>
        <time>2026-05-22T09:42:29Z</time>
      </trkpt>
      <trkpt lat="43.52236" lon="2.72011">
        <ele>990.9</ele>
        <time>2026-05-22T09:42:34Z</time>
      </trkpt>
      <trkpt lat="43.52236" lon="2.72">
        <ele>990.2</ele>
        <time>2026-05-22T09:42:39Z</time>
      </trkpt>
      <trkpt lat="43.52235" lon="2.71992">
        <ele>990.7</ele>
        <time>2026-05-22T09:42:44Z</time>
      </trkpt>
      <trkpt lat="43.52235" lon="2.71987">
        <ele>991</ele>
        <time>2026-05-22T09:42:49Z</time>
      </trkpt>
      <trkpt lat="43.52234" lon="2.71985">
        <ele>991.1</ele>
        <time>2026-05-22T09:42:54Z</time>
      </trkpt>
      <trkpt lat="43.52234" lon="2.71982">
        <ele>991.3</ele>
        <time>2026-05-22T09:42:59Z</time>
      </trkpt>
      <trkpt lat="43.52235" lon="2.71974">
        <ele>991.8</ele>
        <time>2026-05-22T09:43:04Z</time>
      </trkpt>
      <trkpt lat="43.52234" lon="2.71965">
        <ele>992.3</ele>
        <time>2026-05-22T09:43:09Z</time>
      </trkpt>
      <trkpt lat="43.5223" lon="2.71953">
        <ele>992.9</ele>
        <time>2026-05-22T09:43:14Z</time>
      </trkpt>
      <trkpt lat="43.52231" lon="2.71946">
        <ele>993.4</ele>
        <time>2026-05-22T09:43:19Z</time>
      </trkpt>
      <trkpt lat="43.52231" lon="2.71946">
        <ele>993.4</ele>
        <time>2026-05-22T09:43:24Z</time>
      </trkpt>
      <trkpt lat="43.5223" lon="2.71932">
        <ele>994.2</ele>
        <time>2026-05-22T09:43:29Z</time>
      </trkpt>
      <trkpt lat="43.52231" lon="2.71927">
        <ele>994.5</ele>
        <time>2026-05-22T09:43:34Z</time>
      </trkpt>
      <trkpt lat="43.52231" lon="2.71925">
        <ele>994.6</ele>
        <time>2026-05-22T09:43:39Z</time>
      </trkpt>
      <trkpt lat="43.52231" lon="2.71925">
        <ele>994.6</ele>
        <time>2026-05-22T09:43:44Z</time>
      </trkpt>
      <trkpt lat="43.52231" lon="2.71925">
        <ele>994.6</ele>
        <time>2026-05-22T09:43:49Z</time>
      </trkpt>
      <trkpt lat="43.52231" lon="2.71925">
        <ele>994.6</ele>
        <time>2026-05-22T09:43:54Z</time>
      </trkpt>
      <trkpt lat="43.52231" lon="2.71925">
        <ele>994.6</ele>
        <time>2026-05-22T09:43:59Z</time>
      </trkpt>
      <trkpt lat="43.52231" lon="2.71925">
        <ele>994.6</ele>
        <time>2026-05-22T09:44:04Z</time>
      </trkpt>
      <trkpt lat="43.52231" lon="2.71925">
        <ele>994.6</ele>
        <time>2026-05-22T09:44:09Z</time>
      </trkpt>
      <trkpt lat="43.52224" lon="2.71914">
        <ele>995</ele>
        <time>2026-05-22T09:44:14Z</time>
      </trkpt>
      <trkpt lat="43.52224" lon="2.71908">
        <ele>995.5</ele>
        <time>2026-05-22T09:44:19Z</time>
      </trkpt>
      <trkpt lat="43.52224" lon="2.719">
        <ele>996.2</ele>
        <time>2026-05-22T09:44:24Z</time>
      </trkpt>
      <trkpt lat="43.52222" lon="2.71895">
        <ele>996.5</ele>
        <time>2026-05-22T09:44:29Z</time>
      </trkpt>
      <trkpt lat="43.52221" lon="2.71889">
        <ele>996.9</ele>
        <time>2026-05-22T09:44:34Z</time>
      </trkpt>
      <trkpt lat="43.5222" lon="2.71886">
        <ele>997.1</ele>
        <time>2026-05-22T09:44:39Z</time>
      </trkpt>
      <trkpt lat="43.52221" lon="2.71882">
        <ele>997.5</ele>
        <time>2026-05-22T09:44:44Z</time>
      </trkpt>
      <trkpt lat="43.52222" lon="2.71877">
        <ele>998</ele>
        <time>2026-05-22T09:44:49Z</time>
      </trkpt>
      <trkpt lat="43.52222" lon="2.71871">
        <ele>998.5</ele>
        <time>2026-05-22T09:44:54Z</time>
      </trkpt>
      <trkpt lat="43.52221" lon="2.71866">
        <ele>998.8</ele>
        <time>2026-05-22T09:44:59Z</time>
      </trkpt>
      <trkpt lat="43.52218" lon="2.71862">
        <ele>999</ele>
        <time>2026-05-22T09:45:04Z</time>
      </trkpt>
      <trkpt lat="43.52215" lon="2.71855">
        <ele>999.3</ele>
        <time>2026-05-22T09:45:09Z</time>
      </trkpt>
      <trkpt lat="43.52212" lon="2.71849">
        <ele>999.6</ele>
        <time>2026-05-22T09:45:14Z</time>
      </trkpt>
      <trkpt lat="43.52213" lon="2.71844">
        <ele>1000</ele>
        <time>2026-05-22T09:45:19Z</time>
      </trkpt>
      <trkpt lat="43.52211" lon="2.71839">
        <ele>1000.3</ele>
        <time>2026-05-22T09:45:24Z</time>
      </trkpt>
      <trkpt lat="43.52209" lon="2.71834">
        <ele>1000.5</ele>
        <time>2026-05-22T09:45:29Z</time>
      </trkpt>
      <trkpt lat="43.52208" lon="2.71828">
        <ele>1000.4</ele>
        <time>2026-05-22T09:45:34Z</time>
      </trkpt>
      <trkpt lat="43.52207" lon="2.71821">
        <ele>1000.3</ele>
        <time>2026-05-22T09:45:39Z</time>
      </trkpt>
      <trkpt lat="43.52207" lon="2.71813">
        <ele>1000.3</ele>
        <time>2026-05-22T09:45:44Z</time>
      </trkpt>
      <trkpt lat="43.52206" lon="2.71806">
        <ele>1000.1</ele>
        <time>2026-05-22T09:45:49Z</time>
      </trkpt>
      <trkpt lat="43.52206" lon="2.71799">
        <ele>1000.1</ele>
        <time>2026-05-22T09:45:54Z</time>
      </trkpt>
      <trkpt lat="43.52207" lon="2.71792">
        <ele>1000.1</ele>
        <time>2026-05-22T09:45:59Z</time>
      </trkpt>
      <trkpt lat="43.52206" lon="2.71786">
        <ele>1000</ele>
        <time>2026-05-22T09:46:04Z</time>
      </trkpt>
      <trkpt lat="43.52204" lon="2.7178">
        <ele>999.8</ele>
        <time>2026-05-22T09:46:09Z</time>
      </trkpt>
      <trkpt lat="43.52202" lon="2.71774">
        <ele>999.6</ele>
        <time>2026-05-22T09:46:14Z</time>
      </trkpt>
      <trkpt lat="43.52202" lon="2.71767">
        <ele>999.5</ele>
        <time>2026-05-22T09:46:19Z</time>
      </trkpt>
      <trkpt lat="43.52202" lon="2.71758">
        <ele>999.4</ele>
        <time>2026-05-22T09:46:24Z</time>
      </trkpt>
      <trkpt lat="43.52202" lon="2.71748">
        <ele>999.3</ele>
        <time>2026-05-22T09:46:29Z</time>
      </trkpt>
      <trkpt lat="43.52202" lon="2.7174">
        <ele>998.8</ele>
        <time>2026-05-22T09:46:34Z</time>
      </trkpt>
      <trkpt lat="43.522" lon="2.71732">
        <ele>998.1</ele>
        <time>2026-05-22T09:46:39Z</time>
      </trkpt>
      <trkpt lat="43.52198" lon="2.71725">
        <ele>997.5</ele>
        <time>2026-05-22T09:46:44Z</time>
      </trkpt>
      <trkpt lat="43.52197" lon="2.71719">
        <ele>997.1</ele>
        <time>2026-05-22T09:46:49Z</time>
      </trkpt>
      <trkpt lat="43.52196" lon="2.71712">
        <ele>996.5</ele>
        <time>2026-05-22T09:46:54Z</time>
      </trkpt>
      <trkpt lat="43.52196" lon="2.71705">
        <ele>996.1</ele>
        <time>2026-05-22T09:46:59Z</time>
      </trkpt>
      <trkpt lat="43.52195" lon="2.71698">
        <ele>995.6</ele>
        <time>2026-05-22T09:47:04Z</time>
      </trkpt>
      <trkpt lat="43.52193" lon="2.7169">
        <ele>994.9</ele>
        <time>2026-05-22T09:47:09Z</time>
      </trkpt>
      <trkpt lat="43.52191" lon="2.71681">
        <ele>994.2</ele>
        <time>2026-05-22T09:47:14Z</time>
      </trkpt>
      <trkpt lat="43.52189" lon="2.71674">
        <ele>993.6</ele>
        <time>2026-05-22T09:47:19Z</time>
      </trkpt>
      <trkpt lat="43.52189" lon="2.7167">
        <ele>993.3</ele>
        <time>2026-05-22T09:47:24Z</time>
      </trkpt>
      <trkpt lat="43.52188" lon="2.71665">
        <ele>992.9</ele>
        <time>2026-05-22T09:47:29Z</time>
      </trkpt>
      <trkpt lat="43.52187" lon="2.71657">
        <ele>992.2</ele>
        <time>2026-05-22T09:47:34Z</time>
      </trkpt>
      <trkpt lat="43.52185" lon="2.71647">
        <ele>991.2</ele>
        <time>2026-05-22T09:47:39Z</time>
      </trkpt>
      <trkpt lat="43.52184" lon="2.71638">
        <ele>990.4</ele>
        <time>2026-05-22T09:47:44Z</time>
      </trkpt>
      <trkpt lat="43.52182" lon="2.7163">
        <ele>989.6</ele>
        <time>2026-05-22T09:47:49Z</time>
      </trkpt>
      <trkpt lat="43.52181" lon="2.71623">
        <ele>988.9</ele>
        <time>2026-05-22T09:47:54Z</time>
      </trkpt>
      <trkpt lat="43.52181" lon="2.7162">
        <ele>988.6</ele>
        <time>2026-05-22T09:47:59Z</time>
      </trkpt>
      <trkpt lat="43.52181" lon="2.71618">
        <ele>988.5</ele>
        <time>2026-05-22T09:48:04Z</time>
      </trkpt>
      <trkpt lat="43.52181" lon="2.71618">
        <ele>988.5</ele>
        <time>2026-05-22T09:48:09Z</time>
      </trkpt>
      <trkpt lat="43.52181" lon="2.71618">
        <ele>988.5</ele>
        <time>2026-05-22T09:48:14Z</time>
      </trkpt>
      <trkpt lat="43.52188" lon="2.71611">
        <ele>988.7</ele>
        <time>2026-05-22T09:48:19Z</time>
      </trkpt>
      <trkpt lat="43.52187" lon="2.71609">
        <ele>988.4</ele>
        <time>2026-05-22T09:48:24Z</time>
      </trkpt>
      <trkpt lat="43.5218" lon="2.71605">
        <ele>987.3</ele>
        <time>2026-05-22T09:48:29Z</time>
      </trkpt>
      <trkpt lat="43.52177" lon="2.71603">
        <ele>986.8</ele>
        <time>2026-05-22T09:48:34Z</time>
      </trkpt>
      <trkpt lat="43.52177" lon="2.71603">
        <ele>986.8</ele>
        <time>2026-05-22T09:48:39Z</time>
      </trkpt>
      <trkpt lat="43.52177" lon="2.71603">
        <ele>986.8</ele>
        <time>2026-05-22T09:48:44Z</time>
      </trkpt>
      <trkpt lat="43.52177" lon="2.71603">
        <ele>986.8</ele>
        <time>2026-05-22T09:48:49Z</time>
      </trkpt>
      <trkpt lat="43.52177" lon="2.71603">
        <ele>986.8</ele>
        <time>2026-05-22T09:48:54Z</time>
      </trkpt>
      <trkpt lat="43.52175" lon="2.71592">
        <ele>985.7</ele>
        <time>2026-05-22T09:48:59Z</time>
      </trkpt>
      <trkpt lat="43.52175" lon="2.71592">
        <ele>985.7</ele>
        <time>2026-05-22T09:49:04Z</time>
      </trkpt>
      <trkpt lat="43.52175" lon="2.71592">
        <ele>985.7</ele>
        <time>2026-05-22T09:49:09Z</time>
      </trkpt>
      <trkpt lat="43.52175" lon="2.71592">
        <ele>985.7</ele>
        <time>2026-05-22T09:49:14Z</time>
      </trkpt>
      <trkpt lat="43.52175" lon="2.71592">
        <ele>985.7</ele>
        <time>2026-05-22T09:49:19Z</time>
      </trkpt>
      <trkpt lat="43.52175" lon="2.71592">
        <ele>985.7</ele>
        <time>2026-05-22T09:49:24Z</time>
      </trkpt>
      <trkpt lat="43.52175" lon="2.71592">
        <ele>985.7</ele>
        <time>2026-05-22T09:49:29Z</time>
      </trkpt>
      <trkpt lat="43.52175" lon="2.71592">
        <ele>985.7</ele>
        <time>2026-05-22T09:49:34Z</time>
      </trkpt>
      <trkpt lat="43.52175" lon="2.71592">
        <ele>985.7</ele>
        <time>2026-05-22T09:49:39Z</time>
      </trkpt>
      <trkpt lat="43.52175" lon="2.71592">
        <ele>985.7</ele>
        <time>2026-05-22T09:49:44Z</time>
      </trkpt>
      <trkpt lat="43.52175" lon="2.71592">
        <ele>985.7</ele>
        <time>2026-05-22T09:49:49Z</time>
      </trkpt>
      <trkpt lat="43.52175" lon="2.71592">
        <ele>985.7</ele>
        <time>2026-05-22T09:49:54Z</time>
      </trkpt>
      <trkpt lat="43.52175" lon="2.71592">
        <ele>985.7</ele>
        <time>2026-05-22T09:49:59Z</time>
      </trkpt>
      <trkpt lat="43.52175" lon="2.71592">
        <ele>985.7</ele>
        <time>2026-05-22T09:50:04Z</time>
      </trkpt>
      <trkpt lat="43.52175" lon="2.71592">
        <ele>985.7</ele>
        <time>2026-05-22T09:50:09Z</time>
      </trkpt>
      <trkpt lat="43.52175" lon="2.71592">
        <ele>985.7</ele>
        <time>2026-05-22T09:50:14Z</time>
      </trkpt>
      <trkpt lat="43.52175" lon="2.71592">
        <ele>985.7</ele>
        <time>2026-05-22T09:50:19Z</time>
      </trkpt>
      <trkpt lat="43.52175" lon="2.71592">
        <ele>985.7</ele>
        <time>2026-05-22T09:50:24Z</time>
      </trkpt>
      <trkpt lat="43.52175" lon="2.71592">
        <ele>985.7</ele>
        <time>2026-05-22T09:50:29Z</time>
      </trkpt>
      <trkpt lat="43.52175" lon="2.71592">
        <ele>985.7</ele>
        <time>2026-05-22T09:50:34Z</time>
      </trkpt>
      <trkpt lat="43.52175" lon="2.71592">
        <ele>985.7</ele>
        <time>2026-05-22T09:50:39Z</time>
      </trkpt>
      <trkpt lat="43.52175" lon="2.71592">
        <ele>985.7</ele>
        <time>2026-05-22T09:50:44Z</time>
      </trkpt>
      <trkpt lat="43.52175" lon="2.71592">
        <ele>985.7</ele>
        <time>2026-05-22T09:50:49Z</time>
      </trkpt>
      <trkpt lat="43.52175" lon="2.71592">
        <ele>985.7</ele>
        <time>2026-05-22T09:50:54Z</time>
      </trkpt>
      <trkpt lat="43.52175" lon="2.71592">
        <ele>985.7</ele>
        <time>2026-05-22T09:50:59Z</time>
      </trkpt>
      <trkpt lat="43.52175" lon="2.71592">
        <ele>985.7</ele>
        <time>2026-05-22T09:51:04Z</time>
      </trkpt>
      <trkpt lat="43.52177" lon="2.71585">
        <ele>985.4</ele>
        <time>2026-05-22T09:51:09Z</time>
      </trkpt>
      <trkpt lat="43.52177" lon="2.71578">
        <ele>984.7</ele>
        <time>2026-05-22T09:51:14Z</time>
      </trkpt>
      <trkpt lat="43.52177" lon="2.71572">
        <ele>984</ele>
        <time>2026-05-22T09:51:19Z</time>
      </trkpt>
      <trkpt lat="43.52176" lon="2.71568">
        <ele>983.5</ele>
        <time>2026-05-22T09:51:24Z</time>
      </trkpt>
      <trkpt lat="43.52175" lon="2.71564">
        <ele>982.9</ele>
        <time>2026-05-22T09:51:29Z</time>
      </trkpt>
      <trkpt lat="43.52173" lon="2.7156">
        <ele>982.3</ele>
        <time>2026-05-22T09:51:34Z</time>
      </trkpt>
      <trkpt lat="43.52172" lon="2.71553">
        <ele>981.4</ele>
        <time>2026-05-22T09:51:39Z</time>
      </trkpt>
      <trkpt lat="43.52172" lon="2.71547">
        <ele>980.7</ele>
        <time>2026-05-22T09:51:44Z</time>
      </trkpt>
      <trkpt lat="43.52172" lon="2.71541">
        <ele>980.1</ele>
        <time>2026-05-22T09:51:49Z</time>
      </trkpt>
      <trkpt lat="43.52169" lon="2.71536">
        <ele>979.2</ele>
        <time>2026-05-22T09:51:54Z</time>
      </trkpt>
      <trkpt lat="43.52168" lon="2.7153">
        <ele>978.4</ele>
        <time>2026-05-22T09:51:59Z</time>
      </trkpt>
      <trkpt lat="43.52167" lon="2.71522">
        <ele>977.4</ele>
        <time>2026-05-22T09:52:04Z</time>
      </trkpt>
      <trkpt lat="43.52167" lon="2.71514">
        <ele>976.6</ele>
        <time>2026-05-22T09:52:09Z</time>
      </trkpt>
      <trkpt lat="43.52166" lon="2.71511">
        <ele>976.1</ele>
        <time>2026-05-22T09:52:14Z</time>
      </trkpt>
      <trkpt lat="43.52166" lon="2.71506">
        <ele>975.6</ele>
        <time>2026-05-22T09:52:19Z</time>
      </trkpt>
      <trkpt lat="43.52166" lon="2.71506">
        <ele>975.6</ele>
        <time>2026-05-22T09:52:24Z</time>
      </trkpt>
      <trkpt lat="43.52166" lon="2.71506">
        <ele>975.6</ele>
        <time>2026-05-22T09:52:29Z</time>
      </trkpt>
      <trkpt lat="43.52163" lon="2.71491">
        <ele>974.3</ele>
        <time>2026-05-22T09:52:34Z</time>
      </trkpt>
      <trkpt lat="43.5216" lon="2.71485">
        <ele>973.7</ele>
        <time>2026-05-22T09:52:39Z</time>
      </trkpt>
      <trkpt lat="43.52158" lon="2.7148">
        <ele>973.3</ele>
        <time>2026-05-22T09:52:44Z</time>
      </trkpt>
      <trkpt lat="43.52158" lon="2.71472">
        <ele>972.9</ele>
        <time>2026-05-22T09:52:49Z</time>
      </trkpt>
      <trkpt lat="43.52158" lon="2.71465">
        <ele>972.5</ele>
        <time>2026-05-22T09:52:54Z</time>
      </trkpt>
      <trkpt lat="43.52158" lon="2.7146">
        <ele>972.3</ele>
        <time>2026-05-22T09:52:59Z</time>
      </trkpt>
      <trkpt lat="43.52159" lon="2.71456">
        <ele>972.2</ele>
        <time>2026-05-22T09:53:04Z</time>
      </trkpt>
      <trkpt lat="43.52159" lon="2.71452">
        <ele>972</ele>
        <time>2026-05-22T09:53:09Z</time>
      </trkpt>
      <trkpt lat="43.52158" lon="2.71447">
        <ele>971.7</ele>
        <time>2026-05-22T09:53:14Z</time>
      </trkpt>
      <trkpt lat="43.52157" lon="2.71438">
        <ele>971.1</ele>
        <time>2026-05-22T09:53:19Z</time>
      </trkpt>
      <trkpt lat="43.52155" lon="2.7143">
        <ele>970.5</ele>
        <time>2026-05-22T09:53:24Z</time>
      </trkpt>
      <trkpt lat="43.52156" lon="2.71419">
        <ele>970.1</ele>
        <time>2026-05-22T09:53:29Z</time>
      </trkpt>
      <trkpt lat="43.52155" lon="2.71411">
        <ele>970.3</ele>
        <time>2026-05-22T09:53:34Z</time>
      </trkpt>
      <trkpt lat="43.52155" lon="2.71407">
        <ele>970.6</ele>
        <time>2026-05-22T09:53:39Z</time>
      </trkpt>
      <trkpt lat="43.52155" lon="2.71407">
        <ele>970.6</ele>
        <time>2026-05-22T09:53:44Z</time>
      </trkpt>
      <trkpt lat="43.52155" lon="2.71407">
        <ele>970.6</ele>
        <time>2026-05-22T09:53:49Z</time>
      </trkpt>
      <trkpt lat="43.52155" lon="2.71407">
        <ele>970.6</ele>
        <time>2026-05-22T09:53:54Z</time>
      </trkpt>
      <trkpt lat="43.52152" lon="2.71407">
        <ele>970.3</ele>
        <time>2026-05-22T09:53:59Z</time>
      </trkpt>
      <trkpt lat="43.52152" lon="2.71394">
        <ele>971.3</ele>
        <time>2026-05-22T09:54:04Z</time>
      </trkpt>
      <trkpt lat="43.52152" lon="2.71386">
        <ele>971.9</ele>
        <time>2026-05-22T09:54:09Z</time>
      </trkpt>
      <trkpt lat="43.52151" lon="2.71382">
        <ele>972.1</ele>
        <time>2026-05-22T09:54:14Z</time>
      </trkpt>
      <trkpt lat="43.52152" lon="2.7138">
        <ele>972.4</ele>
        <time>2026-05-22T09:54:19Z</time>
      </trkpt>
      <trkpt lat="43.52151" lon="2.71376">
        <ele>972.5</ele>
        <time>2026-05-22T09:54:24Z</time>
      </trkpt>
      <trkpt lat="43.52149" lon="2.71372">
        <ele>972.6</ele>
        <time>2026-05-22T09:54:29Z</time>
      </trkpt>
      <trkpt lat="43.52147" lon="2.7137">
        <ele>972.5</ele>
        <time>2026-05-22T09:54:34Z</time>
      </trkpt>
      <trkpt lat="43.52147" lon="2.7137">
        <ele>972.5</ele>
        <time>2026-05-22T09:54:39Z</time>
      </trkpt>
      <trkpt lat="43.52145" lon="2.71363">
        <ele>972.8</ele>
        <time>2026-05-22T09:54:44Z</time>
      </trkpt>
      <trkpt lat="43.52145" lon="2.71361">
        <ele>972.9</ele>
        <time>2026-05-22T09:54:49Z</time>
      </trkpt>
      <trkpt lat="43.52145" lon="2.71361">
        <ele>972.9</ele>
        <time>2026-05-22T09:54:54Z</time>
      </trkpt>
      <trkpt lat="43.52145" lon="2.71361">
        <ele>972.9</ele>
        <time>2026-05-22T09:54:59Z</time>
      </trkpt>
      <trkpt lat="43.52145" lon="2.71361">
        <ele>972.9</ele>
        <time>2026-05-22T09:55:04Z</time>
      </trkpt>
      <trkpt lat="43.52145" lon="2.71361">
        <ele>972.9</ele>
        <time>2026-05-22T09:55:09Z</time>
      </trkpt>
      <trkpt lat="43.52145" lon="2.71361">
        <ele>972.9</ele>
        <time>2026-05-22T09:55:14Z</time>
      </trkpt>
      <trkpt lat="43.52145" lon="2.71361">
        <ele>972.9</ele>
        <time>2026-05-22T09:55:19Z</time>
      </trkpt>
      <trkpt lat="43.52143" lon="2.71347">
        <ele>973.6</ele>
        <time>2026-05-22T09:55:24Z</time>
      </trkpt>
      <trkpt lat="43.52144" lon="2.71341">
        <ele>974.2</ele>
        <time>2026-05-22T09:55:29Z</time>
      </trkpt>
      <trkpt lat="43.52145" lon="2.71337">
        <ele>974.6</ele>
        <time>2026-05-22T09:55:34Z</time>
      </trkpt>
      <trkpt lat="43.52147" lon="2.71332">
        <ele>975.2</ele>
        <time>2026-05-22T09:55:39Z</time>
      </trkpt>
      <trkpt lat="43.52151" lon="2.71329">
        <ele>975.8</ele>
        <time>2026-05-22T09:55:44Z</time>
      </trkpt>
      <trkpt lat="43.52151" lon="2.71323">
        <ele>975.9</ele>
        <time>2026-05-22T09:55:49Z</time>
      </trkpt>
      <trkpt lat="43.52147" lon="2.71318">
        <ele>975.4</ele>
        <time>2026-05-22T09:55:54Z</time>
      </trkpt>
      <trkpt lat="43.5214" lon="2.7132">
        <ele>974.3</ele>
        <time>2026-05-22T09:55:59Z</time>
      </trkpt>
      <trkpt lat="43.52134" lon="2.71321">
        <ele>973.4</ele>
        <time>2026-05-22T09:56:04Z</time>
      </trkpt>
      <trkpt lat="43.52129" lon="2.71319">
        <ele>972.7</ele>
        <time>2026-05-22T09:56:09Z</time>
      </trkpt>
      <trkpt lat="43.52124" lon="2.71318">
        <ele>972</ele>
        <time>2026-05-22T09:56:14Z</time>
      </trkpt>
      <trkpt lat="43.52118" lon="2.71314">
        <ele>971.2</ele>
        <time>2026-05-22T09:56:19Z</time>
      </trkpt>
      <trkpt lat="43.52114" lon="2.7131">
        <ele>970.7</ele>
        <time>2026-05-22T09:56:24Z</time>
      </trkpt>
      <trkpt lat="43.52107" lon="2.71302">
        <ele>969.8</ele>
        <time>2026-05-22T09:56:29Z</time>
      </trkpt>
      <trkpt lat="43.52102" lon="2.71296">
        <ele>969.1</ele>
        <time>2026-05-22T09:56:34Z</time>
      </trkpt>
      <trkpt lat="43.52098" lon="2.71288">
        <ele>968.7</ele>
        <time>2026-05-22T09:56:39Z</time>
      </trkpt>
      <trkpt lat="43.52097" lon="2.71278">
        <ele>968.6</ele>
        <time>2026-05-22T09:56:44Z</time>
      </trkpt>
      <trkpt lat="43.52094" lon="2.7127">
        <ele>968.3</ele>
        <time>2026-05-22T09:56:49Z</time>
      </trkpt>
      <trkpt lat="43.52094" lon="2.71261">
        <ele>968.4</ele>
        <time>2026-05-22T09:56:54Z</time>
      </trkpt>
      <trkpt lat="43.52093" lon="2.71252">
        <ele>968.4</ele>
        <time>2026-05-22T09:56:59Z</time>
      </trkpt>
      <trkpt lat="43.52095" lon="2.7124">
        <ele>967.9</ele>
        <time>2026-05-22T09:57:04Z</time>
      </trkpt>
      <trkpt lat="43.52096" lon="2.71232">
        <ele>967.4</ele>
        <time>2026-05-22T09:57:09Z</time>
      </trkpt>
      <trkpt lat="43.52095" lon="2.7122">
        <ele>966.4</ele>
        <time>2026-05-22T09:57:14Z</time>
      </trkpt>
      <trkpt lat="43.52094" lon="2.7121">
        <ele>965.4</ele>
        <time>2026-05-22T09:57:19Z</time>
      </trkpt>
      <trkpt lat="43.52093" lon="2.71202">
        <ele>964.6</ele>
        <time>2026-05-22T09:57:24Z</time>
      </trkpt>
      <trkpt lat="43.52093" lon="2.71194">
        <ele>964</ele>
        <time>2026-05-22T09:57:29Z</time>
      </trkpt>
      <trkpt lat="43.52092" lon="2.71185">
        <ele>963.1</ele>
        <time>2026-05-22T09:57:34Z</time>
      </trkpt>
      <trkpt lat="43.5209" lon="2.71176">
        <ele>962</ele>
        <time>2026-05-22T09:57:39Z</time>
      </trkpt>
      <trkpt lat="43.5209" lon="2.71166">
        <ele>961.2</ele>
        <time>2026-05-22T09:57:44Z</time>
      </trkpt>
      <trkpt lat="43.5209" lon="2.7116">
        <ele>960.5</ele>
        <time>2026-05-22T09:57:49Z</time>
      </trkpt>
      <trkpt lat="43.5209" lon="2.71148">
        <ele>959.1</ele>
        <time>2026-05-22T09:57:54Z</time>
      </trkpt>
      <trkpt lat="43.52092" lon="2.71138">
        <ele>958.3</ele>
        <time>2026-05-22T09:57:59Z</time>
      </trkpt>
      <trkpt lat="43.52095" lon="2.7113">
        <ele>957.9</ele>
        <time>2026-05-22T09:58:04Z</time>
      </trkpt>
      <trkpt lat="43.52095" lon="2.7113">
        <ele>957.9</ele>
        <time>2026-05-22T09:58:09Z</time>
      </trkpt>
      <trkpt lat="43.52093" lon="2.71121">
        <ele>956.4</ele>
        <time>2026-05-22T09:58:14Z</time>
      </trkpt>
      <trkpt lat="43.52093" lon="2.71114">
        <ele>955.6</ele>
        <time>2026-05-22T09:58:19Z</time>
      </trkpt>
      <trkpt lat="43.52095" lon="2.71108">
        <ele>955.3</ele>
        <time>2026-05-22T09:58:24Z</time>
      </trkpt>
      <trkpt lat="43.52098" lon="2.711">
        <ele>955</ele>
        <time>2026-05-22T09:58:29Z</time>
      </trkpt>
      <trkpt lat="43.521" lon="2.71093">
        <ele>954.5</ele>
        <time>2026-05-22T09:58:34Z</time>
      </trkpt>
      <trkpt lat="43.52102" lon="2.71088">
        <ele>954.4</ele>
        <time>2026-05-22T09:58:39Z</time>
      </trkpt>
      <trkpt lat="43.52102" lon="2.71088">
        <ele>954.4</ele>
        <time>2026-05-22T09:58:44Z</time>
      </trkpt>
      <trkpt lat="43.52102" lon="2.71088">
        <ele>954.4</ele>
        <time>2026-05-22T09:58:49Z</time>
      </trkpt>
      <trkpt lat="43.52102" lon="2.71088">
        <ele>954.4</ele>
        <time>2026-05-22T09:58:54Z</time>
      </trkpt>
      <trkpt lat="43.52102" lon="2.71088">
        <ele>954.4</ele>
        <time>2026-05-22T09:58:59Z</time>
      </trkpt>
      <trkpt lat="43.52102" lon="2.71088">
        <ele>954.4</ele>
        <time>2026-05-22T09:59:04Z</time>
      </trkpt>
      <trkpt lat="43.52102" lon="2.71088">
        <ele>954.4</ele>
        <time>2026-05-22T09:59:09Z</time>
      </trkpt>
      <trkpt lat="43.52101" lon="2.71086">
        <ele>953.9</ele>
        <time>2026-05-22T09:59:14Z</time>
      </trkpt>
      <trkpt lat="43.52105" lon="2.7108">
        <ele>954.4</ele>
        <time>2026-05-22T09:59:19Z</time>
      </trkpt>
      <trkpt lat="43.52108" lon="2.71072">
        <ele>955</ele>
        <time>2026-05-22T09:59:24Z</time>
      </trkpt>
      <trkpt lat="43.5211" lon="2.71066">
        <ele>955.3</ele>
        <time>2026-05-22T09:59:29Z</time>
      </trkpt>
      <trkpt lat="43.52109" lon="2.71065">
        <ele>955.1</ele>
        <time>2026-05-22T09:59:34Z</time>
      </trkpt>
      <trkpt lat="43.52108" lon="2.71064">
        <ele>954.9</ele>
        <time>2026-05-22T09:59:39Z</time>
      </trkpt>
      <trkpt lat="43.52108" lon="2.71064">
        <ele>954.9</ele>
        <time>2026-05-22T09:59:44Z</time>
      </trkpt>
      <trkpt lat="43.52108" lon="2.71064">
        <ele>954.9</ele>
        <time>2026-05-22T09:59:49Z</time>
      </trkpt>
      <trkpt lat="43.52108" lon="2.71064">
        <ele>954.9</ele>
        <time>2026-05-22T09:59:54Z</time>
      </trkpt>
      <trkpt lat="43.52108" lon="2.71064">
        <ele>954.9</ele>
        <time>2026-05-22T09:59:59Z</time>
      </trkpt>
      <trkpt lat="43.52108" lon="2.71064">
        <ele>954.9</ele>
        <time>2026-05-22T10:00:04Z</time>
      </trkpt>
      <trkpt lat="43.52108" lon="2.71064">
        <ele>954.9</ele>
        <time>2026-05-22T10:00:09Z</time>
      </trkpt>
      <trkpt lat="43.52108" lon="2.71064">
        <ele>954.9</ele>
        <time>2026-05-22T10:00:14Z</time>
      </trkpt>
      <trkpt lat="43.52108" lon="2.71064">
        <ele>954.9</ele>
        <time>2026-05-22T10:00:19Z</time>
      </trkpt>
      <trkpt lat="43.52108" lon="2.71064">
        <ele>954.9</ele>
        <time>2026-05-22T10:00:24Z</time>
      </trkpt>
      <trkpt lat="43.52108" lon="2.71064">
        <ele>954.9</ele>
        <time>2026-05-22T10:00:29Z</time>
      </trkpt>
      <trkpt lat="43.52108" lon="2.71064">
        <ele>954.9</ele>
        <time>2026-05-22T10:00:34Z</time>
      </trkpt>
      <trkpt lat="43.52108" lon="2.71064">
        <ele>954.9</ele>
        <time>2026-05-22T10:00:39Z</time>
      </trkpt>
      <trkpt lat="43.52113" lon="2.71055">
        <ele>955.8</ele>
        <time>2026-05-22T10:00:44Z</time>
      </trkpt>
      <trkpt lat="43.52113" lon="2.71055">
        <ele>955.8</ele>
        <time>2026-05-22T10:00:49Z</time>
      </trkpt>
      <trkpt lat="43.52113" lon="2.71055">
        <ele>955.8</ele>
        <time>2026-05-22T10:00:54Z</time>
      </trkpt>
      <trkpt lat="43.52113" lon="2.71055">
        <ele>955.8</ele>
        <time>2026-05-22T10:00:59Z</time>
      </trkpt>
      <trkpt lat="43.52113" lon="2.71055">
        <ele>955.8</ele>
        <time>2026-05-22T10:01:04Z</time>
      </trkpt>
      <trkpt lat="43.52113" lon="2.71055">
        <ele>955.8</ele>
        <time>2026-05-22T10:01:09Z</time>
      </trkpt>
      <trkpt lat="43.52113" lon="2.71055">
        <ele>955.8</ele>
        <time>2026-05-22T10:01:14Z</time>
      </trkpt>
      <trkpt lat="43.52113" lon="2.71055">
        <ele>955.8</ele>
        <time>2026-05-22T10:01:19Z</time>
      </trkpt>
      <trkpt lat="43.52113" lon="2.71055">
        <ele>955.8</ele>
        <time>2026-05-22T10:01:24Z</time>
      </trkpt>
      <trkpt lat="43.52113" lon="2.71055">
        <ele>955.8</ele>
        <time>2026-05-22T10:01:29Z</time>
      </trkpt>
      <trkpt lat="43.52113" lon="2.71055">
        <ele>955.8</ele>
        <time>2026-05-22T10:01:34Z</time>
      </trkpt>
      <trkpt lat="43.52113" lon="2.71055">
        <ele>955.8</ele>
        <time>2026-05-22T10:01:39Z</time>
      </trkpt>
      <trkpt lat="43.52113" lon="2.71055">
        <ele>955.8</ele>
        <time>2026-05-22T10:01:44Z</time>
      </trkpt>
      <trkpt lat="43.52113" lon="2.71055">
        <ele>955.8</ele>
        <time>2026-05-22T10:01:49Z</time>
      </trkpt>
      <trkpt lat="43.52113" lon="2.71055">
        <ele>955.8</ele>
        <time>2026-05-22T10:01:54Z</time>
      </trkpt>
      <trkpt lat="43.52117" lon="2.71045">
        <ele>956.4</ele>
        <time>2026-05-22T10:01:59Z</time>
      </trkpt>
      <trkpt lat="43.52119" lon="2.71043">
        <ele>956.7</ele>
        <time>2026-05-22T10:02:04Z</time>
      </trkpt>
      <trkpt lat="43.52121" lon="2.71038">
        <ele>957</ele>
        <time>2026-05-22T10:02:09Z</time>
      </trkpt>
      <trkpt lat="43.52125" lon="2.71027">
        <ele>957.5</ele>
        <time>2026-05-22T10:02:14Z</time>
      </trkpt>
      <trkpt lat="43.52127" lon="2.71016">
        <ele>957.6</ele>
        <time>2026-05-22T10:02:19Z</time>
      </trkpt>
      <trkpt lat="43.5213" lon="2.71005">
        <ele>957.8</ele>
        <time>2026-05-22T10:02:24Z</time>
      </trkpt>
      <trkpt lat="43.52133" lon="2.70998">
        <ele>958.6</ele>
        <time>2026-05-22T10:02:29Z</time>
      </trkpt>
      <trkpt lat="43.52132" lon="2.7099">
        <ele>960.2</ele>
        <time>2026-05-22T10:02:34Z</time>
      </trkpt>
      <trkpt lat="43.52127" lon="2.70983">
        <ele>961.1</ele>
        <time>2026-05-22T10:02:39Z</time>
      </trkpt>
      <trkpt lat="43.52119" lon="2.70981">
        <ele>960.3</ele>
        <time>2026-05-22T10:02:44Z</time>
      </trkpt>
      <trkpt lat="43.52115" lon="2.70983">
        <ele>959.3</ele>
        <time>2026-05-22T10:02:49Z</time>
      </trkpt>
      <trkpt lat="43.52114" lon="2.70984">
        <ele>958.9</ele>
        <time>2026-05-22T10:02:54Z</time>
      </trkpt>
      <trkpt lat="43.52114" lon="2.70984">
        <ele>958.9</ele>
        <time>2026-05-22T10:02:59Z</time>
      </trkpt>
      <trkpt lat="43.52114" lon="2.70984">
        <ele>958.9</ele>
        <time>2026-05-22T10:03:04Z</time>
      </trkpt>
      <trkpt lat="43.52114" lon="2.70984">
        <ele>958.9</ele>
        <time>2026-05-22T10:03:09Z</time>
      </trkpt>
      <trkpt lat="43.52114" lon="2.70984">
        <ele>958.9</ele>
        <time>2026-05-22T10:03:14Z</time>
      </trkpt>
      <trkpt lat="43.52114" lon="2.70984">
        <ele>958.9</ele>
        <time>2026-05-22T10:03:19Z</time>
      </trkpt>
      <trkpt lat="43.52114" lon="2.70984">
        <ele>958.9</ele>
        <time>2026-05-22T10:03:24Z</time>
      </trkpt>
      <trkpt lat="43.52114" lon="2.70984">
        <ele>958.9</ele>
        <time>2026-05-22T10:03:29Z</time>
      </trkpt>
      <trkpt lat="43.52114" lon="2.70984">
        <ele>958.9</ele>
        <time>2026-05-22T10:03:34Z</time>
      </trkpt>
      <trkpt lat="43.52114" lon="2.70984">
        <ele>958.9</ele>
        <time>2026-05-22T10:03:39Z</time>
      </trkpt>
      <trkpt lat="43.52114" lon="2.70984">
        <ele>958.9</ele>
        <time>2026-05-22T10:03:44Z</time>
      </trkpt>
      <trkpt lat="43.52114" lon="2.70984">
        <ele>958.9</ele>
        <time>2026-05-22T10:03:49Z</time>
      </trkpt>
      <trkpt lat="43.52114" lon="2.70984">
        <ele>958.9</ele>
        <time>2026-05-22T10:03:54Z</time>
      </trkpt>
      <trkpt lat="43.52114" lon="2.70984">
        <ele>958.9</ele>
        <time>2026-05-22T10:03:59Z</time>
      </trkpt>
      <trkpt lat="43.52114" lon="2.70984">
        <ele>958.9</ele>
        <time>2026-05-22T10:04:04Z</time>
      </trkpt>
      <trkpt lat="43.52114" lon="2.70984">
        <ele>958.9</ele>
        <time>2026-05-22T10:04:09Z</time>
      </trkpt>
      <trkpt lat="43.52114" lon="2.70984">
        <ele>958.9</ele>
        <time>2026-05-22T10:04:14Z</time>
      </trkpt>
      <trkpt lat="43.52114" lon="2.70984">
        <ele>958.9</ele>
        <time>2026-05-22T10:04:19Z</time>
      </trkpt>
      <trkpt lat="43.52114" lon="2.70984">
        <ele>958.9</ele>
        <time>2026-05-22T10:04:24Z</time>
      </trkpt>
      <trkpt lat="43.52114" lon="2.70984">
        <ele>958.9</ele>
        <time>2026-05-22T10:04:29Z</time>
      </trkpt>
      <trkpt lat="43.52114" lon="2.70984">
        <ele>958.9</ele>
        <time>2026-05-22T10:04:34Z</time>
      </trkpt>
      <trkpt lat="43.52114" lon="2.70984">
        <ele>958.9</ele>
        <time>2026-05-22T10:04:39Z</time>
      </trkpt>
      <trkpt lat="43.52114" lon="2.70984">
        <ele>958.9</ele>
        <time>2026-05-22T10:04:44Z</time>
      </trkpt>
      <trkpt lat="43.52114" lon="2.70984">
        <ele>958.9</ele>
        <time>2026-05-22T10:04:49Z</time>
      </trkpt>
      <trkpt lat="43.52114" lon="2.70984">
        <ele>958.9</ele>
        <time>2026-05-22T10:04:54Z</time>
      </trkpt>
      <trkpt lat="43.52114" lon="2.70984">
        <ele>958.9</ele>
        <time>2026-05-22T10:04:59Z</time>
      </trkpt>
      <trkpt lat="43.52114" lon="2.70984">
        <ele>958.9</ele>
        <time>2026-05-22T10:05:04Z</time>
      </trkpt>
      <trkpt lat="43.52114" lon="2.70984">
        <ele>958.9</ele>
        <time>2026-05-22T10:05:09Z</time>
      </trkpt>
      <trkpt lat="43.52114" lon="2.70984">
        <ele>958.9</ele>
        <time>2026-05-22T10:05:14Z</time>
      </trkpt>
      <trkpt lat="43.52114" lon="2.70984">
        <ele>958.9</ele>
        <time>2026-05-22T10:05:19Z</time>
      </trkpt>
      <trkpt lat="43.52114" lon="2.70984">
        <ele>958.9</ele>
        <time>2026-05-22T10:05:24Z</time>
      </trkpt>
      <trkpt lat="43.52114" lon="2.70984">
        <ele>958.9</ele>
        <time>2026-05-22T10:05:29Z</time>
      </trkpt>
      <trkpt lat="43.52114" lon="2.70984">
        <ele>958.9</ele>
        <time>2026-05-22T10:05:34Z</time>
      </trkpt>
      <trkpt lat="43.52114" lon="2.70984">
        <ele>958.9</ele>
        <time>2026-05-22T10:05:39Z</time>
      </trkpt>
      <trkpt lat="43.52114" lon="2.70984">
        <ele>958.9</ele>
        <time>2026-05-22T10:05:44Z</time>
      </trkpt>
      <trkpt lat="43.52114" lon="2.70984">
        <ele>958.9</ele>
        <time>2026-05-22T10:05:49Z</time>
      </trkpt>
      <trkpt lat="43.52114" lon="2.70984">
        <ele>958.9</ele>
        <time>2026-05-22T10:05:54Z</time>
      </trkpt>
      <trkpt lat="43.52114" lon="2.70984">
        <ele>958.9</ele>
        <time>2026-05-22T10:05:59Z</time>
      </trkpt>
      <trkpt lat="43.52114" lon="2.70984">
        <ele>958.9</ele>
        <time>2026-05-22T10:06:04Z</time>
      </trkpt>
      <trkpt lat="43.52114" lon="2.70984">
        <ele>958.9</ele>
        <time>2026-05-22T10:06:09Z</time>
      </trkpt>
      <trkpt lat="43.52114" lon="2.70984">
        <ele>958.9</ele>
        <time>2026-05-22T10:06:14Z</time>
      </trkpt>
      <trkpt lat="43.52114" lon="2.70984">
        <ele>958.9</ele>
        <time>2026-05-22T10:06:19Z</time>
      </trkpt>
      <trkpt lat="43.52114" lon="2.70984">
        <ele>958.9</ele>
        <time>2026-05-22T10:06:24Z</time>
      </trkpt>
      <trkpt lat="43.52114" lon="2.70984">
        <ele>958.9</ele>
        <time>2026-05-22T10:06:29Z</time>
      </trkpt>
      <trkpt lat="43.52114" lon="2.70984">
        <ele>958.9</ele>
        <time>2026-05-22T10:06:34Z</time>
      </trkpt>
      <trkpt lat="43.52114" lon="2.70984">
        <ele>958.9</ele>
        <time>2026-05-22T10:06:39Z</time>
      </trkpt>
      <trkpt lat="43.52114" lon="2.70984">
        <ele>958.9</ele>
        <time>2026-05-22T10:06:44Z</time>
      </trkpt>
      <trkpt lat="43.52114" lon="2.70984">
        <ele>958.9</ele>
        <time>2026-05-22T10:06:49Z</time>
      </trkpt>
      <trkpt lat="43.52114" lon="2.70984">
        <ele>958.9</ele>
        <time>2026-05-22T10:06:54Z</time>
      </trkpt>
      <trkpt lat="43.52114" lon="2.70984">
        <ele>958.9</ele>
        <time>2026-05-22T10:06:59Z</time>
      </trkpt>
      <trkpt lat="43.5211" lon="2.70979">
        <ele>959.5</ele>
        <time>2026-05-22T10:07:04Z</time>
      </trkpt>
      <trkpt lat="43.52105" lon="2.70973">
        <ele>960</ele>
        <time>2026-05-22T10:07:09Z</time>
      </trkpt>
      <trkpt lat="43.52098" lon="2.70969">
        <ele>959.9</ele>
        <time>2026-05-22T10:07:14Z</time>
      </trkpt>
      <trkpt lat="43.52093" lon="2.70965">
        <ele>960</ele>
        <time>2026-05-22T10:07:19Z</time>
      </trkpt>
      <trkpt lat="43.52088" lon="2.70963">
        <ele>959.7</ele>
        <time>2026-05-22T10:07:24Z</time>
      </trkpt>
      <trkpt lat="43.52079" lon="2.70962">
        <ele>958.4</ele>
        <time>2026-05-22T10:07:29Z</time>
      </trkpt>
      <trkpt lat="43.52071" lon="2.70962">
        <ele>956.9</ele>
        <time>2026-05-22T10:07:34Z</time>
      </trkpt>
      <trkpt lat="43.52064" lon="2.70959">
        <ele>956.3</ele>
        <time>2026-05-22T10:07:39Z</time>
      </trkpt>
      <trkpt lat="43.52057" lon="2.70957">
        <ele>955.4</ele>
        <time>2026-05-22T10:07:44Z</time>
      </trkpt>
      <trkpt lat="43.52051" lon="2.70957">
        <ele>954.2</ele>
        <time>2026-05-22T10:07:49Z</time>
      </trkpt>
      <trkpt lat="43.52044" lon="2.70955">
        <ele>953.3</ele>
        <time>2026-05-22T10:07:54Z</time>
      </trkpt>
      <trkpt lat="43.52038" lon="2.70956">
        <ele>952</ele>
        <time>2026-05-22T10:07:59Z</time>
      </trkpt>
      <trkpt lat="43.5203" lon="2.70955">
        <ele>950.7</ele>
        <time>2026-05-22T10:08:04Z</time>
      </trkpt>
      <trkpt lat="43.52023" lon="2.70952">
        <ele>949.9</ele>
        <time>2026-05-22T10:08:09Z</time>
      </trkpt>
      <trkpt lat="43.52017" lon="2.70951">
        <ele>948.9</ele>
        <time>2026-05-22T10:08:14Z</time>
      </trkpt>
      <trkpt lat="43.52011" lon="2.7095">
        <ele>947.9</ele>
        <time>2026-05-22T10:08:19Z</time>
      </trkpt>
      <trkpt lat="43.52005" lon="2.70948">
        <ele>947.1</ele>
        <time>2026-05-22T10:08:24Z</time>
      </trkpt>
      <trkpt lat="43.51998" lon="2.70947">
        <ele>945.7</ele>
        <time>2026-05-22T10:08:29Z</time>
      </trkpt>
      <trkpt lat="43.5199" lon="2.70946">
        <ele>943.8</ele>
        <time>2026-05-22T10:08:34Z</time>
      </trkpt>
      <trkpt lat="43.51982" lon="2.70946">
        <ele>941.7</ele>
        <time>2026-05-22T10:08:39Z</time>
      </trkpt>
      <trkpt lat="43.51976" lon="2.70946">
        <ele>940.2</ele>
        <time>2026-05-22T10:08:44Z</time>
      </trkpt>
      <trkpt lat="43.5197" lon="2.70943">
        <ele>939.1</ele>
        <time>2026-05-22T10:08:49Z</time>
      </trkpt>
      <trkpt lat="43.51962" lon="2.70939">
        <ele>937.6</ele>
        <time>2026-05-22T10:08:54Z</time>
      </trkpt>
      <trkpt lat="43.51957" lon="2.70934">
        <ele>937.1</ele>
        <time>2026-05-22T10:08:59Z</time>
      </trkpt>
      <trkpt lat="43.51952" lon="2.70928">
        <ele>936.6</ele>
        <time>2026-05-22T10:09:04Z</time>
      </trkpt>
      <trkpt lat="43.51946" lon="2.7092">
        <ele>936.2</ele>
        <time>2026-05-22T10:09:09Z</time>
      </trkpt>
      <trkpt lat="43.51943" lon="2.7091">
        <ele>936.5</ele>
        <time>2026-05-22T10:09:14Z</time>
      </trkpt>
      <trkpt lat="43.51939" lon="2.70902">
        <ele>936.1</ele>
        <time>2026-05-22T10:09:19Z</time>
      </trkpt>
      <trkpt lat="43.51937" lon="2.70894">
        <ele>936.3</ele>
        <time>2026-05-22T10:09:24Z</time>
      </trkpt>
      <trkpt lat="43.51936" lon="2.70885">
        <ele>936.8</ele>
        <time>2026-05-22T10:09:29Z</time>
      </trkpt>
      <trkpt lat="43.51934" lon="2.70875">
        <ele>937.2</ele>
        <time>2026-05-22T10:09:34Z</time>
      </trkpt>
      <trkpt lat="43.51933" lon="2.70866">
        <ele>937.7</ele>
        <time>2026-05-22T10:09:39Z</time>
      </trkpt>
      <trkpt lat="43.51932" lon="2.70859">
        <ele>938.1</ele>
        <time>2026-05-22T10:09:44Z</time>
      </trkpt>
      <trkpt lat="43.51931" lon="2.70851">
        <ele>938.5</ele>
        <time>2026-05-22T10:09:49Z</time>
      </trkpt>
      <trkpt lat="43.51927" lon="2.70843">
        <ele>938.4</ele>
        <time>2026-05-22T10:09:54Z</time>
      </trkpt>
      <trkpt lat="43.51925" lon="2.70835">
        <ele>938.6</ele>
        <time>2026-05-22T10:09:59Z</time>
      </trkpt>
      <trkpt lat="43.51925" lon="2.70825">
        <ele>938.7</ele>
        <time>2026-05-22T10:10:04Z</time>
      </trkpt>
      <trkpt lat="43.51926" lon="2.70814">
        <ele>938.8</ele>
        <time>2026-05-22T10:10:09Z</time>
      </trkpt>
      <trkpt lat="43.51925" lon="2.70803">
        <ele>938.4</ele>
        <time>2026-05-22T10:10:14Z</time>
      </trkpt>
      <trkpt lat="43.51926" lon="2.70792">
        <ele>938.5</ele>
        <time>2026-05-22T10:10:19Z</time>
      </trkpt>
      <trkpt lat="43.51923" lon="2.7078">
        <ele>937.7</ele>
        <time>2026-05-22T10:10:24Z</time>
      </trkpt>
      <trkpt lat="43.51923" lon="2.70771">
        <ele>937.6</ele>
        <time>2026-05-22T10:10:29Z</time>
      </trkpt>
      <trkpt lat="43.51924" lon="2.70763">
        <ele>937.7</ele>
        <time>2026-05-22T10:10:34Z</time>
      </trkpt>
      <trkpt lat="43.51924" lon="2.70752">
        <ele>937.5</ele>
        <time>2026-05-22T10:10:39Z</time>
      </trkpt>
      <trkpt lat="43.51924" lon="2.70745">
        <ele>937.7</ele>
        <time>2026-05-22T10:10:44Z</time>
      </trkpt>
      <trkpt lat="43.51924" lon="2.70737">
        <ele>937.9</ele>
        <time>2026-05-22T10:10:49Z</time>
      </trkpt>
      <trkpt lat="43.51924" lon="2.70729">
        <ele>938.2</ele>
        <time>2026-05-22T10:10:54Z</time>
      </trkpt>
      <trkpt lat="43.51924" lon="2.70721">
        <ele>938.4</ele>
        <time>2026-05-22T10:10:59Z</time>
      </trkpt>
      <trkpt lat="43.51923" lon="2.70712">
        <ele>938.6</ele>
        <time>2026-05-22T10:11:04Z</time>
      </trkpt>
      <trkpt lat="43.51922" lon="2.70701">
        <ele>938.7</ele>
        <time>2026-05-22T10:11:09Z</time>
      </trkpt>
      <trkpt lat="43.51924" lon="2.70692">
        <ele>939.4</ele>
        <time>2026-05-22T10:11:14Z</time>
      </trkpt>
      <trkpt lat="43.51924" lon="2.70683">
        <ele>939.7</ele>
        <time>2026-05-22T10:11:19Z</time>
      </trkpt>
      <trkpt lat="43.51925" lon="2.70674">
        <ele>940.2</ele>
        <time>2026-05-22T10:11:24Z</time>
      </trkpt>
      <trkpt lat="43.51924" lon="2.70663">
        <ele>940.5</ele>
        <time>2026-05-22T10:11:29Z</time>
      </trkpt>
      <trkpt lat="43.51925" lon="2.70651">
        <ele>941.4</ele>
        <time>2026-05-22T10:11:34Z</time>
      </trkpt>
      <trkpt lat="43.51925" lon="2.70643">
        <ele>941.9</ele>
        <time>2026-05-22T10:11:39Z</time>
      </trkpt>
      <trkpt lat="43.51922" lon="2.70636">
        <ele>942</ele>
        <time>2026-05-22T10:11:44Z</time>
      </trkpt>
      <trkpt lat="43.51919" lon="2.70625">
        <ele>942.3</ele>
        <time>2026-05-22T10:11:49Z</time>
      </trkpt>
      <trkpt lat="43.51916" lon="2.70612">
        <ele>942.9</ele>
        <time>2026-05-22T10:11:54Z</time>
      </trkpt>
      <trkpt lat="43.51913" lon="2.70603">
        <ele>943.6</ele>
        <time>2026-05-22T10:11:59Z</time>
      </trkpt>
      <trkpt lat="43.51909" lon="2.70596">
        <ele>944.1</ele>
        <time>2026-05-22T10:12:04Z</time>
      </trkpt>
      <trkpt lat="43.51909" lon="2.70595">
        <ele>944.2</ele>
        <time>2026-05-22T10:12:09Z</time>
      </trkpt>
      <trkpt lat="43.51909" lon="2.70593">
        <ele>944.4</ele>
        <time>2026-05-22T10:12:14Z</time>
      </trkpt>
      <trkpt lat="43.51909" lon="2.70593">
        <ele>944.4</ele>
        <time>2026-05-22T10:12:19Z</time>
      </trkpt>
      <trkpt lat="43.51909" lon="2.70593">
        <ele>944.4</ele>
        <time>2026-05-22T10:12:24Z</time>
      </trkpt>
      <trkpt lat="43.51909" lon="2.70593">
        <ele>944.4</ele>
        <time>2026-05-22T10:12:29Z</time>
      </trkpt>
      <trkpt lat="43.51903" lon="2.70591">
        <ele>944.6</ele>
        <time>2026-05-22T10:12:34Z</time>
      </trkpt>
      <trkpt lat="43.51901" lon="2.70586">
        <ele>945</ele>
        <time>2026-05-22T10:12:39Z</time>
      </trkpt>
      <trkpt lat="43.51897" lon="2.7058">
        <ele>945.5</ele>
        <time>2026-05-22T10:12:44Z</time>
      </trkpt>
      <trkpt lat="43.51892" lon="2.70577">
        <ele>945.9</ele>
        <time>2026-05-22T10:12:49Z</time>
      </trkpt>
      <trkpt lat="43.51887" lon="2.70571">
        <ele>946.4</ele>
        <time>2026-05-22T10:12:54Z</time>
      </trkpt>
      <trkpt lat="43.51879" lon="2.70565">
        <ele>947</ele>
        <time>2026-05-22T10:12:59Z</time>
      </trkpt>
      <trkpt lat="43.51874" lon="2.70557">
        <ele>947.7</ele>
        <time>2026-05-22T10:13:04Z</time>
      </trkpt>
      <trkpt lat="43.51868" lon="2.70548">
        <ele>948.5</ele>
        <time>2026-05-22T10:13:09Z</time>
      </trkpt>
      <trkpt lat="43.51861" lon="2.70542">
        <ele>949</ele>
        <time>2026-05-22T10:13:14Z</time>
      </trkpt>
      <trkpt lat="43.51854" lon="2.70536">
        <ele>949.4</ele>
        <time>2026-05-22T10:13:19Z</time>
      </trkpt>
      <trkpt lat="43.5185" lon="2.70528">
        <ele>950</ele>
        <time>2026-05-22T10:13:24Z</time>
      </trkpt>
      <trkpt lat="43.51847" lon="2.70522">
        <ele>950.5</ele>
        <time>2026-05-22T10:13:29Z</time>
      </trkpt>
      <trkpt lat="43.51845" lon="2.70519">
        <ele>950.7</ele>
        <time>2026-05-22T10:13:34Z</time>
      </trkpt>
      <trkpt lat="43.51844" lon="2.70513">
        <ele>951.2</ele>
        <time>2026-05-22T10:13:39Z</time>
      </trkpt>
      <trkpt lat="43.51844" lon="2.70505">
        <ele>951.8</ele>
        <time>2026-05-22T10:13:44Z</time>
      </trkpt>
      <trkpt lat="43.51845" lon="2.70496">
        <ele>952.3</ele>
        <time>2026-05-22T10:13:49Z</time>
      </trkpt>
      <trkpt lat="43.51844" lon="2.70484">
        <ele>952.7</ele>
        <time>2026-05-22T10:13:54Z</time>
      </trkpt>
      <trkpt lat="43.51845" lon="2.70472">
        <ele>953.1</ele>
        <time>2026-05-22T10:13:59Z</time>
      </trkpt>
      <trkpt lat="43.51844" lon="2.70462">
        <ele>953.4</ele>
        <time>2026-05-22T10:14:04Z</time>
      </trkpt>
      <trkpt lat="43.51845" lon="2.70454">
        <ele>953.7</ele>
        <time>2026-05-22T10:14:09Z</time>
      </trkpt>
      <trkpt lat="43.51845" lon="2.70444">
        <ele>954.1</ele>
        <time>2026-05-22T10:14:14Z</time>
      </trkpt>
      <trkpt lat="43.51845" lon="2.70434">
        <ele>954.4</ele>
        <time>2026-05-22T10:14:19Z</time>
      </trkpt>
      <trkpt lat="43.51844" lon="2.70428">
        <ele>954.6</ele>
        <time>2026-05-22T10:14:24Z</time>
      </trkpt>
      <trkpt lat="43.51841" lon="2.7042">
        <ele>954.9</ele>
        <time>2026-05-22T10:14:29Z</time>
      </trkpt>
      <trkpt lat="43.5184" lon="2.70414">
        <ele>954.9</ele>
        <time>2026-05-22T10:14:34Z</time>
      </trkpt>
      <trkpt lat="43.51839" lon="2.70412">
        <ele>954.9</ele>
        <time>2026-05-22T10:14:39Z</time>
      </trkpt>
      <trkpt lat="43.51838" lon="2.70411">
        <ele>954.9</ele>
        <time>2026-05-22T10:14:44Z</time>
      </trkpt>
      <trkpt lat="43.51837" lon="2.70405">
        <ele>954.7</ele>
        <time>2026-05-22T10:14:49Z</time>
      </trkpt>
      <trkpt lat="43.51835" lon="2.70396">
        <ele>954.5</ele>
        <time>2026-05-22T10:14:54Z</time>
      </trkpt>
      <trkpt lat="43.51833" lon="2.70387">
        <ele>954.3</ele>
        <time>2026-05-22T10:14:59Z</time>
      </trkpt>
      <trkpt lat="43.51832" lon="2.70379">
        <ele>954.1</ele>
        <time>2026-05-22T10:15:04Z</time>
      </trkpt>
      <trkpt lat="43.51829" lon="2.70372">
        <ele>954</ele>
        <time>2026-05-22T10:15:09Z</time>
      </trkpt>
      <trkpt lat="43.51827" lon="2.70366">
        <ele>953.9</ele>
        <time>2026-05-22T10:15:14Z</time>
      </trkpt>
      <trkpt lat="43.51826" lon="2.70358">
        <ele>953.7</ele>
        <time>2026-05-22T10:15:19Z</time>
      </trkpt>
      <trkpt lat="43.51825" lon="2.70349">
        <ele>953.6</ele>
        <time>2026-05-22T10:15:24Z</time>
      </trkpt>
      <trkpt lat="43.51824" lon="2.7034">
        <ele>953.4</ele>
        <time>2026-05-22T10:15:29Z</time>
      </trkpt>
      <trkpt lat="43.51824" lon="2.70331">
        <ele>953.2</ele>
        <time>2026-05-22T10:15:34Z</time>
      </trkpt>
      <trkpt lat="43.51822" lon="2.70323">
        <ele>953.2</ele>
        <time>2026-05-22T10:15:39Z</time>
      </trkpt>
      <trkpt lat="43.51822" lon="2.70314">
        <ele>953.1</ele>
        <time>2026-05-22T10:15:44Z</time>
      </trkpt>
      <trkpt lat="43.51823" lon="2.70303">
        <ele>953.1</ele>
        <time>2026-05-22T10:15:49Z</time>
      </trkpt>
      <trkpt lat="43.51823" lon="2.70294">
        <ele>953</ele>
        <time>2026-05-22T10:15:54Z</time>
      </trkpt>
      <trkpt lat="43.51824" lon="2.70284">
        <ele>953</ele>
        <time>2026-05-22T10:15:59Z</time>
      </trkpt>
      <trkpt lat="43.51824" lon="2.70274">
        <ele>952.9</ele>
        <time>2026-05-22T10:16:04Z</time>
      </trkpt>
      <trkpt lat="43.51825" lon="2.70264">
        <ele>952.9</ele>
        <time>2026-05-22T10:16:09Z</time>
      </trkpt>
      <trkpt lat="43.51828" lon="2.70254">
        <ele>952.9</ele>
        <time>2026-05-22T10:16:14Z</time>
      </trkpt>
      <trkpt lat="43.5183" lon="2.70246">
        <ele>952.5</ele>
        <time>2026-05-22T10:16:19Z</time>
      </trkpt>
      <trkpt lat="43.51832" lon="2.70237">
        <ele>951.7</ele>
        <time>2026-05-22T10:16:24Z</time>
      </trkpt>
      <trkpt lat="43.51832" lon="2.70229">
        <ele>950.9</ele>
        <time>2026-05-22T10:16:29Z</time>
      </trkpt>
      <trkpt lat="43.51831" lon="2.70221">
        <ele>950.1</ele>
        <time>2026-05-22T10:16:34Z</time>
      </trkpt>
      <trkpt lat="43.51831" lon="2.70212">
        <ele>949.3</ele>
        <time>2026-05-22T10:16:39Z</time>
      </trkpt>
      <trkpt lat="43.51832" lon="2.70203">
        <ele>948.4</ele>
        <time>2026-05-22T10:16:44Z</time>
      </trkpt>
      <trkpt lat="43.51831" lon="2.70195">
        <ele>947.6</ele>
        <time>2026-05-22T10:16:49Z</time>
      </trkpt>
      <trkpt lat="43.51831" lon="2.70191">
        <ele>947.2</ele>
        <time>2026-05-22T10:16:54Z</time>
      </trkpt>
      <trkpt lat="43.51829" lon="2.70183">
        <ele>946.4</ele>
        <time>2026-05-22T10:16:59Z</time>
      </trkpt>
      <trkpt lat="43.51827" lon="2.70174">
        <ele>945.4</ele>
        <time>2026-05-22T10:17:04Z</time>
      </trkpt>
      <trkpt lat="43.51826" lon="2.70167">
        <ele>944.7</ele>
        <time>2026-05-22T10:17:09Z</time>
      </trkpt>
      <trkpt lat="43.51825" lon="2.70158">
        <ele>944.1</ele>
        <time>2026-05-22T10:17:14Z</time>
      </trkpt>
      <trkpt lat="43.51826" lon="2.70145">
        <ele>943.4</ele>
        <time>2026-05-22T10:17:19Z</time>
      </trkpt>
      <trkpt lat="43.51825" lon="2.70134">
        <ele>942.7</ele>
        <time>2026-05-22T10:17:24Z</time>
      </trkpt>
      <trkpt lat="43.51824" lon="2.70126">
        <ele>942.2</ele>
        <time>2026-05-22T10:17:29Z</time>
      </trkpt>
      <trkpt lat="43.51823" lon="2.70117">
        <ele>941.6</ele>
        <time>2026-05-22T10:17:34Z</time>
      </trkpt>
      <trkpt lat="43.51823" lon="2.70106">
        <ele>941</ele>
        <time>2026-05-22T10:17:39Z</time>
      </trkpt>
      <trkpt lat="43.51821" lon="2.70098">
        <ele>940.4</ele>
        <time>2026-05-22T10:17:44Z</time>
      </trkpt>
      <trkpt lat="43.5182" lon="2.7009">
        <ele>939.9</ele>
        <time>2026-05-22T10:17:49Z</time>
      </trkpt>
      <trkpt lat="43.51817" lon="2.7008">
        <ele>939.7</ele>
        <time>2026-05-22T10:17:54Z</time>
      </trkpt>
      <trkpt lat="43.51815" lon="2.70072">
        <ele>940.5</ele>
        <time>2026-05-22T10:17:59Z</time>
      </trkpt>
      <trkpt lat="43.5181" lon="2.70064">
        <ele>941.1</ele>
        <time>2026-05-22T10:18:04Z</time>
      </trkpt>
      <trkpt lat="43.51806" lon="2.70056">
        <ele>941.9</ele>
        <time>2026-05-22T10:18:09Z</time>
      </trkpt>
      <trkpt lat="43.51801" lon="2.70048">
        <ele>942.6</ele>
        <time>2026-05-22T10:18:14Z</time>
      </trkpt>
      <trkpt lat="43.51794" lon="2.70045">
        <ele>942.7</ele>
        <time>2026-05-22T10:18:19Z</time>
      </trkpt>
      <trkpt lat="43.51791" lon="2.70044">
        <ele>942.7</ele>
        <time>2026-05-22T10:18:24Z</time>
      </trkpt>
      <trkpt lat="43.51789" lon="2.70041">
        <ele>943</ele>
        <time>2026-05-22T10:18:29Z</time>
      </trkpt>
      <trkpt lat="43.51787" lon="2.7004">
        <ele>943.1</ele>
        <time>2026-05-22T10:18:34Z</time>
      </trkpt>
      <trkpt lat="43.51787" lon="2.7004">
        <ele>943.1</ele>
        <time>2026-05-22T10:18:39Z</time>
      </trkpt>
      <trkpt lat="43.51787" lon="2.7004">
        <ele>943.1</ele>
        <time>2026-05-22T10:18:44Z</time>
      </trkpt>
      <trkpt lat="43.51787" lon="2.7004">
        <ele>943.1</ele>
        <time>2026-05-22T10:18:49Z</time>
      </trkpt>
      <trkpt lat="43.51787" lon="2.7004">
        <ele>943.1</ele>
        <time>2026-05-22T10:18:54Z</time>
      </trkpt>
      <trkpt lat="43.51787" lon="2.7004">
        <ele>943.1</ele>
        <time>2026-05-22T10:18:59Z</time>
      </trkpt>
      <trkpt lat="43.51787" lon="2.7004">
        <ele>943.1</ele>
        <time>2026-05-22T10:19:04Z</time>
      </trkpt>
      <trkpt lat="43.51787" lon="2.7004">
        <ele>943.1</ele>
        <time>2026-05-22T10:19:09Z</time>
      </trkpt>
      <trkpt lat="43.51787" lon="2.7004">
        <ele>943.1</ele>
        <time>2026-05-22T10:19:14Z</time>
      </trkpt>
      <trkpt lat="43.51787" lon="2.7004">
        <ele>943.1</ele>
        <time>2026-05-22T10:19:19Z</time>
      </trkpt>
      <trkpt lat="43.51787" lon="2.7004">
        <ele>943.1</ele>
        <time>2026-05-22T10:19:24Z</time>
      </trkpt>
      <trkpt lat="43.51787" lon="2.7004">
        <ele>943.1</ele>
        <time>2026-05-22T10:19:29Z</time>
      </trkpt>
      <trkpt lat="43.51787" lon="2.7004">
        <ele>943.1</ele>
        <time>2026-05-22T10:19:34Z</time>
      </trkpt>
      <trkpt lat="43.51787" lon="2.7004">
        <ele>943.1</ele>
        <time>2026-05-22T10:19:39Z</time>
      </trkpt>
      <trkpt lat="43.51787" lon="2.7004">
        <ele>943.1</ele>
        <time>2026-05-22T10:19:44Z</time>
      </trkpt>
      <trkpt lat="43.51787" lon="2.7004">
        <ele>943.1</ele>
        <time>2026-05-22T10:19:49Z</time>
      </trkpt>
      <trkpt lat="43.51787" lon="2.7004">
        <ele>943.1</ele>
        <time>2026-05-22T10:19:54Z</time>
      </trkpt>
      <trkpt lat="43.51787" lon="2.7004">
        <ele>943.1</ele>
        <time>2026-05-22T10:19:59Z</time>
      </trkpt>
      <trkpt lat="43.51787" lon="2.7004">
        <ele>943.1</ele>
        <time>2026-05-22T10:20:04Z</time>
      </trkpt>
      <trkpt lat="43.51787" lon="2.7004">
        <ele>943.1</ele>
        <time>2026-05-22T10:20:09Z</time>
      </trkpt>
      <trkpt lat="43.51787" lon="2.7004">
        <ele>943.1</ele>
        <time>2026-05-22T10:20:14Z</time>
      </trkpt>
      <trkpt lat="43.51787" lon="2.7004">
        <ele>943.1</ele>
        <time>2026-05-22T10:20:19Z</time>
      </trkpt>
      <trkpt lat="43.51787" lon="2.7004">
        <ele>943.1</ele>
        <time>2026-05-22T10:20:24Z</time>
      </trkpt>
      <trkpt lat="43.51787" lon="2.7004">
        <ele>943.1</ele>
        <time>2026-05-22T10:20:29Z</time>
      </trkpt>
      <trkpt lat="43.51787" lon="2.7004">
        <ele>943.1</ele>
        <time>2026-05-22T10:20:34Z</time>
      </trkpt>
      <trkpt lat="43.51787" lon="2.7004">
        <ele>943.1</ele>
        <time>2026-05-22T10:20:39Z</time>
      </trkpt>
      <trkpt lat="43.51787" lon="2.7004">
        <ele>943.1</ele>
        <time>2026-05-22T10:20:44Z</time>
      </trkpt>
      <trkpt lat="43.51787" lon="2.7004">
        <ele>943.1</ele>
        <time>2026-05-22T10:20:49Z</time>
      </trkpt>
      <trkpt lat="43.51787" lon="2.7004">
        <ele>943.1</ele>
        <time>2026-05-22T10:20:54Z</time>
      </trkpt>
      <trkpt lat="43.51787" lon="2.7004">
        <ele>943.1</ele>
        <time>2026-05-22T10:20:59Z</time>
      </trkpt>
      <trkpt lat="43.51787" lon="2.7004">
        <ele>943.1</ele>
        <time>2026-05-22T10:21:04Z</time>
      </trkpt>
      <trkpt lat="43.51787" lon="2.7004">
        <ele>943.1</ele>
        <time>2026-05-22T10:21:09Z</time>
      </trkpt>
      <trkpt lat="43.51787" lon="2.7004">
        <ele>943.1</ele>
        <time>2026-05-22T10:21:14Z</time>
      </trkpt>
      <trkpt lat="43.51787" lon="2.7004">
        <ele>943.1</ele>
        <time>2026-05-22T10:21:19Z</time>
      </trkpt>
      <trkpt lat="43.51787" lon="2.7004">
        <ele>943.1</ele>
        <time>2026-05-22T10:21:24Z</time>
      </trkpt>
      <trkpt lat="43.51787" lon="2.7004">
        <ele>943.1</ele>
        <time>2026-05-22T10:21:29Z</time>
      </trkpt>
      <trkpt lat="43.51787" lon="2.7004">
        <ele>943.1</ele>
        <time>2026-05-22T10:21:34Z</time>
      </trkpt>
      <trkpt lat="43.51787" lon="2.7004">
        <ele>943.1</ele>
        <time>2026-05-22T10:21:39Z</time>
      </trkpt>
      <trkpt lat="43.51787" lon="2.7004">
        <ele>943.1</ele>
        <time>2026-05-22T10:21:44Z</time>
      </trkpt>
      <trkpt lat="43.51787" lon="2.7004">
        <ele>943.1</ele>
        <time>2026-05-22T10:21:49Z</time>
      </trkpt>
      <trkpt lat="43.51787" lon="2.7004">
        <ele>943.1</ele>
        <time>2026-05-22T10:21:54Z</time>
      </trkpt>
      <trkpt lat="43.51787" lon="2.7004">
        <ele>943.1</ele>
        <time>2026-05-22T10:21:59Z</time>
      </trkpt>
      <trkpt lat="43.51787" lon="2.7004">
        <ele>943.1</ele>
        <time>2026-05-22T10:22:04Z</time>
      </trkpt>
      <trkpt lat="43.51787" lon="2.7004">
        <ele>943.1</ele>
        <time>2026-05-22T10:22:09Z</time>
      </trkpt>
      <trkpt lat="43.51787" lon="2.7004">
        <ele>943.1</ele>
        <time>2026-05-22T10:22:14Z</time>
      </trkpt>
      <trkpt lat="43.51786" lon="2.70023">
        <ele>944.9</ele>
        <time>2026-05-22T10:22:19Z</time>
      </trkpt>
      <trkpt lat="43.51781" lon="2.70021">
        <ele>945</ele>
        <time>2026-05-22T10:22:24Z</time>
      </trkpt>
      <trkpt lat="43.51775" lon="2.70019">
        <ele>945.2</ele>
        <time>2026-05-22T10:22:29Z</time>
      </trkpt>
      <trkpt lat="43.51769" lon="2.70018">
        <ele>945.2</ele>
        <time>2026-05-22T10:22:34Z</time>
      </trkpt>
      <trkpt lat="43.51763" lon="2.70015">
        <ele>945.4</ele>
        <time>2026-05-22T10:22:39Z</time>
      </trkpt>
      <trkpt lat="43.51758" lon="2.70014">
        <ele>945.4</ele>
        <time>2026-05-22T10:22:44Z</time>
      </trkpt>
      <trkpt lat="43.51754" lon="2.70012">
        <ele>945.6</ele>
        <time>2026-05-22T10:22:49Z</time>
      </trkpt>
      <trkpt lat="43.5175" lon="2.70011">
        <ele>945.7</ele>
        <time>2026-05-22T10:22:54Z</time>
      </trkpt>
      <trkpt lat="43.5175" lon="2.7001">
        <ele>945.8</ele>
        <time>2026-05-22T10:22:59Z</time>
      </trkpt>
      <trkpt lat="43.5175" lon="2.7001">
        <ele>945.8</ele>
        <time>2026-05-22T10:23:04Z</time>
      </trkpt>
      <trkpt lat="43.51742" lon="2.70008">
        <ele>946</ele>
        <time>2026-05-22T10:23:09Z</time>
      </trkpt>
      <trkpt lat="43.51736" lon="2.70009">
        <ele>945.9</ele>
        <time>2026-05-22T10:23:14Z</time>
      </trkpt>
      <trkpt lat="43.51733" lon="2.70007">
        <ele>946.1</ele>
        <time>2026-05-22T10:23:19Z</time>
      </trkpt>
      <trkpt lat="43.51729" lon="2.70004">
        <ele>946.5</ele>
        <time>2026-05-22T10:23:24Z</time>
      </trkpt>
      <trkpt lat="43.51726" lon="2.70002">
        <ele>946.7</ele>
        <time>2026-05-22T10:23:29Z</time>
      </trkpt>
      <trkpt lat="43.51722" lon="2.7">
        <ele>947</ele>
        <time>2026-05-22T10:23:34Z</time>
      </trkpt>
      <trkpt lat="43.51717" lon="2.69998">
        <ele>947.2</ele>
        <time>2026-05-22T10:23:39Z</time>
      </trkpt>
      <trkpt lat="43.51711" lon="2.69994">
        <ele>947.7</ele>
        <time>2026-05-22T10:23:44Z</time>
      </trkpt>
      <trkpt lat="43.51707" lon="2.69994">
        <ele>947.7</ele>
        <time>2026-05-22T10:23:49Z</time>
      </trkpt>
      <trkpt lat="43.51707" lon="2.69994">
        <ele>947.7</ele>
        <time>2026-05-22T10:23:54Z</time>
      </trkpt>
      <trkpt lat="43.51707" lon="2.69994">
        <ele>947.7</ele>
        <time>2026-05-22T10:23:59Z</time>
      </trkpt>
      <trkpt lat="43.51707" lon="2.69994">
        <ele>947.7</ele>
        <time>2026-05-22T10:24:04Z</time>
      </trkpt>
      <trkpt lat="43.51707" lon="2.69994">
        <ele>947.7</ele>
        <time>2026-05-22T10:24:09Z</time>
      </trkpt>
      <trkpt lat="43.51707" lon="2.69994">
        <ele>947.7</ele>
        <time>2026-05-22T10:24:14Z</time>
      </trkpt>
      <trkpt lat="43.51707" lon="2.69994">
        <ele>947.7</ele>
        <time>2026-05-22T10:24:19Z</time>
      </trkpt>
      <trkpt lat="43.51707" lon="2.69994">
        <ele>947.7</ele>
        <time>2026-05-22T10:24:24Z</time>
      </trkpt>
      <trkpt lat="43.51707" lon="2.69994">
        <ele>947.7</ele>
        <time>2026-05-22T10:24:29Z</time>
      </trkpt>
      <trkpt lat="43.51697" lon="2.69995">
        <ele>947.6</ele>
        <time>2026-05-22T10:24:34Z</time>
      </trkpt>
      <trkpt lat="43.51697" lon="2.69995">
        <ele>947.6</ele>
        <time>2026-05-22T10:24:39Z</time>
      </trkpt>
      <trkpt lat="43.51697" lon="2.69995">
        <ele>947.6</ele>
        <time>2026-05-22T10:24:44Z</time>
      </trkpt>
      <trkpt lat="43.51697" lon="2.69995">
        <ele>947.6</ele>
        <time>2026-05-22T10:24:49Z</time>
      </trkpt>
      <trkpt lat="43.51697" lon="2.69995">
        <ele>947.6</ele>
        <time>2026-05-22T10:24:54Z</time>
      </trkpt>
      <trkpt lat="43.51697" lon="2.69995">
        <ele>947.6</ele>
        <time>2026-05-22T10:24:59Z</time>
      </trkpt>
      <trkpt lat="43.51697" lon="2.69995">
        <ele>947.6</ele>
        <time>2026-05-22T10:25:04Z</time>
      </trkpt>
      <trkpt lat="43.51697" lon="2.69995">
        <ele>947.6</ele>
        <time>2026-05-22T10:25:09Z</time>
      </trkpt>
      <trkpt lat="43.51697" lon="2.69995">
        <ele>947.6</ele>
        <time>2026-05-22T10:25:14Z</time>
      </trkpt>
      <trkpt lat="43.51697" lon="2.69995">
        <ele>947.6</ele>
        <time>2026-05-22T10:25:19Z</time>
      </trkpt>
      <trkpt lat="43.51697" lon="2.69995">
        <ele>947.6</ele>
        <time>2026-05-22T10:25:24Z</time>
      </trkpt>
      <trkpt lat="43.51697" lon="2.69995">
        <ele>947.6</ele>
        <time>2026-05-22T10:25:29Z</time>
      </trkpt>
      <trkpt lat="43.51697" lon="2.69995">
        <ele>947.6</ele>
        <time>2026-05-22T10:25:34Z</time>
      </trkpt>
      <trkpt lat="43.51697" lon="2.69995">
        <ele>947.6</ele>
        <time>2026-05-22T10:25:39Z</time>
      </trkpt>
      <trkpt lat="43.51697" lon="2.69995">
        <ele>947.6</ele>
        <time>2026-05-22T10:25:44Z</time>
      </trkpt>
      <trkpt lat="43.51697" lon="2.69995">
        <ele>947.6</ele>
        <time>2026-05-22T10:25:49Z</time>
      </trkpt>
      <trkpt lat="43.51697" lon="2.69995">
        <ele>947.6</ele>
        <time>2026-05-22T10:25:54Z</time>
      </trkpt>
      <trkpt lat="43.51697" lon="2.69995">
        <ele>947.6</ele>
        <time>2026-05-22T10:25:59Z</time>
      </trkpt>
      <trkpt lat="43.51697" lon="2.69995">
        <ele>947.6</ele>
        <time>2026-05-22T10:26:04Z</time>
      </trkpt>
      <trkpt lat="43.51697" lon="2.69995">
        <ele>947.6</ele>
        <time>2026-05-22T10:26:09Z</time>
      </trkpt>
      <trkpt lat="43.51697" lon="2.69995">
        <ele>947.6</ele>
        <time>2026-05-22T10:26:14Z</time>
      </trkpt>
      <trkpt lat="43.51697" lon="2.69995">
        <ele>947.6</ele>
        <time>2026-05-22T10:26:19Z</time>
      </trkpt>
      <trkpt lat="43.51697" lon="2.69995">
        <ele>947.6</ele>
        <time>2026-05-22T10:26:24Z</time>
      </trkpt>
      <trkpt lat="43.51697" lon="2.69995">
        <ele>947.6</ele>
        <time>2026-05-22T10:26:29Z</time>
      </trkpt>
      <trkpt lat="43.51697" lon="2.69995">
        <ele>947.6</ele>
        <time>2026-05-22T10:26:34Z</time>
      </trkpt>
      <trkpt lat="43.51697" lon="2.69995">
        <ele>947.6</ele>
        <time>2026-05-22T10:26:39Z</time>
      </trkpt>
      <trkpt lat="43.51697" lon="2.69995">
        <ele>947.6</ele>
        <time>2026-05-22T10:26:44Z</time>
      </trkpt>
      <trkpt lat="43.51697" lon="2.69995">
        <ele>947.6</ele>
        <time>2026-05-22T10:26:49Z</time>
      </trkpt>
      <trkpt lat="43.51697" lon="2.69995">
        <ele>947.6</ele>
        <time>2026-05-22T10:26:54Z</time>
      </trkpt>
      <trkpt lat="43.51697" lon="2.69995">
        <ele>947.6</ele>
        <time>2026-05-22T10:26:59Z</time>
      </trkpt>
      <trkpt lat="43.51697" lon="2.69995">
        <ele>947.6</ele>
        <time>2026-05-22T10:27:04Z</time>
      </trkpt>
      <trkpt lat="43.51697" lon="2.69995">
        <ele>947.6</ele>
        <time>2026-05-22T10:27:09Z</time>
      </trkpt>
      <trkpt lat="43.51697" lon="2.69995">
        <ele>947.6</ele>
        <time>2026-05-22T10:27:14Z</time>
      </trkpt>
      <trkpt lat="43.51697" lon="2.69995">
        <ele>947.6</ele>
        <time>2026-05-22T10:27:19Z</time>
      </trkpt>
      <trkpt lat="43.51697" lon="2.69995">
        <ele>947.6</ele>
        <time>2026-05-22T10:27:24Z</time>
      </trkpt>
      <trkpt lat="43.51697" lon="2.69995">
        <ele>947.6</ele>
        <time>2026-05-22T10:27:29Z</time>
      </trkpt>
      <trkpt lat="43.51697" lon="2.69995">
        <ele>947.6</ele>
        <time>2026-05-22T10:27:34Z</time>
      </trkpt>
      <trkpt lat="43.51697" lon="2.69995">
        <ele>947.6</ele>
        <time>2026-05-22T10:27:39Z</time>
      </trkpt>
      <trkpt lat="43.51697" lon="2.69995">
        <ele>947.6</ele>
        <time>2026-05-22T10:27:44Z</time>
      </trkpt>
      <trkpt lat="43.51697" lon="2.69995">
        <ele>947.6</ele>
        <time>2026-05-22T10:27:49Z</time>
      </trkpt>
      <trkpt lat="43.51697" lon="2.69995">
        <ele>947.6</ele>
        <time>2026-05-22T10:27:54Z</time>
      </trkpt>
      <trkpt lat="43.51697" lon="2.69995">
        <ele>947.6</ele>
        <time>2026-05-22T10:27:59Z</time>
      </trkpt>
      <trkpt lat="43.51697" lon="2.69995">
        <ele>947.6</ele>
        <time>2026-05-22T10:28:04Z</time>
      </trkpt>
      <trkpt lat="43.51697" lon="2.69995">
        <ele>947.6</ele>
        <time>2026-05-22T10:28:09Z</time>
      </trkpt>
      <trkpt lat="43.51697" lon="2.69995">
        <ele>947.6</ele>
        <time>2026-05-22T10:28:14Z</time>
      </trkpt>
      <trkpt lat="43.51697" lon="2.69995">
        <ele>947.6</ele>
        <time>2026-05-22T10:28:19Z</time>
      </trkpt>
      <trkpt lat="43.51697" lon="2.69995">
        <ele>947.6</ele>
        <time>2026-05-22T10:28:24Z</time>
      </trkpt>
      <trkpt lat="43.51697" lon="2.69995">
        <ele>947.6</ele>
        <time>2026-05-22T10:28:29Z</time>
      </trkpt>
      <trkpt lat="43.51694" lon="2.69991">
        <ele>948</ele>
        <time>2026-05-22T10:28:34Z</time>
      </trkpt>
      <trkpt lat="43.51689" lon="2.69987">
        <ele>948.5</ele>
        <time>2026-05-22T10:28:39Z</time>
      </trkpt>
      <trkpt lat="43.51684" lon="2.69983">
        <ele>949</ele>
        <time>2026-05-22T10:28:44Z</time>
      </trkpt>
      <trkpt lat="43.5168" lon="2.69981">
        <ele>949.2</ele>
        <time>2026-05-22T10:28:49Z</time>
      </trkpt>
      <trkpt lat="43.51678" lon="2.69982">
        <ele>949.1</ele>
        <time>2026-05-22T10:28:54Z</time>
      </trkpt>
      <trkpt lat="43.51677" lon="2.69984">
        <ele>948.9</ele>
        <time>2026-05-22T10:28:59Z</time>
      </trkpt>
      <trkpt lat="43.51677" lon="2.69984">
        <ele>948.9</ele>
        <time>2026-05-22T10:29:04Z</time>
      </trkpt>
      <trkpt lat="43.51677" lon="2.69984">
        <ele>948.9</ele>
        <time>2026-05-22T10:29:09Z</time>
      </trkpt>
      <trkpt lat="43.51674" lon="2.69978">
        <ele>949.6</ele>
        <time>2026-05-22T10:29:14Z</time>
      </trkpt>
      <trkpt lat="43.5167" lon="2.69973">
        <ele>950.2</ele>
        <time>2026-05-22T10:29:19Z</time>
      </trkpt>
      <trkpt lat="43.51665" lon="2.69968">
        <ele>950.8</ele>
        <time>2026-05-22T10:29:24Z</time>
      </trkpt>
      <trkpt lat="43.5166" lon="2.69964">
        <ele>951.3</ele>
        <time>2026-05-22T10:29:29Z</time>
      </trkpt>
      <trkpt lat="43.51656" lon="2.69961">
        <ele>951.6</ele>
        <time>2026-05-22T10:29:34Z</time>
      </trkpt>
      <trkpt lat="43.51651" lon="2.69957">
        <ele>952</ele>
        <time>2026-05-22T10:29:39Z</time>
      </trkpt>
      <trkpt lat="43.51647" lon="2.69955">
        <ele>952.1</ele>
        <time>2026-05-22T10:29:44Z</time>
      </trkpt>
      <trkpt lat="43.51641" lon="2.69951">
        <ele>952.5</ele>
        <time>2026-05-22T10:29:49Z</time>
      </trkpt>
      <trkpt lat="43.51636" lon="2.6995">
        <ele>952.6</ele>
        <time>2026-05-22T10:29:54Z</time>
      </trkpt>
      <trkpt lat="43.51632" lon="2.69946">
        <ele>952.9</ele>
        <time>2026-05-22T10:29:59Z</time>
      </trkpt>
      <trkpt lat="43.51628" lon="2.69943">
        <ele>953.2</ele>
        <time>2026-05-22T10:30:04Z</time>
      </trkpt>
      <trkpt lat="43.51622" lon="2.69941">
        <ele>953.3</ele>
        <time>2026-05-22T10:30:09Z</time>
      </trkpt>
      <trkpt lat="43.51617" lon="2.69938">
        <ele>953.6</ele>
        <time>2026-05-22T10:30:14Z</time>
      </trkpt>
      <trkpt lat="43.51612" lon="2.69935">
        <ele>953.8</ele>
        <time>2026-05-22T10:30:19Z</time>
      </trkpt>
      <trkpt lat="43.51606" lon="2.69931">
        <ele>954.1</ele>
        <time>2026-05-22T10:30:24Z</time>
      </trkpt>
      <trkpt lat="43.51601" lon="2.69927">
        <ele>954.4</ele>
        <time>2026-05-22T10:30:29Z</time>
      </trkpt>
      <trkpt lat="43.51596" lon="2.69925">
        <ele>954.5</ele>
        <time>2026-05-22T10:30:34Z</time>
      </trkpt>
      <trkpt lat="43.51591" lon="2.69921">
        <ele>954.8</ele>
        <time>2026-05-22T10:30:39Z</time>
      </trkpt>
      <trkpt lat="43.51583" lon="2.69916">
        <ele>955.1</ele>
        <time>2026-05-22T10:30:44Z</time>
      </trkpt>
      <trkpt lat="43.51576" lon="2.69914">
        <ele>955.3</ele>
        <time>2026-05-22T10:30:49Z</time>
      </trkpt>
      <trkpt lat="43.51569" lon="2.69911">
        <ele>955.6</ele>
        <time>2026-05-22T10:30:54Z</time>
      </trkpt>
      <trkpt lat="43.51562" lon="2.69905">
        <ele>956.2</ele>
        <time>2026-05-22T10:30:59Z</time>
      </trkpt>
      <trkpt lat="43.51562" lon="2.69903">
        <ele>956.4</ele>
        <time>2026-05-22T10:31:04Z</time>
      </trkpt>
      <trkpt lat="43.51562" lon="2.69901">
        <ele>956.5</ele>
        <time>2026-05-22T10:31:09Z</time>
      </trkpt>
      <trkpt lat="43.51562" lon="2.699">
        <ele>956.6</ele>
        <time>2026-05-22T10:31:14Z</time>
      </trkpt>
      <trkpt lat="43.51562" lon="2.699">
        <ele>956.6</ele>
        <time>2026-05-22T10:31:19Z</time>
      </trkpt>
      <trkpt lat="43.51562" lon="2.699">
        <ele>956.6</ele>
        <time>2026-05-22T10:31:24Z</time>
      </trkpt>
      <trkpt lat="43.51562" lon="2.699">
        <ele>956.6</ele>
        <time>2026-05-22T10:31:29Z</time>
      </trkpt>
      <trkpt lat="43.51562" lon="2.699">
        <ele>956.6</ele>
        <time>2026-05-22T10:31:34Z</time>
      </trkpt>
      <trkpt lat="43.51562" lon="2.699">
        <ele>956.6</ele>
        <time>2026-05-22T10:31:39Z</time>
      </trkpt>
      <trkpt lat="43.51562" lon="2.699">
        <ele>956.6</ele>
        <time>2026-05-22T10:31:44Z</time>
      </trkpt>
      <trkpt lat="43.51562" lon="2.699">
        <ele>956.6</ele>
        <time>2026-05-22T10:31:49Z</time>
      </trkpt>
      <trkpt lat="43.51562" lon="2.699">
        <ele>956.6</ele>
        <time>2026-05-22T10:31:54Z</time>
      </trkpt>
      <trkpt lat="43.51562" lon="2.699">
        <ele>956.6</ele>
        <time>2026-05-22T10:31:59Z</time>
      </trkpt>
      <trkpt lat="43.51562" lon="2.699">
        <ele>956.6</ele>
        <time>2026-05-22T10:32:04Z</time>
      </trkpt>
      <trkpt lat="43.51562" lon="2.699">
        <ele>956.6</ele>
        <time>2026-05-22T10:32:09Z</time>
      </trkpt>
      <trkpt lat="43.51562" lon="2.699">
        <ele>956.6</ele>
        <time>2026-05-22T10:32:14Z</time>
      </trkpt>
      <trkpt lat="43.51562" lon="2.699">
        <ele>956.6</ele>
        <time>2026-05-22T10:32:19Z</time>
      </trkpt>
      <trkpt lat="43.51562" lon="2.699">
        <ele>956.6</ele>
        <time>2026-05-22T10:32:24Z</time>
      </trkpt>
      <trkpt lat="43.51562" lon="2.699">
        <ele>956.6</ele>
        <time>2026-05-22T10:32:29Z</time>
      </trkpt>
      <trkpt lat="43.51562" lon="2.699">
        <ele>956.6</ele>
        <time>2026-05-22T10:32:34Z</time>
      </trkpt>
      <trkpt lat="43.51562" lon="2.699">
        <ele>956.6</ele>
        <time>2026-05-22T10:32:39Z</time>
      </trkpt>
      <trkpt lat="43.51562" lon="2.699">
        <ele>956.6</ele>
        <time>2026-05-22T10:32:44Z</time>
      </trkpt>
      <trkpt lat="43.51562" lon="2.699">
        <ele>956.6</ele>
        <time>2026-05-22T10:32:49Z</time>
      </trkpt>
      <trkpt lat="43.51562" lon="2.699">
        <ele>956.6</ele>
        <time>2026-05-22T10:32:54Z</time>
      </trkpt>
      <trkpt lat="43.51562" lon="2.699">
        <ele>956.6</ele>
        <time>2026-05-22T10:32:59Z</time>
      </trkpt>
      <trkpt lat="43.51562" lon="2.699">
        <ele>956.6</ele>
        <time>2026-05-22T10:33:04Z</time>
      </trkpt>
      <trkpt lat="43.51562" lon="2.699">
        <ele>956.6</ele>
        <time>2026-05-22T10:33:09Z</time>
      </trkpt>
      <trkpt lat="43.51562" lon="2.699">
        <ele>956.6</ele>
        <time>2026-05-22T10:33:14Z</time>
      </trkpt>
      <trkpt lat="43.51562" lon="2.699">
        <ele>956.6</ele>
        <time>2026-05-22T10:33:19Z</time>
      </trkpt>
      <trkpt lat="43.51562" lon="2.699">
        <ele>956.6</ele>
        <time>2026-05-22T10:33:24Z</time>
      </trkpt>
      <trkpt lat="43.51562" lon="2.699">
        <ele>956.6</ele>
        <time>2026-05-22T10:33:29Z</time>
      </trkpt>
      <trkpt lat="43.51562" lon="2.699">
        <ele>956.6</ele>
        <time>2026-05-22T10:33:34Z</time>
      </trkpt>
      <trkpt lat="43.51562" lon="2.699">
        <ele>956.6</ele>
        <time>2026-05-22T10:33:39Z</time>
      </trkpt>
      <trkpt lat="43.51562" lon="2.699">
        <ele>956.6</ele>
        <time>2026-05-22T10:33:44Z</time>
      </trkpt>
      <trkpt lat="43.51562" lon="2.699">
        <ele>956.6</ele>
        <time>2026-05-22T10:33:49Z</time>
      </trkpt>
      <trkpt lat="43.51562" lon="2.699">
        <ele>956.6</ele>
        <time>2026-05-22T10:33:54Z</time>
      </trkpt>
      <trkpt lat="43.51562" lon="2.699">
        <ele>956.6</ele>
        <time>2026-05-22T10:33:59Z</time>
      </trkpt>
      <trkpt lat="43.51562" lon="2.699">
        <ele>956.6</ele>
        <time>2026-05-22T10:34:04Z</time>
      </trkpt>
      <trkpt lat="43.51562" lon="2.699">
        <ele>956.6</ele>
        <time>2026-05-22T10:34:09Z</time>
      </trkpt>
      <trkpt lat="43.51562" lon="2.699">
        <ele>956.6</ele>
        <time>2026-05-22T10:34:14Z</time>
      </trkpt>
      <trkpt lat="43.51562" lon="2.699">
        <ele>956.6</ele>
        <time>2026-05-22T10:34:19Z</time>
      </trkpt>
      <trkpt lat="43.51562" lon="2.699">
        <ele>956.6</ele>
        <time>2026-05-22T10:34:24Z</time>
      </trkpt>
      <trkpt lat="43.51562" lon="2.699">
        <ele>956.6</ele>
        <time>2026-05-22T10:34:29Z</time>
      </trkpt>
      <trkpt lat="43.51562" lon="2.699">
        <ele>956.6</ele>
        <time>2026-05-22T10:34:34Z</time>
      </trkpt>
      <trkpt lat="43.51562" lon="2.699">
        <ele>956.6</ele>
        <time>2026-05-22T10:34:39Z</time>
      </trkpt>
      <trkpt lat="43.51562" lon="2.699">
        <ele>956.6</ele>
        <time>2026-05-22T10:34:44Z</time>
      </trkpt>
      <trkpt lat="43.51562" lon="2.699">
        <ele>956.6</ele>
        <time>2026-05-22T10:34:49Z</time>
      </trkpt>
      <trkpt lat="43.51562" lon="2.699">
        <ele>956.6</ele>
        <time>2026-05-22T10:34:54Z</time>
      </trkpt>
      <trkpt lat="43.51562" lon="2.699">
        <ele>956.6</ele>
        <time>2026-05-22T10:34:59Z</time>
      </trkpt>
      <trkpt lat="43.51562" lon="2.699">
        <ele>956.6</ele>
        <time>2026-05-22T10:35:04Z</time>
      </trkpt>
      <trkpt lat="43.51562" lon="2.699">
        <ele>956.6</ele>
        <time>2026-05-22T10:35:09Z</time>
      </trkpt>
      <trkpt lat="43.51562" lon="2.699">
        <ele>956.6</ele>
        <time>2026-05-22T10:35:14Z</time>
      </trkpt>
      <trkpt lat="43.51562" lon="2.699">
        <ele>956.6</ele>
        <time>2026-05-22T10:35:19Z</time>
      </trkpt>
      <trkpt lat="43.51562" lon="2.699">
        <ele>956.6</ele>
        <time>2026-05-22T10:35:24Z</time>
      </trkpt>
      <trkpt lat="43.51562" lon="2.699">
        <ele>956.6</ele>
        <time>2026-05-22T10:35:29Z</time>
      </trkpt>
      <trkpt lat="43.51562" lon="2.699">
        <ele>956.6</ele>
        <time>2026-05-22T10:35:34Z</time>
      </trkpt>
      <trkpt lat="43.51562" lon="2.699">
        <ele>956.6</ele>
        <time>2026-05-22T10:35:39Z</time>
      </trkpt>
      <trkpt lat="43.51562" lon="2.699">
        <ele>956.6</ele>
        <time>2026-05-22T10:35:44Z</time>
      </trkpt>
      <trkpt lat="43.51562" lon="2.699">
        <ele>956.6</ele>
        <time>2026-05-22T10:35:49Z</time>
      </trkpt>
      <trkpt lat="43.51562" lon="2.699">
        <ele>956.6</ele>
        <time>2026-05-22T10:35:54Z</time>
      </trkpt>
      <trkpt lat="43.51562" lon="2.699">
        <ele>956.6</ele>
        <time>2026-05-22T10:35:59Z</time>
      </trkpt>
      <trkpt lat="43.51562" lon="2.699">
        <ele>956.6</ele>
        <time>2026-05-22T10:36:04Z</time>
      </trkpt>
      <trkpt lat="43.51562" lon="2.699">
        <ele>956.6</ele>
        <time>2026-05-22T10:36:09Z</time>
      </trkpt>
      <trkpt lat="43.51562" lon="2.699">
        <ele>956.6</ele>
        <time>2026-05-22T10:36:14Z</time>
      </trkpt>
      <trkpt lat="43.51562" lon="2.699">
        <ele>956.6</ele>
        <time>2026-05-22T10:36:19Z</time>
      </trkpt>
      <trkpt lat="43.51562" lon="2.699">
        <ele>956.6</ele>
        <time>2026-05-22T10:36:24Z</time>
      </trkpt>
      <trkpt lat="43.51562" lon="2.699">
        <ele>956.6</ele>
        <time>2026-05-22T10:36:29Z</time>
      </trkpt>
      <trkpt lat="43.51562" lon="2.699">
        <ele>956.6</ele>
        <time>2026-05-22T10:36:34Z</time>
      </trkpt>
      <trkpt lat="43.51562" lon="2.699">
        <ele>956.6</ele>
        <time>2026-05-22T10:36:39Z</time>
      </trkpt>
      <trkpt lat="43.51562" lon="2.699">
        <ele>956.6</ele>
        <time>2026-05-22T10:36:44Z</time>
      </trkpt>
      <trkpt lat="43.51562" lon="2.699">
        <ele>956.6</ele>
        <time>2026-05-22T10:36:49Z</time>
      </trkpt>
      <trkpt lat="43.51562" lon="2.699">
        <ele>956.6</ele>
        <time>2026-05-22T10:36:54Z</time>
      </trkpt>
      <trkpt lat="43.51562" lon="2.699">
        <ele>956.6</ele>
        <time>2026-05-22T10:36:59Z</time>
      </trkpt>
      <trkpt lat="43.51562" lon="2.699">
        <ele>956.6</ele>
        <time>2026-05-22T10:37:04Z</time>
      </trkpt>
      <trkpt lat="43.51562" lon="2.699">
        <ele>956.6</ele>
        <time>2026-05-22T10:37:09Z</time>
      </trkpt>
      <trkpt lat="43.51562" lon="2.699">
        <ele>956.6</ele>
        <time>2026-05-22T10:37:14Z</time>
      </trkpt>
      <trkpt lat="43.51562" lon="2.699">
        <ele>956.6</ele>
        <time>2026-05-22T10:37:19Z</time>
      </trkpt>
      <trkpt lat="43.51562" lon="2.699">
        <ele>956.6</ele>
        <time>2026-05-22T10:37:24Z</time>
      </trkpt>
      <trkpt lat="43.51562" lon="2.699">
        <ele>956.6</ele>
        <time>2026-05-22T10:37:29Z</time>
      </trkpt>
      <trkpt lat="43.51562" lon="2.699">
        <ele>956.6</ele>
        <time>2026-05-22T10:37:34Z</time>
      </trkpt>
      <trkpt lat="43.51562" lon="2.699">
        <ele>956.6</ele>
        <time>2026-05-22T10:37:39Z</time>
      </trkpt>
      <trkpt lat="43.51562" lon="2.699">
        <ele>956.6</ele>
        <time>2026-05-22T10:37:44Z</time>
      </trkpt>
      <trkpt lat="43.51562" lon="2.699">
        <ele>956.6</ele>
        <time>2026-05-22T10:37:49Z</time>
      </trkpt>
      <trkpt lat="43.51562" lon="2.699">
        <ele>956.6</ele>
        <time>2026-05-22T10:37:54Z</time>
      </trkpt>
      <trkpt lat="43.51562" lon="2.699">
        <ele>956.6</ele>
        <time>2026-05-22T10:37:59Z</time>
      </trkpt>
      <trkpt lat="43.51562" lon="2.699">
        <ele>956.6</ele>
        <time>2026-05-22T10:38:04Z</time>
      </trkpt>
      <trkpt lat="43.51562" lon="2.699">
        <ele>956.6</ele>
        <time>2026-05-22T10:38:09Z</time>
      </trkpt>
      <trkpt lat="43.51562" lon="2.699">
        <ele>956.6</ele>
        <time>2026-05-22T10:38:14Z</time>
      </trkpt>
      <trkpt lat="43.51562" lon="2.699">
        <ele>956.6</ele>
        <time>2026-05-22T10:38:19Z</time>
      </trkpt>
      <trkpt lat="43.51562" lon="2.699">
        <ele>956.6</ele>
        <time>2026-05-22T10:38:24Z</time>
      </trkpt>
      <trkpt lat="43.51562" lon="2.699">
        <ele>956.6</ele>
        <time>2026-05-22T10:38:29Z</time>
      </trkpt>
      <trkpt lat="43.51562" lon="2.699">
        <ele>956.6</ele>
        <time>2026-05-22T10:38:34Z</time>
      </trkpt>
      <trkpt lat="43.51562" lon="2.699">
        <ele>956.6</ele>
        <time>2026-05-22T10:38:39Z</time>
      </trkpt>
      <trkpt lat="43.51562" lon="2.699">
        <ele>956.6</ele>
        <time>2026-05-22T10:38:44Z</time>
      </trkpt>
      <trkpt lat="43.51562" lon="2.699">
        <ele>956.6</ele>
        <time>2026-05-22T10:38:49Z</time>
      </trkpt>
      <trkpt lat="43.51562" lon="2.699">
        <ele>956.6</ele>
        <time>2026-05-22T10:38:54Z</time>
      </trkpt>
      <trkpt lat="43.51562" lon="2.699">
        <ele>956.6</ele>
        <time>2026-05-22T10:38:59Z</time>
      </trkpt>
      <trkpt lat="43.51562" lon="2.699">
        <ele>956.6</ele>
        <time>2026-05-22T10:39:04Z</time>
      </trkpt>
      <trkpt lat="43.51562" lon="2.699">
        <ele>956.6</ele>
        <time>2026-05-22T10:39:09Z</time>
      </trkpt>
      <trkpt lat="43.51562" lon="2.699">
        <ele>956.6</ele>
        <time>2026-05-22T10:39:14Z</time>
      </trkpt>
      <trkpt lat="43.51562" lon="2.699">
        <ele>956.6</ele>
        <time>2026-05-22T10:39:19Z</time>
      </trkpt>
      <trkpt lat="43.51562" lon="2.699">
        <ele>956.6</ele>
        <time>2026-05-22T10:39:24Z</time>
      </trkpt>
      <trkpt lat="43.51562" lon="2.699">
        <ele>956.6</ele>
        <time>2026-05-22T10:39:29Z</time>
      </trkpt>
      <trkpt lat="43.51562" lon="2.699">
        <ele>956.6</ele>
        <time>2026-05-22T10:39:34Z</time>
      </trkpt>
      <trkpt lat="43.51562" lon="2.699">
        <ele>956.6</ele>
        <time>2026-05-22T10:39:39Z</time>
      </trkpt>
      <trkpt lat="43.51562" lon="2.699">
        <ele>956.6</ele>
        <time>2026-05-22T10:39:44Z</time>
      </trkpt>
      <trkpt lat="43.51562" lon="2.699">
        <ele>956.6</ele>
        <time>2026-05-22T10:39:49Z</time>
      </trkpt>
      <trkpt lat="43.51562" lon="2.699">
        <ele>956.6</ele>
        <time>2026-05-22T10:39:54Z</time>
      </trkpt>
      <trkpt lat="43.51562" lon="2.699">
        <ele>956.6</ele>
        <time>2026-05-22T10:39:59Z</time>
      </trkpt>
      <trkpt lat="43.51562" lon="2.699">
        <ele>956.6</ele>
        <time>2026-05-22T10:40:04Z</time>
      </trkpt>
      <trkpt lat="43.51562" lon="2.699">
        <ele>956.6</ele>
        <time>2026-05-22T10:40:09Z</time>
      </trkpt>
      <trkpt lat="43.51562" lon="2.699">
        <ele>956.6</ele>
        <time>2026-05-22T10:40:14Z</time>
      </trkpt>
      <trkpt lat="43.51562" lon="2.699">
        <ele>956.6</ele>
        <time>2026-05-22T10:40:19Z</time>
      </trkpt>
      <trkpt lat="43.51562" lon="2.699">
        <ele>956.6</ele>
        <time>2026-05-22T10:40:24Z</time>
      </trkpt>
      <trkpt lat="43.51562" lon="2.699">
        <ele>956.6</ele>
        <time>2026-05-22T10:40:29Z</time>
      </trkpt>
      <trkpt lat="43.51562" lon="2.699">
        <ele>956.6</ele>
        <time>2026-05-22T10:40:34Z</time>
      </trkpt>
      <trkpt lat="43.51562" lon="2.699">
        <ele>956.6</ele>
        <time>2026-05-22T10:40:39Z</time>
      </trkpt>
      <trkpt lat="43.51562" lon="2.699">
        <ele>956.6</ele>
        <time>2026-05-22T10:40:44Z</time>
      </trkpt>
      <trkpt lat="43.51562" lon="2.699">
        <ele>956.6</ele>
        <time>2026-05-22T10:40:49Z</time>
      </trkpt>
      <trkpt lat="43.51562" lon="2.699">
        <ele>956.6</ele>
        <time>2026-05-22T10:40:54Z</time>
      </trkpt>
      <trkpt lat="43.51562" lon="2.699">
        <ele>956.6</ele>
        <time>2026-05-22T10:40:59Z</time>
      </trkpt>
      <trkpt lat="43.51562" lon="2.699">
        <ele>956.6</ele>
        <time>2026-05-22T10:41:04Z</time>
      </trkpt>
      <trkpt lat="43.51562" lon="2.699">
        <ele>956.6</ele>
        <time>2026-05-22T10:41:09Z</time>
      </trkpt>
      <trkpt lat="43.51562" lon="2.699">
        <ele>956.6</ele>
        <time>2026-05-22T10:41:14Z</time>
      </trkpt>
      <trkpt lat="43.51562" lon="2.699">
        <ele>956.6</ele>
        <time>2026-05-22T10:41:19Z</time>
      </trkpt>
      <trkpt lat="43.51562" lon="2.699">
        <ele>956.6</ele>
        <time>2026-05-22T10:41:24Z</time>
      </trkpt>
      <trkpt lat="43.51562" lon="2.699">
        <ele>956.6</ele>
        <time>2026-05-22T10:41:29Z</time>
      </trkpt>
      <trkpt lat="43.51562" lon="2.699">
        <ele>956.6</ele>
        <time>2026-05-22T10:41:34Z</time>
      </trkpt>
      <trkpt lat="43.51562" lon="2.699">
        <ele>956.6</ele>
        <time>2026-05-22T10:41:39Z</time>
      </trkpt>
      <trkpt lat="43.51562" lon="2.699">
        <ele>956.6</ele>
        <time>2026-05-22T10:41:44Z</time>
      </trkpt>
      <trkpt lat="43.51562" lon="2.699">
        <ele>956.6</ele>
        <time>2026-05-22T10:41:49Z</time>
      </trkpt>
      <trkpt lat="43.51562" lon="2.699">
        <ele>956.6</ele>
        <time>2026-05-22T10:41:54Z</time>
      </trkpt>
      <trkpt lat="43.51562" lon="2.699">
        <ele>956.6</ele>
        <time>2026-05-22T10:41:59Z</time>
      </trkpt>
      <trkpt lat="43.51562" lon="2.699">
        <ele>956.6</ele>
        <time>2026-05-22T10:42:04Z</time>
      </trkpt>
      <trkpt lat="43.51562" lon="2.699">
        <ele>956.6</ele>
        <time>2026-05-22T10:42:09Z</time>
      </trkpt>
      <trkpt lat="43.51562" lon="2.699">
        <ele>956.6</ele>
        <time>2026-05-22T10:42:14Z</time>
      </trkpt>
      <trkpt lat="43.51562" lon="2.699">
        <ele>956.6</ele>
        <time>2026-05-22T10:42:19Z</time>
      </trkpt>
      <trkpt lat="43.51562" lon="2.699">
        <ele>956.6</ele>
        <time>2026-05-22T10:42:24Z</time>
      </trkpt>
      <trkpt lat="43.51562" lon="2.699">
        <ele>956.6</ele>
        <time>2026-05-22T10:42:29Z</time>
      </trkpt>
      <trkpt lat="43.51562" lon="2.699">
        <ele>956.6</ele>
        <time>2026-05-22T10:42:34Z</time>
      </trkpt>
      <trkpt lat="43.51557" lon="2.69903">
        <ele>956.4</ele>
        <time>2026-05-22T10:42:39Z</time>
      </trkpt>
      <trkpt lat="43.51557" lon="2.69903">
        <ele>956.4</ele>
        <time>2026-05-22T10:42:44Z</time>
      </trkpt>
      <trkpt lat="43.51557" lon="2.69903">
        <ele>956.4</ele>
        <time>2026-05-22T10:42:49Z</time>
      </trkpt>
      <trkpt lat="43.51552" lon="2.69906">
        <ele>956.2</ele>
        <time>2026-05-22T10:42:54Z</time>
      </trkpt>
      <trkpt lat="43.51545" lon="2.69902">
        <ele>956.6</ele>
        <time>2026-05-22T10:42:59Z</time>
      </trkpt>
      <trkpt lat="43.51542" lon="2.69898">
        <ele>957</ele>
        <time>2026-05-22T10:43:04Z</time>
      </trkpt>
      <trkpt lat="43.51537" lon="2.69896">
        <ele>957.2</ele>
        <time>2026-05-22T10:43:09Z</time>
      </trkpt>
      <trkpt lat="43.5153" lon="2.69893">
        <ele>957.4</ele>
        <time>2026-05-22T10:43:14Z</time>
      </trkpt>
      <trkpt lat="43.51521" lon="2.69889">
        <ele>957.8</ele>
        <time>2026-05-22T10:43:19Z</time>
      </trkpt>
      <trkpt lat="43.51513" lon="2.69887">
        <ele>958</ele>
        <time>2026-05-22T10:43:24Z</time>
      </trkpt>
      <trkpt lat="43.51503" lon="2.69886">
        <ele>958.2</ele>
        <time>2026-05-22T10:43:29Z</time>
      </trkpt>
      <trkpt lat="43.51497" lon="2.69885">
        <ele>958.2</ele>
        <time>2026-05-22T10:43:34Z</time>
      </trkpt>
      <trkpt lat="43.51492" lon="2.69885">
        <ele>958.1</ele>
        <time>2026-05-22T10:43:39Z</time>
      </trkpt>
      <trkpt lat="43.51486" lon="2.69888">
        <ele>957.8</ele>
        <time>2026-05-22T10:43:44Z</time>
      </trkpt>
      <trkpt lat="43.51478" lon="2.69889">
        <ele>957.6</ele>
        <time>2026-05-22T10:43:49Z</time>
      </trkpt>
      <trkpt lat="43.51471" lon="2.6989">
        <ele>957.3</ele>
        <time>2026-05-22T10:43:54Z</time>
      </trkpt>
      <trkpt lat="43.51463" lon="2.69891">
        <ele>957.1</ele>
        <time>2026-05-22T10:43:59Z</time>
      </trkpt>
      <trkpt lat="43.5146" lon="2.6989">
        <ele>957.1</ele>
        <time>2026-05-22T10:44:04Z</time>
      </trkpt>
      <trkpt lat="43.51454" lon="2.69892">
        <ele>956.9</ele>
        <time>2026-05-22T10:44:09Z</time>
      </trkpt>
      <trkpt lat="43.51448" lon="2.69894">
        <ele>956.7</ele>
        <time>2026-05-22T10:44:14Z</time>
      </trkpt>
      <trkpt lat="43.51445" lon="2.69895">
        <ele>956.6</ele>
        <time>2026-05-22T10:44:19Z</time>
      </trkpt>
      <trkpt lat="43.51438" lon="2.69898">
        <ele>956.3</ele>
        <time>2026-05-22T10:44:24Z</time>
      </trkpt>
      <trkpt lat="43.51435" lon="2.69899">
        <ele>956.2</ele>
        <time>2026-05-22T10:44:29Z</time>
      </trkpt>
      <trkpt lat="43.51433" lon="2.69902">
        <ele>956</ele>
        <time>2026-05-22T10:44:34Z</time>
      </trkpt>
      <trkpt lat="43.51433" lon="2.69902">
        <ele>956</ele>
        <time>2026-05-22T10:44:39Z</time>
      </trkpt>
      <trkpt lat="43.51433" lon="2.69902">
        <ele>956</ele>
        <time>2026-05-22T10:44:44Z</time>
      </trkpt>
      <trkpt lat="43.51433" lon="2.69902">
        <ele>956</ele>
        <time>2026-05-22T10:44:49Z</time>
      </trkpt>
      <trkpt lat="43.51433" lon="2.69902">
        <ele>956</ele>
        <time>2026-05-22T10:44:54Z</time>
      </trkpt>
      <trkpt lat="43.51433" lon="2.69902">
        <ele>956</ele>
        <time>2026-05-22T10:44:59Z</time>
      </trkpt>
      <trkpt lat="43.51433" lon="2.69902">
        <ele>956</ele>
        <time>2026-05-22T10:45:04Z</time>
      </trkpt>
      <trkpt lat="43.51433" lon="2.69902">
        <ele>956</ele>
        <time>2026-05-22T10:45:09Z</time>
      </trkpt>
      <trkpt lat="43.51433" lon="2.69902">
        <ele>956</ele>
        <time>2026-05-22T10:45:14Z</time>
      </trkpt>
      <trkpt lat="43.51433" lon="2.69902">
        <ele>956</ele>
        <time>2026-05-22T10:45:19Z</time>
      </trkpt>
      <trkpt lat="43.51433" lon="2.69902">
        <ele>956</ele>
        <time>2026-05-22T10:45:24Z</time>
      </trkpt>
      <trkpt lat="43.51433" lon="2.69902">
        <ele>956</ele>
        <time>2026-05-22T10:45:29Z</time>
      </trkpt>
      <trkpt lat="43.51433" lon="2.69902">
        <ele>956</ele>
        <time>2026-05-22T10:45:34Z</time>
      </trkpt>
      <trkpt lat="43.51433" lon="2.69902">
        <ele>956</ele>
        <time>2026-05-22T10:45:39Z</time>
      </trkpt>
      <trkpt lat="43.51433" lon="2.69902">
        <ele>956</ele>
        <time>2026-05-22T10:45:44Z</time>
      </trkpt>
      <trkpt lat="43.51433" lon="2.69902">
        <ele>956</ele>
        <time>2026-05-22T10:45:49Z</time>
      </trkpt>
      <trkpt lat="43.51433" lon="2.69902">
        <ele>956</ele>
        <time>2026-05-22T10:45:54Z</time>
      </trkpt>
      <trkpt lat="43.51433" lon="2.69902">
        <ele>956</ele>
        <time>2026-05-22T10:45:59Z</time>
      </trkpt>
      <trkpt lat="43.51433" lon="2.69902">
        <ele>956</ele>
        <time>2026-05-22T10:46:04Z</time>
      </trkpt>
      <trkpt lat="43.51433" lon="2.69902">
        <ele>956</ele>
        <time>2026-05-22T10:46:09Z</time>
      </trkpt>
      <trkpt lat="43.51433" lon="2.69902">
        <ele>956</ele>
        <time>2026-05-22T10:46:14Z</time>
      </trkpt>
      <trkpt lat="43.51433" lon="2.69902">
        <ele>956</ele>
        <time>2026-05-22T10:46:19Z</time>
      </trkpt>
      <trkpt lat="43.51433" lon="2.69902">
        <ele>956</ele>
        <time>2026-05-22T10:46:24Z</time>
      </trkpt>
      <trkpt lat="43.51433" lon="2.69902">
        <ele>956</ele>
        <time>2026-05-22T10:46:29Z</time>
      </trkpt>
      <trkpt lat="43.51433" lon="2.69902">
        <ele>956</ele>
        <time>2026-05-22T10:46:34Z</time>
      </trkpt>
      <trkpt lat="43.51433" lon="2.69902">
        <ele>956</ele>
        <time>2026-05-22T10:46:39Z</time>
      </trkpt>
      <trkpt lat="43.51433" lon="2.69902">
        <ele>956</ele>
        <time>2026-05-22T10:46:44Z</time>
      </trkpt>
      <trkpt lat="43.51433" lon="2.69902">
        <ele>956</ele>
        <time>2026-05-22T10:46:49Z</time>
      </trkpt>
      <trkpt lat="43.51433" lon="2.69902">
        <ele>956</ele>
        <time>2026-05-22T10:46:54Z</time>
      </trkpt>
      <trkpt lat="43.51433" lon="2.69902">
        <ele>956</ele>
        <time>2026-05-22T10:46:59Z</time>
      </trkpt>
      <trkpt lat="43.51433" lon="2.69902">
        <ele>956</ele>
        <time>2026-05-22T10:47:04Z</time>
      </trkpt>
      <trkpt lat="43.51433" lon="2.69902">
        <ele>956</ele>
        <time>2026-05-22T10:47:09Z</time>
      </trkpt>
      <trkpt lat="43.51433" lon="2.69902">
        <ele>956</ele>
        <time>2026-05-22T10:47:14Z</time>
      </trkpt>
      <trkpt lat="43.51433" lon="2.69902">
        <ele>956</ele>
        <time>2026-05-22T10:47:19Z</time>
      </trkpt>
      <trkpt lat="43.51433" lon="2.69902">
        <ele>956</ele>
        <time>2026-05-22T10:47:24Z</time>
      </trkpt>
      <trkpt lat="43.51433" lon="2.69902">
        <ele>956</ele>
        <time>2026-05-22T10:47:29Z</time>
      </trkpt>
      <trkpt lat="43.51433" lon="2.69902">
        <ele>956</ele>
        <time>2026-05-22T10:47:34Z</time>
      </trkpt>
      <trkpt lat="43.51433" lon="2.69902">
        <ele>956</ele>
        <time>2026-05-22T10:47:39Z</time>
      </trkpt>
      <trkpt lat="43.51433" lon="2.69902">
        <ele>956</ele>
        <time>2026-05-22T10:47:44Z</time>
      </trkpt>
      <trkpt lat="43.51433" lon="2.69902">
        <ele>956</ele>
        <time>2026-05-22T10:47:49Z</time>
      </trkpt>
      <trkpt lat="43.51433" lon="2.69902">
        <ele>956</ele>
        <time>2026-05-22T10:47:54Z</time>
      </trkpt>
      <trkpt lat="43.51433" lon="2.69902">
        <ele>956</ele>
        <time>2026-05-22T10:47:59Z</time>
      </trkpt>
      <trkpt lat="43.51433" lon="2.69902">
        <ele>956</ele>
        <time>2026-05-22T10:48:04Z</time>
      </trkpt>
      <trkpt lat="43.51433" lon="2.69902">
        <ele>956</ele>
        <time>2026-05-22T10:48:09Z</time>
      </trkpt>
      <trkpt lat="43.51433" lon="2.69902">
        <ele>956</ele>
        <time>2026-05-22T10:48:14Z</time>
      </trkpt>
      <trkpt lat="43.51433" lon="2.69902">
        <ele>956</ele>
        <time>2026-05-22T10:48:19Z</time>
      </trkpt>
      <trkpt lat="43.51433" lon="2.69902">
        <ele>956</ele>
        <time>2026-05-22T10:48:24Z</time>
      </trkpt>
      <trkpt lat="43.51433" lon="2.69902">
        <ele>956</ele>
        <time>2026-05-22T10:48:29Z</time>
      </trkpt>
      <trkpt lat="43.51433" lon="2.69902">
        <ele>956</ele>
        <time>2026-05-22T10:48:34Z</time>
      </trkpt>
      <trkpt lat="43.51433" lon="2.69902">
        <ele>956</ele>
        <time>2026-05-22T10:48:39Z</time>
      </trkpt>
      <trkpt lat="43.51433" lon="2.69902">
        <ele>956</ele>
        <time>2026-05-22T10:48:44Z</time>
      </trkpt>
      <trkpt lat="43.51433" lon="2.69902">
        <ele>956</ele>
        <time>2026-05-22T10:48:49Z</time>
      </trkpt>
      <trkpt lat="43.51433" lon="2.69902">
        <ele>956</ele>
        <time>2026-05-22T10:48:54Z</time>
      </trkpt>
      <trkpt lat="43.51433" lon="2.69902">
        <ele>956</ele>
        <time>2026-05-22T10:48:59Z</time>
      </trkpt>
      <trkpt lat="43.51433" lon="2.69902">
        <ele>956</ele>
        <time>2026-05-22T10:49:04Z</time>
      </trkpt>
      <trkpt lat="43.51433" lon="2.69902">
        <ele>956</ele>
        <time>2026-05-22T10:49:09Z</time>
      </trkpt>
      <trkpt lat="43.51433" lon="2.69902">
        <ele>956</ele>
        <time>2026-05-22T10:49:14Z</time>
      </trkpt>
      <trkpt lat="43.51433" lon="2.69902">
        <ele>956</ele>
        <time>2026-05-22T10:49:19Z</time>
      </trkpt>
      <trkpt lat="43.51433" lon="2.69902">
        <ele>956</ele>
        <time>2026-05-22T10:49:24Z</time>
      </trkpt>
      <trkpt lat="43.51433" lon="2.69902">
        <ele>956</ele>
        <time>2026-05-22T10:49:29Z</time>
      </trkpt>
      <trkpt lat="43.51433" lon="2.69902">
        <ele>956</ele>
        <time>2026-05-22T10:49:34Z</time>
      </trkpt>
      <trkpt lat="43.51433" lon="2.69902">
        <ele>956</ele>
        <time>2026-05-22T10:49:39Z</time>
      </trkpt>
      <trkpt lat="43.51433" lon="2.69902">
        <ele>956</ele>
        <time>2026-05-22T10:49:44Z</time>
      </trkpt>
      <trkpt lat="43.51433" lon="2.69902">
        <ele>956</ele>
        <time>2026-05-22T10:49:49Z</time>
      </trkpt>
      <trkpt lat="43.51433" lon="2.69902">
        <ele>956</ele>
        <time>2026-05-22T10:49:54Z</time>
      </trkpt>
      <trkpt lat="43.51433" lon="2.69902">
        <ele>956</ele>
        <time>2026-05-22T10:49:59Z</time>
      </trkpt>
      <trkpt lat="43.51433" lon="2.69902">
        <ele>956</ele>
        <time>2026-05-22T10:50:04Z</time>
      </trkpt>
      <trkpt lat="43.51433" lon="2.69902">
        <ele>956</ele>
        <time>2026-05-22T10:50:09Z</time>
      </trkpt>
      <trkpt lat="43.51433" lon="2.69902">
        <ele>956</ele>
        <time>2026-05-22T10:50:14Z</time>
      </trkpt>
      <trkpt lat="43.51433" lon="2.69902">
        <ele>956</ele>
        <time>2026-05-22T10:50:19Z</time>
      </trkpt>
      <trkpt lat="43.51433" lon="2.69902">
        <ele>956</ele>
        <time>2026-05-22T10:50:24Z</time>
      </trkpt>
      <trkpt lat="43.51433" lon="2.69902">
        <ele>956</ele>
        <time>2026-05-22T10:50:29Z</time>
      </trkpt>
      <trkpt lat="43.51433" lon="2.69902">
        <ele>956</ele>
        <time>2026-05-22T10:50:34Z</time>
      </trkpt>
      <trkpt lat="43.51433" lon="2.69902">
        <ele>956</ele>
        <time>2026-05-22T10:50:39Z</time>
      </trkpt>
      <trkpt lat="43.51433" lon="2.69902">
        <ele>956</ele>
        <time>2026-05-22T10:50:44Z</time>
      </trkpt>
      <trkpt lat="43.51433" lon="2.69902">
        <ele>956</ele>
        <time>2026-05-22T10:50:49Z</time>
      </trkpt>
      <trkpt lat="43.51433" lon="2.69902">
        <ele>956</ele>
        <time>2026-05-22T10:50:54Z</time>
      </trkpt>
      <trkpt lat="43.51433" lon="2.69902">
        <ele>956</ele>
        <time>2026-05-22T10:50:59Z</time>
      </trkpt>
      <trkpt lat="43.51433" lon="2.69902">
        <ele>956</ele>
        <time>2026-05-22T10:51:04Z</time>
      </trkpt>
      <trkpt lat="43.51433" lon="2.69902">
        <ele>956</ele>
        <time>2026-05-22T10:51:09Z</time>
      </trkpt>
      <trkpt lat="43.51433" lon="2.69902">
        <ele>956</ele>
        <time>2026-05-22T10:51:14Z</time>
      </trkpt>
      <trkpt lat="43.51433" lon="2.69902">
        <ele>956</ele>
        <time>2026-05-22T10:51:19Z</time>
      </trkpt>
      <trkpt lat="43.51433" lon="2.69902">
        <ele>956</ele>
        <time>2026-05-22T10:51:24Z</time>
      </trkpt>
      <trkpt lat="43.51433" lon="2.69902">
        <ele>956</ele>
        <time>2026-05-22T10:51:29Z</time>
      </trkpt>
      <trkpt lat="43.51433" lon="2.69902">
        <ele>956</ele>
        <time>2026-05-22T10:51:34Z</time>
      </trkpt>
      <trkpt lat="43.51433" lon="2.69902">
        <ele>956</ele>
        <time>2026-05-22T10:51:39Z</time>
      </trkpt>
      <trkpt lat="43.51433" lon="2.69902">
        <ele>956</ele>
        <time>2026-05-22T10:51:44Z</time>
      </trkpt>
      <trkpt lat="43.51433" lon="2.69902">
        <ele>956</ele>
        <time>2026-05-22T10:51:49Z</time>
      </trkpt>
      <trkpt lat="43.51433" lon="2.69902">
        <ele>956</ele>
        <time>2026-05-22T10:51:54Z</time>
      </trkpt>
      <trkpt lat="43.51433" lon="2.69902">
        <ele>956</ele>
        <time>2026-05-22T10:51:59Z</time>
      </trkpt>
      <trkpt lat="43.51433" lon="2.69902">
        <ele>956</ele>
        <time>2026-05-22T10:52:04Z</time>
      </trkpt>
      <trkpt lat="43.51433" lon="2.69902">
        <ele>956</ele>
        <time>2026-05-22T10:52:09Z</time>
      </trkpt>
      <trkpt lat="43.51433" lon="2.69902">
        <ele>956</ele>
        <time>2026-05-22T10:52:14Z</time>
      </trkpt>
      <trkpt lat="43.51433" lon="2.69902">
        <ele>956</ele>
        <time>2026-05-22T10:52:19Z</time>
      </trkpt>
      <trkpt lat="43.51433" lon="2.69902">
        <ele>956</ele>
        <time>2026-05-22T10:52:24Z</time>
      </trkpt>
      <trkpt lat="43.51433" lon="2.69902">
        <ele>956</ele>
        <time>2026-05-22T10:52:29Z</time>
      </trkpt>
      <trkpt lat="43.51433" lon="2.69902">
        <ele>956</ele>
        <time>2026-05-22T10:52:34Z</time>
      </trkpt>
      <trkpt lat="43.51433" lon="2.69902">
        <ele>956</ele>
        <time>2026-05-22T10:52:39Z</time>
      </trkpt>
      <trkpt lat="43.51433" lon="2.69902">
        <ele>956</ele>
        <time>2026-05-22T10:52:44Z</time>
      </trkpt>
      <trkpt lat="43.51433" lon="2.69902">
        <ele>956</ele>
        <time>2026-05-22T10:52:49Z</time>
      </trkpt>
      <trkpt lat="43.51433" lon="2.69902">
        <ele>956</ele>
        <time>2026-05-22T10:52:54Z</time>
      </trkpt>
      <trkpt lat="43.51433" lon="2.69902">
        <ele>956</ele>
        <time>2026-05-22T10:52:59Z</time>
      </trkpt>
      <trkpt lat="43.51433" lon="2.69902">
        <ele>956</ele>
        <time>2026-05-22T10:53:04Z</time>
      </trkpt>
      <trkpt lat="43.51433" lon="2.69902">
        <ele>956</ele>
        <time>2026-05-22T10:53:09Z</time>
      </trkpt>
      <trkpt lat="43.51433" lon="2.69902">
        <ele>956</ele>
        <time>2026-05-22T10:53:14Z</time>
      </trkpt>
      <trkpt lat="43.51433" lon="2.69902">
        <ele>956</ele>
        <time>2026-05-22T10:53:19Z</time>
      </trkpt>
      <trkpt lat="43.51433" lon="2.69902">
        <ele>956</ele>
        <time>2026-05-22T10:53:24Z</time>
      </trkpt>
      <trkpt lat="43.51433" lon="2.69902">
        <ele>956</ele>
        <time>2026-05-22T10:53:29Z</time>
      </trkpt>
      <trkpt lat="43.51433" lon="2.69902">
        <ele>956</ele>
        <time>2026-05-22T10:53:34Z</time>
      </trkpt>
      <trkpt lat="43.51433" lon="2.69902">
        <ele>956</ele>
        <time>2026-05-22T10:53:39Z</time>
      </trkpt>
      <trkpt lat="43.51433" lon="2.69902">
        <ele>956</ele>
        <time>2026-05-22T10:53:44Z</time>
      </trkpt>
      <trkpt lat="43.51433" lon="2.69902">
        <ele>956</ele>
        <time>2026-05-22T10:53:49Z</time>
      </trkpt>
      <trkpt lat="43.51433" lon="2.69902">
        <ele>956</ele>
        <time>2026-05-22T10:53:54Z</time>
      </trkpt>
      <trkpt lat="43.51433" lon="2.69902">
        <ele>956</ele>
        <time>2026-05-22T10:53:59Z</time>
      </trkpt>
      <trkpt lat="43.51433" lon="2.69902">
        <ele>956</ele>
        <time>2026-05-22T10:54:04Z</time>
      </trkpt>
      <trkpt lat="43.51433" lon="2.69902">
        <ele>956</ele>
        <time>2026-05-22T10:54:09Z</time>
      </trkpt>
      <trkpt lat="43.51433" lon="2.69902">
        <ele>956</ele>
        <time>2026-05-22T10:54:14Z</time>
      </trkpt>
      <trkpt lat="43.51433" lon="2.69902">
        <ele>956</ele>
        <time>2026-05-22T10:54:19Z</time>
      </trkpt>
      <trkpt lat="43.51433" lon="2.69902">
        <ele>956</ele>
        <time>2026-05-22T10:54:24Z</time>
      </trkpt>
      <trkpt lat="43.51433" lon="2.69902">
        <ele>956</ele>
        <time>2026-05-22T10:54:29Z</time>
      </trkpt>
      <trkpt lat="43.51433" lon="2.69902">
        <ele>956</ele>
        <time>2026-05-22T10:54:34Z</time>
      </trkpt>
      <trkpt lat="43.51433" lon="2.69902">
        <ele>956</ele>
        <time>2026-05-22T10:54:39Z</time>
      </trkpt>
      <trkpt lat="43.51433" lon="2.69902">
        <ele>956</ele>
        <time>2026-05-22T10:54:44Z</time>
      </trkpt>
      <trkpt lat="43.51433" lon="2.69902">
        <ele>956</ele>
        <time>2026-05-22T10:54:49Z</time>
      </trkpt>
      <trkpt lat="43.51433" lon="2.69902">
        <ele>956</ele>
        <time>2026-05-22T10:54:54Z</time>
      </trkpt>
      <trkpt lat="43.51433" lon="2.69902">
        <ele>956</ele>
        <time>2026-05-22T10:54:59Z</time>
      </trkpt>
      <trkpt lat="43.51433" lon="2.69902">
        <ele>956</ele>
        <time>2026-05-22T10:55:04Z</time>
      </trkpt>
      <trkpt lat="43.51433" lon="2.69902">
        <ele>956</ele>
        <time>2026-05-22T10:55:09Z</time>
      </trkpt>
      <trkpt lat="43.51433" lon="2.69902">
        <ele>956</ele>
        <time>2026-05-22T10:55:14Z</time>
      </trkpt>
      <trkpt lat="43.51433" lon="2.69902">
        <ele>956</ele>
        <time>2026-05-22T10:55:19Z</time>
      </trkpt>
      <trkpt lat="43.51433" lon="2.69902">
        <ele>956</ele>
        <time>2026-05-22T10:55:24Z</time>
      </trkpt>
      <trkpt lat="43.51433" lon="2.69902">
        <ele>956</ele>
        <time>2026-05-22T10:55:29Z</time>
      </trkpt>
      <trkpt lat="43.51433" lon="2.69902">
        <ele>956</ele>
        <time>2026-05-22T10:55:34Z</time>
      </trkpt>
      <trkpt lat="43.51433" lon="2.69902">
        <ele>956</ele>
        <time>2026-05-22T10:55:39Z</time>
      </trkpt>
      <trkpt lat="43.51433" lon="2.69902">
        <ele>956</ele>
        <time>2026-05-22T10:55:44Z</time>
      </trkpt>
      <trkpt lat="43.51433" lon="2.69902">
        <ele>956</ele>
        <time>2026-05-22T10:55:49Z</time>
      </trkpt>
      <trkpt lat="43.51433" lon="2.69902">
        <ele>956</ele>
        <time>2026-05-22T10:55:54Z</time>
      </trkpt>
      <trkpt lat="43.51433" lon="2.69902">
        <ele>956</ele>
        <time>2026-05-22T10:55:59Z</time>
      </trkpt>
      <trkpt lat="43.51433" lon="2.69902">
        <ele>956</ele>
        <time>2026-05-22T10:56:04Z</time>
      </trkpt>
      <trkpt lat="43.51433" lon="2.69902">
        <ele>956</ele>
        <time>2026-05-22T10:56:09Z</time>
      </trkpt>
      <trkpt lat="43.51433" lon="2.69902">
        <ele>956</ele>
        <time>2026-05-22T10:56:14Z</time>
      </trkpt>
      <trkpt lat="43.51433" lon="2.69902">
        <ele>956</ele>
        <time>2026-05-22T10:56:19Z</time>
      </trkpt>
      <trkpt lat="43.51433" lon="2.69902">
        <ele>956</ele>
        <time>2026-05-22T10:56:24Z</time>
      </trkpt>
      <trkpt lat="43.51433" lon="2.69902">
        <ele>956</ele>
        <time>2026-05-22T10:56:29Z</time>
      </trkpt>
      <trkpt lat="43.51433" lon="2.69902">
        <ele>956</ele>
        <time>2026-05-22T10:56:34Z</time>
      </trkpt>
      <trkpt lat="43.51433" lon="2.69902">
        <ele>956</ele>
        <time>2026-05-22T10:56:39Z</time>
      </trkpt>
      <trkpt lat="43.51433" lon="2.69902">
        <ele>956</ele>
        <time>2026-05-22T10:56:44Z</time>
      </trkpt>
      <trkpt lat="43.51433" lon="2.69902">
        <ele>956</ele>
        <time>2026-05-22T10:56:49Z</time>
      </trkpt>
      <trkpt lat="43.51433" lon="2.69902">
        <ele>956</ele>
        <time>2026-05-22T10:56:54Z</time>
      </trkpt>
      <trkpt lat="43.51433" lon="2.69902">
        <ele>956</ele>
        <time>2026-05-22T10:56:59Z</time>
      </trkpt>
      <trkpt lat="43.51433" lon="2.69902">
        <ele>956</ele>
        <time>2026-05-22T10:57:04Z</time>
      </trkpt>
      <trkpt lat="43.51433" lon="2.69902">
        <ele>956</ele>
        <time>2026-05-22T10:57:09Z</time>
      </trkpt>
      <trkpt lat="43.51433" lon="2.69902">
        <ele>956</ele>
        <time>2026-05-22T10:57:14Z</time>
      </trkpt>
      <trkpt lat="43.51433" lon="2.69902">
        <ele>956</ele>
        <time>2026-05-22T10:57:19Z</time>
      </trkpt>
      <trkpt lat="43.51433" lon="2.69902">
        <ele>956</ele>
        <time>2026-05-22T10:57:24Z</time>
      </trkpt>
      <trkpt lat="43.51433" lon="2.69902">
        <ele>956</ele>
        <time>2026-05-22T10:57:29Z</time>
      </trkpt>
      <trkpt lat="43.51433" lon="2.69902">
        <ele>956</ele>
        <time>2026-05-22T10:57:34Z</time>
      </trkpt>
      <trkpt lat="43.51433" lon="2.69902">
        <ele>956</ele>
        <time>2026-05-22T10:57:39Z</time>
      </trkpt>
      <trkpt lat="43.51433" lon="2.69902">
        <ele>956</ele>
        <time>2026-05-22T10:57:44Z</time>
      </trkpt>
      <trkpt lat="43.51433" lon="2.69902">
        <ele>956</ele>
        <time>2026-05-22T10:57:49Z</time>
      </trkpt>
      <trkpt lat="43.51433" lon="2.69902">
        <ele>956</ele>
        <time>2026-05-22T10:57:54Z</time>
      </trkpt>
      <trkpt lat="43.51433" lon="2.69902">
        <ele>956</ele>
        <time>2026-05-22T10:57:59Z</time>
      </trkpt>
      <trkpt lat="43.51433" lon="2.69902">
        <ele>956</ele>
        <time>2026-05-22T10:58:04Z</time>
      </trkpt>
      <trkpt lat="43.51433" lon="2.69902">
        <ele>956</ele>
        <time>2026-05-22T10:58:09Z</time>
      </trkpt>
      <trkpt lat="43.51433" lon="2.69902">
        <ele>956</ele>
        <time>2026-05-22T10:58:14Z</time>
      </trkpt>
      <trkpt lat="43.51433" lon="2.69902">
        <ele>956</ele>
        <time>2026-05-22T10:58:19Z</time>
      </trkpt>
      <trkpt lat="43.51433" lon="2.69902">
        <ele>956</ele>
        <time>2026-05-22T10:58:24Z</time>
      </trkpt>
      <trkpt lat="43.51433" lon="2.69902">
        <ele>956</ele>
        <time>2026-05-22T10:58:29Z</time>
      </trkpt>
      <trkpt lat="43.51433" lon="2.69902">
        <ele>956</ele>
        <time>2026-05-22T10:58:34Z</time>
      </trkpt>
      <trkpt lat="43.51433" lon="2.69902">
        <ele>956</ele>
        <time>2026-05-22T10:58:39Z</time>
      </trkpt>
      <trkpt lat="43.51433" lon="2.69902">
        <ele>956</ele>
        <time>2026-05-22T10:58:44Z</time>
      </trkpt>
      <trkpt lat="43.51433" lon="2.69902">
        <ele>956</ele>
        <time>2026-05-22T10:58:49Z</time>
      </trkpt>
      <trkpt lat="43.51433" lon="2.69902">
        <ele>956</ele>
        <time>2026-05-22T10:58:54Z</time>
      </trkpt>
      <trkpt lat="43.51433" lon="2.69902">
        <ele>956</ele>
        <time>2026-05-22T10:58:59Z</time>
      </trkpt>
      <trkpt lat="43.51433" lon="2.69902">
        <ele>956</ele>
        <time>2026-05-22T10:59:04Z</time>
      </trkpt>
      <trkpt lat="43.51433" lon="2.69902">
        <ele>956</ele>
        <time>2026-05-22T10:59:09Z</time>
      </trkpt>
      <trkpt lat="43.51433" lon="2.69902">
        <ele>956</ele>
        <time>2026-05-22T10:59:14Z</time>
      </trkpt>
      <trkpt lat="43.51433" lon="2.69902">
        <ele>956</ele>
        <time>2026-05-22T10:59:19Z</time>
      </trkpt>
      <trkpt lat="43.51433" lon="2.69902">
        <ele>956</ele>
        <time>2026-05-22T10:59:24Z</time>
      </trkpt>
      <trkpt lat="43.51433" lon="2.69902">
        <ele>956</ele>
        <time>2026-05-22T10:59:29Z</time>
      </trkpt>
      <trkpt lat="43.51433" lon="2.69902">
        <ele>956</ele>
        <time>2026-05-22T10:59:34Z</time>
      </trkpt>
      <trkpt lat="43.51433" lon="2.69902">
        <ele>956</ele>
        <time>2026-05-22T10:59:39Z</time>
      </trkpt>
      <trkpt lat="43.51433" lon="2.69902">
        <ele>956</ele>
        <time>2026-05-22T10:59:44Z</time>
      </trkpt>
      <trkpt lat="43.51433" lon="2.69902">
        <ele>956</ele>
        <time>2026-05-22T10:59:49Z</time>
      </trkpt>
      <trkpt lat="43.51433" lon="2.69902">
        <ele>956</ele>
        <time>2026-05-22T10:59:54Z</time>
      </trkpt>
      <trkpt lat="43.51433" lon="2.69902">
        <ele>956</ele>
        <time>2026-05-22T10:59:59Z</time>
      </trkpt>
      <trkpt lat="43.51433" lon="2.69902">
        <ele>956</ele>
        <time>2026-05-22T11:00:04Z</time>
      </trkpt>
      <trkpt lat="43.51433" lon="2.69902">
        <ele>956</ele>
        <time>2026-05-22T11:00:09Z</time>
      </trkpt>
      <trkpt lat="43.51433" lon="2.69902">
        <ele>956</ele>
        <time>2026-05-22T11:00:14Z</time>
      </trkpt>
      <trkpt lat="43.51433" lon="2.69902">
        <ele>956</ele>
        <time>2026-05-22T11:00:19Z</time>
      </trkpt>
      <trkpt lat="43.51433" lon="2.69902">
        <ele>956</ele>
        <time>2026-05-22T11:00:24Z</time>
      </trkpt>
      <trkpt lat="43.51433" lon="2.69902">
        <ele>956</ele>
        <time>2026-05-22T11:00:29Z</time>
      </trkpt>
      <trkpt lat="43.51433" lon="2.69902">
        <ele>956</ele>
        <time>2026-05-22T11:00:34Z</time>
      </trkpt>
      <trkpt lat="43.51433" lon="2.69902">
        <ele>956</ele>
        <time>2026-05-22T11:00:39Z</time>
      </trkpt>
      <trkpt lat="43.51433" lon="2.69902">
        <ele>956</ele>
        <time>2026-05-22T11:00:44Z</time>
      </trkpt>
      <trkpt lat="43.51433" lon="2.69902">
        <ele>956</ele>
        <time>2026-05-22T11:00:49Z</time>
      </trkpt>
      <trkpt lat="43.51433" lon="2.69902">
        <ele>956</ele>
        <time>2026-05-22T11:00:54Z</time>
      </trkpt>
      <trkpt lat="43.51433" lon="2.69902">
        <ele>956</ele>
        <time>2026-05-22T11:00:59Z</time>
      </trkpt>
      <trkpt lat="43.51433" lon="2.69902">
        <ele>956</ele>
        <time>2026-05-22T11:01:04Z</time>
      </trkpt>
      <trkpt lat="43.51433" lon="2.69902">
        <ele>956</ele>
        <time>2026-05-22T11:01:09Z</time>
      </trkpt>
      <trkpt lat="43.51433" lon="2.69902">
        <ele>956</ele>
        <time>2026-05-22T11:01:14Z</time>
      </trkpt>
      <trkpt lat="43.51433" lon="2.69902">
        <ele>956</ele>
        <time>2026-05-22T11:01:19Z</time>
      </trkpt>
      <trkpt lat="43.51433" lon="2.69902">
        <ele>956</ele>
        <time>2026-05-22T11:01:24Z</time>
      </trkpt>
      <trkpt lat="43.51433" lon="2.69902">
        <ele>956</ele>
        <time>2026-05-22T11:01:29Z</time>
      </trkpt>
      <trkpt lat="43.51433" lon="2.69902">
        <ele>956</ele>
        <time>2026-05-22T11:01:34Z</time>
      </trkpt>
      <trkpt lat="43.51433" lon="2.69902">
        <ele>956</ele>
        <time>2026-05-22T11:01:39Z</time>
      </trkpt>
      <trkpt lat="43.51433" lon="2.69902">
        <ele>956</ele>
        <time>2026-05-22T11:01:44Z</time>
      </trkpt>
      <trkpt lat="43.51433" lon="2.69902">
        <ele>956</ele>
        <time>2026-05-22T11:01:49Z</time>
      </trkpt>
      <trkpt lat="43.51433" lon="2.69902">
        <ele>956</ele>
        <time>2026-05-22T11:01:54Z</time>
      </trkpt>
      <trkpt lat="43.51433" lon="2.69902">
        <ele>956</ele>
        <time>2026-05-22T11:01:59Z</time>
      </trkpt>
      <trkpt lat="43.51433" lon="2.69902">
        <ele>956</ele>
        <time>2026-05-22T11:02:04Z</time>
      </trkpt>
      <trkpt lat="43.51433" lon="2.69902">
        <ele>956</ele>
        <time>2026-05-22T11:02:09Z</time>
      </trkpt>
      <trkpt lat="43.51433" lon="2.69902">
        <ele>956</ele>
        <time>2026-05-22T11:02:14Z</time>
      </trkpt>
      <trkpt lat="43.51433" lon="2.69902">
        <ele>956</ele>
        <time>2026-05-22T11:02:19Z</time>
      </trkpt>
      <trkpt lat="43.51433" lon="2.69902">
        <ele>956</ele>
        <time>2026-05-22T11:02:24Z</time>
      </trkpt>
      <trkpt lat="43.51433" lon="2.69902">
        <ele>956</ele>
        <time>2026-05-22T11:02:29Z</time>
      </trkpt>
      <trkpt lat="43.51433" lon="2.69902">
        <ele>956</ele>
        <time>2026-05-22T11:02:34Z</time>
      </trkpt>
      <trkpt lat="43.51433" lon="2.69902">
        <ele>956</ele>
        <time>2026-05-22T11:02:39Z</time>
      </trkpt>
      <trkpt lat="43.51433" lon="2.69902">
        <ele>956</ele>
        <time>2026-05-22T11:02:44Z</time>
      </trkpt>
      <trkpt lat="43.51433" lon="2.69902">
        <ele>956</ele>
        <time>2026-05-22T11:02:49Z</time>
      </trkpt>
      <trkpt lat="43.51433" lon="2.69902">
        <ele>956</ele>
        <time>2026-05-22T11:02:54Z</time>
      </trkpt>
      <trkpt lat="43.51433" lon="2.69902">
        <ele>956</ele>
        <time>2026-05-22T11:02:59Z</time>
      </trkpt>
      <trkpt lat="43.51433" lon="2.69902">
        <ele>956</ele>
        <time>2026-05-22T11:03:04Z</time>
      </trkpt>
      <trkpt lat="43.51433" lon="2.69902">
        <ele>956</ele>
        <time>2026-05-22T11:03:09Z</time>
      </trkpt>
      <trkpt lat="43.51433" lon="2.69902">
        <ele>956</ele>
        <time>2026-05-22T11:03:14Z</time>
      </trkpt>
      <trkpt lat="43.51433" lon="2.69902">
        <ele>956</ele>
        <time>2026-05-22T11:03:19Z</time>
      </trkpt>
      <trkpt lat="43.51433" lon="2.69902">
        <ele>956</ele>
        <time>2026-05-22T11:03:24Z</time>
      </trkpt>
      <trkpt lat="43.51433" lon="2.69902">
        <ele>956</ele>
        <time>2026-05-22T11:03:29Z</time>
      </trkpt>
      <trkpt lat="43.51433" lon="2.69902">
        <ele>956</ele>
        <time>2026-05-22T11:03:34Z</time>
      </trkpt>
      <trkpt lat="43.51433" lon="2.69902">
        <ele>956</ele>
        <time>2026-05-22T11:03:39Z</time>
      </trkpt>
      <trkpt lat="43.51433" lon="2.69902">
        <ele>956</ele>
        <time>2026-05-22T11:03:44Z</time>
      </trkpt>
      <trkpt lat="43.51433" lon="2.69902">
        <ele>956</ele>
        <time>2026-05-22T11:03:49Z</time>
      </trkpt>
      <trkpt lat="43.51433" lon="2.69902">
        <ele>956</ele>
        <time>2026-05-22T11:03:54Z</time>
      </trkpt>
      <trkpt lat="43.51433" lon="2.69902">
        <ele>956</ele>
        <time>2026-05-22T11:03:59Z</time>
      </trkpt>
      <trkpt lat="43.51433" lon="2.69902">
        <ele>956</ele>
        <time>2026-05-22T11:04:04Z</time>
      </trkpt>
      <trkpt lat="43.51433" lon="2.69902">
        <ele>956</ele>
        <time>2026-05-22T11:04:09Z</time>
      </trkpt>
      <trkpt lat="43.51433" lon="2.69902">
        <ele>956</ele>
        <time>2026-05-22T11:04:14Z</time>
      </trkpt>
      <trkpt lat="43.51433" lon="2.69902">
        <ele>956</ele>
        <time>2026-05-22T11:04:19Z</time>
      </trkpt>
      <trkpt lat="43.51433" lon="2.69902">
        <ele>956</ele>
        <time>2026-05-22T11:04:24Z</time>
      </trkpt>
      <trkpt lat="43.51433" lon="2.69902">
        <ele>956</ele>
        <time>2026-05-22T11:04:29Z</time>
      </trkpt>
      <trkpt lat="43.51433" lon="2.69902">
        <ele>956</ele>
        <time>2026-05-22T11:04:34Z</time>
      </trkpt>
      <trkpt lat="43.51433" lon="2.69902">
        <ele>956</ele>
        <time>2026-05-22T11:04:39Z</time>
      </trkpt>
      <trkpt lat="43.51433" lon="2.69902">
        <ele>956</ele>
        <time>2026-05-22T11:04:44Z</time>
      </trkpt>
      <trkpt lat="43.51433" lon="2.69902">
        <ele>956</ele>
        <time>2026-05-22T11:04:49Z</time>
      </trkpt>
      <trkpt lat="43.51433" lon="2.69902">
        <ele>956</ele>
        <time>2026-05-22T11:04:54Z</time>
      </trkpt>
      <trkpt lat="43.51433" lon="2.69902">
        <ele>956</ele>
        <time>2026-05-22T11:04:59Z</time>
      </trkpt>
      <trkpt lat="43.51433" lon="2.69902">
        <ele>956</ele>
        <time>2026-05-22T11:05:04Z</time>
      </trkpt>
      <trkpt lat="43.51433" lon="2.69902">
        <ele>956</ele>
        <time>2026-05-22T11:05:09Z</time>
      </trkpt>
      <trkpt lat="43.51433" lon="2.69902">
        <ele>956</ele>
        <time>2026-05-22T11:05:14Z</time>
      </trkpt>
      <trkpt lat="43.51433" lon="2.69902">
        <ele>956</ele>
        <time>2026-05-22T11:05:19Z</time>
      </trkpt>
      <trkpt lat="43.51433" lon="2.69902">
        <ele>956</ele>
        <time>2026-05-22T11:05:24Z</time>
      </trkpt>
      <trkpt lat="43.51433" lon="2.69902">
        <ele>956</ele>
        <time>2026-05-22T11:05:29Z</time>
      </trkpt>
      <trkpt lat="43.51433" lon="2.69902">
        <ele>956</ele>
        <time>2026-05-22T11:05:34Z</time>
      </trkpt>
      <trkpt lat="43.51433" lon="2.69902">
        <ele>956</ele>
        <time>2026-05-22T11:05:39Z</time>
      </trkpt>
      <trkpt lat="43.51433" lon="2.69902">
        <ele>956</ele>
        <time>2026-05-22T11:05:44Z</time>
      </trkpt>
      <trkpt lat="43.51433" lon="2.69902">
        <ele>956</ele>
        <time>2026-05-22T11:05:49Z</time>
      </trkpt>
      <trkpt lat="43.51433" lon="2.69902">
        <ele>956</ele>
        <time>2026-05-22T11:05:54Z</time>
      </trkpt>
      <trkpt lat="43.51433" lon="2.69902">
        <ele>956</ele>
        <time>2026-05-22T11:05:59Z</time>
      </trkpt>
      <trkpt lat="43.51433" lon="2.69902">
        <ele>956</ele>
        <time>2026-05-22T11:06:04Z</time>
      </trkpt>
      <trkpt lat="43.51433" lon="2.69902">
        <ele>956</ele>
        <time>2026-05-22T11:06:09Z</time>
      </trkpt>
      <trkpt lat="43.51433" lon="2.69902">
        <ele>956</ele>
        <time>2026-05-22T11:06:14Z</time>
      </trkpt>
      <trkpt lat="43.51433" lon="2.69902">
        <ele>956</ele>
        <time>2026-05-22T11:06:19Z</time>
      </trkpt>
      <trkpt lat="43.51433" lon="2.69902">
        <ele>956</ele>
        <time>2026-05-22T11:06:24Z</time>
      </trkpt>
      <trkpt lat="43.51433" lon="2.69902">
        <ele>956</ele>
        <time>2026-05-22T11:06:29Z</time>
      </trkpt>
      <trkpt lat="43.51433" lon="2.69902">
        <ele>956</ele>
        <time>2026-05-22T11:06:34Z</time>
      </trkpt>
      <trkpt lat="43.51433" lon="2.69902">
        <ele>956</ele>
        <time>2026-05-22T11:06:39Z</time>
      </trkpt>
      <trkpt lat="43.51433" lon="2.69902">
        <ele>956</ele>
        <time>2026-05-22T11:06:44Z</time>
      </trkpt>
      <trkpt lat="43.51433" lon="2.69902">
        <ele>956</ele>
        <time>2026-05-22T11:06:49Z</time>
      </trkpt>
      <trkpt lat="43.51433" lon="2.69902">
        <ele>956</ele>
        <time>2026-05-22T11:06:54Z</time>
      </trkpt>
      <trkpt lat="43.51433" lon="2.69902">
        <ele>956</ele>
        <time>2026-05-22T11:06:59Z</time>
      </trkpt>
      <trkpt lat="43.51433" lon="2.69902">
        <ele>956</ele>
        <time>2026-05-22T11:07:04Z</time>
      </trkpt>
      <trkpt lat="43.51433" lon="2.69902">
        <ele>956</ele>
        <time>2026-05-22T11:07:09Z</time>
      </trkpt>
      <trkpt lat="43.51433" lon="2.69902">
        <ele>956</ele>
        <time>2026-05-22T11:07:14Z</time>
      </trkpt>
      <trkpt lat="43.51433" lon="2.69902">
        <ele>956</ele>
        <time>2026-05-22T11:07:19Z</time>
      </trkpt>
      <trkpt lat="43.51433" lon="2.69902">
        <ele>956</ele>
        <time>2026-05-22T11:07:24Z</time>
      </trkpt>
      <trkpt lat="43.51433" lon="2.69902">
        <ele>956</ele>
        <time>2026-05-22T11:07:29Z</time>
      </trkpt>
      <trkpt lat="43.51433" lon="2.69902">
        <ele>956</ele>
        <time>2026-05-22T11:07:34Z</time>
      </trkpt>
      <trkpt lat="43.51433" lon="2.69902">
        <ele>956</ele>
        <time>2026-05-22T11:07:39Z</time>
      </trkpt>
      <trkpt lat="43.51433" lon="2.69902">
        <ele>956</ele>
        <time>2026-05-22T11:07:44Z</time>
      </trkpt>
      <trkpt lat="43.51433" lon="2.69902">
        <ele>956</ele>
        <time>2026-05-22T11:07:49Z</time>
      </trkpt>
      <trkpt lat="43.51433" lon="2.69902">
        <ele>956</ele>
        <time>2026-05-22T11:07:54Z</time>
      </trkpt>
      <trkpt lat="43.51433" lon="2.69902">
        <ele>956</ele>
        <time>2026-05-22T11:07:59Z</time>
      </trkpt>
      <trkpt lat="43.51433" lon="2.69902">
        <ele>956</ele>
        <time>2026-05-22T11:08:04Z</time>
      </trkpt>
      <trkpt lat="43.51433" lon="2.69902">
        <ele>956</ele>
        <time>2026-05-22T11:08:09Z</time>
      </trkpt>
      <trkpt lat="43.51433" lon="2.69902">
        <ele>956</ele>
        <time>2026-05-22T11:08:14Z</time>
      </trkpt>
      <trkpt lat="43.51433" lon="2.69902">
        <ele>956</ele>
        <time>2026-05-22T11:08:19Z</time>
      </trkpt>
      <trkpt lat="43.51433" lon="2.69902">
        <ele>956</ele>
        <time>2026-05-22T11:08:24Z</time>
      </trkpt>
      <trkpt lat="43.51433" lon="2.69902">
        <ele>956</ele>
        <time>2026-05-22T11:08:29Z</time>
      </trkpt>
      <trkpt lat="43.51433" lon="2.69902">
        <ele>956</ele>
        <time>2026-05-22T11:08:34Z</time>
      </trkpt>
      <trkpt lat="43.51433" lon="2.69902">
        <ele>956</ele>
        <time>2026-05-22T11:08:39Z</time>
      </trkpt>
      <trkpt lat="43.51433" lon="2.69902">
        <ele>956</ele>
        <time>2026-05-22T11:08:44Z</time>
      </trkpt>
      <trkpt lat="43.51433" lon="2.69902">
        <ele>956</ele>
        <time>2026-05-22T11:08:49Z</time>
      </trkpt>
      <trkpt lat="43.51433" lon="2.69902">
        <ele>956</ele>
        <time>2026-05-22T11:08:54Z</time>
      </trkpt>
      <trkpt lat="43.51433" lon="2.69902">
        <ele>956</ele>
        <time>2026-05-22T11:08:59Z</time>
      </trkpt>
      <trkpt lat="43.51433" lon="2.69902">
        <ele>956</ele>
        <time>2026-05-22T11:09:04Z</time>
      </trkpt>
      <trkpt lat="43.51433" lon="2.69902">
        <ele>956</ele>
        <time>2026-05-22T11:09:09Z</time>
      </trkpt>
      <trkpt lat="43.51433" lon="2.69902">
        <ele>956</ele>
        <time>2026-05-22T11:09:14Z</time>
      </trkpt>
      <trkpt lat="43.51433" lon="2.69902">
        <ele>956</ele>
        <time>2026-05-22T11:09:19Z</time>
      </trkpt>
      <trkpt lat="43.51433" lon="2.69902">
        <ele>956</ele>
        <time>2026-05-22T11:09:24Z</time>
      </trkpt>
      <trkpt lat="43.51433" lon="2.69902">
        <ele>956</ele>
        <time>2026-05-22T11:09:29Z</time>
      </trkpt>
      <trkpt lat="43.51433" lon="2.69902">
        <ele>956</ele>
        <time>2026-05-22T11:09:34Z</time>
      </trkpt>
      <trkpt lat="43.51433" lon="2.69902">
        <ele>956</ele>
        <time>2026-05-22T11:09:39Z</time>
      </trkpt>
      <trkpt lat="43.51433" lon="2.69902">
        <ele>956</ele>
        <time>2026-05-22T11:09:44Z</time>
      </trkpt>
      <trkpt lat="43.51433" lon="2.69902">
        <ele>956</ele>
        <time>2026-05-22T11:09:49Z</time>
      </trkpt>
      <trkpt lat="43.51433" lon="2.69902">
        <ele>956</ele>
        <time>2026-05-22T11:09:54Z</time>
      </trkpt>
      <trkpt lat="43.51433" lon="2.69902">
        <ele>956</ele>
        <time>2026-05-22T11:09:59Z</time>
      </trkpt>
      <trkpt lat="43.51433" lon="2.69902">
        <ele>956</ele>
        <time>2026-05-22T11:10:04Z</time>
      </trkpt>
      <trkpt lat="43.51433" lon="2.69902">
        <ele>956</ele>
        <time>2026-05-22T11:10:09Z</time>
      </trkpt>
      <trkpt lat="43.51433" lon="2.69902">
        <ele>956</ele>
        <time>2026-05-22T11:10:14Z</time>
      </trkpt>
      <trkpt lat="43.51433" lon="2.69902">
        <ele>956</ele>
        <time>2026-05-22T11:10:19Z</time>
      </trkpt>
      <trkpt lat="43.51433" lon="2.69902">
        <ele>956</ele>
        <time>2026-05-22T11:10:24Z</time>
      </trkpt>
      <trkpt lat="43.51433" lon="2.69902">
        <ele>956</ele>
        <time>2026-05-22T11:10:29Z</time>
      </trkpt>
      <trkpt lat="43.51433" lon="2.69902">
        <ele>956</ele>
        <time>2026-05-22T11:10:34Z</time>
      </trkpt>
      <trkpt lat="43.51433" lon="2.69902">
        <ele>956</ele>
        <time>2026-05-22T11:10:39Z</time>
      </trkpt>
      <trkpt lat="43.51433" lon="2.69902">
        <ele>956</ele>
        <time>2026-05-22T11:10:44Z</time>
      </trkpt>
      <trkpt lat="43.51433" lon="2.69902">
        <ele>956</ele>
        <time>2026-05-22T11:10:49Z</time>
      </trkpt>
      <trkpt lat="43.51433" lon="2.69902">
        <ele>956</ele>
        <time>2026-05-22T11:10:54Z</time>
      </trkpt>
      <trkpt lat="43.51433" lon="2.69902">
        <ele>956</ele>
        <time>2026-05-22T11:10:59Z</time>
      </trkpt>
      <trkpt lat="43.51433" lon="2.69902">
        <ele>956</ele>
        <time>2026-05-22T11:11:04Z</time>
      </trkpt>
      <trkpt lat="43.51433" lon="2.69902">
        <ele>956</ele>
        <time>2026-05-22T11:11:09Z</time>
      </trkpt>
      <trkpt lat="43.51433" lon="2.69902">
        <ele>956</ele>
        <time>2026-05-22T11:11:14Z</time>
      </trkpt>
      <trkpt lat="43.51433" lon="2.69902">
        <ele>956</ele>
        <time>2026-05-22T11:11:19Z</time>
      </trkpt>
      <trkpt lat="43.51433" lon="2.69902">
        <ele>956</ele>
        <time>2026-05-22T11:11:24Z</time>
      </trkpt>
      <trkpt lat="43.51433" lon="2.69902">
        <ele>956</ele>
        <time>2026-05-22T11:11:29Z</time>
      </trkpt>
      <trkpt lat="43.51433" lon="2.69902">
        <ele>956</ele>
        <time>2026-05-22T11:11:34Z</time>
      </trkpt>
      <trkpt lat="43.51433" lon="2.69902">
        <ele>956</ele>
        <time>2026-05-22T11:11:39Z</time>
      </trkpt>
      <trkpt lat="43.51433" lon="2.69902">
        <ele>956</ele>
        <time>2026-05-22T11:11:44Z</time>
      </trkpt>
      <trkpt lat="43.51433" lon="2.69902">
        <ele>956</ele>
        <time>2026-05-22T11:11:49Z</time>
      </trkpt>
      <trkpt lat="43.51433" lon="2.69902">
        <ele>956</ele>
        <time>2026-05-22T11:11:54Z</time>
      </trkpt>
      <trkpt lat="43.51433" lon="2.69902">
        <ele>956</ele>
        <time>2026-05-22T11:11:59Z</time>
      </trkpt>
      <trkpt lat="43.51433" lon="2.69902">
        <ele>956</ele>
        <time>2026-05-22T11:12:04Z</time>
      </trkpt>
      <trkpt lat="43.51433" lon="2.69902">
        <ele>956</ele>
        <time>2026-05-22T11:12:09Z</time>
      </trkpt>
      <trkpt lat="43.51433" lon="2.69902">
        <ele>956</ele>
        <time>2026-05-22T11:12:14Z</time>
      </trkpt>
      <trkpt lat="43.51433" lon="2.69902">
        <ele>956</ele>
        <time>2026-05-22T11:12:19Z</time>
      </trkpt>
      <trkpt lat="43.51433" lon="2.69902">
        <ele>956</ele>
        <time>2026-05-22T11:12:24Z</time>
      </trkpt>
      <trkpt lat="43.51433" lon="2.69902">
        <ele>956</ele>
        <time>2026-05-22T11:12:29Z</time>
      </trkpt>
      <trkpt lat="43.51433" lon="2.69902">
        <ele>956</ele>
        <time>2026-05-22T11:12:34Z</time>
      </trkpt>
      <trkpt lat="43.51433" lon="2.69902">
        <ele>956</ele>
        <time>2026-05-22T11:12:39Z</time>
      </trkpt>
      <trkpt lat="43.51433" lon="2.69902">
        <ele>956</ele>
        <time>2026-05-22T11:12:44Z</time>
      </trkpt>
      <trkpt lat="43.51433" lon="2.69902">
        <ele>956</ele>
        <time>2026-05-22T11:12:49Z</time>
      </trkpt>
      <trkpt lat="43.51433" lon="2.69902">
        <ele>956</ele>
        <time>2026-05-22T11:12:54Z</time>
      </trkpt>
      <trkpt lat="43.51433" lon="2.69902">
        <ele>956</ele>
        <time>2026-05-22T11:12:59Z</time>
      </trkpt>
      <trkpt lat="43.51433" lon="2.69902">
        <ele>956</ele>
        <time>2026-05-22T11:13:04Z</time>
      </trkpt>
      <trkpt lat="43.51433" lon="2.69902">
        <ele>956</ele>
        <time>2026-05-22T11:13:09Z</time>
      </trkpt>
      <trkpt lat="43.51433" lon="2.69902">
        <ele>956</ele>
        <time>2026-05-22T11:13:14Z</time>
      </trkpt>
      <trkpt lat="43.51433" lon="2.69902">
        <ele>956</ele>
        <time>2026-05-22T11:13:19Z</time>
      </trkpt>
      <trkpt lat="43.51433" lon="2.69902">
        <ele>956</ele>
        <time>2026-05-22T11:13:24Z</time>
      </trkpt>
      <trkpt lat="43.51433" lon="2.69902">
        <ele>956</ele>
        <time>2026-05-22T11:13:29Z</time>
      </trkpt>
      <trkpt lat="43.51433" lon="2.69902">
        <ele>956</ele>
        <time>2026-05-22T11:13:34Z</time>
      </trkpt>
      <trkpt lat="43.51433" lon="2.69902">
        <ele>956</ele>
        <time>2026-05-22T11:13:39Z</time>
      </trkpt>
      <trkpt lat="43.51433" lon="2.69902">
        <ele>956</ele>
        <time>2026-05-22T11:13:44Z</time>
      </trkpt>
      <trkpt lat="43.51433" lon="2.69902">
        <ele>956</ele>
        <time>2026-05-22T11:13:49Z</time>
      </trkpt>
      <trkpt lat="43.51433" lon="2.69902">
        <ele>956</ele>
        <time>2026-05-22T11:13:54Z</time>
      </trkpt>
      <trkpt lat="43.51433" lon="2.69902">
        <ele>956</ele>
        <time>2026-05-22T11:13:59Z</time>
      </trkpt>
      <trkpt lat="43.51433" lon="2.69902">
        <ele>956</ele>
        <time>2026-05-22T11:14:04Z</time>
      </trkpt>
      <trkpt lat="43.51433" lon="2.69902">
        <ele>956</ele>
        <time>2026-05-22T11:14:09Z</time>
      </trkpt>
      <trkpt lat="43.51433" lon="2.69902">
        <ele>956</ele>
        <time>2026-05-22T11:14:14Z</time>
      </trkpt>
      <trkpt lat="43.51433" lon="2.69902">
        <ele>956</ele>
        <time>2026-05-22T11:14:19Z</time>
      </trkpt>
      <trkpt lat="43.51433" lon="2.69902">
        <ele>956</ele>
        <time>2026-05-22T11:14:24Z</time>
      </trkpt>
      <trkpt lat="43.51433" lon="2.69902">
        <ele>956</ele>
        <time>2026-05-22T11:14:29Z</time>
      </trkpt>
      <trkpt lat="43.51433" lon="2.69902">
        <ele>956</ele>
        <time>2026-05-22T11:14:34Z</time>
      </trkpt>
      <trkpt lat="43.51433" lon="2.69902">
        <ele>956</ele>
        <time>2026-05-22T11:14:39Z</time>
      </trkpt>
      <trkpt lat="43.51433" lon="2.69902">
        <ele>956</ele>
        <time>2026-05-22T11:14:44Z</time>
      </trkpt>
      <trkpt lat="43.51433" lon="2.69902">
        <ele>956</ele>
        <time>2026-05-22T11:14:49Z</time>
      </trkpt>
      <trkpt lat="43.51433" lon="2.69902">
        <ele>956</ele>
        <time>2026-05-22T11:14:54Z</time>
      </trkpt>
      <trkpt lat="43.51433" lon="2.69902">
        <ele>956</ele>
        <time>2026-05-22T11:14:59Z</time>
      </trkpt>
      <trkpt lat="43.51433" lon="2.69902">
        <ele>956</ele>
        <time>2026-05-22T11:15:04Z</time>
      </trkpt>
      <trkpt lat="43.51433" lon="2.69902">
        <ele>956</ele>
        <time>2026-05-22T11:15:09Z</time>
      </trkpt>
      <trkpt lat="43.51433" lon="2.69902">
        <ele>956</ele>
        <time>2026-05-22T11:15:14Z</time>
      </trkpt>
      <trkpt lat="43.51433" lon="2.69902">
        <ele>956</ele>
        <time>2026-05-22T11:15:19Z</time>
      </trkpt>
      <trkpt lat="43.51433" lon="2.69902">
        <ele>956</ele>
        <time>2026-05-22T11:15:24Z</time>
      </trkpt>
      <trkpt lat="43.51433" lon="2.69902">
        <ele>956</ele>
        <time>2026-05-22T11:15:29Z</time>
      </trkpt>
      <trkpt lat="43.51433" lon="2.69902">
        <ele>956</ele>
        <time>2026-05-22T11:15:34Z</time>
      </trkpt>
      <trkpt lat="43.51433" lon="2.69902">
        <ele>956</ele>
        <time>2026-05-22T11:15:39Z</time>
      </trkpt>
      <trkpt lat="43.51433" lon="2.69902">
        <ele>956</ele>
        <time>2026-05-22T11:15:44Z</time>
      </trkpt>
      <trkpt lat="43.51433" lon="2.69902">
        <ele>956</ele>
        <time>2026-05-22T11:15:49Z</time>
      </trkpt>
      <trkpt lat="43.51433" lon="2.69902">
        <ele>956</ele>
        <time>2026-05-22T11:15:54Z</time>
      </trkpt>
      <trkpt lat="43.51431" lon="2.699">
        <ele>956</ele>
        <time>2026-05-22T11:15:59Z</time>
      </trkpt>
      <trkpt lat="43.51431" lon="2.699">
        <ele>956</ele>
        <time>2026-05-22T11:16:04Z</time>
      </trkpt>
      <trkpt lat="43.51431" lon="2.699">
        <ele>956</ele>
        <time>2026-05-22T11:16:09Z</time>
      </trkpt>
      <trkpt lat="43.51431" lon="2.699">
        <ele>956</ele>
        <time>2026-05-22T11:16:14Z</time>
      </trkpt>
      <trkpt lat="43.51431" lon="2.699">
        <ele>956</ele>
        <time>2026-05-22T11:16:19Z</time>
      </trkpt>
      <trkpt lat="43.51431" lon="2.699">
        <ele>956</ele>
        <time>2026-05-22T11:16:24Z</time>
      </trkpt>
      <trkpt lat="43.51431" lon="2.699">
        <ele>956</ele>
        <time>2026-05-22T11:16:29Z</time>
      </trkpt>
      <trkpt lat="43.51431" lon="2.699">
        <ele>956</ele>
        <time>2026-05-22T11:16:34Z</time>
      </trkpt>
      <trkpt lat="43.51431" lon="2.699">
        <ele>956</ele>
        <time>2026-05-22T11:16:39Z</time>
      </trkpt>
      <trkpt lat="43.51431" lon="2.699">
        <ele>956</ele>
        <time>2026-05-22T11:16:44Z</time>
      </trkpt>
      <trkpt lat="43.51431" lon="2.699">
        <ele>956</ele>
        <time>2026-05-22T11:16:49Z</time>
      </trkpt>
      <trkpt lat="43.51431" lon="2.699">
        <ele>956</ele>
        <time>2026-05-22T11:16:54Z</time>
      </trkpt>
      <trkpt lat="43.51431" lon="2.699">
        <ele>956</ele>
        <time>2026-05-22T11:16:59Z</time>
      </trkpt>
      <trkpt lat="43.51431" lon="2.699">
        <ele>956</ele>
        <time>2026-05-22T11:17:04Z</time>
      </trkpt>
      <trkpt lat="43.51431" lon="2.699">
        <ele>956</ele>
        <time>2026-05-22T11:17:09Z</time>
      </trkpt>
      <trkpt lat="43.51431" lon="2.699">
        <ele>956</ele>
        <time>2026-05-22T11:17:14Z</time>
      </trkpt>
      <trkpt lat="43.51431" lon="2.699">
        <ele>956</ele>
        <time>2026-05-22T11:17:19Z</time>
      </trkpt>
      <trkpt lat="43.51431" lon="2.699">
        <ele>956</ele>
        <time>2026-05-22T11:17:24Z</time>
      </trkpt>
      <trkpt lat="43.51431" lon="2.699">
        <ele>956</ele>
        <time>2026-05-22T11:17:29Z</time>
      </trkpt>
      <trkpt lat="43.51431" lon="2.699">
        <ele>956</ele>
        <time>2026-05-22T11:17:34Z</time>
      </trkpt>
      <trkpt lat="43.51431" lon="2.699">
        <ele>956</ele>
        <time>2026-05-22T11:17:39Z</time>
      </trkpt>
      <trkpt lat="43.51431" lon="2.699">
        <ele>956</ele>
        <time>2026-05-22T11:17:44Z</time>
      </trkpt>
      <trkpt lat="43.51431" lon="2.699">
        <ele>956</ele>
        <time>2026-05-22T11:17:49Z</time>
      </trkpt>
      <trkpt lat="43.51431" lon="2.699">
        <ele>956</ele>
        <time>2026-05-22T11:17:54Z</time>
      </trkpt>
      <trkpt lat="43.51431" lon="2.699">
        <ele>956</ele>
        <time>2026-05-22T11:17:59Z</time>
      </trkpt>
      <trkpt lat="43.51431" lon="2.699">
        <ele>956</ele>
        <time>2026-05-22T11:18:04Z</time>
      </trkpt>
      <trkpt lat="43.51431" lon="2.699">
        <ele>956</ele>
        <time>2026-05-22T11:18:09Z</time>
      </trkpt>
      <trkpt lat="43.51431" lon="2.699">
        <ele>956</ele>
        <time>2026-05-22T11:18:14Z</time>
      </trkpt>
      <trkpt lat="43.51431" lon="2.699">
        <ele>956</ele>
        <time>2026-05-22T11:18:19Z</time>
      </trkpt>
      <trkpt lat="43.51431" lon="2.699">
        <ele>956</ele>
        <time>2026-05-22T11:18:24Z</time>
      </trkpt>
      <trkpt lat="43.51431" lon="2.699">
        <ele>956</ele>
        <time>2026-05-22T11:18:29Z</time>
      </trkpt>
      <trkpt lat="43.51431" lon="2.699">
        <ele>956</ele>
        <time>2026-05-22T11:18:34Z</time>
      </trkpt>
      <trkpt lat="43.51431" lon="2.699">
        <ele>956</ele>
        <time>2026-05-22T11:18:39Z</time>
      </trkpt>
      <trkpt lat="43.51431" lon="2.699">
        <ele>956</ele>
        <time>2026-05-22T11:18:44Z</time>
      </trkpt>
      <trkpt lat="43.51431" lon="2.699">
        <ele>956</ele>
        <time>2026-05-22T11:18:49Z</time>
      </trkpt>
      <trkpt lat="43.51431" lon="2.699">
        <ele>956</ele>
        <time>2026-05-22T11:18:54Z</time>
      </trkpt>
      <trkpt lat="43.51431" lon="2.699">
        <ele>956</ele>
        <time>2026-05-22T11:18:59Z</time>
      </trkpt>
      <trkpt lat="43.51431" lon="2.699">
        <ele>956</ele>
        <time>2026-05-22T11:19:04Z</time>
      </trkpt>
      <trkpt lat="43.51431" lon="2.699">
        <ele>956</ele>
        <time>2026-05-22T11:19:09Z</time>
      </trkpt>
      <trkpt lat="43.51431" lon="2.699">
        <ele>956</ele>
        <time>2026-05-22T11:19:14Z</time>
      </trkpt>
      <trkpt lat="43.51431" lon="2.699">
        <ele>956</ele>
        <time>2026-05-22T11:19:19Z</time>
      </trkpt>
      <trkpt lat="43.51431" lon="2.699">
        <ele>956</ele>
        <time>2026-05-22T11:19:24Z</time>
      </trkpt>
      <trkpt lat="43.51431" lon="2.699">
        <ele>956</ele>
        <time>2026-05-22T11:19:29Z</time>
      </trkpt>
      <trkpt lat="43.51431" lon="2.699">
        <ele>956</ele>
        <time>2026-05-22T11:19:34Z</time>
      </trkpt>
      <trkpt lat="43.51431" lon="2.699">
        <ele>956</ele>
        <time>2026-05-22T11:19:39Z</time>
      </trkpt>
      <trkpt lat="43.51431" lon="2.699">
        <ele>956</ele>
        <time>2026-05-22T11:19:44Z</time>
      </trkpt>
      <trkpt lat="43.51431" lon="2.699">
        <ele>956</ele>
        <time>2026-05-22T11:19:49Z</time>
      </trkpt>
      <trkpt lat="43.51431" lon="2.699">
        <ele>956</ele>
        <time>2026-05-22T11:19:54Z</time>
      </trkpt>
      <trkpt lat="43.51431" lon="2.699">
        <ele>956</ele>
        <time>2026-05-22T11:19:59Z</time>
      </trkpt>
      <trkpt lat="43.51431" lon="2.699">
        <ele>956</ele>
        <time>2026-05-22T11:20:04Z</time>
      </trkpt>
      <trkpt lat="43.51431" lon="2.699">
        <ele>956</ele>
        <time>2026-05-22T11:20:09Z</time>
      </trkpt>
      <trkpt lat="43.51431" lon="2.699">
        <ele>956</ele>
        <time>2026-05-22T11:20:14Z</time>
      </trkpt>
      <trkpt lat="43.51431" lon="2.699">
        <ele>956</ele>
        <time>2026-05-22T11:20:19Z</time>
      </trkpt>
      <trkpt lat="43.51431" lon="2.699">
        <ele>956</ele>
        <time>2026-05-22T11:20:24Z</time>
      </trkpt>
      <trkpt lat="43.51431" lon="2.699">
        <ele>956</ele>
        <time>2026-05-22T11:20:29Z</time>
      </trkpt>
      <trkpt lat="43.51431" lon="2.699">
        <ele>956</ele>
        <time>2026-05-22T11:20:34Z</time>
      </trkpt>
      <trkpt lat="43.51431" lon="2.699">
        <ele>956</ele>
        <time>2026-05-22T11:20:39Z</time>
      </trkpt>
      <trkpt lat="43.51431" lon="2.699">
        <ele>956</ele>
        <time>2026-05-22T11:20:44Z</time>
      </trkpt>
      <trkpt lat="43.51431" lon="2.699">
        <ele>956</ele>
        <time>2026-05-22T11:20:49Z</time>
      </trkpt>
      <trkpt lat="43.51431" lon="2.699">
        <ele>956</ele>
        <time>2026-05-22T11:20:54Z</time>
      </trkpt>
      <trkpt lat="43.51431" lon="2.699">
        <ele>956</ele>
        <time>2026-05-22T11:20:59Z</time>
      </trkpt>
      <trkpt lat="43.51431" lon="2.699">
        <ele>956</ele>
        <time>2026-05-22T11:21:04Z</time>
      </trkpt>
      <trkpt lat="43.51431" lon="2.699">
        <ele>956</ele>
        <time>2026-05-22T11:21:09Z</time>
      </trkpt>
      <trkpt lat="43.51431" lon="2.699">
        <ele>956</ele>
        <time>2026-05-22T11:21:14Z</time>
      </trkpt>
      <trkpt lat="43.51431" lon="2.699">
        <ele>956</ele>
        <time>2026-05-22T11:21:19Z</time>
      </trkpt>
      <trkpt lat="43.51431" lon="2.699">
        <ele>956</ele>
        <time>2026-05-22T11:21:24Z</time>
      </trkpt>
      <trkpt lat="43.51431" lon="2.699">
        <ele>956</ele>
        <time>2026-05-22T11:21:29Z</time>
      </trkpt>
      <trkpt lat="43.51431" lon="2.699">
        <ele>956</ele>
        <time>2026-05-22T11:21:34Z</time>
      </trkpt>
      <trkpt lat="43.51431" lon="2.699">
        <ele>956</ele>
        <time>2026-05-22T11:21:39Z</time>
      </trkpt>
      <trkpt lat="43.51431" lon="2.699">
        <ele>956</ele>
        <time>2026-05-22T11:21:44Z</time>
      </trkpt>
      <trkpt lat="43.51431" lon="2.699">
        <ele>956</ele>
        <time>2026-05-22T11:21:49Z</time>
      </trkpt>
      <trkpt lat="43.51431" lon="2.699">
        <ele>956</ele>
        <time>2026-05-22T11:21:54Z</time>
      </trkpt>
      <trkpt lat="43.51431" lon="2.699">
        <ele>956</ele>
        <time>2026-05-22T11:21:59Z</time>
      </trkpt>
      <trkpt lat="43.51431" lon="2.699">
        <ele>956</ele>
        <time>2026-05-22T11:22:04Z</time>
      </trkpt>
      <trkpt lat="43.51431" lon="2.699">
        <ele>956</ele>
        <time>2026-05-22T11:22:09Z</time>
      </trkpt>
      <trkpt lat="43.51431" lon="2.699">
        <ele>956</ele>
        <time>2026-05-22T11:22:14Z</time>
      </trkpt>
      <trkpt lat="43.51431" lon="2.699">
        <ele>956</ele>
        <time>2026-05-22T11:22:19Z</time>
      </trkpt>
      <trkpt lat="43.51431" lon="2.699">
        <ele>956</ele>
        <time>2026-05-22T11:22:24Z</time>
      </trkpt>
      <trkpt lat="43.51431" lon="2.699">
        <ele>956</ele>
        <time>2026-05-22T11:22:29Z</time>
      </trkpt>
      <trkpt lat="43.51431" lon="2.699">
        <ele>956</ele>
        <time>2026-05-22T11:22:34Z</time>
      </trkpt>
      <trkpt lat="43.51431" lon="2.699">
        <ele>956</ele>
        <time>2026-05-22T11:22:39Z</time>
      </trkpt>
      <trkpt lat="43.51431" lon="2.699">
        <ele>956</ele>
        <time>2026-05-22T11:22:44Z</time>
      </trkpt>
      <trkpt lat="43.51431" lon="2.699">
        <ele>956</ele>
        <time>2026-05-22T11:22:49Z</time>
      </trkpt>
      <trkpt lat="43.51431" lon="2.699">
        <ele>956</ele>
        <time>2026-05-22T11:22:54Z</time>
      </trkpt>
      <trkpt lat="43.51431" lon="2.699">
        <ele>956</ele>
        <time>2026-05-22T11:22:59Z</time>
      </trkpt>
      <trkpt lat="43.51431" lon="2.699">
        <ele>956</ele>
        <time>2026-05-22T11:23:04Z</time>
      </trkpt>
      <trkpt lat="43.51431" lon="2.699">
        <ele>956</ele>
        <time>2026-05-22T11:23:09Z</time>
      </trkpt>
      <trkpt lat="43.51431" lon="2.699">
        <ele>956</ele>
        <time>2026-05-22T11:23:14Z</time>
      </trkpt>
      <trkpt lat="43.51431" lon="2.699">
        <ele>956</ele>
        <time>2026-05-22T11:23:19Z</time>
      </trkpt>
      <trkpt lat="43.51431" lon="2.699">
        <ele>956</ele>
        <time>2026-05-22T11:23:24Z</time>
      </trkpt>
      <trkpt lat="43.51431" lon="2.699">
        <ele>956</ele>
        <time>2026-05-22T11:23:29Z</time>
      </trkpt>
      <trkpt lat="43.51431" lon="2.699">
        <ele>956</ele>
        <time>2026-05-22T11:23:34Z</time>
      </trkpt>
      <trkpt lat="43.51431" lon="2.699">
        <ele>956</ele>
        <time>2026-05-22T11:23:39Z</time>
      </trkpt>
      <trkpt lat="43.51431" lon="2.699">
        <ele>956</ele>
        <time>2026-05-22T11:23:44Z</time>
      </trkpt>
      <trkpt lat="43.51431" lon="2.699">
        <ele>956</ele>
        <time>2026-05-22T11:23:49Z</time>
      </trkpt>
      <trkpt lat="43.51431" lon="2.699">
        <ele>956</ele>
        <time>2026-05-22T11:23:54Z</time>
      </trkpt>
      <trkpt lat="43.51431" lon="2.699">
        <ele>956</ele>
        <time>2026-05-22T11:23:59Z</time>
      </trkpt>
      <trkpt lat="43.51431" lon="2.699">
        <ele>956</ele>
        <time>2026-05-22T11:24:04Z</time>
      </trkpt>
      <trkpt lat="43.51431" lon="2.699">
        <ele>956</ele>
        <time>2026-05-22T11:24:09Z</time>
      </trkpt>
      <trkpt lat="43.51431" lon="2.699">
        <ele>956</ele>
        <time>2026-05-22T11:24:14Z</time>
      </trkpt>
      <trkpt lat="43.51431" lon="2.699">
        <ele>956</ele>
        <time>2026-05-22T11:24:19Z</time>
      </trkpt>
      <trkpt lat="43.51431" lon="2.699">
        <ele>956</ele>
        <time>2026-05-22T11:24:24Z</time>
      </trkpt>
      <trkpt lat="43.51431" lon="2.699">
        <ele>956</ele>
        <time>2026-05-22T11:24:29Z</time>
      </trkpt>
      <trkpt lat="43.51431" lon="2.699">
        <ele>956</ele>
        <time>2026-05-22T11:24:34Z</time>
      </trkpt>
      <trkpt lat="43.51431" lon="2.699">
        <ele>956</ele>
        <time>2026-05-22T11:24:39Z</time>
      </trkpt>
      <trkpt lat="43.51431" lon="2.699">
        <ele>956</ele>
        <time>2026-05-22T11:24:44Z</time>
      </trkpt>
      <trkpt lat="43.51431" lon="2.699">
        <ele>956</ele>
        <time>2026-05-22T11:24:49Z</time>
      </trkpt>
      <trkpt lat="43.51431" lon="2.699">
        <ele>956</ele>
        <time>2026-05-22T11:24:54Z</time>
      </trkpt>
      <trkpt lat="43.51431" lon="2.699">
        <ele>956</ele>
        <time>2026-05-22T11:24:59Z</time>
      </trkpt>
      <trkpt lat="43.51431" lon="2.699">
        <ele>956</ele>
        <time>2026-05-22T11:25:04Z</time>
      </trkpt>
      <trkpt lat="43.51431" lon="2.699">
        <ele>956</ele>
        <time>2026-05-22T11:25:09Z</time>
      </trkpt>
      <trkpt lat="43.51431" lon="2.699">
        <ele>956</ele>
        <time>2026-05-22T11:25:14Z</time>
      </trkpt>
      <trkpt lat="43.51431" lon="2.699">
        <ele>956</ele>
        <time>2026-05-22T11:25:19Z</time>
      </trkpt>
      <trkpt lat="43.51431" lon="2.699">
        <ele>956</ele>
        <time>2026-05-22T11:25:24Z</time>
      </trkpt>
      <trkpt lat="43.51431" lon="2.699">
        <ele>956</ele>
        <time>2026-05-22T11:25:29Z</time>
      </trkpt>
      <trkpt lat="43.51431" lon="2.699">
        <ele>956</ele>
        <time>2026-05-22T11:25:34Z</time>
      </trkpt>
      <trkpt lat="43.51431" lon="2.699">
        <ele>956</ele>
        <time>2026-05-22T11:25:39Z</time>
      </trkpt>
      <trkpt lat="43.51431" lon="2.699">
        <ele>956</ele>
        <time>2026-05-22T11:25:44Z</time>
      </trkpt>
      <trkpt lat="43.51431" lon="2.699">
        <ele>956</ele>
        <time>2026-05-22T11:25:49Z</time>
      </trkpt>
      <trkpt lat="43.51431" lon="2.699">
        <ele>956</ele>
        <time>2026-05-22T11:25:54Z</time>
      </trkpt>
      <trkpt lat="43.51431" lon="2.699">
        <ele>956</ele>
        <time>2026-05-22T11:25:59Z</time>
      </trkpt>
      <trkpt lat="43.51431" lon="2.699">
        <ele>956</ele>
        <time>2026-05-22T11:26:04Z</time>
      </trkpt>
      <trkpt lat="43.51431" lon="2.699">
        <ele>956</ele>
        <time>2026-05-22T11:26:09Z</time>
      </trkpt>
      <trkpt lat="43.51431" lon="2.699">
        <ele>956</ele>
        <time>2026-05-22T11:26:14Z</time>
      </trkpt>
      <trkpt lat="43.51431" lon="2.699">
        <ele>956</ele>
        <time>2026-05-22T11:26:19Z</time>
      </trkpt>
      <trkpt lat="43.51431" lon="2.699">
        <ele>956</ele>
        <time>2026-05-22T11:26:24Z</time>
      </trkpt>
      <trkpt lat="43.51431" lon="2.699">
        <ele>956</ele>
        <time>2026-05-22T11:26:29Z</time>
      </trkpt>
      <trkpt lat="43.51431" lon="2.699">
        <ele>956</ele>
        <time>2026-05-22T11:26:34Z</time>
      </trkpt>
      <trkpt lat="43.51431" lon="2.699">
        <ele>956</ele>
        <time>2026-05-22T11:26:39Z</time>
      </trkpt>
      <trkpt lat="43.51431" lon="2.699">
        <ele>956</ele>
        <time>2026-05-22T11:26:44Z</time>
      </trkpt>
      <trkpt lat="43.51431" lon="2.699">
        <ele>956</ele>
        <time>2026-05-22T11:26:49Z</time>
      </trkpt>
      <trkpt lat="43.51431" lon="2.699">
        <ele>956</ele>
        <time>2026-05-22T11:26:54Z</time>
      </trkpt>
      <trkpt lat="43.51431" lon="2.699">
        <ele>956</ele>
        <time>2026-05-22T11:26:59Z</time>
      </trkpt>
      <trkpt lat="43.51431" lon="2.699">
        <ele>956</ele>
        <time>2026-05-22T11:27:04Z</time>
      </trkpt>
      <trkpt lat="43.51431" lon="2.699">
        <ele>956</ele>
        <time>2026-05-22T11:27:09Z</time>
      </trkpt>
      <trkpt lat="43.51423" lon="2.69906">
        <ele>955.6</ele>
        <time>2026-05-22T11:27:14Z</time>
      </trkpt>
      <trkpt lat="43.51417" lon="2.69912">
        <ele>955.2</ele>
        <time>2026-05-22T11:27:19Z</time>
      </trkpt>
      <trkpt lat="43.5141" lon="2.69917">
        <ele>954.9</ele>
        <time>2026-05-22T11:27:24Z</time>
      </trkpt>
      <trkpt lat="43.51405" lon="2.6992">
        <ele>954.5</ele>
        <time>2026-05-22T11:27:29Z</time>
      </trkpt>
      <trkpt lat="43.51397" lon="2.69921">
        <ele>954.3</ele>
        <time>2026-05-22T11:27:34Z</time>
      </trkpt>
      <trkpt lat="43.5139" lon="2.6992">
        <ele>954.3</ele>
        <time>2026-05-22T11:27:39Z</time>
      </trkpt>
      <trkpt lat="43.51383" lon="2.69921">
        <ele>954.1</ele>
        <time>2026-05-22T11:27:44Z</time>
      </trkpt>
      <trkpt lat="43.51376" lon="2.69922">
        <ele>954</ele>
        <time>2026-05-22T11:27:49Z</time>
      </trkpt>
      <trkpt lat="43.51368" lon="2.69922">
        <ele>953.9</ele>
        <time>2026-05-22T11:27:54Z</time>
      </trkpt>
      <trkpt lat="43.51359" lon="2.69923">
        <ele>953.7</ele>
        <time>2026-05-22T11:27:59Z</time>
      </trkpt>
      <trkpt lat="43.5135" lon="2.69926">
        <ele>953.3</ele>
        <time>2026-05-22T11:28:04Z</time>
      </trkpt>
      <trkpt lat="43.51343" lon="2.69928">
        <ele>953.1</ele>
        <time>2026-05-22T11:28:09Z</time>
      </trkpt>
      <trkpt lat="43.51336" lon="2.69929">
        <ele>953</ele>
        <time>2026-05-22T11:28:14Z</time>
      </trkpt>
      <trkpt lat="43.51329" lon="2.69931">
        <ele>952.5</ele>
        <time>2026-05-22T11:28:19Z</time>
      </trkpt>
      <trkpt lat="43.51319" lon="2.69935">
        <ele>951.5</ele>
        <time>2026-05-22T11:28:24Z</time>
      </trkpt>
      <trkpt lat="43.51309" lon="2.69937">
        <ele>950.8</ele>
        <time>2026-05-22T11:28:29Z</time>
      </trkpt>
      <trkpt lat="43.51302" lon="2.69936">
        <ele>950.4</ele>
        <time>2026-05-22T11:28:34Z</time>
      </trkpt>
      <trkpt lat="43.51293" lon="2.69936">
        <ele>949.8</ele>
        <time>2026-05-22T11:28:39Z</time>
      </trkpt>
      <trkpt lat="43.51287" lon="2.69935">
        <ele>949.5</ele>
        <time>2026-05-22T11:28:44Z</time>
      </trkpt>
      <trkpt lat="43.5128" lon="2.69935">
        <ele>949</ele>
        <time>2026-05-22T11:28:49Z</time>
      </trkpt>
      <trkpt lat="43.51271" lon="2.69931">
        <ele>948.7</ele>
        <time>2026-05-22T11:28:54Z</time>
      </trkpt>
      <trkpt lat="43.51264" lon="2.69924">
        <ele>948.6</ele>
        <time>2026-05-22T11:28:59Z</time>
      </trkpt>
      <trkpt lat="43.51258" lon="2.69915">
        <ele>948.6</ele>
        <time>2026-05-22T11:29:04Z</time>
      </trkpt>
      <trkpt lat="43.51255" lon="2.69907">
        <ele>948.5</ele>
        <time>2026-05-22T11:29:09Z</time>
      </trkpt>
      <trkpt lat="43.51251" lon="2.69899">
        <ele>948.3</ele>
        <time>2026-05-22T11:29:14Z</time>
      </trkpt>
      <trkpt lat="43.51248" lon="2.6989">
        <ele>948.1</ele>
        <time>2026-05-22T11:29:19Z</time>
      </trkpt>
      <trkpt lat="43.51244" lon="2.69882">
        <ele>947.8</ele>
        <time>2026-05-22T11:29:24Z</time>
      </trkpt>
      <trkpt lat="43.51241" lon="2.69871">
        <ele>947.6</ele>
        <time>2026-05-22T11:29:29Z</time>
      </trkpt>
      <trkpt lat="43.51237" lon="2.69862">
        <ele>947.3</ele>
        <time>2026-05-22T11:29:34Z</time>
      </trkpt>
      <trkpt lat="43.51232" lon="2.69851">
        <ele>947</ele>
        <time>2026-05-22T11:29:39Z</time>
      </trkpt>
      <trkpt lat="43.51227" lon="2.69844">
        <ele>946.6</ele>
        <time>2026-05-22T11:29:44Z</time>
      </trkpt>
      <trkpt lat="43.51224" lon="2.69834">
        <ele>946.5</ele>
        <time>2026-05-22T11:29:49Z</time>
      </trkpt>
      <trkpt lat="43.51219" lon="2.69825">
        <ele>946</ele>
        <time>2026-05-22T11:29:54Z</time>
      </trkpt>
      <trkpt lat="43.51215" lon="2.69815">
        <ele>945.5</ele>
        <time>2026-05-22T11:29:59Z</time>
      </trkpt>
      <trkpt lat="43.51213" lon="2.69806">
        <ele>945.3</ele>
        <time>2026-05-22T11:30:04Z</time>
      </trkpt>
      <trkpt lat="43.51211" lon="2.69795">
        <ele>945</ele>
        <time>2026-05-22T11:30:09Z</time>
      </trkpt>
      <trkpt lat="43.51208" lon="2.69783">
        <ele>944.7</ele>
        <time>2026-05-22T11:30:14Z</time>
      </trkpt>
      <trkpt lat="43.51204" lon="2.69772">
        <ele>944.3</ele>
        <time>2026-05-22T11:30:19Z</time>
      </trkpt>
      <trkpt lat="43.51201" lon="2.69762">
        <ele>943.9</ele>
        <time>2026-05-22T11:30:24Z</time>
      </trkpt>
      <trkpt lat="43.51198" lon="2.6975">
        <ele>943.6</ele>
        <time>2026-05-22T11:30:29Z</time>
      </trkpt>
      <trkpt lat="43.51195" lon="2.69738">
        <ele>943</ele>
        <time>2026-05-22T11:30:34Z</time>
      </trkpt>
      <trkpt lat="43.51192" lon="2.69726">
        <ele>942.3</ele>
        <time>2026-05-22T11:30:39Z</time>
      </trkpt>
      <trkpt lat="43.51191" lon="2.69715">
        <ele>941.9</ele>
        <time>2026-05-22T11:30:44Z</time>
      </trkpt>
      <trkpt lat="43.51189" lon="2.69703">
        <ele>941.2</ele>
        <time>2026-05-22T11:30:49Z</time>
      </trkpt>
      <trkpt lat="43.5119" lon="2.69692">
        <ele>941</ele>
        <time>2026-05-22T11:30:54Z</time>
      </trkpt>
      <trkpt lat="43.51191" lon="2.69681">
        <ele>940.7</ele>
        <time>2026-05-22T11:30:59Z</time>
      </trkpt>
      <trkpt lat="43.51193" lon="2.69672">
        <ele>940.7</ele>
        <time>2026-05-22T11:31:04Z</time>
      </trkpt>
      <trkpt lat="43.51195" lon="2.69661">
        <ele>940.5</ele>
        <time>2026-05-22T11:31:09Z</time>
      </trkpt>
      <trkpt lat="43.512" lon="2.69649">
        <ele>940.7</ele>
        <time>2026-05-22T11:31:14Z</time>
      </trkpt>
      <trkpt lat="43.51201" lon="2.69638">
        <ele>940.4</ele>
        <time>2026-05-22T11:31:19Z</time>
      </trkpt>
      <trkpt lat="43.51202" lon="2.69626">
        <ele>940.1</ele>
        <time>2026-05-22T11:31:24Z</time>
      </trkpt>
      <trkpt lat="43.51205" lon="2.69615">
        <ele>940.2</ele>
        <time>2026-05-22T11:31:29Z</time>
      </trkpt>
      <trkpt lat="43.51207" lon="2.69605">
        <ele>940.1</ele>
        <time>2026-05-22T11:31:34Z</time>
      </trkpt>
      <trkpt lat="43.51207" lon="2.69592">
        <ele>939.6</ele>
        <time>2026-05-22T11:31:39Z</time>
      </trkpt>
      <trkpt lat="43.51207" lon="2.69582">
        <ele>939.3</ele>
        <time>2026-05-22T11:31:44Z</time>
      </trkpt>
      <trkpt lat="43.51206" lon="2.69571">
        <ele>938.9</ele>
        <time>2026-05-22T11:31:49Z</time>
      </trkpt>
      <trkpt lat="43.51203" lon="2.6956">
        <ele>938.3</ele>
        <time>2026-05-22T11:31:54Z</time>
      </trkpt>
      <trkpt lat="43.51203" lon="2.69551">
        <ele>938.2</ele>
        <time>2026-05-22T11:31:59Z</time>
      </trkpt>
      <trkpt lat="43.51204" lon="2.69541">
        <ele>938.1</ele>
        <time>2026-05-22T11:32:04Z</time>
      </trkpt>
      <trkpt lat="43.51201" lon="2.69528">
        <ele>937.5</ele>
        <time>2026-05-22T11:32:09Z</time>
      </trkpt>
      <trkpt lat="43.51197" lon="2.69515">
        <ele>936.8</ele>
        <time>2026-05-22T11:32:14Z</time>
      </trkpt>
      <trkpt lat="43.51195" lon="2.69504">
        <ele>936.4</ele>
        <time>2026-05-22T11:32:19Z</time>
      </trkpt>
      <trkpt lat="43.51192" lon="2.69496">
        <ele>936</ele>
        <time>2026-05-22T11:32:24Z</time>
      </trkpt>
      <trkpt lat="43.51189" lon="2.69487">
        <ele>935.7</ele>
        <time>2026-05-22T11:32:29Z</time>
      </trkpt>
      <trkpt lat="43.51183" lon="2.69477">
        <ele>935</ele>
        <time>2026-05-22T11:32:34Z</time>
      </trkpt>
      <trkpt lat="43.51177" lon="2.69468">
        <ele>934.2</ele>
        <time>2026-05-22T11:32:39Z</time>
      </trkpt>
      <trkpt lat="43.51175" lon="2.69456">
        <ele>934</ele>
        <time>2026-05-22T11:32:44Z</time>
      </trkpt>
      <trkpt lat="43.51172" lon="2.69446">
        <ele>933.6</ele>
        <time>2026-05-22T11:32:49Z</time>
      </trkpt>
      <trkpt lat="43.51168" lon="2.69437">
        <ele>933.2</ele>
        <time>2026-05-22T11:32:54Z</time>
      </trkpt>
      <trkpt lat="43.51166" lon="2.69426">
        <ele>932.9</ele>
        <time>2026-05-22T11:32:59Z</time>
      </trkpt>
      <trkpt lat="43.51164" lon="2.69412">
        <ele>932.9</ele>
        <time>2026-05-22T11:33:04Z</time>
      </trkpt>
      <trkpt lat="43.51162" lon="2.69402">
        <ele>932.8</ele>
        <time>2026-05-22T11:33:09Z</time>
      </trkpt>
      <trkpt lat="43.51161" lon="2.6939">
        <ele>932.9</ele>
        <time>2026-05-22T11:33:14Z</time>
      </trkpt>
      <trkpt lat="43.5116" lon="2.69378">
        <ele>932.9</ele>
        <time>2026-05-22T11:33:19Z</time>
      </trkpt>
      <trkpt lat="43.5116" lon="2.69366">
        <ele>933.1</ele>
        <time>2026-05-22T11:33:24Z</time>
      </trkpt>
      <trkpt lat="43.51158" lon="2.69357">
        <ele>933</ele>
        <time>2026-05-22T11:33:29Z</time>
      </trkpt>
      <trkpt lat="43.51157" lon="2.69346">
        <ele>933.1</ele>
        <time>2026-05-22T11:33:34Z</time>
      </trkpt>
      <trkpt lat="43.51156" lon="2.69335">
        <ele>933.1</ele>
        <time>2026-05-22T11:33:39Z</time>
      </trkpt>
      <trkpt lat="43.51155" lon="2.69324">
        <ele>932.8</ele>
        <time>2026-05-22T11:33:44Z</time>
      </trkpt>
      <trkpt lat="43.51152" lon="2.69312">
        <ele>932.2</ele>
        <time>2026-05-22T11:33:49Z</time>
      </trkpt>
      <trkpt lat="43.51151" lon="2.69301">
        <ele>931.8</ele>
        <time>2026-05-22T11:33:54Z</time>
      </trkpt>
      <trkpt lat="43.51149" lon="2.69288">
        <ele>931.3</ele>
        <time>2026-05-22T11:33:59Z</time>
      </trkpt>
      <trkpt lat="43.51147" lon="2.69275">
        <ele>930.8</ele>
        <time>2026-05-22T11:34:04Z</time>
      </trkpt>
      <trkpt lat="43.51145" lon="2.69264">
        <ele>930.3</ele>
        <time>2026-05-22T11:34:09Z</time>
      </trkpt>
      <trkpt lat="43.51143" lon="2.69253">
        <ele>929.8</ele>
        <time>2026-05-22T11:34:14Z</time>
      </trkpt>
      <trkpt lat="43.51142" lon="2.69244">
        <ele>929.5</ele>
        <time>2026-05-22T11:34:19Z</time>
      </trkpt>
      <trkpt lat="43.5114" lon="2.69232">
        <ele>929.1</ele>
        <time>2026-05-22T11:34:24Z</time>
      </trkpt>
      <trkpt lat="43.51137" lon="2.6922">
        <ele>928.5</ele>
        <time>2026-05-22T11:34:29Z</time>
      </trkpt>
      <trkpt lat="43.51137" lon="2.69208">
        <ele>928.3</ele>
        <time>2026-05-22T11:34:34Z</time>
      </trkpt>
      <trkpt lat="43.51135" lon="2.69198">
        <ele>927.8</ele>
        <time>2026-05-22T11:34:39Z</time>
      </trkpt>
      <trkpt lat="43.51133" lon="2.69186">
        <ele>927.2</ele>
        <time>2026-05-22T11:34:44Z</time>
      </trkpt>
      <trkpt lat="43.5113" lon="2.69172">
        <ele>926.4</ele>
        <time>2026-05-22T11:34:49Z</time>
      </trkpt>
      <trkpt lat="43.51127" lon="2.69161">
        <ele>926</ele>
        <time>2026-05-22T11:34:54Z</time>
      </trkpt>
      <trkpt lat="43.51124" lon="2.69153">
        <ele>925.8</ele>
        <time>2026-05-22T11:34:59Z</time>
      </trkpt>
      <trkpt lat="43.51121" lon="2.69143">
        <ele>925.6</ele>
        <time>2026-05-22T11:35:04Z</time>
      </trkpt>
      <trkpt lat="43.51118" lon="2.69133">
        <ele>925.5</ele>
        <time>2026-05-22T11:35:09Z</time>
      </trkpt>
      <trkpt lat="43.51116" lon="2.69124">
        <ele>925.4</ele>
        <time>2026-05-22T11:35:14Z</time>
      </trkpt>
      <trkpt lat="43.51112" lon="2.69116">
        <ele>925.1</ele>
        <time>2026-05-22T11:35:19Z</time>
      </trkpt>
      <trkpt lat="43.51108" lon="2.69109">
        <ele>924.7</ele>
        <time>2026-05-22T11:35:24Z</time>
      </trkpt>
      <trkpt lat="43.51105" lon="2.69098">
        <ele>924.6</ele>
        <time>2026-05-22T11:35:29Z</time>
      </trkpt>
      <trkpt lat="43.51102" lon="2.69087">
        <ele>924.6</ele>
        <time>2026-05-22T11:35:34Z</time>
      </trkpt>
      <trkpt lat="43.51098" lon="2.69074">
        <ele>924.5</ele>
        <time>2026-05-22T11:35:39Z</time>
      </trkpt>
      <trkpt lat="43.51093" lon="2.69058">
        <ele>924.5</ele>
        <time>2026-05-22T11:35:44Z</time>
      </trkpt>
      <trkpt lat="43.5109" lon="2.69047">
        <ele>924.6</ele>
        <time>2026-05-22T11:35:49Z</time>
      </trkpt>
      <trkpt lat="43.51087" lon="2.69039">
        <ele>924.6</ele>
        <time>2026-05-22T11:35:54Z</time>
      </trkpt>
      <trkpt lat="43.51085" lon="2.69028">
        <ele>924.9</ele>
        <time>2026-05-22T11:35:59Z</time>
      </trkpt>
      <trkpt lat="43.51082" lon="2.69019">
        <ele>924.9</ele>
        <time>2026-05-22T11:36:04Z</time>
      </trkpt>
      <trkpt lat="43.51081" lon="2.6901">
        <ele>925.2</ele>
        <time>2026-05-22T11:36:09Z</time>
      </trkpt>
      <trkpt lat="43.5108" lon="2.68999">
        <ele>925.5</ele>
        <time>2026-05-22T11:36:14Z</time>
      </trkpt>
      <trkpt lat="43.5108" lon="2.68991">
        <ele>925.5</ele>
        <time>2026-05-22T11:36:19Z</time>
      </trkpt>
      <trkpt lat="43.51081" lon="2.6898">
        <ele>925.7</ele>
        <time>2026-05-22T11:36:24Z</time>
      </trkpt>
      <trkpt lat="43.51082" lon="2.6897">
        <ele>925.8</ele>
        <time>2026-05-22T11:36:29Z</time>
      </trkpt>
      <trkpt lat="43.51083" lon="2.6896">
        <ele>926</ele>
        <time>2026-05-22T11:36:34Z</time>
      </trkpt>
      <trkpt lat="43.51083" lon="2.68949">
        <ele>926</ele>
        <time>2026-05-22T11:36:39Z</time>
      </trkpt>
      <trkpt lat="43.51083" lon="2.68937">
        <ele>926</ele>
        <time>2026-05-22T11:36:44Z</time>
      </trkpt>
      <trkpt lat="43.51083" lon="2.68927">
        <ele>926</ele>
        <time>2026-05-22T11:36:49Z</time>
      </trkpt>
      <trkpt lat="43.51082" lon="2.68916">
        <ele>925.8</ele>
        <time>2026-05-22T11:36:54Z</time>
      </trkpt>
      <trkpt lat="43.5108" lon="2.68903">
        <ele>924.9</ele>
        <time>2026-05-22T11:36:59Z</time>
      </trkpt>
      <trkpt lat="43.5108" lon="2.68892">
        <ele>924.3</ele>
        <time>2026-05-22T11:37:04Z</time>
      </trkpt>
      <trkpt lat="43.51079" lon="2.68879">
        <ele>923.5</ele>
        <time>2026-05-22T11:37:09Z</time>
      </trkpt>
      <trkpt lat="43.51079" lon="2.6887">
        <ele>923.1</ele>
        <time>2026-05-22T11:37:14Z</time>
      </trkpt>
      <trkpt lat="43.51077" lon="2.6886">
        <ele>922.3</ele>
        <time>2026-05-22T11:37:19Z</time>
      </trkpt>
      <trkpt lat="43.51077" lon="2.68848">
        <ele>921.7</ele>
        <time>2026-05-22T11:37:24Z</time>
      </trkpt>
      <trkpt lat="43.51077" lon="2.68839">
        <ele>921.2</ele>
        <time>2026-05-22T11:37:29Z</time>
      </trkpt>
      <trkpt lat="43.51076" lon="2.68827">
        <ele>920.5</ele>
        <time>2026-05-22T11:37:34Z</time>
      </trkpt>
      <trkpt lat="43.51074" lon="2.68813">
        <ele>919.4</ele>
        <time>2026-05-22T11:37:39Z</time>
      </trkpt>
      <trkpt lat="43.51073" lon="2.68801">
        <ele>918.6</ele>
        <time>2026-05-22T11:37:44Z</time>
      </trkpt>
      <trkpt lat="43.51077" lon="2.68787">
        <ele>918.6</ele>
        <time>2026-05-22T11:37:49Z</time>
      </trkpt>
      <trkpt lat="43.51082" lon="2.68778">
        <ele>919.1</ele>
        <time>2026-05-22T11:37:54Z</time>
      </trkpt>
      <trkpt lat="43.51085" lon="2.68769">
        <ele>919.2</ele>
        <time>2026-05-22T11:37:59Z</time>
      </trkpt>
      <trkpt lat="43.51089" lon="2.68761">
        <ele>919.3</ele>
        <time>2026-05-22T11:38:04Z</time>
      </trkpt>
      <trkpt lat="43.51094" lon="2.68752">
        <ele>919.6</ele>
        <time>2026-05-22T11:38:09Z</time>
      </trkpt>
      <trkpt lat="43.511" lon="2.68743">
        <ele>920.2</ele>
        <time>2026-05-22T11:38:14Z</time>
      </trkpt>
      <trkpt lat="43.51105" lon="2.68735">
        <ele>920.7</ele>
        <time>2026-05-22T11:38:19Z</time>
      </trkpt>
      <trkpt lat="43.5111" lon="2.68727">
        <ele>921.1</ele>
        <time>2026-05-22T11:38:24Z</time>
      </trkpt>
      <trkpt lat="43.51116" lon="2.68716">
        <ele>921.6</ele>
        <time>2026-05-22T11:38:29Z</time>
      </trkpt>
      <trkpt lat="43.51123" lon="2.68706">
        <ele>922.2</ele>
        <time>2026-05-22T11:38:34Z</time>
      </trkpt>
      <trkpt lat="43.51127" lon="2.68698">
        <ele>922.4</ele>
        <time>2026-05-22T11:38:39Z</time>
      </trkpt>
      <trkpt lat="43.51132" lon="2.6869">
        <ele>922.7</ele>
        <time>2026-05-22T11:38:44Z</time>
      </trkpt>
      <trkpt lat="43.51136" lon="2.68681">
        <ele>922.9</ele>
        <time>2026-05-22T11:38:49Z</time>
      </trkpt>
      <trkpt lat="43.51142" lon="2.68671">
        <ele>923.2</ele>
        <time>2026-05-22T11:38:54Z</time>
      </trkpt>
      <trkpt lat="43.51146" lon="2.68662">
        <ele>923.7</ele>
        <time>2026-05-22T11:38:59Z</time>
      </trkpt>
      <trkpt lat="43.51151" lon="2.68656">
        <ele>924.5</ele>
        <time>2026-05-22T11:39:04Z</time>
      </trkpt>
      <trkpt lat="43.51155" lon="2.6865">
        <ele>925.2</ele>
        <time>2026-05-22T11:39:09Z</time>
      </trkpt>
      <trkpt lat="43.5116" lon="2.68645">
        <ele>926</ele>
        <time>2026-05-22T11:39:14Z</time>
      </trkpt>
      <trkpt lat="43.51166" lon="2.68634">
        <ele>927.1</ele>
        <time>2026-05-22T11:39:19Z</time>
      </trkpt>
      <trkpt lat="43.51172" lon="2.68625">
        <ele>927.9</ele>
        <time>2026-05-22T11:39:24Z</time>
      </trkpt>
      <trkpt lat="43.51179" lon="2.68616">
        <ele>928.6</ele>
        <time>2026-05-22T11:39:29Z</time>
      </trkpt>
      <trkpt lat="43.51183" lon="2.68606">
        <ele>929.1</ele>
        <time>2026-05-22T11:39:34Z</time>
      </trkpt>
      <trkpt lat="43.51189" lon="2.68597">
        <ele>929.7</ele>
        <time>2026-05-22T11:39:39Z</time>
      </trkpt>
      <trkpt lat="43.51192" lon="2.68587">
        <ele>930.1</ele>
        <time>2026-05-22T11:39:44Z</time>
      </trkpt>
      <trkpt lat="43.51197" lon="2.68578">
        <ele>930.7</ele>
        <time>2026-05-22T11:39:49Z</time>
      </trkpt>
      <trkpt lat="43.51204" lon="2.68568">
        <ele>931.4</ele>
        <time>2026-05-22T11:39:54Z</time>
      </trkpt>
      <trkpt lat="43.51207" lon="2.68558">
        <ele>932</ele>
        <time>2026-05-22T11:39:59Z</time>
      </trkpt>
      <trkpt lat="43.51214" lon="2.68549">
        <ele>932.7</ele>
        <time>2026-05-22T11:40:04Z</time>
      </trkpt>
      <trkpt lat="43.51219" lon="2.68541">
        <ele>933.2</ele>
        <time>2026-05-22T11:40:09Z</time>
      </trkpt>
      <trkpt lat="43.51225" lon="2.68534">
        <ele>933.8</ele>
        <time>2026-05-22T11:40:14Z</time>
      </trkpt>
      <trkpt lat="43.51229" lon="2.68524">
        <ele>934.3</ele>
        <time>2026-05-22T11:40:19Z</time>
      </trkpt>
      <trkpt lat="43.51233" lon="2.68515">
        <ele>934.8</ele>
        <time>2026-05-22T11:40:24Z</time>
      </trkpt>
      <trkpt lat="43.51239" lon="2.68507">
        <ele>935.3</ele>
        <time>2026-05-22T11:40:29Z</time>
      </trkpt>
      <trkpt lat="43.51242" lon="2.68498">
        <ele>935.8</ele>
        <time>2026-05-22T11:40:34Z</time>
      </trkpt>
      <trkpt lat="43.51247" lon="2.6849">
        <ele>936.3</ele>
        <time>2026-05-22T11:40:39Z</time>
      </trkpt>
      <trkpt lat="43.51251" lon="2.6848">
        <ele>936.7</ele>
        <time>2026-05-22T11:40:44Z</time>
      </trkpt>
      <trkpt lat="43.51255" lon="2.68469">
        <ele>937</ele>
        <time>2026-05-22T11:40:49Z</time>
      </trkpt>
      <trkpt lat="43.51259" lon="2.68458">
        <ele>937.3</ele>
        <time>2026-05-22T11:40:54Z</time>
      </trkpt>
      <trkpt lat="43.51264" lon="2.68449">
        <ele>937.5</ele>
        <time>2026-05-22T11:40:59Z</time>
      </trkpt>
      <trkpt lat="43.51267" lon="2.68438">
        <ele>937.7</ele>
        <time>2026-05-22T11:41:04Z</time>
      </trkpt>
      <trkpt lat="43.5127" lon="2.68429">
        <ele>937.9</ele>
        <time>2026-05-22T11:41:09Z</time>
      </trkpt>
      <trkpt lat="43.51273" lon="2.68417">
        <ele>938.2</ele>
        <time>2026-05-22T11:41:14Z</time>
      </trkpt>
      <trkpt lat="43.51273" lon="2.68413">
        <ele>938.1</ele>
        <time>2026-05-22T11:41:19Z</time>
      </trkpt>
      <trkpt lat="43.51273" lon="2.6841">
        <ele>938.1</ele>
        <time>2026-05-22T11:41:24Z</time>
      </trkpt>
      <trkpt lat="43.51273" lon="2.68404">
        <ele>938.1</ele>
        <time>2026-05-22T11:41:29Z</time>
      </trkpt>
      <trkpt lat="43.51272" lon="2.68395">
        <ele>938</ele>
        <time>2026-05-22T11:41:34Z</time>
      </trkpt>
      <trkpt lat="43.5127" lon="2.68385">
        <ele>938</ele>
        <time>2026-05-22T11:41:39Z</time>
      </trkpt>
      <trkpt lat="43.5127" lon="2.68374">
        <ele>937.9</ele>
        <time>2026-05-22T11:41:44Z</time>
      </trkpt>
      <trkpt lat="43.51268" lon="2.68366">
        <ele>937.9</ele>
        <time>2026-05-22T11:41:49Z</time>
      </trkpt>
      <trkpt lat="43.51268" lon="2.68362">
        <ele>937.8</ele>
        <time>2026-05-22T11:41:54Z</time>
      </trkpt>
      <trkpt lat="43.51268" lon="2.68362">
        <ele>937.8</ele>
        <time>2026-05-22T11:41:59Z</time>
      </trkpt>
      <trkpt lat="43.51268" lon="2.68362">
        <ele>937.8</ele>
        <time>2026-05-22T11:42:04Z</time>
      </trkpt>
      <trkpt lat="43.51268" lon="2.68362">
        <ele>937.8</ele>
        <time>2026-05-22T11:42:09Z</time>
      </trkpt>
      <trkpt lat="43.51268" lon="2.68362">
        <ele>937.8</ele>
        <time>2026-05-22T11:42:14Z</time>
      </trkpt>
      <trkpt lat="43.51268" lon="2.68362">
        <ele>937.8</ele>
        <time>2026-05-22T11:42:19Z</time>
      </trkpt>
      <trkpt lat="43.51268" lon="2.68362">
        <ele>937.8</ele>
        <time>2026-05-22T11:42:24Z</time>
      </trkpt>
      <trkpt lat="43.51268" lon="2.68362">
        <ele>937.8</ele>
        <time>2026-05-22T11:42:29Z</time>
      </trkpt>
      <trkpt lat="43.51268" lon="2.68362">
        <ele>937.8</ele>
        <time>2026-05-22T11:42:34Z</time>
      </trkpt>
      <trkpt lat="43.51268" lon="2.68362">
        <ele>937.8</ele>
        <time>2026-05-22T11:42:39Z</time>
      </trkpt>
      <trkpt lat="43.51268" lon="2.68362">
        <ele>937.8</ele>
        <time>2026-05-22T11:42:44Z</time>
      </trkpt>
      <trkpt lat="43.51268" lon="2.68362">
        <ele>937.8</ele>
        <time>2026-05-22T11:42:49Z</time>
      </trkpt>
      <trkpt lat="43.51268" lon="2.68362">
        <ele>937.8</ele>
        <time>2026-05-22T11:42:54Z</time>
      </trkpt>
      <trkpt lat="43.5127" lon="2.68344">
        <ele>937.6</ele>
        <time>2026-05-22T11:42:59Z</time>
      </trkpt>
      <trkpt lat="43.51269" lon="2.68341">
        <ele>937.6</ele>
        <time>2026-05-22T11:43:04Z</time>
      </trkpt>
      <trkpt lat="43.51271" lon="2.68337">
        <ele>937.5</ele>
        <time>2026-05-22T11:43:09Z</time>
      </trkpt>
      <trkpt lat="43.51271" lon="2.68337">
        <ele>937.5</ele>
        <time>2026-05-22T11:43:14Z</time>
      </trkpt>
      <trkpt lat="43.51271" lon="2.68337">
        <ele>937.5</ele>
        <time>2026-05-22T11:43:19Z</time>
      </trkpt>
      <trkpt lat="43.51271" lon="2.68337">
        <ele>937.5</ele>
        <time>2026-05-22T11:43:24Z</time>
      </trkpt>
      <trkpt lat="43.5127" lon="2.68336">
        <ele>937.5</ele>
        <time>2026-05-22T11:43:29Z</time>
      </trkpt>
      <trkpt lat="43.51271" lon="2.68329">
        <ele>937.2</ele>
        <time>2026-05-22T11:43:34Z</time>
      </trkpt>
      <trkpt lat="43.51273" lon="2.68323">
        <ele>936.8</ele>
        <time>2026-05-22T11:43:39Z</time>
      </trkpt>
      <trkpt lat="43.51272" lon="2.6832">
        <ele>936.6</ele>
        <time>2026-05-22T11:43:44Z</time>
      </trkpt>
      <trkpt lat="43.51271" lon="2.68319">
        <ele>936.6</ele>
        <time>2026-05-22T11:43:49Z</time>
      </trkpt>
      <trkpt lat="43.5127" lon="2.68313">
        <ele>936.2</ele>
        <time>2026-05-22T11:43:54Z</time>
      </trkpt>
      <trkpt lat="43.51274" lon="2.68308">
        <ele>935.8</ele>
        <time>2026-05-22T11:43:59Z</time>
      </trkpt>
      <trkpt lat="43.51276" lon="2.6831">
        <ele>935.9</ele>
        <time>2026-05-22T11:44:04Z</time>
      </trkpt>
      <trkpt lat="43.51276" lon="2.6831">
        <ele>935.9</ele>
        <time>2026-05-22T11:44:09Z</time>
      </trkpt>
      <trkpt lat="43.51276" lon="2.6831">
        <ele>935.9</ele>
        <time>2026-05-22T11:44:14Z</time>
      </trkpt>
      <trkpt lat="43.51277" lon="2.68306">
        <ele>935.7</ele>
        <time>2026-05-22T11:44:19Z</time>
      </trkpt>
      <trkpt lat="43.5128" lon="2.68295">
        <ele>935.1</ele>
        <time>2026-05-22T11:44:24Z</time>
      </trkpt>
      <trkpt lat="43.51283" lon="2.68287">
        <ele>934.6</ele>
        <time>2026-05-22T11:44:29Z</time>
      </trkpt>
      <trkpt lat="43.51287" lon="2.68277">
        <ele>934.2</ele>
        <time>2026-05-22T11:44:34Z</time>
      </trkpt>
      <trkpt lat="43.5129" lon="2.68267">
        <ele>933.8</ele>
        <time>2026-05-22T11:44:39Z</time>
      </trkpt>
      <trkpt lat="43.51294" lon="2.68258">
        <ele>933.5</ele>
        <time>2026-05-22T11:44:44Z</time>
      </trkpt>
      <trkpt lat="43.51298" lon="2.68249">
        <ele>933.2</ele>
        <time>2026-05-22T11:44:49Z</time>
      </trkpt>
      <trkpt lat="43.51302" lon="2.68239">
        <ele>932.9</ele>
        <time>2026-05-22T11:44:54Z</time>
      </trkpt>
      <trkpt lat="43.51306" lon="2.68231">
        <ele>932.6</ele>
        <time>2026-05-22T11:44:59Z</time>
      </trkpt>
      <trkpt lat="43.51309" lon="2.68223">
        <ele>932.3</ele>
        <time>2026-05-22T11:45:04Z</time>
      </trkpt>
      <trkpt lat="43.51311" lon="2.68217">
        <ele>932.1</ele>
        <time>2026-05-22T11:45:09Z</time>
      </trkpt>
      <trkpt lat="43.51312" lon="2.68217">
        <ele>932.2</ele>
        <time>2026-05-22T11:45:14Z</time>
      </trkpt>
      <trkpt lat="43.51312" lon="2.68217">
        <ele>932.2</ele>
        <time>2026-05-22T11:45:19Z</time>
      </trkpt>
      <trkpt lat="43.51313" lon="2.68214">
        <ele>932.1</ele>
        <time>2026-05-22T11:45:24Z</time>
      </trkpt>
      <trkpt lat="43.51313" lon="2.68211">
        <ele>931.9</ele>
        <time>2026-05-22T11:45:29Z</time>
      </trkpt>
      <trkpt lat="43.51313" lon="2.6821">
        <ele>931.9</ele>
        <time>2026-05-22T11:45:34Z</time>
      </trkpt>
      <trkpt lat="43.51313" lon="2.68209">
        <ele>931.8</ele>
        <time>2026-05-22T11:45:39Z</time>
      </trkpt>
      <trkpt lat="43.51313" lon="2.68209">
        <ele>931.8</ele>
        <time>2026-05-22T11:45:44Z</time>
      </trkpt>
      <trkpt lat="43.51316" lon="2.6821">
        <ele>932</ele>
        <time>2026-05-22T11:45:49Z</time>
      </trkpt>
      <trkpt lat="43.51318" lon="2.68203">
        <ele>931.8</ele>
        <time>2026-05-22T11:45:54Z</time>
      </trkpt>
      <trkpt lat="43.5132" lon="2.68197">
        <ele>931.6</ele>
        <time>2026-05-22T11:45:59Z</time>
      </trkpt>
      <trkpt lat="43.51322" lon="2.68193">
        <ele>931.5</ele>
        <time>2026-05-22T11:46:04Z</time>
      </trkpt>
      <trkpt lat="43.51323" lon="2.68192">
        <ele>931.5</ele>
        <time>2026-05-22T11:46:09Z</time>
      </trkpt>
      <trkpt lat="43.51323" lon="2.68191">
        <ele>931.5</ele>
        <time>2026-05-22T11:46:14Z</time>
      </trkpt>
      <trkpt lat="43.51323" lon="2.68191">
        <ele>931.5</ele>
        <time>2026-05-22T11:46:19Z</time>
      </trkpt>
      <trkpt lat="43.51323" lon="2.68191">
        <ele>931.5</ele>
        <time>2026-05-22T11:46:24Z</time>
      </trkpt>
      <trkpt lat="43.51323" lon="2.68191">
        <ele>931.5</ele>
        <time>2026-05-22T11:46:29Z</time>
      </trkpt>
      <trkpt lat="43.51323" lon="2.68191">
        <ele>931.5</ele>
        <time>2026-05-22T11:46:34Z</time>
      </trkpt>
      <trkpt lat="43.51323" lon="2.68191">
        <ele>931.5</ele>
        <time>2026-05-22T11:46:39Z</time>
      </trkpt>
      <trkpt lat="43.51323" lon="2.68191">
        <ele>931.5</ele>
        <time>2026-05-22T11:46:44Z</time>
      </trkpt>
      <trkpt lat="43.51323" lon="2.68191">
        <ele>931.5</ele>
        <time>2026-05-22T11:46:49Z</time>
      </trkpt>
      <trkpt lat="43.51327" lon="2.6818">
        <ele>931.2</ele>
        <time>2026-05-22T11:46:54Z</time>
      </trkpt>
      <trkpt lat="43.51333" lon="2.68172">
        <ele>931.2</ele>
        <time>2026-05-22T11:46:59Z</time>
      </trkpt>
      <trkpt lat="43.51335" lon="2.68163">
        <ele>931.2</ele>
        <time>2026-05-22T11:47:04Z</time>
      </trkpt>
      <trkpt lat="43.51339" lon="2.68154">
        <ele>931.6</ele>
        <time>2026-05-22T11:47:09Z</time>
      </trkpt>
      <trkpt lat="43.51342" lon="2.68147">
        <ele>932</ele>
        <time>2026-05-22T11:47:14Z</time>
      </trkpt>
      <trkpt lat="43.51346" lon="2.68138">
        <ele>932.4</ele>
        <time>2026-05-22T11:47:19Z</time>
      </trkpt>
      <trkpt lat="43.51349" lon="2.68129">
        <ele>932.8</ele>
        <time>2026-05-22T11:47:24Z</time>
      </trkpt>
      <trkpt lat="43.51349" lon="2.68119">
        <ele>932.9</ele>
        <time>2026-05-22T11:47:29Z</time>
      </trkpt>
      <trkpt lat="43.5135" lon="2.6811">
        <ele>933.1</ele>
        <time>2026-05-22T11:47:34Z</time>
      </trkpt>
      <trkpt lat="43.5135" lon="2.68101">
        <ele>933.2</ele>
        <time>2026-05-22T11:47:39Z</time>
      </trkpt>
      <trkpt lat="43.51353" lon="2.68089">
        <ele>933.6</ele>
        <time>2026-05-22T11:47:44Z</time>
      </trkpt>
      <trkpt lat="43.5135" lon="2.68077">
        <ele>933.4</ele>
        <time>2026-05-22T11:47:49Z</time>
      </trkpt>
      <trkpt lat="43.5135" lon="2.68068">
        <ele>933.5</ele>
        <time>2026-05-22T11:47:54Z</time>
      </trkpt>
      <trkpt lat="43.5135" lon="2.68055">
        <ele>933.5</ele>
        <time>2026-05-22T11:47:59Z</time>
      </trkpt>
      <trkpt lat="43.5135" lon="2.68041">
        <ele>933.6</ele>
        <time>2026-05-22T11:48:04Z</time>
      </trkpt>
      <trkpt lat="43.51351" lon="2.68029">
        <ele>933.8</ele>
        <time>2026-05-22T11:48:09Z</time>
      </trkpt>
      <trkpt lat="43.51353" lon="2.68019">
        <ele>934</ele>
        <time>2026-05-22T11:48:14Z</time>
      </trkpt>
      <trkpt lat="43.51354" lon="2.68008">
        <ele>934.2</ele>
        <time>2026-05-22T11:48:19Z</time>
      </trkpt>
      <trkpt lat="43.51353" lon="2.67994">
        <ele>934.1</ele>
        <time>2026-05-22T11:48:24Z</time>
      </trkpt>
      <trkpt lat="43.51352" lon="2.67983">
        <ele>934</ele>
        <time>2026-05-22T11:48:29Z</time>
      </trkpt>
      <trkpt lat="43.51351" lon="2.67972">
        <ele>933.9</ele>
        <time>2026-05-22T11:48:34Z</time>
      </trkpt>
      <trkpt lat="43.51348" lon="2.67967">
        <ele>933.6</ele>
        <time>2026-05-22T11:48:39Z</time>
      </trkpt>
      <trkpt lat="43.51346" lon="2.67958">
        <ele>933.4</ele>
        <time>2026-05-22T11:48:44Z</time>
      </trkpt>
      <trkpt lat="43.51345" lon="2.67957">
        <ele>933.3</ele>
        <time>2026-05-22T11:48:49Z</time>
      </trkpt>
      <trkpt lat="43.51345" lon="2.67956">
        <ele>933.3</ele>
        <time>2026-05-22T11:48:54Z</time>
      </trkpt>
      <trkpt lat="43.51345" lon="2.67956">
        <ele>933.3</ele>
        <time>2026-05-22T11:48:59Z</time>
      </trkpt>
      <trkpt lat="43.51345" lon="2.67956">
        <ele>933.3</ele>
        <time>2026-05-22T11:49:04Z</time>
      </trkpt>
      <trkpt lat="43.51345" lon="2.67956">
        <ele>933.3</ele>
        <time>2026-05-22T11:49:09Z</time>
      </trkpt>
      <trkpt lat="43.51345" lon="2.67956">
        <ele>933.3</ele>
        <time>2026-05-22T11:49:14Z</time>
      </trkpt>
      <trkpt lat="43.51345" lon="2.67956">
        <ele>933.3</ele>
        <time>2026-05-22T11:49:19Z</time>
      </trkpt>
      <trkpt lat="43.51345" lon="2.67956">
        <ele>933.3</ele>
        <time>2026-05-22T11:49:24Z</time>
      </trkpt>
      <trkpt lat="43.51345" lon="2.67956">
        <ele>933.3</ele>
        <time>2026-05-22T11:49:29Z</time>
      </trkpt>
      <trkpt lat="43.51345" lon="2.67956">
        <ele>933.3</ele>
        <time>2026-05-22T11:49:34Z</time>
      </trkpt>
      <trkpt lat="43.51345" lon="2.67956">
        <ele>933.3</ele>
        <time>2026-05-22T11:49:39Z</time>
      </trkpt>
      <trkpt lat="43.51345" lon="2.67956">
        <ele>933.3</ele>
        <time>2026-05-22T11:49:44Z</time>
      </trkpt>
      <trkpt lat="43.51345" lon="2.67956">
        <ele>933.3</ele>
        <time>2026-05-22T11:49:49Z</time>
      </trkpt>
      <trkpt lat="43.51345" lon="2.67956">
        <ele>933.3</ele>
        <time>2026-05-22T11:49:54Z</time>
      </trkpt>
      <trkpt lat="43.51345" lon="2.67956">
        <ele>933.3</ele>
        <time>2026-05-22T11:49:59Z</time>
      </trkpt>
      <trkpt lat="43.51345" lon="2.67956">
        <ele>933.3</ele>
        <time>2026-05-22T11:50:04Z</time>
      </trkpt>
      <trkpt lat="43.51345" lon="2.67956">
        <ele>933.3</ele>
        <time>2026-05-22T11:50:09Z</time>
      </trkpt>
      <trkpt lat="43.51345" lon="2.67956">
        <ele>933.3</ele>
        <time>2026-05-22T11:50:14Z</time>
      </trkpt>
      <trkpt lat="43.51345" lon="2.67956">
        <ele>933.3</ele>
        <time>2026-05-22T11:50:19Z</time>
      </trkpt>
      <trkpt lat="43.51345" lon="2.67956">
        <ele>933.3</ele>
        <time>2026-05-22T11:50:24Z</time>
      </trkpt>
      <trkpt lat="43.51345" lon="2.67956">
        <ele>933.3</ele>
        <time>2026-05-22T11:50:29Z</time>
      </trkpt>
      <trkpt lat="43.51345" lon="2.67956">
        <ele>933.3</ele>
        <time>2026-05-22T11:50:34Z</time>
      </trkpt>
      <trkpt lat="43.51345" lon="2.67956">
        <ele>933.3</ele>
        <time>2026-05-22T11:50:39Z</time>
      </trkpt>
      <trkpt lat="43.51345" lon="2.67956">
        <ele>933.3</ele>
        <time>2026-05-22T11:50:44Z</time>
      </trkpt>
      <trkpt lat="43.51345" lon="2.67956">
        <ele>933.3</ele>
        <time>2026-05-22T11:50:49Z</time>
      </trkpt>
      <trkpt lat="43.51345" lon="2.67956">
        <ele>933.3</ele>
        <time>2026-05-22T11:50:54Z</time>
      </trkpt>
      <trkpt lat="43.51345" lon="2.67956">
        <ele>933.3</ele>
        <time>2026-05-22T11:50:59Z</time>
      </trkpt>
      <trkpt lat="43.51345" lon="2.67956">
        <ele>933.3</ele>
        <time>2026-05-22T11:51:04Z</time>
      </trkpt>
      <trkpt lat="43.51345" lon="2.67956">
        <ele>933.3</ele>
        <time>2026-05-22T11:51:09Z</time>
      </trkpt>
      <trkpt lat="43.51345" lon="2.67956">
        <ele>933.3</ele>
        <time>2026-05-22T11:51:14Z</time>
      </trkpt>
      <trkpt lat="43.51345" lon="2.67956">
        <ele>933.3</ele>
        <time>2026-05-22T11:51:19Z</time>
      </trkpt>
      <trkpt lat="43.51345" lon="2.67956">
        <ele>933.3</ele>
        <time>2026-05-22T11:51:24Z</time>
      </trkpt>
      <trkpt lat="43.51345" lon="2.67956">
        <ele>933.3</ele>
        <time>2026-05-22T11:51:29Z</time>
      </trkpt>
      <trkpt lat="43.51345" lon="2.67956">
        <ele>933.3</ele>
        <time>2026-05-22T11:51:34Z</time>
      </trkpt>
      <trkpt lat="43.51345" lon="2.67956">
        <ele>933.3</ele>
        <time>2026-05-22T11:51:39Z</time>
      </trkpt>
      <trkpt lat="43.51343" lon="2.67957">
        <ele>933</ele>
        <time>2026-05-22T11:51:44Z</time>
      </trkpt>
      <trkpt lat="43.51341" lon="2.67946">
        <ele>932.8</ele>
        <time>2026-05-22T11:51:49Z</time>
      </trkpt>
      <trkpt lat="43.51341" lon="2.67935">
        <ele>932.8</ele>
        <time>2026-05-22T11:51:54Z</time>
      </trkpt>
      <trkpt lat="43.51338" lon="2.6792">
        <ele>932.5</ele>
        <time>2026-05-22T11:51:59Z</time>
      </trkpt>
      <trkpt lat="43.51335" lon="2.67909">
        <ele>932.4</ele>
        <time>2026-05-22T11:52:04Z</time>
      </trkpt>
      <trkpt lat="43.51332" lon="2.67898">
        <ele>932.1</ele>
        <time>2026-05-22T11:52:09Z</time>
      </trkpt>
      <trkpt lat="43.51329" lon="2.67887">
        <ele>931.6</ele>
        <time>2026-05-22T11:52:14Z</time>
      </trkpt>
      <trkpt lat="43.51327" lon="2.67875">
        <ele>931.4</ele>
        <time>2026-05-22T11:52:19Z</time>
      </trkpt>
      <trkpt lat="43.51325" lon="2.67863">
        <ele>931.2</ele>
        <time>2026-05-22T11:52:24Z</time>
      </trkpt>
      <trkpt lat="43.51325" lon="2.67852">
        <ele>931.5</ele>
        <time>2026-05-22T11:52:29Z</time>
      </trkpt>
      <trkpt lat="43.51324" lon="2.67841">
        <ele>931.5</ele>
        <time>2026-05-22T11:52:34Z</time>
      </trkpt>
      <trkpt lat="43.51323" lon="2.67829">
        <ele>931.4</ele>
        <time>2026-05-22T11:52:39Z</time>
      </trkpt>
      <trkpt lat="43.51321" lon="2.67818">
        <ele>931</ele>
        <time>2026-05-22T11:52:44Z</time>
      </trkpt>
      <trkpt lat="43.51322" lon="2.67806">
        <ele>931.4</ele>
        <time>2026-05-22T11:52:49Z</time>
      </trkpt>
      <trkpt lat="43.51322" lon="2.67793">
        <ele>931.5</ele>
        <time>2026-05-22T11:52:54Z</time>
      </trkpt>
      <trkpt lat="43.51324" lon="2.67783">
        <ele>932</ele>
        <time>2026-05-22T11:52:59Z</time>
      </trkpt>
      <trkpt lat="43.51323" lon="2.67773">
        <ele>931.8</ele>
        <time>2026-05-22T11:53:04Z</time>
      </trkpt>
      <trkpt lat="43.51325" lon="2.67761">
        <ele>932.3</ele>
        <time>2026-05-22T11:53:09Z</time>
      </trkpt>
      <trkpt lat="43.51327" lon="2.6775">
        <ele>932.8</ele>
        <time>2026-05-22T11:53:14Z</time>
      </trkpt>
      <trkpt lat="43.51329" lon="2.67739">
        <ele>933.2</ele>
        <time>2026-05-22T11:53:19Z</time>
      </trkpt>
      <trkpt lat="43.51332" lon="2.6773">
        <ele>933.8</ele>
        <time>2026-05-22T11:53:24Z</time>
      </trkpt>
      <trkpt lat="43.51335" lon="2.6772">
        <ele>934</ele>
        <time>2026-05-22T11:53:29Z</time>
      </trkpt>
      <trkpt lat="43.51337" lon="2.67707">
        <ele>934.1</ele>
        <time>2026-05-22T11:53:34Z</time>
      </trkpt>
      <trkpt lat="43.51341" lon="2.67697">
        <ele>934.1</ele>
        <time>2026-05-22T11:53:39Z</time>
      </trkpt>
      <trkpt lat="43.51344" lon="2.67684">
        <ele>934.2</ele>
        <time>2026-05-22T11:53:44Z</time>
      </trkpt>
      <trkpt lat="43.51346" lon="2.67673">
        <ele>934.2</ele>
        <time>2026-05-22T11:53:49Z</time>
      </trkpt>
      <trkpt lat="43.51348" lon="2.67662">
        <ele>934.1</ele>
        <time>2026-05-22T11:53:54Z</time>
      </trkpt>
      <trkpt lat="43.5135" lon="2.67651">
        <ele>934</ele>
        <time>2026-05-22T11:53:59Z</time>
      </trkpt>
      <trkpt lat="43.5135" lon="2.67641">
        <ele>933.9</ele>
        <time>2026-05-22T11:54:04Z</time>
      </trkpt>
      <trkpt lat="43.5135" lon="2.67631">
        <ele>933.8</ele>
        <time>2026-05-22T11:54:09Z</time>
      </trkpt>
      <trkpt lat="43.51346" lon="2.67623">
        <ele>933.6</ele>
        <time>2026-05-22T11:54:14Z</time>
      </trkpt>
      <trkpt lat="43.51339" lon="2.67617">
        <ele>933.5</ele>
        <time>2026-05-22T11:54:19Z</time>
      </trkpt>
      <trkpt lat="43.51333" lon="2.67613">
        <ele>933.3</ele>
        <time>2026-05-22T11:54:24Z</time>
      </trkpt>
      <trkpt lat="43.51324" lon="2.67606">
        <ele>932.4</ele>
        <time>2026-05-22T11:54:29Z</time>
      </trkpt>
      <trkpt lat="43.51316" lon="2.67601">
        <ele>931.6</ele>
        <time>2026-05-22T11:54:34Z</time>
      </trkpt>
      <trkpt lat="43.51309" lon="2.67597">
        <ele>930.9</ele>
        <time>2026-05-22T11:54:39Z</time>
      </trkpt>
      <trkpt lat="43.51301" lon="2.67591">
        <ele>930.2</ele>
        <time>2026-05-22T11:54:44Z</time>
      </trkpt>
      <trkpt lat="43.51294" lon="2.67586">
        <ele>929.7</ele>
        <time>2026-05-22T11:54:49Z</time>
      </trkpt>
      <trkpt lat="43.51285" lon="2.67581">
        <ele>929.1</ele>
        <time>2026-05-22T11:54:54Z</time>
      </trkpt>
      <trkpt lat="43.51277" lon="2.67576">
        <ele>928.9</ele>
        <time>2026-05-22T11:54:59Z</time>
      </trkpt>
      <trkpt lat="43.5127" lon="2.67572">
        <ele>928.6</ele>
        <time>2026-05-22T11:55:04Z</time>
      </trkpt>
      <trkpt lat="43.51262" lon="2.67566">
        <ele>928.6</ele>
        <time>2026-05-22T11:55:09Z</time>
      </trkpt>
      <trkpt lat="43.51255" lon="2.67558">
        <ele>928.8</ele>
        <time>2026-05-22T11:55:14Z</time>
      </trkpt>
      <trkpt lat="43.51247" lon="2.67555">
        <ele>928.7</ele>
        <time>2026-05-22T11:55:19Z</time>
      </trkpt>
      <trkpt lat="43.51239" lon="2.67553">
        <ele>928.7</ele>
        <time>2026-05-22T11:55:24Z</time>
      </trkpt>
      <trkpt lat="43.51231" lon="2.67548">
        <ele>929</ele>
        <time>2026-05-22T11:55:29Z</time>
      </trkpt>
      <trkpt lat="43.51223" lon="2.67544">
        <ele>929.1</ele>
        <time>2026-05-22T11:55:34Z</time>
      </trkpt>
      <trkpt lat="43.51217" lon="2.67541">
        <ele>929.3</ele>
        <time>2026-05-22T11:55:39Z</time>
      </trkpt>
      <trkpt lat="43.51209" lon="2.67539">
        <ele>929.2</ele>
        <time>2026-05-22T11:55:44Z</time>
      </trkpt>
      <trkpt lat="43.51202" lon="2.67535">
        <ele>929.4</ele>
        <time>2026-05-22T11:55:49Z</time>
      </trkpt>
      <trkpt lat="43.51196" lon="2.67532">
        <ele>929.5</ele>
        <time>2026-05-22T11:55:54Z</time>
      </trkpt>
      <trkpt lat="43.51187" lon="2.67529">
        <ele>929.5</ele>
        <time>2026-05-22T11:55:59Z</time>
      </trkpt>
      <trkpt lat="43.51177" lon="2.6753">
        <ele>929.1</ele>
        <time>2026-05-22T11:56:04Z</time>
      </trkpt>
      <trkpt lat="43.51169" lon="2.67531">
        <ele>928.8</ele>
        <time>2026-05-22T11:56:09Z</time>
      </trkpt>
      <trkpt lat="43.51158" lon="2.67529">
        <ele>927.8</ele>
        <time>2026-05-22T11:56:14Z</time>
      </trkpt>
      <trkpt lat="43.51152" lon="2.6753">
        <ele>926.9</ele>
        <time>2026-05-22T11:56:19Z</time>
      </trkpt>
      <trkpt lat="43.51146" lon="2.67528">
        <ele>926.3</ele>
        <time>2026-05-22T11:56:24Z</time>
      </trkpt>
      <trkpt lat="43.51136" lon="2.67525">
        <ele>925.2</ele>
        <time>2026-05-22T11:56:29Z</time>
      </trkpt>
      <trkpt lat="43.51128" lon="2.67523">
        <ele>924.2</ele>
        <time>2026-05-22T11:56:34Z</time>
      </trkpt>
      <trkpt lat="43.51123" lon="2.67521">
        <ele>923.7</ele>
        <time>2026-05-22T11:56:39Z</time>
      </trkpt>
      <trkpt lat="43.51116" lon="2.67519">
        <ele>922.9</ele>
        <time>2026-05-22T11:56:44Z</time>
      </trkpt>
      <trkpt lat="43.51108" lon="2.67513">
        <ele>922.3</ele>
        <time>2026-05-22T11:56:49Z</time>
      </trkpt>
      <trkpt lat="43.51099" lon="2.67509">
        <ele>921.4</ele>
        <time>2026-05-22T11:56:54Z</time>
      </trkpt>
      <trkpt lat="43.51091" lon="2.67503">
        <ele>920.8</ele>
        <time>2026-05-22T11:56:59Z</time>
      </trkpt>
      <trkpt lat="43.51084" lon="2.67497">
        <ele>920.2</ele>
        <time>2026-05-22T11:57:04Z</time>
      </trkpt>
      <trkpt lat="43.51076" lon="2.67493">
        <ele>919.1</ele>
        <time>2026-05-22T11:57:09Z</time>
      </trkpt>
      <trkpt lat="43.51069" lon="2.67485">
        <ele>918.3</ele>
        <time>2026-05-22T11:57:14Z</time>
      </trkpt>
      <trkpt lat="43.51062" lon="2.67478">
        <ele>917.5</ele>
        <time>2026-05-22T11:57:19Z</time>
      </trkpt>
      <trkpt lat="43.51055" lon="2.67472">
        <ele>916.8</ele>
        <time>2026-05-22T11:57:24Z</time>
      </trkpt>
      <trkpt lat="43.5105" lon="2.67467">
        <ele>916.4</ele>
        <time>2026-05-22T11:57:29Z</time>
      </trkpt>
      <trkpt lat="43.51045" lon="2.6746">
        <ele>916.1</ele>
        <time>2026-05-22T11:57:34Z</time>
      </trkpt>
      <trkpt lat="43.51039" lon="2.67456">
        <ele>915.5</ele>
        <time>2026-05-22T11:57:39Z</time>
      </trkpt>
      <trkpt lat="43.51034" lon="2.67452">
        <ele>915.1</ele>
        <time>2026-05-22T11:57:44Z</time>
      </trkpt>
      <trkpt lat="43.51023" lon="2.67446">
        <ele>914.2</ele>
        <time>2026-05-22T11:57:49Z</time>
      </trkpt>
      <trkpt lat="43.51015" lon="2.67439">
        <ele>913.7</ele>
        <time>2026-05-22T11:57:54Z</time>
      </trkpt>
      <trkpt lat="43.5101" lon="2.67435">
        <ele>913.5</ele>
        <time>2026-05-22T11:57:59Z</time>
      </trkpt>
      <trkpt lat="43.51006" lon="2.67434">
        <ele>913.1</ele>
        <time>2026-05-22T11:58:04Z</time>
      </trkpt>
      <trkpt lat="43.51003" lon="2.67433">
        <ele>912.8</ele>
        <time>2026-05-22T11:58:09Z</time>
      </trkpt>
      <trkpt lat="43.50997" lon="2.67428">
        <ele>912.5</ele>
        <time>2026-05-22T11:58:14Z</time>
      </trkpt>
      <trkpt lat="43.50992" lon="2.67418">
        <ele>912.6</ele>
        <time>2026-05-22T11:58:19Z</time>
      </trkpt>
      <trkpt lat="43.50988" lon="2.6741">
        <ele>912.2</ele>
        <time>2026-05-22T11:58:24Z</time>
      </trkpt>
      <trkpt lat="43.50983" lon="2.67401">
        <ele>911.5</ele>
        <time>2026-05-22T11:58:29Z</time>
      </trkpt>
      <trkpt lat="43.50978" lon="2.67391">
        <ele>910.9</ele>
        <time>2026-05-22T11:58:34Z</time>
      </trkpt>
      <trkpt lat="43.50976" lon="2.67382">
        <ele>910.7</ele>
        <time>2026-05-22T11:58:39Z</time>
      </trkpt>
      <trkpt lat="43.50973" lon="2.67374">
        <ele>910.3</ele>
        <time>2026-05-22T11:58:44Z</time>
      </trkpt>
      <trkpt lat="43.50972" lon="2.67363">
        <ele>910.3</ele>
        <time>2026-05-22T11:58:49Z</time>
      </trkpt>
      <trkpt lat="43.5097" lon="2.67351">
        <ele>910.1</ele>
        <time>2026-05-22T11:58:54Z</time>
      </trkpt>
      <trkpt lat="43.50968" lon="2.67343">
        <ele>909.9</ele>
        <time>2026-05-22T11:58:59Z</time>
      </trkpt>
      <trkpt lat="43.50965" lon="2.67331">
        <ele>909.5</ele>
        <time>2026-05-22T11:59:04Z</time>
      </trkpt>
      <trkpt lat="43.50962" lon="2.67317">
        <ele>909</ele>
        <time>2026-05-22T11:59:09Z</time>
      </trkpt>
      <trkpt lat="43.5096" lon="2.67306">
        <ele>908.7</ele>
        <time>2026-05-22T11:59:14Z</time>
      </trkpt>
      <trkpt lat="43.50956" lon="2.67297">
        <ele>908.2</ele>
        <time>2026-05-22T11:59:19Z</time>
      </trkpt>
      <trkpt lat="43.50952" lon="2.67289">
        <ele>907.7</ele>
        <time>2026-05-22T11:59:24Z</time>
      </trkpt>
      <trkpt lat="43.50947" lon="2.67281">
        <ele>907.1</ele>
        <time>2026-05-22T11:59:29Z</time>
      </trkpt>
      <trkpt lat="43.50943" lon="2.67271">
        <ele>906.7</ele>
        <time>2026-05-22T11:59:34Z</time>
      </trkpt>
      <trkpt lat="43.50938" lon="2.67262">
        <ele>906.2</ele>
        <time>2026-05-22T11:59:39Z</time>
      </trkpt>
      <trkpt lat="43.50934" lon="2.67251">
        <ele>905.9</ele>
        <time>2026-05-22T11:59:44Z</time>
      </trkpt>
      <trkpt lat="43.5093" lon="2.67242">
        <ele>905.8</ele>
        <time>2026-05-22T11:59:49Z</time>
      </trkpt>
      <trkpt lat="43.50925" lon="2.67235">
        <ele>905.5</ele>
        <time>2026-05-22T11:59:54Z</time>
      </trkpt>
      <trkpt lat="43.50919" lon="2.67225">
        <ele>905.4</ele>
        <time>2026-05-22T11:59:59Z</time>
      </trkpt>
      <trkpt lat="43.50913" lon="2.67214">
        <ele>905.4</ele>
        <time>2026-05-22T12:00:04Z</time>
      </trkpt>
      <trkpt lat="43.50908" lon="2.67206">
        <ele>905.3</ele>
        <time>2026-05-22T12:00:09Z</time>
      </trkpt>
      <trkpt lat="43.50903" lon="2.67199">
        <ele>905.2</ele>
        <time>2026-05-22T12:00:14Z</time>
      </trkpt>
      <trkpt lat="43.50898" lon="2.67192">
        <ele>905.1</ele>
        <time>2026-05-22T12:00:19Z</time>
      </trkpt>
      <trkpt lat="43.50894" lon="2.67184">
        <ele>905.2</ele>
        <time>2026-05-22T12:00:24Z</time>
      </trkpt>
      <trkpt lat="43.50888" lon="2.67176">
        <ele>905.1</ele>
        <time>2026-05-22T12:00:29Z</time>
      </trkpt>
      <trkpt lat="43.50881" lon="2.67165">
        <ele>905</ele>
        <time>2026-05-22T12:00:34Z</time>
      </trkpt>
      <trkpt lat="43.50874" lon="2.67156">
        <ele>904.4</ele>
        <time>2026-05-22T12:00:39Z</time>
      </trkpt>
      <trkpt lat="43.50868" lon="2.67149">
        <ele>903.9</ele>
        <time>2026-05-22T12:00:44Z</time>
      </trkpt>
      <trkpt lat="43.50862" lon="2.67143">
        <ele>903.5</ele>
        <time>2026-05-22T12:00:49Z</time>
      </trkpt>
      <trkpt lat="43.50856" lon="2.67133">
        <ele>903.1</ele>
        <time>2026-05-22T12:00:54Z</time>
      </trkpt>
      <trkpt lat="43.50849" lon="2.67127">
        <ele>902.6</ele>
        <time>2026-05-22T12:00:59Z</time>
      </trkpt>
      <trkpt lat="43.50844" lon="2.67121">
        <ele>902.3</ele>
        <time>2026-05-22T12:01:04Z</time>
      </trkpt>
      <trkpt lat="43.50838" lon="2.67115">
        <ele>901.9</ele>
        <time>2026-05-22T12:01:09Z</time>
      </trkpt>
      <trkpt lat="43.50831" lon="2.67109">
        <ele>901.7</ele>
        <time>2026-05-22T12:01:14Z</time>
      </trkpt>
      <trkpt lat="43.50824" lon="2.67102">
        <ele>901.9</ele>
        <time>2026-05-22T12:01:19Z</time>
      </trkpt>
      <trkpt lat="43.50817" lon="2.67098">
        <ele>902</ele>
        <time>2026-05-22T12:01:24Z</time>
      </trkpt>
      <trkpt lat="43.50811" lon="2.67094">
        <ele>902.1</ele>
        <time>2026-05-22T12:01:29Z</time>
      </trkpt>
      <trkpt lat="43.50803" lon="2.67091">
        <ele>902.2</ele>
        <time>2026-05-22T12:01:34Z</time>
      </trkpt>
      <trkpt lat="43.50794" lon="2.67089">
        <ele>902.4</ele>
        <time>2026-05-22T12:01:39Z</time>
      </trkpt>
      <trkpt lat="43.50784" lon="2.67091">
        <ele>902.4</ele>
        <time>2026-05-22T12:01:44Z</time>
      </trkpt>
      <trkpt lat="43.50776" lon="2.67092">
        <ele>902.5</ele>
        <time>2026-05-22T12:01:49Z</time>
      </trkpt>
      <trkpt lat="43.50771" lon="2.6709">
        <ele>902.6</ele>
        <time>2026-05-22T12:01:54Z</time>
      </trkpt>
      <trkpt lat="43.50763" lon="2.67089">
        <ele>902.7</ele>
        <time>2026-05-22T12:01:59Z</time>
      </trkpt>
      <trkpt lat="43.50756" lon="2.67086">
        <ele>902.9</ele>
        <time>2026-05-22T12:02:04Z</time>
      </trkpt>
      <trkpt lat="43.50748" lon="2.67078">
        <ele>902.7</ele>
        <time>2026-05-22T12:02:09Z</time>
      </trkpt>
      <trkpt lat="43.50739" lon="2.67069">
        <ele>901.8</ele>
        <time>2026-05-22T12:02:14Z</time>
      </trkpt>
      <trkpt lat="43.50733" lon="2.67065">
        <ele>901.4</ele>
        <time>2026-05-22T12:02:19Z</time>
      </trkpt>
      <trkpt lat="43.50728" lon="2.67056">
        <ele>900.8</ele>
        <time>2026-05-22T12:02:24Z</time>
      </trkpt>
      <trkpt lat="43.50722" lon="2.67047">
        <ele>900.2</ele>
        <time>2026-05-22T12:02:29Z</time>
      </trkpt>
      <trkpt lat="43.50717" lon="2.67036">
        <ele>899.6</ele>
        <time>2026-05-22T12:02:34Z</time>
      </trkpt>
      <trkpt lat="43.50712" lon="2.67028">
        <ele>899.1</ele>
        <time>2026-05-22T12:02:39Z</time>
      </trkpt>
      <trkpt lat="43.50707" lon="2.67018">
        <ele>898.6</ele>
        <time>2026-05-22T12:02:44Z</time>
      </trkpt>
      <trkpt lat="43.50701" lon="2.67008">
        <ele>898.1</ele>
        <time>2026-05-22T12:02:49Z</time>
      </trkpt>
      <trkpt lat="43.50695" lon="2.66999">
        <ele>897.6</ele>
        <time>2026-05-22T12:02:54Z</time>
      </trkpt>
      <trkpt lat="43.5069" lon="2.66988">
        <ele>896.7</ele>
        <time>2026-05-22T12:02:59Z</time>
      </trkpt>
      <trkpt lat="43.50686" lon="2.66981">
        <ele>896.1</ele>
        <time>2026-05-22T12:03:04Z</time>
      </trkpt>
      <trkpt lat="43.50681" lon="2.66974">
        <ele>895.5</ele>
        <time>2026-05-22T12:03:09Z</time>
      </trkpt>
      <trkpt lat="43.50675" lon="2.66967">
        <ele>894.8</ele>
        <time>2026-05-22T12:03:14Z</time>
      </trkpt>
      <trkpt lat="43.5067" lon="2.6696">
        <ele>894.2</ele>
        <time>2026-05-22T12:03:19Z</time>
      </trkpt>
      <trkpt lat="43.50664" lon="2.66953">
        <ele>893.5</ele>
        <time>2026-05-22T12:03:24Z</time>
      </trkpt>
      <trkpt lat="43.50658" lon="2.66947">
        <ele>892.9</ele>
        <time>2026-05-22T12:03:29Z</time>
      </trkpt>
      <trkpt lat="43.50652" lon="2.66938">
        <ele>892</ele>
        <time>2026-05-22T12:03:34Z</time>
      </trkpt>
      <trkpt lat="43.50646" lon="2.66931">
        <ele>891.4</ele>
        <time>2026-05-22T12:03:39Z</time>
      </trkpt>
      <trkpt lat="43.50641" lon="2.66923">
        <ele>890.8</ele>
        <time>2026-05-22T12:03:44Z</time>
      </trkpt>
      <trkpt lat="43.50637" lon="2.66915">
        <ele>890.2</ele>
        <time>2026-05-22T12:03:49Z</time>
      </trkpt>
      <trkpt lat="43.50631" lon="2.66907">
        <ele>889.7</ele>
        <time>2026-05-22T12:03:54Z</time>
      </trkpt>
      <trkpt lat="43.50627" lon="2.66897">
        <ele>889.2</ele>
        <time>2026-05-22T12:03:59Z</time>
      </trkpt>
      <trkpt lat="43.50622" lon="2.66889">
        <ele>888.8</ele>
        <time>2026-05-22T12:04:04Z</time>
      </trkpt>
      <trkpt lat="43.50616" lon="2.66878">
        <ele>888.3</ele>
        <time>2026-05-22T12:04:09Z</time>
      </trkpt>
      <trkpt lat="43.50612" lon="2.66868">
        <ele>887.9</ele>
        <time>2026-05-22T12:04:14Z</time>
      </trkpt>
      <trkpt lat="43.50608" lon="2.66859">
        <ele>887.6</ele>
        <time>2026-05-22T12:04:19Z</time>
      </trkpt>
      <trkpt lat="43.50604" lon="2.6685">
        <ele>887.3</ele>
        <time>2026-05-22T12:04:24Z</time>
      </trkpt>
      <trkpt lat="43.506" lon="2.66839">
        <ele>887</ele>
        <time>2026-05-22T12:04:29Z</time>
      </trkpt>
      <trkpt lat="43.50596" lon="2.66831">
        <ele>886.8</ele>
        <time>2026-05-22T12:04:34Z</time>
      </trkpt>
      <trkpt lat="43.50591" lon="2.6682">
        <ele>886.9</ele>
        <time>2026-05-22T12:04:39Z</time>
      </trkpt>
      <trkpt lat="43.50586" lon="2.6681">
        <ele>887</ele>
        <time>2026-05-22T12:04:44Z</time>
      </trkpt>
      <trkpt lat="43.50581" lon="2.66799">
        <ele>886.9</ele>
        <time>2026-05-22T12:04:49Z</time>
      </trkpt>
      <trkpt lat="43.50576" lon="2.66787">
        <ele>886.7</ele>
        <time>2026-05-22T12:04:54Z</time>
      </trkpt>
      <trkpt lat="43.50573" lon="2.66777">
        <ele>886.6</ele>
        <time>2026-05-22T12:04:59Z</time>
      </trkpt>
      <trkpt lat="43.5057" lon="2.66767">
        <ele>886.5</ele>
        <time>2026-05-22T12:05:04Z</time>
      </trkpt>
      <trkpt lat="43.50566" lon="2.66757">
        <ele>886.4</ele>
        <time>2026-05-22T12:05:09Z</time>
      </trkpt>
      <trkpt lat="43.50561" lon="2.66749">
        <ele>886.2</ele>
        <time>2026-05-22T12:05:14Z</time>
      </trkpt>
      <trkpt lat="43.50558" lon="2.6674">
        <ele>885.8</ele>
        <time>2026-05-22T12:05:19Z</time>
      </trkpt>
      <trkpt lat="43.50556" lon="2.66733">
        <ele>885.5</ele>
        <time>2026-05-22T12:05:24Z</time>
      </trkpt>
      <trkpt lat="43.50551" lon="2.66723">
        <ele>885</ele>
        <time>2026-05-22T12:05:29Z</time>
      </trkpt>
      <trkpt lat="43.50546" lon="2.66714">
        <ele>884.6</ele>
        <time>2026-05-22T12:05:34Z</time>
      </trkpt>
      <trkpt lat="43.50544" lon="2.66708">
        <ele>884.3</ele>
        <time>2026-05-22T12:05:39Z</time>
      </trkpt>
      <trkpt lat="43.50541" lon="2.66698">
        <ele>883.9</ele>
        <time>2026-05-22T12:05:44Z</time>
      </trkpt>
      <trkpt lat="43.50537" lon="2.66688">
        <ele>883.5</ele>
        <time>2026-05-22T12:05:49Z</time>
      </trkpt>
      <trkpt lat="43.50532" lon="2.66677">
        <ele>883.1</ele>
        <time>2026-05-22T12:05:54Z</time>
      </trkpt>
      <trkpt lat="43.50528" lon="2.66668">
        <ele>882.7</ele>
        <time>2026-05-22T12:05:59Z</time>
      </trkpt>
      <trkpt lat="43.50523" lon="2.66661">
        <ele>882.3</ele>
        <time>2026-05-22T12:06:04Z</time>
      </trkpt>
      <trkpt lat="43.50519" lon="2.66652">
        <ele>881.8</ele>
        <time>2026-05-22T12:06:09Z</time>
      </trkpt>
      <trkpt lat="43.50514" lon="2.66641">
        <ele>881.2</ele>
        <time>2026-05-22T12:06:14Z</time>
      </trkpt>
      <trkpt lat="43.5051" lon="2.6663">
        <ele>880.6</ele>
        <time>2026-05-22T12:06:19Z</time>
      </trkpt>
      <trkpt lat="43.50506" lon="2.66619">
        <ele>879.9</ele>
        <time>2026-05-22T12:06:24Z</time>
      </trkpt>
      <trkpt lat="43.50503" lon="2.66611">
        <ele>879.4</ele>
        <time>2026-05-22T12:06:29Z</time>
      </trkpt>
      <trkpt lat="43.50499" lon="2.66602">
        <ele>878.8</ele>
        <time>2026-05-22T12:06:34Z</time>
      </trkpt>
      <trkpt lat="43.50495" lon="2.6659">
        <ele>878</ele>
        <time>2026-05-22T12:06:39Z</time>
      </trkpt>
      <trkpt lat="43.50492" lon="2.66583">
        <ele>877.4</ele>
        <time>2026-05-22T12:06:44Z</time>
      </trkpt>
      <trkpt lat="43.50487" lon="2.66573">
        <ele>876.4</ele>
        <time>2026-05-22T12:06:49Z</time>
      </trkpt>
      <trkpt lat="43.50482" lon="2.66563">
        <ele>875.3</ele>
        <time>2026-05-22T12:06:54Z</time>
      </trkpt>
      <trkpt lat="43.50477" lon="2.66552">
        <ele>874.3</ele>
        <time>2026-05-22T12:06:59Z</time>
      </trkpt>
      <trkpt lat="43.50474" lon="2.66542">
        <ele>873.5</ele>
        <time>2026-05-22T12:07:04Z</time>
      </trkpt>
      <trkpt lat="43.50471" lon="2.66534">
        <ele>872.8</ele>
        <time>2026-05-22T12:07:09Z</time>
      </trkpt>
      <trkpt lat="43.50467" lon="2.66526">
        <ele>872</ele>
        <time>2026-05-22T12:07:14Z</time>
      </trkpt>
      <trkpt lat="43.50462" lon="2.66519">
        <ele>871.3</ele>
        <time>2026-05-22T12:07:19Z</time>
      </trkpt>
      <trkpt lat="43.50457" lon="2.66509">
        <ele>870.5</ele>
        <time>2026-05-22T12:07:24Z</time>
      </trkpt>
      <trkpt lat="43.50451" lon="2.665">
        <ele>869.6</ele>
        <time>2026-05-22T12:07:29Z</time>
      </trkpt>
      <trkpt lat="43.50445" lon="2.66492">
        <ele>868.9</ele>
        <time>2026-05-22T12:07:34Z</time>
      </trkpt>
      <trkpt lat="43.50437" lon="2.66486">
        <ele>868.2</ele>
        <time>2026-05-22T12:07:39Z</time>
      </trkpt>
      <trkpt lat="43.50429" lon="2.66484">
        <ele>867.8</ele>
        <time>2026-05-22T12:07:44Z</time>
      </trkpt>
      <trkpt lat="43.50421" lon="2.66481">
        <ele>867.3</ele>
        <time>2026-05-22T12:07:49Z</time>
      </trkpt>
      <trkpt lat="43.50412" lon="2.66477">
        <ele>866.4</ele>
        <time>2026-05-22T12:07:54Z</time>
      </trkpt>
      <trkpt lat="43.50406" lon="2.66473">
        <ele>865.5</ele>
        <time>2026-05-22T12:07:59Z</time>
      </trkpt>
      <trkpt lat="43.50399" lon="2.6647">
        <ele>864.5</ele>
        <time>2026-05-22T12:08:04Z</time>
      </trkpt>
      <trkpt lat="43.50392" lon="2.66465">
        <ele>863.5</ele>
        <time>2026-05-22T12:08:09Z</time>
      </trkpt>
      <trkpt lat="43.50385" lon="2.6646">
        <ele>862.5</ele>
        <time>2026-05-22T12:08:14Z</time>
      </trkpt>
      <trkpt lat="43.50381" lon="2.66452">
        <ele>861.7</ele>
        <time>2026-05-22T12:08:19Z</time>
      </trkpt>
      <trkpt lat="43.50375" lon="2.66445">
        <ele>860.7</ele>
        <time>2026-05-22T12:08:24Z</time>
      </trkpt>
      <trkpt lat="43.50369" lon="2.6644">
        <ele>859.8</ele>
        <time>2026-05-22T12:08:29Z</time>
      </trkpt>
      <trkpt lat="43.50364" lon="2.66435">
        <ele>859.1</ele>
        <time>2026-05-22T12:08:34Z</time>
      </trkpt>
      <trkpt lat="43.50359" lon="2.66429">
        <ele>858.3</ele>
        <time>2026-05-22T12:08:39Z</time>
      </trkpt>
      <trkpt lat="43.50352" lon="2.66425">
        <ele>857.3</ele>
        <time>2026-05-22T12:08:44Z</time>
      </trkpt>
      <trkpt lat="43.50343" lon="2.66421">
        <ele>856.2</ele>
        <time>2026-05-22T12:08:49Z</time>
      </trkpt>
      <trkpt lat="43.50336" lon="2.66421">
        <ele>855.4</ele>
        <time>2026-05-22T12:08:54Z</time>
      </trkpt>
      <trkpt lat="43.50325" lon="2.66424">
        <ele>855</ele>
        <time>2026-05-22T12:08:59Z</time>
      </trkpt>
      <trkpt lat="43.50315" lon="2.66431">
        <ele>854.8</ele>
        <time>2026-05-22T12:09:04Z</time>
      </trkpt>
      <trkpt lat="43.50308" lon="2.66436">
        <ele>854.7</ele>
        <time>2026-05-22T12:09:09Z</time>
      </trkpt>
      <trkpt lat="43.50302" lon="2.66441">
        <ele>854.5</ele>
        <time>2026-05-22T12:09:14Z</time>
      </trkpt>
      <trkpt lat="43.50297" lon="2.66448">
        <ele>854.3</ele>
        <time>2026-05-22T12:09:19Z</time>
      </trkpt>
      <trkpt lat="43.50293" lon="2.66456">
        <ele>854.1</ele>
        <time>2026-05-22T12:09:24Z</time>
      </trkpt>
      <trkpt lat="43.50288" lon="2.66464">
        <ele>853.8</ele>
        <time>2026-05-22T12:09:29Z</time>
      </trkpt>
      <trkpt lat="43.50283" lon="2.66473">
        <ele>853.4</ele>
        <time>2026-05-22T12:09:34Z</time>
      </trkpt>
      <trkpt lat="43.50278" lon="2.6648">
        <ele>852.9</ele>
        <time>2026-05-22T12:09:39Z</time>
      </trkpt>
      <trkpt lat="43.50271" lon="2.6649">
        <ele>852.2</ele>
        <time>2026-05-22T12:09:44Z</time>
      </trkpt>
      <trkpt lat="43.50265" lon="2.66495">
        <ele>851.6</ele>
        <time>2026-05-22T12:09:49Z</time>
      </trkpt>
      <trkpt lat="43.5026" lon="2.66502">
        <ele>850.9</ele>
        <time>2026-05-22T12:09:54Z</time>
      </trkpt>
      <trkpt lat="43.50253" lon="2.66512">
        <ele>850.2</ele>
        <time>2026-05-22T12:09:59Z</time>
      </trkpt>
      <trkpt lat="43.50244" lon="2.66522">
        <ele>849.2</ele>
        <time>2026-05-22T12:10:04Z</time>
      </trkpt>
      <trkpt lat="43.50237" lon="2.66529">
        <ele>848.5</ele>
        <time>2026-05-22T12:10:09Z</time>
      </trkpt>
      <trkpt lat="43.50229" lon="2.66533">
        <ele>847.7</ele>
        <time>2026-05-22T12:10:14Z</time>
      </trkpt>
      <trkpt lat="43.50224" lon="2.66537">
        <ele>847.2</ele>
        <time>2026-05-22T12:10:19Z</time>
      </trkpt>
      <trkpt lat="43.50217" lon="2.66542">
        <ele>846.5</ele>
        <time>2026-05-22T12:10:24Z</time>
      </trkpt>
      <trkpt lat="43.50211" lon="2.66545">
        <ele>845.9</ele>
        <time>2026-05-22T12:10:29Z</time>
      </trkpt>
      <trkpt lat="43.50204" lon="2.66548">
        <ele>845.2</ele>
        <time>2026-05-22T12:10:34Z</time>
      </trkpt>
      <trkpt lat="43.502" lon="2.66549">
        <ele>844.9</ele>
        <time>2026-05-22T12:10:39Z</time>
      </trkpt>
      <trkpt lat="43.50195" lon="2.66554">
        <ele>844.3</ele>
        <time>2026-05-22T12:10:44Z</time>
      </trkpt>
      <trkpt lat="43.50189" lon="2.66559">
        <ele>843.6</ele>
        <time>2026-05-22T12:10:49Z</time>
      </trkpt>
      <trkpt lat="43.50182" lon="2.66566">
        <ele>842.8</ele>
        <time>2026-05-22T12:10:54Z</time>
      </trkpt>
      <trkpt lat="43.50176" lon="2.66569">
        <ele>842.2</ele>
        <time>2026-05-22T12:10:59Z</time>
      </trkpt>
      <trkpt lat="43.50171" lon="2.66572">
        <ele>841.7</ele>
        <time>2026-05-22T12:11:04Z</time>
      </trkpt>
      <trkpt lat="43.50166" lon="2.66573">
        <ele>841.1</ele>
        <time>2026-05-22T12:11:09Z</time>
      </trkpt>
      <trkpt lat="43.50157" lon="2.66579">
        <ele>839.6</ele>
        <time>2026-05-22T12:11:14Z</time>
      </trkpt>
      <trkpt lat="43.50149" lon="2.66586">
        <ele>838.3</ele>
        <time>2026-05-22T12:11:19Z</time>
      </trkpt>
      <trkpt lat="43.5014" lon="2.6659">
        <ele>836.9</ele>
        <time>2026-05-22T12:11:24Z</time>
      </trkpt>
      <trkpt lat="43.50133" lon="2.66594">
        <ele>835.8</ele>
        <time>2026-05-22T12:11:29Z</time>
      </trkpt>
      <trkpt lat="43.50126" lon="2.66596">
        <ele>834.7</ele>
        <time>2026-05-22T12:11:34Z</time>
      </trkpt>
      <trkpt lat="43.5012" lon="2.66602">
        <ele>833.8</ele>
        <time>2026-05-22T12:11:39Z</time>
      </trkpt>
      <trkpt lat="43.50113" lon="2.66604">
        <ele>832.7</ele>
        <time>2026-05-22T12:11:44Z</time>
      </trkpt>
      <trkpt lat="43.50108" lon="2.66606">
        <ele>831.9</ele>
        <time>2026-05-22T12:11:49Z</time>
      </trkpt>
      <trkpt lat="43.50104" lon="2.66612">
        <ele>831.3</ele>
        <time>2026-05-22T12:11:54Z</time>
      </trkpt>
      <trkpt lat="43.501" lon="2.66618">
        <ele>830.7</ele>
        <time>2026-05-22T12:11:59Z</time>
      </trkpt>
      <trkpt lat="43.50097" lon="2.66624">
        <ele>830.2</ele>
        <time>2026-05-22T12:12:04Z</time>
      </trkpt>
      <trkpt lat="43.50092" lon="2.66632">
        <ele>829.4</ele>
        <time>2026-05-22T12:12:09Z</time>
      </trkpt>
      <trkpt lat="43.50086" lon="2.66635">
        <ele>828.4</ele>
        <time>2026-05-22T12:12:14Z</time>
      </trkpt>
      <trkpt lat="43.5008" lon="2.66638">
        <ele>827.6</ele>
        <time>2026-05-22T12:12:19Z</time>
      </trkpt>
      <trkpt lat="43.50075" lon="2.66641">
        <ele>827</ele>
        <time>2026-05-22T12:12:24Z</time>
      </trkpt>
      <trkpt lat="43.5007" lon="2.66643">
        <ele>826.4</ele>
        <time>2026-05-22T12:12:29Z</time>
      </trkpt>
      <trkpt lat="43.50065" lon="2.66646">
        <ele>825.9</ele>
        <time>2026-05-22T12:12:34Z</time>
      </trkpt>
      <trkpt lat="43.50061" lon="2.66652">
        <ele>825.4</ele>
        <time>2026-05-22T12:12:39Z</time>
      </trkpt>
      <trkpt lat="43.50056" lon="2.66662">
        <ele>824.7</ele>
        <time>2026-05-22T12:12:44Z</time>
      </trkpt>
      <trkpt lat="43.50051" lon="2.66667">
        <ele>824.1</ele>
        <time>2026-05-22T12:12:49Z</time>
      </trkpt>
      <trkpt lat="43.50047" lon="2.66673">
        <ele>823.8</ele>
        <time>2026-05-22T12:12:54Z</time>
      </trkpt>
      <trkpt lat="43.50045" lon="2.66677">
        <ele>823.6</ele>
        <time>2026-05-22T12:12:59Z</time>
      </trkpt>
      <trkpt lat="43.50039" lon="2.66682">
        <ele>823</ele>
        <time>2026-05-22T12:13:04Z</time>
      </trkpt>
      <trkpt lat="43.50033" lon="2.66684">
        <ele>822.4</ele>
        <time>2026-05-22T12:13:09Z</time>
      </trkpt>
      <trkpt lat="43.50026" lon="2.66688">
        <ele>821.6</ele>
        <time>2026-05-22T12:13:14Z</time>
      </trkpt>
      <trkpt lat="43.50019" lon="2.6669">
        <ele>820.8</ele>
        <time>2026-05-22T12:13:19Z</time>
      </trkpt>
      <trkpt lat="43.50014" lon="2.66693">
        <ele>820.3</ele>
        <time>2026-05-22T12:13:24Z</time>
      </trkpt>
      <trkpt lat="43.50011" lon="2.66698">
        <ele>820.1</ele>
        <time>2026-05-22T12:13:29Z</time>
      </trkpt>
      <trkpt lat="43.50005" lon="2.66702">
        <ele>819.4</ele>
        <time>2026-05-22T12:13:34Z</time>
      </trkpt>
      <trkpt lat="43.50001" lon="2.66707">
        <ele>819.1</ele>
        <time>2026-05-22T12:13:39Z</time>
      </trkpt>
      <trkpt lat="43.49995" lon="2.66712">
        <ele>818.5</ele>
        <time>2026-05-22T12:13:44Z</time>
      </trkpt>
      <trkpt lat="43.49991" lon="2.66713">
        <ele>818.1</ele>
        <time>2026-05-22T12:13:49Z</time>
      </trkpt>
      <trkpt lat="43.49985" lon="2.66719">
        <ele>817.5</ele>
        <time>2026-05-22T12:13:54Z</time>
      </trkpt>
      <trkpt lat="43.49981" lon="2.66728">
        <ele>817.1</ele>
        <time>2026-05-22T12:13:59Z</time>
      </trkpt>
      <trkpt lat="43.49975" lon="2.66733">
        <ele>816.5</ele>
        <time>2026-05-22T12:14:04Z</time>
      </trkpt>
      <trkpt lat="43.49973" lon="2.66741">
        <ele>816.3</ele>
        <time>2026-05-22T12:14:09Z</time>
      </trkpt>
      <trkpt lat="43.49973" lon="2.66744">
        <ele>816.4</ele>
        <time>2026-05-22T12:14:14Z</time>
      </trkpt>
      <trkpt lat="43.49974" lon="2.66735">
        <ele>816.4</ele>
        <time>2026-05-22T12:14:19Z</time>
      </trkpt>
      <trkpt lat="43.49975" lon="2.66725">
        <ele>816.4</ele>
        <time>2026-05-22T12:14:24Z</time>
      </trkpt>
      <trkpt lat="43.49976" lon="2.66717">
        <ele>816.4</ele>
        <time>2026-05-22T12:14:29Z</time>
      </trkpt>
      <trkpt lat="43.49974" lon="2.66711">
        <ele>816.1</ele>
        <time>2026-05-22T12:14:34Z</time>
      </trkpt>
      <trkpt lat="43.49973" lon="2.66703">
        <ele>815.9</ele>
        <time>2026-05-22T12:14:39Z</time>
      </trkpt>
      <trkpt lat="43.49974" lon="2.66692">
        <ele>815.8</ele>
        <time>2026-05-22T12:14:44Z</time>
      </trkpt>
      <trkpt lat="43.49975" lon="2.6668">
        <ele>815.8</ele>
        <time>2026-05-22T12:14:49Z</time>
      </trkpt>
      <trkpt lat="43.49977" lon="2.6667">
        <ele>815.8</ele>
        <time>2026-05-22T12:14:54Z</time>
      </trkpt>
      <trkpt lat="43.4998" lon="2.66658">
        <ele>816.1</ele>
        <time>2026-05-22T12:14:59Z</time>
      </trkpt>
      <trkpt lat="43.49983" lon="2.66648">
        <ele>816.5</ele>
        <time>2026-05-22T12:15:04Z</time>
      </trkpt>
      <trkpt lat="43.49987" lon="2.66641">
        <ele>816.9</ele>
        <time>2026-05-22T12:15:09Z</time>
      </trkpt>
      <trkpt lat="43.49992" lon="2.66633">
        <ele>817.5</ele>
        <time>2026-05-22T12:15:14Z</time>
      </trkpt>
      <trkpt lat="43.49993" lon="2.66627">
        <ele>817.7</ele>
        <time>2026-05-22T12:15:19Z</time>
      </trkpt>
      <trkpt lat="43.49991" lon="2.66615">
        <ele>817.6</ele>
        <time>2026-05-22T12:15:24Z</time>
      </trkpt>
      <trkpt lat="43.49994" lon="2.66608">
        <ele>818</ele>
        <time>2026-05-22T12:15:29Z</time>
      </trkpt>
      <trkpt lat="43.49994" lon="2.66599">
        <ele>818.1</ele>
        <time>2026-05-22T12:15:34Z</time>
      </trkpt>
      <trkpt lat="43.49996" lon="2.66591">
        <ele>818.4</ele>
        <time>2026-05-22T12:15:39Z</time>
      </trkpt>
      <trkpt lat="43.5" lon="2.66579">
        <ele>818.8</ele>
        <time>2026-05-22T12:15:44Z</time>
      </trkpt>
      <trkpt lat="43.50006" lon="2.66573">
        <ele>819.2</ele>
        <time>2026-05-22T12:15:49Z</time>
      </trkpt>
      <trkpt lat="43.50014" lon="2.66564">
        <ele>819.8</ele>
        <time>2026-05-22T12:15:54Z</time>
      </trkpt>
      <trkpt lat="43.5002" lon="2.66556">
        <ele>820.2</ele>
        <time>2026-05-22T12:15:59Z</time>
      </trkpt>
      <trkpt lat="43.50026" lon="2.66549">
        <ele>820.8</ele>
        <time>2026-05-22T12:16:04Z</time>
      </trkpt>
      <trkpt lat="43.50028" lon="2.6654">
        <ele>820.8</ele>
        <time>2026-05-22T12:16:09Z</time>
      </trkpt>
      <trkpt lat="43.50027" lon="2.6653">
        <ele>820.4</ele>
        <time>2026-05-22T12:16:14Z</time>
      </trkpt>
      <trkpt lat="43.50023" lon="2.6652">
        <ele>819.5</ele>
        <time>2026-05-22T12:16:19Z</time>
      </trkpt>
      <trkpt lat="43.50017" lon="2.66512">
        <ele>818.3</ele>
        <time>2026-05-22T12:16:24Z</time>
      </trkpt>
      <trkpt lat="43.50011" lon="2.66508">
        <ele>817.2</ele>
        <time>2026-05-22T12:16:29Z</time>
      </trkpt>
      <trkpt lat="43.50004" lon="2.66503">
        <ele>815.8</ele>
        <time>2026-05-22T12:16:34Z</time>
      </trkpt>
      <trkpt lat="43.49998" lon="2.665">
        <ele>814.7</ele>
        <time>2026-05-22T12:16:39Z</time>
      </trkpt>
      <trkpt lat="43.49991" lon="2.66497">
        <ele>813.6</ele>
        <time>2026-05-22T12:16:44Z</time>
      </trkpt>
      <trkpt lat="43.49985" lon="2.66491">
        <ele>812.7</ele>
        <time>2026-05-22T12:16:49Z</time>
      </trkpt>
      <trkpt lat="43.49978" lon="2.66484">
        <ele>811.6</ele>
        <time>2026-05-22T12:16:54Z</time>
      </trkpt>
      <trkpt lat="43.4997" lon="2.66476">
        <ele>810.4</ele>
        <time>2026-05-22T12:16:59Z</time>
      </trkpt>
      <trkpt lat="43.49964" lon="2.66469">
        <ele>809.5</ele>
        <time>2026-05-22T12:17:04Z</time>
      </trkpt>
      <trkpt lat="43.49962" lon="2.66461">
        <ele>809.3</ele>
        <time>2026-05-22T12:17:09Z</time>
      </trkpt>
      <trkpt lat="43.4996" lon="2.66455">
        <ele>809</ele>
        <time>2026-05-22T12:17:14Z</time>
      </trkpt>
      <trkpt lat="43.49959" lon="2.66444">
        <ele>808.9</ele>
        <time>2026-05-22T12:17:19Z</time>
      </trkpt>
      <trkpt lat="43.49957" lon="2.66433">
        <ele>808.7</ele>
        <time>2026-05-22T12:17:24Z</time>
      </trkpt>
      <trkpt lat="43.49959" lon="2.66422">
        <ele>809.1</ele>
        <time>2026-05-22T12:17:29Z</time>
      </trkpt>
      <trkpt lat="43.49962" lon="2.66415">
        <ele>809.5</ele>
        <time>2026-05-22T12:17:34Z</time>
      </trkpt>
      <trkpt lat="43.49965" lon="2.66406">
        <ele>809.8</ele>
        <time>2026-05-22T12:17:39Z</time>
      </trkpt>
      <trkpt lat="43.49966" lon="2.664">
        <ele>809.8</ele>
        <time>2026-05-22T12:17:44Z</time>
      </trkpt>
      <trkpt lat="43.49969" lon="2.66392">
        <ele>810.1</ele>
        <time>2026-05-22T12:17:49Z</time>
      </trkpt>
      <trkpt lat="43.49974" lon="2.66383">
        <ele>810.6</ele>
        <time>2026-05-22T12:17:54Z</time>
      </trkpt>
      <trkpt lat="43.49978" lon="2.66375">
        <ele>811</ele>
        <time>2026-05-22T12:17:59Z</time>
      </trkpt>
      <trkpt lat="43.49981" lon="2.66367">
        <ele>811.2</ele>
        <time>2026-05-22T12:18:04Z</time>
      </trkpt>
      <trkpt lat="43.49984" lon="2.66359">
        <ele>811.4</ele>
        <time>2026-05-22T12:18:09Z</time>
      </trkpt>
      <trkpt lat="43.49991" lon="2.6635">
        <ele>812.2</ele>
        <time>2026-05-22T12:18:14Z</time>
      </trkpt>
      <trkpt lat="43.49997" lon="2.66341">
        <ele>812.8</ele>
        <time>2026-05-22T12:18:19Z</time>
      </trkpt>
      <trkpt lat="43.50003" lon="2.66337">
        <ele>813.6</ele>
        <time>2026-05-22T12:18:24Z</time>
      </trkpt>
      <trkpt lat="43.50005" lon="2.66324">
        <ele>814.9</ele>
        <time>2026-05-22T12:18:29Z</time>
      </trkpt>
      <trkpt lat="43.50009" lon="2.66316">
        <ele>816.4</ele>
        <time>2026-05-22T12:18:34Z</time>
      </trkpt>
      <trkpt lat="43.50011" lon="2.66307">
        <ele>817.6</ele>
        <time>2026-05-22T12:18:39Z</time>
      </trkpt>
      <trkpt lat="43.50015" lon="2.66297">
        <ele>819.2</ele>
        <time>2026-05-22T12:18:44Z</time>
      </trkpt>
      <trkpt lat="43.50019" lon="2.66287">
        <ele>820.6</ele>
        <time>2026-05-22T12:18:49Z</time>
      </trkpt>
      <trkpt lat="43.50023" lon="2.66278">
        <ele>821.9</ele>
        <time>2026-05-22T12:18:54Z</time>
      </trkpt>
      <trkpt lat="43.50027" lon="2.66272">
        <ele>822.7</ele>
        <time>2026-05-22T12:18:59Z</time>
      </trkpt>
      <trkpt lat="43.50032" lon="2.66265">
        <ele>823.7</ele>
        <time>2026-05-22T12:19:04Z</time>
      </trkpt>
      <trkpt lat="43.50032" lon="2.66255">
        <ele>824.5</ele>
        <time>2026-05-22T12:19:09Z</time>
      </trkpt>
      <trkpt lat="43.50036" lon="2.66244">
        <ele>826</ele>
        <time>2026-05-22T12:19:14Z</time>
      </trkpt>
      <trkpt lat="43.5004" lon="2.66235">
        <ele>827.4</ele>
        <time>2026-05-22T12:19:19Z</time>
      </trkpt>
      <trkpt lat="43.50043" lon="2.66227">
        <ele>828.6</ele>
        <time>2026-05-22T12:19:24Z</time>
      </trkpt>
      <trkpt lat="43.50043" lon="2.66217">
        <ele>829.9</ele>
        <time>2026-05-22T12:19:29Z</time>
      </trkpt>
      <trkpt lat="43.50037" lon="2.66208">
        <ele>830.8</ele>
        <time>2026-05-22T12:19:34Z</time>
      </trkpt>
      <trkpt lat="43.5003" lon="2.66206">
        <ele>830.8</ele>
        <time>2026-05-22T12:19:39Z</time>
      </trkpt>
      <trkpt lat="43.50025" lon="2.66209">
        <ele>830.1</ele>
        <time>2026-05-22T12:19:44Z</time>
      </trkpt>
      <trkpt lat="43.50019" lon="2.66215">
        <ele>829</ele>
        <time>2026-05-22T12:19:49Z</time>
      </trkpt>
      <trkpt lat="43.50012" lon="2.66221">
        <ele>827.8</ele>
        <time>2026-05-22T12:19:54Z</time>
      </trkpt>
      <trkpt lat="43.50003" lon="2.66227">
        <ele>826.5</ele>
        <time>2026-05-22T12:19:59Z</time>
      </trkpt>
      <trkpt lat="43.49996" lon="2.66228">
        <ele>825.9</ele>
        <time>2026-05-22T12:20:04Z</time>
      </trkpt>
      <trkpt lat="43.49989" lon="2.6623">
        <ele>825.2</ele>
        <time>2026-05-22T12:20:09Z</time>
      </trkpt>
      <trkpt lat="43.49981" lon="2.6623">
        <ele>824.7</ele>
        <time>2026-05-22T12:20:14Z</time>
      </trkpt>
      <trkpt lat="43.49974" lon="2.66229">
        <ele>824.4</ele>
        <time>2026-05-22T12:20:19Z</time>
      </trkpt>
      <trkpt lat="43.49966" lon="2.66228">
        <ele>824</ele>
        <time>2026-05-22T12:20:24Z</time>
      </trkpt>
      <trkpt lat="43.49959" lon="2.66226">
        <ele>823.9</ele>
        <time>2026-05-22T12:20:29Z</time>
      </trkpt>
      <trkpt lat="43.49951" lon="2.66221">
        <ele>824.3</ele>
        <time>2026-05-22T12:20:34Z</time>
      </trkpt>
      <trkpt lat="43.49945" lon="2.66219">
        <ele>824.2</ele>
        <time>2026-05-22T12:20:39Z</time>
      </trkpt>
      <trkpt lat="43.49939" lon="2.66218">
        <ele>824.1</ele>
        <time>2026-05-22T12:20:44Z</time>
      </trkpt>
      <trkpt lat="43.49938" lon="2.66213">
        <ele>824.9</ele>
        <time>2026-05-22T12:20:49Z</time>
      </trkpt>
      <trkpt lat="43.49934" lon="2.66209">
        <ele>825.3</ele>
        <time>2026-05-22T12:20:54Z</time>
      </trkpt>
      <trkpt lat="43.4993" lon="2.66204">
        <ele>826</ele>
        <time>2026-05-22T12:20:59Z</time>
      </trkpt>
      <trkpt lat="43.49929" lon="2.66197">
        <ele>827.1</ele>
        <time>2026-05-22T12:21:04Z</time>
      </trkpt>
      <trkpt lat="43.49928" lon="2.66189">
        <ele>828.5</ele>
        <time>2026-05-22T12:21:09Z</time>
      </trkpt>
      <trkpt lat="43.49928" lon="2.66184">
        <ele>829.4</ele>
        <time>2026-05-22T12:21:14Z</time>
      </trkpt>
      <trkpt lat="43.49928" lon="2.66175">
        <ele>830.9</ele>
        <time>2026-05-22T12:21:19Z</time>
      </trkpt>
      <trkpt lat="43.49928" lon="2.66166">
        <ele>832.5</ele>
        <time>2026-05-22T12:21:24Z</time>
      </trkpt>
      <trkpt lat="43.49927" lon="2.66161">
        <ele>832.9</ele>
        <time>2026-05-22T12:21:29Z</time>
      </trkpt>
      <trkpt lat="43.49925" lon="2.66154">
        <ele>833.4</ele>
        <time>2026-05-22T12:21:34Z</time>
      </trkpt>
      <trkpt lat="43.49925" lon="2.66145">
        <ele>834.2</ele>
        <time>2026-05-22T12:21:39Z</time>
      </trkpt>
      <trkpt lat="43.49925" lon="2.66136">
        <ele>835</ele>
        <time>2026-05-22T12:21:44Z</time>
      </trkpt>
      <trkpt lat="43.49927" lon="2.66127">
        <ele>835.9</ele>
        <time>2026-05-22T12:21:49Z</time>
      </trkpt>
      <trkpt lat="43.49926" lon="2.66122">
        <ele>836.3</ele>
        <time>2026-05-22T12:21:54Z</time>
      </trkpt>
      <trkpt lat="43.49924" lon="2.66117">
        <ele>836.6</ele>
        <time>2026-05-22T12:21:59Z</time>
      </trkpt>
      <trkpt lat="43.49921" lon="2.66111">
        <ele>836.9</ele>
        <time>2026-05-22T12:22:04Z</time>
      </trkpt>
      <trkpt lat="43.49917" lon="2.66103">
        <ele>837.4</ele>
        <time>2026-05-22T12:22:09Z</time>
      </trkpt>
      <trkpt lat="43.49913" lon="2.66098">
        <ele>836.8</ele>
        <time>2026-05-22T12:22:14Z</time>
      </trkpt>
      <trkpt lat="43.4991" lon="2.66088">
        <ele>836.9</ele>
        <time>2026-05-22T12:22:19Z</time>
      </trkpt>
      <trkpt lat="43.49907" lon="2.66083">
        <ele>836.5</ele>
        <time>2026-05-22T12:22:24Z</time>
      </trkpt>
      <trkpt lat="43.49903" lon="2.6608">
        <ele>835.5</ele>
        <time>2026-05-22T12:22:29Z</time>
      </trkpt>
      <trkpt lat="43.49901" lon="2.66072">
        <ele>835.3</ele>
        <time>2026-05-22T12:22:34Z</time>
      </trkpt>
      <trkpt lat="43.49898" lon="2.66062">
        <ele>834.8</ele>
        <time>2026-05-22T12:22:39Z</time>
      </trkpt>
      <trkpt lat="43.49896" lon="2.66055">
        <ele>834.6</ele>
        <time>2026-05-22T12:22:44Z</time>
      </trkpt>
      <trkpt lat="43.49891" lon="2.6605">
        <ele>833.4</ele>
        <time>2026-05-22T12:22:49Z</time>
      </trkpt>
      <trkpt lat="43.49887" lon="2.66042">
        <ele>832.7</ele>
        <time>2026-05-22T12:22:54Z</time>
      </trkpt>
      <trkpt lat="43.49885" lon="2.66032">
        <ele>832.5</ele>
        <time>2026-05-22T12:22:59Z</time>
      </trkpt>
      <trkpt lat="43.49883" lon="2.66025">
        <ele>832.2</ele>
        <time>2026-05-22T12:23:04Z</time>
      </trkpt>
      <trkpt lat="43.4988" lon="2.66018">
        <ele>831.7</ele>
        <time>2026-05-22T12:23:09Z</time>
      </trkpt>
      <trkpt lat="43.49878" lon="2.66009">
        <ele>831.5</ele>
        <time>2026-05-22T12:23:14Z</time>
      </trkpt>
      <trkpt lat="43.49876" lon="2.66002">
        <ele>831.2</ele>
        <time>2026-05-22T12:23:19Z</time>
      </trkpt>
      <trkpt lat="43.49874" lon="2.65994">
        <ele>830.8</ele>
        <time>2026-05-22T12:23:24Z</time>
      </trkpt>
      <trkpt lat="43.49873" lon="2.6598">
        <ele>830.8</ele>
        <time>2026-05-22T12:23:29Z</time>
      </trkpt>
      <trkpt lat="43.49872" lon="2.65968">
        <ele>830.8</ele>
        <time>2026-05-22T12:23:34Z</time>
      </trkpt>
      <trkpt lat="43.49871" lon="2.65958">
        <ele>830.7</ele>
        <time>2026-05-22T12:23:39Z</time>
      </trkpt>
      <trkpt lat="43.49873" lon="2.65951">
        <ele>831.4</ele>
        <time>2026-05-22T12:23:44Z</time>
      </trkpt>
      <trkpt lat="43.49872" lon="2.65942">
        <ele>831.3</ele>
        <time>2026-05-22T12:23:49Z</time>
      </trkpt>
      <trkpt lat="43.49873" lon="2.65933">
        <ele>831.7</ele>
        <time>2026-05-22T12:23:54Z</time>
      </trkpt>
      <trkpt lat="43.4987" lon="2.65922">
        <ele>831.1</ele>
        <time>2026-05-22T12:23:59Z</time>
      </trkpt>
      <trkpt lat="43.49869" lon="2.65914">
        <ele>831</ele>
        <time>2026-05-22T12:24:04Z</time>
      </trkpt>
      <trkpt lat="43.49869" lon="2.65905">
        <ele>831</ele>
        <time>2026-05-22T12:24:09Z</time>
      </trkpt>
      <trkpt lat="43.4987" lon="2.65895">
        <ele>831.3</ele>
        <time>2026-05-22T12:24:14Z</time>
      </trkpt>
      <trkpt lat="43.4987" lon="2.6588">
        <ele>831.3</ele>
        <time>2026-05-22T12:24:19Z</time>
      </trkpt>
      <trkpt lat="43.4987" lon="2.65868">
        <ele>831.3</ele>
        <time>2026-05-22T12:24:24Z</time>
      </trkpt>
      <trkpt lat="43.49871" lon="2.65861">
        <ele>831.6</ele>
        <time>2026-05-22T12:24:29Z</time>
      </trkpt>
      <trkpt lat="43.49871" lon="2.65853">
        <ele>831.6</ele>
        <time>2026-05-22T12:24:34Z</time>
      </trkpt>
      <trkpt lat="43.49871" lon="2.65845">
        <ele>831.6</ele>
        <time>2026-05-22T12:24:39Z</time>
      </trkpt>
      <trkpt lat="43.49872" lon="2.65836">
        <ele>831.8</ele>
        <time>2026-05-22T12:24:44Z</time>
      </trkpt>
      <trkpt lat="43.49872" lon="2.65827">
        <ele>831.9</ele>
        <time>2026-05-22T12:24:49Z</time>
      </trkpt>
      <trkpt lat="43.49873" lon="2.65816">
        <ele>832.4</ele>
        <time>2026-05-22T12:24:54Z</time>
      </trkpt>
      <trkpt lat="43.49875" lon="2.65805">
        <ele>833</ele>
        <time>2026-05-22T12:24:59Z</time>
      </trkpt>
      <trkpt lat="43.49877" lon="2.65791">
        <ele>833.7</ele>
        <time>2026-05-22T12:25:04Z</time>
      </trkpt>
      <trkpt lat="43.49879" lon="2.65782">
        <ele>834.2</ele>
        <time>2026-05-22T12:25:09Z</time>
      </trkpt>
      <trkpt lat="43.49882" lon="2.65773">
        <ele>835</ele>
        <time>2026-05-22T12:25:14Z</time>
      </trkpt>
      <trkpt lat="43.49885" lon="2.65765">
        <ele>835.7</ele>
        <time>2026-05-22T12:25:19Z</time>
      </trkpt>
      <trkpt lat="43.49889" lon="2.65759">
        <ele>836.6</ele>
        <time>2026-05-22T12:25:24Z</time>
      </trkpt>
      <trkpt lat="43.49895" lon="2.65751">
        <ele>837.8</ele>
        <time>2026-05-22T12:25:29Z</time>
      </trkpt>
      <trkpt lat="43.499" lon="2.65745">
        <ele>838.6</ele>
        <time>2026-05-22T12:25:34Z</time>
      </trkpt>
      <trkpt lat="43.49903" lon="2.65737">
        <ele>838.9</ele>
        <time>2026-05-22T12:25:39Z</time>
      </trkpt>
      <trkpt lat="43.49909" lon="2.65732">
        <ele>839.8</ele>
        <time>2026-05-22T12:25:44Z</time>
      </trkpt>
      <trkpt lat="43.49914" lon="2.65727">
        <ele>840.4</ele>
        <time>2026-05-22T12:25:49Z</time>
      </trkpt>
      <trkpt lat="43.49917" lon="2.65725">
        <ele>840.8</ele>
        <time>2026-05-22T12:25:54Z</time>
      </trkpt>
      <trkpt lat="43.49922" lon="2.6572">
        <ele>841</ele>
        <time>2026-05-22T12:25:59Z</time>
      </trkpt>
      <trkpt lat="43.49925" lon="2.65713">
        <ele>840.8</ele>
        <time>2026-05-22T12:26:04Z</time>
      </trkpt>
      <trkpt lat="43.49926" lon="2.65703">
        <ele>840.4</ele>
        <time>2026-05-22T12:26:09Z</time>
      </trkpt>
      <trkpt lat="43.49932" lon="2.65696">
        <ele>840.4</ele>
        <time>2026-05-22T12:26:14Z</time>
      </trkpt>
      <trkpt lat="43.49936" lon="2.65683">
        <ele>839.9</ele>
        <time>2026-05-22T12:26:19Z</time>
      </trkpt>
      <trkpt lat="43.49939" lon="2.65678">
        <ele>839.8</ele>
        <time>2026-05-22T12:26:24Z</time>
      </trkpt>
      <trkpt lat="43.49942" lon="2.6567">
        <ele>839.4</ele>
        <time>2026-05-22T12:26:29Z</time>
      </trkpt>
      <trkpt lat="43.49946" lon="2.65664">
        <ele>839.3</ele>
        <time>2026-05-22T12:26:34Z</time>
      </trkpt>
      <trkpt lat="43.49954" lon="2.65663">
        <ele>839.6</ele>
        <time>2026-05-22T12:26:39Z</time>
      </trkpt>
      <trkpt lat="43.49959" lon="2.65662">
        <ele>839.8</ele>
        <time>2026-05-22T12:26:44Z</time>
      </trkpt>
      <trkpt lat="43.49962" lon="2.65651">
        <ele>839.4</ele>
        <time>2026-05-22T12:26:49Z</time>
      </trkpt>
      <trkpt lat="43.49963" lon="2.65646">
        <ele>839.2</ele>
        <time>2026-05-22T12:26:54Z</time>
      </trkpt>
      <trkpt lat="43.49969" lon="2.65642">
        <ele>839.3</ele>
        <time>2026-05-22T12:26:59Z</time>
      </trkpt>
      <trkpt lat="43.49972" lon="2.65639">
        <ele>839.3</ele>
        <time>2026-05-22T12:27:04Z</time>
      </trkpt>
      <trkpt lat="43.49978" lon="2.65636">
        <ele>839.5</ele>
        <time>2026-05-22T12:27:09Z</time>
      </trkpt>
      <trkpt lat="43.49981" lon="2.65632">
        <ele>839.4</ele>
        <time>2026-05-22T12:27:14Z</time>
      </trkpt>
      <trkpt lat="43.49986" lon="2.65628">
        <ele>839.5</ele>
        <time>2026-05-22T12:27:19Z</time>
      </trkpt>
      <trkpt lat="43.49992" lon="2.65621">
        <ele>839.4</ele>
        <time>2026-05-22T12:27:24Z</time>
      </trkpt>
      <trkpt lat="43.5" lon="2.65614">
        <ele>839.5</ele>
        <time>2026-05-22T12:27:29Z</time>
      </trkpt>
      <trkpt lat="43.50006" lon="2.65608">
        <ele>839.4</ele>
        <time>2026-05-22T12:27:34Z</time>
      </trkpt>
      <trkpt lat="43.50012" lon="2.65601">
        <ele>839.2</ele>
        <time>2026-05-22T12:27:39Z</time>
      </trkpt>
      <trkpt lat="43.50016" lon="2.65591">
        <ele>838.8</ele>
        <time>2026-05-22T12:27:44Z</time>
      </trkpt>
      <trkpt lat="43.50021" lon="2.65584">
        <ele>838.5</ele>
        <time>2026-05-22T12:27:49Z</time>
      </trkpt>
      <trkpt lat="43.50027" lon="2.65579">
        <ele>838.4</ele>
        <time>2026-05-22T12:27:54Z</time>
      </trkpt>
      <trkpt lat="43.50033" lon="2.65575">
        <ele>838.3</ele>
        <time>2026-05-22T12:27:59Z</time>
      </trkpt>
      <trkpt lat="43.50039" lon="2.65566">
        <ele>837.8</ele>
        <time>2026-05-22T12:28:04Z</time>
      </trkpt>
      <trkpt lat="43.50044" lon="2.65558">
        <ele>837.4</ele>
        <time>2026-05-22T12:28:09Z</time>
      </trkpt>
      <trkpt lat="43.50048" lon="2.65549">
        <ele>836.8</ele>
        <time>2026-05-22T12:28:14Z</time>
      </trkpt>
      <trkpt lat="43.50053" lon="2.65541">
        <ele>836.3</ele>
        <time>2026-05-22T12:28:19Z</time>
      </trkpt>
      <trkpt lat="43.50059" lon="2.65535">
        <ele>835.9</ele>
        <time>2026-05-22T12:28:24Z</time>
      </trkpt>
      <trkpt lat="43.50066" lon="2.65528">
        <ele>835.4</ele>
        <time>2026-05-22T12:28:29Z</time>
      </trkpt>
      <trkpt lat="43.50074" lon="2.65521">
        <ele>834.8</ele>
        <time>2026-05-22T12:28:34Z</time>
      </trkpt>
      <trkpt lat="43.5008" lon="2.65515">
        <ele>834.3</ele>
        <time>2026-05-22T12:28:39Z</time>
      </trkpt>
      <trkpt lat="43.50081" lon="2.65502">
        <ele>833.2</ele>
        <time>2026-05-22T12:28:44Z</time>
      </trkpt>
      <trkpt lat="43.50084" lon="2.65493">
        <ele>832.8</ele>
        <time>2026-05-22T12:28:49Z</time>
      </trkpt>
      <trkpt lat="43.50085" lon="2.65485">
        <ele>832.6</ele>
        <time>2026-05-22T12:28:54Z</time>
      </trkpt>
      <trkpt lat="43.50089" lon="2.65478">
        <ele>832.7</ele>
        <time>2026-05-22T12:28:59Z</time>
      </trkpt>
      <trkpt lat="43.50093" lon="2.65472">
        <ele>832.8</ele>
        <time>2026-05-22T12:29:04Z</time>
      </trkpt>
      <trkpt lat="43.50094" lon="2.65465">
        <ele>832.6</ele>
        <time>2026-05-22T12:29:09Z</time>
      </trkpt>
      <trkpt lat="43.50093" lon="2.65459">
        <ele>832.3</ele>
        <time>2026-05-22T12:29:14Z</time>
      </trkpt>
      <trkpt lat="43.50092" lon="2.65459">
        <ele>832.3</ele>
        <time>2026-05-22T12:29:19Z</time>
      </trkpt>
      <trkpt lat="43.50092" lon="2.65459">
        <ele>832.3</ele>
        <time>2026-05-22T12:29:24Z</time>
      </trkpt>
      <trkpt lat="43.50092" lon="2.65459">
        <ele>832.3</ele>
        <time>2026-05-22T12:29:29Z</time>
      </trkpt>
      <trkpt lat="43.50092" lon="2.65459">
        <ele>832.3</ele>
        <time>2026-05-22T12:29:34Z</time>
      </trkpt>
      <trkpt lat="43.50092" lon="2.65459">
        <ele>832.3</ele>
        <time>2026-05-22T12:29:39Z</time>
      </trkpt>
      <trkpt lat="43.50092" lon="2.65459">
        <ele>832.3</ele>
        <time>2026-05-22T12:29:44Z</time>
      </trkpt>
      <trkpt lat="43.50092" lon="2.65459">
        <ele>832.3</ele>
        <time>2026-05-22T12:29:49Z</time>
      </trkpt>
      <trkpt lat="43.50092" lon="2.65459">
        <ele>832.3</ele>
        <time>2026-05-22T12:29:54Z</time>
      </trkpt>
      <trkpt lat="43.50092" lon="2.65459">
        <ele>832.3</ele>
        <time>2026-05-22T12:29:59Z</time>
      </trkpt>
      <trkpt lat="43.50092" lon="2.65459">
        <ele>832.3</ele>
        <time>2026-05-22T12:30:04Z</time>
      </trkpt>
      <trkpt lat="43.50092" lon="2.65459">
        <ele>832.3</ele>
        <time>2026-05-22T12:30:09Z</time>
      </trkpt>
      <trkpt lat="43.50092" lon="2.65459">
        <ele>832.3</ele>
        <time>2026-05-22T12:30:14Z</time>
      </trkpt>
      <trkpt lat="43.50092" lon="2.65459">
        <ele>832.3</ele>
        <time>2026-05-22T12:30:19Z</time>
      </trkpt>
      <trkpt lat="43.50092" lon="2.65459">
        <ele>832.3</ele>
        <time>2026-05-22T12:30:24Z</time>
      </trkpt>
      <trkpt lat="43.50092" lon="2.65459">
        <ele>832.3</ele>
        <time>2026-05-22T12:30:29Z</time>
      </trkpt>
      <trkpt lat="43.50092" lon="2.65459">
        <ele>832.3</ele>
        <time>2026-05-22T12:30:34Z</time>
      </trkpt>
      <trkpt lat="43.50092" lon="2.65459">
        <ele>832.3</ele>
        <time>2026-05-22T12:30:39Z</time>
      </trkpt>
      <trkpt lat="43.50092" lon="2.65459">
        <ele>832.3</ele>
        <time>2026-05-22T12:30:44Z</time>
      </trkpt>
      <trkpt lat="43.50092" lon="2.65459">
        <ele>832.3</ele>
        <time>2026-05-22T12:30:49Z</time>
      </trkpt>
      <trkpt lat="43.50092" lon="2.65459">
        <ele>832.3</ele>
        <time>2026-05-22T12:30:54Z</time>
      </trkpt>
      <trkpt lat="43.50092" lon="2.65459">
        <ele>832.3</ele>
        <time>2026-05-22T12:30:59Z</time>
      </trkpt>
      <trkpt lat="43.50092" lon="2.65459">
        <ele>832.3</ele>
        <time>2026-05-22T12:31:04Z</time>
      </trkpt>
      <trkpt lat="43.50092" lon="2.65459">
        <ele>832.3</ele>
        <time>2026-05-22T12:31:09Z</time>
      </trkpt>
      <trkpt lat="43.50092" lon="2.65459">
        <ele>832.3</ele>
        <time>2026-05-22T12:31:14Z</time>
      </trkpt>
      <trkpt lat="43.50092" lon="2.65459">
        <ele>832.3</ele>
        <time>2026-05-22T12:31:19Z</time>
      </trkpt>
      <trkpt lat="43.50092" lon="2.65459">
        <ele>832.3</ele>
        <time>2026-05-22T12:31:24Z</time>
      </trkpt>
      <trkpt lat="43.50092" lon="2.65459">
        <ele>832.3</ele>
        <time>2026-05-22T12:31:29Z</time>
      </trkpt>
      <trkpt lat="43.50092" lon="2.65459">
        <ele>832.3</ele>
        <time>2026-05-22T12:31:34Z</time>
      </trkpt>
      <trkpt lat="43.50092" lon="2.65459">
        <ele>832.3</ele>
        <time>2026-05-22T12:31:39Z</time>
      </trkpt>
      <trkpt lat="43.50092" lon="2.65459">
        <ele>832.3</ele>
        <time>2026-05-22T12:31:44Z</time>
      </trkpt>
      <trkpt lat="43.50092" lon="2.65459">
        <ele>832.3</ele>
        <time>2026-05-22T12:31:49Z</time>
      </trkpt>
      <trkpt lat="43.50092" lon="2.65459">
        <ele>832.3</ele>
        <time>2026-05-22T12:31:54Z</time>
      </trkpt>
      <trkpt lat="43.50092" lon="2.65459">
        <ele>832.3</ele>
        <time>2026-05-22T12:31:59Z</time>
      </trkpt>
      <trkpt lat="43.50092" lon="2.65459">
        <ele>832.3</ele>
        <time>2026-05-22T12:32:04Z</time>
      </trkpt>
      <trkpt lat="43.50092" lon="2.65459">
        <ele>832.3</ele>
        <time>2026-05-22T12:32:09Z</time>
      </trkpt>
      <trkpt lat="43.50092" lon="2.65459">
        <ele>832.3</ele>
        <time>2026-05-22T12:32:14Z</time>
      </trkpt>
      <trkpt lat="43.50092" lon="2.65459">
        <ele>832.3</ele>
        <time>2026-05-22T12:32:19Z</time>
      </trkpt>
      <trkpt lat="43.50092" lon="2.65459">
        <ele>832.3</ele>
        <time>2026-05-22T12:32:24Z</time>
      </trkpt>
      <trkpt lat="43.50092" lon="2.65459">
        <ele>832.3</ele>
        <time>2026-05-22T12:32:29Z</time>
      </trkpt>
      <trkpt lat="43.50092" lon="2.65459">
        <ele>832.3</ele>
        <time>2026-05-22T12:32:34Z</time>
      </trkpt>
      <trkpt lat="43.50092" lon="2.65459">
        <ele>832.3</ele>
        <time>2026-05-22T12:32:39Z</time>
      </trkpt>
      <trkpt lat="43.50085" lon="2.65454">
        <ele>831.5</ele>
        <time>2026-05-22T12:32:44Z</time>
      </trkpt>
      <trkpt lat="43.50085" lon="2.65452">
        <ele>831.4</ele>
        <time>2026-05-22T12:32:49Z</time>
      </trkpt>
      <trkpt lat="43.50085" lon="2.65452">
        <ele>831.4</ele>
        <time>2026-05-22T12:32:54Z</time>
      </trkpt>
      <trkpt lat="43.50085" lon="2.65452">
        <ele>831.4</ele>
        <time>2026-05-22T12:32:59Z</time>
      </trkpt>
      <trkpt lat="43.50085" lon="2.65452">
        <ele>831.4</ele>
        <time>2026-05-22T12:33:04Z</time>
      </trkpt>
      <trkpt lat="43.50085" lon="2.65452">
        <ele>831.4</ele>
        <time>2026-05-22T12:33:09Z</time>
      </trkpt>
      <trkpt lat="43.50085" lon="2.65452">
        <ele>831.4</ele>
        <time>2026-05-22T12:33:14Z</time>
      </trkpt>
      <trkpt lat="43.50085" lon="2.65452">
        <ele>831.4</ele>
        <time>2026-05-22T12:33:19Z</time>
      </trkpt>
      <trkpt lat="43.50085" lon="2.65452">
        <ele>831.4</ele>
        <time>2026-05-22T12:33:24Z</time>
      </trkpt>
      <trkpt lat="43.50087" lon="2.6544">
        <ele>831.1</ele>
        <time>2026-05-22T12:33:29Z</time>
      </trkpt>
      <trkpt lat="43.50087" lon="2.65439">
        <ele>831.1</ele>
        <time>2026-05-22T12:33:34Z</time>
      </trkpt>
      <trkpt lat="43.50087" lon="2.65439">
        <ele>831.1</ele>
        <time>2026-05-22T12:33:39Z</time>
      </trkpt>
      <trkpt lat="43.50087" lon="2.65439">
        <ele>831.1</ele>
        <time>2026-05-22T12:33:44Z</time>
      </trkpt>
      <trkpt lat="43.50087" lon="2.65439">
        <ele>831.1</ele>
        <time>2026-05-22T12:33:49Z</time>
      </trkpt>
      <trkpt lat="43.50087" lon="2.65439">
        <ele>831.1</ele>
        <time>2026-05-22T12:33:54Z</time>
      </trkpt>
      <trkpt lat="43.50087" lon="2.65439">
        <ele>831.1</ele>
        <time>2026-05-22T12:33:59Z</time>
      </trkpt>
      <trkpt lat="43.50087" lon="2.65439">
        <ele>831.1</ele>
        <time>2026-05-22T12:34:04Z</time>
      </trkpt>
      <trkpt lat="43.50092" lon="2.65451">
        <ele>832</ele>
        <time>2026-05-22T12:34:09Z</time>
      </trkpt>
      <trkpt lat="43.50092" lon="2.65451">
        <ele>832</ele>
        <time>2026-05-22T12:34:14Z</time>
      </trkpt>
      <trkpt lat="43.50092" lon="2.65451">
        <ele>832</ele>
        <time>2026-05-22T12:34:19Z</time>
      </trkpt>
      <trkpt lat="43.50092" lon="2.65451">
        <ele>832</ele>
        <time>2026-05-22T12:34:24Z</time>
      </trkpt>
      <trkpt lat="43.50092" lon="2.65451">
        <ele>832</ele>
        <time>2026-05-22T12:34:29Z</time>
      </trkpt>
      <trkpt lat="43.50092" lon="2.65451">
        <ele>832</ele>
        <time>2026-05-22T12:34:34Z</time>
      </trkpt>
      <trkpt lat="43.50092" lon="2.65451">
        <ele>832</ele>
        <time>2026-05-22T12:34:39Z</time>
      </trkpt>
      <trkpt lat="43.50092" lon="2.65451">
        <ele>832</ele>
        <time>2026-05-22T12:34:44Z</time>
      </trkpt>
      <trkpt lat="43.50092" lon="2.65451">
        <ele>832</ele>
        <time>2026-05-22T12:34:49Z</time>
      </trkpt>
      <trkpt lat="43.50092" lon="2.65451">
        <ele>832</ele>
        <time>2026-05-22T12:34:54Z</time>
      </trkpt>
      <trkpt lat="43.50092" lon="2.65451">
        <ele>832</ele>
        <time>2026-05-22T12:34:59Z</time>
      </trkpt>
      <trkpt lat="43.50092" lon="2.65451">
        <ele>832</ele>
        <time>2026-05-22T12:35:04Z</time>
      </trkpt>
      <trkpt lat="43.50092" lon="2.65451">
        <ele>832</ele>
        <time>2026-05-22T12:35:09Z</time>
      </trkpt>
      <trkpt lat="43.50094" lon="2.65451">
        <ele>832.1</ele>
        <time>2026-05-22T12:35:14Z</time>
      </trkpt>
      <trkpt lat="43.50101" lon="2.65447">
        <ele>832.6</ele>
        <time>2026-05-22T12:35:19Z</time>
      </trkpt>
      <trkpt lat="43.50108" lon="2.6544">
        <ele>832.9</ele>
        <time>2026-05-22T12:35:24Z</time>
      </trkpt>
      <trkpt lat="43.50112" lon="2.65426">
        <ele>832.7</ele>
        <time>2026-05-22T12:35:29Z</time>
      </trkpt>
      <trkpt lat="43.50117" lon="2.65417">
        <ele>832.8</ele>
        <time>2026-05-22T12:35:34Z</time>
      </trkpt>
      <trkpt lat="43.50123" lon="2.65409">
        <ele>833.4</ele>
        <time>2026-05-22T12:35:39Z</time>
      </trkpt>
      <trkpt lat="43.50128" lon="2.65401">
        <ele>833.8</ele>
        <time>2026-05-22T12:35:44Z</time>
      </trkpt>
      <trkpt lat="43.50133" lon="2.65394">
        <ele>834.3</ele>
        <time>2026-05-22T12:35:49Z</time>
      </trkpt>
      <trkpt lat="43.50138" lon="2.65387">
        <ele>834.7</ele>
        <time>2026-05-22T12:35:54Z</time>
      </trkpt>
      <trkpt lat="43.50142" lon="2.65378">
        <ele>835.1</ele>
        <time>2026-05-22T12:35:59Z</time>
      </trkpt>
      <trkpt lat="43.50148" lon="2.65366">
        <ele>835.6</ele>
        <time>2026-05-22T12:36:04Z</time>
      </trkpt>
      <trkpt lat="43.50154" lon="2.65354">
        <ele>836.1</ele>
        <time>2026-05-22T12:36:09Z</time>
      </trkpt>
      <trkpt lat="43.50159" lon="2.65344">
        <ele>836.4</ele>
        <time>2026-05-22T12:36:14Z</time>
      </trkpt>
      <trkpt lat="43.50165" lon="2.65336">
        <ele>836.9</ele>
        <time>2026-05-22T12:36:19Z</time>
      </trkpt>
      <trkpt lat="43.5017" lon="2.65329">
        <ele>836.7</ele>
        <time>2026-05-22T12:36:24Z</time>
      </trkpt>
      <trkpt lat="43.50175" lon="2.65324">
        <ele>836.5</ele>
        <time>2026-05-22T12:36:29Z</time>
      </trkpt>
      <trkpt lat="43.50184" lon="2.65319">
        <ele>836.4</ele>
        <time>2026-05-22T12:36:34Z</time>
      </trkpt>
      <trkpt lat="43.50193" lon="2.65316">
        <ele>836.6</ele>
        <time>2026-05-22T12:36:39Z</time>
      </trkpt>
      <trkpt lat="43.50197" lon="2.65313">
        <ele>836.4</ele>
        <time>2026-05-22T12:36:44Z</time>
      </trkpt>
      <trkpt lat="43.50204" lon="2.65308">
        <ele>836.2</ele>
        <time>2026-05-22T12:36:49Z</time>
      </trkpt>
      <trkpt lat="43.50214" lon="2.65303">
        <ele>836.2</ele>
        <time>2026-05-22T12:36:54Z</time>
      </trkpt>
      <trkpt lat="43.50223" lon="2.65298">
        <ele>836</ele>
        <time>2026-05-22T12:36:59Z</time>
      </trkpt>
      <trkpt lat="43.50232" lon="2.65296">
        <ele>836.2</ele>
        <time>2026-05-22T12:37:04Z</time>
      </trkpt>
      <trkpt lat="43.50238" lon="2.6529">
        <ele>835.7</ele>
        <time>2026-05-22T12:37:09Z</time>
      </trkpt>
      <trkpt lat="43.50244" lon="2.65286">
        <ele>835.5</ele>
        <time>2026-05-22T12:37:14Z</time>
      </trkpt>
      <trkpt lat="43.50236" lon="2.65288">
        <ele>835.4</ele>
        <time>2026-05-22T12:37:19Z</time>
      </trkpt>
      <trkpt lat="43.5023" lon="2.65292">
        <ele>835.6</ele>
        <time>2026-05-22T12:37:24Z</time>
      </trkpt>
      <trkpt lat="43.50227" lon="2.65296">
        <ele>835.9</ele>
        <time>2026-05-22T12:37:29Z</time>
      </trkpt>
      <trkpt lat="43.50225" lon="2.65296">
        <ele>835.8</ele>
        <time>2026-05-22T12:37:34Z</time>
      </trkpt>
      <trkpt lat="43.50221" lon="2.65293">
        <ele>835.3</ele>
        <time>2026-05-22T12:37:39Z</time>
      </trkpt>
      <trkpt lat="43.50218" lon="2.65288">
        <ele>834.5</ele>
        <time>2026-05-22T12:37:44Z</time>
      </trkpt>
      <trkpt lat="43.50213" lon="2.65283">
        <ele>833.7</ele>
        <time>2026-05-22T12:37:49Z</time>
      </trkpt>
      <trkpt lat="43.50208" lon="2.65285">
        <ele>833.7</ele>
        <time>2026-05-22T12:37:54Z</time>
      </trkpt>
      <trkpt lat="43.50202" lon="2.65289">
        <ele>833.9</ele>
        <time>2026-05-22T12:37:59Z</time>
      </trkpt>
      <trkpt lat="43.50196" lon="2.65289">
        <ele>833.6</ele>
        <time>2026-05-22T12:38:04Z</time>
      </trkpt>
      <trkpt lat="43.50189" lon="2.65288">
        <ele>833.2</ele>
        <time>2026-05-22T12:38:09Z</time>
      </trkpt>
      <trkpt lat="43.50182" lon="2.65288">
        <ele>832.8</ele>
        <time>2026-05-22T12:38:14Z</time>
      </trkpt>
      <trkpt lat="43.50176" lon="2.6529">
        <ele>832.8</ele>
        <time>2026-05-22T12:38:19Z</time>
      </trkpt>
      <trkpt lat="43.50168" lon="2.65287">
        <ele>832.1</ele>
        <time>2026-05-22T12:38:24Z</time>
      </trkpt>
      <trkpt lat="43.50159" lon="2.65287">
        <ele>831.4</ele>
        <time>2026-05-22T12:38:29Z</time>
      </trkpt>
      <trkpt lat="43.50152" lon="2.6529">
        <ele>831.3</ele>
        <time>2026-05-22T12:38:34Z</time>
      </trkpt>
      <trkpt lat="43.50143" lon="2.65291">
        <ele>830.7</ele>
        <time>2026-05-22T12:38:39Z</time>
      </trkpt>
      <trkpt lat="43.50134" lon="2.65294">
        <ele>830.4</ele>
        <time>2026-05-22T12:38:44Z</time>
      </trkpt>
      <trkpt lat="43.50126" lon="2.65294">
        <ele>829.8</ele>
        <time>2026-05-22T12:38:49Z</time>
      </trkpt>
      <trkpt lat="43.50118" lon="2.65295">
        <ele>829.4</ele>
        <time>2026-05-22T12:38:54Z</time>
      </trkpt>
      <trkpt lat="43.50112" lon="2.65294">
        <ele>828.8</ele>
        <time>2026-05-22T12:38:59Z</time>
      </trkpt>
      <trkpt lat="43.50105" lon="2.65297">
        <ele>828.6</ele>
        <time>2026-05-22T12:39:04Z</time>
      </trkpt>
      <trkpt lat="43.50096" lon="2.653">
        <ele>828.3</ele>
        <time>2026-05-22T12:39:09Z</time>
      </trkpt>
      <trkpt lat="43.50087" lon="2.65305">
        <ele>828.2</ele>
        <time>2026-05-22T12:39:14Z</time>
      </trkpt>
      <trkpt lat="43.5008" lon="2.65311">
        <ele>828.5</ele>
        <time>2026-05-22T12:39:19Z</time>
      </trkpt>
      <trkpt lat="43.50075" lon="2.65317">
        <ele>829.1</ele>
        <time>2026-05-22T12:39:24Z</time>
      </trkpt>
      <trkpt lat="43.5007" lon="2.65324">
        <ele>829.7</ele>
        <time>2026-05-22T12:39:29Z</time>
      </trkpt>
      <trkpt lat="43.50065" lon="2.65334">
        <ele>830.6</ele>
        <time>2026-05-22T12:39:34Z</time>
      </trkpt>
      <trkpt lat="43.50061" lon="2.65342">
        <ele>830.5</ele>
        <time>2026-05-22T12:39:39Z</time>
      </trkpt>
      <trkpt lat="43.50053" lon="2.65346">
        <ele>830.4</ele>
        <time>2026-05-22T12:39:44Z</time>
      </trkpt>
      <trkpt lat="43.50044" lon="2.65342">
        <ele>830.2</ele>
        <time>2026-05-22T12:39:49Z</time>
      </trkpt>
      <trkpt lat="43.50036" lon="2.65338">
        <ele>830</ele>
        <time>2026-05-22T12:39:54Z</time>
      </trkpt>
      <trkpt lat="43.5003" lon="2.65331">
        <ele>829.5</ele>
        <time>2026-05-22T12:39:59Z</time>
      </trkpt>
      <trkpt lat="43.50023" lon="2.65327">
        <ele>829</ele>
        <time>2026-05-22T12:40:04Z</time>
      </trkpt>
      <trkpt lat="43.50018" lon="2.65323">
        <ele>828.6</ele>
        <time>2026-05-22T12:40:09Z</time>
      </trkpt>
      <trkpt lat="43.50013" lon="2.6532">
        <ele>828.3</ele>
        <time>2026-05-22T12:40:14Z</time>
      </trkpt>
      <trkpt lat="43.50008" lon="2.65319">
        <ele>828.1</ele>
        <time>2026-05-22T12:40:19Z</time>
      </trkpt>
      <trkpt lat="43.5" lon="2.65317">
        <ele>827.8</ele>
        <time>2026-05-22T12:40:24Z</time>
      </trkpt>
      <trkpt lat="43.49994" lon="2.65316">
        <ele>827.6</ele>
        <time>2026-05-22T12:40:29Z</time>
      </trkpt>
      <trkpt lat="43.49988" lon="2.65314">
        <ele>827.2</ele>
        <time>2026-05-22T12:40:34Z</time>
      </trkpt>
      <trkpt lat="43.49981" lon="2.6531">
        <ele>826.8</ele>
        <time>2026-05-22T12:40:39Z</time>
      </trkpt>
      <trkpt lat="43.49974" lon="2.65308">
        <ele>826.4</ele>
        <time>2026-05-22T12:40:44Z</time>
      </trkpt>
      <trkpt lat="43.49968" lon="2.65306">
        <ele>826.1</ele>
        <time>2026-05-22T12:40:49Z</time>
      </trkpt>
      <trkpt lat="43.49965" lon="2.65298">
        <ele>825.6</ele>
        <time>2026-05-22T12:40:54Z</time>
      </trkpt>
      <trkpt lat="43.49962" lon="2.65297">
        <ele>825.4</ele>
        <time>2026-05-22T12:40:59Z</time>
      </trkpt>
      <trkpt lat="43.49963" lon="2.65297">
        <ele>825.4</ele>
        <time>2026-05-22T12:41:04Z</time>
      </trkpt>
      <trkpt lat="43.49963" lon="2.65297">
        <ele>825.4</ele>
        <time>2026-05-22T12:41:09Z</time>
      </trkpt>
      <trkpt lat="43.49963" lon="2.65297">
        <ele>825.4</ele>
        <time>2026-05-22T12:41:14Z</time>
      </trkpt>
      <trkpt lat="43.49964" lon="2.65316">
        <ele>826.6</ele>
        <time>2026-05-22T12:41:19Z</time>
      </trkpt>
      <trkpt lat="43.49963" lon="2.65322">
        <ele>827</ele>
        <time>2026-05-22T12:41:24Z</time>
      </trkpt>
      <trkpt lat="43.49959" lon="2.65319">
        <ele>826.7</ele>
        <time>2026-05-22T12:41:29Z</time>
      </trkpt>
      <trkpt lat="43.49953" lon="2.65308">
        <ele>825.8</ele>
        <time>2026-05-22T12:41:34Z</time>
      </trkpt>
      <trkpt lat="43.49949" lon="2.65297">
        <ele>825.1</ele>
        <time>2026-05-22T12:41:39Z</time>
      </trkpt>
      <trkpt lat="43.49945" lon="2.6529">
        <ele>824.6</ele>
        <time>2026-05-22T12:41:44Z</time>
      </trkpt>
      <trkpt lat="43.49939" lon="2.65284">
        <ele>824.1</ele>
        <time>2026-05-22T12:41:49Z</time>
      </trkpt>
      <trkpt lat="43.49936" lon="2.65282">
        <ele>823.9</ele>
        <time>2026-05-22T12:41:54Z</time>
      </trkpt>
      <trkpt lat="43.49934" lon="2.65285">
        <ele>824.1</ele>
        <time>2026-05-22T12:41:59Z</time>
      </trkpt>
      <trkpt lat="43.49933" lon="2.65286">
        <ele>824.1</ele>
        <time>2026-05-22T12:42:04Z</time>
      </trkpt>
      <trkpt lat="43.49933" lon="2.65286">
        <ele>824.1</ele>
        <time>2026-05-22T12:42:09Z</time>
      </trkpt>
      <trkpt lat="43.49933" lon="2.65286">
        <ele>824.1</ele>
        <time>2026-05-22T12:42:14Z</time>
      </trkpt>
      <trkpt lat="43.49933" lon="2.65286">
        <ele>824.1</ele>
        <time>2026-05-22T12:42:19Z</time>
      </trkpt>
      <trkpt lat="43.49933" lon="2.65286">
        <ele>824.1</ele>
        <time>2026-05-22T12:42:24Z</time>
      </trkpt>
      <trkpt lat="43.49933" lon="2.65286">
        <ele>824.1</ele>
        <time>2026-05-22T12:42:29Z</time>
      </trkpt>
      <trkpt lat="43.49933" lon="2.65286">
        <ele>824.1</ele>
        <time>2026-05-22T12:42:34Z</time>
      </trkpt>
      <trkpt lat="43.49927" lon="2.65271">
        <ele>823.2</ele>
        <time>2026-05-22T12:42:39Z</time>
      </trkpt>
      <trkpt lat="43.49926" lon="2.65269">
        <ele>823.1</ele>
        <time>2026-05-22T12:42:44Z</time>
      </trkpt>
      <trkpt lat="43.49926" lon="2.65269">
        <ele>823.1</ele>
        <time>2026-05-22T12:42:49Z</time>
      </trkpt>
      <trkpt lat="43.49926" lon="2.65269">
        <ele>823.1</ele>
        <time>2026-05-22T12:42:54Z</time>
      </trkpt>
      <trkpt lat="43.49926" lon="2.65269">
        <ele>823.1</ele>
        <time>2026-05-22T12:42:59Z</time>
      </trkpt>
      <trkpt lat="43.49926" lon="2.65269">
        <ele>823.1</ele>
        <time>2026-05-22T12:43:04Z</time>
      </trkpt>
      <trkpt lat="43.49926" lon="2.65269">
        <ele>823.1</ele>
        <time>2026-05-22T12:43:09Z</time>
      </trkpt>
      <trkpt lat="43.49926" lon="2.65269">
        <ele>823.1</ele>
        <time>2026-05-22T12:43:14Z</time>
      </trkpt>
      <trkpt lat="43.49926" lon="2.65269">
        <ele>823.1</ele>
        <time>2026-05-22T12:43:19Z</time>
      </trkpt>
      <trkpt lat="43.49926" lon="2.65269">
        <ele>823.1</ele>
        <time>2026-05-22T12:43:24Z</time>
      </trkpt>
      <trkpt lat="43.49926" lon="2.65269">
        <ele>823.1</ele>
        <time>2026-05-22T12:43:29Z</time>
      </trkpt>
      <trkpt lat="43.49926" lon="2.65269">
        <ele>823.1</ele>
        <time>2026-05-22T12:43:34Z</time>
      </trkpt>
      <trkpt lat="43.49926" lon="2.65269">
        <ele>823.1</ele>
        <time>2026-05-22T12:43:39Z</time>
      </trkpt>
      <trkpt lat="43.49926" lon="2.65269">
        <ele>823.1</ele>
        <time>2026-05-22T12:43:44Z</time>
      </trkpt>
      <trkpt lat="43.49926" lon="2.65269">
        <ele>823.1</ele>
        <time>2026-05-22T12:43:49Z</time>
      </trkpt>
      <trkpt lat="43.49926" lon="2.65269">
        <ele>823.1</ele>
        <time>2026-05-22T12:43:54Z</time>
      </trkpt>
      <trkpt lat="43.49926" lon="2.65269">
        <ele>823.1</ele>
        <time>2026-05-22T12:43:59Z</time>
      </trkpt>
      <trkpt lat="43.49926" lon="2.65269">
        <ele>823.1</ele>
        <time>2026-05-22T12:44:04Z</time>
      </trkpt>
      <trkpt lat="43.49927" lon="2.65265">
        <ele>822.9</ele>
        <time>2026-05-22T12:44:09Z</time>
      </trkpt>
      <trkpt lat="43.49925" lon="2.6526">
        <ele>822.6</ele>
        <time>2026-05-22T12:44:14Z</time>
      </trkpt>
      <trkpt lat="43.49924" lon="2.65257">
        <ele>822.4</ele>
        <time>2026-05-22T12:44:19Z</time>
      </trkpt>
      <trkpt lat="43.49923" lon="2.6525">
        <ele>822.1</ele>
        <time>2026-05-22T12:44:24Z</time>
      </trkpt>
      <trkpt lat="43.49917" lon="2.65246">
        <ele>821.9</ele>
        <time>2026-05-22T12:44:29Z</time>
      </trkpt>
      <trkpt lat="43.49914" lon="2.6524">
        <ele>821.4</ele>
        <time>2026-05-22T12:44:34Z</time>
      </trkpt>
      <trkpt lat="43.49913" lon="2.65235">
        <ele>821.2</ele>
        <time>2026-05-22T12:44:39Z</time>
      </trkpt>
      <trkpt lat="43.49905" lon="2.65227">
        <ele>820.3</ele>
        <time>2026-05-22T12:44:44Z</time>
      </trkpt>
      <trkpt lat="43.49898" lon="2.65224">
        <ele>819.7</ele>
        <time>2026-05-22T12:44:49Z</time>
      </trkpt>
      <trkpt lat="43.49888" lon="2.65221">
        <ele>818.9</ele>
        <time>2026-05-22T12:44:54Z</time>
      </trkpt>
      <trkpt lat="43.49884" lon="2.65216">
        <ele>818.5</ele>
        <time>2026-05-22T12:44:59Z</time>
      </trkpt>
      <trkpt lat="43.49877" lon="2.65211">
        <ele>817.9</ele>
        <time>2026-05-22T12:45:04Z</time>
      </trkpt>
      <trkpt lat="43.49871" lon="2.6521">
        <ele>817.5</ele>
        <time>2026-05-22T12:45:09Z</time>
      </trkpt>
      <trkpt lat="43.49863" lon="2.6521">
        <ele>817</ele>
        <time>2026-05-22T12:45:14Z</time>
      </trkpt>
      <trkpt lat="43.49856" lon="2.65212">
        <ele>816.5</ele>
        <time>2026-05-22T12:45:19Z</time>
      </trkpt>
      <trkpt lat="43.49848" lon="2.65211">
        <ele>816</ele>
        <time>2026-05-22T12:45:24Z</time>
      </trkpt>
      <trkpt lat="43.49841" lon="2.65212">
        <ele>815.5</ele>
        <time>2026-05-22T12:45:29Z</time>
      </trkpt>
      <trkpt lat="43.49835" lon="2.65217">
        <ele>815.1</ele>
        <time>2026-05-22T12:45:34Z</time>
      </trkpt>
      <trkpt lat="43.49829" lon="2.65222">
        <ele>814.6</ele>
        <time>2026-05-22T12:45:39Z</time>
      </trkpt>
      <trkpt lat="43.49822" lon="2.65222">
        <ele>814</ele>
        <time>2026-05-22T12:45:44Z</time>
      </trkpt>
      <trkpt lat="43.49815" lon="2.65221">
        <ele>813.3</ele>
        <time>2026-05-22T12:45:49Z</time>
      </trkpt>
      <trkpt lat="43.49811" lon="2.65216">
        <ele>813</ele>
        <time>2026-05-22T12:45:54Z</time>
      </trkpt>
      <trkpt lat="43.49807" lon="2.65209">
        <ele>812.8</ele>
        <time>2026-05-22T12:45:59Z</time>
      </trkpt>
      <trkpt lat="43.49799" lon="2.65202">
        <ele>812.2</ele>
        <time>2026-05-22T12:46:04Z</time>
      </trkpt>
      <trkpt lat="43.49792" lon="2.65196">
        <ele>811.8</ele>
        <time>2026-05-22T12:46:09Z</time>
      </trkpt>
      <trkpt lat="43.49787" lon="2.65189">
        <ele>811.6</ele>
        <time>2026-05-22T12:46:14Z</time>
      </trkpt>
      <trkpt lat="43.49785" lon="2.65182">
        <ele>811.7</ele>
        <time>2026-05-22T12:46:19Z</time>
      </trkpt>
      <trkpt lat="43.49781" lon="2.65174">
        <ele>811.6</ele>
        <time>2026-05-22T12:46:24Z</time>
      </trkpt>
      <trkpt lat="43.49776" lon="2.65169">
        <ele>811.5</ele>
        <time>2026-05-22T12:46:29Z</time>
      </trkpt>
      <trkpt lat="43.4977" lon="2.65163">
        <ele>811.5</ele>
        <time>2026-05-22T12:46:34Z</time>
      </trkpt>
      <trkpt lat="43.49765" lon="2.65156">
        <ele>811.7</ele>
        <time>2026-05-22T12:46:39Z</time>
      </trkpt>
      <trkpt lat="43.49765" lon="2.65148">
        <ele>812.4</ele>
        <time>2026-05-22T12:46:44Z</time>
      </trkpt>
      <trkpt lat="43.49759" lon="2.65139">
        <ele>812.9</ele>
        <time>2026-05-22T12:46:49Z</time>
      </trkpt>
      <trkpt lat="43.49751" lon="2.65141">
        <ele>812.5</ele>
        <time>2026-05-22T12:46:54Z</time>
      </trkpt>
      <trkpt lat="43.49744" lon="2.65146">
        <ele>810.6</ele>
        <time>2026-05-22T12:46:59Z</time>
      </trkpt>
      <trkpt lat="43.49736" lon="2.6515">
        <ele>808.2</ele>
        <time>2026-05-22T12:47:04Z</time>
      </trkpt>
      <trkpt lat="43.49728" lon="2.65153">
        <ele>805.9</ele>
        <time>2026-05-22T12:47:09Z</time>
      </trkpt>
      <trkpt lat="43.49718" lon="2.65159">
        <ele>802.6</ele>
        <time>2026-05-22T12:47:14Z</time>
      </trkpt>
      <trkpt lat="43.49715" lon="2.65166">
        <ele>800.9</ele>
        <time>2026-05-22T12:47:19Z</time>
      </trkpt>
      <trkpt lat="43.49714" lon="2.65173">
        <ele>800.2</ele>
        <time>2026-05-22T12:47:24Z</time>
      </trkpt>
      <trkpt lat="43.49712" lon="2.65182">
        <ele>799.1</ele>
        <time>2026-05-22T12:47:29Z</time>
      </trkpt>
      <trkpt lat="43.4971" lon="2.65192">
        <ele>798.1</ele>
        <time>2026-05-22T12:47:34Z</time>
      </trkpt>
      <trkpt lat="43.49706" lon="2.65202">
        <ele>796.5</ele>
        <time>2026-05-22T12:47:39Z</time>
      </trkpt>
      <trkpt lat="43.49703" lon="2.65208">
        <ele>795.3</ele>
        <time>2026-05-22T12:47:44Z</time>
      </trkpt>
      <trkpt lat="43.49703" lon="2.6521">
        <ele>795.2</ele>
        <time>2026-05-22T12:47:49Z</time>
      </trkpt>
      <trkpt lat="43.49712" lon="2.65194">
        <ele>798.5</ele>
        <time>2026-05-22T12:47:54Z</time>
      </trkpt>
      <trkpt lat="43.4972" lon="2.65185">
        <ele>801.1</ele>
        <time>2026-05-22T12:47:59Z</time>
      </trkpt>
      <trkpt lat="43.49719" lon="2.65175">
        <ele>801.4</ele>
        <time>2026-05-22T12:48:04Z</time>
      </trkpt>
      <trkpt lat="43.49719" lon="2.65169">
        <ele>801.7</ele>
        <time>2026-05-22T12:48:09Z</time>
      </trkpt>
      <trkpt lat="43.49719" lon="2.65169">
        <ele>801.7</ele>
        <time>2026-05-22T12:48:14Z</time>
      </trkpt>
      <trkpt lat="43.49719" lon="2.65169">
        <ele>801.7</ele>
        <time>2026-05-22T12:48:19Z</time>
      </trkpt>
      <trkpt lat="43.49719" lon="2.65169">
        <ele>801.7</ele>
        <time>2026-05-22T12:48:24Z</time>
      </trkpt>
      <trkpt lat="43.49712" lon="2.65156">
        <ele>801.5</ele>
        <time>2026-05-22T12:48:29Z</time>
      </trkpt>
      <trkpt lat="43.49712" lon="2.65156">
        <ele>801.5</ele>
        <time>2026-05-22T12:48:34Z</time>
      </trkpt>
      <trkpt lat="43.49712" lon="2.65156">
        <ele>801.5</ele>
        <time>2026-05-22T12:48:39Z</time>
      </trkpt>
      <trkpt lat="43.49719" lon="2.65153">
        <ele>803.7</ele>
        <time>2026-05-22T12:48:44Z</time>
      </trkpt>
      <trkpt lat="43.49729" lon="2.65153">
        <ele>806.1</ele>
        <time>2026-05-22T12:48:49Z</time>
      </trkpt>
      <trkpt lat="43.4974" lon="2.65152">
        <ele>809</ele>
        <time>2026-05-22T12:48:54Z</time>
      </trkpt>
      <trkpt lat="43.49747" lon="2.65154">
        <ele>810.5</ele>
        <time>2026-05-22T12:48:59Z</time>
      </trkpt>
      <trkpt lat="43.49752" lon="2.65157">
        <ele>811</ele>
        <time>2026-05-22T12:49:04Z</time>
      </trkpt>
      <trkpt lat="43.49758" lon="2.65155">
        <ele>811.5</ele>
        <time>2026-05-22T12:49:09Z</time>
      </trkpt>
      <trkpt lat="43.49766" lon="2.65156">
        <ele>811.8</ele>
        <time>2026-05-22T12:49:14Z</time>
      </trkpt>
      <trkpt lat="43.49774" lon="2.65154">
        <ele>812.3</ele>
        <time>2026-05-22T12:49:19Z</time>
      </trkpt>
      <trkpt lat="43.49782" lon="2.65148">
        <ele>813</ele>
        <time>2026-05-22T12:49:24Z</time>
      </trkpt>
      <trkpt lat="43.49788" lon="2.65147">
        <ele>813.3</ele>
        <time>2026-05-22T12:49:29Z</time>
      </trkpt>
      <trkpt lat="43.49796" lon="2.65146">
        <ele>813.6</ele>
        <time>2026-05-22T12:49:34Z</time>
      </trkpt>
      <trkpt lat="43.49804" lon="2.65146">
        <ele>813.9</ele>
        <time>2026-05-22T12:49:39Z</time>
      </trkpt>
      <trkpt lat="43.49813" lon="2.65142">
        <ele>814.4</ele>
        <time>2026-05-22T12:49:44Z</time>
      </trkpt>
      <trkpt lat="43.49818" lon="2.65137">
        <ele>814.6</ele>
        <time>2026-05-22T12:49:49Z</time>
      </trkpt>
      <trkpt lat="43.49825" lon="2.65132">
        <ele>814.8</ele>
        <time>2026-05-22T12:49:54Z</time>
      </trkpt>
      <trkpt lat="43.4983" lon="2.6513">
        <ele>814.9</ele>
        <time>2026-05-22T12:49:59Z</time>
      </trkpt>
      <trkpt lat="43.49837" lon="2.6513">
        <ele>815</ele>
        <time>2026-05-22T12:50:04Z</time>
      </trkpt>
      <trkpt lat="43.49843" lon="2.65128">
        <ele>815</ele>
        <time>2026-05-22T12:50:09Z</time>
      </trkpt>
      <trkpt lat="43.4985" lon="2.65123">
        <ele>815</ele>
        <time>2026-05-22T12:50:14Z</time>
      </trkpt>
      <trkpt lat="43.4986" lon="2.65118">
        <ele>814.8</ele>
        <time>2026-05-22T12:50:19Z</time>
      </trkpt>
      <trkpt lat="43.4987" lon="2.6511">
        <ele>814.4</ele>
        <time>2026-05-22T12:50:24Z</time>
      </trkpt>
      <trkpt lat="43.49876" lon="2.651">
        <ele>813.8</ele>
        <time>2026-05-22T12:50:29Z</time>
      </trkpt>
      <trkpt lat="43.49883" lon="2.65095">
        <ele>813.3</ele>
        <time>2026-05-22T12:50:34Z</time>
      </trkpt>
      <trkpt lat="43.4989" lon="2.65091">
        <ele>812.8</ele>
        <time>2026-05-22T12:50:39Z</time>
      </trkpt>
      <trkpt lat="43.49895" lon="2.65084">
        <ele>812.1</ele>
        <time>2026-05-22T12:50:44Z</time>
      </trkpt>
      <trkpt lat="43.49898" lon="2.65076">
        <ele>811.7</ele>
        <time>2026-05-22T12:50:49Z</time>
      </trkpt>
      <trkpt lat="43.49901" lon="2.65068">
        <ele>811.2</ele>
        <time>2026-05-22T12:50:54Z</time>
      </trkpt>
      <trkpt lat="43.49903" lon="2.65058">
        <ele>810.7</ele>
        <time>2026-05-22T12:50:59Z</time>
      </trkpt>
      <trkpt lat="43.49905" lon="2.65049">
        <ele>810.3</ele>
        <time>2026-05-22T12:51:04Z</time>
      </trkpt>
      <trkpt lat="43.49909" lon="2.65042">
        <ele>809.7</ele>
        <time>2026-05-22T12:51:09Z</time>
      </trkpt>
      <trkpt lat="43.49911" lon="2.65031">
        <ele>809</ele>
        <time>2026-05-22T12:51:14Z</time>
      </trkpt>
      <trkpt lat="43.49915" lon="2.65022">
        <ele>808.2</ele>
        <time>2026-05-22T12:51:19Z</time>
      </trkpt>
      <trkpt lat="43.49917" lon="2.65016">
        <ele>807.8</ele>
        <time>2026-05-22T12:51:24Z</time>
      </trkpt>
      <trkpt lat="43.4992" lon="2.6501">
        <ele>807.6</ele>
        <time>2026-05-22T12:51:29Z</time>
      </trkpt>
      <trkpt lat="43.49923" lon="2.65003">
        <ele>807.3</ele>
        <time>2026-05-22T12:51:34Z</time>
      </trkpt>
      <trkpt lat="43.49926" lon="2.64997">
        <ele>807.1</ele>
        <time>2026-05-22T12:51:39Z</time>
      </trkpt>
      <trkpt lat="43.49928" lon="2.64992">
        <ele>806.8</ele>
        <time>2026-05-22T12:51:44Z</time>
      </trkpt>
      <trkpt lat="43.49929" lon="2.64986">
        <ele>806.6</ele>
        <time>2026-05-22T12:51:49Z</time>
      </trkpt>
      <trkpt lat="43.49931" lon="2.64975">
        <ele>806.1</ele>
        <time>2026-05-22T12:51:54Z</time>
      </trkpt>
      <trkpt lat="43.49933" lon="2.64968">
        <ele>805.8</ele>
        <time>2026-05-22T12:51:59Z</time>
      </trkpt>
      <trkpt lat="43.49936" lon="2.64962">
        <ele>805.6</ele>
        <time>2026-05-22T12:52:04Z</time>
      </trkpt>
      <trkpt lat="43.49937" lon="2.64954">
        <ele>805.3</ele>
        <time>2026-05-22T12:52:09Z</time>
      </trkpt>
      <trkpt lat="43.49937" lon="2.64946">
        <ele>804.9</ele>
        <time>2026-05-22T12:52:14Z</time>
      </trkpt>
      <trkpt lat="43.49938" lon="2.64934">
        <ele>804.4</ele>
        <time>2026-05-22T12:52:19Z</time>
      </trkpt>
      <trkpt lat="43.49939" lon="2.64925">
        <ele>804</ele>
        <time>2026-05-22T12:52:24Z</time>
      </trkpt>
      <trkpt lat="43.49939" lon="2.64916">
        <ele>803.5</ele>
        <time>2026-05-22T12:52:29Z</time>
      </trkpt>
      <trkpt lat="43.49937" lon="2.64904">
        <ele>802.3</ele>
        <time>2026-05-22T12:52:34Z</time>
      </trkpt>
      <trkpt lat="43.49937" lon="2.64893">
        <ele>801.3</ele>
        <time>2026-05-22T12:52:39Z</time>
      </trkpt>
      <trkpt lat="43.49939" lon="2.6488">
        <ele>800.3</ele>
        <time>2026-05-22T12:52:44Z</time>
      </trkpt>
      <trkpt lat="43.49941" lon="2.6487">
        <ele>799.6</ele>
        <time>2026-05-22T12:52:49Z</time>
      </trkpt>
      <trkpt lat="43.49941" lon="2.6486">
        <ele>798.7</ele>
        <time>2026-05-22T12:52:54Z</time>
      </trkpt>
      <trkpt lat="43.4994" lon="2.64852">
        <ele>797.9</ele>
        <time>2026-05-22T12:52:59Z</time>
      </trkpt>
      <trkpt lat="43.4994" lon="2.64843">
        <ele>797.1</ele>
        <time>2026-05-22T12:53:04Z</time>
      </trkpt>
      <trkpt lat="43.49942" lon="2.64834">
        <ele>796.5</ele>
        <time>2026-05-22T12:53:09Z</time>
      </trkpt>
      <trkpt lat="43.49943" lon="2.64824">
        <ele>795.4</ele>
        <time>2026-05-22T12:53:14Z</time>
      </trkpt>
      <trkpt lat="43.49945" lon="2.64814">
        <ele>794.5</ele>
        <time>2026-05-22T12:53:19Z</time>
      </trkpt>
      <trkpt lat="43.49942" lon="2.64807">
        <ele>793.4</ele>
        <time>2026-05-22T12:53:24Z</time>
      </trkpt>
      <trkpt lat="43.4994" lon="2.64799">
        <ele>792.2</ele>
        <time>2026-05-22T12:53:29Z</time>
      </trkpt>
      <trkpt lat="43.49941" lon="2.64791">
        <ele>791.4</ele>
        <time>2026-05-22T12:53:34Z</time>
      </trkpt>
      <trkpt lat="43.49941" lon="2.6478">
        <ele>790.1</ele>
        <time>2026-05-22T12:53:39Z</time>
      </trkpt>
      <trkpt lat="43.49939" lon="2.64772">
        <ele>789</ele>
        <time>2026-05-22T12:53:44Z</time>
      </trkpt>
      <trkpt lat="43.49939" lon="2.64764">
        <ele>788</ele>
        <time>2026-05-22T12:53:49Z</time>
      </trkpt>
      <trkpt lat="43.49939" lon="2.64753">
        <ele>786.8</ele>
        <time>2026-05-22T12:53:54Z</time>
      </trkpt>
      <trkpt lat="43.49938" lon="2.64742">
        <ele>785.7</ele>
        <time>2026-05-22T12:53:59Z</time>
      </trkpt>
      <trkpt lat="43.49937" lon="2.6473">
        <ele>784.7</ele>
        <time>2026-05-22T12:54:04Z</time>
      </trkpt>
      <trkpt lat="43.49936" lon="2.64717">
        <ele>783.6</ele>
        <time>2026-05-22T12:54:09Z</time>
      </trkpt>
      <trkpt lat="43.49935" lon="2.64704">
        <ele>782.4</ele>
        <time>2026-05-22T12:54:14Z</time>
      </trkpt>
      <trkpt lat="43.49936" lon="2.64693">
        <ele>781.7</ele>
        <time>2026-05-22T12:54:19Z</time>
      </trkpt>
      <trkpt lat="43.49937" lon="2.64684">
        <ele>781.2</ele>
        <time>2026-05-22T12:54:24Z</time>
      </trkpt>
      <trkpt lat="43.4994" lon="2.64675">
        <ele>781.1</ele>
        <time>2026-05-22T12:54:29Z</time>
      </trkpt>
      <trkpt lat="43.49944" lon="2.64662">
        <ele>780.9</ele>
        <time>2026-05-22T12:54:34Z</time>
      </trkpt>
      <trkpt lat="43.49947" lon="2.64649">
        <ele>780.5</ele>
        <time>2026-05-22T12:54:39Z</time>
      </trkpt>
      <trkpt lat="43.49948" lon="2.64636">
        <ele>779.8</ele>
        <time>2026-05-22T12:54:44Z</time>
      </trkpt>
      <trkpt lat="43.49948" lon="2.64624">
        <ele>778.9</ele>
        <time>2026-05-22T12:54:49Z</time>
      </trkpt>
      <trkpt lat="43.49948" lon="2.64615">
        <ele>778.2</ele>
        <time>2026-05-22T12:54:54Z</time>
      </trkpt>
      <trkpt lat="43.49949" lon="2.64604">
        <ele>777.7</ele>
        <time>2026-05-22T12:54:59Z</time>
      </trkpt>
      <trkpt lat="43.49952" lon="2.64595">
        <ele>777.7</ele>
        <time>2026-05-22T12:55:04Z</time>
      </trkpt>
      <trkpt lat="43.49956" lon="2.64583">
        <ele>777.9</ele>
        <time>2026-05-22T12:55:09Z</time>
      </trkpt>
      <trkpt lat="43.49959" lon="2.64575">
        <ele>777.8</ele>
        <time>2026-05-22T12:55:14Z</time>
      </trkpt>
      <trkpt lat="43.49961" lon="2.64565">
        <ele>777.2</ele>
        <time>2026-05-22T12:55:19Z</time>
      </trkpt>
      <trkpt lat="43.49965" lon="2.64555">
        <ele>777.1</ele>
        <time>2026-05-22T12:55:24Z</time>
      </trkpt>
      <trkpt lat="43.49967" lon="2.64547">
        <ele>776.7</ele>
        <time>2026-05-22T12:55:29Z</time>
      </trkpt>
      <trkpt lat="43.49971" lon="2.64539">
        <ele>776.7</ele>
        <time>2026-05-22T12:55:34Z</time>
      </trkpt>
      <trkpt lat="43.49977" lon="2.64531">
        <ele>777.3</ele>
        <time>2026-05-22T12:55:39Z</time>
      </trkpt>
      <trkpt lat="43.49982" lon="2.64525">
        <ele>777.8</ele>
        <time>2026-05-22T12:55:44Z</time>
      </trkpt>
      <trkpt lat="43.49988" lon="2.64517">
        <ele>778.2</ele>
        <time>2026-05-22T12:55:49Z</time>
      </trkpt>
      <trkpt lat="43.49993" lon="2.6451">
        <ele>778.6</ele>
        <time>2026-05-22T12:55:54Z</time>
      </trkpt>
      <trkpt lat="43.49998" lon="2.64503">
        <ele>778.9</ele>
        <time>2026-05-22T12:55:59Z</time>
      </trkpt>
      <trkpt lat="43.50001" lon="2.64495">
        <ele>778.7</ele>
        <time>2026-05-22T12:56:04Z</time>
      </trkpt>
      <trkpt lat="43.50005" lon="2.64487">
        <ele>778.9</ele>
        <time>2026-05-22T12:56:09Z</time>
      </trkpt>
      <trkpt lat="43.50008" lon="2.64483">
        <ele>779.3</ele>
        <time>2026-05-22T12:56:14Z</time>
      </trkpt>
      <trkpt lat="43.50014" lon="2.64478">
        <ele>780.4</ele>
        <time>2026-05-22T12:56:19Z</time>
      </trkpt>
      <trkpt lat="43.5002" lon="2.64471">
        <ele>781.3</ele>
        <time>2026-05-22T12:56:24Z</time>
      </trkpt>
      <trkpt lat="43.50025" lon="2.64466">
        <ele>782.1</ele>
        <time>2026-05-22T12:56:29Z</time>
      </trkpt>
      <trkpt lat="43.50032" lon="2.64461">
        <ele>783.4</ele>
        <time>2026-05-22T12:56:34Z</time>
      </trkpt>
      <trkpt lat="43.50038" lon="2.64452">
        <ele>783.9</ele>
        <time>2026-05-22T12:56:39Z</time>
      </trkpt>
      <trkpt lat="43.50045" lon="2.64444">
        <ele>784.7</ele>
        <time>2026-05-22T12:56:44Z</time>
      </trkpt>
      <trkpt lat="43.5005" lon="2.64437">
        <ele>785.1</ele>
        <time>2026-05-22T12:56:49Z</time>
      </trkpt>
      <trkpt lat="43.50054" lon="2.64434">
        <ele>785.7</ele>
        <time>2026-05-22T12:56:54Z</time>
      </trkpt>
      <trkpt lat="43.5006" lon="2.64428">
        <ele>786.5</ele>
        <time>2026-05-22T12:56:59Z</time>
      </trkpt>
      <trkpt lat="43.50065" lon="2.64423">
        <ele>787.1</ele>
        <time>2026-05-22T12:57:04Z</time>
      </trkpt>
      <trkpt lat="43.50072" lon="2.64418">
        <ele>788.2</ele>
        <time>2026-05-22T12:57:09Z</time>
      </trkpt>
      <trkpt lat="43.50079" lon="2.64411">
        <ele>790.1</ele>
        <time>2026-05-22T12:57:14Z</time>
      </trkpt>
      <trkpt lat="43.50084" lon="2.64408">
        <ele>791.4</ele>
        <time>2026-05-22T12:57:19Z</time>
      </trkpt>
      <trkpt lat="43.50092" lon="2.64401">
        <ele>793</ele>
        <time>2026-05-22T12:57:24Z</time>
      </trkpt>
      <trkpt lat="43.50095" lon="2.64397">
        <ele>793.6</ele>
        <time>2026-05-22T12:57:29Z</time>
      </trkpt>
      <trkpt lat="43.50095" lon="2.64385">
        <ele>793.9</ele>
        <time>2026-05-22T12:57:34Z</time>
      </trkpt>
      <trkpt lat="43.50094" lon="2.64376">
        <ele>794.1</ele>
        <time>2026-05-22T12:57:39Z</time>
      </trkpt>
      <trkpt lat="43.50091" lon="2.64361">
        <ele>794.1</ele>
        <time>2026-05-22T12:57:44Z</time>
      </trkpt>
      <trkpt lat="43.50084" lon="2.64354">
        <ele>793.3</ele>
        <time>2026-05-22T12:57:49Z</time>
      </trkpt>
      <trkpt lat="43.50075" lon="2.64347">
        <ele>792.4</ele>
        <time>2026-05-22T12:57:54Z</time>
      </trkpt>
      <trkpt lat="43.50068" lon="2.64341">
        <ele>791.8</ele>
        <time>2026-05-22T12:57:59Z</time>
      </trkpt>
      <trkpt lat="43.50062" lon="2.64337">
        <ele>791.4</ele>
        <time>2026-05-22T12:58:04Z</time>
      </trkpt>
      <trkpt lat="43.50056" lon="2.6433">
        <ele>792.3</ele>
        <time>2026-05-22T12:58:09Z</time>
      </trkpt>
      <trkpt lat="43.50049" lon="2.64326">
        <ele>792.9</ele>
        <time>2026-05-22T12:58:14Z</time>
      </trkpt>
      <trkpt lat="43.5004" lon="2.64324">
        <ele>792.7</ele>
        <time>2026-05-22T12:58:19Z</time>
      </trkpt>
      <trkpt lat="43.50033" lon="2.64319">
        <ele>793.7</ele>
        <time>2026-05-22T12:58:24Z</time>
      </trkpt>
      <trkpt lat="43.50026" lon="2.64316">
        <ele>794</ele>
        <time>2026-05-22T12:58:29Z</time>
      </trkpt>
      <trkpt lat="43.50017" lon="2.64316">
        <ele>793</ele>
        <time>2026-05-22T12:58:34Z</time>
      </trkpt>
      <trkpt lat="43.50008" lon="2.64316">
        <ele>791.9</ele>
        <time>2026-05-22T12:58:39Z</time>
      </trkpt>
      <trkpt lat="43.5" lon="2.64318">
        <ele>790.3</ele>
        <time>2026-05-22T12:58:44Z</time>
      </trkpt>
      <trkpt lat="43.49993" lon="2.64318">
        <ele>789.4</ele>
        <time>2026-05-22T12:58:49Z</time>
      </trkpt>
      <trkpt lat="43.49985" lon="2.6432">
        <ele>787.5</ele>
        <time>2026-05-22T12:58:54Z</time>
      </trkpt>
      <trkpt lat="43.49977" lon="2.64316">
        <ele>787.8</ele>
        <time>2026-05-22T12:58:59Z</time>
      </trkpt>
      <trkpt lat="43.49969" lon="2.64316">
        <ele>786.6</ele>
        <time>2026-05-22T12:59:04Z</time>
      </trkpt>
      <trkpt lat="43.49963" lon="2.64315">
        <ele>786.1</ele>
        <time>2026-05-22T12:59:09Z</time>
      </trkpt>
      <trkpt lat="43.49957" lon="2.64312">
        <ele>786.2</ele>
        <time>2026-05-22T12:59:14Z</time>
      </trkpt>
      <trkpt lat="43.49948" lon="2.6431">
        <ele>785.6</ele>
        <time>2026-05-22T12:59:19Z</time>
      </trkpt>
      <trkpt lat="43.4994" lon="2.64312">
        <ele>783.8</ele>
        <time>2026-05-22T12:59:24Z</time>
      </trkpt>
      <trkpt lat="43.49933" lon="2.64314">
        <ele>782.1</ele>
        <time>2026-05-22T12:59:29Z</time>
      </trkpt>
      <trkpt lat="43.49924" lon="2.64315">
        <ele>780.5</ele>
        <time>2026-05-22T12:59:34Z</time>
      </trkpt>
      <trkpt lat="43.49916" lon="2.64316">
        <ele>779.1</ele>
        <time>2026-05-22T12:59:39Z</time>
      </trkpt>
      <trkpt lat="43.49909" lon="2.64316">
        <ele>777.9</ele>
        <time>2026-05-22T12:59:44Z</time>
      </trkpt>
      <trkpt lat="43.49902" lon="2.64319">
        <ele>775.7</ele>
        <time>2026-05-22T12:59:49Z</time>
      </trkpt>
      <trkpt lat="43.49894" lon="2.64318">
        <ele>774.6</ele>
        <time>2026-05-22T12:59:54Z</time>
      </trkpt>
      <trkpt lat="43.49886" lon="2.64315">
        <ele>774.3</ele>
        <time>2026-05-22T12:59:59Z</time>
      </trkpt>
      <trkpt lat="43.49879" lon="2.64315">
        <ele>773.1</ele>
        <time>2026-05-22T13:00:04Z</time>
      </trkpt>
      <trkpt lat="43.49878" lon="2.64316">
        <ele>772.5</ele>
        <time>2026-05-22T13:00:09Z</time>
      </trkpt>
      <trkpt lat="43.49878" lon="2.64317">
        <ele>772.2</ele>
        <time>2026-05-22T13:00:14Z</time>
      </trkpt>
      <trkpt lat="43.49877" lon="2.64319">
        <ele>771.3</ele>
        <time>2026-05-22T13:00:19Z</time>
      </trkpt>
      <trkpt lat="43.49874" lon="2.64325">
        <ele>768.7</ele>
        <time>2026-05-22T13:00:24Z</time>
      </trkpt>
      <trkpt lat="43.49868" lon="2.64327">
        <ele>766.9</ele>
        <time>2026-05-22T13:00:29Z</time>
      </trkpt>
      <trkpt lat="43.49861" lon="2.64326">
        <ele>766</ele>
        <time>2026-05-22T13:00:34Z</time>
      </trkpt>
      <trkpt lat="43.49853" lon="2.64328">
        <ele>763.8</ele>
        <time>2026-05-22T13:00:39Z</time>
      </trkpt>
      <trkpt lat="43.49845" lon="2.64324">
        <ele>763.8</ele>
        <time>2026-05-22T13:00:44Z</time>
      </trkpt>
      <trkpt lat="43.49836" lon="2.64324">
        <ele>762.2</ele>
        <time>2026-05-22T13:00:49Z</time>
      </trkpt>
      <trkpt lat="43.49826" lon="2.64322">
        <ele>761.7</ele>
        <time>2026-05-22T13:00:54Z</time>
      </trkpt>
      <trkpt lat="43.49817" lon="2.6432">
        <ele>761.4</ele>
        <time>2026-05-22T13:00:59Z</time>
      </trkpt>
      <trkpt lat="43.4981" lon="2.64319">
        <ele>761</ele>
        <time>2026-05-22T13:01:04Z</time>
      </trkpt>
      <trkpt lat="43.49801" lon="2.64318">
        <ele>760.4</ele>
        <time>2026-05-22T13:01:09Z</time>
      </trkpt>
      <trkpt lat="43.49793" lon="2.64315">
        <ele>760.6</ele>
        <time>2026-05-22T13:01:14Z</time>
      </trkpt>
      <trkpt lat="43.49786" lon="2.64316">
        <ele>759.4</ele>
        <time>2026-05-22T13:01:19Z</time>
      </trkpt>
      <trkpt lat="43.49778" lon="2.64312">
        <ele>760</ele>
        <time>2026-05-22T13:01:24Z</time>
      </trkpt>
      <trkpt lat="43.49771" lon="2.6431">
        <ele>759.9</ele>
        <time>2026-05-22T13:01:29Z</time>
      </trkpt>
      <trkpt lat="43.49764" lon="2.64307">
        <ele>760.2</ele>
        <time>2026-05-22T13:01:34Z</time>
      </trkpt>
      <trkpt lat="43.49756" lon="2.64304">
        <ele>760.3</ele>
        <time>2026-05-22T13:01:39Z</time>
      </trkpt>
      <trkpt lat="43.4975" lon="2.643">
        <ele>761</ele>
        <time>2026-05-22T13:01:44Z</time>
      </trkpt>
      <trkpt lat="43.49741" lon="2.64301">
        <ele>759.1</ele>
        <time>2026-05-22T13:01:49Z</time>
      </trkpt>
      <trkpt lat="43.49732" lon="2.64302">
        <ele>757.2</ele>
        <time>2026-05-22T13:01:54Z</time>
      </trkpt>
      <trkpt lat="43.49725" lon="2.64298">
        <ele>757.4</ele>
        <time>2026-05-22T13:01:59Z</time>
      </trkpt>
      <trkpt lat="43.49716" lon="2.64299">
        <ele>755.5</ele>
        <time>2026-05-22T13:02:04Z</time>
      </trkpt>
      <trkpt lat="43.49708" lon="2.64299">
        <ele>754.1</ele>
        <time>2026-05-22T13:02:09Z</time>
      </trkpt>
      <trkpt lat="43.497" lon="2.64297">
        <ele>753.3</ele>
        <time>2026-05-22T13:02:14Z</time>
      </trkpt>
      <trkpt lat="43.49693" lon="2.64296">
        <ele>752.4</ele>
        <time>2026-05-22T13:02:19Z</time>
      </trkpt>
      <trkpt lat="43.49686" lon="2.64296">
        <ele>751.2</ele>
        <time>2026-05-22T13:02:24Z</time>
      </trkpt>
      <trkpt lat="43.4968" lon="2.64296">
        <ele>750.1</ele>
        <time>2026-05-22T13:02:29Z</time>
      </trkpt>
      <trkpt lat="43.49674" lon="2.64295">
        <ele>749.3</ele>
        <time>2026-05-22T13:02:34Z</time>
      </trkpt>
      <trkpt lat="43.4967" lon="2.643">
        <ele>747.2</ele>
        <time>2026-05-22T13:02:39Z</time>
      </trkpt>
      <trkpt lat="43.49668" lon="2.64301">
        <ele>746.5</ele>
        <time>2026-05-22T13:02:44Z</time>
      </trkpt>
      <trkpt lat="43.49664" lon="2.64297">
        <ele>747.1</ele>
        <time>2026-05-22T13:02:49Z</time>
      </trkpt>
      <trkpt lat="43.49658" lon="2.64295">
        <ele>746.8</ele>
        <time>2026-05-22T13:02:54Z</time>
      </trkpt>
      <trkpt lat="43.49651" lon="2.64297">
        <ele>745.3</ele>
        <time>2026-05-22T13:02:59Z</time>
      </trkpt>
      <trkpt lat="43.49644" lon="2.64297">
        <ele>744.4</ele>
        <time>2026-05-22T13:03:04Z</time>
      </trkpt>
      <trkpt lat="43.49637" lon="2.64292">
        <ele>744.8</ele>
        <time>2026-05-22T13:03:09Z</time>
      </trkpt>
      <trkpt lat="43.49635" lon="2.64288">
        <ele>745.7</ele>
        <time>2026-05-22T13:03:14Z</time>
      </trkpt>
      <trkpt lat="43.49629" lon="2.64281">
        <ele>746.8</ele>
        <time>2026-05-22T13:03:19Z</time>
      </trkpt>
      <trkpt lat="43.49624" lon="2.64276">
        <ele>747.5</ele>
        <time>2026-05-22T13:03:24Z</time>
      </trkpt>
      <trkpt lat="43.49618" lon="2.64271">
        <ele>748.1</ele>
        <time>2026-05-22T13:03:29Z</time>
      </trkpt>
      <trkpt lat="43.49612" lon="2.64265">
        <ele>748.9</ele>
        <time>2026-05-22T13:03:34Z</time>
      </trkpt>
      <trkpt lat="43.49607" lon="2.64261">
        <ele>749.3</ele>
        <time>2026-05-22T13:03:39Z</time>
      </trkpt>
      <trkpt lat="43.49598" lon="2.64262">
        <ele>747.8</ele>
        <time>2026-05-22T13:03:44Z</time>
      </trkpt>
      <trkpt lat="43.49589" lon="2.64259">
        <ele>747.3</ele>
        <time>2026-05-22T13:03:49Z</time>
      </trkpt>
      <trkpt lat="43.4958" lon="2.64258">
        <ele>746.5</ele>
        <time>2026-05-22T13:03:54Z</time>
      </trkpt>
      <trkpt lat="43.49571" lon="2.64256">
        <ele>746.1</ele>
        <time>2026-05-22T13:03:59Z</time>
      </trkpt>
      <trkpt lat="43.49563" lon="2.64255">
        <ele>745.7</ele>
        <time>2026-05-22T13:04:04Z</time>
      </trkpt>
      <trkpt lat="43.49556" lon="2.64261">
        <ele>743.3</ele>
        <time>2026-05-22T13:04:09Z</time>
      </trkpt>
      <trkpt lat="43.49549" lon="2.64263">
        <ele>742.1</ele>
        <time>2026-05-22T13:04:14Z</time>
      </trkpt>
      <trkpt lat="43.49541" lon="2.64264">
        <ele>741</ele>
        <time>2026-05-22T13:04:19Z</time>
      </trkpt>
      <trkpt lat="43.49534" lon="2.64261">
        <ele>741.1</ele>
        <time>2026-05-22T13:04:24Z</time>
      </trkpt>
      <trkpt lat="43.49528" lon="2.64261">
        <ele>740.6</ele>
        <time>2026-05-22T13:04:29Z</time>
      </trkpt>
      <trkpt lat="43.49522" lon="2.64262">
        <ele>739.7</ele>
        <time>2026-05-22T13:04:34Z</time>
      </trkpt>
      <trkpt lat="43.49511" lon="2.6426">
        <ele>739.2</ele>
        <time>2026-05-22T13:04:39Z</time>
      </trkpt>
      <trkpt lat="43.49504" lon="2.64257">
        <ele>739.4</ele>
        <time>2026-05-22T13:04:44Z</time>
      </trkpt>
      <trkpt lat="43.49495" lon="2.64252">
        <ele>739.9</ele>
        <time>2026-05-22T13:04:49Z</time>
      </trkpt>
      <trkpt lat="43.49487" lon="2.64249">
        <ele>740.2</ele>
        <time>2026-05-22T13:04:54Z</time>
      </trkpt>
      <trkpt lat="43.49479" lon="2.64249">
        <ele>739.4</ele>
        <time>2026-05-22T13:04:59Z</time>
      </trkpt>
      <trkpt lat="43.49472" lon="2.64246">
        <ele>739.9</ele>
        <time>2026-05-22T13:05:04Z</time>
      </trkpt>
      <trkpt lat="43.49462" lon="2.64245">
        <ele>739.4</ele>
        <time>2026-05-22T13:05:09Z</time>
      </trkpt>
      <trkpt lat="43.49454" lon="2.64242">
        <ele>739.9</ele>
        <time>2026-05-22T13:05:14Z</time>
      </trkpt>
      <trkpt lat="43.49444" lon="2.64242">
        <ele>738.9</ele>
        <time>2026-05-22T13:05:19Z</time>
      </trkpt>
      <trkpt lat="43.49437" lon="2.64245">
        <ele>737</ele>
        <time>2026-05-22T13:05:24Z</time>
      </trkpt>
      <trkpt lat="43.49428" lon="2.64246">
        <ele>735.8</ele>
        <time>2026-05-22T13:05:29Z</time>
      </trkpt>
      <trkpt lat="43.4942" lon="2.64246">
        <ele>735</ele>
        <time>2026-05-22T13:05:34Z</time>
      </trkpt>
      <trkpt lat="43.49414" lon="2.64242">
        <ele>736.1</ele>
        <time>2026-05-22T13:05:39Z</time>
      </trkpt>
      <trkpt lat="43.49407" lon="2.64243">
        <ele>735</ele>
        <time>2026-05-22T13:05:44Z</time>
      </trkpt>
      <trkpt lat="43.49401" lon="2.64246">
        <ele>733.2</ele>
        <time>2026-05-22T13:05:49Z</time>
      </trkpt>
      <trkpt lat="43.49393" lon="2.64246">
        <ele>732.4</ele>
        <time>2026-05-22T13:05:54Z</time>
      </trkpt>
      <trkpt lat="43.49386" lon="2.64245">
        <ele>732.2</ele>
        <time>2026-05-22T13:05:59Z</time>
      </trkpt>
      <trkpt lat="43.49378" lon="2.64244">
        <ele>731.8</ele>
        <time>2026-05-22T13:06:04Z</time>
      </trkpt>
      <trkpt lat="43.49371" lon="2.64241">
        <ele>732.4</ele>
        <time>2026-05-22T13:06:09Z</time>
      </trkpt>
      <trkpt lat="43.49364" lon="2.64241">
        <ele>731.7</ele>
        <time>2026-05-22T13:06:14Z</time>
      </trkpt>
      <trkpt lat="43.49358" lon="2.64241">
        <ele>731.1</ele>
        <time>2026-05-22T13:06:19Z</time>
      </trkpt>
      <trkpt lat="43.49347" lon="2.6424">
        <ele>730.5</ele>
        <time>2026-05-22T13:06:24Z</time>
      </trkpt>
      <trkpt lat="43.49337" lon="2.6424">
        <ele>729.6</ele>
        <time>2026-05-22T13:06:29Z</time>
      </trkpt>
      <trkpt lat="43.49331" lon="2.64244">
        <ele>727.3</ele>
        <time>2026-05-22T13:06:34Z</time>
      </trkpt>
      <trkpt lat="43.49323" lon="2.64249">
        <ele>724.5</ele>
        <time>2026-05-22T13:06:39Z</time>
      </trkpt>
      <trkpt lat="43.49316" lon="2.64249">
        <ele>723.9</ele>
        <time>2026-05-22T13:06:44Z</time>
      </trkpt>
      <trkpt lat="43.49308" lon="2.64248">
        <ele>723.7</ele>
        <time>2026-05-22T13:06:49Z</time>
      </trkpt>
      <trkpt lat="43.49301" lon="2.64246">
        <ele>723.8</ele>
        <time>2026-05-22T13:06:54Z</time>
      </trkpt>
      <trkpt lat="43.49297" lon="2.64246">
        <ele>723.5</ele>
        <time>2026-05-22T13:06:59Z</time>
      </trkpt>
      <trkpt lat="43.49288" lon="2.64248">
        <ele>721.9</ele>
        <time>2026-05-22T13:07:04Z</time>
      </trkpt>
      <trkpt lat="43.49282" lon="2.64245">
        <ele>722.5</ele>
        <time>2026-05-22T13:07:09Z</time>
      </trkpt>
      <trkpt lat="43.49274" lon="2.64242">
        <ele>722.8</ele>
        <time>2026-05-22T13:07:14Z</time>
      </trkpt>
      <trkpt lat="43.49268" lon="2.64242">
        <ele>722.3</ele>
        <time>2026-05-22T13:07:19Z</time>
      </trkpt>
      <trkpt lat="43.49261" lon="2.64245">
        <ele>720.6</ele>
        <time>2026-05-22T13:07:24Z</time>
      </trkpt>
      <trkpt lat="43.49255" lon="2.64245">
        <ele>720.1</ele>
        <time>2026-05-22T13:07:29Z</time>
      </trkpt>
      <trkpt lat="43.49246" lon="2.64246">
        <ele>718.7</ele>
        <time>2026-05-22T13:07:34Z</time>
      </trkpt>
      <trkpt lat="43.49237" lon="2.64249">
        <ele>716.3</ele>
        <time>2026-05-22T13:07:39Z</time>
      </trkpt>
      <trkpt lat="43.49231" lon="2.64247">
        <ele>716</ele>
        <time>2026-05-22T13:07:44Z</time>
      </trkpt>
      <trkpt lat="43.49223" lon="2.64246">
        <ele>715</ele>
        <time>2026-05-22T13:07:49Z</time>
      </trkpt>
      <trkpt lat="43.49216" lon="2.64245">
        <ele>714.2</ele>
        <time>2026-05-22T13:07:54Z</time>
      </trkpt>
      <trkpt lat="43.49209" lon="2.64245">
        <ele>713</ele>
        <time>2026-05-22T13:07:59Z</time>
      </trkpt>
      <trkpt lat="43.49201" lon="2.64247">
        <ele>711.2</ele>
        <time>2026-05-22T13:08:04Z</time>
      </trkpt>
      <trkpt lat="43.49194" lon="2.64249">
        <ele>709.5</ele>
        <time>2026-05-22T13:08:09Z</time>
      </trkpt>
      <trkpt lat="43.49185" lon="2.64252">
        <ele>707.4</ele>
        <time>2026-05-22T13:08:14Z</time>
      </trkpt>
      <trkpt lat="43.49175" lon="2.64254">
        <ele>705.5</ele>
        <time>2026-05-22T13:08:19Z</time>
      </trkpt>
      <trkpt lat="43.49169" lon="2.64252">
        <ele>705</ele>
        <time>2026-05-22T13:08:24Z</time>
      </trkpt>
      <trkpt lat="43.49163" lon="2.64245">
        <ele>705.9</ele>
        <time>2026-05-22T13:08:29Z</time>
      </trkpt>
      <trkpt lat="43.49157" lon="2.6424">
        <ele>706.6</ele>
        <time>2026-05-22T13:08:34Z</time>
      </trkpt>
      <trkpt lat="43.49152" lon="2.6424">
        <ele>706.1</ele>
        <time>2026-05-22T13:08:39Z</time>
      </trkpt>
      <trkpt lat="43.4915" lon="2.64244">
        <ele>705</ele>
        <time>2026-05-22T13:08:44Z</time>
      </trkpt>
      <trkpt lat="43.49146" lon="2.64242">
        <ele>705</ele>
        <time>2026-05-22T13:08:49Z</time>
      </trkpt>
      <trkpt lat="43.49142" lon="2.64234">
        <ele>706.4</ele>
        <time>2026-05-22T13:08:54Z</time>
      </trkpt>
      <trkpt lat="43.49136" lon="2.6423">
        <ele>706.6</ele>
        <time>2026-05-22T13:08:59Z</time>
      </trkpt>
      <trkpt lat="43.4913" lon="2.64223">
        <ele>707.3</ele>
        <time>2026-05-22T13:09:04Z</time>
      </trkpt>
      <trkpt lat="43.4912" lon="2.64224">
        <ele>705.9</ele>
        <time>2026-05-22T13:09:09Z</time>
      </trkpt>
      <trkpt lat="43.49114" lon="2.64221">
        <ele>705.7</ele>
        <time>2026-05-22T13:09:14Z</time>
      </trkpt>
      <trkpt lat="43.49105" lon="2.64216">
        <ele>705.4</ele>
        <time>2026-05-22T13:09:19Z</time>
      </trkpt>
      <trkpt lat="43.49099" lon="2.64211">
        <ele>705.3</ele>
        <time>2026-05-22T13:09:24Z</time>
      </trkpt>
      <trkpt lat="43.49092" lon="2.64205">
        <ele>705.2</ele>
        <time>2026-05-22T13:09:29Z</time>
      </trkpt>
      <trkpt lat="43.49088" lon="2.642">
        <ele>705.3</ele>
        <time>2026-05-22T13:09:34Z</time>
      </trkpt>
      <trkpt lat="43.49079" lon="2.64197">
        <ele>704.8</ele>
        <time>2026-05-22T13:09:39Z</time>
      </trkpt>
      <trkpt lat="43.49073" lon="2.64196">
        <ele>704.6</ele>
        <time>2026-05-22T13:09:44Z</time>
      </trkpt>
      <trkpt lat="43.49065" lon="2.64195">
        <ele>704.4</ele>
        <time>2026-05-22T13:09:49Z</time>
      </trkpt>
      <trkpt lat="43.49059" lon="2.64191">
        <ele>704.6</ele>
        <time>2026-05-22T13:09:54Z</time>
      </trkpt>
      <trkpt lat="43.49053" lon="2.64187">
        <ele>704.8</ele>
        <time>2026-05-22T13:09:59Z</time>
      </trkpt>
      <trkpt lat="43.49046" lon="2.64183">
        <ele>704.9</ele>
        <time>2026-05-22T13:10:04Z</time>
      </trkpt>
      <trkpt lat="43.49039" lon="2.64178">
        <ele>705.1</ele>
        <time>2026-05-22T13:10:09Z</time>
      </trkpt>
      <trkpt lat="43.4903" lon="2.64177">
        <ele>704.7</ele>
        <time>2026-05-22T13:10:14Z</time>
      </trkpt>
      <trkpt lat="43.49024" lon="2.64177">
        <ele>704.3</ele>
        <time>2026-05-22T13:10:19Z</time>
      </trkpt>
      <trkpt lat="43.49018" lon="2.64175">
        <ele>704.2</ele>
        <time>2026-05-22T13:10:24Z</time>
      </trkpt>
      <trkpt lat="43.49011" lon="2.64174">
        <ele>703.9</ele>
        <time>2026-05-22T13:10:29Z</time>
      </trkpt>
      <trkpt lat="43.49007" lon="2.64181">
        <ele>703</ele>
        <time>2026-05-22T13:10:34Z</time>
      </trkpt>
      <trkpt lat="43.49009" lon="2.64189">
        <ele>702.3</ele>
        <time>2026-05-22T13:10:39Z</time>
      </trkpt>
      <trkpt lat="43.49014" lon="2.64193">
        <ele>702.2</ele>
        <time>2026-05-22T13:10:44Z</time>
      </trkpt>
      <trkpt lat="43.49019" lon="2.64196">
        <ele>702.1</ele>
        <time>2026-05-22T13:10:49Z</time>
      </trkpt>
      <trkpt lat="43.49027" lon="2.64201">
        <ele>701.9</ele>
        <time>2026-05-22T13:10:54Z</time>
      </trkpt>
      <trkpt lat="43.49033" lon="2.64202">
        <ele>702.1</ele>
        <time>2026-05-22T13:10:59Z</time>
      </trkpt>
      <trkpt lat="43.49043" lon="2.64201">
        <ele>702.6</ele>
        <time>2026-05-22T13:11:04Z</time>
      </trkpt>
      <trkpt lat="43.4905" lon="2.64205">
        <ele>702.5</ele>
        <time>2026-05-22T13:11:09Z</time>
      </trkpt>
      <trkpt lat="43.49056" lon="2.64216">
        <ele>701.4</ele>
        <time>2026-05-22T13:11:14Z</time>
      </trkpt>
      <trkpt lat="43.49061" lon="2.64226">
        <ele>700.4</ele>
        <time>2026-05-22T13:11:19Z</time>
      </trkpt>
      <trkpt lat="43.49066" lon="2.64234">
        <ele>699.6</ele>
        <time>2026-05-22T13:11:24Z</time>
      </trkpt>
      <trkpt lat="43.4907" lon="2.64243">
        <ele>698.6</ele>
        <time>2026-05-22T13:11:29Z</time>
      </trkpt>
      <trkpt lat="43.49074" lon="2.64248">
        <ele>698</ele>
        <time>2026-05-22T13:11:34Z</time>
      </trkpt>
      <trkpt lat="43.49078" lon="2.64252">
        <ele>697.5</ele>
        <time>2026-05-22T13:11:39Z</time>
      </trkpt>
      <trkpt lat="43.49084" lon="2.64259">
        <ele>696.5</ele>
        <time>2026-05-22T13:11:44Z</time>
      </trkpt>
      <trkpt lat="43.49091" lon="2.64263">
        <ele>696.4</ele>
        <time>2026-05-22T13:11:49Z</time>
      </trkpt>
      <trkpt lat="43.49096" lon="2.64269">
        <ele>695.8</ele>
        <time>2026-05-22T13:11:54Z</time>
      </trkpt>
      <trkpt lat="43.49103" lon="2.64282">
        <ele>694</ele>
        <time>2026-05-22T13:11:59Z</time>
      </trkpt>
      <trkpt lat="43.49104" lon="2.64293">
        <ele>692.1</ele>
        <time>2026-05-22T13:12:04Z</time>
      </trkpt>
      <trkpt lat="43.49108" lon="2.64299">
        <ele>691.3</ele>
        <time>2026-05-22T13:12:09Z</time>
      </trkpt>
      <trkpt lat="43.49114" lon="2.64307">
        <ele>690.2</ele>
        <time>2026-05-22T13:12:14Z</time>
      </trkpt>
      <trkpt lat="43.49118" lon="2.64316">
        <ele>688.8</ele>
        <time>2026-05-22T13:12:19Z</time>
      </trkpt>
      <trkpt lat="43.49123" lon="2.64323">
        <ele>687.8</ele>
        <time>2026-05-22T13:12:24Z</time>
      </trkpt>
      <trkpt lat="43.49129" lon="2.6433">
        <ele>686.8</ele>
        <time>2026-05-22T13:12:29Z</time>
      </trkpt>
      <trkpt lat="43.49135" lon="2.64336">
        <ele>686.2</ele>
        <time>2026-05-22T13:12:34Z</time>
      </trkpt>
      <trkpt lat="43.4914" lon="2.6434">
        <ele>685.9</ele>
        <time>2026-05-22T13:12:39Z</time>
      </trkpt>
      <trkpt lat="43.49145" lon="2.64345">
        <ele>685.5</ele>
        <time>2026-05-22T13:12:44Z</time>
      </trkpt>
      <trkpt lat="43.49152" lon="2.64347">
        <ele>685.5</ele>
        <time>2026-05-22T13:12:49Z</time>
      </trkpt>
      <trkpt lat="43.49157" lon="2.6435">
        <ele>685.4</ele>
        <time>2026-05-22T13:12:54Z</time>
      </trkpt>
      <trkpt lat="43.49163" lon="2.64349">
        <ele>685.8</ele>
        <time>2026-05-22T13:12:59Z</time>
      </trkpt>
      <trkpt lat="43.49171" lon="2.64355">
        <ele>685.4</ele>
        <time>2026-05-22T13:13:04Z</time>
      </trkpt>
      <trkpt lat="43.49179" lon="2.64355">
        <ele>685.9</ele>
        <time>2026-05-22T13:13:09Z</time>
      </trkpt>
      <trkpt lat="43.49183" lon="2.6436">
        <ele>685.5</ele>
        <time>2026-05-22T13:13:14Z</time>
      </trkpt>
      <trkpt lat="43.49191" lon="2.64361">
        <ele>685.8</ele>
        <time>2026-05-22T13:13:19Z</time>
      </trkpt>
      <trkpt lat="43.49201" lon="2.64361">
        <ele>686.4</ele>
        <time>2026-05-22T13:13:24Z</time>
      </trkpt>
      <trkpt lat="43.49209" lon="2.64364">
        <ele>686.4</ele>
        <time>2026-05-22T13:13:29Z</time>
      </trkpt>
      <trkpt lat="43.49217" lon="2.64364">
        <ele>686.9</ele>
        <time>2026-05-22T13:13:34Z</time>
      </trkpt>
      <trkpt lat="43.49225" lon="2.64367">
        <ele>686.9</ele>
        <time>2026-05-22T13:13:39Z</time>
      </trkpt>
      <trkpt lat="43.49231" lon="2.64372">
        <ele>686.5</ele>
        <time>2026-05-22T13:13:44Z</time>
      </trkpt>
      <trkpt lat="43.49231" lon="2.64389">
        <ele>683.7</ele>
        <time>2026-05-22T13:13:49Z</time>
      </trkpt>
      <trkpt lat="43.49223" lon="2.64392">
        <ele>682.9</ele>
        <time>2026-05-22T13:13:54Z</time>
      </trkpt>
      <trkpt lat="43.49217" lon="2.6439">
        <ele>682.9</ele>
        <time>2026-05-22T13:13:59Z</time>
      </trkpt>
      <trkpt lat="43.49211" lon="2.6439">
        <ele>682.6</ele>
        <time>2026-05-22T13:14:04Z</time>
      </trkpt>
      <trkpt lat="43.49204" lon="2.6439">
        <ele>682.3</ele>
        <time>2026-05-22T13:14:09Z</time>
      </trkpt>
      <trkpt lat="43.49198" lon="2.64395">
        <ele>681.3</ele>
        <time>2026-05-22T13:14:14Z</time>
      </trkpt>
      <trkpt lat="43.4919" lon="2.64403">
        <ele>679.8</ele>
        <time>2026-05-22T13:14:19Z</time>
      </trkpt>
      <trkpt lat="43.49182" lon="2.64409">
        <ele>678.6</ele>
        <time>2026-05-22T13:14:24Z</time>
      </trkpt>
      <trkpt lat="43.49176" lon="2.64415">
        <ele>677.6</ele>
        <time>2026-05-22T13:14:29Z</time>
      </trkpt>
      <trkpt lat="43.49172" lon="2.64418">
        <ele>677.3</ele>
        <time>2026-05-22T13:14:34Z</time>
      </trkpt>
      <trkpt lat="43.49165" lon="2.64424">
        <ele>677.8</ele>
        <time>2026-05-22T13:14:39Z</time>
      </trkpt>
      <trkpt lat="43.49159" lon="2.64428">
        <ele>678.1</ele>
        <time>2026-05-22T13:14:44Z</time>
      </trkpt>
      <trkpt lat="43.49153" lon="2.64433">
        <ele>678.5</ele>
        <time>2026-05-22T13:14:49Z</time>
      </trkpt>
      <trkpt lat="43.49149" lon="2.64437">
        <ele>678.9</ele>
        <time>2026-05-22T13:14:54Z</time>
      </trkpt>
      <trkpt lat="43.49143" lon="2.64437">
        <ele>678.8</ele>
        <time>2026-05-22T13:14:59Z</time>
      </trkpt>
      <trkpt lat="43.49137" lon="2.64434">
        <ele>678.3</ele>
        <time>2026-05-22T13:15:04Z</time>
      </trkpt>
      <trkpt lat="43.49132" lon="2.64429">
        <ele>677.6</ele>
        <time>2026-05-22T13:15:09Z</time>
      </trkpt>
      <trkpt lat="43.49126" lon="2.64425">
        <ele>677</ele>
        <time>2026-05-22T13:15:14Z</time>
      </trkpt>
      <trkpt lat="43.49119" lon="2.64421">
        <ele>676.4</ele>
        <time>2026-05-22T13:15:19Z</time>
      </trkpt>
      <trkpt lat="43.49109" lon="2.6442">
        <ele>676</ele>
        <time>2026-05-22T13:15:24Z</time>
      </trkpt>
      <trkpt lat="43.49101" lon="2.6442">
        <ele>675.8</ele>
        <time>2026-05-22T13:15:29Z</time>
      </trkpt>
      <trkpt lat="43.49092" lon="2.64418">
        <ele>675.4</ele>
        <time>2026-05-22T13:15:34Z</time>
      </trkpt>
      <trkpt lat="43.49085" lon="2.64418">
        <ele>675.2</ele>
        <time>2026-05-22T13:15:39Z</time>
      </trkpt>
      <trkpt lat="43.49078" lon="2.64418">
        <ele>674.8</ele>
        <time>2026-05-22T13:15:44Z</time>
      </trkpt>
      <trkpt lat="43.4907" lon="2.64416">
        <ele>674.3</ele>
        <time>2026-05-22T13:15:49Z</time>
      </trkpt>
      <trkpt lat="43.4906" lon="2.64414">
        <ele>674</ele>
        <time>2026-05-22T13:15:54Z</time>
      </trkpt>
      <trkpt lat="43.49051" lon="2.64418">
        <ele>673.2</ele>
        <time>2026-05-22T13:15:59Z</time>
      </trkpt>
      <trkpt lat="43.49045" lon="2.6442">
        <ele>672.9</ele>
        <time>2026-05-22T13:16:04Z</time>
      </trkpt>
      <trkpt lat="43.49037" lon="2.64428">
        <ele>672.8</ele>
        <time>2026-05-22T13:16:09Z</time>
      </trkpt>
      <trkpt lat="43.49031" lon="2.6443">
        <ele>672.4</ele>
        <time>2026-05-22T13:16:14Z</time>
      </trkpt>
      <trkpt lat="43.49026" lon="2.64435">
        <ele>672.2</ele>
        <time>2026-05-22T13:16:19Z</time>
      </trkpt>
      <trkpt lat="43.49019" lon="2.64437">
        <ele>671.6</ele>
        <time>2026-05-22T13:16:24Z</time>
      </trkpt>
      <trkpt lat="43.49014" lon="2.64438">
        <ele>671.1</ele>
        <time>2026-05-22T13:16:29Z</time>
      </trkpt>
      <trkpt lat="43.49008" lon="2.6444">
        <ele>670.5</ele>
        <time>2026-05-22T13:16:34Z</time>
      </trkpt>
      <trkpt lat="43.49" lon="2.64444">
        <ele>669.7</ele>
        <time>2026-05-22T13:16:39Z</time>
      </trkpt>
      <trkpt lat="43.48994" lon="2.64448">
        <ele>668.9</ele>
        <time>2026-05-22T13:16:44Z</time>
      </trkpt>
      <trkpt lat="43.48989" lon="2.64451">
        <ele>668.3</ele>
        <time>2026-05-22T13:16:49Z</time>
      </trkpt>
      <trkpt lat="43.48983" lon="2.64456">
        <ele>667.6</ele>
        <time>2026-05-22T13:16:54Z</time>
      </trkpt>
      <trkpt lat="43.48978" lon="2.64463">
        <ele>667</ele>
        <time>2026-05-22T13:16:59Z</time>
      </trkpt>
      <trkpt lat="43.48973" lon="2.6447">
        <ele>666.4</ele>
        <time>2026-05-22T13:17:04Z</time>
      </trkpt>
      <trkpt lat="43.48967" lon="2.64476">
        <ele>665.8</ele>
        <time>2026-05-22T13:17:09Z</time>
      </trkpt>
      <trkpt lat="43.48962" lon="2.64483">
        <ele>665.3</ele>
        <time>2026-05-22T13:17:14Z</time>
      </trkpt>
      <trkpt lat="43.48958" lon="2.64491">
        <ele>664.9</ele>
        <time>2026-05-22T13:17:19Z</time>
      </trkpt>
      <trkpt lat="43.48952" lon="2.64497">
        <ele>664.4</ele>
        <time>2026-05-22T13:17:24Z</time>
      </trkpt>
      <trkpt lat="43.48946" lon="2.64504">
        <ele>664.7</ele>
        <time>2026-05-22T13:17:29Z</time>
      </trkpt>
      <trkpt lat="43.48941" lon="2.64509">
        <ele>665.3</ele>
        <time>2026-05-22T13:17:34Z</time>
      </trkpt>
      <trkpt lat="43.48936" lon="2.64513">
        <ele>665.7</ele>
        <time>2026-05-22T13:17:39Z</time>
      </trkpt>
      <trkpt lat="43.4893" lon="2.6452">
        <ele>666.6</ele>
        <time>2026-05-22T13:17:44Z</time>
      </trkpt>
      <trkpt lat="43.48924" lon="2.64524">
        <ele>666.9</ele>
        <time>2026-05-22T13:17:49Z</time>
      </trkpt>
      <trkpt lat="43.48918" lon="2.6453">
        <ele>667.6</ele>
        <time>2026-05-22T13:17:54Z</time>
      </trkpt>
      <trkpt lat="43.48912" lon="2.64535">
        <ele>669</ele>
        <time>2026-05-22T13:17:59Z</time>
      </trkpt>
      <trkpt lat="43.48904" lon="2.64539">
        <ele>670.5</ele>
        <time>2026-05-22T13:18:04Z</time>
      </trkpt>
      <trkpt lat="43.48895" lon="2.64542">
        <ele>671.9</ele>
        <time>2026-05-22T13:18:09Z</time>
      </trkpt>
      <trkpt lat="43.48889" lon="2.64544">
        <ele>672.8</ele>
        <time>2026-05-22T13:18:14Z</time>
      </trkpt>
      <trkpt lat="43.48883" lon="2.64546">
        <ele>673.7</ele>
        <time>2026-05-22T13:18:19Z</time>
      </trkpt>
      <trkpt lat="43.48877" lon="2.64548">
        <ele>674.6</ele>
        <time>2026-05-22T13:18:24Z</time>
      </trkpt>
      <trkpt lat="43.4887" lon="2.64553">
        <ele>676.1</ele>
        <time>2026-05-22T13:18:29Z</time>
      </trkpt>
      <trkpt lat="43.48864" lon="2.64554">
        <ele>676.7</ele>
        <time>2026-05-22T13:18:34Z</time>
      </trkpt>
      <trkpt lat="43.48858" lon="2.64556">
        <ele>677.5</ele>
        <time>2026-05-22T13:18:39Z</time>
      </trkpt>
      <trkpt lat="43.48853" lon="2.64558">
        <ele>678.3</ele>
        <time>2026-05-22T13:18:44Z</time>
      </trkpt>
      <trkpt lat="43.48844" lon="2.64561">
        <ele>679.5</ele>
        <time>2026-05-22T13:18:49Z</time>
      </trkpt>
      <trkpt lat="43.48838" lon="2.64563">
        <ele>680.2</ele>
        <time>2026-05-22T13:18:54Z</time>
      </trkpt>
      <trkpt lat="43.4883" lon="2.64564">
        <ele>680.3</ele>
        <time>2026-05-22T13:18:59Z</time>
      </trkpt>
      <trkpt lat="43.48824" lon="2.64567">
        <ele>680</ele>
        <time>2026-05-22T13:19:04Z</time>
      </trkpt>
      <trkpt lat="43.48817" lon="2.64565">
        <ele>678.8</ele>
        <time>2026-05-22T13:19:09Z</time>
      </trkpt>
      <trkpt lat="43.48811" lon="2.64561">
        <ele>677.4</ele>
        <time>2026-05-22T13:19:14Z</time>
      </trkpt>
      <trkpt lat="43.48803" lon="2.64557">
        <ele>675.8</ele>
        <time>2026-05-22T13:19:19Z</time>
      </trkpt>
      <trkpt lat="43.48799" lon="2.64555">
        <ele>675</ele>
        <time>2026-05-22T13:19:24Z</time>
      </trkpt>
      <trkpt lat="43.48795" lon="2.64553">
        <ele>674.2</ele>
        <time>2026-05-22T13:19:29Z</time>
      </trkpt>
      <trkpt lat="43.4879" lon="2.64549">
        <ele>673.1</ele>
        <time>2026-05-22T13:19:34Z</time>
      </trkpt>
      <trkpt lat="43.48785" lon="2.64543">
        <ele>671.7</ele>
        <time>2026-05-22T13:19:39Z</time>
      </trkpt>
      <trkpt lat="43.4878" lon="2.64539">
        <ele>670.6</ele>
        <time>2026-05-22T13:19:44Z</time>
      </trkpt>
      <trkpt lat="43.48775" lon="2.64536">
        <ele>669.6</ele>
        <time>2026-05-22T13:19:49Z</time>
      </trkpt>
      <trkpt lat="43.48771" lon="2.64532">
        <ele>668.7</ele>
        <time>2026-05-22T13:19:54Z</time>
      </trkpt>
      <trkpt lat="43.48766" lon="2.64527">
        <ele>667.6</ele>
        <time>2026-05-22T13:19:59Z</time>
      </trkpt>
      <trkpt lat="43.48761" lon="2.64523">
        <ele>666.6</ele>
        <time>2026-05-22T13:20:04Z</time>
      </trkpt>
      <trkpt lat="43.48756" lon="2.64518">
        <ele>665.5</ele>
        <time>2026-05-22T13:20:09Z</time>
      </trkpt>
      <trkpt lat="43.4875" lon="2.64514">
        <ele>664.5</ele>
        <time>2026-05-22T13:20:14Z</time>
      </trkpt>
      <trkpt lat="43.48745" lon="2.64512">
        <ele>663.1</ele>
        <time>2026-05-22T13:20:19Z</time>
      </trkpt>
      <trkpt lat="43.4874" lon="2.6451">
        <ele>661.6</ele>
        <time>2026-05-22T13:20:24Z</time>
      </trkpt>
      <trkpt lat="43.48732" lon="2.64512">
        <ele>659.9</ele>
        <time>2026-05-22T13:20:29Z</time>
      </trkpt>
      <trkpt lat="43.48724" lon="2.64512">
        <ele>657.9</ele>
        <time>2026-05-22T13:20:34Z</time>
      </trkpt>
      <trkpt lat="43.4872" lon="2.64512">
        <ele>656.9</ele>
        <time>2026-05-22T13:20:39Z</time>
      </trkpt>
      <trkpt lat="43.48713" lon="2.64515">
        <ele>655.6</ele>
        <time>2026-05-22T13:20:44Z</time>
      </trkpt>
      <trkpt lat="43.48705" lon="2.64522">
        <ele>654.6</ele>
        <time>2026-05-22T13:20:49Z</time>
      </trkpt>
      <trkpt lat="43.487" lon="2.64528">
        <ele>654.2</ele>
        <time>2026-05-22T13:20:54Z</time>
      </trkpt>
      <trkpt lat="43.48695" lon="2.64535">
        <ele>654</ele>
        <time>2026-05-22T13:20:59Z</time>
      </trkpt>
      <trkpt lat="43.48691" lon="2.64543">
        <ele>654.2</ele>
        <time>2026-05-22T13:21:04Z</time>
      </trkpt>
      <trkpt lat="43.48686" lon="2.64549">
        <ele>654</ele>
        <time>2026-05-22T13:21:09Z</time>
      </trkpt>
      <trkpt lat="43.48683" lon="2.64559">
        <ele>654.8</ele>
        <time>2026-05-22T13:21:14Z</time>
      </trkpt>
      <trkpt lat="43.48679" lon="2.64567">
        <ele>655.1</ele>
        <time>2026-05-22T13:21:19Z</time>
      </trkpt>
      <trkpt lat="43.48677" lon="2.64573">
        <ele>655.6</ele>
        <time>2026-05-22T13:21:24Z</time>
      </trkpt>
      <trkpt lat="43.48674" lon="2.64577">
        <ele>655.5</ele>
        <time>2026-05-22T13:21:29Z</time>
      </trkpt>
      <trkpt lat="43.48668" lon="2.64587">
        <ele>655.6</ele>
        <time>2026-05-22T13:21:34Z</time>
      </trkpt>
      <trkpt lat="43.48664" lon="2.64596">
        <ele>656.2</ele>
        <time>2026-05-22T13:21:39Z</time>
      </trkpt>
      <trkpt lat="43.48657" lon="2.64606">
        <ele>657</ele>
        <time>2026-05-22T13:21:44Z</time>
      </trkpt>
      <trkpt lat="43.48656" lon="2.64613">
        <ele>657.6</ele>
        <time>2026-05-22T13:21:49Z</time>
      </trkpt>
      <trkpt lat="43.48652" lon="2.64624">
        <ele>658.6</ele>
        <time>2026-05-22T13:21:54Z</time>
      </trkpt>
      <trkpt lat="43.48644" lon="2.64638">
        <ele>659.9</ele>
        <time>2026-05-22T13:21:59Z</time>
      </trkpt>
      <trkpt lat="43.48638" lon="2.64649">
        <ele>660.9</ele>
        <time>2026-05-22T13:22:04Z</time>
      </trkpt>
      <trkpt lat="43.48635" lon="2.64656">
        <ele>661.5</ele>
        <time>2026-05-22T13:22:09Z</time>
      </trkpt>
      <trkpt lat="43.48631" lon="2.64664">
        <ele>662.3</ele>
        <time>2026-05-22T13:22:14Z</time>
      </trkpt>
      <trkpt lat="43.48626" lon="2.64674">
        <ele>661.6</ele>
        <time>2026-05-22T13:22:19Z</time>
      </trkpt>
      <trkpt lat="43.48624" lon="2.64684">
        <ele>660.4</ele>
        <time>2026-05-22T13:22:24Z</time>
      </trkpt>
      <trkpt lat="43.48622" lon="2.64692">
        <ele>659.4</ele>
        <time>2026-05-22T13:22:29Z</time>
      </trkpt>
      <trkpt lat="43.48624" lon="2.64701">
        <ele>658.4</ele>
        <time>2026-05-22T13:22:34Z</time>
      </trkpt>
      <trkpt lat="43.48624" lon="2.6471">
        <ele>657.3</ele>
        <time>2026-05-22T13:22:39Z</time>
      </trkpt>
      <trkpt lat="43.48623" lon="2.64713">
        <ele>656.9</ele>
        <time>2026-05-22T13:22:44Z</time>
      </trkpt>
      <trkpt lat="43.48625" lon="2.64719">
        <ele>656.2</ele>
        <time>2026-05-22T13:22:49Z</time>
      </trkpt>
      <trkpt lat="43.48622" lon="2.64726">
        <ele>655.3</ele>
        <time>2026-05-22T13:22:54Z</time>
      </trkpt>
      <trkpt lat="43.48621" lon="2.64734">
        <ele>654.3</ele>
        <time>2026-05-22T13:22:59Z</time>
      </trkpt>
      <trkpt lat="43.4862" lon="2.64738">
        <ele>653.8</ele>
        <time>2026-05-22T13:23:04Z</time>
      </trkpt>
      <trkpt lat="43.48618" lon="2.6474">
        <ele>653.5</ele>
        <time>2026-05-22T13:23:09Z</time>
      </trkpt>
      <trkpt lat="43.48617" lon="2.64744">
        <ele>652.9</ele>
        <time>2026-05-22T13:23:14Z</time>
      </trkpt>
      <trkpt lat="43.48617" lon="2.64749">
        <ele>652.3</ele>
        <time>2026-05-22T13:23:19Z</time>
      </trkpt>
      <trkpt lat="43.48614" lon="2.64755">
        <ele>650.5</ele>
        <time>2026-05-22T13:23:24Z</time>
      </trkpt>
      <trkpt lat="43.48609" lon="2.6476">
        <ele>648.7</ele>
        <time>2026-05-22T13:23:29Z</time>
      </trkpt>
      <trkpt lat="43.48605" lon="2.64765">
        <ele>647</ele>
        <time>2026-05-22T13:23:34Z</time>
      </trkpt>
      <trkpt lat="43.48599" lon="2.64771">
        <ele>644.9</ele>
        <time>2026-05-22T13:23:39Z</time>
      </trkpt>
      <trkpt lat="43.48594" lon="2.64775">
        <ele>643.5</ele>
        <time>2026-05-22T13:23:44Z</time>
      </trkpt>
      <trkpt lat="43.48589" lon="2.64779">
        <ele>642.1</ele>
        <time>2026-05-22T13:23:49Z</time>
      </trkpt>
      <trkpt lat="43.48586" lon="2.64781">
        <ele>641.4</ele>
        <time>2026-05-22T13:23:54Z</time>
      </trkpt>
      <trkpt lat="43.48579" lon="2.64782">
        <ele>640.2</ele>
        <time>2026-05-22T13:23:59Z</time>
      </trkpt>
      <trkpt lat="43.48573" lon="2.64779">
        <ele>640.1</ele>
        <time>2026-05-22T13:24:04Z</time>
      </trkpt>
      <trkpt lat="43.48569" lon="2.64777">
        <ele>639.9</ele>
        <time>2026-05-22T13:24:09Z</time>
      </trkpt>
      <trkpt lat="43.48563" lon="2.64774">
        <ele>639.7</ele>
        <time>2026-05-22T13:24:14Z</time>
      </trkpt>
      <trkpt lat="43.48557" lon="2.64776">
        <ele>638</ele>
        <time>2026-05-22T13:24:19Z</time>
      </trkpt>
      <trkpt lat="43.48552" lon="2.64776">
        <ele>637.1</ele>
        <time>2026-05-22T13:24:24Z</time>
      </trkpt>
      <trkpt lat="43.48545" lon="2.64773">
        <ele>636.6</ele>
        <time>2026-05-22T13:24:29Z</time>
      </trkpt>
      <trkpt lat="43.4854" lon="2.64775">
        <ele>635.1</ele>
        <time>2026-05-22T13:24:34Z</time>
      </trkpt>
      <trkpt lat="43.48532" lon="2.64782">
        <ele>631.7</ele>
        <time>2026-05-22T13:24:39Z</time>
      </trkpt>
      <trkpt lat="43.48527" lon="2.64789">
        <ele>628.9</ele>
        <time>2026-05-22T13:24:44Z</time>
      </trkpt>
      <trkpt lat="43.48523" lon="2.64793">
        <ele>627.1</ele>
        <time>2026-05-22T13:24:49Z</time>
      </trkpt>
      <trkpt lat="43.48517" lon="2.64796">
        <ele>625.3</ele>
        <time>2026-05-22T13:24:54Z</time>
      </trkpt>
      <trkpt lat="43.48511" lon="2.64801">
        <ele>623</ele>
        <time>2026-05-22T13:24:59Z</time>
      </trkpt>
      <trkpt lat="43.48505" lon="2.64804">
        <ele>621.2</ele>
        <time>2026-05-22T13:25:04Z</time>
      </trkpt>
      <trkpt lat="43.485" lon="2.64808">
        <ele>619.4</ele>
        <time>2026-05-22T13:25:09Z</time>
      </trkpt>
      <trkpt lat="43.48496" lon="2.64812">
        <ele>617.2</ele>
        <time>2026-05-22T13:25:14Z</time>
      </trkpt>
      <trkpt lat="43.48491" lon="2.64814">
        <ele>615.1</ele>
        <time>2026-05-22T13:25:19Z</time>
      </trkpt>
      <trkpt lat="43.48483" lon="2.64819">
        <ele>611.4</ele>
        <time>2026-05-22T13:25:24Z</time>
      </trkpt>
      <trkpt lat="43.4848" lon="2.64819">
        <ele>610.5</ele>
        <time>2026-05-22T13:25:29Z</time>
      </trkpt>
      <trkpt lat="43.48478" lon="2.64817">
        <ele>610.4</ele>
        <time>2026-05-22T13:25:34Z</time>
      </trkpt>
      <trkpt lat="43.48472" lon="2.64824">
        <ele>606.7</ele>
        <time>2026-05-22T13:25:39Z</time>
      </trkpt>
      <trkpt lat="43.48465" lon="2.64831">
        <ele>602.7</ele>
        <time>2026-05-22T13:25:44Z</time>
      </trkpt>
      <trkpt lat="43.48458" lon="2.64832">
        <ele>600.2</ele>
        <time>2026-05-22T13:25:49Z</time>
      </trkpt>
      <trkpt lat="43.48452" lon="2.64832">
        <ele>598.4</ele>
        <time>2026-05-22T13:25:54Z</time>
      </trkpt>
      <trkpt lat="43.48445" lon="2.64836">
        <ele>595.3</ele>
        <time>2026-05-22T13:25:59Z</time>
      </trkpt>
      <trkpt lat="43.48439" lon="2.64835">
        <ele>593.6</ele>
        <time>2026-05-22T13:26:04Z</time>
      </trkpt>
      <trkpt lat="43.48432" lon="2.64835">
        <ele>591.5</ele>
        <time>2026-05-22T13:26:09Z</time>
      </trkpt>
      <trkpt lat="43.48427" lon="2.64834">
        <ele>590.1</ele>
        <time>2026-05-22T13:26:14Z</time>
      </trkpt>
      <trkpt lat="43.48423" lon="2.64834">
        <ele>588.9</ele>
        <time>2026-05-22T13:26:19Z</time>
      </trkpt>
      <trkpt lat="43.48417" lon="2.64833">
        <ele>587.2</ele>
        <time>2026-05-22T13:26:24Z</time>
      </trkpt>
      <trkpt lat="43.48412" lon="2.6483">
        <ele>586.1</ele>
        <time>2026-05-22T13:26:29Z</time>
      </trkpt>
      <trkpt lat="43.48406" lon="2.64829">
        <ele>584.1</ele>
        <time>2026-05-22T13:26:34Z</time>
      </trkpt>
      <trkpt lat="43.48401" lon="2.64828">
        <ele>582.4</ele>
        <time>2026-05-22T13:26:39Z</time>
      </trkpt>
      <trkpt lat="43.48394" lon="2.64826">
        <ele>580.3</ele>
        <time>2026-05-22T13:26:44Z</time>
      </trkpt>
      <trkpt lat="43.48387" lon="2.64825">
        <ele>577.9</ele>
        <time>2026-05-22T13:26:49Z</time>
      </trkpt>
      <trkpt lat="43.48382" lon="2.64822">
        <ele>576.8</ele>
        <time>2026-05-22T13:26:54Z</time>
      </trkpt>
      <trkpt lat="43.48377" lon="2.64819">
        <ele>575.6</ele>
        <time>2026-05-22T13:26:59Z</time>
      </trkpt>
      <trkpt lat="43.48372" lon="2.64814">
        <ele>575.1</ele>
        <time>2026-05-22T13:27:04Z</time>
      </trkpt>
      <trkpt lat="43.48367" lon="2.64807">
        <ele>575</ele>
        <time>2026-05-22T13:27:09Z</time>
      </trkpt>
      <trkpt lat="43.48361" lon="2.64801">
        <ele>574.3</ele>
        <time>2026-05-22T13:27:14Z</time>
      </trkpt>
      <trkpt lat="43.48355" lon="2.64801">
        <ele>572</ele>
        <time>2026-05-22T13:27:19Z</time>
      </trkpt>
      <trkpt lat="43.48347" lon="2.64798">
        <ele>569.6</ele>
        <time>2026-05-22T13:27:24Z</time>
      </trkpt>
      <trkpt lat="43.4834" lon="2.64792">
        <ele>568.5</ele>
        <time>2026-05-22T13:27:29Z</time>
      </trkpt>
      <trkpt lat="43.48334" lon="2.64791">
        <ele>566.4</ele>
        <time>2026-05-22T13:27:34Z</time>
      </trkpt>
      <trkpt lat="43.48331" lon="2.64788">
        <ele>566.3</ele>
        <time>2026-05-22T13:27:39Z</time>
      </trkpt>
      <trkpt lat="43.48328" lon="2.64783">
        <ele>566.8</ele>
        <time>2026-05-22T13:27:44Z</time>
      </trkpt>
      <trkpt lat="43.48327" lon="2.64781">
        <ele>567.1</ele>
        <time>2026-05-22T13:27:49Z</time>
      </trkpt>
      <trkpt lat="43.48319" lon="2.6478">
        <ele>565.1</ele>
        <time>2026-05-22T13:27:54Z</time>
      </trkpt>
      <trkpt lat="43.48315" lon="2.64783">
        <ele>563.2</ele>
        <time>2026-05-22T13:27:59Z</time>
      </trkpt>
      <trkpt lat="43.48311" lon="2.64785">
        <ele>561.6</ele>
        <time>2026-05-22T13:28:04Z</time>
      </trkpt>
      <trkpt lat="43.4831" lon="2.64786">
        <ele>561.1</ele>
        <time>2026-05-22T13:28:09Z</time>
      </trkpt>
      <trkpt lat="43.4831" lon="2.64786">
        <ele>561.1</ele>
        <time>2026-05-22T13:28:14Z</time>
      </trkpt>
      <trkpt lat="43.4831" lon="2.64786">
        <ele>561.1</ele>
        <time>2026-05-22T13:28:19Z</time>
      </trkpt>
      <trkpt lat="43.4831" lon="2.64786">
        <ele>561.1</ele>
        <time>2026-05-22T13:28:24Z</time>
      </trkpt>
      <trkpt lat="43.4831" lon="2.64786">
        <ele>561.1</ele>
        <time>2026-05-22T13:28:29Z</time>
      </trkpt>
      <trkpt lat="43.4831" lon="2.64786">
        <ele>561.1</ele>
        <time>2026-05-22T13:28:34Z</time>
      </trkpt>
      <trkpt lat="43.4831" lon="2.64786">
        <ele>561.1</ele>
        <time>2026-05-22T13:28:39Z</time>
      </trkpt>
      <trkpt lat="43.48317" lon="2.64793">
        <ele>561.1</ele>
        <time>2026-05-22T13:28:44Z</time>
      </trkpt>
      <trkpt lat="43.48319" lon="2.64802">
        <ele>559.3</ele>
        <time>2026-05-22T13:28:49Z</time>
      </trkpt>
      <trkpt lat="43.48315" lon="2.64809">
        <ele>556.4</ele>
        <time>2026-05-22T13:28:54Z</time>
      </trkpt>
      <trkpt lat="43.48311" lon="2.64808">
        <ele>555.5</ele>
        <time>2026-05-22T13:28:59Z</time>
      </trkpt>
      <trkpt lat="43.48307" lon="2.64804">
        <ele>555.5</ele>
        <time>2026-05-22T13:29:04Z</time>
      </trkpt>
      <trkpt lat="43.48303" lon="2.64804">
        <ele>554.4</ele>
        <time>2026-05-22T13:29:09Z</time>
      </trkpt>
      <trkpt lat="43.48299" lon="2.64802">
        <ele>553.8</ele>
        <time>2026-05-22T13:29:14Z</time>
      </trkpt>
      <trkpt lat="43.48296" lon="2.64798">
        <ele>554</ele>
        <time>2026-05-22T13:29:19Z</time>
      </trkpt>
      <trkpt lat="43.48291" lon="2.64797">
        <ele>552.9</ele>
        <time>2026-05-22T13:29:24Z</time>
      </trkpt>
      <trkpt lat="43.48288" lon="2.64788">
        <ele>554.5</ele>
        <time>2026-05-22T13:29:29Z</time>
      </trkpt>
      <trkpt lat="43.48286" lon="2.64782">
        <ele>555.5</ele>
        <time>2026-05-22T13:29:34Z</time>
      </trkpt>
      <trkpt lat="43.4828" lon="2.64782">
        <ele>553.8</ele>
        <time>2026-05-22T13:29:39Z</time>
      </trkpt>
      <trkpt lat="43.48274" lon="2.64781">
        <ele>552.4</ele>
        <time>2026-05-22T13:29:44Z</time>
      </trkpt>
      <trkpt lat="43.4827" lon="2.64778">
        <ele>552.1</ele>
        <time>2026-05-22T13:29:49Z</time>
      </trkpt>
      <trkpt lat="43.48266" lon="2.64774">
        <ele>552.1</ele>
        <time>2026-05-22T13:29:54Z</time>
      </trkpt>
      <trkpt lat="43.48262" lon="2.64767">
        <ele>552.8</ele>
        <time>2026-05-22T13:29:59Z</time>
      </trkpt>
      <trkpt lat="43.48258" lon="2.64762">
        <ele>553</ele>
        <time>2026-05-22T13:30:04Z</time>
      </trkpt>
      <trkpt lat="43.48252" lon="2.64757">
        <ele>552.7</ele>
        <time>2026-05-22T13:30:09Z</time>
      </trkpt>
      <trkpt lat="43.48246" lon="2.64753">
        <ele>552.1</ele>
        <time>2026-05-22T13:30:14Z</time>
      </trkpt>
      <trkpt lat="43.48242" lon="2.64747">
        <ele>552.1</ele>
        <time>2026-05-22T13:30:19Z</time>
      </trkpt>
      <trkpt lat="43.48237" lon="2.64744">
        <ele>551</ele>
        <time>2026-05-22T13:30:24Z</time>
      </trkpt>
      <trkpt lat="43.4823" lon="2.64742">
        <ele>549.2</ele>
        <time>2026-05-22T13:30:29Z</time>
      </trkpt>
      <trkpt lat="43.48224" lon="2.64741">
        <ele>547.6</ele>
        <time>2026-05-22T13:30:34Z</time>
      </trkpt>
      <trkpt lat="43.48217" lon="2.64738">
        <ele>545.9</ele>
        <time>2026-05-22T13:30:39Z</time>
      </trkpt>
      <trkpt lat="43.48211" lon="2.64734">
        <ele>544.7</ele>
        <time>2026-05-22T13:30:44Z</time>
      </trkpt>
      <trkpt lat="43.48207" lon="2.64728">
        <ele>544.3</ele>
        <time>2026-05-22T13:30:49Z</time>
      </trkpt>
      <trkpt lat="43.48202" lon="2.6472">
        <ele>543.8</ele>
        <time>2026-05-22T13:30:54Z</time>
      </trkpt>
      <trkpt lat="43.48196" lon="2.64716">
        <ele>542.5</ele>
        <time>2026-05-22T13:30:59Z</time>
      </trkpt>
      <trkpt lat="43.48191" lon="2.64714">
        <ele>541.3</ele>
        <time>2026-05-22T13:31:04Z</time>
      </trkpt>
      <trkpt lat="43.48185" lon="2.6471">
        <ele>540.1</ele>
        <time>2026-05-22T13:31:09Z</time>
      </trkpt>
      <trkpt lat="43.48179" lon="2.64708">
        <ele>538.6</ele>
        <time>2026-05-22T13:31:14Z</time>
      </trkpt>
      <trkpt lat="43.48173" lon="2.64707">
        <ele>537</ele>
        <time>2026-05-22T13:31:19Z</time>
      </trkpt>
      <trkpt lat="43.48166" lon="2.64702">
        <ele>535.8</ele>
        <time>2026-05-22T13:31:24Z</time>
      </trkpt>
      <trkpt lat="43.48161" lon="2.64695">
        <ele>536.8</ele>
        <time>2026-05-22T13:31:29Z</time>
      </trkpt>
      <trkpt lat="43.48155" lon="2.6469">
        <ele>537.6</ele>
        <time>2026-05-22T13:31:34Z</time>
      </trkpt>
      <trkpt lat="43.48149" lon="2.64684">
        <ele>538.5</ele>
        <time>2026-05-22T13:31:39Z</time>
      </trkpt>
      <trkpt lat="43.48146" lon="2.64679">
        <ele>539.1</ele>
        <time>2026-05-22T13:31:44Z</time>
      </trkpt>
      <trkpt lat="43.48141" lon="2.64677">
        <ele>539.5</ele>
        <time>2026-05-22T13:31:49Z</time>
      </trkpt>
      <trkpt lat="43.48132" lon="2.64674">
        <ele>540.1</ele>
        <time>2026-05-22T13:31:54Z</time>
      </trkpt>
      <trkpt lat="43.48123" lon="2.64671">
        <ele>540.6</ele>
        <time>2026-05-22T13:31:59Z</time>
      </trkpt>
      <trkpt lat="43.48116" lon="2.64669">
        <ele>541</ele>
        <time>2026-05-22T13:32:04Z</time>
      </trkpt>
      <trkpt lat="43.4811" lon="2.64666">
        <ele>541.3</ele>
        <time>2026-05-22T13:32:09Z</time>
      </trkpt>
      <trkpt lat="43.48104" lon="2.64664">
        <ele>541.1</ele>
        <time>2026-05-22T13:32:14Z</time>
      </trkpt>
      <trkpt lat="43.48098" lon="2.64661">
        <ele>540.8</ele>
        <time>2026-05-22T13:32:19Z</time>
      </trkpt>
      <trkpt lat="43.48093" lon="2.64662">
        <ele>541</ele>
        <time>2026-05-22T13:32:24Z</time>
      </trkpt>
      <trkpt lat="43.48088" lon="2.64661">
        <ele>541</ele>
        <time>2026-05-22T13:32:29Z</time>
      </trkpt>
      <trkpt lat="43.48084" lon="2.64658">
        <ele>540.5</ele>
        <time>2026-05-22T13:32:34Z</time>
      </trkpt>
      <trkpt lat="43.4808" lon="2.64656">
        <ele>540.3</ele>
        <time>2026-05-22T13:32:39Z</time>
      </trkpt>
      <trkpt lat="43.48076" lon="2.64651">
        <ele>539.6</ele>
        <time>2026-05-22T13:32:44Z</time>
      </trkpt>
      <trkpt lat="43.48071" lon="2.64643">
        <ele>538.5</ele>
        <time>2026-05-22T13:32:49Z</time>
      </trkpt>
      <trkpt lat="43.48066" lon="2.64637">
        <ele>537.9</ele>
        <time>2026-05-22T13:32:54Z</time>
      </trkpt>
      <trkpt lat="43.4806" lon="2.64635">
        <ele>538</ele>
        <time>2026-05-22T13:32:59Z</time>
      </trkpt>
      <trkpt lat="43.48055" lon="2.64641">
        <ele>538.9</ele>
        <time>2026-05-22T13:33:04Z</time>
      </trkpt>
      <trkpt lat="43.48049" lon="2.64643">
        <ele>539.4</ele>
        <time>2026-05-22T13:33:09Z</time>
      </trkpt>
      <trkpt lat="43.48049" lon="2.64643">
        <ele>539.4</ele>
        <time>2026-05-22T13:33:14Z</time>
      </trkpt>
      <trkpt lat="43.48048" lon="2.64643">
        <ele>539.5</ele>
        <time>2026-05-22T13:33:19Z</time>
      </trkpt>
      <trkpt lat="43.48048" lon="2.64643">
        <ele>539.5</ele>
        <time>2026-05-22T13:33:24Z</time>
      </trkpt>
      <trkpt lat="43.48048" lon="2.64643">
        <ele>539.5</ele>
        <time>2026-05-22T13:33:29Z</time>
      </trkpt>
      <trkpt lat="43.48048" lon="2.64633">
        <ele>538.4</ele>
        <time>2026-05-22T13:33:34Z</time>
      </trkpt>
      <trkpt lat="43.4805" lon="2.64625">
        <ele>537.4</ele>
        <time>2026-05-22T13:33:39Z</time>
      </trkpt>
      <trkpt lat="43.48049" lon="2.6462">
        <ele>536.9</ele>
        <time>2026-05-22T13:33:44Z</time>
      </trkpt>
      <trkpt lat="43.48049" lon="2.64616">
        <ele>536.5</ele>
        <time>2026-05-22T13:33:49Z</time>
      </trkpt>
      <trkpt lat="43.48049" lon="2.64611">
        <ele>536</ele>
        <time>2026-05-22T13:33:54Z</time>
      </trkpt>
      <trkpt lat="43.48045" lon="2.64602">
        <ele>535.4</ele>
        <time>2026-05-22T13:33:59Z</time>
      </trkpt>
      <trkpt lat="43.48042" lon="2.64596">
        <ele>535.2</ele>
        <time>2026-05-22T13:34:04Z</time>
      </trkpt>
      <trkpt lat="43.48041" lon="2.6459">
        <ele>534.7</ele>
        <time>2026-05-22T13:34:09Z</time>
      </trkpt>
      <trkpt lat="43.48039" lon="2.64586">
        <ele>534.6</ele>
        <time>2026-05-22T13:34:14Z</time>
      </trkpt>
      <trkpt lat="43.48036" lon="2.64581">
        <ele>534.2</ele>
        <time>2026-05-22T13:34:19Z</time>
      </trkpt>
      <trkpt lat="43.48032" lon="2.64577">
        <ele>533.8</ele>
        <time>2026-05-22T13:34:24Z</time>
      </trkpt>
      <trkpt lat="43.48029" lon="2.6457">
        <ele>532.6</ele>
        <time>2026-05-22T13:34:29Z</time>
      </trkpt>
      <trkpt lat="43.48028" lon="2.64562">
        <ele>530.8</ele>
        <time>2026-05-22T13:34:34Z</time>
      </trkpt>
      <trkpt lat="43.48026" lon="2.64554">
        <ele>529.1</ele>
        <time>2026-05-22T13:34:39Z</time>
      </trkpt>
      <trkpt lat="43.48023" lon="2.64547">
        <ele>527.8</ele>
        <time>2026-05-22T13:34:44Z</time>
      </trkpt>
      <trkpt lat="43.48022" lon="2.64542">
        <ele>526.8</ele>
        <time>2026-05-22T13:34:49Z</time>
      </trkpt>
      <trkpt lat="43.48021" lon="2.64536">
        <ele>525.5</ele>
        <time>2026-05-22T13:34:54Z</time>
      </trkpt>
      <trkpt lat="43.4802" lon="2.64529">
        <ele>523.9</ele>
        <time>2026-05-22T13:34:59Z</time>
      </trkpt>
      <trkpt lat="43.48017" lon="2.64524">
        <ele>523.2</ele>
        <time>2026-05-22T13:35:04Z</time>
      </trkpt>
      <trkpt lat="43.48013" lon="2.6452">
        <ele>522.8</ele>
        <time>2026-05-22T13:35:09Z</time>
      </trkpt>
      <trkpt lat="43.48009" lon="2.64515">
        <ele>522.2</ele>
        <time>2026-05-22T13:35:14Z</time>
      </trkpt>
      <trkpt lat="43.48004" lon="2.6451">
        <ele>521.8</ele>
        <time>2026-05-22T13:35:19Z</time>
      </trkpt>
      <trkpt lat="43.47999" lon="2.64505">
        <ele>521.2</ele>
        <time>2026-05-22T13:35:24Z</time>
      </trkpt>
      <trkpt lat="43.47996" lon="2.64502">
        <ele>520.5</ele>
        <time>2026-05-22T13:35:29Z</time>
      </trkpt>
      <trkpt lat="43.4799" lon="2.64497">
        <ele>519.2</ele>
        <time>2026-05-22T13:35:34Z</time>
      </trkpt>
      <trkpt lat="43.47985" lon="2.64493">
        <ele>518.2</ele>
        <time>2026-05-22T13:35:39Z</time>
      </trkpt>
      <trkpt lat="43.47979" lon="2.64488">
        <ele>516.9</ele>
        <time>2026-05-22T13:35:44Z</time>
      </trkpt>
      <trkpt lat="43.47974" lon="2.64485">
        <ele>516.3</ele>
        <time>2026-05-22T13:35:49Z</time>
      </trkpt>
      <trkpt lat="43.47969" lon="2.64481">
        <ele>515.5</ele>
        <time>2026-05-22T13:35:54Z</time>
      </trkpt>
      <trkpt lat="43.47966" lon="2.64478">
        <ele>514.8</ele>
        <time>2026-05-22T13:35:59Z</time>
      </trkpt>
      <trkpt lat="43.47961" lon="2.64472">
        <ele>513.6</ele>
        <time>2026-05-22T13:36:04Z</time>
      </trkpt>
      <trkpt lat="43.47957" lon="2.64468">
        <ele>512.9</ele>
        <time>2026-05-22T13:36:09Z</time>
      </trkpt>
      <trkpt lat="43.47952" lon="2.64463">
        <ele>512.1</ele>
        <time>2026-05-22T13:36:14Z</time>
      </trkpt>
      <trkpt lat="43.47946" lon="2.64459">
        <ele>511.7</ele>
        <time>2026-05-22T13:36:19Z</time>
      </trkpt>
      <trkpt lat="43.47942" lon="2.64457">
        <ele>511.6</ele>
        <time>2026-05-22T13:36:24Z</time>
      </trkpt>
      <trkpt lat="43.47937" lon="2.64452">
        <ele>511</ele>
        <time>2026-05-22T13:36:29Z</time>
      </trkpt>
      <trkpt lat="43.47932" lon="2.64445">
        <ele>510.1</ele>
        <time>2026-05-22T13:36:34Z</time>
      </trkpt>
      <trkpt lat="43.47928" lon="2.6444">
        <ele>509.6</ele>
        <time>2026-05-22T13:36:39Z</time>
      </trkpt>
      <trkpt lat="43.47922" lon="2.64433">
        <ele>509.1</ele>
        <time>2026-05-22T13:36:44Z</time>
      </trkpt>
      <trkpt lat="43.47916" lon="2.64428">
        <ele>508.7</ele>
        <time>2026-05-22T13:36:49Z</time>
      </trkpt>
      <trkpt lat="43.47911" lon="2.64421">
        <ele>506.1</ele>
        <time>2026-05-22T13:36:54Z</time>
      </trkpt>
      <trkpt lat="43.47906" lon="2.64415">
        <ele>503.5</ele>
        <time>2026-05-22T13:36:59Z</time>
      </trkpt>
      <trkpt lat="43.47903" lon="2.64408">
        <ele>501</ele>
        <time>2026-05-22T13:37:04Z</time>
      </trkpt>
      <trkpt lat="43.47899" lon="2.64401">
        <ele>498.2</ele>
        <time>2026-05-22T13:37:09Z</time>
      </trkpt>
      <trkpt lat="43.47892" lon="2.64391">
        <ele>494.1</ele>
        <time>2026-05-22T13:37:14Z</time>
      </trkpt>
      <trkpt lat="43.47887" lon="2.64385">
        <ele>491.6</ele>
        <time>2026-05-22T13:37:19Z</time>
      </trkpt>
      <trkpt lat="43.47884" lon="2.64379">
        <ele>489.6</ele>
        <time>2026-05-22T13:37:24Z</time>
      </trkpt>
      <trkpt lat="43.47881" lon="2.64373">
        <ele>487.7</ele>
        <time>2026-05-22T13:37:29Z</time>
      </trkpt>
      <trkpt lat="43.47879" lon="2.64369">
        <ele>486.4</ele>
        <time>2026-05-22T13:37:34Z</time>
      </trkpt>
      <trkpt lat="43.47874" lon="2.64364">
        <ele>484.4</ele>
        <time>2026-05-22T13:37:39Z</time>
      </trkpt>
      <trkpt lat="43.4787" lon="2.64359">
        <ele>482.6</ele>
        <time>2026-05-22T13:37:44Z</time>
      </trkpt>
      <trkpt lat="43.47865" lon="2.64353">
        <ele>480.5</ele>
        <time>2026-05-22T13:37:49Z</time>
      </trkpt>
      <trkpt lat="43.4786" lon="2.64347">
        <ele>478.5</ele>
        <time>2026-05-22T13:37:54Z</time>
      </trkpt>
      <trkpt lat="43.47855" lon="2.6434">
        <ele>476.5</ele>
        <time>2026-05-22T13:37:59Z</time>
      </trkpt>
      <trkpt lat="43.47851" lon="2.64335">
        <ele>475</ele>
        <time>2026-05-22T13:38:04Z</time>
      </trkpt>
      <trkpt lat="43.47846" lon="2.64326">
        <ele>472.3</ele>
        <time>2026-05-22T13:38:09Z</time>
      </trkpt>
      <trkpt lat="43.47841" lon="2.64319">
        <ele>470</ele>
        <time>2026-05-22T13:38:14Z</time>
      </trkpt>
      <trkpt lat="43.47834" lon="2.64311">
        <ele>467.3</ele>
        <time>2026-05-22T13:38:19Z</time>
      </trkpt>
      <trkpt lat="43.4783" lon="2.64305">
        <ele>464.6</ele>
        <time>2026-05-22T13:38:24Z</time>
      </trkpt>
      <trkpt lat="43.47827" lon="2.64296">
        <ele>461.6</ele>
        <time>2026-05-22T13:38:29Z</time>
      </trkpt>
      <trkpt lat="43.47821" lon="2.64293">
        <ele>458.7</ele>
        <time>2026-05-22T13:38:34Z</time>
      </trkpt>
      <trkpt lat="43.47817" lon="2.64288">
        <ele>456.2</ele>
        <time>2026-05-22T13:38:39Z</time>
      </trkpt>
      <trkpt lat="43.47811" lon="2.64281">
        <ele>452.6</ele>
        <time>2026-05-22T13:38:44Z</time>
      </trkpt>
      <trkpt lat="43.47806" lon="2.64275">
        <ele>449.6</ele>
        <time>2026-05-22T13:38:49Z</time>
      </trkpt>
      <trkpt lat="43.47801" lon="2.6427">
        <ele>446.9</ele>
        <time>2026-05-22T13:38:54Z</time>
      </trkpt>
      <trkpt lat="43.47798" lon="2.64264">
        <ele>444.7</ele>
        <time>2026-05-22T13:38:59Z</time>
      </trkpt>
      <trkpt lat="43.47794" lon="2.64259">
        <ele>442.4</ele>
        <time>2026-05-22T13:39:04Z</time>
      </trkpt>
      <trkpt lat="43.47789" lon="2.64255">
        <ele>440</ele>
        <time>2026-05-22T13:39:09Z</time>
      </trkpt>
      <trkpt lat="43.47783" lon="2.64249">
        <ele>436.9</ele>
        <time>2026-05-22T13:39:14Z</time>
      </trkpt>
      <trkpt lat="43.47779" lon="2.64246">
        <ele>435</ele>
        <time>2026-05-22T13:39:19Z</time>
      </trkpt>
      <trkpt lat="43.47775" lon="2.64244">
        <ele>433.3</ele>
        <time>2026-05-22T13:39:24Z</time>
      </trkpt>
      <trkpt lat="43.47769" lon="2.64243">
        <ele>431.1</ele>
        <time>2026-05-22T13:39:29Z</time>
      </trkpt>
      <trkpt lat="43.47765" lon="2.64242">
        <ele>429.7</ele>
        <time>2026-05-22T13:39:34Z</time>
      </trkpt>
      <trkpt lat="43.47761" lon="2.64244">
        <ele>428.7</ele>
        <time>2026-05-22T13:39:39Z</time>
      </trkpt>
      <trkpt lat="43.47757" lon="2.64247">
        <ele>427.9</ele>
        <time>2026-05-22T13:39:44Z</time>
      </trkpt>
      <trkpt lat="43.47753" lon="2.64251">
        <ele>427.2</ele>
        <time>2026-05-22T13:39:49Z</time>
      </trkpt>
      <trkpt lat="43.47748" lon="2.64255">
        <ele>426.2</ele>
        <time>2026-05-22T13:39:54Z</time>
      </trkpt>
      <trkpt lat="43.47744" lon="2.64259">
        <ele>425.7</ele>
        <time>2026-05-22T13:39:59Z</time>
      </trkpt>
      <trkpt lat="43.47741" lon="2.64263">
        <ele>425.4</ele>
        <time>2026-05-22T13:40:04Z</time>
      </trkpt>
      <trkpt lat="43.47737" lon="2.64266">
        <ele>424.7</ele>
        <time>2026-05-22T13:40:09Z</time>
      </trkpt>
      <trkpt lat="43.47735" lon="2.64272">
        <ele>425</ele>
        <time>2026-05-22T13:40:14Z</time>
      </trkpt>
      <trkpt lat="43.47731" lon="2.64274">
        <ele>424.1</ele>
        <time>2026-05-22T13:40:19Z</time>
      </trkpt>
      <trkpt lat="43.47728" lon="2.64277">
        <ele>423.7</ele>
        <time>2026-05-22T13:40:24Z</time>
      </trkpt>
      <trkpt lat="43.47726" lon="2.64282">
        <ele>423.7</ele>
        <time>2026-05-22T13:40:29Z</time>
      </trkpt>
      <trkpt lat="43.47721" lon="2.64287">
        <ele>422.9</ele>
        <time>2026-05-22T13:40:34Z</time>
      </trkpt>
      <trkpt lat="43.47721" lon="2.64288">
        <ele>423</ele>
        <time>2026-05-22T13:40:39Z</time>
      </trkpt>
      <trkpt lat="43.47721" lon="2.64288">
        <ele>423</ele>
        <time>2026-05-22T13:40:44Z</time>
      </trkpt>
      <trkpt lat="43.47721" lon="2.64288">
        <ele>423</ele>
        <time>2026-05-22T13:40:49Z</time>
      </trkpt>
      <trkpt lat="43.47721" lon="2.64288">
        <ele>423</ele>
        <time>2026-05-22T13:40:54Z</time>
      </trkpt>
      <trkpt lat="43.47716" lon="2.64293">
        <ele>422.2</ele>
        <time>2026-05-22T13:40:59Z</time>
      </trkpt>
      <trkpt lat="43.47713" lon="2.64298">
        <ele>421.9</ele>
        <time>2026-05-22T13:41:04Z</time>
      </trkpt>
      <trkpt lat="43.4771" lon="2.64301">
        <ele>421.3</ele>
        <time>2026-05-22T13:41:09Z</time>
      </trkpt>
      <trkpt lat="43.47709" lon="2.64302">
        <ele>421.1</ele>
        <time>2026-05-22T13:41:14Z</time>
      </trkpt>
      <trkpt lat="43.47708" lon="2.64301">
        <ele>420.7</ele>
        <time>2026-05-22T13:41:19Z</time>
      </trkpt>
      <trkpt lat="43.47708" lon="2.64301">
        <ele>420.7</ele>
        <time>2026-05-22T13:41:24Z</time>
      </trkpt>
      <trkpt lat="43.47708" lon="2.64301">
        <ele>420.7</ele>
        <time>2026-05-22T13:41:29Z</time>
      </trkpt>
      <trkpt lat="43.47708" lon="2.64301">
        <ele>420.7</ele>
        <time>2026-05-22T13:41:34Z</time>
      </trkpt>
      <trkpt lat="43.47708" lon="2.64301">
        <ele>420.7</ele>
        <time>2026-05-22T13:41:39Z</time>
      </trkpt>
      <trkpt lat="43.47708" lon="2.64301">
        <ele>420.7</ele>
        <time>2026-05-22T13:41:44Z</time>
      </trkpt>
      <trkpt lat="43.47712" lon="2.64296">
        <ele>421.3</ele>
        <time>2026-05-22T13:41:49Z</time>
      </trkpt>
      <trkpt lat="43.47711" lon="2.6429">
        <ele>420.3</ele>
        <time>2026-05-22T13:41:54Z</time>
      </trkpt>
      <trkpt lat="43.47709" lon="2.64283">
        <ele>419</ele>
        <time>2026-05-22T13:41:59Z</time>
      </trkpt>
      <trkpt lat="43.4771" lon="2.64278">
        <ele>418.7</ele>
        <time>2026-05-22T13:42:04Z</time>
      </trkpt>
      <trkpt lat="43.47711" lon="2.64275">
        <ele>418.6</ele>
        <time>2026-05-22T13:42:09Z</time>
      </trkpt>
      <trkpt lat="43.47712" lon="2.64272">
        <ele>418.5</ele>
        <time>2026-05-22T13:42:14Z</time>
      </trkpt>
      <trkpt lat="43.47711" lon="2.64265">
        <ele>417.4</ele>
        <time>2026-05-22T13:42:19Z</time>
      </trkpt>
      <trkpt lat="43.47711" lon="2.64258">
        <ele>416.6</ele>
        <time>2026-05-22T13:42:24Z</time>
      </trkpt>
      <trkpt lat="43.47711" lon="2.6425">
        <ele>415.7</ele>
        <time>2026-05-22T13:42:29Z</time>
      </trkpt>
      <trkpt lat="43.47713" lon="2.64242">
        <ele>415.3</ele>
        <time>2026-05-22T13:42:34Z</time>
      </trkpt>
      <trkpt lat="43.47714" lon="2.64234">
        <ele>414.7</ele>
        <time>2026-05-22T13:42:39Z</time>
      </trkpt>
      <trkpt lat="43.47715" lon="2.64225">
        <ele>413.9</ele>
        <time>2026-05-22T13:42:44Z</time>
      </trkpt>
      <trkpt lat="43.47718" lon="2.64217">
        <ele>413.6</ele>
        <time>2026-05-22T13:42:49Z</time>
      </trkpt>
      <trkpt lat="43.47719" lon="2.64209">
        <ele>412.9</ele>
        <time>2026-05-22T13:42:54Z</time>
      </trkpt>
      <trkpt lat="43.47721" lon="2.64201">
        <ele>412.3</ele>
        <time>2026-05-22T13:42:59Z</time>
      </trkpt>
      <trkpt lat="43.47723" lon="2.64194">
        <ele>411.9</ele>
        <time>2026-05-22T13:43:04Z</time>
      </trkpt>
      <trkpt lat="43.47724" lon="2.64186">
        <ele>411.1</ele>
        <time>2026-05-22T13:43:09Z</time>
      </trkpt>
      <trkpt lat="43.47726" lon="2.6418">
        <ele>410.7</ele>
        <time>2026-05-22T13:43:14Z</time>
      </trkpt>
      <trkpt lat="43.47727" lon="2.64172">
        <ele>409.8</ele>
        <time>2026-05-22T13:43:19Z</time>
      </trkpt>
      <trkpt lat="43.47728" lon="2.64166">
        <ele>409.2</ele>
        <time>2026-05-22T13:43:24Z</time>
      </trkpt>
      <trkpt lat="43.4773" lon="2.64162">
        <ele>409.2</ele>
        <time>2026-05-22T13:43:29Z</time>
      </trkpt>
      <trkpt lat="43.47733" lon="2.64157">
        <ele>409.2</ele>
        <time>2026-05-22T13:43:34Z</time>
      </trkpt>
      <trkpt lat="43.47736" lon="2.64153">
        <ele>409.2</ele>
        <time>2026-05-22T13:43:39Z</time>
      </trkpt>
      <trkpt lat="43.47739" lon="2.64147">
        <ele>409</ele>
        <time>2026-05-22T13:43:44Z</time>
      </trkpt>
      <trkpt lat="43.47742" lon="2.6414">
        <ele>408.7</ele>
        <time>2026-05-22T13:43:49Z</time>
      </trkpt>
      <trkpt lat="43.47747" lon="2.64135">
        <ele>408.8</ele>
        <time>2026-05-22T13:43:54Z</time>
      </trkpt>
      <trkpt lat="43.4775" lon="2.64125">
        <ele>408</ele>
        <time>2026-05-22T13:43:59Z</time>
      </trkpt>
      <trkpt lat="43.47752" lon="2.64112">
        <ele>406.7</ele>
        <time>2026-05-22T13:44:04Z</time>
      </trkpt>
      <trkpt lat="43.47751" lon="2.64103">
        <ele>405.5</ele>
        <time>2026-05-22T13:44:09Z</time>
      </trkpt>
      <trkpt lat="43.4775" lon="2.641">
        <ele>405</ele>
        <time>2026-05-22T13:44:14Z</time>
      </trkpt>
      <trkpt lat="43.47749" lon="2.64099">
        <ele>404.8</ele>
        <time>2026-05-22T13:44:19Z</time>
      </trkpt>
      <trkpt lat="43.47749" lon="2.64099">
        <ele>404.8</ele>
        <time>2026-05-22T13:44:24Z</time>
      </trkpt>
      <trkpt lat="43.47749" lon="2.64099">
        <ele>404.8</ele>
        <time>2026-05-22T13:44:29Z</time>
      </trkpt>
      <trkpt lat="43.47749" lon="2.64099">
        <ele>404.8</ele>
        <time>2026-05-22T13:44:34Z</time>
      </trkpt>
      <trkpt lat="43.47749" lon="2.64099">
        <ele>404.8</ele>
        <time>2026-05-22T13:44:39Z</time>
      </trkpt>
      <trkpt lat="43.47749" lon="2.64099">
        <ele>404.8</ele>
        <time>2026-05-22T13:44:44Z</time>
      </trkpt>
      <trkpt lat="43.47749" lon="2.64099">
        <ele>404.8</ele>
        <time>2026-05-22T13:44:49Z</time>
      </trkpt>
      <trkpt lat="43.47749" lon="2.64099">
        <ele>404.8</ele>
        <time>2026-05-22T13:44:54Z</time>
      </trkpt>
      <trkpt lat="43.47749" lon="2.64099">
        <ele>404.8</ele>
        <time>2026-05-22T13:44:59Z</time>
      </trkpt>
      <trkpt lat="43.47749" lon="2.64099">
        <ele>404.8</ele>
        <time>2026-05-22T13:45:04Z</time>
      </trkpt>
      <trkpt lat="43.47746" lon="2.641">
        <ele>404.6</ele>
        <time>2026-05-22T13:45:09Z</time>
      </trkpt>
      <trkpt lat="43.47743" lon="2.64101">
        <ele>404.5</ele>
        <time>2026-05-22T13:45:14Z</time>
      </trkpt>
      <trkpt lat="43.47738" lon="2.64103">
        <ele>404.2</ele>
        <time>2026-05-22T13:45:19Z</time>
      </trkpt>
      <trkpt lat="43.47732" lon="2.64104">
        <ele>403.8</ele>
        <time>2026-05-22T13:45:24Z</time>
      </trkpt>
      <trkpt lat="43.47727" lon="2.64105">
        <ele>403.4</ele>
        <time>2026-05-22T13:45:29Z</time>
      </trkpt>
      <trkpt lat="43.4772" lon="2.64109">
        <ele>403</ele>
        <time>2026-05-22T13:45:34Z</time>
      </trkpt>
      <trkpt lat="43.47718" lon="2.64111">
        <ele>403</ele>
        <time>2026-05-22T13:45:39Z</time>
      </trkpt>
      <trkpt lat="43.47717" lon="2.64111">
        <ele>402.9</ele>
        <time>2026-05-22T13:45:44Z</time>
      </trkpt>
      <trkpt lat="43.47711" lon="2.64114">
        <ele>402.5</ele>
        <time>2026-05-22T13:45:49Z</time>
      </trkpt>
      <trkpt lat="43.47705" lon="2.64118">
        <ele>402.1</ele>
        <time>2026-05-22T13:45:54Z</time>
      </trkpt>
      <trkpt lat="43.477" lon="2.64119">
        <ele>401.6</ele>
        <time>2026-05-22T13:45:59Z</time>
      </trkpt>
      <trkpt lat="43.47699" lon="2.64118">
        <ele>401.5</ele>
        <time>2026-05-22T13:46:04Z</time>
      </trkpt>
      <trkpt lat="43.47697" lon="2.64113">
        <ele>400.9</ele>
        <time>2026-05-22T13:46:09Z</time>
      </trkpt>
      <trkpt lat="43.47699" lon="2.64114">
        <ele>401.2</ele>
        <time>2026-05-22T13:46:14Z</time>
      </trkpt>
      <trkpt lat="43.47702" lon="2.64111">
        <ele>401.3</ele>
        <time>2026-05-22T13:46:19Z</time>
      </trkpt>
      <trkpt lat="43.47705" lon="2.64103">
        <ele>401.1</ele>
        <time>2026-05-22T13:46:24Z</time>
      </trkpt>
      <trkpt lat="43.4771" lon="2.64095">
        <ele>401</ele>
        <time>2026-05-22T13:46:29Z</time>
      </trkpt>
      <trkpt lat="43.47713" lon="2.64088">
        <ele>400.7</ele>
        <time>2026-05-22T13:46:34Z</time>
      </trkpt>
      <trkpt lat="43.47718" lon="2.64084">
        <ele>400.8</ele>
        <time>2026-05-22T13:46:39Z</time>
      </trkpt>
      <trkpt lat="43.47723" lon="2.64078">
        <ele>400.8</ele>
        <time>2026-05-22T13:46:44Z</time>
      </trkpt>
      <trkpt lat="43.47729" lon="2.64071">
        <ele>400.9</ele>
        <time>2026-05-22T13:46:49Z</time>
      </trkpt>
      <trkpt lat="43.47735" lon="2.64067">
        <ele>401.2</ele>
        <time>2026-05-22T13:46:54Z</time>
      </trkpt>
      <trkpt lat="43.47741" lon="2.64063">
        <ele>401.4</ele>
        <time>2026-05-22T13:46:59Z</time>
      </trkpt>
      <trkpt lat="43.47744" lon="2.64056">
        <ele>401.3</ele>
        <time>2026-05-22T13:47:04Z</time>
      </trkpt>
      <trkpt lat="43.47738" lon="2.64047">
        <ele>400.5</ele>
        <time>2026-05-22T13:47:09Z</time>
      </trkpt>
      <trkpt lat="43.47731" lon="2.64055">
        <ele>400.3</ele>
        <time>2026-05-22T13:47:14Z</time>
      </trkpt>
      <trkpt lat="43.47725" lon="2.64059">
        <ele>400.1</ele>
        <time>2026-05-22T13:47:19Z</time>
      </trkpt>
      <trkpt lat="43.47719" lon="2.64063">
        <ele>399.9</ele>
        <time>2026-05-22T13:47:24Z</time>
      </trkpt>
      <trkpt lat="43.47713" lon="2.64068">
        <ele>399.7</ele>
        <time>2026-05-22T13:47:29Z</time>
      </trkpt>
      <trkpt lat="43.47708" lon="2.64071">
        <ele>399.5</ele>
        <time>2026-05-22T13:47:34Z</time>
      </trkpt>
      <trkpt lat="43.47704" lon="2.64078">
        <ele>399.5</ele>
        <time>2026-05-22T13:47:39Z</time>
      </trkpt>
      <trkpt lat="43.47699" lon="2.64084">
        <ele>399.4</ele>
        <time>2026-05-22T13:47:44Z</time>
      </trkpt>
      <trkpt lat="43.47692" lon="2.64086">
        <ele>399</ele>
        <time>2026-05-22T13:47:49Z</time>
      </trkpt>
      <trkpt lat="43.47684" lon="2.64093">
        <ele>398.7</ele>
        <time>2026-05-22T13:47:54Z</time>
      </trkpt>
      <trkpt lat="43.4768" lon="2.64095">
        <ele>398.4</ele>
        <time>2026-05-22T13:47:59Z</time>
      </trkpt>
      <trkpt lat="43.47672" lon="2.64094">
        <ele>397.7</ele>
        <time>2026-05-22T13:48:04Z</time>
      </trkpt>
      <trkpt lat="43.47667" lon="2.64097">
        <ele>397.4</ele>
        <time>2026-05-22T13:48:09Z</time>
      </trkpt>
      <trkpt lat="43.47664" lon="2.64101">
        <ele>397.3</ele>
        <time>2026-05-22T13:48:14Z</time>
      </trkpt>
      <trkpt lat="43.47657" lon="2.64105">
        <ele>397.2</ele>
        <time>2026-05-22T13:48:19Z</time>
      </trkpt>
      <trkpt lat="43.47648" lon="2.64111">
        <ele>397.1</ele>
        <time>2026-05-22T13:48:24Z</time>
      </trkpt>
      <trkpt lat="43.47641" lon="2.64108">
        <ele>396.8</ele>
        <time>2026-05-22T13:48:29Z</time>
      </trkpt>
      <trkpt lat="43.47643" lon="2.64099">
        <ele>396.6</ele>
        <time>2026-05-22T13:48:34Z</time>
      </trkpt>
      <trkpt lat="43.47643" lon="2.6409">
        <ele>396.3</ele>
        <time>2026-05-22T13:48:39Z</time>
      </trkpt>
      <trkpt lat="43.47646" lon="2.64084">
        <ele>396.3</ele>
        <time>2026-05-22T13:48:44Z</time>
      </trkpt>
      <trkpt lat="43.47647" lon="2.64078">
        <ele>396.2</ele>
        <time>2026-05-22T13:48:49Z</time>
      </trkpt>
      <trkpt lat="43.47646" lon="2.64069">
        <ele>395.9</ele>
        <time>2026-05-22T13:48:54Z</time>
      </trkpt>
      <trkpt lat="43.47645" lon="2.64061">
        <ele>395.7</ele>
        <time>2026-05-22T13:48:59Z</time>
      </trkpt>
      <trkpt lat="43.47646" lon="2.64052">
        <ele>395.5</ele>
        <time>2026-05-22T13:49:04Z</time>
      </trkpt>
      <trkpt lat="43.47644" lon="2.6404">
        <ele>395.2</ele>
        <time>2026-05-22T13:49:09Z</time>
      </trkpt>
      <trkpt lat="43.4764" lon="2.64025">
        <ele>394.8</ele>
        <time>2026-05-22T13:49:14Z</time>
      </trkpt>
      <trkpt lat="43.47641" lon="2.64015">
        <ele>394.6</ele>
        <time>2026-05-22T13:49:19Z</time>
      </trkpt>
      <trkpt lat="43.47642" lon="2.64003">
        <ele>394.4</ele>
        <time>2026-05-22T13:49:24Z</time>
      </trkpt>
      <trkpt lat="43.47643" lon="2.63992">
        <ele>394.2</ele>
        <time>2026-05-22T13:49:29Z</time>
      </trkpt>
      <trkpt lat="43.47644" lon="2.63985">
        <ele>394.2</ele>
        <time>2026-05-22T13:49:34Z</time>
      </trkpt>
      <trkpt lat="43.47644" lon="2.63975">
        <ele>394.1</ele>
        <time>2026-05-22T13:49:39Z</time>
      </trkpt>
      <trkpt lat="43.47644" lon="2.63967">
        <ele>394.1</ele>
        <time>2026-05-22T13:49:44Z</time>
      </trkpt>
      <trkpt lat="43.47642" lon="2.63958">
        <ele>394.1</ele>
        <time>2026-05-22T13:49:49Z</time>
      </trkpt>
      <trkpt lat="43.47641" lon="2.63947">
        <ele>394.1</ele>
        <time>2026-05-22T13:49:54Z</time>
      </trkpt>
      <trkpt lat="43.47641" lon="2.63937">
        <ele>394</ele>
        <time>2026-05-22T13:49:59Z</time>
      </trkpt>
      <trkpt lat="43.47641" lon="2.63935">
        <ele>394</ele>
        <time>2026-05-22T13:50:04Z</time>
      </trkpt>
      <trkpt lat="43.47641" lon="2.63934">
        <ele>394</ele>
        <time>2026-05-22T13:50:09Z</time>
      </trkpt>
      <trkpt lat="43.47641" lon="2.63934">
        <ele>394</ele>
        <time>2026-05-22T13:50:14Z</time>
      </trkpt>
      <trkpt lat="43.47638" lon="2.63932">
        <ele>394.1</ele>
        <time>2026-05-22T13:50:19Z</time>
      </trkpt>
      <trkpt lat="43.47638" lon="2.63928">
        <ele>394.1</ele>
        <time>2026-05-22T13:50:24Z</time>
      </trkpt>
      <trkpt lat="43.47639" lon="2.63919">
        <ele>394</ele>
        <time>2026-05-22T13:50:29Z</time>
      </trkpt>
      <trkpt lat="43.47639" lon="2.63912">
        <ele>394.2</ele>
        <time>2026-05-22T13:50:34Z</time>
      </trkpt>
      <trkpt lat="43.47637" lon="2.63906">
        <ele>394.6</ele>
        <time>2026-05-22T13:50:39Z</time>
      </trkpt>
      <trkpt lat="43.47636" lon="2.63905">
        <ele>394.7</ele>
        <time>2026-05-22T13:50:44Z</time>
      </trkpt>
      <trkpt lat="43.47635" lon="2.63903">
        <ele>394.8</ele>
        <time>2026-05-22T13:50:49Z</time>
      </trkpt>
      <trkpt lat="43.47631" lon="2.63896">
        <ele>395.4</ele>
        <time>2026-05-22T13:50:54Z</time>
      </trkpt>
      <trkpt lat="43.4763" lon="2.63889">
        <ele>395.8</ele>
        <time>2026-05-22T13:50:59Z</time>
      </trkpt>
      <trkpt lat="43.47631" lon="2.63883">
        <ele>396.1</ele>
        <time>2026-05-22T13:51:04Z</time>
      </trkpt>
      <trkpt lat="43.47631" lon="2.63875">
        <ele>396.5</ele>
        <time>2026-05-22T13:51:09Z</time>
      </trkpt>
      <trkpt lat="43.47633" lon="2.63868">
        <ele>396.7</ele>
        <time>2026-05-22T13:51:14Z</time>
      </trkpt>
      <trkpt lat="43.47633" lon="2.63864">
        <ele>396.9</ele>
        <time>2026-05-22T13:51:19Z</time>
      </trkpt>
      <trkpt lat="43.47634" lon="2.63862">
        <ele>396.9</ele>
        <time>2026-05-22T13:51:24Z</time>
      </trkpt>
      <trkpt lat="43.47631" lon="2.63854">
        <ele>397.6</ele>
        <time>2026-05-22T13:51:29Z</time>
      </trkpt>
      <trkpt lat="43.47627" lon="2.63848">
        <ele>398.4</ele>
        <time>2026-05-22T13:51:34Z</time>
      </trkpt>
      <trkpt lat="43.47625" lon="2.63842">
        <ele>399</ele>
        <time>2026-05-22T13:51:39Z</time>
      </trkpt>
      <trkpt lat="43.47622" lon="2.63839">
        <ele>399.5</ele>
        <time>2026-05-22T13:51:44Z</time>
      </trkpt>
      <trkpt lat="43.47621" lon="2.63839">
        <ele>399.7</ele>
        <time>2026-05-22T13:51:49Z</time>
      </trkpt>
      <trkpt lat="43.4762" lon="2.63831">
        <ele>400.2</ele>
        <time>2026-05-22T13:51:54Z</time>
      </trkpt>
      <trkpt lat="43.47621" lon="2.6382">
        <ele>400.1</ele>
        <time>2026-05-22T13:51:59Z</time>
      </trkpt>
      <trkpt lat="43.47618" lon="2.63811">
        <ele>400.5</ele>
        <time>2026-05-22T13:52:04Z</time>
        <extensions>
          <visugpx:TrkExtension xmlns:visugpx="https://www.visugpx.com/editgpx/">
            <visugpx:node>1</visugpx:node>
            </visugpx:TrkExtension>
        </extensions>
      </trkpt>
      <trkpt lat="43.47621" lon="2.6381">
        <ele>400.1</ele>
        <time>2026-05-22T14:08:24Z</time>
      </trkpt>
      <trkpt lat="43.4762" lon="2.63816">
        <ele>400.2</ele>
        <time>2026-05-22T14:08:29Z</time>
      </trkpt>
      <trkpt lat="43.4762" lon="2.63824">
        <ele>400.2</ele>
        <time>2026-05-22T14:08:34Z</time>
      </trkpt>
      <trkpt lat="43.47621" lon="2.63832">
        <ele>400</ele>
        <time>2026-05-22T14:08:39Z</time>
      </trkpt>
      <trkpt lat="43.47624" lon="2.63843">
        <ele>399</ele>
        <time>2026-05-22T14:08:44Z</time>
      </trkpt>
      <trkpt lat="43.47628" lon="2.63852">
        <ele>398</ele>
        <time>2026-05-22T14:08:49Z</time>
      </trkpt>
      <trkpt lat="43.4763" lon="2.63859">
        <ele>397.4</ele>
        <time>2026-05-22T14:08:54Z</time>
      </trkpt>
      <trkpt lat="43.47631" lon="2.63854">
        <ele>397.6</ele>
        <time>2026-05-22T14:08:59Z</time>
      </trkpt>
      <trkpt lat="43.47632" lon="2.63845">
        <ele>398</ele>
        <time>2026-05-22T14:09:04Z</time>
      </trkpt>
      <trkpt lat="43.47632" lon="2.63836">
        <ele>398.4</ele>
        <time>2026-05-22T14:09:09Z</time>
      </trkpt>
      <trkpt lat="43.47632" lon="2.63831">
        <ele>398.6</ele>
        <time>2026-05-22T14:09:14Z</time>
      </trkpt>
      <trkpt lat="43.47634" lon="2.63828">
        <ele>398.3</ele>
        <time>2026-05-22T14:09:19Z</time>
      </trkpt>
      <trkpt lat="43.47631" lon="2.63815">
        <ele>398.6</ele>
        <time>2026-05-22T14:09:24Z</time>
      </trkpt>
      <trkpt lat="43.47626" lon="2.638">
        <ele>399.3</ele>
        <time>2026-05-22T14:09:29Z</time>
      </trkpt>
      <trkpt lat="43.47623" lon="2.6379">
        <ele>399.8</ele>
        <time>2026-05-22T14:09:34Z</time>
      </trkpt>
      <trkpt lat="43.47619" lon="2.63778">
        <ele>400.5</ele>
        <time>2026-05-22T14:09:39Z</time>
      </trkpt>
      <trkpt lat="43.47617" lon="2.6377">
        <ele>400.8</ele>
        <time>2026-05-22T14:09:44Z</time>
      </trkpt>
      <trkpt lat="43.47618" lon="2.63761">
        <ele>400.7</ele>
        <time>2026-05-22T14:09:49Z</time>
      </trkpt>
      <trkpt lat="43.47616" lon="2.63754">
        <ele>401.1</ele>
        <time>2026-05-22T14:09:54Z</time>
      </trkpt>
      <trkpt lat="43.47617" lon="2.63747">
        <ele>400.8</ele>
        <time>2026-05-22T14:09:59Z</time>
      </trkpt>
      <trkpt lat="43.47619" lon="2.63737">
        <ele>400.1</ele>
        <time>2026-05-22T14:10:04Z</time>
      </trkpt>
      <trkpt lat="43.47617" lon="2.63727">
        <ele>400.1</ele>
        <time>2026-05-22T14:10:09Z</time>
      </trkpt>
      <trkpt lat="43.47616" lon="2.63715">
        <ele>399.8</ele>
        <time>2026-05-22T14:10:14Z</time>
      </trkpt>
      <trkpt lat="43.47614" lon="2.63703">
        <ele>399.5</ele>
        <time>2026-05-22T14:10:19Z</time>
      </trkpt>
      <trkpt lat="43.47609" lon="2.63692">
        <ele>399.7</ele>
        <time>2026-05-22T14:10:24Z</time>
      </trkpt>
      <trkpt lat="43.47601" lon="2.63688">
        <ele>400.5</ele>
        <time>2026-05-22T14:10:29Z</time>
      </trkpt>
      <trkpt lat="43.47595" lon="2.63687">
        <ele>401.1</ele>
        <time>2026-05-22T14:10:34Z</time>
      </trkpt>
      <trkpt lat="43.47588" lon="2.63688">
        <ele>402</ele>
        <time>2026-05-22T14:10:39Z</time>
      </trkpt>
      <trkpt lat="43.47582" lon="2.63684">
        <ele>402.5</ele>
        <time>2026-05-22T14:10:44Z</time>
      </trkpt>
      <trkpt lat="43.47582" lon="2.6368">
        <ele>402.2</ele>
        <time>2026-05-22T14:10:49Z</time>
      </trkpt>
      <trkpt lat="43.47582" lon="2.6368">
        <ele>402.2</ele>
        <time>2026-05-22T14:10:54Z</time>
      </trkpt>
      <trkpt lat="43.47582" lon="2.6368">
        <ele>402.2</ele>
        <time>2026-05-22T14:10:59Z</time>
      </trkpt>
      <trkpt lat="43.47582" lon="2.6368">
        <ele>402.2</ele>
        <time>2026-05-22T14:11:04Z</time>
      </trkpt>
      <trkpt lat="43.47582" lon="2.6368">
        <ele>402.2</ele>
        <time>2026-05-22T14:11:09Z</time>
      </trkpt>
      <trkpt lat="43.47582" lon="2.6368">
        <ele>402.2</ele>
        <time>2026-05-22T14:11:14Z</time>
      </trkpt>
      <trkpt lat="43.47582" lon="2.63673">
        <ele>401.7</ele>
        <time>2026-05-22T14:11:19Z</time>
      </trkpt>
      <trkpt lat="43.47582" lon="2.63673">
        <ele>401.7</ele>
        <time>2026-05-22T14:11:24Z</time>
      </trkpt>
      <trkpt lat="43.47581" lon="2.63669">
        <ele>401.5</ele>
        <time>2026-05-22T14:11:29Z</time>
      </trkpt>
      <trkpt lat="43.4758" lon="2.63665">
        <ele>401.4</ele>
        <time>2026-05-22T14:11:34Z</time>
      </trkpt>
      <trkpt lat="43.47578" lon="2.63661">
        <ele>401.5</ele>
        <time>2026-05-22T14:11:39Z</time>
      </trkpt>
      <trkpt lat="43.47575" lon="2.63651">
        <ele>401.5</ele>
        <time>2026-05-22T14:11:44Z</time>
      </trkpt>
      <trkpt lat="43.47574" lon="2.63641">
        <ele>401.1</ele>
        <time>2026-05-22T14:11:49Z</time>
      </trkpt>
      <trkpt lat="43.47577" lon="2.63631">
        <ele>400.2</ele>
        <time>2026-05-22T14:11:54Z</time>
      </trkpt>
      <trkpt lat="43.47574" lon="2.63623">
        <ele>400.2</ele>
        <time>2026-05-22T14:11:59Z</time>
      </trkpt>
      <trkpt lat="43.47576" lon="2.63613">
        <ele>399.4</ele>
        <time>2026-05-22T14:12:04Z</time>
      </trkpt>
      <trkpt lat="43.47574" lon="2.63603">
        <ele>399.1</ele>
        <time>2026-05-22T14:12:09Z</time>
      </trkpt>
      <trkpt lat="43.47568" lon="2.636">
        <ele>399.8</ele>
        <time>2026-05-22T14:12:14Z</time>
      </trkpt>
      <trkpt lat="43.4756" lon="2.63602">
        <ele>400.9</ele>
        <time>2026-05-22T14:12:19Z</time>
      </trkpt>
      <trkpt lat="43.47552" lon="2.63602">
        <ele>401.9</ele>
        <time>2026-05-22T14:12:24Z</time>
      </trkpt>
      <trkpt lat="43.47545" lon="2.63602">
        <ele>402.8</ele>
        <time>2026-05-22T14:12:29Z</time>
      </trkpt>
      <trkpt lat="43.47539" lon="2.63603">
        <ele>403.6</ele>
        <time>2026-05-22T14:12:34Z</time>
      </trkpt>
      <trkpt lat="43.47533" lon="2.63603">
        <ele>404.4</ele>
        <time>2026-05-22T14:12:39Z</time>
      </trkpt>
      <trkpt lat="43.47528" lon="2.63605">
        <ele>405.2</ele>
        <time>2026-05-22T14:12:44Z</time>
      </trkpt>
      <trkpt lat="43.47524" lon="2.63599">
        <ele>405.3</ele>
        <time>2026-05-22T14:12:49Z</time>
      </trkpt>
      <trkpt lat="43.47523" lon="2.63589">
        <ele>404.7</ele>
        <time>2026-05-22T14:12:54Z</time>
      </trkpt>
      <trkpt lat="43.47522" lon="2.6358">
        <ele>404.3</ele>
        <time>2026-05-22T14:12:59Z</time>
      </trkpt>
      <trkpt lat="43.47519" lon="2.63571">
        <ele>404.6</ele>
        <time>2026-05-22T14:13:04Z</time>
      </trkpt>
      <trkpt lat="43.47518" lon="2.63562">
        <ele>404.6</ele>
        <time>2026-05-22T14:13:09Z</time>
      </trkpt>
      <trkpt lat="43.47517" lon="2.63552">
        <ele>404.6</ele>
        <time>2026-05-22T14:13:14Z</time>
      </trkpt>
      <trkpt lat="43.47517" lon="2.63543">
        <ele>404.5</ele>
        <time>2026-05-22T14:13:19Z</time>
      </trkpt>
      <trkpt lat="43.47516" lon="2.63535">
        <ele>404.5</ele>
        <time>2026-05-22T14:13:24Z</time>
      </trkpt>
      <trkpt lat="43.47512" lon="2.63527">
        <ele>404.9</ele>
        <time>2026-05-22T14:13:29Z</time>
      </trkpt>
      <trkpt lat="43.47508" lon="2.6352">
        <ele>405.3</ele>
        <time>2026-05-22T14:13:34Z</time>
      </trkpt>
      <trkpt lat="43.47505" lon="2.6351">
        <ele>405.5</ele>
        <time>2026-05-22T14:13:39Z</time>
      </trkpt>
      <trkpt lat="43.47504" lon="2.635">
        <ele>405.5</ele>
        <time>2026-05-22T14:13:44Z</time>
      </trkpt>
      <trkpt lat="43.47503" lon="2.6349">
        <ele>406</ele>
        <time>2026-05-22T14:13:49Z</time>
      </trkpt>
      <trkpt lat="43.47503" lon="2.6348">
        <ele>406.3</ele>
        <time>2026-05-22T14:13:54Z</time>
      </trkpt>
      <trkpt lat="43.47503" lon="2.63471">
        <ele>406.6</ele>
        <time>2026-05-22T14:13:59Z</time>
      </trkpt>
      <trkpt lat="43.47502" lon="2.63463">
        <ele>407</ele>
        <time>2026-05-22T14:14:04Z</time>
      </trkpt>
      <trkpt lat="43.47501" lon="2.63454">
        <ele>407.5</ele>
        <time>2026-05-22T14:14:09Z</time>
      </trkpt>
      <trkpt lat="43.47499" lon="2.63443">
        <ele>408.2</ele>
        <time>2026-05-22T14:14:14Z</time>
      </trkpt>
      <trkpt lat="43.47499" lon="2.63432">
        <ele>408.6</ele>
        <time>2026-05-22T14:14:19Z</time>
      </trkpt>
      <trkpt lat="43.47495" lon="2.63419">
        <ele>409.8</ele>
        <time>2026-05-22T14:14:24Z</time>
      </trkpt>
      <trkpt lat="43.47493" lon="2.63411">
        <ele>410</ele>
        <time>2026-05-22T14:14:29Z</time>
      </trkpt>
      <trkpt lat="43.47493" lon="2.63402">
        <ele>409.5</ele>
        <time>2026-05-22T14:14:34Z</time>
      </trkpt>
      <trkpt lat="43.47492" lon="2.63393">
        <ele>409.2</ele>
        <time>2026-05-22T14:14:39Z</time>
      </trkpt>
      <trkpt lat="43.47491" lon="2.63382">
        <ele>408.9</ele>
        <time>2026-05-22T14:14:44Z</time>
      </trkpt>
      <trkpt lat="43.47491" lon="2.63371">
        <ele>408.3</ele>
        <time>2026-05-22T14:14:49Z</time>
      </trkpt>
      <trkpt lat="43.47492" lon="2.63363">
        <ele>407.7</ele>
        <time>2026-05-22T14:14:54Z</time>
      </trkpt>
      <trkpt lat="43.47491" lon="2.63354">
        <ele>407.4</ele>
        <time>2026-05-22T14:14:59Z</time>
      </trkpt>
      <trkpt lat="43.47492" lon="2.63344">
        <ele>406.8</ele>
        <time>2026-05-22T14:15:04Z</time>
      </trkpt>
      <trkpt lat="43.47491" lon="2.63334">
        <ele>406.4</ele>
        <time>2026-05-22T14:15:09Z</time>
      </trkpt>
      <trkpt lat="43.4749" lon="2.63326">
        <ele>406.5</ele>
        <time>2026-05-22T14:15:14Z</time>
      </trkpt>
      <trkpt lat="43.4749" lon="2.63316">
        <ele>406.4</ele>
        <time>2026-05-22T14:15:19Z</time>
      </trkpt>
      <trkpt lat="43.47489" lon="2.63306">
        <ele>406.5</ele>
        <time>2026-05-22T14:15:24Z</time>
      </trkpt>
      <trkpt lat="43.47487" lon="2.63295">
        <ele>406.7</ele>
        <time>2026-05-22T14:15:29Z</time>
      </trkpt>
      <trkpt lat="43.47486" lon="2.63285">
        <ele>406.8</ele>
        <time>2026-05-22T14:15:34Z</time>
      </trkpt>
      <trkpt lat="43.47486" lon="2.63275">
        <ele>406.7</ele>
        <time>2026-05-22T14:15:39Z</time>
      </trkpt>
      <trkpt lat="43.47486" lon="2.63268">
        <ele>406.7</ele>
        <time>2026-05-22T14:15:44Z</time>
      </trkpt>
      <trkpt lat="43.47486" lon="2.63259">
        <ele>406.6</ele>
        <time>2026-05-22T14:15:49Z</time>
      </trkpt>
      <trkpt lat="43.47486" lon="2.6325">
        <ele>406.5</ele>
        <time>2026-05-22T14:15:54Z</time>
      </trkpt>
      <trkpt lat="43.47482" lon="2.63238">
        <ele>406.8</ele>
        <time>2026-05-22T14:15:59Z</time>
      </trkpt>
      <trkpt lat="43.47481" lon="2.63229">
        <ele>406.7</ele>
        <time>2026-05-22T14:16:04Z</time>
      </trkpt>
      <trkpt lat="43.47479" lon="2.63218">
        <ele>406.6</ele>
        <time>2026-05-22T14:16:09Z</time>
      </trkpt>
      <trkpt lat="43.47478" lon="2.63209">
        <ele>406.5</ele>
        <time>2026-05-22T14:16:14Z</time>
      </trkpt>
      <trkpt lat="43.47476" lon="2.63199">
        <ele>406.4</ele>
        <time>2026-05-22T14:16:19Z</time>
      </trkpt>
      <trkpt lat="43.47475" lon="2.6319">
        <ele>406.2</ele>
        <time>2026-05-22T14:16:24Z</time>
      </trkpt>
      <trkpt lat="43.47473" lon="2.6318">
        <ele>406.1</ele>
        <time>2026-05-22T14:16:29Z</time>
      </trkpt>
      <trkpt lat="43.47471" lon="2.63168">
        <ele>405.9</ele>
        <time>2026-05-22T14:16:34Z</time>
      </trkpt>
      <trkpt lat="43.47471" lon="2.63158">
        <ele>406</ele>
        <time>2026-05-22T14:16:39Z</time>
      </trkpt>
      <trkpt lat="43.47469" lon="2.63143">
        <ele>406.5</ele>
        <time>2026-05-22T14:16:44Z</time>
      </trkpt>
      <trkpt lat="43.4747" lon="2.63139">
        <ele>406.4</ele>
        <time>2026-05-22T14:16:49Z</time>
      </trkpt>
      <trkpt lat="43.47473" lon="2.63139">
        <ele>406</ele>
        <time>2026-05-22T14:16:54Z</time>
      </trkpt>
      <trkpt lat="43.47474" lon="2.63138">
        <ele>405.9</ele>
        <time>2026-05-22T14:16:59Z</time>
      </trkpt>
      <trkpt lat="43.47474" lon="2.63138">
        <ele>405.9</ele>
        <time>2026-05-22T14:17:04Z</time>
      </trkpt>
      <trkpt lat="43.47474" lon="2.63138">
        <ele>405.9</ele>
        <time>2026-05-22T14:17:09Z</time>
      </trkpt>
      <trkpt lat="43.47474" lon="2.63138">
        <ele>405.9</ele>
        <time>2026-05-22T14:17:14Z</time>
      </trkpt>
      <trkpt lat="43.47474" lon="2.63138">
        <ele>405.9</ele>
        <time>2026-05-22T14:17:19Z</time>
      </trkpt>
      <trkpt lat="43.47471" lon="2.63133">
        <ele>406.4</ele>
        <time>2026-05-22T14:17:24Z</time>
      </trkpt>
      <trkpt lat="43.47471" lon="2.63127">
        <ele>406.5</ele>
        <time>2026-05-22T14:17:29Z</time>
      </trkpt>
      <trkpt lat="43.47468" lon="2.63118">
        <ele>407.1</ele>
        <time>2026-05-22T14:17:34Z</time>
      </trkpt>
      <trkpt lat="43.47466" lon="2.63108">
        <ele>407.6</ele>
        <time>2026-05-22T14:17:39Z</time>
      </trkpt>
      <trkpt lat="43.47464" lon="2.63097">
        <ele>408.2</ele>
        <time>2026-05-22T14:17:44Z</time>
      </trkpt>
      <trkpt lat="43.47462" lon="2.63087">
        <ele>408.8</ele>
        <time>2026-05-22T14:17:49Z</time>
      </trkpt>
      <trkpt lat="43.47462" lon="2.63077">
        <ele>409.4</ele>
        <time>2026-05-22T14:17:54Z</time>
      </trkpt>
      <trkpt lat="43.47461" lon="2.63067">
        <ele>410.4</ele>
        <time>2026-05-22T14:17:59Z</time>
      </trkpt>
      <trkpt lat="43.47459" lon="2.63056">
        <ele>411.8</ele>
        <time>2026-05-22T14:18:04Z</time>
      </trkpt>
      <trkpt lat="43.47457" lon="2.63045">
        <ele>413.3</ele>
        <time>2026-05-22T14:18:09Z</time>
      </trkpt>
      <trkpt lat="43.47455" lon="2.63035">
        <ele>414.7</ele>
        <time>2026-05-22T14:18:14Z</time>
      </trkpt>
      <trkpt lat="43.47455" lon="2.63026">
        <ele>415.5</ele>
        <time>2026-05-22T14:18:19Z</time>
      </trkpt>
      <trkpt lat="43.47454" lon="2.63017">
        <ele>416.6</ele>
        <time>2026-05-22T14:18:24Z</time>
      </trkpt>
      <trkpt lat="43.47454" lon="2.63008">
        <ele>417.5</ele>
        <time>2026-05-22T14:18:29Z</time>
      </trkpt>
      <trkpt lat="43.47451" lon="2.62998">
        <ele>419.1</ele>
        <time>2026-05-22T14:18:34Z</time>
      </trkpt>
      <trkpt lat="43.4745" lon="2.62987">
        <ele>419.3</ele>
        <time>2026-05-22T14:18:39Z</time>
      </trkpt>
      <trkpt lat="43.47448" lon="2.62978">
        <ele>419.8</ele>
        <time>2026-05-22T14:18:44Z</time>
      </trkpt>
      <trkpt lat="43.47447" lon="2.62971">
        <ele>420</ele>
        <time>2026-05-22T14:18:49Z</time>
      </trkpt>
      <trkpt lat="43.47445" lon="2.62959">
        <ele>420.5</ele>
        <time>2026-05-22T14:18:54Z</time>
      </trkpt>
      <trkpt lat="43.47445" lon="2.6295">
        <ele>420.4</ele>
        <time>2026-05-22T14:18:59Z</time>
      </trkpt>
      <trkpt lat="43.47445" lon="2.62941">
        <ele>420.4</ele>
        <time>2026-05-22T14:19:04Z</time>
      </trkpt>
      <trkpt lat="43.47444" lon="2.62934">
        <ele>420.6</ele>
        <time>2026-05-22T14:19:09Z</time>
      </trkpt>
      <trkpt lat="43.47442" lon="2.62925">
        <ele>421.1</ele>
        <time>2026-05-22T14:19:14Z</time>
      </trkpt>
      <trkpt lat="43.47442" lon="2.62914">
        <ele>420.9</ele>
        <time>2026-05-22T14:19:19Z</time>
      </trkpt>
      <trkpt lat="43.47443" lon="2.62904">
        <ele>420.4</ele>
        <time>2026-05-22T14:19:24Z</time>
      </trkpt>
      <trkpt lat="43.47443" lon="2.62891">
        <ele>420</ele>
        <time>2026-05-22T14:19:29Z</time>
      </trkpt>
      <trkpt lat="43.47444" lon="2.62881">
        <ele>419.4</ele>
        <time>2026-05-22T14:19:34Z</time>
      </trkpt>
      <trkpt lat="43.47445" lon="2.62871">
        <ele>418.9</ele>
        <time>2026-05-22T14:19:39Z</time>
      </trkpt>
      <trkpt lat="43.47446" lon="2.62863">
        <ele>418.5</ele>
        <time>2026-05-22T14:19:44Z</time>
      </trkpt>
      <trkpt lat="43.47445" lon="2.62852">
        <ele>418.4</ele>
        <time>2026-05-22T14:19:49Z</time>
      </trkpt>
      <trkpt lat="43.47444" lon="2.62841">
        <ele>418.3</ele>
        <time>2026-05-22T14:19:54Z</time>
      </trkpt>
      <trkpt lat="43.47445" lon="2.62831">
        <ele>417.6</ele>
        <time>2026-05-22T14:19:59Z</time>
      </trkpt>
      <trkpt lat="43.47448" lon="2.62821">
        <ele>416</ele>
        <time>2026-05-22T14:20:04Z</time>
      </trkpt>
      <trkpt lat="43.47451" lon="2.62812">
        <ele>414.5</ele>
        <time>2026-05-22T14:20:09Z</time>
      </trkpt>
      <trkpt lat="43.47452" lon="2.62803">
        <ele>413.4</ele>
        <time>2026-05-22T14:20:14Z</time>
      </trkpt>
      <trkpt lat="43.47453" lon="2.62792">
        <ele>412.2</ele>
        <time>2026-05-22T14:20:19Z</time>
      </trkpt>
      <trkpt lat="43.47453" lon="2.62779">
        <ele>411</ele>
        <time>2026-05-22T14:20:24Z</time>
      </trkpt>
      <trkpt lat="43.47458" lon="2.62766">
        <ele>409</ele>
        <time>2026-05-22T14:20:29Z</time>
      </trkpt>
      <trkpt lat="43.4746" lon="2.62759">
        <ele>408.1</ele>
        <time>2026-05-22T14:20:34Z</time>
      </trkpt>
      <trkpt lat="43.47463" lon="2.62749">
        <ele>407</ele>
        <time>2026-05-22T14:20:39Z</time>
      </trkpt>
      <trkpt lat="43.47466" lon="2.62738">
        <ele>407.5</ele>
        <time>2026-05-22T14:20:44Z</time>
      </trkpt>
      <trkpt lat="43.47469" lon="2.62728">
        <ele>408.1</ele>
        <time>2026-05-22T14:20:49Z</time>
      </trkpt>
      <trkpt lat="43.47472" lon="2.62719">
        <ele>408.5</ele>
        <time>2026-05-22T14:20:54Z</time>
      </trkpt>
      <trkpt lat="43.47476" lon="2.6271">
        <ele>408.9</ele>
        <time>2026-05-22T14:20:59Z</time>
      </trkpt>
      <trkpt lat="43.47478" lon="2.62702">
        <ele>409.5</ele>
        <time>2026-05-22T14:21:04Z</time>
      </trkpt>
      <trkpt lat="43.47481" lon="2.6269">
        <ele>410.3</ele>
        <time>2026-05-22T14:21:09Z</time>
      </trkpt>
      <trkpt lat="43.47484" lon="2.62682">
        <ele>410.8</ele>
        <time>2026-05-22T14:21:14Z</time>
      </trkpt>
      <trkpt lat="43.47487" lon="2.62674">
        <ele>411.4</ele>
        <time>2026-05-22T14:21:19Z</time>
      </trkpt>
      <trkpt lat="43.47489" lon="2.62664">
        <ele>412.6</ele>
        <time>2026-05-22T14:21:24Z</time>
      </trkpt>
      <trkpt lat="43.47491" lon="2.62654">
        <ele>414.8</ele>
        <time>2026-05-22T14:21:29Z</time>
      </trkpt>
      <trkpt lat="43.47497" lon="2.62643">
        <ele>417.1</ele>
        <time>2026-05-22T14:21:34Z</time>
      </trkpt>
      <trkpt lat="43.47503" lon="2.62635">
        <ele>418.5</ele>
        <time>2026-05-22T14:21:39Z</time>
      </trkpt>
      <trkpt lat="43.47504" lon="2.62626">
        <ele>420.6</ele>
        <time>2026-05-22T14:21:44Z</time>
      </trkpt>
      <trkpt lat="43.47506" lon="2.62618">
        <ele>422.3</ele>
        <time>2026-05-22T14:21:49Z</time>
      </trkpt>
      <trkpt lat="43.47506" lon="2.6261">
        <ele>424.3</ele>
        <time>2026-05-22T14:21:54Z</time>
      </trkpt>
      <trkpt lat="43.47508" lon="2.62601">
        <ele>426.3</ele>
        <time>2026-05-22T14:21:59Z</time>
      </trkpt>
      <trkpt lat="43.47511" lon="2.62592">
        <ele>428.1</ele>
        <time>2026-05-22T14:22:04Z</time>
      </trkpt>
      <trkpt lat="43.47514" lon="2.62588">
        <ele>428.6</ele>
        <time>2026-05-22T14:22:09Z</time>
      </trkpt>
      <trkpt lat="43.47519" lon="2.62583">
        <ele>429.1</ele>
        <time>2026-05-22T14:22:14Z</time>
      </trkpt>
      <trkpt lat="43.47522" lon="2.62577">
        <ele>430.1</ele>
        <time>2026-05-22T14:22:19Z</time>
      </trkpt>
      <trkpt lat="43.47524" lon="2.62565">
        <ele>432.7</ele>
        <time>2026-05-22T14:22:24Z</time>
      </trkpt>
      <trkpt lat="43.47526" lon="2.62556">
        <ele>434.5</ele>
        <time>2026-05-22T14:22:29Z</time>
      </trkpt>
      <trkpt lat="43.47527" lon="2.62541">
        <ele>438</ele>
        <time>2026-05-22T14:22:34Z</time>
      </trkpt>
      <trkpt lat="43.47565" lon="2.6247">
        <ele>439.7</ele>
        <time>2026-05-22T14:23:28Z</time>
      </trkpt>
      <trkpt lat="43.47559" lon="2.62391">
        <ele>434.6</ele>
        <time>2026-05-22T14:23:32Z</time>
      </trkpt>
      <trkpt lat="43.47576" lon="2.62397">
        <ele>430.4</ele>
        <time>2026-05-22T14:23:37Z</time>
      </trkpt>
      <trkpt lat="43.4758" lon="2.624">
        <ele>429.9</ele>
        <time>2026-05-22T14:23:42Z</time>
      </trkpt>
      <trkpt lat="43.4758" lon="2.62392">
        <ele>427.9</ele>
        <time>2026-05-22T14:23:47Z</time>
      </trkpt>
      <trkpt lat="43.4758" lon="2.62381">
        <ele>425.2</ele>
        <time>2026-05-22T14:23:52Z</time>
      </trkpt>
      <trkpt lat="43.47581" lon="2.62376">
        <ele>423.6</ele>
        <time>2026-05-22T14:23:57Z</time>
      </trkpt>
      <trkpt lat="43.47584" lon="2.62372">
        <ele>421.5</ele>
        <time>2026-05-22T14:24:02Z</time>
      </trkpt>
      <trkpt lat="43.47586" lon="2.62365">
        <ele>419.1</ele>
        <time>2026-05-22T14:24:07Z</time>
      </trkpt>
      <trkpt lat="43.47587" lon="2.62358">
        <ele>417</ele>
        <time>2026-05-22T14:24:12Z</time>
      </trkpt>
      <trkpt lat="43.47587" lon="2.6235">
        <ele>415</ele>
        <time>2026-05-22T14:24:17Z</time>
      </trkpt>
      <trkpt lat="43.47589" lon="2.62342">
        <ele>412.5</ele>
        <time>2026-05-22T14:24:22Z</time>
      </trkpt>
      <trkpt lat="43.47591" lon="2.62327">
        <ele>408.1</ele>
        <time>2026-05-22T14:24:27Z</time>
      </trkpt>
      <trkpt lat="43.47591" lon="2.62316">
        <ele>405.1</ele>
        <time>2026-05-22T14:24:32Z</time>
      </trkpt>
      <trkpt lat="43.47589" lon="2.62309">
        <ele>403.7</ele>
        <time>2026-05-22T14:24:37Z</time>
      </trkpt>
      <trkpt lat="43.47589" lon="2.62309">
        <ele>403.7</ele>
        <time>2026-05-22T14:24:42Z</time>
      </trkpt>
      <trkpt lat="43.47589" lon="2.62309">
        <ele>403.7</ele>
        <time>2026-05-22T14:24:47Z</time>
      </trkpt>
      <trkpt lat="43.47589" lon="2.62309">
        <ele>403.7</ele>
        <time>2026-05-22T14:24:52Z</time>
      </trkpt>
      <trkpt lat="43.47588" lon="2.62307">
        <ele>403.4</ele>
        <time>2026-05-22T14:24:57Z</time>
      </trkpt>
      <trkpt lat="43.47589" lon="2.623">
        <ele>401.2</ele>
        <time>2026-05-22T14:25:02Z</time>
      </trkpt>
      <trkpt lat="43.47591" lon="2.62292">
        <ele>398.7</ele>
        <time>2026-05-22T14:25:07Z</time>
      </trkpt>
      <trkpt lat="43.47592" lon="2.62281">
        <ele>395.5</ele>
        <time>2026-05-22T14:25:12Z</time>
      </trkpt>
      <trkpt lat="43.47592" lon="2.62266">
        <ele>391.5</ele>
        <time>2026-05-22T14:25:17Z</time>
      </trkpt>
      <trkpt lat="43.4759" lon="2.62254">
        <ele>388.5</ele>
        <time>2026-05-22T14:25:22Z</time>
      </trkpt>
      <trkpt lat="43.47591" lon="2.62245">
        <ele>386.9</ele>
        <time>2026-05-22T14:25:27Z</time>
      </trkpt>
      <trkpt lat="43.47591" lon="2.62235">
        <ele>385.9</ele>
        <time>2026-05-22T14:25:32Z</time>
      </trkpt>
      <trkpt lat="43.47592" lon="2.62228">
        <ele>385.1</ele>
        <time>2026-05-22T14:25:37Z</time>
      </trkpt>
      <trkpt lat="43.47592" lon="2.62221">
        <ele>384.4</ele>
        <time>2026-05-22T14:25:42Z</time>
      </trkpt>
      <trkpt lat="43.47592" lon="2.6221">
        <ele>383.4</ele>
        <time>2026-05-22T14:25:47Z</time>
      </trkpt>
      <trkpt lat="43.4759" lon="2.62199">
        <ele>382.2</ele>
        <time>2026-05-22T14:25:52Z</time>
      </trkpt>
      <trkpt lat="43.47588" lon="2.62189">
        <ele>381</ele>
        <time>2026-05-22T14:25:57Z</time>
      </trkpt>
      <trkpt lat="43.47587" lon="2.62181">
        <ele>380.1</ele>
        <time>2026-05-22T14:26:02Z</time>
      </trkpt>
      <trkpt lat="43.47586" lon="2.62171">
        <ele>378.8</ele>
        <time>2026-05-22T14:26:07Z</time>
      </trkpt>
      <trkpt lat="43.47587" lon="2.62163">
        <ele>378.4</ele>
        <time>2026-05-22T14:26:12Z</time>
      </trkpt>
      <trkpt lat="43.47584" lon="2.62153">
        <ele>377.8</ele>
        <time>2026-05-22T14:26:17Z</time>
      </trkpt>
      <trkpt lat="43.47582" lon="2.62145">
        <ele>378</ele>
        <time>2026-05-22T14:26:22Z</time>
      </trkpt>
      <trkpt lat="43.47582" lon="2.62135">
        <ele>377.7</ele>
        <time>2026-05-22T14:26:27Z</time>
      </trkpt>
      <trkpt lat="43.47578" lon="2.62122">
        <ele>378.6</ele>
        <time>2026-05-22T14:26:32Z</time>
      </trkpt>
      <trkpt lat="43.47575" lon="2.62112">
        <ele>379</ele>
        <time>2026-05-22T14:26:37Z</time>
      </trkpt>
      <trkpt lat="43.47573" lon="2.62102">
        <ele>379.1</ele>
        <time>2026-05-22T14:26:42Z</time>
      </trkpt>
      <trkpt lat="43.47571" lon="2.62094">
        <ele>379.1</ele>
        <time>2026-05-22T14:26:47Z</time>
      </trkpt>
      <trkpt lat="43.47571" lon="2.62086">
        <ele>378.7</ele>
        <time>2026-05-22T14:26:52Z</time>
      </trkpt>
      <trkpt lat="43.47572" lon="2.62077">
        <ele>378.4</ele>
        <time>2026-05-22T14:26:57Z</time>
      </trkpt>
      <trkpt lat="43.47571" lon="2.62075">
        <ele>378.6</ele>
        <time>2026-05-22T14:27:02Z</time>
      </trkpt>
      <trkpt lat="43.4757" lon="2.62069">
        <ele>378.9</ele>
        <time>2026-05-22T14:27:07Z</time>
      </trkpt>
      <trkpt lat="43.47565" lon="2.62063">
        <ele>379.8</ele>
        <time>2026-05-22T14:27:12Z</time>
      </trkpt>
      <trkpt lat="43.47562" lon="2.62055">
        <ele>380.3</ele>
        <time>2026-05-22T14:27:17Z</time>
      </trkpt>
      <trkpt lat="43.4756" lon="2.62049">
        <ele>380.6</ele>
        <time>2026-05-22T14:27:22Z</time>
      </trkpt>
      <trkpt lat="43.47559" lon="2.62039">
        <ele>380.7</ele>
        <time>2026-05-22T14:27:27Z</time>
      </trkpt>
      <trkpt lat="43.47556" lon="2.62029">
        <ele>381</ele>
        <time>2026-05-22T14:27:32Z</time>
      </trkpt>
      <trkpt lat="43.47557" lon="2.62022">
        <ele>380.8</ele>
        <time>2026-05-22T14:27:37Z</time>
      </trkpt>
      <trkpt lat="43.47554" lon="2.62014">
        <ele>381</ele>
        <time>2026-05-22T14:27:42Z</time>
      </trkpt>
      <trkpt lat="43.47551" lon="2.62004">
        <ele>381</ele>
        <time>2026-05-22T14:27:47Z</time>
      </trkpt>
      <trkpt lat="43.47546" lon="2.61991">
        <ele>381.3</ele>
        <time>2026-05-22T14:27:52Z</time>
      </trkpt>
      <trkpt lat="43.47545" lon="2.61981">
        <ele>381.3</ele>
        <time>2026-05-22T14:27:57Z</time>
      </trkpt>
      <trkpt lat="43.47542" lon="2.6197">
        <ele>381.3</ele>
        <time>2026-05-22T14:28:02Z</time>
      </trkpt>
      <trkpt lat="43.47539" lon="2.61959">
        <ele>381.2</ele>
        <time>2026-05-22T14:28:07Z</time>
      </trkpt>
      <trkpt lat="43.47537" lon="2.61951">
        <ele>381.1</ele>
        <time>2026-05-22T14:28:12Z</time>
      </trkpt>
      <trkpt lat="43.47535" lon="2.61942">
        <ele>380.8</ele>
        <time>2026-05-22T14:28:17Z</time>
      </trkpt>
      <trkpt lat="43.47532" lon="2.61934">
        <ele>380.5</ele>
        <time>2026-05-22T14:28:22Z</time>
      </trkpt>
      <trkpt lat="43.47527" lon="2.61922">
        <ele>379.8</ele>
        <time>2026-05-22T14:28:27Z</time>
      </trkpt>
      <trkpt lat="43.47524" lon="2.61913">
        <ele>379.3</ele>
        <time>2026-05-22T14:28:32Z</time>
      </trkpt>
      <trkpt lat="43.4752" lon="2.61904">
        <ele>378.9</ele>
        <time>2026-05-22T14:28:37Z</time>
      </trkpt>
      <trkpt lat="43.47517" lon="2.61894">
        <ele>378.6</ele>
        <time>2026-05-22T14:28:42Z</time>
      </trkpt>
      <trkpt lat="43.47513" lon="2.61885">
        <ele>378.1</ele>
        <time>2026-05-22T14:28:47Z</time>
      </trkpt>
      <trkpt lat="43.47508" lon="2.61879">
        <ele>377.5</ele>
        <time>2026-05-22T14:28:52Z</time>
      </trkpt>
      <trkpt lat="43.47503" lon="2.61867">
        <ele>376.8</ele>
        <time>2026-05-22T14:28:57Z</time>
      </trkpt>
      <trkpt lat="43.47499" lon="2.61855">
        <ele>376.5</ele>
        <time>2026-05-22T14:29:02Z</time>
      </trkpt>
      <trkpt lat="43.47495" lon="2.61846">
        <ele>377.2</ele>
        <time>2026-05-22T14:29:07Z</time>
      </trkpt>
      <trkpt lat="43.47494" lon="2.61839">
        <ele>377.2</ele>
        <time>2026-05-22T14:29:12Z</time>
      </trkpt>
      <trkpt lat="43.4749" lon="2.61833">
        <ele>377.8</ele>
        <time>2026-05-22T14:29:17Z</time>
      </trkpt>
      <trkpt lat="43.47486" lon="2.61826">
        <ele>378.5</ele>
        <time>2026-05-22T14:29:22Z</time>
      </trkpt>
      <trkpt lat="43.47483" lon="2.61819">
        <ele>379</ele>
        <time>2026-05-22T14:29:27Z</time>
      </trkpt>
      <trkpt lat="43.47478" lon="2.6181">
        <ele>379.6</ele>
        <time>2026-05-22T14:29:32Z</time>
      </trkpt>
      <trkpt lat="43.47474" lon="2.61803">
        <ele>380</ele>
        <time>2026-05-22T14:29:37Z</time>
      </trkpt>
      <trkpt lat="43.47471" lon="2.61798">
        <ele>380.1</ele>
        <time>2026-05-22T14:29:42Z</time>
      </trkpt>
      <trkpt lat="43.47468" lon="2.61788">
        <ele>380</ele>
        <time>2026-05-22T14:29:47Z</time>
      </trkpt>
      <trkpt lat="43.47465" lon="2.6178">
        <ele>379.9</ele>
        <time>2026-05-22T14:29:52Z</time>
      </trkpt>
      <trkpt lat="43.47463" lon="2.61772">
        <ele>379.6</ele>
        <time>2026-05-22T14:29:57Z</time>
      </trkpt>
      <trkpt lat="43.47457" lon="2.6176">
        <ele>379.1</ele>
        <time>2026-05-22T14:30:02Z</time>
      </trkpt>
      <trkpt lat="43.47455" lon="2.61753">
        <ele>378.7</ele>
        <time>2026-05-22T14:30:07Z</time>
      </trkpt>
      <trkpt lat="43.47452" lon="2.61746">
        <ele>378.3</ele>
        <time>2026-05-22T14:30:12Z</time>
      </trkpt>
      <trkpt lat="43.47451" lon="2.61738">
        <ele>378.1</ele>
        <time>2026-05-22T14:30:17Z</time>
      </trkpt>
      <trkpt lat="43.47447" lon="2.61727">
        <ele>377.5</ele>
        <time>2026-05-22T14:30:22Z</time>
      </trkpt>
      <trkpt lat="43.47443" lon="2.61715">
        <ele>376.8</ele>
        <time>2026-05-22T14:30:27Z</time>
      </trkpt>
      <trkpt lat="43.47441" lon="2.61707">
        <ele>376.3</ele>
        <time>2026-05-22T14:30:32Z</time>
      </trkpt>
      <trkpt lat="43.4744" lon="2.61702">
        <ele>376</ele>
        <time>2026-05-22T14:30:37Z</time>
      </trkpt>
      <trkpt lat="43.47437" lon="2.61695">
        <ele>375.4</ele>
        <time>2026-05-22T14:30:42Z</time>
      </trkpt>
      <trkpt lat="43.47436" lon="2.61684">
        <ele>374.7</ele>
        <time>2026-05-22T14:30:47Z</time>
      </trkpt>
      <trkpt lat="43.47435" lon="2.61673">
        <ele>374</ele>
        <time>2026-05-22T14:30:52Z</time>
      </trkpt>
      <trkpt lat="43.47432" lon="2.61663">
        <ele>373.2</ele>
        <time>2026-05-22T14:30:57Z</time>
      </trkpt>
      <trkpt lat="43.47429" lon="2.61652">
        <ele>372.8</ele>
        <time>2026-05-22T14:31:02Z</time>
      </trkpt>
      <trkpt lat="43.47427" lon="2.61643">
        <ele>372.4</ele>
        <time>2026-05-22T14:31:07Z</time>
      </trkpt>
      <trkpt lat="43.47424" lon="2.61634">
        <ele>371.9</ele>
        <time>2026-05-22T14:31:12Z</time>
      </trkpt>
      <trkpt lat="43.47423" lon="2.61623">
        <ele>371.6</ele>
        <time>2026-05-22T14:31:17Z</time>
      </trkpt>
      <trkpt lat="43.47423" lon="2.61614">
        <ele>371.6</ele>
        <time>2026-05-22T14:31:22Z</time>
      </trkpt>
      <trkpt lat="43.47422" lon="2.61601">
        <ele>371.3</ele>
        <time>2026-05-22T14:31:27Z</time>
      </trkpt>
      <trkpt lat="43.4742" lon="2.61593">
        <ele>370.8</ele>
        <time>2026-05-22T14:31:32Z</time>
      </trkpt>
      <trkpt lat="43.47419" lon="2.61582">
        <ele>370.5</ele>
        <time>2026-05-22T14:31:37Z</time>
      </trkpt>
      <trkpt lat="43.47419" lon="2.61573">
        <ele>370.5</ele>
        <time>2026-05-22T14:31:42Z</time>
      </trkpt>
      <trkpt lat="43.47418" lon="2.61562">
        <ele>370.3</ele>
        <time>2026-05-22T14:31:47Z</time>
      </trkpt>
      <trkpt lat="43.47415" lon="2.61552">
        <ele>370.2</ele>
        <time>2026-05-22T14:31:52Z</time>
      </trkpt>
      <trkpt lat="43.47416" lon="2.61541">
        <ele>370.1</ele>
        <time>2026-05-22T14:31:57Z</time>
      </trkpt>
      <trkpt lat="43.47416" lon="2.6153">
        <ele>370.1</ele>
        <time>2026-05-22T14:32:02Z</time>
      </trkpt>
      <trkpt lat="43.47414" lon="2.6152">
        <ele>370.4</ele>
        <time>2026-05-22T14:32:07Z</time>
      </trkpt>
      <trkpt lat="43.47413" lon="2.61511">
        <ele>370.5</ele>
        <time>2026-05-22T14:32:12Z</time>
      </trkpt>
      <trkpt lat="43.47411" lon="2.61502">
        <ele>370.8</ele>
        <time>2026-05-22T14:32:17Z</time>
      </trkpt>
      <trkpt lat="43.47409" lon="2.6149">
        <ele>371</ele>
        <time>2026-05-22T14:32:22Z</time>
      </trkpt>
      <trkpt lat="43.47406" lon="2.61481">
        <ele>371.4</ele>
        <time>2026-05-22T14:32:27Z</time>
      </trkpt>
      <trkpt lat="43.47405" lon="2.61469">
        <ele>371.4</ele>
        <time>2026-05-22T14:32:32Z</time>
      </trkpt>
      <trkpt lat="43.47402" lon="2.61456">
        <ele>371.6</ele>
        <time>2026-05-22T14:32:37Z</time>
      </trkpt>
      <trkpt lat="43.47397" lon="2.61446">
        <ele>372.1</ele>
        <time>2026-05-22T14:32:42Z</time>
      </trkpt>
      <trkpt lat="43.47393" lon="2.61436">
        <ele>372.3</ele>
        <time>2026-05-22T14:32:47Z</time>
      </trkpt>
      <trkpt lat="43.47391" lon="2.61428">
        <ele>372.4</ele>
        <time>2026-05-22T14:32:52Z</time>
      </trkpt>
      <trkpt lat="43.47389" lon="2.61418">
        <ele>372.4</ele>
        <time>2026-05-22T14:32:57Z</time>
      </trkpt>
      <trkpt lat="43.47384" lon="2.61409">
        <ele>373.1</ele>
        <time>2026-05-22T14:33:02Z</time>
      </trkpt>
      <trkpt lat="43.4738" lon="2.614">
        <ele>373.6</ele>
        <time>2026-05-22T14:33:07Z</time>
      </trkpt>
      <trkpt lat="43.47378" lon="2.61393">
        <ele>374</ele>
        <time>2026-05-22T14:33:12Z</time>
      </trkpt>
      <trkpt lat="43.47373" lon="2.61383">
        <ele>374.3</ele>
        <time>2026-05-22T14:33:17Z</time>
      </trkpt>
      <trkpt lat="43.47369" lon="2.61373">
        <ele>374.5</ele>
        <time>2026-05-22T14:33:22Z</time>
      </trkpt>
      <trkpt lat="43.47366" lon="2.61362">
        <ele>374.6</ele>
        <time>2026-05-22T14:33:27Z</time>
      </trkpt>
      <trkpt lat="43.47362" lon="2.61353">
        <ele>374.5</ele>
        <time>2026-05-22T14:33:32Z</time>
      </trkpt>
      <trkpt lat="43.47358" lon="2.61346">
        <ele>374.2</ele>
        <time>2026-05-22T14:33:37Z</time>
      </trkpt>
      <trkpt lat="43.47354" lon="2.61337">
        <ele>373.8</ele>
        <time>2026-05-22T14:33:42Z</time>
      </trkpt>
      <trkpt lat="43.47349" lon="2.61328">
        <ele>373.4</ele>
        <time>2026-05-22T14:33:47Z</time>
      </trkpt>
      <trkpt lat="43.47346" lon="2.61321">
        <ele>373.2</ele>
        <time>2026-05-22T14:33:52Z</time>
      </trkpt>
      <trkpt lat="43.47341" lon="2.61315">
        <ele>372.6</ele>
        <time>2026-05-22T14:33:57Z</time>
      </trkpt>
      <trkpt lat="43.47337" lon="2.61307">
        <ele>371.9</ele>
        <time>2026-05-22T14:34:02Z</time>
      </trkpt>
      <trkpt lat="43.47333" lon="2.61298">
        <ele>371.2</ele>
        <time>2026-05-22T14:34:07Z</time>
      </trkpt>
      <trkpt lat="43.4733" lon="2.61292">
        <ele>371.9</ele>
        <time>2026-05-22T14:34:12Z</time>
      </trkpt>
      <trkpt lat="43.47324" lon="2.61281">
        <ele>372.9</ele>
        <time>2026-05-22T14:34:17Z</time>
      </trkpt>
      <trkpt lat="43.47318" lon="2.61269">
        <ele>373.7</ele>
        <time>2026-05-22T14:34:22Z</time>
      </trkpt>
      <trkpt lat="43.47315" lon="2.61262">
        <ele>373.8</ele>
        <time>2026-05-22T14:34:27Z</time>
      </trkpt>
      <trkpt lat="43.47313" lon="2.61258">
        <ele>374</ele>
        <time>2026-05-22T14:34:32Z</time>
      </trkpt>
      <trkpt lat="43.47309" lon="2.61251">
        <ele>374.2</ele>
        <time>2026-05-22T14:34:37Z</time>
      </trkpt>
      <trkpt lat="43.47304" lon="2.61243">
        <ele>375</ele>
        <time>2026-05-22T14:34:42Z</time>
      </trkpt>
      <trkpt lat="43.47298" lon="2.6123">
        <ele>375.7</ele>
        <time>2026-05-22T14:34:47Z</time>
      </trkpt>
      <trkpt lat="43.47294" lon="2.6122">
        <ele>375.9</ele>
        <time>2026-05-22T14:34:52Z</time>
      </trkpt>
      <trkpt lat="43.47289" lon="2.61213">
        <ele>376.1</ele>
        <time>2026-05-22T14:34:57Z</time>
      </trkpt>
      <trkpt lat="43.47286" lon="2.61206">
        <ele>375.9</ele>
        <time>2026-05-22T14:35:02Z</time>
      </trkpt>
      <trkpt lat="43.47282" lon="2.61197">
        <ele>375.6</ele>
        <time>2026-05-22T14:35:07Z</time>
      </trkpt>
      <trkpt lat="43.47277" lon="2.61188">
        <ele>375.1</ele>
        <time>2026-05-22T14:35:12Z</time>
      </trkpt>
      <trkpt lat="43.47273" lon="2.61179">
        <ele>374.4</ele>
        <time>2026-05-22T14:35:17Z</time>
      </trkpt>
      <trkpt lat="43.47269" lon="2.61171">
        <ele>373.5</ele>
        <time>2026-05-22T14:35:22Z</time>
      </trkpt>
      <trkpt lat="43.47266" lon="2.61161">
        <ele>373.1</ele>
        <time>2026-05-22T14:35:27Z</time>
      </trkpt>
      <trkpt lat="43.47264" lon="2.61152">
        <ele>373.1</ele>
        <time>2026-05-22T14:35:32Z</time>
      </trkpt>
      <trkpt lat="43.47265" lon="2.6115">
        <ele>373.3</ele>
        <time>2026-05-22T14:35:37Z</time>
      </trkpt>
      <trkpt lat="43.47265" lon="2.61145">
        <ele>373.4</ele>
        <time>2026-05-22T14:35:42Z</time>
      </trkpt>
      <trkpt lat="43.47264" lon="2.61142">
        <ele>373.3</ele>
        <time>2026-05-22T14:35:47Z</time>
      </trkpt>
      <trkpt lat="43.47263" lon="2.61151">
        <ele>373.1</ele>
        <time>2026-05-22T14:35:52Z</time>
      </trkpt>
      <trkpt lat="43.47265" lon="2.61155">
        <ele>373.2</ele>
        <time>2026-05-22T14:35:57Z</time>
      </trkpt>
      <trkpt lat="43.47267" lon="2.61159">
        <ele>373.2</ele>
        <time>2026-05-22T14:36:02Z</time>
      </trkpt>
      <trkpt lat="43.47267" lon="2.61159">
        <ele>373.2</ele>
        <time>2026-05-22T14:36:07Z</time>
      </trkpt>
      <trkpt lat="43.47267" lon="2.61159">
        <ele>373.2</ele>
        <time>2026-05-22T14:36:12Z</time>
        <extensions>
          <visugpx:TrkExtension xmlns:visugpx="https://www.visugpx.com/editgpx/">
            <visugpx:node>1</visugpx:node>
            </visugpx:TrkExtension>
        </extensions>
      </trkpt>
    </trkseg>
  </trk>
</gpx>